<?xml version="1.0" encoding="UTF-8"?>
<gpx version="1.1" creator="https://www.www-youtrack-es.amenigma.com" xsi:schemaLocation="http://www.topografix.com/GPX/1/1 http://www.topografix.com/GPX/1/1/gpx.xsd http://www.garmin.com/xmlschemas/GpxExtensions/v3 http://www.garmin.com/xmlschemas/GpxExtensionsv3.xsd http://www.garmin.com/xmlschemas/TrackPointExtension/v1 http://www.garmin.com/xmlschemas/TrackPointExtensionv1.xsd" xmlns:gpxtpx="http://www.garmin.com/xmlschemas/TrackPointExtension/v1" xmlns:gpxx="http://www.garmin.com/xmlschemas/GpxExtensions/v3" xmlns:xsi="http://www.w3.org/2001/XMLSchema-instance">
  <metadata>
    <author>
      <name>Alejandro Lecea</name>
      <email id="alex.lecea" domain="gmail.com"/>
    </author>
    <link href="https://www.www-youtrack-es.amenigma.com">
      <text>YouTrack.es</text>
    </link>
    <time>2026-08-31T03:08:39Z</time>
  </metadata>
  <trk>
    <src>https://www.www-youtrack-es.amenigma.com</src>
    <link href="https://www.www-youtrack-es.amenigma.com/ruta/39754-etapa-1-parte-1">
      <text>YouTrack.es</text>
    </link>
    <trkseg>
      <trkpt lat="41.374924" lon="2.148608">
        <ele>22.017</ele>
        <time>2016-10-17T21:08:37Z</time>
      </trkpt>
      <trkpt lat="41.373266" lon="2.146754">
        <ele>35.087</ele>
        <time>2016-10-17T21:08:57Z</time>
      </trkpt>
      <trkpt lat="41.371640" lon="2.144759">
        <ele>37.015</ele>
        <time>2016-10-17T21:09:17Z</time>
      </trkpt>
      <trkpt lat="41.370223" lon="2.142613">
        <ele>27.008</ele>
        <time>2016-10-17T21:09:37Z</time>
      </trkpt>
      <trkpt lat="41.368709" lon="2.140725">
        <ele>30.082</ele>
        <time>2016-10-17T21:09:57Z</time>
      </trkpt>
      <trkpt lat="41.367179" lon="2.138772">
        <ele>24.036</ele>
        <time>2016-10-17T21:10:17Z</time>
      </trkpt>
      <trkpt lat="41.366438" lon="2.137742">
        <ele>26.072</ele>
        <time>2016-10-17T21:10:37Z</time>
      </trkpt>
      <trkpt lat="41.366551" lon="2.136562">
        <ele>18.026</ele>
        <time>2016-10-17T21:10:57Z</time>
      </trkpt>
      <trkpt lat="41.366358" lon="2.135897">
        <ele>14.080</ele>
        <time>2016-10-17T21:11:17Z</time>
      </trkpt>
      <trkpt lat="41.365665" lon="2.133300">
        <ele>8.028</ele>
        <time>2016-10-17T21:11:37Z</time>
      </trkpt>
      <trkpt lat="41.365070" lon="2.130940">
        <ele>10.088</ele>
        <time>2016-10-17T21:11:57Z</time>
      </trkpt>
      <trkpt lat="41.364667" lon="2.128730">
        <ele>14.083</ele>
        <time>2016-10-17T21:12:17Z</time>
      </trkpt>
      <trkpt lat="41.364522" lon="2.127678">
        <ele>13.077</ele>
        <time>2016-10-17T21:12:37Z</time>
      </trkpt>
      <trkpt lat="41.364570" lon="2.126606">
        <ele>14.061</ele>
        <time>2016-10-17T21:12:57Z</time>
      </trkpt>
      <trkpt lat="41.364941" lon="2.125189">
        <ele>13.027</ele>
        <time>2016-10-17T21:13:17Z</time>
      </trkpt>
      <trkpt lat="41.365182" lon="2.124267">
        <ele>11.008</ele>
        <time>2016-10-17T21:13:37Z</time>
      </trkpt>
      <trkpt lat="41.365263" lon="2.123730">
        <ele>13.088</ele>
        <time>2016-10-17T21:13:57Z</time>
      </trkpt>
      <trkpt lat="41.365247" lon="2.123129">
        <ele>14.072</ele>
        <time>2016-10-17T21:14:17Z</time>
      </trkpt>
      <trkpt lat="41.365037" lon="2.122357">
        <ele>15.098</ele>
        <time>2016-10-17T21:14:37Z</time>
      </trkpt>
      <trkpt lat="41.364748" lon="2.121670">
        <ele>17.062</ele>
        <time>2016-10-17T21:14:57Z</time>
      </trkpt>
      <trkpt lat="41.363894" lon="2.119246">
        <ele>17.096</ele>
        <time>2016-10-17T21:15:17Z</time>
      </trkpt>
      <trkpt lat="41.363008" lon="2.116671">
        <ele>15.014</ele>
        <time>2016-10-17T21:15:37Z</time>
      </trkpt>
      <trkpt lat="41.362139" lon="2.114074">
        <ele>9.094</ele>
        <time>2016-10-17T21:15:57Z</time>
      </trkpt>
      <trkpt lat="41.361124" lon="2.111564">
        <ele>13.069</ele>
        <time>2016-10-17T21:16:17Z</time>
      </trkpt>
      <trkpt lat="41.360174" lon="2.108989">
        <ele>11.097</ele>
        <time>2016-10-17T21:16:37Z</time>
      </trkpt>
      <trkpt lat="41.359320" lon="2.106349">
        <ele>11.023</ele>
        <time>2016-10-17T21:16:57Z</time>
      </trkpt>
      <trkpt lat="41.358370" lon="2.103817">
        <ele>9.025</ele>
        <time>2016-10-17T21:17:17Z</time>
      </trkpt>
      <trkpt lat="41.357339" lon="2.101307">
        <ele>17.008</ele>
        <time>2016-10-17T21:17:37Z</time>
      </trkpt>
      <trkpt lat="41.356292" lon="2.098904">
        <ele>18.080</ele>
        <time>2016-10-17T21:17:57Z</time>
      </trkpt>
      <trkpt lat="41.355261" lon="2.096479">
        <ele>9.074</ele>
        <time>2016-10-17T21:18:17Z</time>
      </trkpt>
      <trkpt lat="41.354794" lon="2.094719">
        <ele>5.030</ele>
        <time>2016-10-17T21:18:37Z</time>
      </trkpt>
      <trkpt lat="41.354649" lon="2.094247">
        <ele>5.054</ele>
        <time>2016-10-17T21:18:57Z</time>
      </trkpt>
      <trkpt lat="41.354537" lon="2.093711">
        <ele>5.088</ele>
        <time>2016-10-17T21:19:17Z</time>
      </trkpt>
      <trkpt lat="41.354408" lon="2.093303">
        <ele>6.036</ele>
        <time>2016-10-17T21:19:37Z</time>
      </trkpt>
      <trkpt lat="41.354279" lon="2.092531">
        <ele>6.036</ele>
        <time>2016-10-17T21:19:57Z</time>
      </trkpt>
      <trkpt lat="41.354279" lon="2.092187">
        <ele>6.021</ele>
        <time>2016-10-17T21:20:17Z</time>
      </trkpt>
      <trkpt lat="41.354198" lon="2.091844">
        <ele>6.072</ele>
        <time>2016-10-17T21:20:37Z</time>
      </trkpt>
      <trkpt lat="41.353522" lon="2.090085">
        <ele>7.013</ele>
        <time>2016-10-17T21:20:57Z</time>
      </trkpt>
      <trkpt lat="41.354134" lon="2.089548">
        <ele>8.014</ele>
        <time>2016-10-17T21:21:17Z</time>
      </trkpt>
      <trkpt lat="41.353683" lon="2.088239">
        <ele>9.008</ele>
        <time>2016-10-17T21:21:37Z</time>
      </trkpt>
      <trkpt lat="41.353441" lon="2.087724">
        <ele>11.038</ele>
        <time>2016-10-17T21:21:57Z</time>
      </trkpt>
      <trkpt lat="41.353248" lon="2.086544">
        <ele>13.032</ele>
        <time>2016-10-17T21:22:17Z</time>
      </trkpt>
      <trkpt lat="41.352845" lon="2.083840">
        <ele>5.068</ele>
        <time>2016-10-17T21:22:37Z</time>
      </trkpt>
      <trkpt lat="41.352580" lon="2.082285">
        <ele>4.062</ele>
        <time>2016-10-17T21:22:57Z</time>
      </trkpt>
      <trkpt lat="41.352362" lon="2.080472">
        <ele>7.076</ele>
        <time>2016-10-17T21:23:17Z</time>
      </trkpt>
      <trkpt lat="41.352072" lon="2.078208">
        <ele>8.024</ele>
        <time>2016-10-17T21:23:37Z</time>
      </trkpt>
      <trkpt lat="41.351943" lon="2.077146">
        <ele>13.034</ele>
        <time>2016-10-17T21:23:57Z</time>
      </trkpt>
      <trkpt lat="41.351621" lon="2.074442">
        <ele>10.089</ele>
        <time>2016-10-17T21:24:17Z</time>
      </trkpt>
      <trkpt lat="41.351508" lon="2.073669">
        <ele>9.014</ele>
        <time>2016-10-17T21:24:37Z</time>
      </trkpt>
      <trkpt lat="41.351396" lon="2.073122">
        <ele>9.054</ele>
        <time>2016-10-17T21:24:57Z</time>
      </trkpt>
      <trkpt lat="41.351291" lon="2.072661">
        <ele>10.009</ele>
        <time>2016-10-17T21:25:17Z</time>
      </trkpt>
      <trkpt lat="41.351500" lon="2.071288">
        <ele>14.008</ele>
        <time>2016-10-17T21:25:37Z</time>
      </trkpt>
      <trkpt lat="41.351573" lon="2.070665">
        <ele>14.092</ele>
        <time>2016-10-17T21:25:57Z</time>
      </trkpt>
      <trkpt lat="41.351452" lon="2.070515">
        <ele>14.036</ele>
        <time>2016-10-17T21:26:17Z</time>
      </trkpt>
      <trkpt lat="41.350518" lon="2.070333">
        <ele>15.022</ele>
        <time>2016-10-17T21:26:37Z</time>
      </trkpt>
      <trkpt lat="41.350236" lon="2.070172">
        <ele>14.026</ele>
        <time>2016-10-17T21:26:57Z</time>
      </trkpt>
      <trkpt lat="41.348174" lon="2.069614">
        <ele>5.010</ele>
        <time>2016-10-17T21:27:17Z</time>
      </trkpt>
      <trkpt lat="41.347683" lon="2.069571">
        <ele>5.088</ele>
        <time>2016-10-17T21:27:37Z</time>
      </trkpt>
      <trkpt lat="41.347441" lon="2.069517">
        <ele>5.088</ele>
        <time>2016-10-17T21:27:57Z</time>
      </trkpt>
      <trkpt lat="41.346491" lon="2.068938">
        <ele>4.073</ele>
        <time>2016-10-17T21:28:17Z</time>
      </trkpt>
      <trkpt lat="41.346491" lon="2.068841">
        <ele>4.088</ele>
        <time>2016-10-17T21:28:37Z</time>
      </trkpt>
      <trkpt lat="41.345717" lon="2.068402">
        <ele>4.024</ele>
        <time>2016-10-17T21:28:57Z</time>
      </trkpt>
      <trkpt lat="41.344936" lon="2.068133">
        <ele>4.026</ele>
        <time>2016-10-17T21:29:17Z</time>
      </trkpt>
      <trkpt lat="41.344437" lon="2.068112">
        <ele>4.008</ele>
        <time>2016-10-17T21:29:37Z</time>
      </trkpt>
      <trkpt lat="41.344074" lon="2.068101">
        <ele>4.079</ele>
        <time>2016-10-17T21:29:57Z</time>
      </trkpt>
      <trkpt lat="41.344364" lon="2.067157">
        <ele>4.043</ele>
        <time>2016-10-17T21:30:17Z</time>
      </trkpt>
      <trkpt lat="41.345073" lon="2.065129">
        <ele>5.099</ele>
        <time>2016-10-17T21:30:37Z</time>
      </trkpt>
      <trkpt lat="41.345935" lon="2.062469">
        <ele>4.033</ele>
        <time>2016-10-17T21:30:57Z</time>
      </trkpt>
      <trkpt lat="41.346491" lon="2.060623">
        <ele>5.027</ele>
        <time>2016-10-17T21:31:17Z</time>
      </trkpt>
      <trkpt lat="41.346869" lon="2.058789">
        <ele>4.045</ele>
        <time>2016-10-17T21:31:37Z</time>
      </trkpt>
      <trkpt lat="41.347054" lon="2.057683">
        <ele>4.045</ele>
        <time>2016-10-17T21:31:57Z</time>
      </trkpt>
      <trkpt lat="41.347071" lon="2.056772">
        <ele>5.020</ele>
        <time>2016-10-17T21:32:17Z</time>
      </trkpt>
      <trkpt lat="41.347216" lon="2.054894">
        <ele>4.086</ele>
        <time>2016-10-17T21:32:37Z</time>
      </trkpt>
      <trkpt lat="41.347159" lon="2.053499">
        <ele>4.060</ele>
        <time>2016-10-17T21:32:57Z</time>
      </trkpt>
      <trkpt lat="41.347087" lon="2.052909">
        <ele>5.026</ele>
        <time>2016-10-17T21:33:17Z</time>
      </trkpt>
      <trkpt lat="41.347288" lon="2.052705">
        <ele>5.008</ele>
        <time>2016-10-17T21:33:37Z</time>
      </trkpt>
      <trkpt lat="41.347409" lon="2.052448">
        <ele>5.059</ele>
        <time>2016-10-17T21:33:57Z</time>
      </trkpt>
      <trkpt lat="41.347441" lon="2.052051">
        <ele>6.083</ele>
        <time>2016-10-17T21:34:17Z</time>
      </trkpt>
      <trkpt lat="41.347272" lon="2.051117">
        <ele>7.069</ele>
        <time>2016-10-17T21:34:37Z</time>
      </trkpt>
      <trkpt lat="41.346950" lon="2.049358">
        <ele>5.023</ele>
        <time>2016-10-17T21:34:57Z</time>
      </trkpt>
      <trkpt lat="41.347416" lon="2.047502">
        <ele>6.017</ele>
        <time>2016-10-17T21:35:17Z</time>
      </trkpt>
      <trkpt lat="41.347661" lon="2.047169">
        <ele>6.025</ele>
        <time>2016-10-17T21:35:37Z</time>
      </trkpt>
      <trkpt lat="41.348470" lon="2.045882">
        <ele>7.045</ele>
        <time>2016-10-17T21:35:57Z</time>
      </trkpt>
      <trkpt lat="41.349609" lon="2.045115">
        <ele>5.010</ele>
        <time>2016-10-17T21:36:17Z</time>
      </trkpt>
      <trkpt lat="41.350053" lon="2.044879">
        <ele>5.082</ele>
        <time>2016-10-17T21:36:37Z</time>
      </trkpt>
      <trkpt lat="41.350332" lon="2.044889">
        <ele>5.043</ele>
        <time>2016-10-17T21:36:57Z</time>
      </trkpt>
      <trkpt lat="41.350480" lon="2.044734">
        <ele>5.017</ele>
        <time>2016-10-17T21:37:17Z</time>
      </trkpt>
      <trkpt lat="41.351909" lon="2.044535">
        <ele>6.008</ele>
        <time>2016-10-17T21:37:37Z</time>
      </trkpt>
      <trkpt lat="41.353390" lon="2.044675">
        <ele>8.079</ele>
        <time>2016-10-17T21:37:57Z</time>
      </trkpt>
      <trkpt lat="41.354698" lon="2.045088">
        <ele>9.053</ele>
        <time>2016-10-17T21:38:17Z</time>
      </trkpt>
      <trkpt lat="41.355406" lon="2.045388">
        <ele>12.099</ele>
        <time>2016-10-17T21:38:37Z</time>
      </trkpt>
      <trkpt lat="41.356679" lon="2.046332">
        <ele>13.013</ele>
        <time>2016-10-17T21:38:57Z</time>
      </trkpt>
      <trkpt lat="41.357710" lon="2.046998">
        <ele>7.077</ele>
        <time>2016-10-17T21:39:17Z</time>
      </trkpt>
      <trkpt lat="41.359062" lon="2.047276">
        <ele>8.025</ele>
        <time>2016-10-17T21:39:37Z</time>
      </trkpt>
      <trkpt lat="41.360270" lon="2.047491">
        <ele>6.045</ele>
        <time>2016-10-17T21:39:57Z</time>
      </trkpt>
      <trkpt lat="41.361446" lon="2.047427">
        <ele>7.010</ele>
        <time>2016-10-17T21:40:17Z</time>
      </trkpt>
      <trkpt lat="41.362445" lon="2.047126">
        <ele>9.094</ele>
        <time>2016-10-17T21:40:37Z</time>
      </trkpt>
      <trkpt lat="41.364136" lon="2.045367">
        <ele>7.057</ele>
        <time>2016-10-17T21:40:57Z</time>
      </trkpt>
      <trkpt lat="41.365182" lon="2.044401">
        <ele>6.022</ele>
        <time>2016-10-17T21:41:17Z</time>
      </trkpt>
      <trkpt lat="41.365617" lon="2.043393">
        <ele>6.008</ele>
        <time>2016-10-17T21:41:37Z</time>
      </trkpt>
      <trkpt lat="41.366084" lon="2.043092">
        <ele>5.020</ele>
        <time>2016-10-17T21:41:57Z</time>
      </trkpt>
      <trkpt lat="41.366954" lon="2.041118">
        <ele>5.094</ele>
        <time>2016-10-17T21:42:17Z</time>
      </trkpt>
      <trkpt lat="41.367083" lon="2.040217">
        <ele>6.090</ele>
        <time>2016-10-17T21:42:37Z</time>
      </trkpt>
      <trkpt lat="41.367356" lon="2.039852">
        <ele>6.064</ele>
        <time>2016-10-17T21:42:57Z</time>
      </trkpt>
      <trkpt lat="41.367550" lon="2.039208">
        <ele>6.038</ele>
        <time>2016-10-17T21:43:17Z</time>
      </trkpt>
      <trkpt lat="41.367517" lon="2.038350">
        <ele>6.086</ele>
        <time>2016-10-17T21:43:37Z</time>
      </trkpt>
      <trkpt lat="41.367839" lon="2.037363">
        <ele>7.046</ele>
        <time>2016-10-17T21:43:57Z</time>
      </trkpt>
      <trkpt lat="41.369289" lon="2.035389">
        <ele>8.061</ele>
        <time>2016-10-17T21:44:17Z</time>
      </trkpt>
      <trkpt lat="41.369643" lon="2.034616">
        <ele>8.025</ele>
        <time>2016-10-17T21:44:37Z</time>
      </trkpt>
      <trkpt lat="41.370400" lon="2.034252">
        <ele>8.026</ele>
        <time>2016-10-17T21:44:57Z</time>
      </trkpt>
      <trkpt lat="41.372171" lon="2.032642">
        <ele>8.008</ele>
        <time>2016-10-17T21:45:17Z</time>
      </trkpt>
      <trkpt lat="41.373798" lon="2.031376">
        <ele>9.008</ele>
        <time>2016-10-17T21:45:37Z</time>
      </trkpt>
      <trkpt lat="41.374087" lon="2.030711">
        <ele>10.093</ele>
        <time>2016-10-17T21:45:57Z</time>
      </trkpt>
      <trkpt lat="41.374860" lon="2.030475">
        <ele>10.027</ele>
        <time>2016-10-17T21:46:17Z</time>
      </trkpt>
      <trkpt lat="41.375762" lon="2.029788">
        <ele>9.083</ele>
        <time>2016-10-17T21:46:37Z</time>
      </trkpt>
      <trkpt lat="41.377630" lon="2.028265">
        <ele>9.017</ele>
        <time>2016-10-17T21:46:57Z</time>
      </trkpt>
      <trkpt lat="41.378773" lon="2.027535">
        <ele>9.011</ele>
        <time>2016-10-17T21:47:17Z</time>
      </trkpt>
      <trkpt lat="41.378966" lon="2.027278">
        <ele>10.099</ele>
        <time>2016-10-17T21:47:37Z</time>
      </trkpt>
      <trkpt lat="41.379095" lon="2.026978">
        <ele>11.089</ele>
        <time>2016-10-17T21:47:57Z</time>
      </trkpt>
      <trkpt lat="41.379997" lon="2.026978">
        <ele>11.074</ele>
        <time>2016-10-17T21:48:17Z</time>
      </trkpt>
      <trkpt lat="41.381913" lon="2.026334">
        <ele>10.055</ele>
        <time>2016-10-17T21:48:37Z</time>
      </trkpt>
      <trkpt lat="41.382138" lon="2.026055">
        <ele>11.007</ele>
        <time>2016-10-17T21:48:57Z</time>
      </trkpt>
      <trkpt lat="41.383007" lon="2.025905">
        <ele>10.017</ele>
        <time>2016-10-17T21:49:17Z</time>
      </trkpt>
      <trkpt lat="41.384746" lon="2.024896">
        <ele>9.008</ele>
        <time>2016-10-17T21:49:37Z</time>
      </trkpt>
      <trkpt lat="41.385696" lon="2.024188">
        <ele>9.026</ele>
        <time>2016-10-17T21:49:57Z</time>
      </trkpt>
      <trkpt lat="41.385776" lon="2.023823">
        <ele>9.020</ele>
        <time>2016-10-17T21:50:17Z</time>
      </trkpt>
      <trkpt lat="41.386018" lon="2.023287">
        <ele>9.066</ele>
        <time>2016-10-17T21:50:37Z</time>
      </trkpt>
      <trkpt lat="41.386324" lon="2.022622">
        <ele>10.060</ele>
        <time>2016-10-17T21:50:57Z</time>
      </trkpt>
      <trkpt lat="41.387386" lon="2.021978">
        <ele>9.034</ele>
        <time>2016-10-17T21:51:17Z</time>
      </trkpt>
      <trkpt lat="41.387467" lon="2.021570">
        <ele>10.052</ele>
        <time>2016-10-17T21:51:37Z</time>
      </trkpt>
      <trkpt lat="41.387467" lon="2.021313">
        <ele>10.022</ele>
        <time>2016-10-17T21:51:57Z</time>
      </trkpt>
      <trkpt lat="41.387618" lon="2.021136">
        <ele>11.047</ele>
        <time>2016-10-17T21:52:17Z</time>
      </trkpt>
      <trkpt lat="41.387800" lon="2.021474">
        <ele>11.025</ele>
        <time>2016-10-17T21:52:37Z</time>
      </trkpt>
      <trkpt lat="41.387800" lon="2.021581">
        <ele>10.026</ele>
        <time>2016-10-17T21:52:57Z</time>
      </trkpt>
      <trkpt lat="41.387977" lon="2.021774">
        <ele>10.008</ele>
        <time>2016-10-17T21:53:17Z</time>
      </trkpt>
      <trkpt lat="41.388432" lon="2.021656">
        <ele>11.008</ele>
        <time>2016-10-17T21:53:37Z</time>
      </trkpt>
      <trkpt lat="41.388586" lon="2.021420">
        <ele>12.083</ele>
        <time>2016-10-17T21:53:57Z</time>
      </trkpt>
      <trkpt lat="41.388973" lon="2.021098">
        <ele>12.087</ele>
        <time>2016-10-17T21:54:17Z</time>
      </trkpt>
      <trkpt lat="41.389348" lon="2.021200">
        <ele>12.073</ele>
        <time>2016-10-17T21:54:37Z</time>
      </trkpt>
      <trkpt lat="41.390695" lon="2.020508">
        <ele>12.027</ele>
        <time>2016-10-17T21:54:57Z</time>
      </trkpt>
      <trkpt lat="41.392755" lon="2.019939">
        <ele>12.021</ele>
        <time>2016-10-17T21:55:17Z</time>
      </trkpt>
      <trkpt lat="41.394832" lon="2.018963">
        <ele>12.029</ele>
        <time>2016-10-17T21:55:37Z</time>
      </trkpt>
      <trkpt lat="41.396353" lon="2.018201">
        <ele>12.019</ele>
        <time>2016-10-17T21:55:57Z</time>
      </trkpt>
      <trkpt lat="41.398373" lon="2.017086">
        <ele>13.074</ele>
        <time>2016-10-17T21:56:17Z</time>
      </trkpt>
      <trkpt lat="41.400328" lon="2.015755">
        <ele>13.023</ele>
        <time>2016-10-17T21:56:37Z</time>
      </trkpt>
      <trkpt lat="41.402373" lon="2.014586">
        <ele>12.083</ele>
        <time>2016-10-17T21:56:57Z</time>
      </trkpt>
      <trkpt lat="41.404400" lon="2.013524">
        <ele>10.011</ele>
        <time>2016-10-17T21:57:17Z</time>
      </trkpt>
      <trkpt lat="41.406002" lon="2.012644">
        <ele>10.008</ele>
        <time>2016-10-17T21:57:37Z</time>
      </trkpt>
      <trkpt lat="41.406155" lon="2.012236">
        <ele>11.073</ele>
        <time>2016-10-17T21:57:57Z</time>
      </trkpt>
      <trkpt lat="41.406163" lon="2.011882">
        <ele>11.067</ele>
        <time>2016-10-17T21:58:17Z</time>
      </trkpt>
      <trkpt lat="41.406428" lon="2.011689">
        <ele>12.033</ele>
        <time>2016-10-17T21:58:37Z</time>
      </trkpt>
      <trkpt lat="41.406790" lon="2.011828">
        <ele>11.087</ele>
        <time>2016-10-17T21:58:57Z</time>
      </trkpt>
      <trkpt lat="41.407837" lon="2.011067">
        <ele>10.011</ele>
        <time>2016-10-17T21:59:17Z</time>
      </trkpt>
      <trkpt lat="41.408223" lon="2.010841">
        <ele>11.069</ele>
        <time>2016-10-17T21:59:37Z</time>
      </trkpt>
      <trkpt lat="41.409044" lon="2.010273">
        <ele>13.029</ele>
        <time>2016-10-17T21:59:57Z</time>
      </trkpt>
      <trkpt lat="41.411063" lon="2.009243">
        <ele>13.064</ele>
        <time>2016-10-17T22:00:17Z</time>
      </trkpt>
      <trkpt lat="41.411522" lon="2.008814">
        <ele>13.023</ele>
        <time>2016-10-17T22:00:37Z</time>
      </trkpt>
      <trkpt lat="41.412021" lon="2.008642">
        <ele>14.083</ele>
        <time>2016-10-17T22:00:57Z</time>
      </trkpt>
      <trkpt lat="41.412632" lon="2.008363">
        <ele>14.011</ele>
        <time>2016-10-17T22:01:17Z</time>
      </trkpt>
      <trkpt lat="41.413711" lon="2.008009">
        <ele>15.008</ele>
        <time>2016-10-17T22:01:37Z</time>
      </trkpt>
      <trkpt lat="41.414105" lon="2.007719">
        <ele>15.073</ele>
        <time>2016-10-17T22:01:57Z</time>
      </trkpt>
      <trkpt lat="41.414378" lon="2.007387">
        <ele>15.047</ele>
        <time>2016-10-17T22:02:17Z</time>
      </trkpt>
      <trkpt lat="41.414881" lon="2.007467">
        <ele>15.013</ele>
        <time>2016-10-17T22:02:37Z</time>
      </trkpt>
      <trkpt lat="41.415667" lon="2.007188">
        <ele>14.047</ele>
        <time>2016-10-17T22:02:57Z</time>
      </trkpt>
      <trkpt lat="41.417677" lon="2.006421">
        <ele>13.041</ele>
        <time>2016-10-17T22:03:17Z</time>
      </trkpt>
      <trkpt lat="41.419286" lon="2.005906">
        <ele>14.039</ele>
        <time>2016-10-17T22:03:37Z</time>
      </trkpt>
      <trkpt lat="41.420348" lon="2.005477">
        <ele>13.059</ele>
        <time>2016-10-17T22:03:57Z</time>
      </trkpt>
      <trkpt lat="41.421442" lon="2.005091">
        <ele>14.034</ele>
        <time>2016-10-17T22:04:17Z</time>
      </trkpt>
      <trkpt lat="41.422054" lon="2.004554">
        <ele>12.022</ele>
        <time>2016-10-17T22:04:37Z</time>
      </trkpt>
      <trkpt lat="41.423180" lon="2.003868">
        <ele>12.062</ele>
        <time>2016-10-17T22:04:57Z</time>
      </trkpt>
      <trkpt lat="41.423872" lon="2.003117">
        <ele>12.008</ele>
        <time>2016-10-17T22:05:17Z</time>
      </trkpt>
      <trkpt lat="41.424226" lon="2.002666">
        <ele>13.008</ele>
        <time>2016-10-17T22:05:37Z</time>
      </trkpt>
      <trkpt lat="41.425240" lon="2.002215">
        <ele>14.063</ele>
        <time>2016-10-17T22:05:57Z</time>
      </trkpt>
      <trkpt lat="41.426301" lon="2.001636">
        <ele>14.037</ele>
        <time>2016-10-17T22:06:17Z</time>
      </trkpt>
      <trkpt lat="41.426334" lon="2.001014">
        <ele>15.083</ele>
        <time>2016-10-17T22:06:37Z</time>
      </trkpt>
      <trkpt lat="41.427315" lon="2.000091">
        <ele>16.017</ele>
        <time>2016-10-17T22:06:57Z</time>
      </trkpt>
      <trkpt lat="41.429020" lon="1.998332">
        <ele>17.081</ele>
        <time>2016-10-17T22:07:17Z</time>
      </trkpt>
      <trkpt lat="41.430922" lon="1.996745">
        <ele>15.059</ele>
        <time>2016-10-17T22:07:37Z</time>
      </trkpt>
      <trkpt lat="41.432785" lon="1.995435">
        <ele>13.039</ele>
        <time>2016-10-17T22:07:57Z</time>
      </trkpt>
      <trkpt lat="41.434732" lon="1.994276">
        <ele>15.054</ele>
        <time>2016-10-17T22:08:17Z</time>
      </trkpt>
      <trkpt lat="41.436646" lon="1.992989">
        <ele>15.064</ele>
        <time>2016-10-17T22:08:37Z</time>
      </trkpt>
      <trkpt lat="41.438078" lon="1.991808">
        <ele>15.006</ele>
        <time>2016-10-17T22:08:57Z</time>
      </trkpt>
      <trkpt lat="41.439011" lon="1.990693">
        <ele>14.016</ele>
        <time>2016-10-17T22:09:17Z</time>
      </trkpt>
      <trkpt lat="41.440426" lon="1.988482">
        <ele>13.008</ele>
        <time>2016-10-17T22:09:37Z</time>
      </trkpt>
      <trkpt lat="41.441536" lon="1.986594">
        <ele>14.077</ele>
        <time>2016-10-17T22:09:57Z</time>
      </trkpt>
      <trkpt lat="41.442196" lon="1.985929">
        <ele>14.011</ele>
        <time>2016-10-17T22:10:17Z</time>
      </trkpt>
      <trkpt lat="41.442968" lon="1.984899">
        <ele>13.087</ele>
        <time>2016-10-17T22:10:37Z</time>
      </trkpt>
      <trkpt lat="41.443410" lon="1.983987">
        <ele>14.061</ele>
        <time>2016-10-17T22:10:57Z</time>
      </trkpt>
      <trkpt lat="41.444649" lon="1.982442">
        <ele>14.095</ele>
        <time>2016-10-17T22:11:17Z</time>
      </trkpt>
      <trkpt lat="41.445203" lon="1.981605">
        <ele>14.013</ele>
        <time>2016-10-17T22:11:37Z</time>
      </trkpt>
      <trkpt lat="41.446627" lon="1.979899">
        <ele>17.023</ele>
        <time>2016-10-17T22:11:57Z</time>
      </trkpt>
      <trkpt lat="41.448444" lon="1.978301">
        <ele>17.018</ele>
        <time>2016-10-17T22:12:17Z</time>
      </trkpt>
      <trkpt lat="41.450141" lon="1.977217">
        <ele>15.018</ele>
        <time>2016-10-17T22:12:37Z</time>
      </trkpt>
      <trkpt lat="41.451203" lon="1.976756">
        <ele>13.098</ele>
        <time>2016-10-17T22:12:57Z</time>
      </trkpt>
      <trkpt lat="41.452835" lon="1.976402">
        <ele>12.017</ele>
        <time>2016-10-17T22:13:17Z</time>
      </trkpt>
      <trkpt lat="41.454339" lon="1.976134">
        <ele>10.008</ele>
        <time>2016-10-17T22:13:37Z</time>
      </trkpt>
      <trkpt lat="41.456405" lon="1.975747">
        <ele>10.082</ele>
        <time>2016-10-17T22:13:57Z</time>
      </trkpt>
      <trkpt lat="41.458528" lon="1.975200">
        <ele>10.036</ele>
        <time>2016-10-17T22:14:17Z</time>
      </trkpt>
      <trkpt lat="41.460530" lon="1.974299">
        <ele>16.092</ele>
        <time>2016-10-17T22:14:37Z</time>
      </trkpt>
      <trkpt lat="41.462299" lon="1.973205">
        <ele>16.026</ele>
        <time>2016-10-17T22:14:57Z</time>
      </trkpt>
      <trkpt lat="41.463553" lon="1.972003">
        <ele>18.060</ele>
        <time>2016-10-17T22:15:17Z</time>
      </trkpt>
      <trkpt lat="41.464759" lon="1.971016">
        <ele>19.098</ele>
        <time>2016-10-17T22:15:37Z</time>
      </trkpt>
      <trkpt lat="41.466464" lon="1.969471">
        <ele>20.058</ele>
        <time>2016-10-17T22:15:57Z</time>
      </trkpt>
      <trkpt lat="41.466753" lon="1.969213">
        <ele>20.043</ele>
        <time>2016-10-17T22:16:17Z</time>
      </trkpt>
      <trkpt lat="41.466946" lon="1.969342">
        <ele>20.078</ele>
        <time>2016-10-17T22:16:37Z</time>
      </trkpt>
      <trkpt lat="41.467838" lon="1.969965">
        <ele>21.033</ele>
        <time>2016-10-17T22:16:57Z</time>
      </trkpt>
      <trkpt lat="41.468707" lon="1.970093">
        <ele>25.026</ele>
        <time>2016-10-17T22:17:17Z</time>
      </trkpt>
      <trkpt lat="41.469044" lon="1.970007">
        <ele>28.008</ele>
        <time>2016-10-17T22:17:37Z</time>
      </trkpt>
      <trkpt lat="41.468538" lon="1.969954">
        <ele>25.078</ele>
        <time>2016-10-17T22:17:57Z</time>
      </trkpt>
      <trkpt lat="41.468294" lon="1.969932">
        <ele>23.062</ele>
        <time>2016-10-17T22:18:17Z</time>
      </trkpt>
      <trkpt lat="41.468345" lon="1.969616">
        <ele>22.078</ele>
        <time>2016-10-17T22:18:37Z</time>
      </trkpt>
      <trkpt lat="41.468595" lon="1.969396">
        <ele>23.092</ele>
        <time>2016-10-17T22:18:57Z</time>
      </trkpt>
      <trkpt lat="41.468857" lon="1.969128">
        <ele>25.096</ele>
        <time>2016-10-17T22:19:17Z</time>
      </trkpt>
      <trkpt lat="41.469050" lon="1.968913">
        <ele>26.014</ele>
        <time>2016-10-17T22:19:37Z</time>
      </trkpt>
      <trkpt lat="41.469169" lon="1.968699">
        <ele>25.064</ele>
        <time>2016-10-17T22:19:57Z</time>
      </trkpt>
      <trkpt lat="41.470355" lon="1.967690">
        <ele>22.049</ele>
        <time>2016-10-17T22:20:17Z</time>
      </trkpt>
      <trkpt lat="41.471271" lon="1.966810">
        <ele>21.054</ele>
        <time>2016-10-17T22:20:37Z</time>
      </trkpt>
      <trkpt lat="41.471978" lon="1.966145">
        <ele>19.056</ele>
        <time>2016-10-17T22:20:57Z</time>
      </trkpt>
      <trkpt lat="41.472638" lon="1.965458">
        <ele>18.011</ele>
        <time>2016-10-17T22:21:17Z</time>
      </trkpt>
      <trkpt lat="41.473409" lon="1.964750">
        <ele>19.008</ele>
        <time>2016-10-17T22:21:37Z</time>
      </trkpt>
      <trkpt lat="41.474422" lon="1.964021">
        <ele>21.036</ele>
        <time>2016-10-17T22:21:57Z</time>
      </trkpt>
      <trkpt lat="41.474808" lon="1.963205">
        <ele>22.030</ele>
        <time>2016-10-17T22:22:17Z</time>
      </trkpt>
      <trkpt lat="41.475323" lon="1.962454">
        <ele>23.056</ele>
        <time>2016-10-17T22:22:37Z</time>
      </trkpt>
      <trkpt lat="41.475966" lon="1.960158">
        <ele>27.070</ele>
        <time>2016-10-17T22:22:57Z</time>
      </trkpt>
      <trkpt lat="41.476110" lon="1.958892">
        <ele>30.024</ele>
        <time>2016-10-17T22:23:17Z</time>
      </trkpt>
      <trkpt lat="41.476030" lon="1.958227">
        <ele>29.092</ele>
        <time>2016-10-17T22:23:37Z</time>
      </trkpt>
      <trkpt lat="41.476159" lon="1.957326">
        <ele>28.082</ele>
        <time>2016-10-17T22:23:57Z</time>
      </trkpt>
      <trkpt lat="41.476175" lon="1.956575">
        <ele>29.097</ele>
        <time>2016-10-17T22:24:17Z</time>
      </trkpt>
      <trkpt lat="41.476078" lon="1.956275">
        <ele>30.047</ele>
        <time>2016-10-17T22:24:37Z</time>
      </trkpt>
      <trkpt lat="41.475789" lon="1.955588">
        <ele>29.029</ele>
        <time>2016-10-17T22:24:57Z</time>
      </trkpt>
      <trkpt lat="41.474840" lon="1.953807">
        <ele>37.021</ele>
        <time>2016-10-17T22:25:17Z</time>
      </trkpt>
      <trkpt lat="41.473297" lon="1.951790">
        <ele>49.008</ele>
        <time>2016-10-17T22:25:37Z</time>
      </trkpt>
      <trkpt lat="41.471705" lon="1.949794">
        <ele>52.055</ele>
        <time>2016-10-17T22:25:57Z</time>
      </trkpt>
      <trkpt lat="41.470151" lon="1.947634">
        <ele>45.019</ele>
        <time>2016-10-17T22:26:17Z</time>
      </trkpt>
      <trkpt lat="41.469229" lon="1.946640">
        <ele>43.015</ele>
        <time>2016-10-17T22:26:37Z</time>
      </trkpt>
      <trkpt lat="41.469004" lon="1.946661">
        <ele>42.099</ele>
        <time>2016-10-17T22:26:57Z</time>
      </trkpt>
      <trkpt lat="41.468618" lon="1.946361">
        <ele>39.083</ele>
        <time>2016-10-17T22:27:17Z</time>
      </trkpt>
      <trkpt lat="41.468232" lon="1.946146">
        <ele>36.071</ele>
        <time>2016-10-17T22:27:37Z</time>
      </trkpt>
      <trkpt lat="41.468039" lon="1.945739">
        <ele>32.081</ele>
        <time>2016-10-17T22:27:57Z</time>
      </trkpt>
      <trkpt lat="41.468120" lon="1.945374">
        <ele>28.066</ele>
        <time>2016-10-17T22:28:17Z</time>
      </trkpt>
      <trkpt lat="41.469293" lon="1.943722">
        <ele>24.063</ele>
        <time>2016-10-17T22:28:37Z</time>
      </trkpt>
      <trkpt lat="41.469695" lon="1.943228">
        <ele>26.044</ele>
        <time>2016-10-17T22:28:57Z</time>
      </trkpt>
      <trkpt lat="41.470178" lon="1.942863">
        <ele>29.018</ele>
        <time>2016-10-17T22:29:17Z</time>
      </trkpt>
      <trkpt lat="41.470757" lon="1.942112">
        <ele>28.008</ele>
        <time>2016-10-17T22:29:37Z</time>
      </trkpt>
      <trkpt lat="41.471255" lon="1.941576">
        <ele>29.077</ele>
        <time>2016-10-17T22:29:57Z</time>
      </trkpt>
      <trkpt lat="41.471946" lon="1.940911">
        <ele>27.061</ele>
        <time>2016-10-17T22:30:17Z</time>
      </trkpt>
      <trkpt lat="41.473233" lon="1.939580">
        <ele>32.047</ele>
        <time>2016-10-17T22:30:37Z</time>
      </trkpt>
      <trkpt lat="41.474197" lon="1.938980">
        <ele>32.051</ele>
        <time>2016-10-17T22:30:57Z</time>
      </trkpt>
      <trkpt lat="41.474905" lon="1.938615">
        <ele>36.035</ele>
        <time>2016-10-17T22:31:17Z</time>
      </trkpt>
      <trkpt lat="41.475033" lon="1.938314">
        <ele>33.013</ele>
        <time>2016-10-17T22:31:37Z</time>
      </trkpt>
      <trkpt lat="41.475041" lon="1.937885">
        <ele>30.063</ele>
        <time>2016-10-17T22:31:57Z</time>
      </trkpt>
      <trkpt lat="41.474953" lon="1.936866">
        <ele>35.028</ele>
        <time>2016-10-17T22:32:17Z</time>
      </trkpt>
      <trkpt lat="41.474897" lon="1.936458">
        <ele>42.079</ele>
        <time>2016-10-17T22:32:37Z</time>
      </trkpt>
      <trkpt lat="41.474744" lon="1.935858">
        <ele>51.005</ele>
        <time>2016-10-17T22:32:57Z</time>
      </trkpt>
      <trkpt lat="41.474647" lon="1.935675">
        <ele>51.025</ele>
        <time>2016-10-17T22:33:17Z</time>
      </trkpt>
      <trkpt lat="41.474752" lon="1.934656">
        <ele>50.008</ele>
        <time>2016-10-17T22:33:37Z</time>
      </trkpt>
      <trkpt lat="41.474752" lon="1.933948">
        <ele>50.058</ele>
        <time>2016-10-17T22:33:57Z</time>
      </trkpt>
      <trkpt lat="41.474631" lon="1.933562">
        <ele>50.022</ele>
        <time>2016-10-17T22:34:17Z</time>
      </trkpt>
      <trkpt lat="41.474591" lon="1.933293">
        <ele>51.028</ele>
        <time>2016-10-17T22:34:37Z</time>
      </trkpt>
      <trkpt lat="41.474712" lon="1.932553">
        <ele>51.052</ele>
        <time>2016-10-17T22:34:57Z</time>
      </trkpt>
      <trkpt lat="41.474623" lon="1.931362">
        <ele>50.086</ele>
        <time>2016-10-17T22:35:17Z</time>
      </trkpt>
      <trkpt lat="41.474350" lon="1.929742">
        <ele>54.014</ele>
        <time>2016-10-17T22:35:37Z</time>
      </trkpt>
      <trkpt lat="41.474149" lon="1.927564">
        <ele>54.064</ele>
        <time>2016-10-17T22:35:57Z</time>
      </trkpt>
      <trkpt lat="41.474157" lon="1.927210">
        <ele>53.029</ele>
        <time>2016-10-17T22:36:17Z</time>
      </trkpt>
      <trkpt lat="41.473860" lon="1.927221">
        <ele>55.093</ele>
        <time>2016-10-17T22:36:37Z</time>
      </trkpt>
      <trkpt lat="41.473868" lon="1.926985">
        <ele>54.065</ele>
        <time>2016-10-17T22:36:57Z</time>
      </trkpt>
      <trkpt lat="41.474768" lon="1.925279">
        <ele>48.021</ele>
        <time>2016-10-17T22:37:17Z</time>
      </trkpt>
      <trkpt lat="41.475620" lon="1.923509">
        <ele>56.008</ele>
        <time>2016-10-17T22:37:37Z</time>
      </trkpt>
      <trkpt lat="41.476432" lon="1.922157">
        <ele>66.090</ele>
        <time>2016-10-17T22:37:57Z</time>
      </trkpt>
      <trkpt lat="41.477343" lon="1.921492">
        <ele>71.064</ele>
        <time>2016-10-17T22:38:17Z</time>
      </trkpt>
      <trkpt lat="41.477102" lon="1.919582">
        <ele>76.090</ele>
        <time>2016-10-17T22:38:37Z</time>
      </trkpt>
      <trkpt lat="41.477000" lon="1.919003">
        <ele>76.044</ele>
        <time>2016-10-17T22:38:57Z</time>
      </trkpt>
      <trkpt lat="41.477386" lon="1.917844">
        <ele>81.018</ele>
        <time>2016-10-17T22:39:17Z</time>
      </trkpt>
      <trkpt lat="41.476858" lon="1.915162">
        <ele>83.096</ele>
        <time>2016-10-17T22:39:37Z</time>
      </trkpt>
      <trkpt lat="41.476585" lon="1.914067">
        <ele>82.076</ele>
        <time>2016-10-17T22:39:57Z</time>
      </trkpt>
      <trkpt lat="41.476528" lon="1.913241">
        <ele>81.021</ele>
        <time>2016-10-17T22:40:17Z</time>
      </trkpt>
      <trkpt lat="41.476705" lon="1.912780">
        <ele>80.029</ele>
        <time>2016-10-17T22:40:37Z</time>
      </trkpt>
      <trkpt lat="41.478482" lon="1.912447">
        <ele>70.000</ele>
        <time>2016-10-17T22:40:57Z</time>
      </trkpt>
      <trkpt lat="41.480113" lon="1.912115">
        <ele>70.020</ele>
        <time>2016-10-17T22:41:17Z</time>
      </trkpt>
      <trkpt lat="41.482075" lon="1.911696">
        <ele>59.008</ele>
        <time>2016-10-17T22:41:37Z</time>
      </trkpt>
      <trkpt lat="41.482034" lon="1.911482">
        <ele>59.023</ele>
        <time>2016-10-17T22:41:57Z</time>
      </trkpt>
      <trkpt lat="41.481914" lon="1.911117">
        <ele>62.067</ele>
        <time>2016-10-17T22:42:17Z</time>
      </trkpt>
      <trkpt lat="41.481432" lon="1.909937">
        <ele>76.033</ele>
        <time>2016-10-17T22:42:37Z</time>
      </trkpt>
      <trkpt lat="41.481295" lon="1.909733">
        <ele>77.097</ele>
        <time>2016-10-17T22:42:57Z</time>
      </trkpt>
      <trkpt lat="41.481102" lon="1.909647">
        <ele>78.051</ele>
        <time>2016-10-17T22:43:17Z</time>
      </trkpt>
      <trkpt lat="41.480805" lon="1.908145">
        <ele>79.039</ele>
        <time>2016-10-17T22:43:37Z</time>
      </trkpt>
      <trkpt lat="41.480274" lon="1.907855">
        <ele>80.089</ele>
        <time>2016-10-17T22:43:57Z</time>
      </trkpt>
      <trkpt lat="41.480121" lon="1.907748">
        <ele>79.054</ele>
        <time>2016-10-17T22:44:17Z</time>
      </trkpt>
      <trkpt lat="41.480057" lon="1.906900">
        <ele>74.052</ele>
        <time>2016-10-17T22:44:37Z</time>
      </trkpt>
      <trkpt lat="41.480636" lon="1.906664">
        <ele>75.053</ele>
        <time>2016-10-17T22:44:57Z</time>
      </trkpt>
      <trkpt lat="41.481158" lon="1.906868">
        <ele>73.008</ele>
        <time>2016-10-17T22:45:17Z</time>
      </trkpt>
      <trkpt lat="41.481697" lon="1.906954">
        <ele>68.008</ele>
        <time>2016-10-17T22:45:37Z</time>
      </trkpt>
      <trkpt lat="41.483320" lon="1.906911">
        <ele>62.096</ele>
        <time>2016-10-17T22:45:57Z</time>
      </trkpt>
      <trkpt lat="41.483875" lon="1.907040">
        <ele>62.040</ele>
        <time>2016-10-17T22:46:17Z</time>
      </trkpt>
      <trkpt lat="41.484687" lon="1.907061">
        <ele>64.016</ele>
        <time>2016-10-17T22:46:37Z</time>
      </trkpt>
      <trkpt lat="41.485257" lon="1.907072">
        <ele>70.070</ele>
        <time>2016-10-17T22:46:57Z</time>
      </trkpt>
      <trkpt lat="41.485507" lon="1.907265">
        <ele>75.014</ele>
        <time>2016-10-17T22:47:17Z</time>
      </trkpt>
      <trkpt lat="41.486326" lon="1.907458">
        <ele>84.012</ele>
        <time>2016-10-17T22:47:37Z</time>
      </trkpt>
      <trkpt lat="41.486961" lon="1.907705">
        <ele>88.062</ele>
        <time>2016-10-17T22:47:57Z</time>
      </trkpt>
      <trkpt lat="41.487106" lon="1.907126">
        <ele>86.057</ele>
        <time>2016-10-17T22:48:17Z</time>
      </trkpt>
      <trkpt lat="41.487066" lon="1.906579">
        <ele>81.052</ele>
        <time>2016-10-17T22:48:37Z</time>
      </trkpt>
      <trkpt lat="41.487122" lon="1.906064">
        <ele>82.053</ele>
        <time>2016-10-17T22:48:57Z</time>
      </trkpt>
      <trkpt lat="41.487114" lon="1.904250">
        <ele>83.008</ele>
        <time>2016-10-17T22:49:17Z</time>
      </trkpt>
      <trkpt lat="41.487058" lon="1.901858">
        <ele>80.008</ele>
        <time>2016-10-17T22:49:37Z</time>
      </trkpt>
      <trkpt lat="41.487026" lon="1.900892">
        <ele>81.026</ele>
        <time>2016-10-17T22:49:57Z</time>
      </trkpt>
      <trkpt lat="41.486889" lon="1.900334">
        <ele>80.020</ele>
        <time>2016-10-17T22:50:17Z</time>
      </trkpt>
      <trkpt lat="41.486721" lon="1.900176">
        <ele>78.076</ele>
        <time>2016-10-17T22:50:37Z</time>
      </trkpt>
      <trkpt lat="41.486622" lon="1.899889">
        <ele>78.020</ele>
        <time>2016-10-17T22:50:57Z</time>
      </trkpt>
      <trkpt lat="41.486499" lon="1.899267">
        <ele>75.074</ele>
        <time>2016-10-17T22:51:17Z</time>
      </trkpt>
      <trkpt lat="41.486559" lon="1.898838">
        <ele>78.032</ele>
        <time>2016-10-17T22:51:37Z</time>
      </trkpt>
      <trkpt lat="41.486559" lon="1.898666">
        <ele>79.082</ele>
        <time>2016-10-17T22:51:57Z</time>
      </trkpt>
      <trkpt lat="41.486551" lon="1.898446">
        <ele>80.067</ele>
        <time>2016-10-17T22:52:17Z</time>
      </trkpt>
      <trkpt lat="41.486437" lon="1.898376">
        <ele>78.081</ele>
        <time>2016-10-17T22:52:37Z</time>
      </trkpt>
      <trkpt lat="41.485695" lon="1.897767">
        <ele>76.061</ele>
        <time>2016-10-17T22:52:57Z</time>
      </trkpt>
      <trkpt lat="41.485630" lon="1.897612">
        <ele>77.017</ele>
        <time>2016-10-17T22:53:17Z</time>
      </trkpt>
      <trkpt lat="41.485601" lon="1.896869">
        <ele>75.008</ele>
        <time>2016-10-17T22:53:37Z</time>
      </trkpt>
      <trkpt lat="41.485670" lon="1.896628">
        <ele>75.049</ele>
        <time>2016-10-17T22:53:57Z</time>
      </trkpt>
      <trkpt lat="41.485658" lon="1.896451">
        <ele>75.023</ele>
        <time>2016-10-17T22:54:17Z</time>
      </trkpt>
      <trkpt lat="41.485673" lon="1.896330">
        <ele>75.089</ele>
        <time>2016-10-17T22:54:37Z</time>
      </trkpt>
      <trkpt lat="41.485700" lon="1.895854">
        <ele>74.033</ele>
        <time>2016-10-17T22:54:57Z</time>
      </trkpt>
      <trkpt lat="41.486005" lon="1.895356">
        <ele>74.077</ele>
        <time>2016-10-17T22:55:17Z</time>
      </trkpt>
      <trkpt lat="41.486182" lon="1.895024">
        <ele>74.015</ele>
        <time>2016-10-17T22:55:37Z</time>
      </trkpt>
      <trkpt lat="41.486158" lon="1.894820">
        <ele>75.025</ele>
        <time>2016-10-17T22:55:57Z</time>
      </trkpt>
      <trkpt lat="41.486077" lon="1.894594">
        <ele>75.030</ele>
        <time>2016-10-17T22:56:17Z</time>
      </trkpt>
      <trkpt lat="41.486045" lon="1.894358">
        <ele>75.065</ele>
        <time>2016-10-17T22:56:37Z</time>
      </trkpt>
      <trkpt lat="41.486037" lon="1.893983">
        <ele>75.068</ele>
        <time>2016-10-17T22:56:57Z</time>
      </trkpt>
      <trkpt lat="41.486037" lon="1.893629">
        <ele>75.014</ele>
        <time>2016-10-17T22:57:17Z</time>
      </trkpt>
      <trkpt lat="41.486495" lon="1.893650">
        <ele>75.008</ele>
        <time>2016-10-17T22:57:37Z</time>
      </trkpt>
      <trkpt lat="41.486841" lon="1.893768">
        <ele>79.017</ele>
        <time>2016-10-17T22:57:57Z</time>
      </trkpt>
      <trkpt lat="41.487275" lon="1.893371">
        <ele>82.071</ele>
        <time>2016-10-17T22:58:17Z</time>
      </trkpt>
      <trkpt lat="41.487387" lon="1.893114">
        <ele>86.067</ele>
        <time>2016-10-17T22:58:37Z</time>
      </trkpt>
      <trkpt lat="41.487500" lon="1.892856">
        <ele>86.081</ele>
        <time>2016-10-17T22:58:57Z</time>
      </trkpt>
      <trkpt lat="41.487644" lon="1.892481">
        <ele>91.085</ele>
        <time>2016-10-17T22:59:17Z</time>
      </trkpt>
      <trkpt lat="41.487845" lon="1.892127">
        <ele>91.013</ele>
        <time>2016-10-17T22:59:37Z</time>
      </trkpt>
      <trkpt lat="41.488247" lon="1.891719">
        <ele>98.063</ele>
        <time>2016-10-17T22:59:57Z</time>
      </trkpt>
      <trkpt lat="41.488665" lon="1.891043">
        <ele>101.068</ele>
        <time>2016-10-17T23:00:17Z</time>
      </trkpt>
      <trkpt lat="41.488601" lon="1.889927">
        <ele>101.023</ele>
        <time>2016-10-17T23:00:37Z</time>
      </trkpt>
      <trkpt lat="41.488673" lon="1.889541">
        <ele>100.083</ele>
        <time>2016-10-17T23:00:57Z</time>
      </trkpt>
      <trkpt lat="41.489196" lon="1.887964">
        <ele>102.011</ele>
        <time>2016-10-17T23:01:17Z</time>
      </trkpt>
      <trkpt lat="41.489758" lon="1.886977">
        <ele>111.008</ele>
        <time>2016-10-17T23:01:37Z</time>
      </trkpt>
      <trkpt lat="41.490337" lon="1.886441">
        <ele>115.033</ele>
        <time>2016-10-17T23:01:57Z</time>
      </trkpt>
      <trkpt lat="41.490819" lon="1.886086">
        <ele>117.017</ele>
        <time>2016-10-17T23:02:17Z</time>
      </trkpt>
      <trkpt lat="41.490972" lon="1.885537">
        <ele>113.063</ele>
        <time>2016-10-17T23:02:37Z</time>
      </trkpt>
      <trkpt lat="41.491103" lon="1.885448">
        <ele>116.097</ele>
        <time>2016-10-17T23:02:57Z</time>
      </trkpt>
      <trkpt lat="41.491117" lon="1.885290">
        <ele>115.071</ele>
        <time>2016-10-17T23:03:17Z</time>
      </trkpt>
      <trkpt lat="41.490980" lon="1.885276">
        <ele>115.079</ele>
        <time>2016-10-17T23:03:37Z</time>
      </trkpt>
      <trkpt lat="41.490577" lon="1.885346">
        <ele>109.059</ele>
        <time>2016-10-17T23:03:57Z</time>
      </trkpt>
      <trkpt lat="41.490375" lon="1.885620">
        <ele>107.064</ele>
        <time>2016-10-17T23:04:17Z</time>
      </trkpt>
      <trkpt lat="41.490188" lon="1.885799">
        <ele>109.012</ele>
        <time>2016-10-17T23:04:37Z</time>
      </trkpt>
      <trkpt lat="41.489778" lon="1.885931">
        <ele>103.032</ele>
        <time>2016-10-17T23:04:57Z</time>
      </trkpt>
      <trkpt lat="41.488957" lon="1.885630">
        <ele>91.005</ele>
        <time>2016-10-17T23:05:17Z</time>
      </trkpt>
      <trkpt lat="41.488762" lon="1.885636">
        <ele>91.008</ele>
        <time>2016-10-17T23:05:37Z</time>
      </trkpt>
      <trkpt lat="41.488585" lon="1.885936">
        <ele>91.082</ele>
        <time>2016-10-17T23:05:57Z</time>
      </trkpt>
      <trkpt lat="41.488352" lon="1.886204">
        <ele>91.076</ele>
        <time>2016-10-17T23:06:17Z</time>
      </trkpt>
      <trkpt lat="41.488094" lon="1.886331">
        <ele>89.022</ele>
        <time>2016-10-17T23:06:37Z</time>
      </trkpt>
      <trkpt lat="41.488034" lon="1.886156">
        <ele>89.016</ele>
        <time>2016-10-17T23:06:57Z</time>
      </trkpt>
      <trkpt lat="41.487903" lon="1.886044">
        <ele>88.020</ele>
        <time>2016-10-17T23:07:17Z</time>
      </trkpt>
      <trkpt lat="41.487889" lon="1.885850">
        <ele>88.018</ele>
        <time>2016-10-17T23:07:37Z</time>
      </trkpt>
      <trkpt lat="41.487784" lon="1.885738">
        <ele>88.028</ele>
        <time>2016-10-17T23:07:57Z</time>
      </trkpt>
      <trkpt lat="41.487738" lon="1.885539">
        <ele>87.043</ele>
        <time>2016-10-17T23:08:17Z</time>
      </trkpt>
      <trkpt lat="41.487707" lon="1.885327">
        <ele>86.045</ele>
        <time>2016-10-17T23:08:37Z</time>
      </trkpt>
      <trkpt lat="41.487301" lon="1.885169">
        <ele>92.047</ele>
        <time>2016-10-17T23:08:57Z</time>
      </trkpt>
      <trkpt lat="41.487224" lon="1.885116">
        <ele>91.011</ele>
        <time>2016-10-17T23:09:17Z</time>
      </trkpt>
      <trkpt lat="41.487332" lon="1.884445">
        <ele>90.008</ele>
        <time>2016-10-17T23:09:37Z</time>
      </trkpt>
      <trkpt lat="41.487281" lon="1.884332">
        <ele>90.065</ele>
        <time>2016-10-17T23:09:57Z</time>
      </trkpt>
      <trkpt lat="41.487133" lon="1.884238">
        <ele>90.089</ele>
        <time>2016-10-17T23:10:17Z</time>
      </trkpt>
      <trkpt lat="41.487190" lon="1.884080">
        <ele>90.015</ele>
        <time>2016-10-17T23:10:37Z</time>
      </trkpt>
      <trkpt lat="41.487412" lon="1.884169">
        <ele>89.049</ele>
        <time>2016-10-17T23:10:57Z</time>
      </trkpt>
      <trkpt lat="41.487986" lon="1.884112">
        <ele>87.013</ele>
        <time>2016-10-17T23:11:17Z</time>
      </trkpt>
      <trkpt lat="41.488613" lon="1.882822">
        <ele>102.011</ele>
        <time>2016-10-17T23:11:37Z</time>
      </trkpt>
      <trkpt lat="41.489034" lon="1.881902">
        <ele>108.011</ele>
        <time>2016-10-17T23:11:57Z</time>
      </trkpt>
      <trkpt lat="41.489300" lon="1.880615">
        <ele>116.096</ele>
        <time>2016-10-17T23:12:17Z</time>
      </trkpt>
      <trkpt lat="41.489855" lon="1.879778">
        <ele>124.051</ele>
        <time>2016-10-17T23:12:37Z</time>
      </trkpt>
      <trkpt lat="41.490321" lon="1.879005">
        <ele>128.001</ele>
        <time>2016-10-17T23:12:57Z</time>
      </trkpt>
      <trkpt lat="41.490449" lon="1.878340">
        <ele>127.011</ele>
        <time>2016-10-17T23:13:17Z</time>
      </trkpt>
      <trkpt lat="41.492073" lon="1.876677">
        <ele>136.008</ele>
        <time>2016-10-17T23:13:37Z</time>
      </trkpt>
      <trkpt lat="41.492298" lon="1.876066">
        <ele>142.056</ele>
        <time>2016-10-17T23:13:57Z</time>
      </trkpt>
      <trkpt lat="41.492595" lon="1.875325">
        <ele>148.080</ele>
        <time>2016-10-17T23:14:17Z</time>
      </trkpt>
      <trkpt lat="41.493527" lon="1.874928">
        <ele>149.066</ele>
        <time>2016-10-17T23:14:37Z</time>
      </trkpt>
      <trkpt lat="41.493760" lon="1.874499">
        <ele>151.040</ele>
        <time>2016-10-17T23:14:57Z</time>
      </trkpt>
      <trkpt lat="41.493985" lon="1.873748">
        <ele>157.034</ele>
        <time>2016-10-17T23:15:17Z</time>
      </trkpt>
      <trkpt lat="41.494524" lon="1.872858">
        <ele>158.082</ele>
        <time>2016-10-17T23:15:37Z</time>
      </trkpt>
      <trkpt lat="41.494990" lon="1.872118">
        <ele>157.042</ele>
        <time>2016-10-17T23:15:57Z</time>
      </trkpt>
      <trkpt lat="41.496010" lon="1.871474">
        <ele>159.017</ele>
        <time>2016-10-17T23:16:17Z</time>
      </trkpt>
      <trkpt lat="41.497103" lon="1.870208">
        <ele>165.052</ele>
        <time>2016-10-17T23:16:37Z</time>
      </trkpt>
      <trkpt lat="41.497264" lon="1.869789">
        <ele>165.053</ele>
        <time>2016-10-17T23:16:57Z</time>
      </trkpt>
      <trkpt lat="41.497642" lon="1.869360">
        <ele>164.008</ele>
        <time>2016-10-17T23:17:17Z</time>
      </trkpt>
      <trkpt lat="41.498984" lon="1.868684">
        <ele>169.008</ele>
        <time>2016-10-17T23:17:37Z</time>
      </trkpt>
      <trkpt lat="41.500751" lon="1.866935">
        <ele>178.056</ele>
        <time>2016-10-17T23:17:57Z</time>
      </trkpt>
      <trkpt lat="41.502294" lon="1.865315">
        <ele>186.050</ele>
        <time>2016-10-17T23:18:17Z</time>
      </trkpt>
      <trkpt lat="41.502776" lon="1.865079">
        <ele>190.056</ele>
        <time>2016-10-17T23:18:37Z</time>
      </trkpt>
      <trkpt lat="41.503387" lon="1.865294">
        <ele>194.080</ele>
        <time>2016-10-17T23:18:57Z</time>
      </trkpt>
      <trkpt lat="41.504415" lon="1.864103">
        <ele>198.094</ele>
        <time>2016-10-17T23:19:17Z</time>
      </trkpt>
      <trkpt lat="41.504905" lon="1.864049">
        <ele>198.082</ele>
        <time>2016-10-17T23:19:37Z</time>
      </trkpt>
      <trkpt lat="41.505147" lon="1.864522">
        <ele>199.012</ele>
        <time>2016-10-17T23:19:57Z</time>
      </trkpt>
      <trkpt lat="41.505661" lon="1.864629">
        <ele>200.027</ele>
        <time>2016-10-17T23:20:17Z</time>
      </trkpt>
      <trkpt lat="41.505910" lon="1.864060">
        <ele>207.063</ele>
        <time>2016-10-17T23:20:37Z</time>
      </trkpt>
      <trkpt lat="41.506360" lon="1.863052">
        <ele>207.044</ele>
        <time>2016-10-17T23:20:57Z</time>
      </trkpt>
      <trkpt lat="41.506472" lon="1.862644">
        <ele>206.018</ele>
        <time>2016-10-17T23:21:17Z</time>
      </trkpt>
      <trkpt lat="41.506432" lon="1.862075">
        <ele>204.008</ele>
        <time>2016-10-17T23:21:37Z</time>
      </trkpt>
      <trkpt lat="41.506480" lon="1.861603">
        <ele>205.057</ele>
        <time>2016-10-17T23:21:57Z</time>
      </trkpt>
      <trkpt lat="41.506962" lon="1.860080">
        <ele>209.051</ele>
        <time>2016-10-17T23:22:17Z</time>
      </trkpt>
      <trkpt lat="41.507332" lon="1.859972">
        <ele>209.037</ele>
        <time>2016-10-17T23:22:37Z</time>
      </trkpt>
      <trkpt lat="41.507677" lon="1.859704">
        <ele>211.041</ele>
        <time>2016-10-17T23:22:57Z</time>
      </trkpt>
      <trkpt lat="41.507967" lon="1.859382">
        <ele>210.045</ele>
        <time>2016-10-17T23:23:17Z</time>
      </trkpt>
      <trkpt lat="41.508071" lon="1.858717">
        <ele>210.063</ele>
        <time>2016-10-17T23:23:37Z</time>
      </trkpt>
      <trkpt lat="41.508473" lon="1.856990">
        <ele>224.093</ele>
        <time>2016-10-17T23:23:57Z</time>
      </trkpt>
      <trkpt lat="41.508626" lon="1.856067">
        <ele>231.098</ele>
        <time>2016-10-17T23:24:17Z</time>
      </trkpt>
      <trkpt lat="41.508545" lon="1.855627">
        <ele>231.068</ele>
        <time>2016-10-17T23:24:37Z</time>
      </trkpt>
      <trkpt lat="41.508545" lon="1.855305">
        <ele>230.042</ele>
        <time>2016-10-17T23:24:57Z</time>
      </trkpt>
      <trkpt lat="41.508553" lon="1.854919">
        <ele>229.026</ele>
        <time>2016-10-17T23:25:17Z</time>
      </trkpt>
      <trkpt lat="41.508280" lon="1.854479">
        <ele>225.008</ele>
        <time>2016-10-17T23:25:37Z</time>
      </trkpt>
      <trkpt lat="41.507734" lon="1.854254">
        <ele>225.047</ele>
        <time>2016-10-17T23:25:57Z</time>
      </trkpt>
      <trkpt lat="41.507179" lon="1.854029">
        <ele>229.051</ele>
        <time>2016-10-17T23:26:17Z</time>
      </trkpt>
      <trkpt lat="41.507019" lon="1.853728">
        <ele>234.027</ele>
        <time>2016-10-17T23:26:37Z</time>
      </trkpt>
      <trkpt lat="41.506946" lon="1.853524">
        <ele>234.081</ele>
        <time>2016-10-17T23:26:57Z</time>
      </trkpt>
      <trkpt lat="41.506496" lon="1.851540">
        <ele>241.015</ele>
        <time>2016-10-17T23:27:17Z</time>
      </trkpt>
      <trkpt lat="41.506633" lon="1.850821">
        <ele>246.053</ele>
        <time>2016-10-17T23:27:37Z</time>
      </trkpt>
      <trkpt lat="41.507027" lon="1.850327">
        <ele>250.063</ele>
        <time>2016-10-17T23:27:57Z</time>
      </trkpt>
      <trkpt lat="41.507051" lon="1.849072">
        <ele>258.058</ele>
        <time>2016-10-17T23:28:17Z</time>
      </trkpt>
      <trkpt lat="41.507147" lon="1.847591">
        <ele>263.077</ele>
        <time>2016-10-17T23:28:37Z</time>
      </trkpt>
      <trkpt lat="41.506978" lon="1.846958">
        <ele>272.061</ele>
        <time>2016-10-17T23:28:57Z</time>
      </trkpt>
      <trkpt lat="41.506995" lon="1.846379">
        <ele>278.027</ele>
        <time>2016-10-17T23:29:17Z</time>
      </trkpt>
      <trkpt lat="41.506713" lon="1.845435">
        <ele>279.008</ele>
        <time>2016-10-17T23:29:37Z</time>
      </trkpt>
      <trkpt lat="41.506842" lon="1.843407">
        <ele>263.098</ele>
        <time>2016-10-17T23:29:57Z</time>
      </trkpt>
      <trkpt lat="41.506770" lon="1.842957">
        <ele>262.052</ele>
        <time>2016-10-17T23:30:17Z</time>
      </trkpt>
      <trkpt lat="41.505878" lon="1.842238">
        <ele>252.058</ele>
        <time>2016-10-17T23:30:37Z</time>
      </trkpt>
      <trkpt lat="41.504833" lon="1.841100">
        <ele>243.092</ele>
        <time>2016-10-17T23:30:57Z</time>
      </trkpt>
      <trkpt lat="41.504255" lon="1.840972">
        <ele>236.076</ele>
        <time>2016-10-17T23:31:17Z</time>
      </trkpt>
      <trkpt lat="41.503765" lon="1.841251">
        <ele>235.024</ele>
        <time>2016-10-17T23:31:37Z</time>
      </trkpt>
      <trkpt lat="41.503242" lon="1.841015">
        <ele>237.084</ele>
        <time>2016-10-17T23:31:57Z</time>
      </trkpt>
      <trkpt lat="41.502889" lon="1.840897">
        <ele>244.039</ele>
        <time>2016-10-17T23:32:17Z</time>
      </trkpt>
      <trkpt lat="41.502543" lon="1.840725">
        <ele>246.018</ele>
        <time>2016-10-17T23:32:37Z</time>
      </trkpt>
      <trkpt lat="41.501876" lon="1.840478">
        <ele>246.098</ele>
        <time>2016-10-17T23:32:57Z</time>
      </trkpt>
      <trkpt lat="41.501724" lon="1.840189">
        <ele>244.017</ele>
        <time>2016-10-17T23:33:17Z</time>
      </trkpt>
      <trkpt lat="41.501507" lon="1.840113">
        <ele>244.008</ele>
        <time>2016-10-17T23:33:37Z</time>
      </trkpt>
      <trkpt lat="41.500695" lon="1.839008">
        <ele>252.052</ele>
        <time>2016-10-17T23:33:57Z</time>
      </trkpt>
      <trkpt lat="41.500117" lon="1.838558">
        <ele>262.026</ele>
        <time>2016-10-17T23:34:17Z</time>
      </trkpt>
      <trkpt lat="41.498984" lon="1.838461">
        <ele>269.042</ele>
        <time>2016-10-17T23:34:37Z</time>
      </trkpt>
      <trkpt lat="41.498686" lon="1.838214">
        <ele>268.066</ele>
        <time>2016-10-17T23:34:57Z</time>
      </trkpt>
      <trkpt lat="41.498373" lon="1.837839">
        <ele>271.040</ele>
        <time>2016-10-17T23:35:17Z</time>
      </trkpt>
      <trkpt lat="41.498236" lon="1.837592">
        <ele>273.048</ele>
        <time>2016-10-17T23:35:37Z</time>
      </trkpt>
      <trkpt lat="41.498831" lon="1.835639">
        <ele>268.038</ele>
        <time>2016-10-17T23:35:57Z</time>
      </trkpt>
      <trkpt lat="41.499442" lon="1.834159">
        <ele>270.013</ele>
        <time>2016-10-17T23:36:17Z</time>
      </trkpt>
      <trkpt lat="41.499940" lon="1.833526">
        <ele>276.027</ele>
        <time>2016-10-17T23:36:37Z</time>
      </trkpt>
      <trkpt lat="41.500342" lon="1.833022">
        <ele>281.068</ele>
        <time>2016-10-17T23:36:57Z</time>
      </trkpt>
      <trkpt lat="41.500567" lon="1.831917">
        <ele>281.014</ele>
        <time>2016-10-17T23:37:17Z</time>
      </trkpt>
      <trkpt lat="41.500414" lon="1.831090">
        <ele>277.008</ele>
        <time>2016-10-17T23:37:37Z</time>
      </trkpt>
      <trkpt lat="41.500848" lon="1.828258">
        <ele>272.083</ele>
        <time>2016-10-17T23:37:57Z</time>
      </trkpt>
      <trkpt lat="41.501008" lon="1.827829">
        <ele>278.037</ele>
        <time>2016-10-17T23:38:17Z</time>
      </trkpt>
      <trkpt lat="41.501386" lon="1.827099">
        <ele>284.033</ele>
        <time>2016-10-17T23:38:37Z</time>
      </trkpt>
      <trkpt lat="41.501386" lon="1.826831">
        <ele>286.037</ele>
        <time>2016-10-17T23:38:57Z</time>
      </trkpt>
      <trkpt lat="41.501177" lon="1.825447">
        <ele>284.071</ele>
        <time>2016-10-17T23:39:17Z</time>
      </trkpt>
      <trkpt lat="41.501250" lon="1.824836">
        <ele>280.079</ele>
        <time>2016-10-17T23:39:37Z</time>
      </trkpt>
      <trkpt lat="41.501466" lon="1.824020">
        <ele>277.059</ele>
        <time>2016-10-17T23:39:57Z</time>
      </trkpt>
      <trkpt lat="41.501402" lon="1.823205">
        <ele>276.084</ele>
        <time>2016-10-17T23:40:17Z</time>
      </trkpt>
      <trkpt lat="41.500759" lon="1.822100">
        <ele>280.092</ele>
        <time>2016-10-17T23:40:37Z</time>
      </trkpt>
      <trkpt lat="41.500567" lon="1.821939">
        <ele>280.073</ele>
        <time>2016-10-17T23:40:57Z</time>
      </trkpt>
      <trkpt lat="41.500301" lon="1.821735">
        <ele>277.020</ele>
        <time>2016-10-17T23:41:17Z</time>
      </trkpt>
      <trkpt lat="41.500181" lon="1.821477">
        <ele>278.008</ele>
        <time>2016-10-17T23:41:37Z</time>
      </trkpt>
      <trkpt lat="41.500309" lon="1.820812">
        <ele>277.040</ele>
        <time>2016-10-17T23:41:57Z</time>
      </trkpt>
      <trkpt lat="41.500366" lon="1.819911">
        <ele>274.034</ele>
        <time>2016-10-17T23:42:17Z</time>
      </trkpt>
      <trkpt lat="41.499996" lon="1.819428">
        <ele>270.030</ele>
        <time>2016-10-17T23:42:37Z</time>
      </trkpt>
      <trkpt lat="41.499707" lon="1.818527">
        <ele>264.094</ele>
        <time>2016-10-17T23:42:57Z</time>
      </trkpt>
      <trkpt lat="41.499787" lon="1.817905">
        <ele>261.088</ele>
        <time>2016-10-17T23:43:17Z</time>
      </trkpt>
      <trkpt lat="41.500398" lon="1.816885">
        <ele>255.096</ele>
        <time>2016-10-17T23:43:37Z</time>
      </trkpt>
      <trkpt lat="41.501322" lon="1.815180">
        <ele>247.066</ele>
        <time>2016-10-17T23:43:57Z</time>
      </trkpt>
      <trkpt lat="41.501619" lon="1.814600">
        <ele>244.061</ele>
        <time>2016-10-17T23:44:17Z</time>
      </trkpt>
      <trkpt lat="41.501876" lon="1.814064">
        <ele>243.091</ele>
        <time>2016-10-17T23:44:37Z</time>
      </trkpt>
      <trkpt lat="41.501933" lon="1.813484">
        <ele>243.081</ele>
        <time>2016-10-17T23:44:57Z</time>
      </trkpt>
      <trkpt lat="41.502005" lon="1.812261">
        <ele>243.019</ele>
        <time>2016-10-17T23:45:17Z</time>
      </trkpt>
      <trkpt lat="41.502190" lon="1.811371">
        <ele>244.008</ele>
        <time>2016-10-17T23:45:37Z</time>
      </trkpt>
      <trkpt lat="41.502648" lon="1.810791">
        <ele>246.070</ele>
        <time>2016-10-17T23:45:57Z</time>
      </trkpt>
      <trkpt lat="41.503218" lon="1.810030">
        <ele>256.054</ele>
        <time>2016-10-17T23:46:17Z</time>
      </trkpt>
      <trkpt lat="41.503339" lon="1.809762">
        <ele>258.090</ele>
        <time>2016-10-17T23:46:37Z</time>
      </trkpt>
      <trkpt lat="41.503805" lon="1.809257">
        <ele>254.014</ele>
        <time>2016-10-17T23:46:57Z</time>
      </trkpt>
      <trkpt lat="41.504014" lon="1.808968">
        <ele>253.018</ele>
        <time>2016-10-17T23:47:17Z</time>
      </trkpt>
      <trkpt lat="41.504287" lon="1.809171">
        <ele>251.036</ele>
        <time>2016-10-17T23:47:37Z</time>
      </trkpt>
      <trkpt lat="41.504729" lon="1.809461">
        <ele>245.086</ele>
        <time>2016-10-17T23:47:57Z</time>
      </trkpt>
      <trkpt lat="41.504938" lon="1.809751">
        <ele>240.081</ele>
        <time>2016-10-17T23:48:17Z</time>
      </trkpt>
      <trkpt lat="41.505050" lon="1.809976">
        <ele>236.059</ele>
        <time>2016-10-17T23:48:37Z</time>
      </trkpt>
      <trkpt lat="41.505002" lon="1.810180">
        <ele>232.003</ele>
        <time>2016-10-17T23:48:57Z</time>
      </trkpt>
      <trkpt lat="41.505163" lon="1.810298">
        <ele>226.023</ele>
        <time>2016-10-17T23:49:17Z</time>
      </trkpt>
      <trkpt lat="41.506577" lon="1.809654">
        <ele>211.008</ele>
        <time>2016-10-17T23:49:37Z</time>
      </trkpt>
      <trkpt lat="41.506995" lon="1.809343">
        <ele>208.096</ele>
        <time>2016-10-17T23:49:57Z</time>
      </trkpt>
      <trkpt lat="41.507115" lon="1.809053">
        <ele>205.030</ele>
        <time>2016-10-17T23:50:17Z</time>
      </trkpt>
      <trkpt lat="41.507003" lon="1.808667">
        <ele>210.076</ele>
        <time>2016-10-17T23:50:37Z</time>
      </trkpt>
      <trkpt lat="41.506938" lon="1.808163">
        <ele>211.040</ele>
        <time>2016-10-17T23:50:57Z</time>
      </trkpt>
      <trkpt lat="41.506946" lon="1.807927">
        <ele>211.064</ele>
        <time>2016-10-17T23:51:17Z</time>
      </trkpt>
      <trkpt lat="41.507332" lon="1.808259">
        <ele>206.072</ele>
        <time>2016-10-17T23:51:37Z</time>
      </trkpt>
      <trkpt lat="41.508192" lon="1.808699">
        <ele>207.072</ele>
        <time>2016-10-17T23:51:57Z</time>
      </trkpt>
      <trkpt lat="41.508031" lon="1.809214">
        <ele>204.057</ele>
        <time>2016-10-17T23:52:17Z</time>
      </trkpt>
      <trkpt lat="41.508151" lon="1.809461">
        <ele>203.013</ele>
        <time>2016-10-17T23:52:37Z</time>
      </trkpt>
      <trkpt lat="41.508674" lon="1.809247">
        <ele>210.043</ele>
        <time>2016-10-17T23:52:57Z</time>
      </trkpt>
      <trkpt lat="41.508899" lon="1.808077">
        <ele>222.007</ele>
        <time>2016-10-17T23:53:17Z</time>
      </trkpt>
      <trkpt lat="41.509228" lon="1.806253">
        <ele>232.008</ele>
        <time>2016-10-17T23:53:37Z</time>
      </trkpt>
      <trkpt lat="41.509389" lon="1.805760">
        <ele>231.052</ele>
        <time>2016-10-17T23:53:57Z</time>
      </trkpt>
      <trkpt lat="41.509276" lon="1.803968">
        <ele>227.046</ele>
        <time>2016-10-17T23:54:17Z</time>
      </trkpt>
      <trkpt lat="41.508513" lon="1.801211">
        <ele>233.032</ele>
        <time>2016-10-17T23:54:37Z</time>
      </trkpt>
      <trkpt lat="41.507718" lon="1.798475">
        <ele>238.096</ele>
        <time>2016-10-17T23:54:57Z</time>
      </trkpt>
      <trkpt lat="41.507276" lon="1.796812">
        <ele>242.080</ele>
        <time>2016-10-17T23:55:17Z</time>
      </trkpt>
      <trkpt lat="41.507075" lon="1.796640">
        <ele>242.058</ele>
        <time>2016-10-17T23:55:37Z</time>
      </trkpt>
      <trkpt lat="41.506874" lon="1.794913">
        <ele>248.088</ele>
        <time>2016-10-17T23:55:57Z</time>
      </trkpt>
      <trkpt lat="41.507878" lon="1.794870">
        <ele>250.043</ele>
        <time>2016-10-17T23:56:17Z</time>
      </trkpt>
      <trkpt lat="41.508078" lon="1.794906">
        <ele>250.066</ele>
        <time>2016-10-17T23:56:37Z</time>
      </trkpt>
      <trkpt lat="41.508312" lon="1.793336">
        <ele>257.029</ele>
        <time>2016-10-17T23:56:57Z</time>
      </trkpt>
      <trkpt lat="41.508320" lon="1.792821">
        <ele>257.021</ele>
        <time>2016-10-17T23:57:17Z</time>
      </trkpt>
      <trkpt lat="41.508224" lon="1.792198">
        <ele>258.008</ele>
        <time>2016-10-17T23:57:37Z</time>
      </trkpt>
      <trkpt lat="41.508642" lon="1.790718">
        <ele>266.077</ele>
        <time>2016-10-17T23:57:57Z</time>
      </trkpt>
      <trkpt lat="41.508875" lon="1.789913">
        <ele>270.091</ele>
        <time>2016-10-17T23:58:17Z</time>
      </trkpt>
      <trkpt lat="41.509132" lon="1.788948">
        <ele>270.047</ele>
        <time>2016-10-17T23:58:37Z</time>
      </trkpt>
      <trkpt lat="41.509100" lon="1.788572">
        <ele>270.041</ele>
        <time>2016-10-17T23:58:57Z</time>
      </trkpt>
      <trkpt lat="41.509011" lon="1.788100">
        <ele>274.095</ele>
        <time>2016-10-17T23:59:17Z</time>
      </trkpt>
      <trkpt lat="41.508778" lon="1.787370">
        <ele>273.013</ele>
        <time>2016-10-17T23:59:37Z</time>
      </trkpt>
      <trkpt lat="41.508473" lon="1.786909">
        <ele>274.013</ele>
        <time>2016-10-17T23:59:57Z</time>
      </trkpt>
      <trkpt lat="41.507669" lon="1.786008">
        <ele>281.098</ele>
        <time>2016-10-18T00:00:17Z</time>
      </trkpt>
      <trkpt lat="41.506938" lon="1.785536">
        <ele>284.032</ele>
        <time>2016-10-18T00:00:37Z</time>
      </trkpt>
      <trkpt lat="41.505179" lon="1.784592">
        <ele>286.092</ele>
        <time>2016-10-18T00:00:57Z</time>
      </trkpt>
      <trkpt lat="41.504681" lon="1.784420">
        <ele>287.011</ele>
        <time>2016-10-18T00:01:17Z</time>
      </trkpt>
      <trkpt lat="41.504295" lon="1.784281">
        <ele>293.008</ele>
        <time>2016-10-18T00:01:37Z</time>
      </trkpt>
      <trkpt lat="41.503620" lon="1.783894">
        <ele>296.054</ele>
        <time>2016-10-18T00:01:57Z</time>
      </trkpt>
      <trkpt lat="41.504110" lon="1.782660">
        <ele>293.088</ele>
        <time>2016-10-18T00:02:17Z</time>
      </trkpt>
      <trkpt lat="41.504624" lon="1.781384">
        <ele>296.044</ele>
        <time>2016-10-18T00:02:37Z</time>
      </trkpt>
      <trkpt lat="41.505026" lon="1.780676">
        <ele>302.078</ele>
        <time>2016-10-18T00:02:57Z</time>
      </trkpt>
      <trkpt lat="41.505404" lon="1.779034">
        <ele>304.022</ele>
        <time>2016-10-18T00:03:17Z</time>
      </trkpt>
      <trkpt lat="41.505629" lon="1.778122">
        <ele>302.090</ele>
        <time>2016-10-18T00:03:37Z</time>
      </trkpt>
      <trkpt lat="41.505596" lon="1.777371">
        <ele>303.020</ele>
        <time>2016-10-18T00:03:57Z</time>
      </trkpt>
      <trkpt lat="41.505669" lon="1.776792">
        <ele>307.065</ele>
        <time>2016-10-18T00:04:17Z</time>
      </trkpt>
      <trkpt lat="41.505789" lon="1.776137">
        <ele>312.052</ele>
        <time>2016-10-18T00:04:37Z</time>
      </trkpt>
      <trkpt lat="41.505950" lon="1.775633">
        <ele>318.053</ele>
        <time>2016-10-18T00:04:57Z</time>
      </trkpt>
      <trkpt lat="41.506512" lon="1.774743">
        <ele>325.008</ele>
        <time>2016-10-18T00:05:17Z</time>
      </trkpt>
      <trkpt lat="41.506593" lon="1.774088">
        <ele>326.008</ele>
        <time>2016-10-18T00:05:37Z</time>
      </trkpt>
      <trkpt lat="41.506649" lon="1.773884">
        <ele>328.026</ele>
        <time>2016-10-18T00:05:57Z</time>
      </trkpt>
      <trkpt lat="41.506697" lon="1.773283">
        <ele>330.020</ele>
        <time>2016-10-18T00:06:17Z</time>
      </trkpt>
      <trkpt lat="41.507147" lon="1.772479">
        <ele>329.046</ele>
        <time>2016-10-18T00:06:37Z</time>
      </trkpt>
      <trkpt lat="41.507420" lon="1.771824">
        <ele>328.020</ele>
        <time>2016-10-18T00:06:57Z</time>
      </trkpt>
      <trkpt lat="41.507734" lon="1.771095">
        <ele>321.084</ele>
        <time>2016-10-18T00:07:17Z</time>
      </trkpt>
      <trkpt lat="41.507991" lon="1.770558">
        <ele>320.032</ele>
        <time>2016-10-18T00:07:37Z</time>
      </trkpt>
      <trkpt lat="41.508433" lon="1.769936">
        <ele>319.062</ele>
        <time>2016-10-18T00:07:57Z</time>
      </trkpt>
      <trkpt lat="41.508770" lon="1.769110">
        <ele>319.077</ele>
        <time>2016-10-18T00:08:17Z</time>
      </trkpt>
      <trkpt lat="41.509750" lon="1.767790">
        <ele>325.013</ele>
        <time>2016-10-18T00:08:37Z</time>
      </trkpt>
      <trkpt lat="41.510080" lon="1.766846">
        <ele>325.043</ele>
        <time>2016-10-18T00:08:57Z</time>
      </trkpt>
      <trkpt lat="41.511317" lon="1.765162">
        <ele>333.007</ele>
        <time>2016-10-18T00:09:17Z</time>
      </trkpt>
      <trkpt lat="41.511614" lon="1.764582">
        <ele>337.008</ele>
        <time>2016-10-18T00:09:37Z</time>
      </trkpt>
      <trkpt lat="41.512402" lon="1.763284">
        <ele>329.082</ele>
        <time>2016-10-18T00:09:57Z</time>
      </trkpt>
      <trkpt lat="41.512787" lon="1.762490">
        <ele>328.056</ele>
        <time>2016-10-18T00:10:17Z</time>
      </trkpt>
      <trkpt lat="41.513036" lon="1.761428">
        <ele>325.052</ele>
        <time>2016-10-18T00:10:37Z</time>
      </trkpt>
      <trkpt lat="41.515069" lon="1.760505">
        <ele>317.056</ele>
        <time>2016-10-18T00:10:57Z</time>
      </trkpt>
      <trkpt lat="41.516057" lon="1.759765">
        <ele>314.010</ele>
        <time>2016-10-18T00:11:17Z</time>
      </trkpt>
      <trkpt lat="41.516434" lon="1.759784">
        <ele>315.028</ele>
        <time>2016-10-18T00:11:37Z</time>
      </trkpt>
      <trkpt lat="41.516732" lon="1.759374">
        <ele>315.048</ele>
        <time>2016-10-18T00:11:57Z</time>
      </trkpt>
      <trkpt lat="41.517499" lon="1.759164">
        <ele>312.023</ele>
        <time>2016-10-18T00:12:17Z</time>
      </trkpt>
      <trkpt lat="41.518298" lon="1.759910">
        <ele>312.013</ele>
        <time>2016-10-18T00:12:37Z</time>
      </trkpt>
      <trkpt lat="41.518772" lon="1.759154">
        <ele>311.043</ele>
        <time>2016-10-18T00:12:57Z</time>
      </trkpt>
      <trkpt lat="41.519206" lon="1.756772">
        <ele>309.007</ele>
        <time>2016-10-18T00:13:17Z</time>
      </trkpt>
      <trkpt lat="41.519463" lon="1.754905">
        <ele>304.008</ele>
        <time>2016-10-18T00:13:37Z</time>
      </trkpt>
      <trkpt lat="41.519567" lon="1.754293">
        <ele>298.012</ele>
        <time>2016-10-18T00:13:57Z</time>
      </trkpt>
      <trkpt lat="41.520250" lon="1.753435">
        <ele>292.076</ele>
        <time>2016-10-18T00:14:17Z</time>
      </trkpt>
      <trkpt lat="41.520676" lon="1.752491">
        <ele>288.072</ele>
        <time>2016-10-18T00:14:37Z</time>
      </trkpt>
      <trkpt lat="41.521941" lon="1.750624">
        <ele>305.056</ele>
        <time>2016-10-18T00:14:57Z</time>
      </trkpt>
      <trkpt lat="41.520877" lon="1.749412">
        <ele>303.010</ele>
        <time>2016-10-18T00:15:17Z</time>
      </trkpt>
      <trkpt lat="41.520668" lon="1.748961">
        <ele>298.088</ele>
        <time>2016-10-18T00:15:37Z</time>
      </trkpt>
      <trkpt lat="41.520435" lon="1.747942">
        <ele>295.048</ele>
        <time>2016-10-18T00:15:57Z</time>
      </trkpt>
      <trkpt lat="41.520242" lon="1.747481">
        <ele>292.063</ele>
        <time>2016-10-18T00:16:17Z</time>
      </trkpt>
      <trkpt lat="41.519881" lon="1.746966">
        <ele>289.053</ele>
        <time>2016-10-18T00:16:37Z</time>
      </trkpt>
      <trkpt lat="41.519391" lon="1.746579">
        <ele>284.004</ele>
        <time>2016-10-18T00:16:57Z</time>
      </trkpt>
      <trkpt lat="41.519142" lon="1.746408">
        <ele>282.014</ele>
        <time>2016-10-18T00:17:17Z</time>
      </trkpt>
      <trkpt lat="41.518330" lon="1.743994">
        <ele>278.008</ele>
        <time>2016-10-18T00:17:37Z</time>
      </trkpt>
      <trkpt lat="41.517937" lon="1.743157">
        <ele>276.056</ele>
        <time>2016-10-18T00:17:57Z</time>
      </trkpt>
      <trkpt lat="41.517840" lon="1.742685">
        <ele>272.030</ele>
        <time>2016-10-18T00:18:17Z</time>
      </trkpt>
      <trkpt lat="41.517704" lon="1.742588">
        <ele>270.016</ele>
        <time>2016-10-18T00:18:37Z</time>
      </trkpt>
      <trkpt lat="41.517519" lon="1.742610">
        <ele>267.010</ele>
        <time>2016-10-18T00:18:57Z</time>
      </trkpt>
      <trkpt lat="41.517013" lon="1.742556">
        <ele>263.064</ele>
        <time>2016-10-18T00:19:17Z</time>
      </trkpt>
      <trkpt lat="41.516595" lon="1.742320">
        <ele>265.062</ele>
        <time>2016-10-18T00:19:37Z</time>
      </trkpt>
      <trkpt lat="41.516386" lon="1.742105">
        <ele>265.032</ele>
        <time>2016-10-18T00:19:57Z</time>
      </trkpt>
      <trkpt lat="41.516330" lon="1.741837">
        <ele>265.047</ele>
        <time>2016-10-18T00:20:17Z</time>
      </trkpt>
      <trkpt lat="41.516595" lon="1.741515">
        <ele>264.087</ele>
        <time>2016-10-18T00:20:37Z</time>
      </trkpt>
      <trkpt lat="41.516627" lon="1.741140">
        <ele>263.042</ele>
        <time>2016-10-18T00:20:57Z</time>
      </trkpt>
      <trkpt lat="41.516459" lon="1.740904">
        <ele>260.026</ele>
        <time>2016-10-18T00:21:17Z</time>
      </trkpt>
      <trkpt lat="41.516362" lon="1.740775">
        <ele>260.008</ele>
        <time>2016-10-18T00:21:37Z</time>
      </trkpt>
      <trkpt lat="41.516161" lon="1.738876">
        <ele>240.099</ele>
        <time>2016-10-18T00:21:57Z</time>
      </trkpt>
      <trkpt lat="41.516290" lon="1.738254">
        <ele>240.033</ele>
        <time>2016-10-18T00:22:17Z</time>
      </trkpt>
      <trkpt lat="41.516266" lon="1.737825">
        <ele>241.049</ele>
        <time>2016-10-18T00:22:37Z</time>
      </trkpt>
      <trkpt lat="41.515944" lon="1.736956">
        <ele>245.053</ele>
        <time>2016-10-18T00:22:57Z</time>
      </trkpt>
      <trkpt lat="41.515109" lon="1.736044">
        <ele>251.037</ele>
        <time>2016-10-18T00:23:17Z</time>
      </trkpt>
      <trkpt lat="41.515141" lon="1.735175">
        <ele>259.075</ele>
        <time>2016-10-18T00:23:37Z</time>
      </trkpt>
      <trkpt lat="41.515671" lon="1.734574">
        <ele>258.075</ele>
        <time>2016-10-18T00:23:57Z</time>
      </trkpt>
      <trkpt lat="41.516547" lon="1.732492">
        <ele>256.090</ele>
        <time>2016-10-18T00:24:17Z</time>
      </trkpt>
      <trkpt lat="41.516218" lon="1.732074">
        <ele>253.091</ele>
        <time>2016-10-18T00:24:37Z</time>
      </trkpt>
      <trkpt lat="41.515639" lon="1.732407">
        <ele>256.081</ele>
        <time>2016-10-18T00:24:57Z</time>
      </trkpt>
      <trkpt lat="41.514771" lon="1.732739">
        <ele>259.019</ele>
        <time>2016-10-18T00:25:17Z</time>
      </trkpt>
      <trkpt lat="41.513960" lon="1.733479">
        <ele>258.008</ele>
        <time>2016-10-18T00:25:37Z</time>
      </trkpt>
      <trkpt lat="41.513518" lon="1.733769">
        <ele>256.010</ele>
        <time>2016-10-18T00:25:57Z</time>
      </trkpt>
      <trkpt lat="41.512506" lon="1.733673">
        <ele>263.094</ele>
        <time>2016-10-18T00:26:17Z</time>
      </trkpt>
      <trkpt lat="41.512691" lon="1.733211">
        <ele>266.090</ele>
        <time>2016-10-18T00:26:37Z</time>
      </trkpt>
      <trkpt lat="41.512851" lon="1.732213">
        <ele>273.074</ele>
        <time>2016-10-18T00:26:57Z</time>
      </trkpt>
      <trkpt lat="41.512779" lon="1.732085">
        <ele>273.088</ele>
        <time>2016-10-18T00:27:17Z</time>
      </trkpt>
      <trkpt lat="41.512876" lon="1.731130">
        <ele>278.086</ele>
        <time>2016-10-18T00:27:37Z</time>
      </trkpt>
      <trkpt lat="41.513165" lon="1.730658">
        <ele>280.056</ele>
        <time>2016-10-18T00:27:57Z</time>
      </trkpt>
      <trkpt lat="41.513522" lon="1.730081">
        <ele>284.081</ele>
        <time>2016-10-18T00:28:17Z</time>
      </trkpt>
      <trkpt lat="41.513952" lon="1.729832">
        <ele>286.093</ele>
        <time>2016-10-18T00:28:37Z</time>
      </trkpt>
      <trkpt lat="41.514241" lon="1.729896">
        <ele>286.065</ele>
        <time>2016-10-18T00:28:57Z</time>
      </trkpt>
      <trkpt lat="41.514567" lon="1.729778">
        <ele>287.021</ele>
        <time>2016-10-18T00:29:17Z</time>
      </trkpt>
      <trkpt lat="41.514699" lon="1.729563">
        <ele>288.008</ele>
        <time>2016-10-18T00:29:37Z</time>
      </trkpt>
      <trkpt lat="41.514699" lon="1.729268">
        <ele>289.020</ele>
        <time>2016-10-18T00:29:57Z</time>
      </trkpt>
      <trkpt lat="41.514908" lon="1.728566">
        <ele>290.024</ele>
        <time>2016-10-18T00:30:17Z</time>
      </trkpt>
      <trkpt lat="41.514964" lon="1.728255">
        <ele>290.020</ele>
        <time>2016-10-18T00:30:37Z</time>
      </trkpt>
      <trkpt lat="41.515117" lon="1.727986">
        <ele>290.024</ele>
        <time>2016-10-18T00:30:57Z</time>
      </trkpt>
      <trkpt lat="41.515551" lon="1.727901">
        <ele>290.068</ele>
        <time>2016-10-18T00:31:17Z</time>
      </trkpt>
      <trkpt lat="41.515744" lon="1.728244">
        <ele>286.036</ele>
        <time>2016-10-18T00:31:37Z</time>
      </trkpt>
      <trkpt lat="41.516009" lon="1.728040">
        <ele>284.036</ele>
        <time>2016-10-18T00:31:57Z</time>
      </trkpt>
      <trkpt lat="41.515904" lon="1.727450">
        <ele>287.011</ele>
        <time>2016-10-18T00:32:17Z</time>
      </trkpt>
      <trkpt lat="41.516266" lon="1.727246">
        <ele>280.012</ele>
        <time>2016-10-18T00:32:37Z</time>
      </trkpt>
      <trkpt lat="41.516796" lon="1.727053">
        <ele>279.032</ele>
        <time>2016-10-18T00:32:57Z</time>
      </trkpt>
      <trkpt lat="41.518563" lon="1.727160">
        <ele>277.005</ele>
        <time>2016-10-18T00:33:17Z</time>
      </trkpt>
      <trkpt lat="41.519278" lon="1.726720">
        <ele>286.008</ele>
        <time>2016-10-18T00:33:37Z</time>
      </trkpt>
      <trkpt lat="41.519696" lon="1.726817">
        <ele>291.072</ele>
        <time>2016-10-18T00:33:57Z</time>
      </trkpt>
      <trkpt lat="41.519945" lon="1.727192">
        <ele>293.056</ele>
        <time>2016-10-18T00:34:17Z</time>
      </trkpt>
      <trkpt lat="41.521849" lon="1.728619">
        <ele>306.082</ele>
        <time>2016-10-18T00:34:37Z</time>
      </trkpt>
      <trkpt lat="41.522017" lon="1.729252">
        <ele>303.086</ele>
        <time>2016-10-18T00:34:57Z</time>
      </trkpt>
      <trkpt lat="41.522965" lon="1.729692">
        <ele>301.060</ele>
        <time>2016-10-18T00:35:17Z</time>
      </trkpt>
      <trkpt lat="41.523704" lon="1.729939">
        <ele>307.038</ele>
        <time>2016-10-18T00:35:37Z</time>
      </trkpt>
      <trkpt lat="41.523897" lon="1.730250">
        <ele>310.088</ele>
        <time>2016-10-18T00:35:57Z</time>
      </trkpt>
      <trkpt lat="41.524797" lon="1.730014">
        <ele>322.063</ele>
        <time>2016-10-18T00:36:17Z</time>
      </trkpt>
      <trkpt lat="41.525254" lon="1.730207">
        <ele>322.077</ele>
        <time>2016-10-18T00:36:37Z</time>
      </trkpt>
      <trkpt lat="41.525632" lon="1.729982">
        <ele>324.061</ele>
        <time>2016-10-18T00:36:57Z</time>
      </trkpt>
      <trkpt lat="41.525945" lon="1.729510">
        <ele>325.027</ele>
        <time>2016-10-18T00:37:17Z</time>
      </trkpt>
      <trkpt lat="41.526644" lon="1.729070">
        <ele>327.008</ele>
        <time>2016-10-18T00:37:37Z</time>
      </trkpt>
      <trkpt lat="41.527263" lon="1.729134">
        <ele>327.048</ele>
        <time>2016-10-18T00:37:57Z</time>
      </trkpt>
      <trkpt lat="41.528226" lon="1.728920">
        <ele>328.082</ele>
        <time>2016-10-18T00:38:17Z</time>
      </trkpt>
      <trkpt lat="41.528821" lon="1.728791">
        <ele>335.048</ele>
        <time>2016-10-18T00:38:37Z</time>
      </trkpt>
      <trkpt lat="41.529319" lon="1.728126">
        <ele>338.092</ele>
        <time>2016-10-18T00:38:57Z</time>
      </trkpt>
      <trkpt lat="41.528499" lon="1.726559">
        <ele>322.056</ele>
        <time>2016-10-18T00:39:17Z</time>
      </trkpt>
      <trkpt lat="41.528018" lon="1.726044">
        <ele>319.034</ele>
        <time>2016-10-18T00:39:37Z</time>
      </trkpt>
      <trkpt lat="41.528090" lon="1.725240">
        <ele>316.044</ele>
        <time>2016-10-18T00:39:57Z</time>
      </trkpt>
      <trkpt lat="41.528507" lon="1.724489">
        <ele>315.089</ele>
        <time>2016-10-18T00:40:17Z</time>
      </trkpt>
      <trkpt lat="41.528797" lon="1.724274">
        <ele>314.095</ele>
        <time>2016-10-18T00:40:37Z</time>
      </trkpt>
      <trkpt lat="41.528981" lon="1.723695">
        <ele>312.049</ele>
        <time>2016-10-18T00:40:57Z</time>
      </trkpt>
      <trkpt lat="41.528917" lon="1.723373">
        <ele>312.023</ele>
        <time>2016-10-18T00:41:17Z</time>
      </trkpt>
      <trkpt lat="41.528387" lon="1.722482">
        <ele>308.008</ele>
        <time>2016-10-18T00:41:37Z</time>
      </trkpt>
      <trkpt lat="41.528066" lon="1.722075">
        <ele>308.090</ele>
        <time>2016-10-18T00:41:57Z</time>
      </trkpt>
      <trkpt lat="41.527857" lon="1.722268">
        <ele>304.034</ele>
        <time>2016-10-18T00:42:17Z</time>
      </trkpt>
      <trkpt lat="41.527359" lon="1.722214">
        <ele>301.040</ele>
        <time>2016-10-18T00:42:37Z</time>
      </trkpt>
      <trkpt lat="41.526331" lon="1.722032">
        <ele>296.084</ele>
        <time>2016-10-18T00:42:57Z</time>
      </trkpt>
      <trkpt lat="41.526106" lon="1.722193">
        <ele>294.048</ele>
        <time>2016-10-18T00:43:17Z</time>
      </trkpt>
      <trkpt lat="41.525640" lon="1.722182">
        <ele>293.026</ele>
        <time>2016-10-18T00:43:37Z</time>
      </trkpt>
      <trkpt lat="41.525126" lon="1.721785">
        <ele>289.086</ele>
        <time>2016-10-18T00:43:57Z</time>
      </trkpt>
      <trkpt lat="41.523849" lon="1.720970">
        <ele>280.071</ele>
        <time>2016-10-18T00:44:17Z</time>
      </trkpt>
      <trkpt lat="41.523447" lon="1.720744">
        <ele>276.011</ele>
        <time>2016-10-18T00:44:37Z</time>
      </trkpt>
      <trkpt lat="41.523118" lon="1.720626">
        <ele>273.021</ele>
        <time>2016-10-18T00:44:57Z</time>
      </trkpt>
      <trkpt lat="41.522893" lon="1.720347">
        <ele>271.003</ele>
        <time>2016-10-18T00:45:17Z</time>
      </trkpt>
      <trkpt lat="41.522572" lon="1.719307">
        <ele>269.008</ele>
        <time>2016-10-18T00:45:37Z</time>
      </trkpt>
      <trkpt lat="41.522250" lon="1.718824">
        <ele>269.022</ele>
        <time>2016-10-18T00:45:57Z</time>
      </trkpt>
      <trkpt lat="41.521897" lon="1.717891">
        <ele>265.096</ele>
        <time>2016-10-18T00:46:17Z</time>
      </trkpt>
      <trkpt lat="41.521648" lon="1.717236">
        <ele>263.012</ele>
        <time>2016-10-18T00:46:37Z</time>
      </trkpt>
      <trkpt lat="41.521246" lon="1.716775">
        <ele>263.046</ele>
        <time>2016-10-18T00:46:57Z</time>
      </trkpt>
      <trkpt lat="41.520869" lon="1.716732">
        <ele>262.090</ele>
        <time>2016-10-18T00:47:17Z</time>
      </trkpt>
      <trkpt lat="41.520427" lon="1.716818">
        <ele>259.088</ele>
        <time>2016-10-18T00:47:37Z</time>
      </trkpt>
      <trkpt lat="41.520170" lon="1.716903">
        <ele>256.078</ele>
        <time>2016-10-18T00:47:57Z</time>
      </trkpt>
      <trkpt lat="41.519559" lon="1.716775">
        <ele>249.053</ele>
        <time>2016-10-18T00:48:17Z</time>
      </trkpt>
      <trkpt lat="41.519334" lon="1.716743">
        <ele>249.021</ele>
        <time>2016-10-18T00:48:37Z</time>
      </trkpt>
      <trkpt lat="41.518611" lon="1.716421">
        <ele>244.041</ele>
        <time>2016-10-18T00:48:57Z</time>
      </trkpt>
      <trkpt lat="41.518282" lon="1.715938">
        <ele>243.005</ele>
        <time>2016-10-18T00:49:17Z</time>
      </trkpt>
      <trkpt lat="41.518137" lon="1.715841">
        <ele>242.008</ele>
        <time>2016-10-18T00:49:37Z</time>
      </trkpt>
      <trkpt lat="41.517752" lon="1.715627">
        <ele>241.093</ele>
        <time>2016-10-18T00:49:57Z</time>
      </trkpt>
      <trkpt lat="41.517101" lon="1.715305">
        <ele>241.047</ele>
        <time>2016-10-18T00:50:17Z</time>
      </trkpt>
      <trkpt lat="41.517005" lon="1.715240">
        <ele>239.083</ele>
        <time>2016-10-18T00:50:37Z</time>
      </trkpt>
      <trkpt lat="41.517262" lon="1.714972">
        <ele>241.087</ele>
        <time>2016-10-18T00:50:57Z</time>
      </trkpt>
      <trkpt lat="41.517712" lon="1.715230">
        <ele>242.031</ele>
        <time>2016-10-18T00:51:17Z</time>
      </trkpt>
      <trkpt lat="41.518820" lon="1.714983">
        <ele>247.029</ele>
        <time>2016-10-18T00:51:37Z</time>
      </trkpt>
      <trkpt lat="41.519270" lon="1.714028">
        <ele>259.089</ele>
        <time>2016-10-18T00:51:57Z</time>
      </trkpt>
      <trkpt lat="41.519535" lon="1.713513">
        <ele>265.014</ele>
        <time>2016-10-18T00:52:17Z</time>
      </trkpt>
      <trkpt lat="41.519712" lon="1.712043">
        <ele>280.089</ele>
        <time>2016-10-18T00:52:37Z</time>
      </trkpt>
      <trkpt lat="41.519624" lon="1.711947">
        <ele>280.006</ele>
        <time>2016-10-18T00:52:57Z</time>
      </trkpt>
      <trkpt lat="41.519672" lon="1.711560">
        <ele>282.026</ele>
        <time>2016-10-18T00:53:17Z</time>
      </trkpt>
      <trkpt lat="41.519487" lon="1.711324">
        <ele>283.008</ele>
        <time>2016-10-18T00:53:37Z</time>
      </trkpt>
      <trkpt lat="41.519238" lon="1.709350">
        <ele>289.079</ele>
        <time>2016-10-18T00:53:57Z</time>
      </trkpt>
      <trkpt lat="41.519350" lon="1.709189">
        <ele>289.033</ele>
        <time>2016-10-18T00:54:17Z</time>
      </trkpt>
      <trkpt lat="41.518740" lon="1.708009">
        <ele>285.049</ele>
        <time>2016-10-18T00:54:37Z</time>
      </trkpt>
      <trkpt lat="41.518547" lon="1.707591">
        <ele>282.053</ele>
        <time>2016-10-18T00:54:57Z</time>
      </trkpt>
      <trkpt lat="41.518981" lon="1.707559">
        <ele>282.077</ele>
        <time>2016-10-18T00:55:17Z</time>
      </trkpt>
      <trkpt lat="41.519134" lon="1.708117">
        <ele>285.075</ele>
        <time>2016-10-18T00:55:37Z</time>
      </trkpt>
      <trkpt lat="41.519205" lon="1.708248">
        <ele>287.045</ele>
        <time>2016-10-18T00:55:57Z</time>
      </trkpt>
      <trkpt lat="41.519516" lon="1.708017">
        <ele>284.090</ele>
        <time>2016-10-18T00:56:17Z</time>
      </trkpt>
      <trkpt lat="41.519987" lon="1.707213">
        <ele>279.072</ele>
        <time>2016-10-18T00:56:37Z</time>
      </trkpt>
      <trkpt lat="41.520270" lon="1.706196">
        <ele>265.013</ele>
        <time>2016-10-18T00:56:57Z</time>
      </trkpt>
      <trkpt lat="41.520519" lon="1.705654">
        <ele>248.014</ele>
        <time>2016-10-18T00:57:17Z</time>
      </trkpt>
      <trkpt lat="41.521070" lon="1.705284">
        <ele>236.008</ele>
        <time>2016-10-18T00:57:37Z</time>
      </trkpt>
      <trkpt lat="41.521600" lon="1.705359">
        <ele>231.058</ele>
        <time>2016-10-18T00:57:57Z</time>
      </trkpt>
      <trkpt lat="41.522098" lon="1.705649">
        <ele>234.022</ele>
        <time>2016-10-18T00:58:17Z</time>
      </trkpt>
      <trkpt lat="41.522668" lon="1.705981">
        <ele>241.058</ele>
        <time>2016-10-18T00:58:37Z</time>
      </trkpt>
      <trkpt lat="41.523013" lon="1.706035">
        <ele>243.092</ele>
        <time>2016-10-18T00:58:57Z</time>
      </trkpt>
      <trkpt lat="41.522957" lon="1.705842">
        <ele>243.086</ele>
        <time>2016-10-18T00:59:17Z</time>
      </trkpt>
      <trkpt lat="41.522740" lon="1.705338">
        <ele>242.074</ele>
        <time>2016-10-18T00:59:37Z</time>
      </trkpt>
      <trkpt lat="41.522636" lon="1.705166">
        <ele>238.074</ele>
        <time>2016-10-18T00:59:57Z</time>
      </trkpt>
      <trkpt lat="41.522556" lon="1.704930">
        <ele>240.079</ele>
        <time>2016-10-18T01:00:17Z</time>
      </trkpt>
      <trkpt lat="41.522202" lon="1.704522">
        <ele>237.026</ele>
        <time>2016-10-18T01:00:37Z</time>
      </trkpt>
      <trkpt lat="41.521905" lon="1.704286">
        <ele>235.047</ele>
        <time>2016-10-18T01:00:57Z</time>
      </trkpt>
      <trkpt lat="41.521519" lon="1.704018">
        <ele>231.011</ele>
        <time>2016-10-18T01:01:17Z</time>
      </trkpt>
      <trkpt lat="41.520837" lon="1.703224">
        <ele>227.008</ele>
        <time>2016-10-18T01:01:37Z</time>
      </trkpt>
      <trkpt lat="41.520660" lon="1.702752">
        <ele>226.043</ele>
        <time>2016-10-18T01:01:57Z</time>
      </trkpt>
      <trkpt lat="41.520660" lon="1.701894">
        <ele>227.057</ele>
        <time>2016-10-18T01:02:17Z</time>
      </trkpt>
      <trkpt lat="41.520724" lon="1.699812">
        <ele>226.033</ele>
        <time>2016-10-18T01:02:37Z</time>
      </trkpt>
      <trkpt lat="41.520708" lon="1.698825">
        <ele>225.047</ele>
        <time>2016-10-18T01:02:57Z</time>
      </trkpt>
      <trkpt lat="41.520676" lon="1.697366">
        <ele>227.071</ele>
        <time>2016-10-18T01:03:17Z</time>
      </trkpt>
      <trkpt lat="41.520772" lon="1.696401">
        <ele>231.029</ele>
        <time>2016-10-18T01:03:37Z</time>
      </trkpt>
      <trkpt lat="41.520885" lon="1.695800">
        <ele>231.079</ele>
        <time>2016-10-18T01:03:57Z</time>
      </trkpt>
      <trkpt lat="41.521094" lon="1.695328">
        <ele>235.044</ele>
        <time>2016-10-18T01:04:17Z</time>
      </trkpt>
      <trkpt lat="41.521094" lon="1.694748">
        <ele>234.027</ele>
        <time>2016-10-18T01:04:37Z</time>
      </trkpt>
      <trkpt lat="41.521383" lon="1.694019">
        <ele>237.068</ele>
        <time>2016-10-18T01:04:57Z</time>
      </trkpt>
      <trkpt lat="41.521608" lon="1.693633">
        <ele>241.014</ele>
        <time>2016-10-18T01:05:17Z</time>
      </trkpt>
      <trkpt lat="41.521784" lon="1.693225">
        <ele>241.008</ele>
        <time>2016-10-18T01:05:37Z</time>
      </trkpt>
      <trkpt lat="41.521704" lon="1.692989">
        <ele>241.013</ele>
        <time>2016-10-18T01:05:57Z</time>
      </trkpt>
      <trkpt lat="41.521704" lon="1.691637">
        <ele>249.017</ele>
        <time>2016-10-18T01:06:17Z</time>
      </trkpt>
      <trkpt lat="41.521704" lon="1.691503">
        <ele>252.053</ele>
        <time>2016-10-18T01:06:37Z</time>
      </trkpt>
      <trkpt lat="41.522355" lon="1.691535">
        <ele>246.037</ele>
        <time>2016-10-18T01:06:57Z</time>
      </trkpt>
      <trkpt lat="41.522548" lon="1.691862">
        <ele>244.031</ele>
        <time>2016-10-18T01:07:17Z</time>
      </trkpt>
      <trkpt lat="41.523194" lon="1.692125">
        <ele>241.019</ele>
        <time>2016-10-18T01:07:37Z</time>
      </trkpt>
      <trkpt lat="41.523708" lon="1.692361">
        <ele>240.019</ele>
        <time>2016-10-18T01:07:57Z</time>
      </trkpt>
      <trkpt lat="41.524403" lon="1.692796">
        <ele>239.074</ele>
        <time>2016-10-18T01:08:17Z</time>
      </trkpt>
      <trkpt lat="41.524917" lon="1.692935">
        <ele>240.012</ele>
        <time>2016-10-18T01:08:37Z</time>
      </trkpt>
      <trkpt lat="41.525857" lon="1.692635">
        <ele>240.032</ele>
        <time>2016-10-18T01:08:57Z</time>
      </trkpt>
      <trkpt lat="41.526427" lon="1.691884">
        <ele>246.005</ele>
        <time>2016-10-18T01:09:17Z</time>
      </trkpt>
      <trkpt lat="41.526997" lon="1.691508">
        <ele>265.008</ele>
        <time>2016-10-18T01:09:37Z</time>
      </trkpt>
      <trkpt lat="41.527198" lon="1.691176">
        <ele>276.052</ele>
        <time>2016-10-18T01:09:57Z</time>
      </trkpt>
      <trkpt lat="41.528532" lon="1.690811">
        <ele>274.016</ele>
        <time>2016-10-18T01:10:17Z</time>
      </trkpt>
      <trkpt lat="41.529536" lon="1.690832">
        <ele>274.092</ele>
        <time>2016-10-18T01:10:37Z</time>
      </trkpt>
      <trkpt lat="41.530628" lon="1.690854">
        <ele>269.026</ele>
        <time>2016-10-18T01:10:57Z</time>
      </trkpt>
      <trkpt lat="41.531560" lon="1.690446">
        <ele>265.020</ele>
        <time>2016-10-18T01:11:17Z</time>
      </trkpt>
      <trkpt lat="41.533126" lon="1.689427">
        <ele>266.068</ele>
        <time>2016-10-18T01:11:37Z</time>
      </trkpt>
      <trkpt lat="41.534290" lon="1.689652">
        <ele>250.038</ele>
        <time>2016-10-18T01:11:57Z</time>
      </trkpt>
      <trkpt lat="41.535447" lon="1.689148">
        <ele>248.043</ele>
        <time>2016-10-18T01:12:17Z</time>
      </trkpt>
      <trkpt lat="41.535896" lon="1.689320">
        <ele>242.093</ele>
        <time>2016-10-18T01:12:37Z</time>
      </trkpt>
      <trkpt lat="41.536956" lon="1.688708">
        <ele>255.065</ele>
        <time>2016-10-18T01:12:57Z</time>
      </trkpt>
      <trkpt lat="41.537230" lon="1.687914">
        <ele>260.021</ele>
        <time>2016-10-18T01:13:17Z</time>
      </trkpt>
      <trkpt lat="41.537221" lon="1.687592">
        <ele>262.008</ele>
        <time>2016-10-18T01:13:37Z</time>
      </trkpt>
      <trkpt lat="41.537655" lon="1.686841">
        <ele>266.090</ele>
        <time>2016-10-18T01:13:57Z</time>
      </trkpt>
      <trkpt lat="41.537719" lon="1.686487">
        <ele>271.084</ele>
        <time>2016-10-18T01:14:17Z</time>
      </trkpt>
      <trkpt lat="41.538169" lon="1.686895">
        <ele>266.050</ele>
        <time>2016-10-18T01:14:37Z</time>
      </trkpt>
      <trkpt lat="41.538595" lon="1.687442">
        <ele>266.084</ele>
        <time>2016-10-18T01:14:57Z</time>
      </trkpt>
      <trkpt lat="41.540257" lon="1.687775">
        <ele>273.038</ele>
        <time>2016-10-18T01:15:17Z</time>
      </trkpt>
      <trkpt lat="41.542016" lon="1.687828">
        <ele>266.046</ele>
        <time>2016-10-18T01:15:37Z</time>
      </trkpt>
      <trkpt lat="41.542321" lon="1.687635">
        <ele>271.016</ele>
        <time>2016-10-18T01:15:57Z</time>
      </trkpt>
      <trkpt lat="41.544529" lon="1.687635">
        <ele>269.091</ele>
        <time>2016-10-18T01:16:17Z</time>
      </trkpt>
      <trkpt lat="41.545332" lon="1.687646">
        <ele>263.025</ele>
        <time>2016-10-18T01:16:37Z</time>
      </trkpt>
      <trkpt lat="41.545838" lon="1.687485">
        <ele>263.026</ele>
        <time>2016-10-18T01:16:57Z</time>
      </trkpt>
      <trkpt lat="41.546264" lon="1.687034">
        <ele>265.008</ele>
        <time>2016-10-18T01:17:17Z</time>
      </trkpt>
      <trkpt lat="41.547107" lon="1.686423">
        <ele>270.008</ele>
        <time>2016-10-18T01:17:37Z</time>
      </trkpt>
      <trkpt lat="41.547685" lon="1.686401">
        <ele>264.053</ele>
        <time>2016-10-18T01:17:57Z</time>
      </trkpt>
      <trkpt lat="41.548207" lon="1.685768">
        <ele>264.017</ele>
        <time>2016-10-18T01:18:17Z</time>
      </trkpt>
      <trkpt lat="41.549379" lon="1.684191">
        <ele>267.063</ele>
        <time>2016-10-18T01:18:37Z</time>
      </trkpt>
      <trkpt lat="41.550656" lon="1.682732">
        <ele>271.057</ele>
        <time>2016-10-18T01:18:57Z</time>
      </trkpt>
      <trkpt lat="41.551226" lon="1.682035">
        <ele>263.041</ele>
        <time>2016-10-18T01:19:17Z</time>
      </trkpt>
      <trkpt lat="41.551370" lon="1.681734">
        <ele>256.049</ele>
        <time>2016-10-18T01:19:37Z</time>
      </trkpt>
      <trkpt lat="41.551266" lon="1.681176">
        <ele>256.029</ele>
        <time>2016-10-18T01:19:57Z</time>
      </trkpt>
      <trkpt lat="41.550326" lon="1.680382">
        <ele>271.064</ele>
        <time>2016-10-18T01:20:17Z</time>
      </trkpt>
      <trkpt lat="41.549716" lon="1.679438">
        <ele>269.016</ele>
        <time>2016-10-18T01:20:37Z</time>
      </trkpt>
      <trkpt lat="41.549676" lon="1.679095">
        <ele>264.076</ele>
        <time>2016-10-18T01:20:57Z</time>
      </trkpt>
      <trkpt lat="41.549612" lon="1.678494">
        <ele>259.013</ele>
        <time>2016-10-18T01:21:17Z</time>
      </trkpt>
      <trkpt lat="41.549716" lon="1.678033">
        <ele>257.008</ele>
        <time>2016-10-18T01:21:37Z</time>
      </trkpt>
      <trkpt lat="41.549869" lon="1.677647">
        <ele>257.052</ele>
        <time>2016-10-18T01:21:57Z</time>
      </trkpt>
      <trkpt lat="41.549997" lon="1.677346">
        <ele>258.066</ele>
        <time>2016-10-18T01:22:17Z</time>
      </trkpt>
      <trkpt lat="41.550094" lon="1.677024">
        <ele>259.042</ele>
        <time>2016-10-18T01:22:37Z</time>
      </trkpt>
      <trkpt lat="41.550236" lon="1.676831">
        <ele>259.096</ele>
        <time>2016-10-18T01:22:57Z</time>
      </trkpt>
      <trkpt lat="41.550718" lon="1.676483">
        <ele>265.040</ele>
        <time>2016-10-18T01:23:17Z</time>
      </trkpt>
      <trkpt lat="41.550919" lon="1.676625">
        <ele>264.018</ele>
        <time>2016-10-18T01:23:37Z</time>
      </trkpt>
      <trkpt lat="41.551180" lon="1.676721">
        <ele>266.028</ele>
        <time>2016-10-18T01:23:57Z</time>
      </trkpt>
      <trkpt lat="41.551278" lon="1.676788">
        <ele>269.073</ele>
        <time>2016-10-18T01:24:17Z</time>
      </trkpt>
      <trkpt lat="41.551296" lon="1.677078">
        <ele>268.085</ele>
        <time>2016-10-18T01:24:37Z</time>
      </trkpt>
      <trkpt lat="41.551402" lon="1.677437">
        <ele>265.089</ele>
        <time>2016-10-18T01:24:57Z</time>
      </trkpt>
      <trkpt lat="41.551495" lon="1.677609">
        <ele>265.017</ele>
        <time>2016-10-18T01:25:17Z</time>
      </trkpt>
      <trkpt lat="41.552298" lon="1.677234">
        <ele>269.008</ele>
        <time>2016-10-18T01:25:37Z</time>
      </trkpt>
      <trkpt lat="41.553526" lon="1.676998">
        <ele>263.039</ele>
        <time>2016-10-18T01:25:57Z</time>
      </trkpt>
      <trkpt lat="41.553683" lon="1.677126">
        <ele>262.013</ele>
        <time>2016-10-18T01:26:17Z</time>
      </trkpt>
      <trkpt lat="41.553670" lon="1.677346">
        <ele>262.039</ele>
        <time>2016-10-18T01:26:37Z</time>
      </trkpt>
      <trkpt lat="41.553550" lon="1.677432">
        <ele>262.053</ele>
        <time>2016-10-18T01:26:57Z</time>
      </trkpt>
      <trkpt lat="41.553333" lon="1.677421">
        <ele>262.097</ele>
        <time>2016-10-18T01:27:17Z</time>
      </trkpt>
      <trkpt lat="41.553261" lon="1.677405">
        <ele>262.025</ele>
        <time>2016-10-18T01:27:37Z</time>
      </trkpt>
      <trkpt lat="41.553189" lon="1.677271">
        <ele>264.095</ele>
        <time>2016-10-18T01:27:57Z</time>
      </trkpt>
      <trkpt lat="41.552988" lon="1.675833">
        <ele>272.020</ele>
        <time>2016-10-18T01:28:17Z</time>
      </trkpt>
      <trkpt lat="41.553751" lon="1.675968">
        <ele>268.058</ele>
        <time>2016-10-18T01:28:37Z</time>
      </trkpt>
      <trkpt lat="41.554654" lon="1.675614">
        <ele>267.052</ele>
        <time>2016-10-18T01:28:57Z</time>
      </trkpt>
      <trkpt lat="41.555328" lon="1.674707">
        <ele>273.017</ele>
        <time>2016-10-18T01:29:17Z</time>
      </trkpt>
      <trkpt lat="41.557095" lon="1.673023">
        <ele>273.008</ele>
        <time>2016-10-18T01:29:37Z</time>
      </trkpt>
      <trkpt lat="41.557544" lon="1.672894">
        <ele>277.096</ele>
        <time>2016-10-18T01:29:57Z</time>
      </trkpt>
      <trkpt lat="41.559150" lon="1.673028">
        <ele>275.060</ele>
        <time>2016-10-18T01:30:17Z</time>
      </trkpt>
      <trkpt lat="41.559214" lon="1.672813">
        <ele>278.026</ele>
        <time>2016-10-18T01:30:37Z</time>
      </trkpt>
      <trkpt lat="41.559146" lon="1.672470">
        <ele>281.080</ele>
        <time>2016-10-18T01:30:57Z</time>
      </trkpt>
      <trkpt lat="41.559090" lon="1.672255">
        <ele>283.084</ele>
        <time>2016-10-18T01:31:17Z</time>
      </trkpt>
      <trkpt lat="41.559190" lon="1.671955">
        <ele>285.092</ele>
        <time>2016-10-18T01:31:37Z</time>
      </trkpt>
      <trkpt lat="41.559367" lon="1.671724">
        <ele>283.012</ele>
        <time>2016-10-18T01:31:57Z</time>
      </trkpt>
      <trkpt lat="41.559439" lon="1.671504">
        <ele>284.057</ele>
        <time>2016-10-18T01:32:17Z</time>
      </trkpt>
      <trkpt lat="41.559547" lon="1.670748">
        <ele>286.039</ele>
        <time>2016-10-18T01:32:37Z</time>
      </trkpt>
      <trkpt lat="41.560013" lon="1.669976">
        <ele>295.001</ele>
        <time>2016-10-18T01:32:57Z</time>
      </trkpt>
      <trkpt lat="41.560001" lon="1.669562">
        <ele>298.021</ele>
        <time>2016-10-18T01:33:17Z</time>
      </trkpt>
      <trkpt lat="41.559953" lon="1.669348">
        <ele>298.008</ele>
        <time>2016-10-18T01:33:37Z</time>
      </trkpt>
      <trkpt lat="41.559836" lon="1.669106">
        <ele>300.034</ele>
        <time>2016-10-18T01:33:57Z</time>
      </trkpt>
      <trkpt lat="41.559812" lon="1.668774">
        <ele>302.038</ele>
        <time>2016-10-18T01:34:17Z</time>
      </trkpt>
      <trkpt lat="41.559973" lon="1.668157">
        <ele>304.024</ele>
        <time>2016-10-18T01:34:37Z</time>
      </trkpt>
      <trkpt lat="41.560342" lon="1.667218">
        <ele>300.028</ele>
        <time>2016-10-18T01:34:57Z</time>
      </trkpt>
      <trkpt lat="41.560370" lon="1.667030">
        <ele>300.082</ele>
        <time>2016-10-18T01:35:17Z</time>
      </trkpt>
      <trkpt lat="41.560454" lon="1.667127">
        <ele>292.070</ele>
        <time>2016-10-18T01:35:37Z</time>
      </trkpt>
      <trkpt lat="41.560539" lon="1.667358">
        <ele>292.020</ele>
        <time>2016-10-18T01:35:57Z</time>
      </trkpt>
      <trkpt lat="41.560595" lon="1.667293">
        <ele>292.095</ele>
        <time>2016-10-18T01:36:17Z</time>
      </trkpt>
      <trkpt lat="41.560563" lon="1.667100">
        <ele>292.022</ele>
        <time>2016-10-18T01:36:37Z</time>
      </trkpt>
      <trkpt lat="41.560511" lon="1.666553">
        <ele>291.062</ele>
        <time>2016-10-18T01:36:57Z</time>
      </trkpt>
      <trkpt lat="41.560414" lon="1.666312">
        <ele>299.008</ele>
        <time>2016-10-18T01:37:17Z</time>
      </trkpt>
      <trkpt lat="41.560338" lon="1.666043">
        <ele>299.008</ele>
        <time>2016-10-18T01:37:37Z</time>
      </trkpt>
      <trkpt lat="41.560169" lon="1.665877">
        <ele>299.033</ele>
        <time>2016-10-18T01:37:57Z</time>
      </trkpt>
      <trkpt lat="41.560041" lon="1.665689">
        <ele>308.097</ele>
        <time>2016-10-18T01:38:17Z</time>
      </trkpt>
      <trkpt lat="41.560069" lon="1.665512">
        <ele>308.043</ele>
        <time>2016-10-18T01:38:37Z</time>
      </trkpt>
      <trkpt lat="41.560366" lon="1.665469">
        <ele>299.017</ele>
        <time>2016-10-18T01:38:57Z</time>
      </trkpt>
      <trkpt lat="41.560591" lon="1.665164">
        <ele>291.011</ele>
        <time>2016-10-18T01:39:17Z</time>
      </trkpt>
      <trkpt lat="41.561386" lon="1.663023">
        <ele>283.039</ele>
        <time>2016-10-18T01:39:37Z</time>
      </trkpt>
      <trkpt lat="41.561875" lon="1.661607">
        <ele>281.089</ele>
        <time>2016-10-18T01:39:57Z</time>
      </trkpt>
      <trkpt lat="41.561586" lon="1.661226">
        <ele>287.044</ele>
        <time>2016-10-18T01:40:17Z</time>
      </trkpt>
      <trkpt lat="41.561835" lon="1.661167">
        <ele>284.021</ele>
        <time>2016-10-18T01:40:37Z</time>
      </trkpt>
      <trkpt lat="41.562184" lon="1.659874">
        <ele>286.041</ele>
        <time>2016-10-18T01:40:57Z</time>
      </trkpt>
      <trkpt lat="41.562586" lon="1.659161">
        <ele>286.005</ele>
        <time>2016-10-18T01:41:17Z</time>
      </trkpt>
      <trkpt lat="41.562774" lon="1.658791">
        <ele>283.008</ele>
        <time>2016-10-18T01:41:37Z</time>
      </trkpt>
      <trkpt lat="41.563220" lon="1.658587">
        <ele>276.033</ele>
        <time>2016-10-18T01:41:57Z</time>
      </trkpt>
      <trkpt lat="41.563328" lon="1.658351">
        <ele>278.067</ele>
        <time>2016-10-18T01:42:17Z</time>
      </trkpt>
      <trkpt lat="41.563577" lon="1.658008">
        <ele>276.073</ele>
        <time>2016-10-18T01:42:37Z</time>
      </trkpt>
      <trkpt lat="41.564103" lon="1.656307">
        <ele>281.037</ele>
        <time>2016-10-18T01:42:57Z</time>
      </trkpt>
      <trkpt lat="41.564392" lon="1.655588">
        <ele>280.021</ele>
        <time>2016-10-18T01:43:17Z</time>
      </trkpt>
      <trkpt lat="41.564689" lon="1.655030">
        <ele>275.099</ele>
        <time>2016-10-18T01:43:37Z</time>
      </trkpt>
      <trkpt lat="41.564737" lon="1.653925">
        <ele>275.079</ele>
        <time>2016-10-18T01:43:57Z</time>
      </trkpt>
      <trkpt lat="41.564601" lon="1.653754">
        <ele>275.094</ele>
        <time>2016-10-18T01:44:17Z</time>
      </trkpt>
      <trkpt lat="41.564633" lon="1.653582">
        <ele>276.042</ele>
        <time>2016-10-18T01:44:37Z</time>
      </trkpt>
      <trkpt lat="41.564825" lon="1.653764">
        <ele>275.022</ele>
        <time>2016-10-18T01:44:57Z</time>
      </trkpt>
      <trkpt lat="41.565203" lon="1.653786">
        <ele>271.014</ele>
        <time>2016-10-18T01:45:17Z</time>
      </trkpt>
      <trkpt lat="41.565508" lon="1.653517">
        <ele>271.008</ele>
        <time>2016-10-18T01:45:37Z</time>
      </trkpt>
      <trkpt lat="41.566086" lon="1.651897">
        <ele>274.045</ele>
        <time>2016-10-18T01:45:57Z</time>
      </trkpt>
      <trkpt lat="41.566150" lon="1.651447">
        <ele>273.079</ele>
        <time>2016-10-18T01:46:17Z</time>
      </trkpt>
      <trkpt lat="41.566303" lon="1.649837">
        <ele>275.045</ele>
        <time>2016-10-18T01:46:37Z</time>
      </trkpt>
      <trkpt lat="41.567378" lon="1.649966">
        <ele>279.039</ele>
        <time>2016-10-18T01:46:57Z</time>
      </trkpt>
      <trkpt lat="41.567266" lon="1.649837">
        <ele>278.063</ele>
        <time>2016-10-18T01:47:17Z</time>
      </trkpt>
      <trkpt lat="41.566913" lon="1.649494">
        <ele>278.011</ele>
        <time>2016-10-18T01:47:37Z</time>
      </trkpt>
      <trkpt lat="41.566824" lon="1.649387">
        <ele>278.041</ele>
        <time>2016-10-18T01:47:57Z</time>
      </trkpt>
      <trkpt lat="41.566808" lon="1.648808">
        <ele>279.066</ele>
        <time>2016-10-18T01:48:17Z</time>
      </trkpt>
      <trkpt lat="41.566937" lon="1.648625">
        <ele>280.067</ele>
        <time>2016-10-18T01:48:37Z</time>
      </trkpt>
      <trkpt lat="41.566600" lon="1.648647">
        <ele>278.081</ele>
        <time>2016-10-18T01:48:57Z</time>
      </trkpt>
      <trkpt lat="41.566278" lon="1.648453">
        <ele>277.019</ele>
        <time>2016-10-18T01:49:17Z</time>
      </trkpt>
      <trkpt lat="41.565917" lon="1.647960">
        <ele>274.008</ele>
        <time>2016-10-18T01:49:37Z</time>
      </trkpt>
      <trkpt lat="41.565725" lon="1.647681">
        <ele>274.037</ele>
        <time>2016-10-18T01:49:57Z</time>
      </trkpt>
      <trkpt lat="41.565411" lon="1.647466">
        <ele>272.051</ele>
        <time>2016-10-18T01:50:17Z</time>
      </trkpt>
      <trkpt lat="41.565026" lon="1.647069">
        <ele>271.087</ele>
        <time>2016-10-18T01:50:37Z</time>
      </trkpt>
      <trkpt lat="41.564785" lon="1.646866">
        <ele>271.091</ele>
        <time>2016-10-18T01:50:57Z</time>
      </trkpt>
      <trkpt lat="41.564520" lon="1.646619">
        <ele>272.065</ele>
        <time>2016-10-18T01:51:17Z</time>
      </trkpt>
      <trkpt lat="41.564047" lon="1.646211">
        <ele>273.093</ele>
        <time>2016-10-18T01:51:37Z</time>
      </trkpt>
      <trkpt lat="41.563188" lon="1.645278">
        <ele>272.043</ele>
        <time>2016-10-18T01:51:57Z</time>
      </trkpt>
      <trkpt lat="41.562795" lon="1.644720">
        <ele>272.078</ele>
        <time>2016-10-18T01:52:17Z</time>
      </trkpt>
      <trkpt lat="41.562626" lon="1.644130">
        <ele>273.062</ele>
        <time>2016-10-18T01:52:37Z</time>
      </trkpt>
      <trkpt lat="41.562698" lon="1.642960">
        <ele>276.083</ele>
        <time>2016-10-18T01:52:57Z</time>
      </trkpt>
      <trkpt lat="41.563742" lon="1.642005">
        <ele>279.011</ele>
        <time>2016-10-18T01:53:17Z</time>
      </trkpt>
      <trkpt lat="41.564986" lon="1.640611">
        <ele>278.008</ele>
        <time>2016-10-18T01:53:37Z</time>
      </trkpt>
      <trkpt lat="41.565010" lon="1.640385">
        <ele>277.027</ele>
        <time>2016-10-18T01:53:57Z</time>
      </trkpt>
      <trkpt lat="41.567073" lon="1.639248">
        <ele>285.091</ele>
        <time>2016-10-18T01:54:17Z</time>
      </trkpt>
      <trkpt lat="41.567988" lon="1.638240">
        <ele>280.017</ele>
        <time>2016-10-18T01:54:37Z</time>
      </trkpt>
      <trkpt lat="41.569224" lon="1.636029">
        <ele>281.041</ele>
        <time>2016-10-18T01:54:57Z</time>
      </trkpt>
      <trkpt lat="41.569979" lon="1.636137">
        <ele>285.055</ele>
        <time>2016-10-18T01:55:17Z</time>
      </trkpt>
      <trkpt lat="41.569666" lon="1.637006">
        <ele>286.033</ele>
        <time>2016-10-18T01:55:37Z</time>
      </trkpt>
      <trkpt lat="41.569273" lon="1.637703">
        <ele>284.023</ele>
        <time>2016-10-18T01:55:57Z</time>
      </trkpt>
      <trkpt lat="41.569096" lon="1.638315">
        <ele>285.098</ele>
        <time>2016-10-18T01:56:17Z</time>
      </trkpt>
      <trkpt lat="41.569120" lon="1.639237">
        <ele>288.065</ele>
        <time>2016-10-18T01:56:37Z</time>
      </trkpt>
      <trkpt lat="41.569313" lon="1.640664">
        <ele>294.068</ele>
        <time>2016-10-18T01:56:57Z</time>
      </trkpt>
      <trkpt lat="41.571151" lon="1.640139">
        <ele>298.014</ele>
        <time>2016-10-18T01:57:17Z</time>
      </trkpt>
      <trkpt lat="41.571327" lon="1.638669">
        <ele>300.008</ele>
        <time>2016-10-18T01:57:37Z</time>
      </trkpt>
      <trkpt lat="41.571729" lon="1.637274">
        <ele>299.097</ele>
        <time>2016-10-18T01:57:57Z</time>
      </trkpt>
      <trkpt lat="41.571873" lon="1.636394">
        <ele>297.061</ele>
        <time>2016-10-18T01:58:17Z</time>
      </trkpt>
      <trkpt lat="41.572010" lon="1.635643">
        <ele>295.037</ele>
        <time>2016-10-18T01:58:37Z</time>
      </trkpt>
      <trkpt lat="41.571961" lon="1.634817">
        <ele>290.071</ele>
        <time>2016-10-18T01:58:57Z</time>
      </trkpt>
      <trkpt lat="41.571769" lon="1.634098">
        <ele>285.045</ele>
        <time>2016-10-18T01:59:17Z</time>
      </trkpt>
      <trkpt lat="41.571584" lon="1.633819">
        <ele>282.043</ele>
        <time>2016-10-18T01:59:37Z</time>
      </trkpt>
      <trkpt lat="41.571424" lon="1.633412">
        <ele>280.053</ele>
        <time>2016-10-18T01:59:57Z</time>
      </trkpt>
      <trkpt lat="41.571624" lon="1.632940">
        <ele>279.078</ele>
        <time>2016-10-18T02:00:17Z</time>
      </trkpt>
      <trkpt lat="41.572403" lon="1.632704">
        <ele>279.032</ele>
        <time>2016-10-18T02:00:37Z</time>
      </trkpt>
      <trkpt lat="41.572989" lon="1.632596">
        <ele>281.092</ele>
        <time>2016-10-18T02:00:57Z</time>
      </trkpt>
      <trkpt lat="41.573141" lon="1.631899">
        <ele>282.011</ele>
        <time>2016-10-18T02:01:17Z</time>
      </trkpt>
      <trkpt lat="41.573141" lon="1.631405">
        <ele>281.008</ele>
        <time>2016-10-18T02:01:37Z</time>
      </trkpt>
      <trkpt lat="41.573133" lon="1.630526">
        <ele>278.024</ele>
        <time>2016-10-18T02:01:57Z</time>
      </trkpt>
      <trkpt lat="41.572876" lon="1.629174">
        <ele>278.068</ele>
        <time>2016-10-18T02:02:17Z</time>
      </trkpt>
      <trkpt lat="41.573310" lon="1.628970">
        <ele>284.084</ele>
        <time>2016-10-18T02:02:37Z</time>
      </trkpt>
      <trkpt lat="41.574458" lon="1.628884">
        <ele>288.048</ele>
        <time>2016-10-18T02:02:57Z</time>
      </trkpt>
      <trkpt lat="41.574923" lon="1.629313">
        <ele>291.082</ele>
        <time>2016-10-18T02:03:17Z</time>
      </trkpt>
      <trkpt lat="41.575517" lon="1.629056">
        <ele>295.030</ele>
        <time>2016-10-18T02:03:37Z</time>
      </trkpt>
      <trkpt lat="41.576175" lon="1.628841">
        <ele>299.030</ele>
        <time>2016-10-18T02:03:57Z</time>
      </trkpt>
      <trkpt lat="41.576737" lon="1.628991">
        <ele>301.085</ele>
        <time>2016-10-18T02:04:17Z</time>
      </trkpt>
      <trkpt lat="41.577588" lon="1.629002">
        <ele>304.054</ele>
        <time>2016-10-18T02:04:37Z</time>
      </trkpt>
      <trkpt lat="41.578005" lon="1.629088">
        <ele>307.056</ele>
        <time>2016-10-18T02:04:57Z</time>
      </trkpt>
      <trkpt lat="41.578085" lon="1.629292">
        <ele>307.011</ele>
        <time>2016-10-18T02:05:17Z</time>
      </trkpt>
      <trkpt lat="41.573130" lon="1.631540">
        <ele>290.058</ele>
        <time>2023-01-19T18:30:40Z</time>
      </trkpt>
      <trkpt lat="41.573110" lon="1.631400">
        <ele>291.052</ele>
        <time>2023-01-19T18:31:20Z</time>
      </trkpt>
      <trkpt lat="41.573150" lon="1.630890">
        <ele>291.017</ele>
        <time>2023-01-19T18:32:00Z</time>
      </trkpt>
      <trkpt lat="41.573040" lon="1.629770">
        <ele>291.009</ele>
        <time>2023-01-19T18:32:40Z</time>
      </trkpt>
      <trkpt lat="41.572970" lon="1.629410">
        <ele>292.096</ele>
        <time>2023-01-19T18:33:20Z</time>
      </trkpt>
      <trkpt lat="41.572810" lon="1.629120">
        <ele>292.017</ele>
        <time>2023-01-19T18:34:00Z</time>
      </trkpt>
      <trkpt lat="41.572810" lon="1.629110">
        <ele>292.088</ele>
        <time>2023-01-19T18:34:40Z</time>
      </trkpt>
      <trkpt lat="41.572720" lon="1.628890">
        <ele>292.092</ele>
        <time>2023-01-19T18:35:20Z</time>
      </trkpt>
      <trkpt lat="41.572680" lon="1.628210">
        <ele>290.053</ele>
        <time>2023-01-19T18:36:00Z</time>
      </trkpt>
      <trkpt lat="41.572720" lon="1.627680">
        <ele>290.099</ele>
        <time>2023-01-19T18:36:40Z</time>
      </trkpt>
      <trkpt lat="41.572770" lon="1.627280">
        <ele>292.039</ele>
        <time>2023-01-19T18:37:20Z</time>
      </trkpt>
      <trkpt lat="41.573020" lon="1.626660">
        <ele>293.055</ele>
        <time>2023-01-19T18:38:00Z</time>
      </trkpt>
      <trkpt lat="41.573030" lon="1.626660">
        <ele>293.028</ele>
        <time>2023-01-19T18:38:40Z</time>
      </trkpt>
      <trkpt lat="41.573500" lon="1.625980">
        <ele>292.034</ele>
        <time>2023-01-19T18:39:20Z</time>
      </trkpt>
      <trkpt lat="41.574060" lon="1.625300">
        <ele>292.055</ele>
        <time>2023-01-19T18:40:00Z</time>
      </trkpt>
      <trkpt lat="41.574370" lon="1.625000">
        <ele>292.010</ele>
        <time>2023-01-19T18:40:40Z</time>
      </trkpt>
      <trkpt lat="41.574560" lon="1.624880">
        <ele>293.009</ele>
        <time>2023-01-19T18:41:20Z</time>
      </trkpt>
      <trkpt lat="41.574650" lon="1.624770">
        <ele>294.054</ele>
        <time>2023-01-19T18:42:00Z</time>
      </trkpt>
      <trkpt lat="41.574650" lon="1.624690">
        <ele>294.085</ele>
        <time>2023-01-19T18:42:40Z</time>
      </trkpt>
      <trkpt lat="41.574560" lon="1.624670">
        <ele>294.016</ele>
        <time>2023-01-19T18:43:20Z</time>
      </trkpt>
      <trkpt lat="41.574180" lon="1.624920">
        <ele>295.040</ele>
        <time>2023-01-19T18:44:00Z</time>
      </trkpt>
      <trkpt lat="41.574120" lon="1.624910">
        <ele>295.081</ele>
        <time>2023-01-19T18:44:40Z</time>
      </trkpt>
      <trkpt lat="41.573970" lon="1.624740">
        <ele>295.087</ele>
        <time>2023-01-19T18:45:20Z</time>
      </trkpt>
      <trkpt lat="41.573940" lon="1.624640">
        <ele>295.097</ele>
        <time>2023-01-19T18:46:00Z</time>
      </trkpt>
      <trkpt lat="41.573990" lon="1.624460">
        <ele>295.043</ele>
        <time>2023-01-19T18:46:40Z</time>
      </trkpt>
      <trkpt lat="41.574120" lon="1.624340">
        <ele>295.076</ele>
        <time>2023-01-19T18:47:20Z</time>
      </trkpt>
      <trkpt lat="41.574120" lon="1.624350">
        <ele>295.047</ele>
        <time>2023-01-19T18:48:00Z</time>
      </trkpt>
      <trkpt lat="41.574550" lon="1.623950">
        <ele>295.029</ele>
        <time>2023-01-19T18:48:40Z</time>
      </trkpt>
      <trkpt lat="41.574990" lon="1.623450">
        <ele>296.021</ele>
        <time>2023-01-19T18:49:20Z</time>
      </trkpt>
      <trkpt lat="41.575220" lon="1.623000">
        <ele>296.009</ele>
        <time>2023-01-19T18:50:00Z</time>
      </trkpt>
      <trkpt lat="41.575370" lon="1.622580">
        <ele>297.095</ele>
        <time>2023-01-19T18:50:40Z</time>
      </trkpt>
      <trkpt lat="41.575610" lon="1.621670">
        <ele>297.066</ele>
        <time>2023-01-19T18:51:20Z</time>
      </trkpt>
      <trkpt lat="41.575660" lon="1.621140">
        <ele>297.027</ele>
        <time>2023-01-19T18:52:00Z</time>
      </trkpt>
      <trkpt lat="41.575750" lon="1.620280">
        <ele>298.071</ele>
        <time>2023-01-19T18:52:40Z</time>
      </trkpt>
      <trkpt lat="41.575750" lon="1.620290">
        <ele>298.072</ele>
        <time>2023-01-19T18:53:20Z</time>
      </trkpt>
      <trkpt lat="41.575800" lon="1.619810">
        <ele>297.078</ele>
        <time>2023-01-19T18:54:00Z</time>
      </trkpt>
      <trkpt lat="41.575730" lon="1.618660">
        <ele>296.028</ele>
        <time>2023-01-19T18:54:40Z</time>
      </trkpt>
      <trkpt lat="41.575730" lon="1.618650">
        <ele>296.034</ele>
        <time>2023-01-19T18:55:20Z</time>
      </trkpt>
      <trkpt lat="41.575720" lon="1.617850">
        <ele>298.037</ele>
        <time>2023-01-19T18:56:00Z</time>
      </trkpt>
      <trkpt lat="41.575680" lon="1.617040">
        <ele>298.074</ele>
        <time>2023-01-19T18:56:40Z</time>
      </trkpt>
      <trkpt lat="41.575630" lon="1.616760">
        <ele>297.056</ele>
        <time>2023-01-19T18:57:20Z</time>
      </trkpt>
      <trkpt lat="41.575640" lon="1.616650">
        <ele>297.021</ele>
        <time>2023-01-19T18:58:00Z</time>
      </trkpt>
      <trkpt lat="41.575670" lon="1.616560">
        <ele>297.009</ele>
        <time>2023-01-19T18:58:40Z</time>
      </trkpt>
      <trkpt lat="41.575910" lon="1.616420">
        <ele>296.078</ele>
        <time>2023-01-19T18:59:20Z</time>
      </trkpt>
      <trkpt lat="41.575980" lon="1.616330">
        <ele>296.099</ele>
        <time>2023-01-19T19:00:00Z</time>
      </trkpt>
      <trkpt lat="41.576010" lon="1.616230">
        <ele>296.050</ele>
        <time>2023-01-19T19:00:40Z</time>
      </trkpt>
      <trkpt lat="41.576000" lon="1.616080">
        <ele>296.054</ele>
        <time>2023-01-19T19:01:20Z</time>
      </trkpt>
      <trkpt lat="41.576000" lon="1.616070">
        <ele>296.085</ele>
        <time>2023-01-19T19:02:00Z</time>
      </trkpt>
      <trkpt lat="41.575930" lon="1.615780">
        <ele>296.011</ele>
        <time>2023-01-19T19:02:40Z</time>
      </trkpt>
      <trkpt lat="41.575940" lon="1.615710">
        <ele>296.011</ele>
        <time>2023-01-19T19:03:20Z</time>
      </trkpt>
      <trkpt lat="41.576030" lon="1.615610">
        <ele>296.037</ele>
        <time>2023-01-19T19:04:00Z</time>
      </trkpt>
      <trkpt lat="41.575850" lon="1.615140">
        <ele>297.090</ele>
        <time>2023-01-19T19:04:40Z</time>
      </trkpt>
      <trkpt lat="41.575770" lon="1.614870">
        <ele>297.037</ele>
        <time>2023-01-19T19:05:20Z</time>
      </trkpt>
      <trkpt lat="41.575720" lon="1.614590">
        <ele>298.049</ele>
        <time>2023-01-19T19:06:00Z</time>
      </trkpt>
      <trkpt lat="41.575720" lon="1.614370">
        <ele>298.013</ele>
        <time>2023-01-19T19:06:40Z</time>
      </trkpt>
      <trkpt lat="41.575720" lon="1.614370">
        <ele>298.009</ele>
        <time>2023-01-19T19:07:20Z</time>
      </trkpt>
      <trkpt lat="41.575700" lon="1.613980">
        <ele>298.064</ele>
        <time>2023-01-19T19:08:00Z</time>
      </trkpt>
      <trkpt lat="41.575790" lon="1.613320">
        <ele>301.085</ele>
        <time>2023-01-19T19:08:40Z</time>
      </trkpt>
      <trkpt lat="41.576490" lon="1.611690">
        <ele>303.066</ele>
        <time>2023-01-19T19:09:20Z</time>
      </trkpt>
      <trkpt lat="41.576500" lon="1.611690">
        <ele>303.060</ele>
        <time>2023-01-19T19:10:00Z</time>
      </trkpt>
      <trkpt lat="41.576740" lon="1.611150">
        <ele>302.051</ele>
        <time>2023-01-19T19:10:40Z</time>
      </trkpt>
      <trkpt lat="41.577130" lon="1.610490">
        <ele>301.027</ele>
        <time>2023-01-19T19:11:20Z</time>
      </trkpt>
      <trkpt lat="41.577950" lon="1.609580">
        <ele>305.097</ele>
        <time>2023-01-19T19:12:00Z</time>
      </trkpt>
      <trkpt lat="41.577950" lon="1.609580">
        <ele>305.073</ele>
        <time>2023-01-19T19:12:40Z</time>
      </trkpt>
      <trkpt lat="41.578180" lon="1.609320">
        <ele>306.086</ele>
        <time>2023-01-19T19:13:20Z</time>
      </trkpt>
      <trkpt lat="41.579500" lon="1.608120">
        <ele>306.078</ele>
        <time>2023-01-19T19:14:00Z</time>
      </trkpt>
      <trkpt lat="41.579540" lon="1.608170">
        <ele>306.033</ele>
        <time>2023-01-19T19:14:40Z</time>
      </trkpt>
      <trkpt lat="41.579600" lon="1.608180">
        <ele>306.026</ele>
        <time>2023-01-19T19:15:20Z</time>
      </trkpt>
      <trkpt lat="41.579650" lon="1.608170">
        <ele>306.009</ele>
        <time>2023-01-19T19:16:00Z</time>
      </trkpt>
      <trkpt lat="41.579690" lon="1.608130">
        <ele>306.028</ele>
        <time>2023-01-19T19:16:40Z</time>
      </trkpt>
      <trkpt lat="41.579720" lon="1.608070">
        <ele>305.049</ele>
        <time>2023-01-19T19:17:20Z</time>
      </trkpt>
      <trkpt lat="41.579730" lon="1.607950">
        <ele>305.020</ele>
        <time>2023-01-19T19:18:00Z</time>
      </trkpt>
      <trkpt lat="41.579670" lon="1.607850">
        <ele>305.094</ele>
        <time>2023-01-19T19:18:40Z</time>
      </trkpt>
      <trkpt lat="41.579590" lon="1.607820">
        <ele>305.025</ele>
        <time>2023-01-19T19:19:20Z</time>
      </trkpt>
      <trkpt lat="41.579550" lon="1.607840">
        <ele>304.041</ele>
        <time>2023-01-19T19:20:00Z</time>
      </trkpt>
      <trkpt lat="41.579540" lon="1.607660">
        <ele>304.071</ele>
        <time>2023-01-19T19:20:40Z</time>
      </trkpt>
      <trkpt lat="41.579550" lon="1.607570">
        <ele>303.037</ele>
        <time>2023-01-19T19:21:20Z</time>
      </trkpt>
      <trkpt lat="41.579610" lon="1.607440">
        <ele>303.070</ele>
        <time>2023-01-19T19:22:00Z</time>
      </trkpt>
      <trkpt lat="41.579770" lon="1.607240">
        <ele>302.054</ele>
        <time>2023-01-19T19:22:40Z</time>
      </trkpt>
      <trkpt lat="41.579770" lon="1.607240">
        <ele>302.056</ele>
        <time>2023-01-19T19:23:20Z</time>
      </trkpt>
      <trkpt lat="41.580350" lon="1.606520">
        <ele>301.011</ele>
        <time>2023-01-19T19:24:00Z</time>
      </trkpt>
      <trkpt lat="41.580780" lon="1.606010">
        <ele>301.009</ele>
        <time>2023-01-19T19:24:40Z</time>
      </trkpt>
      <trkpt lat="41.580840" lon="1.605950">
        <ele>301.086</ele>
        <time>2023-01-19T19:25:20Z</time>
      </trkpt>
      <trkpt lat="41.580990" lon="1.605890">
        <ele>301.027</ele>
        <time>2023-01-19T19:26:00Z</time>
      </trkpt>
      <trkpt lat="41.581200" lon="1.605880">
        <ele>301.058</ele>
        <time>2023-01-19T19:26:40Z</time>
      </trkpt>
      <trkpt lat="41.581410" lon="1.605980">
        <ele>301.022</ele>
        <time>2023-01-19T19:27:20Z</time>
      </trkpt>
      <trkpt lat="41.581410" lon="1.606080">
        <ele>301.093</ele>
        <time>2023-01-19T19:28:00Z</time>
      </trkpt>
      <trkpt lat="41.581440" lon="1.606210">
        <ele>302.079</ele>
        <time>2023-01-19T19:28:40Z</time>
      </trkpt>
      <trkpt lat="41.581480" lon="1.606280">
        <ele>303.079</ele>
        <time>2023-01-19T19:29:20Z</time>
      </trkpt>
      <trkpt lat="41.581530" lon="1.606310">
        <ele>303.025</ele>
        <time>2023-01-19T19:30:00Z</time>
      </trkpt>
      <trkpt lat="41.581580" lon="1.606340">
        <ele>303.088</ele>
        <time>2023-01-19T19:30:40Z</time>
      </trkpt>
      <trkpt lat="41.581670" lon="1.606320">
        <ele>304.092</ele>
        <time>2023-01-19T19:31:20Z</time>
      </trkpt>
      <trkpt lat="41.581710" lon="1.606290">
        <ele>304.073</ele>
        <time>2023-01-19T19:32:00Z</time>
      </trkpt>
      <trkpt lat="41.581760" lon="1.606240">
        <ele>305.020</ele>
        <time>2023-01-19T19:32:40Z</time>
      </trkpt>
      <trkpt lat="41.581800" lon="1.606110">
        <ele>305.009</ele>
        <time>2023-01-19T19:33:20Z</time>
      </trkpt>
      <trkpt lat="41.581780" lon="1.605970">
        <ele>306.050</ele>
        <time>2023-01-19T19:34:00Z</time>
      </trkpt>
      <trkpt lat="41.581730" lon="1.605870">
        <ele>307.041</ele>
        <time>2023-01-19T19:34:40Z</time>
      </trkpt>
      <trkpt lat="41.581660" lon="1.605680">
        <ele>308.042</ele>
        <time>2023-01-19T19:35:20Z</time>
      </trkpt>
      <trkpt lat="41.581750" lon="1.605240">
        <ele>308.016</ele>
        <time>2023-01-19T19:36:00Z</time>
      </trkpt>
      <trkpt lat="41.581750" lon="1.605250">
        <ele>308.057</ele>
        <time>2023-01-19T19:36:40Z</time>
      </trkpt>
      <trkpt lat="41.582020" lon="1.603910">
        <ele>311.063</ele>
        <time>2023-01-19T19:37:20Z</time>
      </trkpt>
      <trkpt lat="41.582090" lon="1.603250">
        <ele>314.063</ele>
        <time>2023-01-19T19:38:00Z</time>
      </trkpt>
      <trkpt lat="41.582140" lon="1.602410">
        <ele>314.029</ele>
        <time>2023-01-19T19:38:40Z</time>
      </trkpt>
      <trkpt lat="41.582210" lon="1.601950">
        <ele>314.082</ele>
        <time>2023-01-19T19:39:20Z</time>
      </trkpt>
      <trkpt lat="41.582350" lon="1.601460">
        <ele>314.032</ele>
        <time>2023-01-19T19:40:00Z</time>
      </trkpt>
      <trkpt lat="41.582530" lon="1.600970">
        <ele>314.092</ele>
        <time>2023-01-19T19:40:40Z</time>
      </trkpt>
      <trkpt lat="41.582570" lon="1.600820">
        <ele>315.011</ele>
        <time>2023-01-19T19:41:20Z</time>
      </trkpt>
      <trkpt lat="41.582760" lon="1.600690">
        <ele>316.009</ele>
        <time>2023-01-19T19:42:00Z</time>
      </trkpt>
      <trkpt lat="41.583000" lon="1.600250">
        <ele>319.084</ele>
        <time>2023-01-19T19:42:40Z</time>
      </trkpt>
      <trkpt lat="41.583000" lon="1.600250">
        <ele>319.075</ele>
        <time>2023-01-19T19:43:20Z</time>
      </trkpt>
      <trkpt lat="41.583030" lon="1.600210">
        <ele>319.046</ele>
        <time>2023-01-19T19:44:00Z</time>
      </trkpt>
      <trkpt lat="41.583000" lon="1.599710">
        <ele>321.030</ele>
        <time>2023-01-19T19:44:40Z</time>
      </trkpt>
      <trkpt lat="41.583000" lon="1.599710">
        <ele>321.021</ele>
        <time>2023-01-19T19:45:20Z</time>
      </trkpt>
      <trkpt lat="41.582950" lon="1.598960">
        <ele>323.097</ele>
        <time>2023-01-19T19:46:00Z</time>
      </trkpt>
      <trkpt lat="41.583110" lon="1.599010">
        <ele>323.017</ele>
        <time>2023-01-19T19:46:40Z</time>
      </trkpt>
      <trkpt lat="41.583130" lon="1.598760">
        <ele>323.013</ele>
        <time>2023-01-19T19:47:20Z</time>
      </trkpt>
      <trkpt lat="41.583140" lon="1.598760">
        <ele>323.056</ele>
        <time>2023-01-19T19:48:00Z</time>
      </trkpt>
      <trkpt lat="41.583500" lon="1.594570">
        <ele>330.064</ele>
        <time>2023-01-19T19:48:40Z</time>
      </trkpt>
      <trkpt lat="41.583500" lon="1.594580">
        <ele>330.006</ele>
        <time>2023-01-19T19:49:20Z</time>
      </trkpt>
      <trkpt lat="41.583670" lon="1.592540">
        <ele>332.016</ele>
        <time>2023-01-19T19:50:00Z</time>
      </trkpt>
      <trkpt lat="41.584170" lon="1.590200">
        <ele>331.009</ele>
        <time>2023-01-19T19:50:40Z</time>
      </trkpt>
      <trkpt lat="41.584430" lon="1.589710">
        <ele>332.057</ele>
        <time>2023-01-19T19:51:20Z</time>
      </trkpt>
      <trkpt lat="41.585130" lon="1.588540">
        <ele>334.018</ele>
        <time>2023-01-19T19:52:00Z</time>
      </trkpt>
      <trkpt lat="41.585600" lon="1.587340">
        <ele>339.039</ele>
        <time>2023-01-19T19:52:40Z</time>
      </trkpt>
      <trkpt lat="41.586060" lon="1.586230">
        <ele>344.013</ele>
        <time>2023-01-19T19:53:20Z</time>
      </trkpt>
      <trkpt lat="41.586070" lon="1.586230">
        <ele>344.094</ele>
        <time>2023-01-19T19:54:00Z</time>
      </trkpt>
      <trkpt lat="41.586180" lon="1.585940">
        <ele>346.070</ele>
        <time>2023-01-19T19:54:40Z</time>
      </trkpt>
      <trkpt lat="41.585980" lon="1.585810">
        <ele>346.010</ele>
        <time>2023-01-19T19:55:20Z</time>
      </trkpt>
      <trkpt lat="41.586000" lon="1.585730">
        <ele>345.036</ele>
        <time>2023-01-19T19:56:00Z</time>
      </trkpt>
      <trkpt lat="41.585990" lon="1.585640">
        <ele>345.089</ele>
        <time>2023-01-19T19:56:40Z</time>
      </trkpt>
      <trkpt lat="41.585950" lon="1.585580">
        <ele>345.017</ele>
        <time>2023-01-19T19:57:20Z</time>
      </trkpt>
      <trkpt lat="41.585900" lon="1.585550">
        <ele>345.087</ele>
        <time>2023-01-19T19:58:00Z</time>
      </trkpt>
      <trkpt lat="41.585770" lon="1.585170">
        <ele>343.015</ele>
        <time>2023-01-19T19:58:40Z</time>
      </trkpt>
      <trkpt lat="41.585760" lon="1.585020">
        <ele>343.009</ele>
        <time>2023-01-19T19:59:20Z</time>
      </trkpt>
      <trkpt lat="41.585740" lon="1.583990">
        <ele>341.092</ele>
        <time>2023-01-19T20:00:00Z</time>
      </trkpt>
      <trkpt lat="41.585750" lon="1.583990">
        <ele>341.023</ele>
        <time>2023-01-19T20:00:40Z</time>
      </trkpt>
      <trkpt lat="41.585760" lon="1.576600">
        <ele>334.054</ele>
        <time>2023-01-19T20:01:20Z</time>
      </trkpt>
      <trkpt lat="41.585700" lon="1.576280">
        <ele>334.048</ele>
        <time>2023-01-19T20:02:00Z</time>
      </trkpt>
      <trkpt lat="41.585660" lon="1.576190">
        <ele>334.019</ele>
        <time>2023-01-19T20:02:40Z</time>
      </trkpt>
      <trkpt lat="41.585650" lon="1.576020">
        <ele>334.075</ele>
        <time>2023-01-19T20:03:20Z</time>
      </trkpt>
      <trkpt lat="41.585630" lon="1.575920">
        <ele>334.095</ele>
        <time>2023-01-19T20:04:00Z</time>
      </trkpt>
      <trkpt lat="41.585440" lon="1.575550">
        <ele>334.051</ele>
        <time>2023-01-19T20:04:40Z</time>
      </trkpt>
      <trkpt lat="41.585430" lon="1.575550">
        <ele>334.064</ele>
        <time>2023-01-19T20:05:20Z</time>
      </trkpt>
      <trkpt lat="41.585370" lon="1.575380">
        <ele>332.085</ele>
        <time>2023-01-19T20:06:00Z</time>
      </trkpt>
      <trkpt lat="41.585350" lon="1.575090">
        <ele>329.089</ele>
        <time>2023-01-19T20:06:40Z</time>
      </trkpt>
      <trkpt lat="41.585360" lon="1.575000">
        <ele>329.017</ele>
        <time>2023-01-19T20:07:20Z</time>
      </trkpt>
      <trkpt lat="41.585400" lon="1.574880">
        <ele>327.009</ele>
        <time>2023-01-19T20:08:00Z</time>
      </trkpt>
      <trkpt lat="41.585490" lon="1.574750">
        <ele>325.059</ele>
        <time>2023-01-19T20:08:40Z</time>
      </trkpt>
      <trkpt lat="41.585640" lon="1.574560">
        <ele>323.020</ele>
        <time>2023-01-19T20:09:20Z</time>
      </trkpt>
      <trkpt lat="41.585810" lon="1.574390">
        <ele>322.051</ele>
        <time>2023-01-19T20:10:00Z</time>
      </trkpt>
      <trkpt lat="41.586060" lon="1.574210">
        <ele>322.035</ele>
        <time>2023-01-19T20:10:40Z</time>
      </trkpt>
      <trkpt lat="41.586290" lon="1.574070">
        <ele>323.046</ele>
        <time>2023-01-19T20:11:20Z</time>
      </trkpt>
      <trkpt lat="41.586290" lon="1.574070">
        <ele>323.032</ele>
        <time>2023-01-19T20:12:00Z</time>
      </trkpt>
      <trkpt lat="41.586880" lon="1.573710">
        <ele>329.042</ele>
        <time>2023-01-19T20:12:40Z</time>
      </trkpt>
      <trkpt lat="41.587050" lon="1.573550">
        <ele>331.038</ele>
        <time>2023-01-19T20:13:20Z</time>
      </trkpt>
      <trkpt lat="41.587180" lon="1.573350">
        <ele>334.091</ele>
        <time>2023-01-19T20:14:00Z</time>
      </trkpt>
      <trkpt lat="41.587570" lon="1.571950">
        <ele>339.063</ele>
        <time>2023-01-19T20:14:40Z</time>
      </trkpt>
      <trkpt lat="41.587630" lon="1.571550">
        <ele>339.044</ele>
        <time>2023-01-19T20:15:20Z</time>
      </trkpt>
      <trkpt lat="41.587720" lon="1.571300">
        <ele>339.018</ele>
        <time>2023-01-19T20:16:00Z</time>
      </trkpt>
      <trkpt lat="41.587840" lon="1.571100">
        <ele>339.009</ele>
        <time>2023-01-19T20:16:40Z</time>
      </trkpt>
      <trkpt lat="41.588060" lon="1.570960">
        <ele>340.047</ele>
        <time>2023-01-19T20:17:20Z</time>
      </trkpt>
      <trkpt lat="41.588190" lon="1.570830">
        <ele>342.038</ele>
        <time>2023-01-19T20:18:00Z</time>
      </trkpt>
      <trkpt lat="41.588110" lon="1.570710">
        <ele>343.039</ele>
        <time>2023-01-19T20:18:40Z</time>
      </trkpt>
      <trkpt lat="41.588010" lon="1.570630">
        <ele>344.023</ele>
        <time>2023-01-19T20:19:20Z</time>
      </trkpt>
      <trkpt lat="41.587950" lon="1.570530">
        <ele>345.074</ele>
        <time>2023-01-19T20:20:00Z</time>
      </trkpt>
      <trkpt lat="41.587830" lon="1.570220">
        <ele>348.070</ele>
        <time>2023-01-19T20:20:40Z</time>
      </trkpt>
      <trkpt lat="41.587770" lon="1.569120">
        <ele>348.070</ele>
        <time>2023-01-19T20:21:20Z</time>
      </trkpt>
      <trkpt lat="41.587810" lon="1.568890">
        <ele>352.056</ele>
        <time>2023-01-19T20:22:00Z</time>
      </trkpt>
      <trkpt lat="41.587860" lon="1.568770">
        <ele>354.079</ele>
        <time>2023-01-19T20:22:40Z</time>
      </trkpt>
      <trkpt lat="41.587930" lon="1.568730">
        <ele>355.011</ele>
        <time>2023-01-19T20:23:20Z</time>
      </trkpt>
      <trkpt lat="41.587990" lon="1.568760">
        <ele>357.021</ele>
        <time>2023-01-19T20:24:00Z</time>
      </trkpt>
      <trkpt lat="41.588060" lon="1.568830">
        <ele>358.003</ele>
        <time>2023-01-19T20:24:40Z</time>
      </trkpt>
      <trkpt lat="41.588080" lon="1.568940">
        <ele>360.009</ele>
        <time>2023-01-19T20:25:20Z</time>
      </trkpt>
      <trkpt lat="41.588060" lon="1.569040">
        <ele>362.022</ele>
        <time>2023-01-19T20:26:00Z</time>
      </trkpt>
      <trkpt lat="41.588080" lon="1.569250">
        <ele>365.083</ele>
        <time>2023-01-19T20:26:40Z</time>
      </trkpt>
      <trkpt lat="41.588130" lon="1.569500">
        <ele>366.014</ele>
        <time>2023-01-19T20:27:20Z</time>
      </trkpt>
      <trkpt lat="41.588330" lon="1.570020">
        <ele>365.098</ele>
        <time>2023-01-19T20:28:00Z</time>
      </trkpt>
      <trkpt lat="41.588440" lon="1.570110">
        <ele>365.089</ele>
        <time>2023-01-19T20:28:40Z</time>
      </trkpt>
      <trkpt lat="41.588640" lon="1.570090">
        <ele>365.095</ele>
        <time>2023-01-19T20:29:20Z</time>
      </trkpt>
      <trkpt lat="41.589270" lon="1.569750">
        <ele>375.065</ele>
        <time>2023-01-19T20:30:00Z</time>
      </trkpt>
      <trkpt lat="41.589280" lon="1.569750">
        <ele>376.021</ele>
        <time>2023-01-19T20:30:40Z</time>
      </trkpt>
      <trkpt lat="41.590180" lon="1.569320">
        <ele>388.044</ele>
        <time>2023-01-19T20:31:20Z</time>
      </trkpt>
      <trkpt lat="41.590910" lon="1.568920">
        <ele>397.085</ele>
        <time>2023-01-19T20:32:00Z</time>
      </trkpt>
      <trkpt lat="41.591450" lon="1.568600">
        <ele>403.089</ele>
        <time>2023-01-19T20:32:40Z</time>
      </trkpt>
      <trkpt lat="41.591580" lon="1.568460">
        <ele>404.017</ele>
        <time>2023-01-19T20:33:20Z</time>
      </trkpt>
      <trkpt lat="41.591690" lon="1.568220">
        <ele>406.009</ele>
        <time>2023-01-19T20:34:00Z</time>
      </trkpt>
      <trkpt lat="41.591730" lon="1.567830">
        <ele>409.089</ele>
        <time>2023-01-19T20:34:40Z</time>
      </trkpt>
      <trkpt lat="41.591770" lon="1.566700">
        <ele>421.050</ele>
        <time>2023-01-19T20:35:20Z</time>
      </trkpt>
      <trkpt lat="41.591820" lon="1.566100">
        <ele>423.061</ele>
        <time>2023-01-19T20:36:00Z</time>
      </trkpt>
      <trkpt lat="41.591890" lon="1.565700">
        <ele>424.055</ele>
        <time>2023-01-19T20:36:40Z</time>
      </trkpt>
      <trkpt lat="41.592060" lon="1.565060">
        <ele>424.056</ele>
        <time>2023-01-19T20:37:20Z</time>
      </trkpt>
      <trkpt lat="41.592380" lon="1.563950">
        <ele>424.022</ele>
        <time>2023-01-19T20:38:00Z</time>
      </trkpt>
      <trkpt lat="41.592380" lon="1.563950">
        <ele>424.062</ele>
        <time>2023-01-19T20:38:40Z</time>
      </trkpt>
      <trkpt lat="41.592580" lon="1.563250">
        <ele>424.078</ele>
        <time>2023-01-19T20:39:20Z</time>
      </trkpt>
      <trkpt lat="41.592830" lon="1.562700">
        <ele>424.041</ele>
        <time>2023-01-19T20:40:00Z</time>
      </trkpt>
      <trkpt lat="41.592970" lon="1.562470">
        <ele>424.056</ele>
        <time>2023-01-19T20:40:40Z</time>
      </trkpt>
      <trkpt lat="41.593220" lon="1.562120">
        <ele>422.059</ele>
        <time>2023-01-19T20:41:20Z</time>
      </trkpt>
      <trkpt lat="41.594190" lon="1.561320">
        <ele>416.014</ele>
        <time>2023-01-19T20:42:00Z</time>
      </trkpt>
      <trkpt lat="41.594450" lon="1.561170">
        <ele>416.009</ele>
        <time>2023-01-19T20:42:40Z</time>
      </trkpt>
      <trkpt lat="41.594640" lon="1.561080">
        <ele>415.076</ele>
        <time>2023-01-19T20:43:20Z</time>
      </trkpt>
      <trkpt lat="41.595550" lon="1.561210">
        <ele>411.017</ele>
        <time>2023-01-19T20:44:00Z</time>
      </trkpt>
      <trkpt lat="41.595850" lon="1.561290">
        <ele>408.088</ele>
        <time>2023-01-19T20:44:40Z</time>
      </trkpt>
      <trkpt lat="41.596060" lon="1.561440">
        <ele>406.052</ele>
        <time>2023-01-19T20:45:20Z</time>
      </trkpt>
      <trkpt lat="41.596180" lon="1.561640">
        <ele>404.073</ele>
        <time>2023-01-19T20:46:00Z</time>
      </trkpt>
      <trkpt lat="41.596320" lon="1.562120">
        <ele>402.039</ele>
        <time>2023-01-19T20:46:40Z</time>
      </trkpt>
      <trkpt lat="41.596455" lon="1.562683">
        <ele>400.059</ele>
        <time>2023-01-19T20:47:20Z</time>
      </trkpt>
      <trkpt lat="41.596457" lon="1.563116">
        <ele>401.095</ele>
        <time>2023-01-19T20:48:00Z</time>
      </trkpt>
      <trkpt lat="41.596439" lon="1.563340">
        <ele>403.048</ele>
        <time>2023-01-19T20:48:40Z</time>
      </trkpt>
      <trkpt lat="41.596477" lon="1.563450">
        <ele>404.013</ele>
        <time>2023-01-19T20:49:20Z</time>
      </trkpt>
      <trkpt lat="41.596711" lon="1.563515">
        <ele>406.043</ele>
        <time>2023-01-19T20:50:00Z</time>
      </trkpt>
      <trkpt lat="41.596776" lon="1.563509">
        <ele>407.007</ele>
        <time>2023-01-19T20:50:40Z</time>
      </trkpt>
      <trkpt lat="41.596896" lon="1.563313">
        <ele>408.009</ele>
        <time>2023-01-19T20:51:20Z</time>
      </trkpt>
      <trkpt lat="41.596896" lon="1.563313">
        <ele>408.092</ele>
        <time>2023-01-19T20:52:00Z</time>
      </trkpt>
      <trkpt lat="41.596910" lon="1.563200">
        <ele>408.063</ele>
        <time>2023-01-19T20:52:40Z</time>
      </trkpt>
      <trkpt lat="41.596930" lon="1.563140">
        <ele>408.034</ele>
        <time>2023-01-19T20:53:20Z</time>
      </trkpt>
      <trkpt lat="41.597130" lon="1.562830">
        <ele>407.068</ele>
        <time>2023-01-19T20:54:00Z</time>
      </trkpt>
      <trkpt lat="41.597270" lon="1.562570">
        <ele>407.059</ele>
        <time>2023-01-19T20:54:40Z</time>
      </trkpt>
      <trkpt lat="41.597450" lon="1.562130">
        <ele>406.075</ele>
        <time>2023-01-19T20:55:20Z</time>
      </trkpt>
      <trkpt lat="41.598010" lon="1.561190">
        <ele>406.075</ele>
        <time>2023-01-19T20:56:00Z</time>
      </trkpt>
      <trkpt lat="41.598070" lon="1.560990">
        <ele>407.051</ele>
        <time>2023-01-19T20:56:40Z</time>
      </trkpt>
      <trkpt lat="41.598100" lon="1.560720">
        <ele>407.034</ele>
        <time>2023-01-19T20:57:20Z</time>
      </trkpt>
      <trkpt lat="41.598100" lon="1.560450">
        <ele>408.065</ele>
        <time>2023-01-19T20:58:00Z</time>
      </trkpt>
      <trkpt lat="41.597990" lon="1.559990">
        <ele>409.068</ele>
        <time>2023-01-19T20:58:40Z</time>
      </trkpt>
      <trkpt lat="41.597900" lon="1.559250">
        <ele>410.014</ele>
        <time>2023-01-19T20:59:20Z</time>
      </trkpt>
      <trkpt lat="41.597860" lon="1.557780">
        <ele>409.009</ele>
        <time>2023-01-19T21:00:00Z</time>
      </trkpt>
      <trkpt lat="41.597870" lon="1.557560">
        <ele>409.017</ele>
        <time>2023-01-19T21:00:40Z</time>
      </trkpt>
      <trkpt lat="41.597870" lon="1.557560">
        <ele>409.098</ele>
        <time>2023-01-19T21:01:20Z</time>
      </trkpt>
      <trkpt lat="41.597900" lon="1.557240">
        <ele>410.069</ele>
        <time>2023-01-19T21:02:00Z</time>
      </trkpt>
      <trkpt lat="41.597950" lon="1.557100">
        <ele>411.043</ele>
        <time>2023-01-19T21:02:40Z</time>
      </trkpt>
      <trkpt lat="41.598070" lon="1.556940">
        <ele>411.014</ele>
        <time>2023-01-19T21:03:20Z</time>
      </trkpt>
      <trkpt lat="41.598340" lon="1.556740">
        <ele>411.080</ele>
        <time>2023-01-19T21:04:00Z</time>
      </trkpt>
      <trkpt lat="41.598840" lon="1.556460">
        <ele>409.030</ele>
        <time>2023-01-19T21:04:40Z</time>
      </trkpt>
      <trkpt lat="41.599420" lon="1.555900">
        <ele>407.096</ele>
        <time>2023-01-19T21:05:20Z</time>
      </trkpt>
      <trkpt lat="41.599660" lon="1.555570">
        <ele>407.029</ele>
        <time>2023-01-19T21:06:00Z</time>
      </trkpt>
      <trkpt lat="41.600380" lon="1.554390">
        <ele>405.094</ele>
        <time>2023-01-19T21:06:40Z</time>
      </trkpt>
      <trkpt lat="41.600450" lon="1.554120">
        <ele>404.057</ele>
        <time>2023-01-19T21:07:20Z</time>
      </trkpt>
      <trkpt lat="41.600470" lon="1.553890">
        <ele>403.022</ele>
        <time>2023-01-19T21:08:00Z</time>
      </trkpt>
      <trkpt lat="41.600470" lon="1.553450">
        <ele>401.009</ele>
        <time>2023-01-19T21:08:40Z</time>
      </trkpt>
      <trkpt lat="41.600280" lon="1.552400">
        <ele>401.020</ele>
        <time>2023-01-19T21:09:20Z</time>
      </trkpt>
      <trkpt lat="41.600230" lon="1.552140">
        <ele>401.051</ele>
        <time>2023-01-19T21:10:00Z</time>
      </trkpt>
      <trkpt lat="41.600250" lon="1.551770">
        <ele>401.032</ele>
        <time>2023-01-19T21:10:40Z</time>
      </trkpt>
      <trkpt lat="41.600320" lon="1.551540">
        <ele>401.016</ele>
        <time>2023-01-19T21:11:20Z</time>
      </trkpt>
      <trkpt lat="41.600470" lon="1.551340">
        <ele>401.057</ele>
        <time>2023-01-19T21:12:00Z</time>
      </trkpt>
      <trkpt lat="41.600520" lon="1.551310">
        <ele>401.063</ele>
        <time>2023-01-19T21:12:40Z</time>
      </trkpt>
      <trkpt lat="41.600520" lon="1.551310">
        <ele>401.023</ele>
        <time>2023-01-19T21:13:20Z</time>
      </trkpt>
      <trkpt lat="41.600760" lon="1.551200">
        <ele>400.059</ele>
        <time>2023-01-19T21:14:00Z</time>
      </trkpt>
      <trkpt lat="41.600890" lon="1.551180">
        <ele>400.082</ele>
        <time>2023-01-19T21:14:40Z</time>
      </trkpt>
      <trkpt lat="41.600950" lon="1.551100">
        <ele>400.014</ele>
        <time>2023-01-19T21:15:20Z</time>
      </trkpt>
      <trkpt lat="41.601020" lon="1.550740">
        <ele>400.054</ele>
        <time>2023-01-19T21:16:00Z</time>
      </trkpt>
      <trkpt lat="41.601030" lon="1.550570">
        <ele>400.009</ele>
        <time>2023-01-19T21:16:40Z</time>
      </trkpt>
      <trkpt lat="41.601030" lon="1.550570">
        <ele>400.009</ele>
        <time>2023-01-19T21:17:20Z</time>
      </trkpt>
      <trkpt lat="41.601070" lon="1.548020">
        <ele>395.012</ele>
        <time>2023-01-19T21:18:00Z</time>
      </trkpt>
      <trkpt lat="41.601040" lon="1.547550">
        <ele>395.093</ele>
        <time>2023-01-19T21:18:40Z</time>
      </trkpt>
      <trkpt lat="41.601040" lon="1.547550">
        <ele>395.054</ele>
        <time>2023-01-19T21:19:20Z</time>
      </trkpt>
      <trkpt lat="41.600990" lon="1.547080">
        <ele>394.038</ele>
        <time>2023-01-19T21:20:00Z</time>
      </trkpt>
      <trkpt lat="41.600950" lon="1.546770">
        <ele>394.069</ele>
        <time>2023-01-19T21:20:40Z</time>
      </trkpt>
      <trkpt lat="41.600800" lon="1.546070">
        <ele>394.015</ele>
        <time>2023-01-19T21:21:20Z</time>
      </trkpt>
      <trkpt lat="41.600700" lon="1.545470">
        <ele>391.045</ele>
        <time>2023-01-19T21:22:00Z</time>
      </trkpt>
      <trkpt lat="41.600700" lon="1.545450">
        <ele>391.081</ele>
        <time>2023-01-19T21:22:40Z</time>
      </trkpt>
      <trkpt lat="41.600680" lon="1.545040">
        <ele>388.024</ele>
        <time>2023-01-19T21:23:20Z</time>
      </trkpt>
      <trkpt lat="41.600750" lon="1.544570">
        <ele>385.035</ele>
        <time>2023-01-19T21:24:00Z</time>
      </trkpt>
      <trkpt lat="41.601150" lon="1.541850">
        <ele>370.086</ele>
        <time>2023-01-19T21:24:40Z</time>
      </trkpt>
      <trkpt lat="41.601260" lon="1.541380">
        <ele>370.014</ele>
        <time>2023-01-19T21:25:20Z</time>
      </trkpt>
      <trkpt lat="41.601180" lon="1.541340">
        <ele>370.009</ele>
        <time>2023-01-19T21:26:00Z</time>
      </trkpt>
      <trkpt lat="41.601080" lon="1.541350">
        <ele>370.014</ele>
        <time>2023-01-19T21:26:40Z</time>
      </trkpt>
      <trkpt lat="41.601080" lon="1.541350">
        <ele>370.015</ele>
        <time>2023-01-19T21:27:20Z</time>
      </trkpt>
      <trkpt lat="41.600860" lon="1.541350">
        <ele>370.016</ele>
        <time>2023-01-19T21:28:00Z</time>
      </trkpt>
      <trkpt lat="41.600610" lon="1.541250">
        <ele>370.080</ele>
        <time>2023-01-19T21:28:40Z</time>
      </trkpt>
      <trkpt lat="41.600400" lon="1.541280">
        <ele>369.021</ele>
        <time>2023-01-19T21:29:20Z</time>
      </trkpt>
      <trkpt lat="41.600280" lon="1.541320">
        <ele>369.077</ele>
        <time>2023-01-19T21:30:00Z</time>
      </trkpt>
      <trkpt lat="41.600040" lon="1.541460">
        <ele>367.097</ele>
        <time>2023-01-19T21:30:40Z</time>
      </trkpt>
      <trkpt lat="41.599890" lon="1.541490">
        <ele>365.013</ele>
        <time>2023-01-19T21:31:20Z</time>
      </trkpt>
      <trkpt lat="41.599690" lon="1.541420">
        <ele>362.086</ele>
        <time>2023-01-19T21:32:00Z</time>
      </trkpt>
      <trkpt lat="41.599510" lon="1.541320">
        <ele>359.054</ele>
        <time>2023-01-19T21:32:40Z</time>
      </trkpt>
      <trkpt lat="41.599450" lon="1.541220">
        <ele>358.056</ele>
        <time>2023-01-19T21:33:20Z</time>
      </trkpt>
      <trkpt lat="41.599220" lon="1.540710">
        <ele>357.011</ele>
        <time>2023-01-19T21:34:00Z</time>
      </trkpt>
      <trkpt lat="41.599220" lon="1.540620">
        <ele>357.009</ele>
        <time>2023-01-19T21:34:40Z</time>
      </trkpt>
      <trkpt lat="41.599500" lon="1.540270">
        <ele>358.046</ele>
        <time>2023-01-19T21:35:20Z</time>
      </trkpt>
      <trkpt lat="41.600070" lon="1.539680">
        <ele>361.027</ele>
        <time>2023-01-19T21:36:00Z</time>
      </trkpt>
      <trkpt lat="41.600070" lon="1.539680">
        <ele>361.048</ele>
        <time>2023-01-19T21:36:40Z</time>
      </trkpt>
      <trkpt lat="41.600470" lon="1.539310">
        <ele>361.052</ele>
        <time>2023-01-19T21:37:20Z</time>
      </trkpt>
      <trkpt lat="41.600950" lon="1.538900">
        <ele>361.073</ele>
        <time>2023-01-19T21:38:00Z</time>
      </trkpt>
      <trkpt lat="41.601510" lon="1.538470">
        <ele>361.049</ele>
        <time>2023-01-19T21:38:40Z</time>
      </trkpt>
      <trkpt lat="41.601680" lon="1.538290">
        <ele>361.089</ele>
        <time>2023-01-19T21:39:20Z</time>
      </trkpt>
      <trkpt lat="41.601820" lon="1.538090">
        <ele>361.025</ele>
        <time>2023-01-19T21:40:00Z</time>
      </trkpt>
      <trkpt lat="41.602040" lon="1.537640">
        <ele>364.038</ele>
        <time>2023-01-19T21:40:40Z</time>
      </trkpt>
      <trkpt lat="41.602210" lon="1.537230">
        <ele>366.076</ele>
        <time>2023-01-19T21:41:20Z</time>
      </trkpt>
      <trkpt lat="41.602280" lon="1.536780">
        <ele>368.090</ele>
        <time>2023-01-19T21:42:00Z</time>
      </trkpt>
      <trkpt lat="41.602290" lon="1.536520">
        <ele>369.019</ele>
        <time>2023-01-19T21:42:40Z</time>
      </trkpt>
      <trkpt lat="41.602340" lon="1.536430">
        <ele>370.009</ele>
        <time>2023-01-19T21:43:20Z</time>
      </trkpt>
      <trkpt lat="41.602450" lon="1.536390">
        <ele>371.018</ele>
        <time>2023-01-19T21:44:00Z</time>
      </trkpt>
      <trkpt lat="41.602650" lon="1.536390">
        <ele>372.099</ele>
        <time>2023-01-19T21:44:40Z</time>
      </trkpt>
      <trkpt lat="41.602740" lon="1.536360">
        <ele>372.080</ele>
        <time>2023-01-19T21:45:20Z</time>
      </trkpt>
      <trkpt lat="41.602760" lon="1.536290">
        <ele>372.064</ele>
        <time>2023-01-19T21:46:00Z</time>
      </trkpt>
      <trkpt lat="41.602790" lon="1.536190">
        <ele>372.055</ele>
        <time>2023-01-19T21:46:40Z</time>
      </trkpt>
      <trkpt lat="41.602830" lon="1.535810">
        <ele>370.041</ele>
        <time>2023-01-19T21:47:20Z</time>
      </trkpt>
      <trkpt lat="41.602940" lon="1.535540">
        <ele>369.081</ele>
        <time>2023-01-19T21:48:00Z</time>
      </trkpt>
      <trkpt lat="41.603120" lon="1.535280">
        <ele>368.037</ele>
        <time>2023-01-19T21:48:40Z</time>
      </trkpt>
      <trkpt lat="41.603280" lon="1.535280">
        <ele>368.010</ele>
        <time>2023-01-19T21:49:20Z</time>
      </trkpt>
      <trkpt lat="41.603450" lon="1.535360">
        <ele>368.061</ele>
        <time>2023-01-19T21:50:00Z</time>
      </trkpt>
      <trkpt lat="41.603570" lon="1.535510">
        <ele>368.021</ele>
        <time>2023-01-19T21:50:40Z</time>
      </trkpt>
      <trkpt lat="41.603860" lon="1.536260">
        <ele>369.013</ele>
        <time>2023-01-19T21:51:20Z</time>
      </trkpt>
      <trkpt lat="41.603880" lon="1.536330">
        <ele>369.009</ele>
        <time>2023-01-19T21:52:00Z</time>
      </trkpt>
      <trkpt lat="41.603830" lon="1.536450">
        <ele>370.027</ele>
        <time>2023-01-19T21:52:40Z</time>
      </trkpt>
      <trkpt lat="41.603590" lon="1.536630">
        <ele>372.048</ele>
        <time>2023-01-19T21:53:20Z</time>
      </trkpt>
      <trkpt lat="41.603120" lon="1.537220">
        <ele>375.089</ele>
        <time>2023-01-19T21:54:00Z</time>
      </trkpt>
      <trkpt lat="41.602870" lon="1.537400">
        <ele>376.023</ele>
        <time>2023-01-19T21:54:40Z</time>
      </trkpt>
      <trkpt lat="41.602830" lon="1.537520">
        <ele>376.074</ele>
        <time>2023-01-19T21:55:20Z</time>
      </trkpt>
      <trkpt lat="41.602830" lon="1.537600">
        <ele>377.020</ele>
        <time>2023-01-19T21:56:00Z</time>
      </trkpt>
      <trkpt lat="41.602840" lon="1.537790">
        <ele>378.040</ele>
        <time>2023-01-19T21:56:40Z</time>
      </trkpt>
      <trkpt lat="41.602970" lon="1.537920">
        <ele>379.036</ele>
        <time>2023-01-19T21:57:20Z</time>
      </trkpt>
      <trkpt lat="41.602970" lon="1.537920">
        <ele>379.089</ele>
        <time>2023-01-19T21:58:00Z</time>
      </trkpt>
      <trkpt lat="41.603100" lon="1.537990">
        <ele>380.082</ele>
        <time>2023-01-19T21:58:40Z</time>
      </trkpt>
      <trkpt lat="41.603320" lon="1.538070">
        <ele>382.043</ele>
        <time>2023-01-19T21:59:20Z</time>
      </trkpt>
      <trkpt lat="41.603410" lon="1.537900">
        <ele>383.017</ele>
        <time>2023-01-19T22:00:00Z</time>
      </trkpt>
      <trkpt lat="41.603440" lon="1.537660">
        <ele>384.009</ele>
        <time>2023-01-19T22:00:40Z</time>
      </trkpt>
      <trkpt lat="41.603480" lon="1.537560">
        <ele>384.059</ele>
        <time>2023-01-19T22:01:20Z</time>
      </trkpt>
      <trkpt lat="41.603570" lon="1.537400">
        <ele>384.020</ele>
        <time>2023-01-19T22:02:00Z</time>
      </trkpt>
      <trkpt lat="41.603660" lon="1.537330">
        <ele>384.051</ele>
        <time>2023-01-19T22:02:40Z</time>
      </trkpt>
      <trkpt lat="41.603750" lon="1.537290">
        <ele>384.085</ele>
        <time>2023-01-19T22:03:20Z</time>
      </trkpt>
      <trkpt lat="41.604420" lon="1.537260">
        <ele>380.046</ele>
        <time>2023-01-19T22:04:00Z</time>
      </trkpt>
      <trkpt lat="41.604600" lon="1.537250">
        <ele>378.022</ele>
        <time>2023-01-19T22:04:40Z</time>
      </trkpt>
      <trkpt lat="41.604760" lon="1.537190">
        <ele>377.052</ele>
        <time>2023-01-19T22:05:20Z</time>
      </trkpt>
      <trkpt lat="41.605020" lon="1.537050">
        <ele>374.038</ele>
        <time>2023-01-19T22:06:00Z</time>
      </trkpt>
      <trkpt lat="41.605320" lon="1.536800">
        <ele>374.011</ele>
        <time>2023-01-19T22:06:40Z</time>
      </trkpt>
      <trkpt lat="41.605600" lon="1.536560">
        <ele>373.073</ele>
        <time>2023-01-19T22:07:20Z</time>
      </trkpt>
      <trkpt lat="41.605610" lon="1.536560">
        <ele>373.085</ele>
        <time>2023-01-19T22:08:00Z</time>
      </trkpt>
      <trkpt lat="41.605830" lon="1.536360">
        <ele>373.013</ele>
        <time>2023-01-19T22:08:40Z</time>
      </trkpt>
      <trkpt lat="41.606840" lon="1.535150">
        <ele>373.009</ele>
        <time>2023-01-19T22:09:20Z</time>
      </trkpt>
      <trkpt lat="41.607130" lon="1.534710">
        <ele>373.018</ele>
        <time>2023-01-19T22:10:00Z</time>
      </trkpt>
      <trkpt lat="41.608230" lon="1.532770">
        <ele>384.069</ele>
        <time>2023-01-19T22:10:40Z</time>
      </trkpt>
      <trkpt lat="41.608320" lon="1.532500">
        <ele>385.040</ele>
        <time>2023-01-19T22:11:20Z</time>
      </trkpt>
      <trkpt lat="41.608360" lon="1.532200">
        <ele>386.044</ele>
        <time>2023-01-19T22:12:00Z</time>
      </trkpt>
      <trkpt lat="41.608360" lon="1.531830">
        <ele>386.025</ele>
        <time>2023-01-19T22:12:40Z</time>
      </trkpt>
      <trkpt lat="41.608390" lon="1.531860">
        <ele>386.021</ele>
        <time>2023-01-19T22:13:20Z</time>
      </trkpt>
      <trkpt lat="41.608390" lon="1.531730">
        <ele>386.041</ele>
        <time>2023-01-19T22:14:00Z</time>
      </trkpt>
      <trkpt lat="41.608550" lon="1.530560">
        <ele>383.097</ele>
        <time>2023-01-19T22:14:40Z</time>
      </trkpt>
      <trkpt lat="41.608610" lon="1.530420">
        <ele>385.060</ele>
        <time>2023-01-19T22:15:20Z</time>
      </trkpt>
      <trkpt lat="41.608680" lon="1.530320">
        <ele>386.071</ele>
        <time>2023-01-19T22:16:00Z</time>
      </trkpt>
      <trkpt lat="41.608880" lon="1.530260">
        <ele>389.041</ele>
        <time>2023-01-19T22:16:40Z</time>
      </trkpt>
      <trkpt lat="41.609420" lon="1.530120">
        <ele>393.015</ele>
        <time>2023-01-19T22:17:20Z</time>
      </trkpt>
      <trkpt lat="41.609420" lon="1.530120">
        <ele>393.009</ele>
        <time>2023-01-19T22:18:00Z</time>
      </trkpt>
      <trkpt lat="41.610150" lon="1.529850">
        <ele>390.078</ele>
        <time>2023-01-19T22:18:40Z</time>
      </trkpt>
      <trkpt lat="41.610500" lon="1.529680">
        <ele>393.079</ele>
        <time>2023-01-19T22:19:20Z</time>
      </trkpt>
      <trkpt lat="41.610810" lon="1.529490">
        <ele>396.050</ele>
        <time>2023-01-19T22:20:00Z</time>
      </trkpt>
      <trkpt lat="41.611460" lon="1.528880">
        <ele>400.024</ele>
        <time>2023-01-19T22:20:40Z</time>
      </trkpt>
      <trkpt lat="41.612450" lon="1.527850">
        <ele>409.035</ele>
        <time>2023-01-19T22:21:20Z</time>
      </trkpt>
      <trkpt lat="41.612880" lon="1.527210">
        <ele>407.061</ele>
        <time>2023-01-19T22:22:00Z</time>
      </trkpt>
      <trkpt lat="41.613160" lon="1.526400">
        <ele>407.021</ele>
        <time>2023-01-19T22:22:40Z</time>
      </trkpt>
      <trkpt lat="41.613280" lon="1.525360">
        <ele>409.037</ele>
        <time>2023-01-19T22:23:20Z</time>
      </trkpt>
      <trkpt lat="41.613280" lon="1.524690">
        <ele>413.070</ele>
        <time>2023-01-19T22:24:00Z</time>
      </trkpt>
      <trkpt lat="41.613270" lon="1.524690">
        <ele>413.014</ele>
        <time>2023-01-19T22:24:40Z</time>
      </trkpt>
      <trkpt lat="41.613270" lon="1.523720">
        <ele>413.054</ele>
        <time>2023-01-19T22:25:20Z</time>
      </trkpt>
      <trkpt lat="41.613270" lon="1.523730">
        <ele>413.009</ele>
        <time>2023-01-19T22:26:00Z</time>
      </trkpt>
      <trkpt lat="41.613220" lon="1.523770">
        <ele>413.009</ele>
        <time>2023-01-19T22:26:40Z</time>
      </trkpt>
      <trkpt lat="41.613240" lon="1.523290">
        <ele>412.062</ele>
        <time>2023-01-19T22:27:20Z</time>
      </trkpt>
      <trkpt lat="41.613370" lon="1.522280">
        <ele>411.023</ele>
        <time>2023-01-19T22:28:00Z</time>
      </trkpt>
      <trkpt lat="41.613450" lon="1.521980">
        <ele>410.064</ele>
        <time>2023-01-19T22:28:40Z</time>
      </trkpt>
      <trkpt lat="41.613620" lon="1.521550">
        <ele>408.078</ele>
        <time>2023-01-19T22:29:20Z</time>
      </trkpt>
      <trkpt lat="41.615360" lon="1.518360">
        <ele>402.029</ele>
        <time>2023-01-19T22:30:00Z</time>
      </trkpt>
      <trkpt lat="41.615750" lon="1.517680">
        <ele>401.045</ele>
        <time>2023-01-19T22:30:40Z</time>
      </trkpt>
      <trkpt lat="41.615810" lon="1.517520">
        <ele>401.045</ele>
        <time>2023-01-19T22:31:20Z</time>
      </trkpt>
      <trkpt lat="41.615790" lon="1.517240">
        <ele>401.061</ele>
        <time>2023-01-19T22:32:00Z</time>
      </trkpt>
      <trkpt lat="41.615810" lon="1.517160">
        <ele>401.084</ele>
        <time>2023-01-19T22:32:40Z</time>
      </trkpt>
      <trkpt lat="41.615950" lon="1.517110">
        <ele>402.092</ele>
        <time>2023-01-19T22:33:20Z</time>
      </trkpt>
      <trkpt lat="41.615970" lon="1.517050">
        <ele>402.073</ele>
        <time>2023-01-19T22:34:00Z</time>
      </trkpt>
      <trkpt lat="41.616130" lon="1.515980">
        <ele>404.020</ele>
        <time>2023-01-19T22:34:40Z</time>
      </trkpt>
      <trkpt lat="41.616140" lon="1.515980">
        <ele>404.009</ele>
        <time>2023-01-19T22:35:20Z</time>
      </trkpt>
      <trkpt lat="41.616230" lon="1.515440">
        <ele>404.020</ele>
        <time>2023-01-19T22:36:00Z</time>
      </trkpt>
      <trkpt lat="41.616360" lon="1.514840">
        <ele>404.021</ele>
        <time>2023-01-19T22:36:40Z</time>
      </trkpt>
      <trkpt lat="41.616610" lon="1.514030">
        <ele>406.052</ele>
        <time>2023-01-19T22:37:20Z</time>
      </trkpt>
      <trkpt lat="41.616750" lon="1.513660">
        <ele>407.096</ele>
        <time>2023-01-19T22:38:00Z</time>
      </trkpt>
      <trkpt lat="41.617180" lon="1.512730">
        <ele>407.037</ele>
        <time>2023-01-19T22:38:40Z</time>
      </trkpt>
      <trkpt lat="41.617200" lon="1.512400">
        <ele>406.083</ele>
        <time>2023-01-19T22:39:20Z</time>
      </trkpt>
      <trkpt lat="41.617380" lon="1.512120">
        <ele>406.083</ele>
        <time>2023-01-19T22:40:00Z</time>
      </trkpt>
      <trkpt lat="41.617400" lon="1.512120">
        <ele>406.099</ele>
        <time>2023-01-19T22:40:40Z</time>
      </trkpt>
      <trkpt lat="41.617820" lon="1.511420">
        <ele>409.092</ele>
        <time>2023-01-19T22:41:20Z</time>
      </trkpt>
      <trkpt lat="41.617940" lon="1.511310">
        <ele>409.058</ele>
        <time>2023-01-19T22:42:00Z</time>
      </trkpt>
      <trkpt lat="41.618080" lon="1.511110">
        <ele>410.052</ele>
        <time>2023-01-19T22:42:40Z</time>
      </trkpt>
      <trkpt lat="41.618230" lon="1.510810">
        <ele>411.017</ele>
        <time>2023-01-19T22:43:20Z</time>
      </trkpt>
      <trkpt lat="41.618250" lon="1.510680">
        <ele>412.009</ele>
        <time>2023-01-19T22:44:00Z</time>
      </trkpt>
      <trkpt lat="41.618230" lon="1.510240">
        <ele>413.056</ele>
        <time>2023-01-19T22:44:40Z</time>
      </trkpt>
      <trkpt lat="41.618190" lon="1.509910">
        <ele>415.087</ele>
        <time>2023-01-19T22:45:20Z</time>
      </trkpt>
      <trkpt lat="41.618170" lon="1.509820">
        <ele>415.028</ele>
        <time>2023-01-19T22:46:00Z</time>
      </trkpt>
      <trkpt lat="41.618160" lon="1.509820">
        <ele>415.042</ele>
        <time>2023-01-19T22:46:40Z</time>
      </trkpt>
      <trkpt lat="41.618120" lon="1.509620">
        <ele>416.063</ele>
        <time>2023-01-19T22:47:20Z</time>
      </trkpt>
      <trkpt lat="41.618170" lon="1.509440">
        <ele>417.069</ele>
        <time>2023-01-19T22:48:00Z</time>
      </trkpt>
      <trkpt lat="41.618290" lon="1.509310">
        <ele>418.039</ele>
        <time>2023-01-19T22:48:40Z</time>
      </trkpt>
      <trkpt lat="41.618840" lon="1.509240">
        <ele>418.015</ele>
        <time>2023-01-19T22:49:20Z</time>
      </trkpt>
      <trkpt lat="41.619150" lon="1.509070">
        <ele>418.028</ele>
        <time>2023-01-19T22:50:00Z</time>
      </trkpt>
      <trkpt lat="41.619150" lon="1.509080">
        <ele>418.085</ele>
        <time>2023-01-19T22:50:40Z</time>
      </trkpt>
      <trkpt lat="41.619240" lon="1.509040">
        <ele>418.089</ele>
        <time>2023-01-19T22:51:20Z</time>
      </trkpt>
      <trkpt lat="41.619650" lon="1.508470">
        <ele>417.017</ele>
        <time>2023-01-19T22:52:00Z</time>
      </trkpt>
      <trkpt lat="41.620100" lon="1.507630">
        <ele>418.009</ele>
        <time>2023-01-19T22:52:40Z</time>
      </trkpt>
      <trkpt lat="41.620410" lon="1.507200">
        <ele>419.019</ele>
        <time>2023-01-19T22:53:20Z</time>
      </trkpt>
      <trkpt lat="41.620560" lon="1.506900">
        <ele>420.010</ele>
        <time>2023-01-19T22:54:00Z</time>
      </trkpt>
      <trkpt lat="41.620680" lon="1.506620">
        <ele>421.011</ele>
        <time>2023-01-19T22:54:40Z</time>
      </trkpt>
      <trkpt lat="41.620690" lon="1.506620">
        <ele>421.065</ele>
        <time>2023-01-19T22:55:20Z</time>
      </trkpt>
      <trkpt lat="41.620800" lon="1.506260">
        <ele>421.026</ele>
        <time>2023-01-19T22:56:00Z</time>
      </trkpt>
      <trkpt lat="41.620850" lon="1.506190">
        <ele>421.012</ele>
        <time>2023-01-19T22:56:40Z</time>
      </trkpt>
      <trkpt lat="41.620900" lon="1.506020">
        <ele>421.072</ele>
        <time>2023-01-19T22:57:20Z</time>
      </trkpt>
      <trkpt lat="41.621080" lon="1.505320">
        <ele>419.078</ele>
        <time>2023-01-19T22:58:00Z</time>
      </trkpt>
      <trkpt lat="41.621080" lon="1.505320">
        <ele>419.041</ele>
        <time>2023-01-19T22:58:40Z</time>
      </trkpt>
      <trkpt lat="41.621210" lon="1.505020">
        <ele>418.023</ele>
        <time>2023-01-19T22:59:20Z</time>
      </trkpt>
      <trkpt lat="41.621440" lon="1.504650">
        <ele>419.083</ele>
        <time>2023-01-19T23:00:00Z</time>
      </trkpt>
      <trkpt lat="41.621580" lon="1.504450">
        <ele>419.011</ele>
        <time>2023-01-19T23:00:40Z</time>
      </trkpt>
      <trkpt lat="41.621930" lon="1.504150">
        <ele>421.009</ele>
        <time>2023-01-19T23:01:20Z</time>
      </trkpt>
      <trkpt lat="41.622640" lon="1.503710">
        <ele>423.063</ele>
        <time>2023-01-19T23:02:00Z</time>
      </trkpt>
      <trkpt lat="41.622920" lon="1.503470">
        <ele>425.034</ele>
        <time>2023-01-19T23:02:40Z</time>
      </trkpt>
      <trkpt lat="41.623090" lon="1.503300">
        <ele>426.085</ele>
        <time>2023-01-19T23:03:20Z</time>
      </trkpt>
      <trkpt lat="41.623090" lon="1.503300">
        <ele>426.029</ele>
        <time>2023-01-19T23:04:00Z</time>
      </trkpt>
      <trkpt lat="41.623460" lon="1.502830">
        <ele>428.020</ele>
        <time>2023-01-19T23:04:40Z</time>
      </trkpt>
      <trkpt lat="41.623860" lon="1.502240">
        <ele>428.056</ele>
        <time>2023-01-19T23:05:20Z</time>
      </trkpt>
      <trkpt lat="41.624210" lon="1.501700">
        <ele>432.036</ele>
        <time>2023-01-19T23:06:00Z</time>
      </trkpt>
      <trkpt lat="41.624420" lon="1.501320">
        <ele>435.012</ele>
        <time>2023-01-19T23:06:40Z</time>
      </trkpt>
      <trkpt lat="41.624580" lon="1.500930">
        <ele>437.025</ele>
        <time>2023-01-19T23:07:20Z</time>
      </trkpt>
      <trkpt lat="41.624640" lon="1.500690">
        <ele>438.034</ele>
        <time>2023-01-19T23:08:00Z</time>
      </trkpt>
      <trkpt lat="41.624640" lon="1.500690">
        <ele>438.055</ele>
        <time>2023-01-19T23:08:40Z</time>
      </trkpt>
      <trkpt lat="41.624710" lon="1.500460">
        <ele>438.010</ele>
        <time>2023-01-19T23:09:20Z</time>
      </trkpt>
      <trkpt lat="41.624760" lon="1.500060">
        <ele>439.009</ele>
        <time>2023-01-19T23:10:00Z</time>
      </trkpt>
      <trkpt lat="41.624740" lon="1.499660">
        <ele>440.064</ele>
        <time>2023-01-19T23:10:40Z</time>
      </trkpt>
      <trkpt lat="41.624620" lon="1.499120">
        <ele>442.055</ele>
        <time>2023-01-19T23:11:20Z</time>
      </trkpt>
      <trkpt lat="41.624620" lon="1.499120">
        <ele>442.046</ele>
        <time>2023-01-19T23:12:00Z</time>
      </trkpt>
      <trkpt lat="41.624480" lon="1.498750">
        <ele>444.090</ele>
        <time>2023-01-19T23:12:40Z</time>
      </trkpt>
      <trkpt lat="41.624280" lon="1.498350">
        <ele>447.041</ele>
        <time>2023-01-19T23:13:20Z</time>
      </trkpt>
      <trkpt lat="41.624060" lon="1.498070">
        <ele>450.067</ele>
        <time>2023-01-19T23:14:00Z</time>
      </trkpt>
      <trkpt lat="41.623680" lon="1.497620">
        <ele>453.047</ele>
        <time>2023-01-19T23:14:40Z</time>
      </trkpt>
      <trkpt lat="41.623660" lon="1.497620">
        <ele>453.093</ele>
        <time>2023-01-19T23:15:20Z</time>
      </trkpt>
      <trkpt lat="41.623210" lon="1.496910">
        <ele>457.086</ele>
        <time>2023-01-19T23:16:00Z</time>
      </trkpt>
      <trkpt lat="41.622720" lon="1.496100">
        <ele>459.088</ele>
        <time>2023-01-19T23:16:40Z</time>
      </trkpt>
      <trkpt lat="41.622590" lon="1.495660">
        <ele>459.024</ele>
        <time>2023-01-19T23:17:20Z</time>
      </trkpt>
      <trkpt lat="41.622590" lon="1.495640">
        <ele>459.026</ele>
        <time>2023-01-19T23:18:00Z</time>
      </trkpt>
      <trkpt lat="41.622560" lon="1.495290">
        <ele>459.009</ele>
        <time>2023-01-19T23:18:40Z</time>
      </trkpt>
      <trkpt lat="41.622690" lon="1.494660">
        <ele>460.039</ele>
        <time>2023-01-19T23:19:20Z</time>
      </trkpt>
      <trkpt lat="41.623010" lon="1.494020">
        <ele>460.060</ele>
        <time>2023-01-19T23:20:00Z</time>
      </trkpt>
      <trkpt lat="41.623280" lon="1.493390">
        <ele>463.071</ele>
        <time>2023-01-19T23:20:40Z</time>
      </trkpt>
      <trkpt lat="41.623710" lon="1.492210">
        <ele>467.055</ele>
        <time>2023-01-19T23:21:20Z</time>
      </trkpt>
      <trkpt lat="41.623710" lon="1.492210">
        <ele>467.016</ele>
        <time>2023-01-19T23:22:00Z</time>
      </trkpt>
      <trkpt lat="41.623810" lon="1.491940">
        <ele>467.022</ele>
        <time>2023-01-19T23:22:40Z</time>
      </trkpt>
      <trkpt lat="41.624440" lon="1.490780">
        <ele>468.012</ele>
        <time>2023-01-19T23:23:20Z</time>
      </trkpt>
      <trkpt lat="41.624870" lon="1.490070">
        <ele>468.088</ele>
        <time>2023-01-19T23:24:00Z</time>
      </trkpt>
      <trkpt lat="41.625270" lon="1.489330">
        <ele>466.031</ele>
        <time>2023-01-19T23:24:40Z</time>
      </trkpt>
      <trkpt lat="41.625560" lon="1.488690">
        <ele>467.099</ele>
        <time>2023-01-19T23:25:20Z</time>
      </trkpt>
      <trkpt lat="41.625560" lon="1.488690">
        <ele>467.007</ele>
        <time>2023-01-19T23:26:00Z</time>
      </trkpt>
      <trkpt lat="41.625700" lon="1.488390">
        <ele>470.027</ele>
        <time>2023-01-19T23:26:40Z</time>
      </trkpt>
      <trkpt lat="41.626030" lon="1.487520">
        <ele>473.009</ele>
        <time>2023-01-19T23:27:20Z</time>
      </trkpt>
      <trkpt lat="41.626140" lon="1.487190">
        <ele>472.060</ele>
        <time>2023-01-19T23:28:00Z</time>
      </trkpt>
      <trkpt lat="41.626540" lon="1.485770">
        <ele>471.041</ele>
        <time>2023-01-19T23:28:40Z</time>
      </trkpt>
      <trkpt lat="41.626540" lon="1.485770">
        <ele>471.062</ele>
        <time>2023-01-19T23:29:20Z</time>
      </trkpt>
      <trkpt lat="41.626660" lon="1.485250">
        <ele>472.046</ele>
        <time>2023-01-19T23:30:00Z</time>
      </trkpt>
      <trkpt lat="41.626820" lon="1.484370">
        <ele>475.047</ele>
        <time>2023-01-19T23:30:40Z</time>
      </trkpt>
      <trkpt lat="41.626930" lon="1.483290">
        <ele>484.073</ele>
        <time>2023-01-19T23:31:20Z</time>
      </trkpt>
      <trkpt lat="41.626930" lon="1.483290">
        <ele>484.083</ele>
        <time>2023-01-19T23:32:00Z</time>
      </trkpt>
      <trkpt lat="41.627000" lon="1.482500">
        <ele>484.019</ele>
        <time>2023-01-19T23:32:40Z</time>
      </trkpt>
      <trkpt lat="41.627000" lon="1.481890">
        <ele>484.022</ele>
        <time>2023-01-19T23:33:20Z</time>
      </trkpt>
      <trkpt lat="41.626960" lon="1.480640">
        <ele>486.069</ele>
        <time>2023-01-19T23:34:00Z</time>
      </trkpt>
      <trkpt lat="41.626900" lon="1.479770">
        <ele>490.004</ele>
        <time>2023-01-19T23:34:40Z</time>
      </trkpt>
      <trkpt lat="41.626880" lon="1.479310">
        <ele>492.024</ele>
        <time>2023-01-19T23:35:20Z</time>
      </trkpt>
      <trkpt lat="41.626880" lon="1.479310">
        <ele>492.009</ele>
        <time>2023-01-19T23:36:00Z</time>
      </trkpt>
      <trkpt lat="41.626870" lon="1.479040">
        <ele>492.037</ele>
        <time>2023-01-19T23:36:40Z</time>
      </trkpt>
      <trkpt lat="41.626910" lon="1.478440">
        <ele>494.088</ele>
        <time>2023-01-19T23:37:20Z</time>
      </trkpt>
      <trkpt lat="41.626970" lon="1.477630">
        <ele>496.089</ele>
        <time>2023-01-19T23:38:00Z</time>
      </trkpt>
      <trkpt lat="41.627140" lon="1.476830">
        <ele>497.073</ele>
        <time>2023-01-19T23:38:40Z</time>
      </trkpt>
      <trkpt lat="41.627260" lon="1.476330">
        <ele>497.034</ele>
        <time>2023-01-19T23:39:20Z</time>
      </trkpt>
      <trkpt lat="41.627470" lon="1.475620">
        <ele>498.040</ele>
        <time>2023-01-19T23:40:00Z</time>
      </trkpt>
      <trkpt lat="41.627810" lon="1.474950">
        <ele>501.070</ele>
        <time>2023-01-19T23:40:40Z</time>
      </trkpt>
      <trkpt lat="41.627810" lon="1.474950">
        <ele>501.046</ele>
        <time>2023-01-19T23:41:20Z</time>
      </trkpt>
      <trkpt lat="41.628270" lon="1.474150">
        <ele>510.019</ele>
        <time>2023-01-19T23:42:00Z</time>
      </trkpt>
      <trkpt lat="41.628630" lon="1.473590">
        <ele>511.039</ele>
        <time>2023-01-19T23:42:40Z</time>
      </trkpt>
      <trkpt lat="41.628660" lon="1.473470">
        <ele>512.001</ele>
        <time>2023-01-19T23:43:20Z</time>
      </trkpt>
      <trkpt lat="41.628720" lon="1.473380">
        <ele>512.021</ele>
        <time>2023-01-19T23:44:00Z</time>
      </trkpt>
      <trkpt lat="41.628790" lon="1.473340">
        <ele>512.009</ele>
        <time>2023-01-19T23:44:40Z</time>
      </trkpt>
      <trkpt lat="41.628960" lon="1.473080">
        <ele>511.084</ele>
        <time>2023-01-19T23:45:20Z</time>
      </trkpt>
      <trkpt lat="41.629240" lon="1.472500">
        <ele>508.085</ele>
        <time>2023-01-19T23:46:00Z</time>
      </trkpt>
      <trkpt lat="41.629350" lon="1.472240">
        <ele>507.046</ele>
        <time>2023-01-19T23:46:40Z</time>
      </trkpt>
      <trkpt lat="41.629480" lon="1.471900">
        <ele>508.090</ele>
        <time>2023-01-19T23:47:20Z</time>
      </trkpt>
      <trkpt lat="41.629510" lon="1.471970">
        <ele>508.011</ele>
        <time>2023-01-19T23:48:00Z</time>
      </trkpt>
      <trkpt lat="41.629710" lon="1.471200">
        <ele>510.027</ele>
        <time>2023-01-19T23:48:40Z</time>
      </trkpt>
      <trkpt lat="41.629800" lon="1.470500">
        <ele>515.097</ele>
        <time>2023-01-19T23:49:20Z</time>
      </trkpt>
      <trkpt lat="41.629800" lon="1.469990">
        <ele>518.073</ele>
        <time>2023-01-19T23:50:00Z</time>
      </trkpt>
      <trkpt lat="41.629800" lon="1.469990">
        <ele>518.046</ele>
        <time>2023-01-19T23:50:40Z</time>
      </trkpt>
      <trkpt lat="41.629780" lon="1.469790">
        <ele>519.078</ele>
        <time>2023-01-19T23:51:20Z</time>
      </trkpt>
      <trkpt lat="41.629690" lon="1.468460">
        <ele>523.033</ele>
        <time>2023-01-19T23:52:00Z</time>
      </trkpt>
      <trkpt lat="41.629440" lon="1.467040">
        <ele>524.026</ele>
        <time>2023-01-19T23:52:40Z</time>
      </trkpt>
      <trkpt lat="41.629200" lon="1.466170">
        <ele>526.009</ele>
        <time>2023-01-19T23:53:20Z</time>
      </trkpt>
      <trkpt lat="41.628810" lon="1.465270">
        <ele>527.018</ele>
        <time>2023-01-19T23:54:00Z</time>
      </trkpt>
      <trkpt lat="41.628210" lon="1.464260">
        <ele>529.069</ele>
        <time>2023-01-19T23:54:40Z</time>
      </trkpt>
      <trkpt lat="41.627630" lon="1.463560">
        <ele>532.050</ele>
        <time>2023-01-19T23:55:20Z</time>
      </trkpt>
      <trkpt lat="41.627400" lon="1.463420">
        <ele>532.044</ele>
        <time>2023-01-19T23:56:00Z</time>
      </trkpt>
      <trkpt lat="41.627180" lon="1.463250">
        <ele>532.015</ele>
        <time>2023-01-19T23:56:40Z</time>
      </trkpt>
      <trkpt lat="41.627060" lon="1.463100">
        <ele>532.071</ele>
        <time>2023-01-19T23:57:20Z</time>
      </trkpt>
      <trkpt lat="41.627080" lon="1.463020">
        <ele>532.091</ele>
        <time>2023-01-19T23:58:00Z</time>
      </trkpt>
      <trkpt lat="41.627080" lon="1.462850">
        <ele>532.047</ele>
        <time>2023-01-19T23:58:40Z</time>
      </trkpt>
      <trkpt lat="41.627000" lon="1.462690">
        <ele>533.080</ele>
        <time>2023-01-19T23:59:20Z</time>
      </trkpt>
      <trkpt lat="41.626960" lon="1.462650">
        <ele>533.065</ele>
        <time>2023-01-20T00:00:00Z</time>
      </trkpt>
      <trkpt lat="41.626840" lon="1.462620">
        <ele>534.068</ele>
        <time>2023-01-20T00:00:40Z</time>
      </trkpt>
      <trkpt lat="41.626780" lon="1.462620">
        <ele>534.014</ele>
        <time>2023-01-20T00:01:20Z</time>
      </trkpt>
      <trkpt lat="41.626680" lon="1.462250">
        <ele>535.009</ele>
        <time>2023-01-20T00:02:00Z</time>
      </trkpt>
      <trkpt lat="41.626570" lon="1.461480">
        <ele>539.097</ele>
        <time>2023-01-20T00:02:40Z</time>
      </trkpt>
      <trkpt lat="41.626580" lon="1.461480">
        <ele>539.038</ele>
        <time>2023-01-20T00:03:20Z</time>
      </trkpt>
      <trkpt lat="41.626550" lon="1.461410">
        <ele>539.099</ele>
        <time>2023-01-20T00:04:00Z</time>
      </trkpt>
      <trkpt lat="41.626150" lon="1.460240">
        <ele>544.093</ele>
        <time>2023-01-20T00:04:40Z</time>
      </trkpt>
      <trkpt lat="41.625600" lon="1.458460">
        <ele>547.074</ele>
        <time>2023-01-20T00:05:20Z</time>
      </trkpt>
      <trkpt lat="41.625460" lon="1.457500">
        <ele>547.080</ele>
        <time>2023-01-20T00:06:00Z</time>
      </trkpt>
      <trkpt lat="41.625210" lon="1.455820">
        <ele>555.010</ele>
        <time>2023-01-20T00:06:40Z</time>
      </trkpt>
      <trkpt lat="41.625070" lon="1.455010">
        <ele>556.026</ele>
        <time>2023-01-20T00:07:20Z</time>
      </trkpt>
      <trkpt lat="41.624940" lon="1.454510">
        <ele>556.019</ele>
        <time>2023-01-20T00:08:00Z</time>
      </trkpt>
      <trkpt lat="41.624510" lon="1.453400">
        <ele>554.098</ele>
        <time>2023-01-20T00:08:40Z</time>
      </trkpt>
      <trkpt lat="41.624260" lon="1.452930">
        <ele>553.015</ele>
        <time>2023-01-20T00:09:20Z</time>
      </trkpt>
      <trkpt lat="41.624260" lon="1.452930">
        <ele>553.026</ele>
        <time>2023-01-20T00:10:00Z</time>
      </trkpt>
      <trkpt lat="41.623910" lon="1.452330">
        <ele>550.009</ele>
        <time>2023-01-20T00:10:40Z</time>
      </trkpt>
      <trkpt lat="41.623370" lon="1.451630">
        <ele>552.050</ele>
        <time>2023-01-20T00:11:20Z</time>
      </trkpt>
      <trkpt lat="41.622650" lon="1.450960">
        <ele>551.031</ele>
        <time>2023-01-20T00:12:00Z</time>
      </trkpt>
      <trkpt lat="41.622340" lon="1.450720">
        <ele>551.032</ele>
        <time>2023-01-20T00:12:40Z</time>
      </trkpt>
      <trkpt lat="41.621890" lon="1.450420">
        <ele>552.016</ele>
        <time>2023-01-20T00:13:20Z</time>
      </trkpt>
      <trkpt lat="41.620990" lon="1.449980">
        <ele>553.067</ele>
        <time>2023-01-20T00:14:00Z</time>
      </trkpt>
      <trkpt lat="41.620270" lon="1.449660">
        <ele>555.013</ele>
        <time>2023-01-20T00:14:40Z</time>
      </trkpt>
      <trkpt lat="41.620270" lon="1.449660">
        <ele>555.043</ele>
        <time>2023-01-20T00:15:20Z</time>
      </trkpt>
      <trkpt lat="41.619150" lon="1.449140">
        <ele>556.029</ele>
        <time>2023-01-20T00:16:00Z</time>
      </trkpt>
      <trkpt lat="41.618750" lon="1.448920">
        <ele>558.082</ele>
        <time>2023-01-20T00:16:40Z</time>
      </trkpt>
      <trkpt lat="41.618480" lon="1.448740">
        <ele>559.033</ele>
        <time>2023-01-20T00:17:20Z</time>
      </trkpt>
      <trkpt lat="41.618340" lon="1.448580">
        <ele>559.023</ele>
        <time>2023-01-20T00:18:00Z</time>
      </trkpt>
      <trkpt lat="41.618200" lon="1.448340">
        <ele>560.015</ele>
        <time>2023-01-20T00:18:40Z</time>
      </trkpt>
      <trkpt lat="41.618020" lon="1.447870">
        <ele>561.009</ele>
        <time>2023-01-20T00:19:20Z</time>
      </trkpt>
      <trkpt lat="41.617940" lon="1.447510">
        <ele>561.094</ele>
        <time>2023-01-20T00:20:00Z</time>
      </trkpt>
      <trkpt lat="41.617960" lon="1.447010">
        <ele>564.085</ele>
        <time>2023-01-20T00:20:40Z</time>
      </trkpt>
      <trkpt lat="41.618000" lon="1.446730">
        <ele>565.086</ele>
        <time>2023-01-20T00:21:20Z</time>
      </trkpt>
      <trkpt lat="41.618210" lon="1.445520">
        <ele>571.020</ele>
        <time>2023-01-20T00:22:00Z</time>
      </trkpt>
      <trkpt lat="41.618390" lon="1.444680">
        <ele>573.041</ele>
        <time>2023-01-20T00:22:40Z</time>
      </trkpt>
      <trkpt lat="41.618500" lon="1.444350">
        <ele>573.067</ele>
        <time>2023-01-20T00:23:20Z</time>
      </trkpt>
      <trkpt lat="41.618660" lon="1.443960">
        <ele>573.047</ele>
        <time>2023-01-20T00:24:00Z</time>
      </trkpt>
      <trkpt lat="41.619950" lon="1.441380">
        <ele>575.073</ele>
        <time>2023-01-20T00:24:40Z</time>
      </trkpt>
      <trkpt lat="41.619950" lon="1.441380">
        <ele>575.096</ele>
        <time>2023-01-20T00:25:20Z</time>
      </trkpt>
      <trkpt lat="41.622430" lon="1.436510">
        <ele>593.089</ele>
        <time>2023-01-20T00:26:00Z</time>
      </trkpt>
      <trkpt lat="41.622680" lon="1.435950">
        <ele>593.006</ele>
        <time>2023-01-20T00:26:40Z</time>
      </trkpt>
      <trkpt lat="41.622870" lon="1.435430">
        <ele>593.026</ele>
        <time>2023-01-20T00:27:20Z</time>
      </trkpt>
      <trkpt lat="41.623630" lon="1.433390">
        <ele>597.009</ele>
        <time>2023-01-20T00:28:00Z</time>
      </trkpt>
      <trkpt lat="41.624490" lon="1.431210">
        <ele>603.069</ele>
        <time>2023-01-20T00:28:40Z</time>
      </trkpt>
      <trkpt lat="41.624620" lon="1.430690">
        <ele>605.060</ele>
        <time>2023-01-20T00:29:20Z</time>
      </trkpt>
      <trkpt lat="41.624710" lon="1.430210">
        <ele>607.021</ele>
        <time>2023-01-20T00:30:00Z</time>
      </trkpt>
      <trkpt lat="41.625000" lon="1.428130">
        <ele>615.015</ele>
        <time>2023-01-20T00:30:40Z</time>
      </trkpt>
      <trkpt lat="41.625120" lon="1.427600">
        <ele>617.086</ele>
        <time>2023-01-20T00:31:20Z</time>
      </trkpt>
      <trkpt lat="41.625310" lon="1.426890">
        <ele>618.082</ele>
        <time>2023-01-20T00:32:00Z</time>
      </trkpt>
      <trkpt lat="41.625310" lon="1.426890">
        <ele>618.072</ele>
        <time>2023-01-20T00:32:40Z</time>
      </trkpt>
      <trkpt lat="41.625470" lon="1.426360">
        <ele>618.088</ele>
        <time>2023-01-20T00:33:20Z</time>
      </trkpt>
      <trkpt lat="41.625520" lon="1.426080">
        <ele>618.041</ele>
        <time>2023-01-20T00:34:00Z</time>
      </trkpt>
      <trkpt lat="41.625520" lon="1.425760">
        <ele>619.011</ele>
        <time>2023-01-20T00:34:40Z</time>
      </trkpt>
      <trkpt lat="41.625470" lon="1.425280">
        <ele>621.021</ele>
        <time>2023-01-20T00:35:20Z</time>
      </trkpt>
      <trkpt lat="41.625330" lon="1.424820">
        <ele>623.003</ele>
        <time>2023-01-20T00:36:00Z</time>
      </trkpt>
      <trkpt lat="41.625120" lon="1.424410">
        <ele>628.009</ele>
        <time>2023-01-20T00:36:40Z</time>
      </trkpt>
      <trkpt lat="41.624510" lon="1.423730">
        <ele>634.082</ele>
        <time>2023-01-20T00:37:20Z</time>
      </trkpt>
      <trkpt lat="41.624130" lon="1.423230">
        <ele>635.093</ele>
        <time>2023-01-20T00:38:00Z</time>
      </trkpt>
      <trkpt lat="41.623980" lon="1.422930">
        <ele>635.034</ele>
        <time>2023-01-20T00:38:40Z</time>
      </trkpt>
      <trkpt lat="41.623770" lon="1.422330">
        <ele>635.078</ele>
        <time>2023-01-20T00:39:20Z</time>
      </trkpt>
      <trkpt lat="41.623190" lon="1.420380">
        <ele>643.069</ele>
        <time>2023-01-20T00:40:00Z</time>
      </trkpt>
      <trkpt lat="41.622870" lon="1.419350">
        <ele>643.095</ele>
        <time>2023-01-20T00:40:40Z</time>
      </trkpt>
      <trkpt lat="41.622110" lon="1.416840">
        <ele>649.095</ele>
        <time>2023-01-20T00:41:20Z</time>
      </trkpt>
      <trkpt lat="41.622110" lon="1.416840">
        <ele>649.011</ele>
        <time>2023-01-20T00:42:00Z</time>
      </trkpt>
      <trkpt lat="41.621840" lon="1.415900">
        <ele>652.094</ele>
        <time>2023-01-20T00:42:40Z</time>
      </trkpt>
      <trkpt lat="41.621510" lon="1.414320">
        <ele>655.019</ele>
        <time>2023-01-20T00:43:20Z</time>
      </trkpt>
      <trkpt lat="41.621220" lon="1.413120">
        <ele>660.009</ele>
        <time>2023-01-20T00:44:00Z</time>
      </trkpt>
      <trkpt lat="41.621080" lon="1.412670">
        <ele>662.019</ele>
        <time>2023-01-20T00:44:40Z</time>
      </trkpt>
      <trkpt lat="41.619300" lon="1.408080">
        <ele>676.009</ele>
        <time>2023-01-20T00:45:20Z</time>
      </trkpt>
      <trkpt lat="41.618390" lon="1.405840">
        <ele>685.082</ele>
        <time>2023-01-20T00:46:00Z</time>
      </trkpt>
      <trkpt lat="41.617940" lon="1.404330">
        <ele>691.053</ele>
        <time>2023-01-20T00:46:40Z</time>
      </trkpt>
      <trkpt lat="41.617670" lon="1.403260">
        <ele>693.024</ele>
        <time>2023-01-20T00:47:20Z</time>
      </trkpt>
      <trkpt lat="41.617630" lon="1.402990">
        <ele>695.048</ele>
        <time>2023-01-20T00:48:00Z</time>
      </trkpt>
      <trkpt lat="41.617630" lon="1.402750">
        <ele>696.039</ele>
        <time>2023-01-20T00:48:40Z</time>
      </trkpt>
      <trkpt lat="41.617670" lon="1.402620">
        <ele>697.055</ele>
        <time>2023-01-20T00:49:20Z</time>
      </trkpt>
      <trkpt lat="41.617670" lon="1.402530">
        <ele>698.065</ele>
        <time>2023-01-20T00:50:00Z</time>
      </trkpt>
      <trkpt lat="41.617630" lon="1.402460">
        <ele>699.011</ele>
        <time>2023-01-20T00:50:40Z</time>
      </trkpt>
      <trkpt lat="41.617600" lon="1.402390">
        <ele>699.044</ele>
        <time>2023-01-20T00:51:20Z</time>
      </trkpt>
      <trkpt lat="41.617430" lon="1.402220">
        <ele>701.034</ele>
        <time>2023-01-20T00:52:00Z</time>
      </trkpt>
      <trkpt lat="41.617360" lon="1.402100">
        <ele>702.055</ele>
        <time>2023-01-20T00:52:40Z</time>
      </trkpt>
      <trkpt lat="41.617260" lon="1.401730">
        <ele>704.010</ele>
        <time>2023-01-20T00:53:20Z</time>
      </trkpt>
      <trkpt lat="41.617260" lon="1.401720">
        <ele>704.009</ele>
        <time>2023-01-20T00:54:00Z</time>
      </trkpt>
      <trkpt lat="41.617170" lon="1.401350">
        <ele>706.024</ele>
        <time>2023-01-20T00:54:40Z</time>
      </trkpt>
      <trkpt lat="41.617130" lon="1.401020">
        <ele>706.065</ele>
        <time>2023-01-20T00:55:20Z</time>
      </trkpt>
      <trkpt lat="41.617130" lon="1.401020">
        <ele>706.026</ele>
        <time>2023-01-20T00:56:00Z</time>
      </trkpt>
      <trkpt lat="41.617150" lon="1.400550">
        <ele>705.030</ele>
        <time>2023-01-20T00:56:40Z</time>
      </trkpt>
      <trkpt lat="41.617210" lon="1.400120">
        <ele>705.031</ele>
        <time>2023-01-20T00:57:20Z</time>
      </trkpt>
      <trkpt lat="41.617330" lon="1.399950">
        <ele>704.047</ele>
        <time>2023-01-20T00:58:00Z</time>
      </trkpt>
      <trkpt lat="41.617390" lon="1.399810">
        <ele>703.037</ele>
        <time>2023-01-20T00:58:40Z</time>
      </trkpt>
      <trkpt lat="41.617580" lon="1.398930">
        <ele>698.053</ele>
        <time>2023-01-20T00:59:20Z</time>
      </trkpt>
      <trkpt lat="41.617730" lon="1.398070">
        <ele>696.036</ele>
        <time>2023-01-20T01:00:00Z</time>
      </trkpt>
      <trkpt lat="41.617870" lon="1.397840">
        <ele>696.088</ele>
        <time>2023-01-20T01:00:40Z</time>
      </trkpt>
      <trkpt lat="41.618610" lon="1.396890">
        <ele>689.024</ele>
        <time>2023-01-20T01:01:20Z</time>
      </trkpt>
      <trkpt lat="41.618790" lon="1.396340">
        <ele>688.026</ele>
        <time>2023-01-20T01:02:00Z</time>
      </trkpt>
      <trkpt lat="41.618980" lon="1.395810">
        <ele>686.009</ele>
        <time>2023-01-20T01:02:40Z</time>
      </trkpt>
      <trkpt lat="41.619300" lon="1.395260">
        <ele>684.089</ele>
        <time>2023-01-20T01:03:20Z</time>
      </trkpt>
      <trkpt lat="41.619300" lon="1.395260">
        <ele>684.050</ele>
        <time>2023-01-20T01:04:00Z</time>
      </trkpt>
      <trkpt lat="41.619470" lon="1.394960">
        <ele>684.071</ele>
        <time>2023-01-20T01:04:40Z</time>
      </trkpt>
      <trkpt lat="41.619730" lon="1.394670">
        <ele>682.095</ele>
        <time>2023-01-20T01:05:20Z</time>
      </trkpt>
      <trkpt lat="41.620030" lon="1.394440">
        <ele>680.086</ele>
        <time>2023-01-20T01:06:00Z</time>
      </trkpt>
      <trkpt lat="41.620290" lon="1.393760">
        <ele>678.062</ele>
        <time>2023-01-20T01:06:40Z</time>
      </trkpt>
      <trkpt lat="41.620470" lon="1.393040">
        <ele>676.022</ele>
        <time>2023-01-20T01:07:20Z</time>
      </trkpt>
      <trkpt lat="41.620490" lon="1.392720">
        <ele>674.028</ele>
        <time>2023-01-20T01:08:00Z</time>
      </trkpt>
      <trkpt lat="41.620430" lon="1.392270">
        <ele>672.021</ele>
        <time>2023-01-20T01:08:40Z</time>
      </trkpt>
      <trkpt lat="41.620490" lon="1.391370">
        <ele>667.039</ele>
        <time>2023-01-20T01:09:20Z</time>
      </trkpt>
      <trkpt lat="41.620560" lon="1.390820">
        <ele>664.001</ele>
        <time>2023-01-20T01:10:00Z</time>
      </trkpt>
      <trkpt lat="41.620760" lon="1.389770">
        <ele>665.021</ele>
        <time>2023-01-20T01:10:40Z</time>
      </trkpt>
      <trkpt lat="41.620950" lon="1.389260">
        <ele>668.009</ele>
        <time>2023-01-20T01:11:20Z</time>
      </trkpt>
      <trkpt lat="41.621070" lon="1.388760">
        <ele>672.094</ele>
        <time>2023-01-20T01:12:00Z</time>
      </trkpt>
      <trkpt lat="41.621140" lon="1.388180">
        <ele>673.085</ele>
        <time>2023-01-20T01:12:40Z</time>
      </trkpt>
      <trkpt lat="41.621090" lon="1.387630">
        <ele>668.086</ele>
        <time>2023-01-20T01:13:20Z</time>
      </trkpt>
      <trkpt lat="41.621430" lon="1.386610">
        <ele>667.020</ele>
        <time>2023-01-20T01:14:00Z</time>
      </trkpt>
      <trkpt lat="41.621630" lon="1.386040">
        <ele>668.071</ele>
        <time>2023-01-20T01:14:40Z</time>
      </trkpt>
      <trkpt lat="41.621800" lon="1.385300">
        <ele>668.067</ele>
        <time>2023-01-20T01:15:20Z</time>
      </trkpt>
      <trkpt lat="41.621980" lon="1.384300">
        <ele>665.067</ele>
        <time>2023-01-20T01:16:00Z</time>
      </trkpt>
      <trkpt lat="41.621980" lon="1.384300">
        <ele>665.023</ele>
        <time>2023-01-20T01:16:40Z</time>
      </trkpt>
      <trkpt lat="41.622180" lon="1.383340">
        <ele>660.076</ele>
        <time>2023-01-20T01:17:20Z</time>
      </trkpt>
      <trkpt lat="41.622620" lon="1.382160">
        <ele>659.079</ele>
        <time>2023-01-20T01:18:00Z</time>
      </trkpt>
      <trkpt lat="41.623140" lon="1.380940">
        <ele>664.005</ele>
        <time>2023-01-20T01:18:40Z</time>
      </trkpt>
      <trkpt lat="41.623380" lon="1.380170">
        <ele>666.025</ele>
        <time>2023-01-20T01:19:20Z</time>
      </trkpt>
      <trkpt lat="41.623590" lon="1.379650">
        <ele>667.009</ele>
        <time>2023-01-20T01:20:00Z</time>
      </trkpt>
      <trkpt lat="41.624140" lon="1.378490">
        <ele>668.098</ele>
        <time>2023-01-20T01:20:40Z</time>
      </trkpt>
      <trkpt lat="41.624660" lon="1.377530">
        <ele>664.059</ele>
        <time>2023-01-20T01:21:20Z</time>
      </trkpt>
      <trkpt lat="41.625290" lon="1.376260">
        <ele>655.030</ele>
        <time>2023-01-20T01:22:00Z</time>
      </trkpt>
      <trkpt lat="41.625290" lon="1.376270">
        <ele>655.034</ele>
        <time>2023-01-20T01:22:40Z</time>
      </trkpt>
      <trkpt lat="41.625740" lon="1.375380">
        <ele>650.045</ele>
        <time>2023-01-20T01:23:20Z</time>
      </trkpt>
      <trkpt lat="41.626170" lon="1.374450">
        <ele>645.011</ele>
        <time>2023-01-20T01:24:00Z</time>
      </trkpt>
      <trkpt lat="41.626500" lon="1.373840">
        <ele>642.011</ele>
        <time>2023-01-20T01:24:40Z</time>
      </trkpt>
      <trkpt lat="41.627040" lon="1.372730">
        <ele>638.057</ele>
        <time>2023-01-20T01:25:20Z</time>
      </trkpt>
      <trkpt lat="41.627360" lon="1.372020">
        <ele>638.080</ele>
        <time>2023-01-20T01:26:00Z</time>
      </trkpt>
      <trkpt lat="41.627240" lon="1.371710">
        <ele>638.058</ele>
        <time>2023-01-20T01:26:40Z</time>
      </trkpt>
      <trkpt lat="41.627040" lon="1.371340">
        <ele>639.052</ele>
        <time>2023-01-20T01:27:20Z</time>
      </trkpt>
      <trkpt lat="41.626340" lon="1.370510">
        <ele>639.017</ele>
        <time>2023-01-20T01:28:00Z</time>
      </trkpt>
      <trkpt lat="41.625620" lon="1.370050">
        <ele>639.009</ele>
        <time>2023-01-20T01:28:40Z</time>
      </trkpt>
      <trkpt lat="41.625270" lon="1.369900">
        <ele>639.066</ele>
        <time>2023-01-20T01:29:20Z</time>
      </trkpt>
      <trkpt lat="41.625160" lon="1.369780">
        <ele>639.057</ele>
        <time>2023-01-20T01:30:00Z</time>
      </trkpt>
      <trkpt lat="41.624890" lon="1.369240">
        <ele>641.038</ele>
        <time>2023-01-20T01:30:40Z</time>
      </trkpt>
      <trkpt lat="41.624630" lon="1.368970">
        <ele>643.062</ele>
        <time>2023-01-20T01:31:20Z</time>
      </trkpt>
      <trkpt lat="41.624340" lon="1.368490">
        <ele>646.013</ele>
        <time>2023-01-20T01:32:00Z</time>
      </trkpt>
      <trkpt lat="41.624150" lon="1.368330">
        <ele>647.039</ele>
        <time>2023-01-20T01:32:40Z</time>
      </trkpt>
      <trkpt lat="41.623280" lon="1.368100">
        <ele>649.029</ele>
        <time>2023-01-20T01:33:20Z</time>
      </trkpt>
      <trkpt lat="41.622680" lon="1.367700">
        <ele>648.045</ele>
        <time>2023-01-20T01:34:00Z</time>
      </trkpt>
      <trkpt lat="41.623120" lon="1.366850">
        <ele>648.058</ele>
        <time>2023-01-20T01:34:40Z</time>
      </trkpt>
      <trkpt lat="41.623120" lon="1.366850">
        <ele>648.058</ele>
        <time>2023-01-20T01:35:20Z</time>
      </trkpt>
      <trkpt lat="41.623320" lon="1.366490">
        <ele>646.052</ele>
        <time>2023-01-20T01:36:00Z</time>
      </trkpt>
      <trkpt lat="41.623540" lon="1.366410">
        <ele>646.017</ele>
        <time>2023-01-20T01:36:40Z</time>
      </trkpt>
      <trkpt lat="41.624240" lon="1.366470">
        <ele>644.009</ele>
        <time>2023-01-20T01:37:20Z</time>
      </trkpt>
      <trkpt lat="41.625370" lon="1.366400">
        <ele>638.066</ele>
        <time>2023-01-20T01:38:00Z</time>
      </trkpt>
      <trkpt lat="41.625740" lon="1.366250">
        <ele>635.057</ele>
        <time>2023-01-20T01:38:40Z</time>
      </trkpt>
      <trkpt lat="41.626170" lon="1.366000">
        <ele>632.078</ele>
        <time>2023-01-20T01:39:20Z</time>
      </trkpt>
      <trkpt lat="41.626420" lon="1.365900">
        <ele>631.032</ele>
        <time>2023-01-20T01:40:00Z</time>
      </trkpt>
      <trkpt lat="41.626680" lon="1.365930">
        <ele>629.053</ele>
        <time>2023-01-20T01:40:40Z</time>
      </trkpt>
      <trkpt lat="41.627050" lon="1.366030">
        <ele>627.069</ele>
        <time>2023-01-20T01:41:20Z</time>
      </trkpt>
      <trkpt lat="41.627390" lon="1.366000">
        <ele>625.059</ele>
        <time>2023-01-20T01:42:00Z</time>
      </trkpt>
      <trkpt lat="41.627590" lon="1.366010">
        <ele>623.035</ele>
        <time>2023-01-20T01:42:40Z</time>
      </trkpt>
      <trkpt lat="41.627820" lon="1.365850">
        <ele>620.058</ele>
        <time>2023-01-20T01:43:20Z</time>
      </trkpt>
      <trkpt lat="41.628020" lon="1.365620">
        <ele>617.024</ele>
        <time>2023-01-20T01:44:00Z</time>
      </trkpt>
      <trkpt lat="41.628090" lon="1.365290">
        <ele>615.004</ele>
        <time>2023-01-20T01:44:40Z</time>
      </trkpt>
      <trkpt lat="41.628280" lon="1.365260">
        <ele>615.014</ele>
        <time>2023-01-20T01:45:20Z</time>
      </trkpt>
      <trkpt lat="41.628610" lon="1.365260">
        <ele>614.009</ele>
        <time>2023-01-20T01:46:00Z</time>
      </trkpt>
      <trkpt lat="41.628830" lon="1.365000">
        <ele>614.093</ele>
        <time>2023-01-20T01:46:40Z</time>
      </trkpt>
      <trkpt lat="41.628970" lon="1.364720">
        <ele>614.034</ele>
        <time>2023-01-20T01:47:20Z</time>
      </trkpt>
      <trkpt lat="41.628920" lon="1.364270">
        <ele>615.055</ele>
        <time>2023-01-20T01:48:00Z</time>
      </trkpt>
      <trkpt lat="41.628950" lon="1.363990">
        <ele>615.049</ele>
        <time>2023-01-20T01:48:40Z</time>
      </trkpt>
      <trkpt lat="41.628910" lon="1.363830">
        <ele>616.070</ele>
        <time>2023-01-20T01:49:20Z</time>
      </trkpt>
      <trkpt lat="41.628820" lon="1.363650">
        <ele>616.086</ele>
        <time>2023-01-20T01:50:00Z</time>
      </trkpt>
      <trkpt lat="41.628750" lon="1.363290">
        <ele>616.066</ele>
        <time>2023-01-20T01:50:40Z</time>
      </trkpt>
      <trkpt lat="41.628820" lon="1.363070">
        <ele>616.082</ele>
        <time>2023-01-20T01:51:20Z</time>
      </trkpt>
      <trkpt lat="41.629150" lon="1.363070">
        <ele>617.055</ele>
        <time>2023-01-20T01:52:00Z</time>
      </trkpt>
      <trkpt lat="41.629050" lon="1.362280">
        <ele>617.094</ele>
        <time>2023-01-20T01:52:40Z</time>
      </trkpt>
      <trkpt lat="41.628880" lon="1.360660">
        <ele>616.057</ele>
        <time>2023-01-20T01:53:20Z</time>
      </trkpt>
      <trkpt lat="41.628610" lon="1.360580">
        <ele>617.022</ele>
        <time>2023-01-20T01:54:00Z</time>
      </trkpt>
      <trkpt lat="41.628610" lon="1.360610">
        <ele>617.009</ele>
        <time>2023-01-20T01:54:40Z</time>
      </trkpt>
      <trkpt lat="41.628580" lon="1.360600">
        <ele>617.020</ele>
        <time>2023-01-20T01:55:20Z</time>
      </trkpt>
      <trkpt lat="41.628520" lon="1.360520">
        <ele>617.021</ele>
        <time>2023-01-20T01:56:00Z</time>
      </trkpt>
      <trkpt lat="41.628500" lon="1.359980">
        <ele>618.082</ele>
        <time>2023-01-20T01:56:40Z</time>
      </trkpt>
      <trkpt lat="41.628510" lon="1.359810">
        <ele>618.096</ele>
        <time>2023-01-20T01:57:20Z</time>
      </trkpt>
      <trkpt lat="41.628570" lon="1.359640">
        <ele>618.097</ele>
        <time>2023-01-20T01:58:00Z</time>
      </trkpt>
      <trkpt lat="41.628730" lon="1.359400">
        <ele>617.023</ele>
        <time>2023-01-20T01:58:40Z</time>
      </trkpt>
      <trkpt lat="41.628810" lon="1.359160">
        <ele>617.063</ele>
        <time>2023-01-20T01:59:20Z</time>
      </trkpt>
      <trkpt lat="41.628810" lon="1.359160">
        <ele>617.059</ele>
        <time>2023-01-20T02:00:00Z</time>
      </trkpt>
      <trkpt lat="41.629180" lon="1.358410">
        <ele>615.012</ele>
        <time>2023-01-20T02:00:40Z</time>
      </trkpt>
      <trkpt lat="41.629210" lon="1.358290">
        <ele>614.025</ele>
        <time>2023-01-20T02:01:20Z</time>
      </trkpt>
      <trkpt lat="41.629190" lon="1.358150">
        <ele>614.026</ele>
        <time>2023-01-20T02:02:00Z</time>
      </trkpt>
      <trkpt lat="41.629120" lon="1.358060">
        <ele>614.008</ele>
        <time>2023-01-20T02:02:40Z</time>
      </trkpt>
      <trkpt lat="41.629040" lon="1.357940">
        <ele>613.009</ele>
        <time>2023-01-20T02:03:20Z</time>
      </trkpt>
      <trkpt lat="41.628890" lon="1.356990">
        <ele>612.063</ele>
        <time>2023-01-20T02:04:00Z</time>
      </trkpt>
      <trkpt lat="41.628830" lon="1.356790">
        <ele>612.034</ele>
        <time>2023-01-20T02:04:40Z</time>
      </trkpt>
      <trkpt lat="41.628650" lon="1.356360">
        <ele>612.055</ele>
        <time>2023-01-20T02:05:20Z</time>
      </trkpt>
      <trkpt lat="41.628590" lon="1.356180">
        <ele>613.059</ele>
        <time>2023-01-20T02:06:00Z</time>
      </trkpt>
      <trkpt lat="41.628480" lon="1.355400">
        <ele>611.010</ele>
        <time>2023-01-20T02:06:40Z</time>
      </trkpt>
      <trkpt lat="41.628440" lon="1.354990">
        <ele>609.086</ele>
        <time>2023-01-20T02:07:20Z</time>
      </trkpt>
      <trkpt lat="41.628350" lon="1.354670">
        <ele>606.096</ele>
        <time>2023-01-20T02:08:00Z</time>
      </trkpt>
      <trkpt lat="41.628310" lon="1.354320">
        <ele>605.022</ele>
        <time>2023-01-20T02:08:40Z</time>
      </trkpt>
      <trkpt lat="41.628320" lon="1.354040">
        <ele>604.025</ele>
        <time>2023-01-20T02:09:20Z</time>
      </trkpt>
      <trkpt lat="41.628400" lon="1.353180">
        <ele>602.098</ele>
        <time>2023-01-20T02:10:00Z</time>
      </trkpt>
      <trkpt lat="41.628370" lon="1.353070">
        <ele>602.015</ele>
        <time>2023-01-20T02:10:40Z</time>
      </trkpt>
      <trkpt lat="41.628390" lon="1.352830">
        <ele>601.026</ele>
        <time>2023-01-20T02:11:20Z</time>
      </trkpt>
      <trkpt lat="41.628230" lon="1.352760">
        <ele>600.009</ele>
        <time>2023-01-20T02:12:00Z</time>
      </trkpt>
      <trkpt lat="41.627970" lon="1.352430">
        <ele>598.050</ele>
        <time>2023-01-20T02:12:40Z</time>
      </trkpt>
      <trkpt lat="41.627760" lon="1.351800">
        <ele>597.091</ele>
        <time>2023-01-20T02:13:20Z</time>
      </trkpt>
      <trkpt lat="41.627260" lon="1.351040">
        <ele>595.042</ele>
        <time>2023-01-20T02:14:00Z</time>
      </trkpt>
      <trkpt lat="41.627010" lon="1.350580">
        <ele>595.016</ele>
        <time>2023-01-20T02:14:40Z</time>
      </trkpt>
      <trkpt lat="41.626880" lon="1.350460">
        <ele>594.057</ele>
        <time>2023-01-20T02:15:20Z</time>
      </trkpt>
      <trkpt lat="41.626740" lon="1.350220">
        <ele>592.093</ele>
        <time>2023-01-20T02:16:00Z</time>
      </trkpt>
      <trkpt lat="41.626600" lon="1.349730">
        <ele>590.053</ele>
        <time>2023-01-20T02:16:40Z</time>
      </trkpt>
      <trkpt lat="41.626530" lon="1.349370">
        <ele>588.049</ele>
        <time>2023-01-20T02:17:20Z</time>
      </trkpt>
      <trkpt lat="41.626520" lon="1.348960">
        <ele>584.092</ele>
        <time>2023-01-20T02:18:00Z</time>
      </trkpt>
      <trkpt lat="41.627240" lon="1.346740">
        <ele>568.028</ele>
        <time>2023-01-20T02:18:40Z</time>
      </trkpt>
      <trkpt lat="41.627290" lon="1.346530">
        <ele>567.089</ele>
        <time>2023-01-20T02:19:20Z</time>
      </trkpt>
      <trkpt lat="41.627290" lon="1.346540">
        <ele>567.017</ele>
        <time>2023-01-20T02:20:00Z</time>
      </trkpt>
      <trkpt lat="41.627440" lon="1.345930">
        <ele>563.009</ele>
        <time>2023-01-20T02:20:40Z</time>
      </trkpt>
      <trkpt lat="41.627640" lon="1.345560">
        <ele>561.013</ele>
        <time>2023-01-20T02:21:20Z</time>
      </trkpt>
      <trkpt lat="41.627670" lon="1.345440">
        <ele>560.024</ele>
        <time>2023-01-20T02:22:00Z</time>
      </trkpt>
      <trkpt lat="41.627510" lon="1.344970">
        <ele>557.045</ele>
        <time>2023-01-20T02:22:40Z</time>
      </trkpt>
      <trkpt lat="41.627470" lon="1.344640">
        <ele>556.019</ele>
        <time>2023-01-20T02:23:20Z</time>
      </trkpt>
      <trkpt lat="41.627410" lon="1.344300">
        <ele>555.020</ele>
        <time>2023-01-20T02:24:00Z</time>
      </trkpt>
      <trkpt lat="41.627290" lon="1.344240">
        <ele>554.096</ele>
        <time>2023-01-20T02:24:40Z</time>
      </trkpt>
      <trkpt lat="41.627270" lon="1.342800">
        <ele>549.096</ele>
        <time>2023-01-20T02:25:20Z</time>
      </trkpt>
      <trkpt lat="41.627630" lon="1.342170">
        <ele>548.042</ele>
        <time>2023-01-20T02:26:00Z</time>
      </trkpt>
      <trkpt lat="41.628530" lon="1.341180">
        <ele>546.095</ele>
        <time>2023-01-20T02:26:40Z</time>
      </trkpt>
      <trkpt lat="41.628880" lon="1.340840">
        <ele>546.079</ele>
        <time>2023-01-20T02:27:20Z</time>
      </trkpt>
      <trkpt lat="41.628940" lon="1.340710">
        <ele>546.005</ele>
        <time>2023-01-20T02:28:00Z</time>
      </trkpt>
      <trkpt lat="41.628980" lon="1.340730">
        <ele>546.025</ele>
        <time>2023-01-20T02:28:40Z</time>
      </trkpt>
      <trkpt lat="41.629020" lon="1.340720">
        <ele>546.009</ele>
        <time>2023-01-20T02:29:20Z</time>
      </trkpt>
      <trkpt lat="41.629050" lon="1.340650">
        <ele>546.028</ele>
        <time>2023-01-20T02:30:00Z</time>
      </trkpt>
      <trkpt lat="41.629050" lon="1.340620">
        <ele>546.079</ele>
        <time>2023-01-20T02:30:40Z</time>
      </trkpt>
      <trkpt lat="41.629180" lon="1.340540">
        <ele>546.090</ele>
        <time>2023-01-20T02:31:20Z</time>
      </trkpt>
      <trkpt lat="41.629790" lon="1.340050">
        <ele>547.084</ele>
        <time>2023-01-20T02:32:00Z</time>
      </trkpt>
      <trkpt lat="41.630070" lon="1.339790">
        <ele>546.075</ele>
        <time>2023-01-20T02:32:40Z</time>
      </trkpt>
      <trkpt lat="41.630080" lon="1.339800">
        <ele>546.051</ele>
        <time>2023-01-20T02:33:20Z</time>
      </trkpt>
      <trkpt lat="41.631440" lon="1.338570">
        <ele>544.031</ele>
        <time>2023-01-20T02:34:00Z</time>
      </trkpt>
      <trkpt lat="41.631630" lon="1.338480">
        <ele>544.067</ele>
        <time>2023-01-20T02:34:40Z</time>
      </trkpt>
      <trkpt lat="41.631890" lon="1.338410">
        <ele>544.050</ele>
        <time>2023-01-20T02:35:20Z</time>
      </trkpt>
      <trkpt lat="41.632050" lon="1.338420">
        <ele>544.038</ele>
        <time>2023-01-20T02:36:00Z</time>
      </trkpt>
      <trkpt lat="41.632060" lon="1.338290">
        <ele>544.070</ele>
        <time>2023-01-20T02:36:40Z</time>
      </trkpt>
      <trkpt lat="41.632100" lon="1.338190">
        <ele>544.017</ele>
        <time>2023-01-20T02:37:20Z</time>
      </trkpt>
      <trkpt lat="41.632380" lon="1.338090">
        <ele>543.009</ele>
        <time>2023-01-20T02:38:00Z</time>
      </trkpt>
      <trkpt lat="41.632470" lon="1.337850">
        <ele>543.034</ele>
        <time>2023-01-20T02:38:40Z</time>
      </trkpt>
      <trkpt lat="41.632830" lon="1.337310">
        <ele>542.045</ele>
        <time>2023-01-20T02:39:20Z</time>
      </trkpt>
      <trkpt lat="41.633120" lon="1.336940">
        <ele>542.096</ele>
        <time>2023-01-20T02:40:00Z</time>
      </trkpt>
      <trkpt lat="41.634160" lon="1.336060">
        <ele>539.050</ele>
        <time>2023-01-20T02:40:40Z</time>
      </trkpt>
      <trkpt lat="41.634160" lon="1.336060">
        <ele>539.011</ele>
        <time>2023-01-20T02:41:20Z</time>
      </trkpt>
      <trkpt lat="41.634300" lon="1.335930">
        <ele>538.047</ele>
        <time>2023-01-20T02:42:00Z</time>
      </trkpt>
      <trkpt lat="41.634280" lon="1.335680">
        <ele>538.057</ele>
        <time>2023-01-20T02:42:40Z</time>
      </trkpt>
      <trkpt lat="41.634210" lon="1.335470">
        <ele>537.053</ele>
        <time>2023-01-20T02:43:20Z</time>
      </trkpt>
      <trkpt lat="41.633120" lon="1.333030">
        <ele>535.086</ele>
        <time>2023-01-20T02:44:00Z</time>
      </trkpt>
      <trkpt lat="41.633180" lon="1.332940">
        <ele>535.045</ele>
        <time>2023-01-20T02:44:40Z</time>
      </trkpt>
      <trkpt lat="41.633850" lon="1.332330">
        <ele>535.047</ele>
        <time>2023-01-20T02:45:20Z</time>
      </trkpt>
      <trkpt lat="41.634020" lon="1.332120">
        <ele>535.011</ele>
        <time>2023-01-20T02:46:00Z</time>
      </trkpt>
      <trkpt lat="41.634130" lon="1.331850">
        <ele>534.009</ele>
        <time>2023-01-20T02:46:40Z</time>
      </trkpt>
      <trkpt lat="41.634430" lon="1.330460">
        <ele>531.065</ele>
        <time>2023-01-20T02:47:20Z</time>
      </trkpt>
      <trkpt lat="41.634430" lon="1.330460">
        <ele>531.016</ele>
        <time>2023-01-20T02:48:00Z</time>
      </trkpt>
      <trkpt lat="41.634510" lon="1.330090">
        <ele>531.067</ele>
        <time>2023-01-20T02:48:40Z</time>
      </trkpt>
      <trkpt lat="41.634990" lon="1.329430">
        <ele>529.091</ele>
        <time>2023-01-20T02:49:20Z</time>
      </trkpt>
      <trkpt lat="41.635230" lon="1.329210">
        <ele>529.042</ele>
        <time>2023-01-20T02:50:00Z</time>
      </trkpt>
      <trkpt lat="41.635410" lon="1.328490">
        <ele>529.088</ele>
        <time>2023-01-20T02:50:40Z</time>
      </trkpt>
      <trkpt lat="41.636120" lon="1.326980">
        <ele>529.028</ele>
        <time>2023-01-20T02:51:20Z</time>
      </trkpt>
      <trkpt lat="41.636150" lon="1.326630">
        <ele>529.034</ele>
        <time>2023-01-20T02:52:00Z</time>
      </trkpt>
      <trkpt lat="41.636060" lon="1.326320">
        <ele>529.027</ele>
        <time>2023-01-20T02:52:40Z</time>
      </trkpt>
      <trkpt lat="41.636100" lon="1.325860">
        <ele>529.094</ele>
        <time>2023-01-20T02:53:20Z</time>
      </trkpt>
      <trkpt lat="41.636500" lon="1.324710">
        <ele>526.057</ele>
        <time>2023-01-20T02:54:00Z</time>
      </trkpt>
      <trkpt lat="41.636530" lon="1.324380">
        <ele>526.022</ele>
        <time>2023-01-20T02:54:40Z</time>
      </trkpt>
      <trkpt lat="41.636440" lon="1.324160">
        <ele>527.009</ele>
        <time>2023-01-20T02:55:20Z</time>
      </trkpt>
      <trkpt lat="41.636230" lon="1.323990">
        <ele>527.090</ele>
        <time>2023-01-20T02:56:00Z</time>
      </trkpt>
      <trkpt lat="41.635900" lon="1.323860">
        <ele>529.031</ele>
        <time>2023-01-20T02:56:40Z</time>
      </trkpt>
      <trkpt lat="41.635840" lon="1.323790">
        <ele>529.072</ele>
        <time>2023-01-20T02:57:20Z</time>
      </trkpt>
      <trkpt lat="41.635830" lon="1.323690">
        <ele>530.056</ele>
        <time>2023-01-20T02:58:00Z</time>
      </trkpt>
      <trkpt lat="41.636080" lon="1.323120">
        <ele>534.087</ele>
        <time>2023-01-20T02:58:40Z</time>
      </trkpt>
      <trkpt lat="41.636290" lon="1.322740">
        <ele>535.073</ele>
        <time>2023-01-20T02:59:20Z</time>
      </trkpt>
      <trkpt lat="41.636700" lon="1.322370">
        <ele>535.053</ele>
        <time>2023-01-20T03:00:00Z</time>
      </trkpt>
      <trkpt lat="41.637240" lon="1.321710">
        <ele>531.049</ele>
        <time>2023-01-20T03:00:40Z</time>
      </trkpt>
      <trkpt lat="41.637460" lon="1.321570">
        <ele>530.072</ele>
        <time>2023-01-20T03:01:20Z</time>
      </trkpt>
      <trkpt lat="41.637740" lon="1.321750">
        <ele>528.011</ele>
        <time>2023-01-20T03:02:00Z</time>
      </trkpt>
      <trkpt lat="41.637970" lon="1.321960">
        <ele>526.021</ele>
        <time>2023-01-20T03:02:40Z</time>
      </trkpt>
      <trkpt lat="41.637960" lon="1.321960">
        <ele>526.003</ele>
        <time>2023-01-20T03:03:20Z</time>
      </trkpt>
      <trkpt lat="41.637990" lon="1.321980">
        <ele>526.009</ele>
        <time>2023-01-20T03:04:00Z</time>
      </trkpt>
      <trkpt lat="41.638160" lon="1.322290">
        <ele>524.012</ele>
        <time>2023-01-20T03:04:40Z</time>
      </trkpt>
      <trkpt lat="41.638340" lon="1.322460">
        <ele>523.053</ele>
        <time>2023-01-20T03:05:20Z</time>
      </trkpt>
      <trkpt lat="41.638510" lon="1.322450">
        <ele>522.044</ele>
        <time>2023-01-20T03:06:00Z</time>
      </trkpt>
      <trkpt lat="41.638870" lon="1.322260">
        <ele>521.028</ele>
        <time>2023-01-20T03:06:40Z</time>
      </trkpt>
      <trkpt lat="41.639390" lon="1.321750">
        <ele>519.099</ele>
        <time>2023-01-20T03:07:20Z</time>
      </trkpt>
      <trkpt lat="41.639820" lon="1.321400">
        <ele>519.015</ele>
        <time>2023-01-20T03:08:00Z</time>
      </trkpt>
      <trkpt lat="41.640230" lon="1.320960">
        <ele>520.035</ele>
        <time>2023-01-20T03:08:40Z</time>
      </trkpt>
      <trkpt lat="41.640470" lon="1.320770">
        <ele>521.081</ele>
        <time>2023-01-20T03:09:20Z</time>
      </trkpt>
      <trkpt lat="41.640680" lon="1.320530">
        <ele>521.024</ele>
        <time>2023-01-20T03:10:00Z</time>
      </trkpt>
      <trkpt lat="41.640970" lon="1.319950">
        <ele>522.016</ele>
        <time>2023-01-20T03:10:40Z</time>
      </trkpt>
      <trkpt lat="41.641520" lon="1.319030">
        <ele>523.076</ele>
        <time>2023-01-20T03:11:20Z</time>
      </trkpt>
      <trkpt lat="41.642200" lon="1.317550">
        <ele>524.013</ele>
        <time>2023-01-20T03:12:00Z</time>
      </trkpt>
      <trkpt lat="41.642630" lon="1.317540">
        <ele>524.009</ele>
        <time>2023-01-20T03:12:40Z</time>
      </trkpt>
      <trkpt lat="41.642940" lon="1.317470">
        <ele>524.072</ele>
        <time>2023-01-20T03:13:20Z</time>
      </trkpt>
      <trkpt lat="41.643310" lon="1.317030">
        <ele>524.073</ele>
        <time>2023-01-20T03:14:00Z</time>
      </trkpt>
      <trkpt lat="41.643380" lon="1.316550">
        <ele>523.074</ele>
        <time>2023-01-20T03:14:40Z</time>
      </trkpt>
      <trkpt lat="41.642880" lon="1.315770">
        <ele>523.038</ele>
        <time>2023-01-20T03:15:20Z</time>
      </trkpt>
      <trkpt lat="41.642700" lon="1.315190">
        <ele>527.079</ele>
        <time>2023-01-20T03:16:00Z</time>
      </trkpt>
      <trkpt lat="41.642700" lon="1.315190">
        <ele>527.045</ele>
        <time>2023-01-20T03:16:40Z</time>
      </trkpt>
      <trkpt lat="41.642640" lon="1.314970">
        <ele>529.025</ele>
        <time>2023-01-20T03:17:20Z</time>
      </trkpt>
      <trkpt lat="41.642480" lon="1.314640">
        <ele>533.091</ele>
        <time>2023-01-20T03:18:00Z</time>
      </trkpt>
      <trkpt lat="41.642300" lon="1.313640">
        <ele>541.064</ele>
        <time>2023-01-20T03:18:40Z</time>
      </trkpt>
      <trkpt lat="41.642300" lon="1.312060">
        <ele>553.083</ele>
        <time>2023-01-20T03:19:20Z</time>
      </trkpt>
      <trkpt lat="41.642160" lon="1.310860">
        <ele>568.025</ele>
        <time>2023-01-20T03:20:00Z</time>
      </trkpt>
      <trkpt lat="41.641850" lon="1.310400">
        <ele>575.017</ele>
        <time>2023-01-20T03:20:40Z</time>
      </trkpt>
      <trkpt lat="41.641850" lon="1.310410">
        <ele>575.009</ele>
        <time>2023-01-20T03:21:20Z</time>
      </trkpt>
      <trkpt lat="41.641670" lon="1.310120">
        <ele>579.079</ele>
        <time>2023-01-20T03:22:00Z</time>
      </trkpt>
      <trkpt lat="41.641560" lon="1.309840">
        <ele>583.090</ele>
        <time>2023-01-20T03:22:40Z</time>
      </trkpt>
      <trkpt lat="41.641490" lon="1.309590">
        <ele>586.011</ele>
        <time>2023-01-20T03:23:20Z</time>
      </trkpt>
      <trkpt lat="41.641420" lon="1.309340">
        <ele>590.045</ele>
        <time>2023-01-20T03:24:00Z</time>
      </trkpt>
      <trkpt lat="41.641360" lon="1.309250">
        <ele>591.036</ele>
        <time>2023-01-20T03:24:40Z</time>
      </trkpt>
      <trkpt lat="41.641260" lon="1.309170">
        <ele>593.032</ele>
        <time>2023-01-20T03:25:20Z</time>
      </trkpt>
      <trkpt lat="41.641090" lon="1.309110">
        <ele>595.082</ele>
        <time>2023-01-20T03:26:00Z</time>
      </trkpt>
      <trkpt lat="41.641100" lon="1.309100">
        <ele>595.098</ele>
        <time>2023-01-20T03:26:40Z</time>
      </trkpt>
      <trkpt lat="41.641010" lon="1.309100">
        <ele>595.081</ele>
        <time>2023-01-20T03:27:20Z</time>
      </trkpt>
      <trkpt lat="41.640800" lon="1.309210">
        <ele>597.014</ele>
        <time>2023-01-20T03:28:00Z</time>
      </trkpt>
      <trkpt lat="41.640750" lon="1.309200">
        <ele>597.054</ele>
        <time>2023-01-20T03:28:40Z</time>
      </trkpt>
      <trkpt lat="41.640730" lon="1.309130">
        <ele>597.009</ele>
        <time>2023-01-20T03:29:20Z</time>
      </trkpt>
      <trkpt lat="41.640850" lon="1.308980">
        <ele>599.009</ele>
        <time>2023-01-20T03:30:00Z</time>
      </trkpt>
      <trkpt lat="41.641120" lon="1.308830">
        <ele>600.052</ele>
        <time>2023-01-20T03:30:40Z</time>
      </trkpt>
      <trkpt lat="41.641150" lon="1.308790">
        <ele>601.023</ele>
        <time>2023-01-20T03:31:20Z</time>
      </trkpt>
      <trkpt lat="41.641140" lon="1.308700">
        <ele>601.024</ele>
        <time>2023-01-20T03:32:00Z</time>
      </trkpt>
      <trkpt lat="41.641050" lon="1.308520">
        <ele>602.048</ele>
        <time>2023-01-20T03:32:40Z</time>
      </trkpt>
      <trkpt lat="41.640940" lon="1.308230">
        <ele>603.099</ele>
        <time>2023-01-20T03:33:20Z</time>
      </trkpt>
      <trkpt lat="41.640920" lon="1.308110">
        <ele>604.035</ele>
        <time>2023-01-20T03:34:00Z</time>
      </trkpt>
      <trkpt lat="41.640910" lon="1.307420">
        <ele>607.075</ele>
        <time>2023-01-20T03:34:40Z</time>
      </trkpt>
      <trkpt lat="41.640950" lon="1.307110">
        <ele>608.051</ele>
        <time>2023-01-20T03:35:20Z</time>
      </trkpt>
      <trkpt lat="41.640950" lon="1.307110">
        <ele>608.054</ele>
        <time>2023-01-20T03:36:00Z</time>
      </trkpt>
      <trkpt lat="41.641040" lon="1.306500">
        <ele>610.064</ele>
        <time>2023-01-20T03:36:40Z</time>
      </trkpt>
      <trkpt lat="41.641560" lon="1.305920">
        <ele>611.006</ele>
        <time>2023-01-20T03:37:20Z</time>
      </trkpt>
      <trkpt lat="41.641650" lon="1.305840">
        <ele>612.016</ele>
        <time>2023-01-20T03:38:00Z</time>
      </trkpt>
      <trkpt lat="41.642000" lon="1.305380">
        <ele>614.009</ele>
        <time>2023-01-20T03:38:40Z</time>
      </trkpt>
      <trkpt lat="41.642270" lon="1.305170">
        <ele>615.017</ele>
        <time>2023-01-20T03:39:20Z</time>
      </trkpt>
      <trkpt lat="41.642470" lon="1.305030">
        <ele>616.038</ele>
        <time>2023-01-20T03:40:00Z</time>
      </trkpt>
      <trkpt lat="41.642570" lon="1.304940">
        <ele>617.019</ele>
        <time>2023-01-20T03:40:40Z</time>
      </trkpt>
      <trkpt lat="41.642830" lon="1.304610">
        <ele>618.053</ele>
        <time>2023-01-20T03:41:20Z</time>
      </trkpt>
      <trkpt lat="41.642930" lon="1.304440">
        <ele>618.084</ele>
        <time>2023-01-20T03:42:00Z</time>
      </trkpt>
      <trkpt lat="41.642940" lon="1.304440">
        <ele>618.050</ele>
        <time>2023-01-20T03:42:40Z</time>
      </trkpt>
      <trkpt lat="41.643220" lon="1.303990">
        <ele>619.060</ele>
        <time>2023-01-20T03:43:20Z</time>
      </trkpt>
      <trkpt lat="41.643720" lon="1.303610">
        <ele>621.086</ele>
        <time>2023-01-20T03:44:00Z</time>
      </trkpt>
      <trkpt lat="41.644140" lon="1.303440">
        <ele>621.089</ele>
        <time>2023-01-20T03:44:40Z</time>
      </trkpt>
      <trkpt lat="41.644720" lon="1.303590">
        <ele>621.085</ele>
        <time>2023-01-20T03:45:20Z</time>
      </trkpt>
      <trkpt lat="41.644900" lon="1.303440">
        <ele>621.089</ele>
        <time>2023-01-20T03:46:00Z</time>
      </trkpt>
      <trkpt lat="41.645170" lon="1.303310">
        <ele>621.017</ele>
        <time>2023-01-20T03:46:40Z</time>
      </trkpt>
      <trkpt lat="41.645590" lon="1.303220">
        <ele>619.009</ele>
        <time>2023-01-20T03:47:20Z</time>
      </trkpt>
      <trkpt lat="41.645840" lon="1.303030">
        <ele>618.089</ele>
        <time>2023-01-20T03:48:00Z</time>
      </trkpt>
      <trkpt lat="41.646170" lon="1.302940">
        <ele>616.060</ele>
        <time>2023-01-20T03:48:40Z</time>
      </trkpt>
      <trkpt lat="41.646670" lon="1.303080">
        <ele>614.061</ele>
        <time>2023-01-20T03:49:20Z</time>
      </trkpt>
      <trkpt lat="41.646660" lon="1.303090">
        <ele>614.025</ele>
        <time>2023-01-20T03:50:00Z</time>
      </trkpt>
      <trkpt lat="41.647200" lon="1.303250">
        <ele>613.056</ele>
        <time>2023-01-20T03:50:40Z</time>
      </trkpt>
      <trkpt lat="41.647510" lon="1.303530">
        <ele>612.072</ele>
        <time>2023-01-20T03:51:20Z</time>
      </trkpt>
      <trkpt lat="41.647960" lon="1.303260">
        <ele>611.022</ele>
        <time>2023-01-20T03:52:00Z</time>
      </trkpt>
      <trkpt lat="41.648450" lon="1.303360">
        <ele>607.098</ele>
        <time>2023-01-20T03:52:40Z</time>
      </trkpt>
      <trkpt lat="41.648740" lon="1.302690">
        <ele>606.091</ele>
        <time>2023-01-20T03:53:20Z</time>
      </trkpt>
      <trkpt lat="41.648770" lon="1.302120">
        <ele>607.069</ele>
        <time>2023-01-20T03:54:00Z</time>
      </trkpt>
      <trkpt lat="41.648880" lon="1.301970">
        <ele>607.004</ele>
        <time>2023-01-20T03:54:40Z</time>
      </trkpt>
      <trkpt lat="41.648920" lon="1.301790">
        <ele>607.024</ele>
        <time>2023-01-20T03:55:20Z</time>
      </trkpt>
      <trkpt lat="41.649110" lon="1.301540">
        <ele>605.009</ele>
        <time>2023-01-20T03:56:00Z</time>
      </trkpt>
      <trkpt lat="41.649060" lon="1.301850">
        <ele>604.037</ele>
        <time>2023-01-20T03:56:40Z</time>
      </trkpt>
      <trkpt lat="41.648920" lon="1.302360">
        <ele>601.038</ele>
        <time>2023-01-20T03:57:20Z</time>
      </trkpt>
      <trkpt lat="41.648990" lon="1.302740">
        <ele>598.089</ele>
        <time>2023-01-20T03:58:00Z</time>
      </trkpt>
      <trkpt lat="41.649000" lon="1.302730">
        <ele>598.033</ele>
        <time>2023-01-20T03:58:40Z</time>
      </trkpt>
      <trkpt lat="41.648980" lon="1.303280">
        <ele>594.084</ele>
        <time>2023-01-20T03:59:20Z</time>
      </trkpt>
      <trkpt lat="41.649030" lon="1.303640">
        <ele>590.010</ele>
        <time>2023-01-20T04:00:00Z</time>
      </trkpt>
      <trkpt lat="41.649240" lon="1.304080">
        <ele>583.040</ele>
        <time>2023-01-20T04:00:40Z</time>
      </trkpt>
      <trkpt lat="41.649620" lon="1.305070">
        <ele>574.096</ele>
        <time>2023-01-20T04:01:20Z</time>
      </trkpt>
      <trkpt lat="41.649730" lon="1.305120">
        <ele>573.069</ele>
        <time>2023-01-20T04:02:00Z</time>
      </trkpt>
      <trkpt lat="41.650150" lon="1.304900">
        <ele>568.047</ele>
        <time>2023-01-20T04:02:40Z</time>
      </trkpt>
      <trkpt lat="41.650670" lon="1.304570">
        <ele>558.029</ele>
        <time>2023-01-20T04:03:20Z</time>
      </trkpt>
      <trkpt lat="41.650960" lon="1.304510">
        <ele>555.021</ele>
        <time>2023-01-20T04:04:00Z</time>
      </trkpt>
      <trkpt lat="41.651060" lon="1.304610">
        <ele>555.009</ele>
        <time>2023-01-20T04:04:40Z</time>
      </trkpt>
      <trkpt lat="41.651050" lon="1.305160">
        <ele>552.095</ele>
        <time>2023-01-20T04:05:20Z</time>
      </trkpt>
      <trkpt lat="41.651060" lon="1.305390">
        <ele>552.096</ele>
        <time>2023-01-20T04:06:00Z</time>
      </trkpt>
      <trkpt lat="41.651160" lon="1.305300">
        <ele>550.097</ele>
        <time>2023-01-20T04:06:40Z</time>
      </trkpt>
      <trkpt lat="41.651570" lon="1.304800">
        <ele>543.031</ele>
        <time>2023-01-20T04:07:20Z</time>
      </trkpt>
      <trkpt lat="41.651590" lon="1.304640">
        <ele>541.012</ele>
        <time>2023-01-20T04:08:00Z</time>
      </trkpt>
      <trkpt lat="41.651590" lon="1.304640">
        <ele>541.088</ele>
        <time>2023-01-20T04:08:40Z</time>
      </trkpt>
      <trkpt lat="41.651610" lon="1.304460">
        <ele>539.068</ele>
        <time>2023-01-20T04:09:20Z</time>
      </trkpt>
      <trkpt lat="41.651500" lon="1.303950">
        <ele>539.084</ele>
        <time>2023-01-20T04:10:00Z</time>
      </trkpt>
      <trkpt lat="41.651520" lon="1.303690">
        <ele>538.027</ele>
        <time>2023-01-20T04:10:40Z</time>
      </trkpt>
      <trkpt lat="41.651680" lon="1.303450">
        <ele>538.071</ele>
        <time>2023-01-20T04:11:20Z</time>
      </trkpt>
      <trkpt lat="41.651840" lon="1.303380">
        <ele>537.041</ele>
        <time>2023-01-20T04:12:00Z</time>
      </trkpt>
      <trkpt lat="41.652010" lon="1.303570">
        <ele>536.015</ele>
        <time>2023-01-20T04:12:40Z</time>
      </trkpt>
      <trkpt lat="41.652240" lon="1.303810">
        <ele>535.009</ele>
        <time>2023-01-20T04:13:20Z</time>
      </trkpt>
      <trkpt lat="41.652370" lon="1.303880">
        <ele>535.038</ele>
        <time>2023-01-20T04:14:00Z</time>
      </trkpt>
      <trkpt lat="41.652960" lon="1.304330">
        <ele>529.089</ele>
        <time>2023-01-20T04:14:40Z</time>
      </trkpt>
      <trkpt lat="41.653380" lon="1.305110">
        <ele>524.010</ele>
        <time>2023-01-20T04:15:20Z</time>
      </trkpt>
      <trkpt lat="41.653390" lon="1.305110">
        <ele>524.034</ele>
        <time>2023-01-20T04:16:00Z</time>
      </trkpt>
      <trkpt lat="41.653610" lon="1.305540">
        <ele>522.095</ele>
        <time>2023-01-20T04:16:40Z</time>
      </trkpt>
      <trkpt lat="41.654210" lon="1.305340">
        <ele>518.031</ele>
        <time>2023-01-20T04:17:20Z</time>
      </trkpt>
      <trkpt lat="41.654600" lon="1.305300">
        <ele>515.071</ele>
        <time>2023-01-20T04:18:00Z</time>
      </trkpt>
      <trkpt lat="41.654820" lon="1.305130">
        <ele>514.047</ele>
        <time>2023-01-20T04:18:40Z</time>
      </trkpt>
      <trkpt lat="41.655030" lon="1.304810">
        <ele>512.080</ele>
        <time>2023-01-20T04:19:20Z</time>
      </trkpt>
      <trkpt lat="41.655160" lon="1.304870">
        <ele>511.022</ele>
        <time>2023-01-20T04:20:00Z</time>
      </trkpt>
      <trkpt lat="41.655170" lon="1.305100">
        <ele>511.062</ele>
        <time>2023-01-20T04:20:40Z</time>
      </trkpt>
      <trkpt lat="41.655160" lon="1.305420">
        <ele>509.008</ele>
        <time>2023-01-20T04:21:20Z</time>
      </trkpt>
      <trkpt lat="41.655270" lon="1.305650">
        <ele>508.009</ele>
        <time>2023-01-20T04:22:00Z</time>
      </trkpt>
      <trkpt lat="41.655350" lon="1.306100">
        <ele>506.093</ele>
        <time>2023-01-20T04:22:40Z</time>
      </trkpt>
      <trkpt lat="41.655490" lon="1.306200">
        <ele>505.074</ele>
        <time>2023-01-20T04:23:20Z</time>
      </trkpt>
      <trkpt lat="41.655740" lon="1.306150">
        <ele>505.015</ele>
        <time>2023-01-20T04:24:00Z</time>
      </trkpt>
      <trkpt lat="41.655930" lon="1.306010">
        <ele>504.029</ele>
        <time>2023-01-20T04:24:40Z</time>
      </trkpt>
      <trkpt lat="41.656400" lon="1.305540">
        <ele>502.070</ele>
        <time>2023-01-20T04:25:20Z</time>
      </trkpt>
      <trkpt lat="41.656400" lon="1.305540">
        <ele>502.036</ele>
        <time>2023-01-20T04:26:00Z</time>
      </trkpt>
      <trkpt lat="41.656540" lon="1.305380">
        <ele>502.036</ele>
        <time>2023-01-20T04:26:40Z</time>
      </trkpt>
      <trkpt lat="41.656890" lon="1.305130">
        <ele>501.092</ele>
        <time>2023-01-20T04:27:20Z</time>
      </trkpt>
      <trkpt lat="41.657010" lon="1.305140">
        <ele>501.025</ele>
        <time>2023-01-20T04:28:00Z</time>
      </trkpt>
      <trkpt lat="41.657340" lon="1.304840">
        <ele>501.048</ele>
        <time>2023-01-20T04:28:40Z</time>
      </trkpt>
      <trkpt lat="41.657540" lon="1.304500">
        <ele>501.061</ele>
        <time>2023-01-20T04:29:20Z</time>
      </trkpt>
      <trkpt lat="41.657770" lon="1.304170">
        <ele>500.017</ele>
        <time>2023-01-20T04:30:00Z</time>
      </trkpt>
      <trkpt lat="41.658060" lon="1.303870">
        <ele>500.009</ele>
        <time>2023-01-20T04:30:40Z</time>
      </trkpt>
      <trkpt lat="41.658600" lon="1.303030">
        <ele>500.095</ele>
        <time>2023-01-20T04:31:20Z</time>
      </trkpt>
      <trkpt lat="41.658600" lon="1.303030">
        <ele>500.096</ele>
        <time>2023-01-20T04:32:00Z</time>
      </trkpt>
      <trkpt lat="41.658790" lon="1.302730">
        <ele>500.087</ele>
        <time>2023-01-20T04:32:40Z</time>
      </trkpt>
      <trkpt lat="41.659100" lon="1.301990">
        <ele>499.041</ele>
        <time>2023-01-20T04:33:20Z</time>
      </trkpt>
      <trkpt lat="41.659330" lon="1.301620">
        <ele>499.052</ele>
        <time>2023-01-20T04:34:00Z</time>
      </trkpt>
      <trkpt lat="41.659480" lon="1.301410">
        <ele>499.038</ele>
        <time>2023-01-20T04:34:40Z</time>
      </trkpt>
      <trkpt lat="41.659720" lon="1.300880">
        <ele>499.098</ele>
        <time>2023-01-20T04:35:20Z</time>
      </trkpt>
      <trkpt lat="41.659910" lon="1.300160">
        <ele>501.014</ele>
        <time>2023-01-20T04:36:00Z</time>
      </trkpt>
      <trkpt lat="41.660220" lon="1.299490">
        <ele>505.017</ele>
        <time>2023-01-20T04:36:40Z</time>
      </trkpt>
      <trkpt lat="41.660490" lon="1.298810">
        <ele>503.077</ele>
        <time>2023-01-20T04:37:20Z</time>
      </trkpt>
      <trkpt lat="41.660880" lon="1.298050">
        <ele>496.061</ele>
        <time>2023-01-20T04:38:00Z</time>
      </trkpt>
      <trkpt lat="41.660970" lon="1.297990">
        <ele>494.027</ele>
        <time>2023-01-20T04:38:40Z</time>
      </trkpt>
      <trkpt lat="41.661800" lon="1.298530">
        <ele>485.009</ele>
        <time>2023-01-20T04:39:20Z</time>
      </trkpt>
      <trkpt lat="41.662030" lon="1.297770">
        <ele>484.038</ele>
        <time>2023-01-20T04:40:00Z</time>
      </trkpt>
      <trkpt lat="41.662030" lon="1.297780">
        <ele>484.069</ele>
        <time>2023-01-20T04:40:40Z</time>
      </trkpt>
      <trkpt lat="41.662240" lon="1.296740">
        <ele>485.060</ele>
        <time>2023-01-20T04:41:20Z</time>
      </trkpt>
      <trkpt lat="41.662240" lon="1.296330">
        <ele>487.084</ele>
        <time>2023-01-20T04:42:00Z</time>
      </trkpt>
      <trkpt lat="41.662270" lon="1.296060">
        <ele>488.045</ele>
        <time>2023-01-20T04:42:40Z</time>
      </trkpt>
      <trkpt lat="41.662300" lon="1.296050">
        <ele>488.071</ele>
        <time>2023-01-20T04:43:20Z</time>
      </trkpt>
      <trkpt lat="41.662270" lon="1.296000">
        <ele>489.041</ele>
        <time>2023-01-20T04:44:00Z</time>
      </trkpt>
      <trkpt lat="41.662150" lon="1.295950">
        <ele>489.027</ele>
        <time>2023-01-20T04:44:40Z</time>
      </trkpt>
      <trkpt lat="41.662150" lon="1.295910">
        <ele>489.080</ele>
        <time>2023-01-20T04:45:20Z</time>
      </trkpt>
      <trkpt lat="41.662160" lon="1.295680">
        <ele>489.053</ele>
        <time>2023-01-20T04:46:00Z</time>
      </trkpt>
      <trkpt lat="41.662200" lon="1.295450">
        <ele>488.004</ele>
        <time>2023-01-20T04:46:40Z</time>
      </trkpt>
      <trkpt lat="41.662210" lon="1.295200">
        <ele>487.014</ele>
        <time>2023-01-20T04:47:20Z</time>
      </trkpt>
      <trkpt lat="41.662240" lon="1.295040">
        <ele>487.009</ele>
        <time>2023-01-20T04:48:00Z</time>
      </trkpt>
      <trkpt lat="41.662400" lon="1.294520">
        <ele>486.046</ele>
        <time>2023-01-20T04:48:40Z</time>
      </trkpt>
      <trkpt lat="41.662430" lon="1.294390">
        <ele>486.037</ele>
        <time>2023-01-20T04:49:20Z</time>
      </trkpt>
      <trkpt lat="41.662430" lon="1.294250">
        <ele>486.038</ele>
        <time>2023-01-20T04:50:00Z</time>
      </trkpt>
      <trkpt lat="41.662360" lon="1.294060">
        <ele>487.062</ele>
        <time>2023-01-20T04:50:40Z</time>
      </trkpt>
      <trkpt lat="41.662190" lon="1.293770">
        <ele>487.013</ele>
        <time>2023-01-20T04:51:20Z</time>
      </trkpt>
      <trkpt lat="41.662120" lon="1.293570">
        <ele>488.089</ele>
        <time>2023-01-20T04:52:00Z</time>
      </trkpt>
      <trkpt lat="41.662000" lon="1.293110">
        <ele>488.029</ele>
        <time>2023-01-20T04:52:40Z</time>
      </trkpt>
      <trkpt lat="41.662000" lon="1.293100">
        <ele>488.095</ele>
        <time>2023-01-20T04:53:20Z</time>
      </trkpt>
      <trkpt lat="41.661980" lon="1.293000">
        <ele>488.048</ele>
        <time>2023-01-20T04:54:00Z</time>
      </trkpt>
      <trkpt lat="41.661990" lon="1.292770">
        <ele>488.061</ele>
        <time>2023-01-20T04:54:40Z</time>
      </trkpt>
      <trkpt lat="41.662070" lon="1.292320">
        <ele>489.021</ele>
        <time>2023-01-20T04:55:20Z</time>
      </trkpt>
      <trkpt lat="41.662060" lon="1.292080">
        <ele>489.013</ele>
        <time>2023-01-20T04:56:00Z</time>
      </trkpt>
      <trkpt lat="41.662090" lon="1.291850">
        <ele>489.009</ele>
        <time>2023-01-20T04:56:40Z</time>
      </trkpt>
      <trkpt lat="41.662110" lon="1.291680">
        <ele>489.077</ele>
        <time>2023-01-20T04:57:20Z</time>
      </trkpt>
      <trkpt lat="41.662070" lon="1.291480">
        <ele>489.018</ele>
        <time>2023-01-20T04:58:00Z</time>
      </trkpt>
      <trkpt lat="41.662040" lon="1.291050">
        <ele>490.049</ele>
        <time>2023-01-20T04:58:40Z</time>
      </trkpt>
      <trkpt lat="41.662060" lon="1.290730">
        <ele>490.013</ele>
        <time>2023-01-20T04:59:20Z</time>
      </trkpt>
      <trkpt lat="41.661980" lon="1.290490">
        <ele>490.094</ele>
        <time>2023-01-20T05:00:00Z</time>
      </trkpt>
      <trkpt lat="41.661950" lon="1.290090">
        <ele>490.040</ele>
        <time>2023-01-20T05:00:40Z</time>
      </trkpt>
      <trkpt lat="41.661930" lon="1.289750">
        <ele>488.090</ele>
        <time>2023-01-20T05:01:20Z</time>
      </trkpt>
      <trkpt lat="41.662000" lon="1.289710">
        <ele>487.076</ele>
        <time>2023-01-20T05:02:00Z</time>
      </trkpt>
      <trkpt lat="41.662200" lon="1.289750">
        <ele>485.089</ele>
        <time>2023-01-20T05:02:40Z</time>
      </trkpt>
      <trkpt lat="41.662300" lon="1.289690">
        <ele>484.016</ele>
        <time>2023-01-20T05:03:20Z</time>
      </trkpt>
      <trkpt lat="41.662380" lon="1.289560">
        <ele>482.076</ele>
        <time>2023-01-20T05:04:00Z</time>
      </trkpt>
      <trkpt lat="41.662380" lon="1.289440">
        <ele>481.013</ele>
        <time>2023-01-20T05:04:40Z</time>
      </trkpt>
      <trkpt lat="41.662340" lon="1.289300">
        <ele>481.009</ele>
        <time>2023-01-20T05:05:20Z</time>
      </trkpt>
      <trkpt lat="41.662190" lon="1.289000">
        <ele>481.072</ele>
        <time>2023-01-20T05:06:00Z</time>
      </trkpt>
      <trkpt lat="41.662160" lon="1.288510">
        <ele>481.053</ele>
        <time>2023-01-20T05:06:40Z</time>
      </trkpt>
      <trkpt lat="41.662170" lon="1.288260">
        <ele>480.044</ele>
        <time>2023-01-20T05:07:20Z</time>
      </trkpt>
      <trkpt lat="41.662230" lon="1.288040">
        <ele>480.018</ele>
        <time>2023-01-20T05:08:00Z</time>
      </trkpt>
      <trkpt lat="41.662410" lon="1.287720">
        <ele>478.059</ele>
        <time>2023-01-20T05:08:40Z</time>
      </trkpt>
      <trkpt lat="41.662410" lon="1.287730">
        <ele>478.025</ele>
        <time>2023-01-20T05:09:20Z</time>
      </trkpt>
      <trkpt lat="41.662620" lon="1.287480">
        <ele>477.015</ele>
        <time>2023-01-20T05:10:00Z</time>
      </trkpt>
      <trkpt lat="41.662720" lon="1.287320">
        <ele>476.051</ele>
        <time>2023-01-20T05:10:40Z</time>
      </trkpt>
      <trkpt lat="41.662810" lon="1.286940">
        <ele>474.074</ele>
        <time>2023-01-20T05:11:20Z</time>
      </trkpt>
      <trkpt lat="41.662800" lon="1.286340">
        <ele>472.019</ele>
        <time>2023-01-20T05:12:00Z</time>
      </trkpt>
      <trkpt lat="41.662890" lon="1.285580">
        <ele>474.009</ele>
        <time>2023-01-20T05:12:40Z</time>
      </trkpt>
      <trkpt lat="41.662960" lon="1.285350">
        <ele>475.019</ele>
        <time>2023-01-20T05:13:20Z</time>
      </trkpt>
      <trkpt lat="41.663400" lon="1.284950">
        <ele>476.009</ele>
        <time>2023-01-20T05:14:00Z</time>
      </trkpt>
      <trkpt lat="41.663480" lon="1.284780">
        <ele>475.032</ele>
        <time>2023-01-20T05:14:40Z</time>
      </trkpt>
      <trkpt lat="41.663490" lon="1.284610">
        <ele>475.073</ele>
        <time>2023-01-20T05:15:20Z</time>
      </trkpt>
      <trkpt lat="41.663440" lon="1.284320">
        <ele>475.084</ele>
        <time>2023-01-20T05:16:00Z</time>
      </trkpt>
      <trkpt lat="41.663360" lon="1.284000">
        <ele>474.048</ele>
        <time>2023-01-20T05:16:40Z</time>
      </trkpt>
      <trkpt lat="41.663170" lon="1.283590">
        <ele>474.099</ele>
        <time>2023-01-20T05:17:20Z</time>
      </trkpt>
      <trkpt lat="41.663170" lon="1.283590">
        <ele>474.055</ele>
        <time>2023-01-20T05:18:00Z</time>
      </trkpt>
      <trkpt lat="41.662870" lon="1.282930">
        <ele>474.095</ele>
        <time>2023-01-20T05:18:40Z</time>
      </trkpt>
      <trkpt lat="41.662740" lon="1.282300">
        <ele>474.021</ele>
        <time>2023-01-20T05:19:20Z</time>
      </trkpt>
      <trkpt lat="41.662400" lon="1.281640">
        <ele>474.094</ele>
        <time>2023-01-20T05:20:00Z</time>
      </trkpt>
      <trkpt lat="41.662340" lon="1.281250">
        <ele>475.049</ele>
        <time>2023-01-20T05:20:40Z</time>
      </trkpt>
      <trkpt lat="41.662330" lon="1.281000">
        <ele>475.002</ele>
        <time>2023-01-20T05:21:20Z</time>
      </trkpt>
      <trkpt lat="41.662360" lon="1.280780">
        <ele>474.022</ele>
        <time>2023-01-20T05:22:00Z</time>
      </trkpt>
      <trkpt lat="41.662450" lon="1.280460">
        <ele>472.009</ele>
        <time>2023-01-20T05:22:40Z</time>
      </trkpt>
      <trkpt lat="41.662810" lon="1.279950">
        <ele>469.015</ele>
        <time>2023-01-20T05:23:20Z</time>
      </trkpt>
      <trkpt lat="41.662910" lon="1.279720">
        <ele>469.026</ele>
        <time>2023-01-20T05:24:00Z</time>
      </trkpt>
      <trkpt lat="41.662930" lon="1.279560">
        <ele>469.097</ele>
        <time>2023-01-20T05:24:40Z</time>
      </trkpt>
      <trkpt lat="41.662900" lon="1.279350">
        <ele>470.071</ele>
        <time>2023-01-20T05:25:20Z</time>
      </trkpt>
      <trkpt lat="41.662770" lon="1.278930">
        <ele>470.052</ele>
        <time>2023-01-20T05:26:00Z</time>
      </trkpt>
      <trkpt lat="41.662700" lon="1.278540">
        <ele>471.088</ele>
        <time>2023-01-20T05:26:40Z</time>
      </trkpt>
      <trkpt lat="41.662700" lon="1.278270">
        <ele>471.068</ele>
        <time>2023-01-20T05:27:20Z</time>
      </trkpt>
      <trkpt lat="41.662730" lon="1.277860">
        <ele>471.064</ele>
        <time>2023-01-20T05:28:00Z</time>
      </trkpt>
      <trkpt lat="41.662740" lon="1.277270">
        <ele>471.077</ele>
        <time>2023-01-20T05:28:40Z</time>
      </trkpt>
      <trkpt lat="41.662680" lon="1.276940">
        <ele>470.015</ele>
        <time>2023-01-20T05:29:20Z</time>
      </trkpt>
      <trkpt lat="41.662680" lon="1.276190">
        <ele>469.065</ele>
        <time>2023-01-20T05:30:00Z</time>
      </trkpt>
      <trkpt lat="41.662660" lon="1.275670">
        <ele>469.011</ele>
        <time>2023-01-20T05:30:40Z</time>
      </trkpt>
      <trkpt lat="41.662590" lon="1.275300">
        <ele>469.009</ele>
        <time>2023-01-20T05:31:20Z</time>
      </trkpt>
      <trkpt lat="41.667184" lon="1.270808">
        <ele>540.635</ele>
        <time>2021-08-19T07:48:14Z</time>
      </trkpt>
      <trkpt lat="41.667164" lon="1.270904">
        <ele>542.586</ele>
        <time>2021-08-19T07:48:18Z</time>
      </trkpt>
      <trkpt lat="41.667164" lon="1.270904">
        <ele>542.514</ele>
        <time>2021-08-19T07:48:18Z</time>
      </trkpt>
      <trkpt lat="41.667116" lon="1.270861">
        <ele>541.608</ele>
        <time>2021-08-19T07:48:20Z</time>
      </trkpt>
      <trkpt lat="41.667142" lon="1.270913">
        <ele>542.721</ele>
        <time>2021-08-19T07:48:33Z</time>
      </trkpt>
      <trkpt lat="41.667185" lon="1.270935">
        <ele>543.274</ele>
        <time>2021-08-19T07:49:05Z</time>
      </trkpt>
      <trkpt lat="41.667163" lon="1.270880">
        <ele>542.047</ele>
        <time>2021-08-19T07:49:55Z</time>
      </trkpt>
      <trkpt lat="41.667195" lon="1.270836">
        <ele>541.148</ele>
        <time>2021-08-19T07:51:16Z</time>
      </trkpt>
      <trkpt lat="41.667229" lon="1.270790">
        <ele>540.155</ele>
        <time>2021-08-19T07:53:40Z</time>
      </trkpt>
      <trkpt lat="41.667275" lon="1.270805">
        <ele>539.983</ele>
        <time>2021-08-19T07:53:43Z</time>
      </trkpt>
      <trkpt lat="41.667321" lon="1.270808">
        <ele>539.462</ele>
        <time>2021-08-19T07:53:49Z</time>
      </trkpt>
      <trkpt lat="41.667372" lon="1.270813">
        <ele>538.941</ele>
        <time>2021-08-19T07:54:00Z</time>
      </trkpt>
      <trkpt lat="41.667432" lon="1.270823">
        <ele>538.526</ele>
        <time>2021-08-19T07:54:13Z</time>
      </trkpt>
      <trkpt lat="41.667475" lon="1.270843">
        <ele>538.447</ele>
        <time>2021-08-19T07:54:15Z</time>
      </trkpt>
      <trkpt lat="41.667534" lon="1.270867">
        <ele>538.011</ele>
        <time>2021-08-19T07:54:17Z</time>
      </trkpt>
      <trkpt lat="41.667593" lon="1.270882">
        <ele>537.308</ele>
        <time>2021-08-19T07:54:19Z</time>
      </trkpt>
      <trkpt lat="41.667638" lon="1.270893">
        <ele>536.740</ele>
        <time>2021-08-19T07:54:21Z</time>
      </trkpt>
      <trkpt lat="41.667686" lon="1.270899">
        <ele>536.063</ele>
        <time>2021-08-19T07:54:23Z</time>
      </trkpt>
      <trkpt lat="41.667733" lon="1.270918">
        <ele>535.646</ele>
        <time>2021-08-19T07:54:25Z</time>
      </trkpt>
      <trkpt lat="41.667780" lon="1.270935">
        <ele>535.277</ele>
        <time>2021-08-19T07:54:27Z</time>
      </trkpt>
      <trkpt lat="41.667824" lon="1.270952">
        <ele>535.414</ele>
        <time>2021-08-19T07:54:29Z</time>
      </trkpt>
      <trkpt lat="41.667877" lon="1.270953">
        <ele>535.262</ele>
        <time>2021-08-19T07:54:31Z</time>
      </trkpt>
      <trkpt lat="41.667926" lon="1.270962">
        <ele>535.271</ele>
        <time>2021-08-19T07:54:33Z</time>
      </trkpt>
      <trkpt lat="41.667978" lon="1.270976">
        <ele>535.420</ele>
        <time>2021-08-19T07:54:35Z</time>
      </trkpt>
      <trkpt lat="41.668036" lon="1.270998">
        <ele>535.685</ele>
        <time>2021-08-19T07:54:37Z</time>
      </trkpt>
      <trkpt lat="41.668093" lon="1.271013">
        <ele>536.189</ele>
        <time>2021-08-19T07:54:39Z</time>
      </trkpt>
      <trkpt lat="41.668159" lon="1.271035">
        <ele>537.217</ele>
        <time>2021-08-19T07:54:42Z</time>
      </trkpt>
      <trkpt lat="41.668211" lon="1.271047">
        <ele>537.908</ele>
        <time>2021-08-19T07:54:44Z</time>
      </trkpt>
      <trkpt lat="41.668264" lon="1.271070">
        <ele>539.026</ele>
        <time>2021-08-19T07:54:46Z</time>
      </trkpt>
      <trkpt lat="41.668327" lon="1.271080">
        <ele>539.989</ele>
        <time>2021-08-19T07:54:48Z</time>
      </trkpt>
      <trkpt lat="41.668377" lon="1.271085">
        <ele>539.732</ele>
        <time>2021-08-19T07:54:50Z</time>
      </trkpt>
      <trkpt lat="41.668435" lon="1.271109">
        <ele>539.863</ele>
        <time>2021-08-19T07:54:52Z</time>
      </trkpt>
      <trkpt lat="41.668482" lon="1.271122">
        <ele>539.720</ele>
        <time>2021-08-19T07:54:54Z</time>
      </trkpt>
      <trkpt lat="41.668534" lon="1.271134">
        <ele>539.478</ele>
        <time>2021-08-19T07:54:56Z</time>
      </trkpt>
      <trkpt lat="41.668596" lon="1.271152">
        <ele>539.127</ele>
        <time>2021-08-19T07:54:58Z</time>
      </trkpt>
      <trkpt lat="41.668649" lon="1.271173">
        <ele>538.936</ele>
        <time>2021-08-19T07:55:01Z</time>
      </trkpt>
      <trkpt lat="41.668695" lon="1.271181">
        <ele>538.558</ele>
        <time>2021-08-19T07:55:03Z</time>
      </trkpt>
      <trkpt lat="41.668742" lon="1.271183">
        <ele>537.952</ele>
        <time>2021-08-19T07:55:04Z</time>
      </trkpt>
      <trkpt lat="41.668807" lon="1.271221">
        <ele>538.117</ele>
        <time>2021-08-19T07:55:07Z</time>
      </trkpt>
      <trkpt lat="41.668855" lon="1.271246">
        <ele>538.308</ele>
        <time>2021-08-19T07:55:09Z</time>
      </trkpt>
      <trkpt lat="41.668907" lon="1.271261">
        <ele>538.293</ele>
        <time>2021-08-19T07:55:11Z</time>
      </trkpt>
      <trkpt lat="41.668960" lon="1.271269">
        <ele>538.286</ele>
        <time>2021-08-19T07:55:13Z</time>
      </trkpt>
      <trkpt lat="41.669006" lon="1.271270">
        <ele>538.029</ele>
        <time>2021-08-19T07:55:15Z</time>
      </trkpt>
      <trkpt lat="41.669065" lon="1.271294">
        <ele>538.650</ele>
        <time>2021-08-19T07:55:17Z</time>
      </trkpt>
      <trkpt lat="41.669114" lon="1.271318">
        <ele>539.397</ele>
        <time>2021-08-19T07:55:19Z</time>
      </trkpt>
      <trkpt lat="41.669160" lon="1.271323">
        <ele>539.465</ele>
        <time>2021-08-19T07:55:21Z</time>
      </trkpt>
      <trkpt lat="41.669213" lon="1.271327">
        <ele>539.254</ele>
        <time>2021-08-19T07:55:23Z</time>
      </trkpt>
      <trkpt lat="41.669257" lon="1.271354">
        <ele>539.823</ele>
        <time>2021-08-19T07:55:25Z</time>
      </trkpt>
      <trkpt lat="41.669306" lon="1.271363">
        <ele>539.778</ele>
        <time>2021-08-19T07:55:27Z</time>
      </trkpt>
      <trkpt lat="41.669354" lon="1.271367">
        <ele>539.333</ele>
        <time>2021-08-19T07:55:28Z</time>
      </trkpt>
      <trkpt lat="41.669404" lon="1.271387">
        <ele>539.426</ele>
        <time>2021-08-19T07:55:30Z</time>
      </trkpt>
      <trkpt lat="41.669450" lon="1.271401">
        <ele>539.408</ele>
        <time>2021-08-19T07:55:32Z</time>
      </trkpt>
      <trkpt lat="41.669508" lon="1.271423">
        <ele>540.695</ele>
        <time>2021-08-19T07:55:34Z</time>
      </trkpt>
      <trkpt lat="41.669561" lon="1.271435">
        <ele>541.358</ele>
        <time>2021-08-19T07:55:36Z</time>
      </trkpt>
      <trkpt lat="41.669607" lon="1.271447">
        <ele>541.951</ele>
        <time>2021-08-19T07:55:38Z</time>
      </trkpt>
      <trkpt lat="41.669660" lon="1.271471">
        <ele>542.882</ele>
        <time>2021-08-19T07:55:41Z</time>
      </trkpt>
      <trkpt lat="41.669705" lon="1.271498">
        <ele>543.599</ele>
        <time>2021-08-19T07:55:43Z</time>
      </trkpt>
      <trkpt lat="41.669747" lon="1.271521">
        <ele>544.057</ele>
        <time>2021-08-19T07:55:45Z</time>
      </trkpt>
      <trkpt lat="41.669791" lon="1.271553">
        <ele>544.776</ele>
        <time>2021-08-19T07:55:47Z</time>
      </trkpt>
      <trkpt lat="41.669833" lon="1.271592">
        <ele>545.415</ele>
        <time>2021-08-19T07:55:49Z</time>
      </trkpt>
      <trkpt lat="41.669881" lon="1.271600">
        <ele>545.731</ele>
        <time>2021-08-19T07:55:51Z</time>
      </trkpt>
      <trkpt lat="41.669934" lon="1.271614">
        <ele>546.161</ele>
        <time>2021-08-19T07:55:54Z</time>
      </trkpt>
      <trkpt lat="41.669990" lon="1.271620">
        <ele>546.507</ele>
        <time>2021-08-19T07:55:56Z</time>
      </trkpt>
      <trkpt lat="41.670039" lon="1.271619">
        <ele>546.608</ele>
        <time>2021-08-19T07:55:58Z</time>
      </trkpt>
      <trkpt lat="41.670088" lon="1.271625">
        <ele>546.961</ele>
        <time>2021-08-19T07:56:01Z</time>
      </trkpt>
      <trkpt lat="41.670146" lon="1.271623">
        <ele>547.184</ele>
        <time>2021-08-19T07:56:03Z</time>
      </trkpt>
      <trkpt lat="41.670204" lon="1.271617">
        <ele>547.367</ele>
        <time>2021-08-19T07:56:05Z</time>
      </trkpt>
      <trkpt lat="41.670253" lon="1.271614">
        <ele>547.538</ele>
        <time>2021-08-19T07:56:07Z</time>
      </trkpt>
      <trkpt lat="41.670306" lon="1.271619">
        <ele>547.255</ele>
        <time>2021-08-19T07:56:09Z</time>
      </trkpt>
      <trkpt lat="41.670360" lon="1.271620">
        <ele>546.443</ele>
        <time>2021-08-19T07:56:11Z</time>
      </trkpt>
      <trkpt lat="41.670415" lon="1.271613">
        <ele>545.562</ele>
        <time>2021-08-19T07:56:13Z</time>
      </trkpt>
      <trkpt lat="41.670464" lon="1.271622">
        <ele>544.991</ele>
        <time>2021-08-19T07:56:15Z</time>
      </trkpt>
      <trkpt lat="41.670509" lon="1.271632">
        <ele>544.395</ele>
        <time>2021-08-19T07:56:16Z</time>
      </trkpt>
      <trkpt lat="41.670564" lon="1.271644">
        <ele>543.649</ele>
        <time>2021-08-19T07:56:18Z</time>
      </trkpt>
      <trkpt lat="41.670613" lon="1.271655">
        <ele>542.923</ele>
        <time>2021-08-19T07:56:20Z</time>
      </trkpt>
      <trkpt lat="41.670662" lon="1.271666">
        <ele>542.108</ele>
        <time>2021-08-19T07:56:22Z</time>
      </trkpt>
      <trkpt lat="41.670717" lon="1.271693">
        <ele>541.367</ele>
        <time>2021-08-19T07:56:24Z</time>
      </trkpt>
      <trkpt lat="41.670766" lon="1.271711">
        <ele>540.790</ele>
        <time>2021-08-19T07:56:26Z</time>
      </trkpt>
      <trkpt lat="41.670815" lon="1.271726">
        <ele>540.023</ele>
        <time>2021-08-19T07:56:27Z</time>
      </trkpt>
      <trkpt lat="41.670866" lon="1.271744">
        <ele>540.314</ele>
        <time>2021-08-19T07:56:29Z</time>
      </trkpt>
      <trkpt lat="41.670917" lon="1.271770">
        <ele>541.291</ele>
        <time>2021-08-19T07:56:31Z</time>
      </trkpt>
      <trkpt lat="41.670963" lon="1.271794">
        <ele>542.019</ele>
        <time>2021-08-19T07:56:33Z</time>
      </trkpt>
      <trkpt lat="41.671007" lon="1.271810">
        <ele>542.748</ele>
        <time>2021-08-19T07:56:35Z</time>
      </trkpt>
      <trkpt lat="41.671051" lon="1.271837">
        <ele>543.597</ele>
        <time>2021-08-19T07:56:37Z</time>
      </trkpt>
      <trkpt lat="41.671100" lon="1.271853">
        <ele>544.282</ele>
        <time>2021-08-19T07:56:40Z</time>
      </trkpt>
      <trkpt lat="41.671147" lon="1.271868">
        <ele>545.143</ele>
        <time>2021-08-19T07:56:44Z</time>
      </trkpt>
      <trkpt lat="41.671191" lon="1.271883">
        <ele>546.117</ele>
        <time>2021-08-19T07:56:47Z</time>
      </trkpt>
      <trkpt lat="41.671234" lon="1.271912">
        <ele>547.008</ele>
        <time>2021-08-19T07:56:50Z</time>
      </trkpt>
      <trkpt lat="41.671279" lon="1.271944">
        <ele>548.026</ele>
        <time>2021-08-19T07:56:55Z</time>
      </trkpt>
      <trkpt lat="41.671315" lon="1.271898">
        <ele>548.579</ele>
        <time>2021-08-19T07:56:58Z</time>
      </trkpt>
      <trkpt lat="41.671349" lon="1.271835">
        <ele>548.862</ele>
        <time>2021-08-19T07:57:00Z</time>
      </trkpt>
      <trkpt lat="41.671358" lon="1.271774">
        <ele>548.823</ele>
        <time>2021-08-19T07:57:05Z</time>
      </trkpt>
      <trkpt lat="41.671401" lon="1.271744">
        <ele>549.450</ele>
        <time>2021-08-19T07:57:12Z</time>
      </trkpt>
      <trkpt lat="41.671406" lon="1.271677">
        <ele>549.348</ele>
        <time>2021-08-19T07:57:14Z</time>
      </trkpt>
      <trkpt lat="41.671406" lon="1.271617">
        <ele>549.117</ele>
        <time>2021-08-19T07:57:16Z</time>
      </trkpt>
      <trkpt lat="41.671401" lon="1.271532">
        <ele>548.786</ele>
        <time>2021-08-19T07:57:18Z</time>
      </trkpt>
      <trkpt lat="41.671411" lon="1.271460">
        <ele>548.699</ele>
        <time>2021-08-19T07:57:21Z</time>
      </trkpt>
      <trkpt lat="41.671387" lon="1.271405">
        <ele>548.007</ele>
        <time>2021-08-19T07:58:07Z</time>
      </trkpt>
      <trkpt lat="41.671382" lon="1.271331">
        <ele>547.627</ele>
        <time>2021-08-19T07:58:09Z</time>
      </trkpt>
      <trkpt lat="41.671368" lon="1.271267">
        <ele>547.108</ele>
        <time>2021-08-19T07:58:11Z</time>
      </trkpt>
      <trkpt lat="41.671348" lon="1.271195">
        <ele>546.527</ele>
        <time>2021-08-19T07:58:14Z</time>
      </trkpt>
      <trkpt lat="41.671314" lon="1.271140">
        <ele>545.730</ele>
        <time>2021-08-19T07:58:16Z</time>
      </trkpt>
      <trkpt lat="41.671284" lon="1.271077">
        <ele>545.093</ele>
        <time>2021-08-19T07:58:19Z</time>
      </trkpt>
      <trkpt lat="41.671312" lon="1.271021">
        <ele>545.484</ele>
        <time>2021-08-19T07:58:28Z</time>
      </trkpt>
      <trkpt lat="41.671371" lon="1.270991">
        <ele>546.341</ele>
        <time>2021-08-19T07:58:31Z</time>
      </trkpt>
      <trkpt lat="41.671417" lon="1.270971">
        <ele>547.029</ele>
        <time>2021-08-19T07:58:33Z</time>
      </trkpt>
      <trkpt lat="41.671472" lon="1.270949">
        <ele>547.768</ele>
        <time>2021-08-19T07:58:36Z</time>
      </trkpt>
      <trkpt lat="41.671513" lon="1.270919">
        <ele>548.247</ele>
        <time>2021-08-19T07:58:38Z</time>
      </trkpt>
      <trkpt lat="41.671556" lon="1.270898">
        <ele>548.825</ele>
        <time>2021-08-19T07:58:40Z</time>
      </trkpt>
      <trkpt lat="41.671612" lon="1.270879">
        <ele>549.526</ele>
        <time>2021-08-19T07:58:44Z</time>
      </trkpt>
      <trkpt lat="41.671657" lon="1.270854">
        <ele>550.008</ele>
        <time>2021-08-19T07:58:47Z</time>
      </trkpt>
      <trkpt lat="41.671698" lon="1.270823">
        <ele>550.408</ele>
        <time>2021-08-19T07:58:50Z</time>
      </trkpt>
      <trkpt lat="41.671742" lon="1.270800">
        <ele>550.880</ele>
        <time>2021-08-19T07:58:53Z</time>
      </trkpt>
      <trkpt lat="41.671791" lon="1.270791">
        <ele>551.523</ele>
        <time>2021-08-19T07:58:57Z</time>
      </trkpt>
      <trkpt lat="41.671836" lon="1.270764">
        <ele>551.996</ele>
        <time>2021-08-19T07:59:03Z</time>
      </trkpt>
      <trkpt lat="41.671869" lon="1.270722">
        <ele>552.127</ele>
        <time>2021-08-19T07:59:06Z</time>
      </trkpt>
      <trkpt lat="41.671915" lon="1.270716">
        <ele>552.794</ele>
        <time>2021-08-19T07:59:10Z</time>
      </trkpt>
      <trkpt lat="41.671959" lon="1.270730">
        <ele>553.332</ele>
        <time>2021-08-19T07:59:15Z</time>
      </trkpt>
      <trkpt lat="41.671984" lon="1.270781">
        <ele>553.681</ele>
        <time>2021-08-19T07:59:17Z</time>
      </trkpt>
      <trkpt lat="41.672008" lon="1.270838">
        <ele>554.010</ele>
        <time>2021-08-19T07:59:20Z</time>
      </trkpt>
      <trkpt lat="41.672033" lon="1.270907">
        <ele>554.268</ele>
        <time>2021-08-19T07:59:23Z</time>
      </trkpt>
      <trkpt lat="41.672057" lon="1.270973">
        <ele>554.342</ele>
        <time>2021-08-19T07:59:26Z</time>
      </trkpt>
      <trkpt lat="41.672083" lon="1.271027">
        <ele>554.326</ele>
        <time>2021-08-19T07:59:29Z</time>
      </trkpt>
      <trkpt lat="41.672105" lon="1.271080">
        <ele>554.408</ele>
        <time>2021-08-19T07:59:33Z</time>
      </trkpt>
      <trkpt lat="41.672133" lon="1.271132">
        <ele>554.334</ele>
        <time>2021-08-19T07:59:36Z</time>
      </trkpt>
      <trkpt lat="41.672170" lon="1.271196">
        <ele>554.227</ele>
        <time>2021-08-19T07:59:39Z</time>
      </trkpt>
      <trkpt lat="41.672198" lon="1.271255">
        <ele>554.130</ele>
        <time>2021-08-19T07:59:42Z</time>
      </trkpt>
      <trkpt lat="41.672220" lon="1.271314">
        <ele>554.041</ele>
        <time>2021-08-19T07:59:44Z</time>
      </trkpt>
      <trkpt lat="41.672255" lon="1.271373">
        <ele>554.038</ele>
        <time>2021-08-19T07:59:48Z</time>
      </trkpt>
      <trkpt lat="41.672281" lon="1.271426">
        <ele>554.056</ele>
        <time>2021-08-19T07:59:52Z</time>
      </trkpt>
      <trkpt lat="41.672309" lon="1.271488">
        <ele>554.185</ele>
        <time>2021-08-19T07:59:57Z</time>
      </trkpt>
      <trkpt lat="41.672345" lon="1.271542">
        <ele>554.234</ele>
        <time>2021-08-19T08:00:01Z</time>
      </trkpt>
      <trkpt lat="41.672389" lon="1.271520">
        <ele>554.379</ele>
        <time>2021-08-19T08:00:04Z</time>
      </trkpt>
      <trkpt lat="41.672450" lon="1.271489">
        <ele>554.305</ele>
        <time>2021-08-19T08:00:07Z</time>
      </trkpt>
      <trkpt lat="41.672507" lon="1.271484">
        <ele>554.425</ele>
        <time>2021-08-19T08:00:10Z</time>
      </trkpt>
      <trkpt lat="41.672555" lon="1.271486">
        <ele>554.508</ele>
        <time>2021-08-19T08:00:14Z</time>
      </trkpt>
      <trkpt lat="41.672607" lon="1.271463">
        <ele>554.515</ele>
        <time>2021-08-19T08:00:18Z</time>
      </trkpt>
      <trkpt lat="41.672654" lon="1.271434">
        <ele>554.678</ele>
        <time>2021-08-19T08:00:21Z</time>
      </trkpt>
      <trkpt lat="41.672695" lon="1.271409">
        <ele>554.721</ele>
        <time>2021-08-19T08:00:23Z</time>
      </trkpt>
      <trkpt lat="41.672742" lon="1.271382">
        <ele>554.942</ele>
        <time>2021-08-19T08:00:25Z</time>
      </trkpt>
      <trkpt lat="41.672794" lon="1.271360">
        <ele>554.989</ele>
        <time>2021-08-19T08:00:27Z</time>
      </trkpt>
      <trkpt lat="41.672844" lon="1.271332">
        <ele>554.817</ele>
        <time>2021-08-19T08:00:29Z</time>
      </trkpt>
      <trkpt lat="41.672886" lon="1.271306">
        <ele>554.696</ele>
        <time>2021-08-19T08:00:30Z</time>
      </trkpt>
      <trkpt lat="41.672929" lon="1.271282">
        <ele>554.565</ele>
        <time>2021-08-19T08:00:32Z</time>
      </trkpt>
      <trkpt lat="41.672970" lon="1.271255">
        <ele>554.344</ele>
        <time>2021-08-19T08:00:33Z</time>
      </trkpt>
      <trkpt lat="41.673016" lon="1.271224">
        <ele>554.105</ele>
        <time>2021-08-19T08:00:35Z</time>
      </trkpt>
      <trkpt lat="41.673067" lon="1.271197">
        <ele>554.015</ele>
        <time>2021-08-19T08:00:37Z</time>
      </trkpt>
      <trkpt lat="41.673110" lon="1.271177">
        <ele>554.008</ele>
        <time>2021-08-19T08:00:39Z</time>
      </trkpt>
      <trkpt lat="41.673157" lon="1.271171">
        <ele>554.012</ele>
        <time>2021-08-19T08:00:42Z</time>
      </trkpt>
      <trkpt lat="41.673211" lon="1.271179">
        <ele>554.055</ele>
        <time>2021-08-19T08:00:44Z</time>
      </trkpt>
      <trkpt lat="41.673256" lon="1.271214">
        <ele>554.078</ele>
        <time>2021-08-19T08:00:47Z</time>
      </trkpt>
      <trkpt lat="41.673293" lon="1.271253">
        <ele>554.039</ele>
        <time>2021-08-19T08:00:49Z</time>
      </trkpt>
      <trkpt lat="41.673342" lon="1.271270">
        <ele>554.086</ele>
        <time>2021-08-19T08:00:50Z</time>
      </trkpt>
      <trkpt lat="41.673405" lon="1.271251">
        <ele>554.444</ele>
        <time>2021-08-19T08:00:52Z</time>
      </trkpt>
      <trkpt lat="41.673441" lon="1.271208">
        <ele>554.533</ele>
        <time>2021-08-19T08:00:54Z</time>
      </trkpt>
      <trkpt lat="41.673463" lon="1.271155">
        <ele>554.512</ele>
        <time>2021-08-19T08:00:55Z</time>
      </trkpt>
      <trkpt lat="41.673453" lon="1.271084">
        <ele>554.475</ele>
        <time>2021-08-19T08:00:57Z</time>
      </trkpt>
      <trkpt lat="41.673408" lon="1.271021">
        <ele>554.028</ele>
        <time>2021-08-19T08:00:59Z</time>
      </trkpt>
      <trkpt lat="41.673348" lon="1.270989">
        <ele>553.620</ele>
        <time>2021-08-19T08:01:01Z</time>
      </trkpt>
      <trkpt lat="41.673301" lon="1.270962">
        <ele>553.508</ele>
        <time>2021-08-19T08:01:03Z</time>
      </trkpt>
      <trkpt lat="41.673283" lon="1.270900">
        <ele>553.415</ele>
        <time>2021-08-19T08:01:05Z</time>
      </trkpt>
      <trkpt lat="41.673279" lon="1.270816">
        <ele>553.248</ele>
        <time>2021-08-19T08:01:07Z</time>
      </trkpt>
      <trkpt lat="41.673269" lon="1.270757">
        <ele>553.241</ele>
        <time>2021-08-19T08:01:08Z</time>
      </trkpt>
      <trkpt lat="41.673252" lon="1.270690">
        <ele>553.122</ele>
        <time>2021-08-19T08:01:10Z</time>
      </trkpt>
      <trkpt lat="41.673229" lon="1.270628">
        <ele>553.169</ele>
        <time>2021-08-19T08:01:12Z</time>
      </trkpt>
      <trkpt lat="41.673204" lon="1.270548">
        <ele>553.097</ele>
        <time>2021-08-19T08:01:14Z</time>
      </trkpt>
      <trkpt lat="41.673190" lon="1.270486">
        <ele>552.926</ele>
        <time>2021-08-19T08:01:16Z</time>
      </trkpt>
      <trkpt lat="41.673172" lon="1.270429">
        <ele>552.815</ele>
        <time>2021-08-19T08:01:18Z</time>
      </trkpt>
      <trkpt lat="41.673150" lon="1.270359">
        <ele>552.896</ele>
        <time>2021-08-19T08:01:20Z</time>
      </trkpt>
      <trkpt lat="41.673131" lon="1.270301">
        <ele>552.831</ele>
        <time>2021-08-19T08:01:43Z</time>
      </trkpt>
      <trkpt lat="41.673102" lon="1.270246">
        <ele>552.724</ele>
        <time>2021-08-19T08:01:47Z</time>
      </trkpt>
      <trkpt lat="41.673106" lon="1.270178">
        <ele>552.508</ele>
        <time>2021-08-19T08:01:59Z</time>
      </trkpt>
      <trkpt lat="41.673159" lon="1.270139">
        <ele>552.367</ele>
        <time>2021-08-19T08:02:01Z</time>
      </trkpt>
      <trkpt lat="41.673215" lon="1.270104">
        <ele>552.210</ele>
        <time>2021-08-19T08:02:03Z</time>
      </trkpt>
      <trkpt lat="41.673267" lon="1.270067">
        <ele>552.143</ele>
        <time>2021-08-19T08:02:04Z</time>
      </trkpt>
      <trkpt lat="41.673311" lon="1.270042">
        <ele>552.054</ele>
        <time>2021-08-19T08:02:06Z</time>
      </trkpt>
      <trkpt lat="41.673374" lon="1.269994">
        <ele>551.831</ele>
        <time>2021-08-19T08:02:08Z</time>
      </trkpt>
      <trkpt lat="41.673422" lon="1.269966">
        <ele>551.619</ele>
        <time>2021-08-19T08:02:09Z</time>
      </trkpt>
      <trkpt lat="41.673482" lon="1.269935">
        <ele>551.488</ele>
        <time>2021-08-19T08:02:11Z</time>
      </trkpt>
      <trkpt lat="41.673541" lon="1.269907">
        <ele>551.227</ele>
        <time>2021-08-19T08:02:12Z</time>
      </trkpt>
      <trkpt lat="41.673590" lon="1.269884">
        <ele>551.082</ele>
        <time>2021-08-19T08:02:13Z</time>
      </trkpt>
      <trkpt lat="41.673687" lon="1.269833">
        <ele>550.843</ele>
        <time>2021-08-19T08:02:15Z</time>
      </trkpt>
      <trkpt lat="41.673776" lon="1.269779">
        <ele>550.517</ele>
        <time>2021-08-19T08:02:17Z</time>
      </trkpt>
      <trkpt lat="41.673852" lon="1.269731">
        <ele>550.208</ele>
        <time>2021-08-19T08:02:19Z</time>
      </trkpt>
      <trkpt lat="41.673914" lon="1.269693">
        <ele>549.626</ele>
        <time>2021-08-19T08:02:21Z</time>
      </trkpt>
      <trkpt lat="41.673961" lon="1.269661">
        <ele>549.179</ele>
        <time>2021-08-19T08:02:23Z</time>
      </trkpt>
      <trkpt lat="41.674012" lon="1.269609">
        <ele>548.432</ele>
        <time>2021-08-19T08:02:25Z</time>
      </trkpt>
      <trkpt lat="41.674055" lon="1.269592">
        <ele>548.033</ele>
        <time>2021-08-19T08:02:27Z</time>
      </trkpt>
      <trkpt lat="41.674114" lon="1.269588">
        <ele>547.570</ele>
        <time>2021-08-19T08:02:28Z</time>
      </trkpt>
      <trkpt lat="41.674171" lon="1.269562">
        <ele>547.088</ele>
        <time>2021-08-19T08:02:30Z</time>
      </trkpt>
      <trkpt lat="41.674224" lon="1.269539">
        <ele>546.747</ele>
        <time>2021-08-19T08:02:31Z</time>
      </trkpt>
      <trkpt lat="41.674274" lon="1.269511">
        <ele>546.366</ele>
        <time>2021-08-19T08:02:33Z</time>
      </trkpt>
      <trkpt lat="41.674323" lon="1.269490">
        <ele>546.033</ele>
        <time>2021-08-19T08:02:34Z</time>
      </trkpt>
      <trkpt lat="41.674365" lon="1.269467">
        <ele>545.623</ele>
        <time>2021-08-19T08:02:35Z</time>
      </trkpt>
      <trkpt lat="41.674440" lon="1.269427">
        <ele>545.015</ele>
        <time>2021-08-19T08:02:37Z</time>
      </trkpt>
      <trkpt lat="41.674501" lon="1.269393">
        <ele>544.908</ele>
        <time>2021-08-19T08:02:39Z</time>
      </trkpt>
      <trkpt lat="41.674544" lon="1.269369">
        <ele>544.871</ele>
        <time>2021-08-19T08:02:40Z</time>
      </trkpt>
      <trkpt lat="41.674609" lon="1.269341">
        <ele>544.884</ele>
        <time>2021-08-19T08:02:42Z</time>
      </trkpt>
      <trkpt lat="41.674662" lon="1.269326">
        <ele>544.947</ele>
        <time>2021-08-19T08:02:44Z</time>
      </trkpt>
      <trkpt lat="41.674717" lon="1.269317">
        <ele>545.068</ele>
        <time>2021-08-19T08:02:46Z</time>
      </trkpt>
      <trkpt lat="41.674765" lon="1.269300">
        <ele>545.145</ele>
        <time>2021-08-19T08:02:49Z</time>
      </trkpt>
      <trkpt lat="41.674819" lon="1.269271">
        <ele>545.163</ele>
        <time>2021-08-19T08:02:53Z</time>
      </trkpt>
      <trkpt lat="41.674873" lon="1.269285">
        <ele>545.262</ele>
        <time>2021-08-19T08:02:57Z</time>
      </trkpt>
      <trkpt lat="41.674916" lon="1.269254">
        <ele>545.291</ele>
        <time>2021-08-19T08:02:59Z</time>
      </trkpt>
      <trkpt lat="41.674948" lon="1.269208">
        <ele>545.175</ele>
        <time>2021-08-19T08:03:01Z</time>
      </trkpt>
      <trkpt lat="41.674958" lon="1.269120">
        <ele>544.828</ele>
        <time>2021-08-19T08:03:04Z</time>
      </trkpt>
      <trkpt lat="41.674961" lon="1.269059">
        <ele>544.620</ele>
        <time>2021-08-19T08:03:06Z</time>
      </trkpt>
      <trkpt lat="41.674961" lon="1.268990">
        <ele>544.408</ele>
        <time>2021-08-19T08:03:08Z</time>
      </trkpt>
      <trkpt lat="41.674955" lon="1.268906">
        <ele>544.195</ele>
        <time>2021-08-19T08:03:10Z</time>
      </trkpt>
      <trkpt lat="41.674948" lon="1.268823">
        <ele>544.088</ele>
        <time>2021-08-19T08:03:12Z</time>
      </trkpt>
      <trkpt lat="41.674943" lon="1.268749">
        <ele>544.051</ele>
        <time>2021-08-19T08:03:14Z</time>
      </trkpt>
      <trkpt lat="41.674938" lon="1.268657">
        <ele>544.082</ele>
        <time>2021-08-19T08:03:16Z</time>
      </trkpt>
      <trkpt lat="41.674938" lon="1.268586">
        <ele>544.029</ele>
        <time>2021-08-19T08:03:17Z</time>
      </trkpt>
      <trkpt lat="41.674940" lon="1.268502">
        <ele>544.197</ele>
        <time>2021-08-19T08:03:19Z</time>
      </trkpt>
      <trkpt lat="41.674939" lon="1.268427">
        <ele>544.126</ele>
        <time>2021-08-19T08:03:21Z</time>
      </trkpt>
      <trkpt lat="41.674944" lon="1.268351">
        <ele>544.265</ele>
        <time>2021-08-19T08:03:23Z</time>
      </trkpt>
      <trkpt lat="41.674948" lon="1.268290">
        <ele>544.384</ele>
        <time>2021-08-19T08:03:24Z</time>
      </trkpt>
      <trkpt lat="41.674951" lon="1.268204">
        <ele>544.607</ele>
        <time>2021-08-19T08:03:26Z</time>
      </trkpt>
      <trkpt lat="41.674950" lon="1.268130">
        <ele>544.817</ele>
        <time>2021-08-19T08:03:27Z</time>
      </trkpt>
      <trkpt lat="41.674949" lon="1.268032">
        <ele>545.008</ele>
        <time>2021-08-19T08:03:29Z</time>
      </trkpt>
      <trkpt lat="41.674947" lon="1.267936">
        <ele>545.096</ele>
        <time>2021-08-19T08:03:31Z</time>
      </trkpt>
      <trkpt lat="41.674942" lon="1.267846">
        <ele>545.029</ele>
        <time>2021-08-19T08:03:32Z</time>
      </trkpt>
      <trkpt lat="41.674940" lon="1.267784">
        <ele>545.032</ele>
        <time>2021-08-19T08:03:34Z</time>
      </trkpt>
      <trkpt lat="41.674942" lon="1.267707">
        <ele>545.393</ele>
        <time>2021-08-19T08:03:35Z</time>
      </trkpt>
      <trkpt lat="41.674938" lon="1.267629">
        <ele>545.530</ele>
        <time>2021-08-19T08:03:37Z</time>
      </trkpt>
      <trkpt lat="41.674936" lon="1.267568">
        <ele>545.838</ele>
        <time>2021-08-19T08:03:38Z</time>
      </trkpt>
      <trkpt lat="41.674934" lon="1.267471">
        <ele>546.037</ele>
        <time>2021-08-19T08:03:40Z</time>
      </trkpt>
      <trkpt lat="41.674931" lon="1.267387">
        <ele>546.046</ele>
        <time>2021-08-19T08:03:42Z</time>
      </trkpt>
      <trkpt lat="41.674931" lon="1.267314">
        <ele>546.016</ele>
        <time>2021-08-19T08:03:43Z</time>
      </trkpt>
      <trkpt lat="41.674929" lon="1.267236">
        <ele>546.076</ele>
        <time>2021-08-19T08:03:45Z</time>
      </trkpt>
      <trkpt lat="41.674927" lon="1.267174">
        <ele>545.913</ele>
        <time>2021-08-19T08:03:46Z</time>
      </trkpt>
      <trkpt lat="41.674926" lon="1.267094">
        <ele>545.708</ele>
        <time>2021-08-19T08:03:48Z</time>
      </trkpt>
      <trkpt lat="41.674929" lon="1.267023">
        <ele>545.579</ele>
        <time>2021-08-19T08:03:49Z</time>
      </trkpt>
      <trkpt lat="41.674927" lon="1.266934">
        <ele>545.232</ele>
        <time>2021-08-19T08:03:51Z</time>
      </trkpt>
      <trkpt lat="41.674928" lon="1.266870">
        <ele>545.065</ele>
        <time>2021-08-19T08:03:52Z</time>
      </trkpt>
      <trkpt lat="41.674932" lon="1.266794">
        <ele>544.786</ele>
        <time>2021-08-19T08:03:54Z</time>
      </trkpt>
      <trkpt lat="41.674930" lon="1.266709">
        <ele>544.463</ele>
        <time>2021-08-19T08:03:55Z</time>
      </trkpt>
      <trkpt lat="41.674926" lon="1.266626">
        <ele>544.151</ele>
        <time>2021-08-19T08:03:57Z</time>
      </trkpt>
      <trkpt lat="41.674927" lon="1.266561">
        <ele>543.950</ele>
        <time>2021-08-19T08:03:58Z</time>
      </trkpt>
      <trkpt lat="41.674929" lon="1.266481">
        <ele>543.669</ele>
        <time>2021-08-19T08:04:00Z</time>
      </trkpt>
      <trkpt lat="41.674927" lon="1.266418">
        <ele>543.482</ele>
        <time>2021-08-19T08:04:01Z</time>
      </trkpt>
      <trkpt lat="41.674926" lon="1.266339">
        <ele>543.043</ele>
        <time>2021-08-19T08:04:03Z</time>
      </trkpt>
      <trkpt lat="41.674926" lon="1.266276">
        <ele>542.817</ele>
        <time>2021-08-19T08:04:05Z</time>
      </trkpt>
      <trkpt lat="41.674922" lon="1.266211">
        <ele>542.508</ele>
        <time>2021-08-19T08:04:06Z</time>
      </trkpt>
      <trkpt lat="41.674916" lon="1.266146">
        <ele>542.226</ele>
        <time>2021-08-19T08:04:08Z</time>
      </trkpt>
      <trkpt lat="41.674916" lon="1.266072">
        <ele>541.979</ele>
        <time>2021-08-19T08:04:09Z</time>
      </trkpt>
      <trkpt lat="41.674915" lon="1.266006">
        <ele>541.792</ele>
        <time>2021-08-19T08:04:11Z</time>
      </trkpt>
      <trkpt lat="41.674914" lon="1.265945">
        <ele>541.663</ele>
        <time>2021-08-19T08:04:12Z</time>
      </trkpt>
      <trkpt lat="41.674913" lon="1.265866">
        <ele>541.490</ele>
        <time>2021-08-19T08:04:14Z</time>
      </trkpt>
      <trkpt lat="41.674904" lon="1.265767">
        <ele>541.528</ele>
        <time>2021-08-19T08:04:16Z</time>
      </trkpt>
      <trkpt lat="41.674897" lon="1.265680">
        <ele>541.737</ele>
        <time>2021-08-19T08:04:18Z</time>
      </trkpt>
      <trkpt lat="41.674895" lon="1.265610">
        <ele>541.996</ele>
        <time>2021-08-19T08:04:20Z</time>
      </trkpt>
      <trkpt lat="41.674893" lon="1.265522">
        <ele>542.274</ele>
        <time>2021-08-19T08:04:22Z</time>
      </trkpt>
      <trkpt lat="41.674891" lon="1.265448">
        <ele>542.556</ele>
        <time>2021-08-19T08:04:23Z</time>
      </trkpt>
      <trkpt lat="41.674884" lon="1.265370">
        <ele>542.921</ele>
        <time>2021-08-19T08:04:25Z</time>
      </trkpt>
      <trkpt lat="41.674877" lon="1.265298">
        <ele>543.308</ele>
        <time>2021-08-19T08:04:26Z</time>
      </trkpt>
      <trkpt lat="41.674871" lon="1.265220">
        <ele>543.725</ele>
        <time>2021-08-19T08:04:28Z</time>
      </trkpt>
      <trkpt lat="41.674872" lon="1.265139">
        <ele>544.098</ele>
        <time>2021-08-19T08:04:30Z</time>
      </trkpt>
      <trkpt lat="41.674873" lon="1.265054">
        <ele>544.331</ele>
        <time>2021-08-19T08:04:32Z</time>
      </trkpt>
      <trkpt lat="41.674872" lon="1.264971">
        <ele>544.452</ele>
        <time>2021-08-19T08:04:34Z</time>
      </trkpt>
      <trkpt lat="41.674871" lon="1.264910">
        <ele>544.189</ele>
        <time>2021-08-19T08:04:35Z</time>
      </trkpt>
      <trkpt lat="41.674870" lon="1.264845">
        <ele>543.997</ele>
        <time>2021-08-19T08:04:37Z</time>
      </trkpt>
      <trkpt lat="41.674866" lon="1.264777">
        <ele>543.746</ele>
        <time>2021-08-19T08:04:38Z</time>
      </trkpt>
      <trkpt lat="41.674854" lon="1.264705">
        <ele>543.535</ele>
        <time>2021-08-19T08:04:40Z</time>
      </trkpt>
      <trkpt lat="41.674841" lon="1.264609">
        <ele>543.295</ele>
        <time>2021-08-19T08:04:42Z</time>
      </trkpt>
      <trkpt lat="41.674833" lon="1.264533">
        <ele>542.949</ele>
        <time>2021-08-19T08:04:44Z</time>
      </trkpt>
      <trkpt lat="41.674819" lon="1.264463">
        <ele>542.723</ele>
        <time>2021-08-19T08:04:46Z</time>
      </trkpt>
      <trkpt lat="41.674814" lon="1.264397">
        <ele>542.608</ele>
        <time>2021-08-19T08:04:47Z</time>
      </trkpt>
      <trkpt lat="41.674813" lon="1.264321">
        <ele>542.537</ele>
        <time>2021-08-19T08:04:49Z</time>
      </trkpt>
      <trkpt lat="41.674802" lon="1.264261">
        <ele>542.590</ele>
        <time>2021-08-19T08:04:50Z</time>
      </trkpt>
      <trkpt lat="41.674787" lon="1.264183">
        <ele>542.533</ele>
        <time>2021-08-19T08:04:52Z</time>
      </trkpt>
      <trkpt lat="41.674772" lon="1.264090">
        <ele>542.754</ele>
        <time>2021-08-19T08:04:54Z</time>
      </trkpt>
      <trkpt lat="41.674755" lon="1.264018">
        <ele>542.821</ele>
        <time>2021-08-19T08:04:56Z</time>
      </trkpt>
      <trkpt lat="41.674742" lon="1.263947">
        <ele>542.939</ele>
        <time>2021-08-19T08:04:57Z</time>
      </trkpt>
      <trkpt lat="41.674729" lon="1.263869">
        <ele>543.038</ele>
        <time>2021-08-19T08:04:59Z</time>
      </trkpt>
      <trkpt lat="41.674721" lon="1.263797">
        <ele>543.057</ele>
        <time>2021-08-19T08:05:00Z</time>
      </trkpt>
      <trkpt lat="41.674707" lon="1.263700">
        <ele>543.199</ele>
        <time>2021-08-19T08:05:02Z</time>
      </trkpt>
      <trkpt lat="41.674695" lon="1.263641">
        <ele>543.107</ele>
        <time>2021-08-19T08:05:03Z</time>
      </trkpt>
      <trkpt lat="41.674680" lon="1.263571">
        <ele>543.327</ele>
        <time>2021-08-19T08:05:05Z</time>
      </trkpt>
      <trkpt lat="41.674666" lon="1.263506">
        <ele>543.408</ele>
        <time>2021-08-19T08:05:06Z</time>
      </trkpt>
      <trkpt lat="41.674657" lon="1.263426">
        <ele>543.687</ele>
        <time>2021-08-19T08:05:07Z</time>
      </trkpt>
      <trkpt lat="41.674649" lon="1.263341">
        <ele>543.720</ele>
        <time>2021-08-19T08:05:09Z</time>
      </trkpt>
      <trkpt lat="41.674640" lon="1.263271">
        <ele>543.843</ele>
        <time>2021-08-19T08:05:11Z</time>
      </trkpt>
      <trkpt lat="41.674632" lon="1.263210">
        <ele>543.824</ele>
        <time>2021-08-19T08:05:12Z</time>
      </trkpt>
      <trkpt lat="41.674620" lon="1.263116">
        <ele>543.981</ele>
        <time>2021-08-19T08:05:14Z</time>
      </trkpt>
      <trkpt lat="41.674603" lon="1.263022">
        <ele>544.189</ele>
        <time>2021-08-19T08:05:16Z</time>
      </trkpt>
      <trkpt lat="41.674590" lon="1.262932">
        <ele>544.288</ele>
        <time>2021-08-19T08:05:18Z</time>
      </trkpt>
      <trkpt lat="41.674575" lon="1.262853">
        <ele>544.457</ele>
        <time>2021-08-19T08:05:20Z</time>
      </trkpt>
      <trkpt lat="41.674560" lon="1.262771">
        <ele>544.628</ele>
        <time>2021-08-19T08:05:21Z</time>
      </trkpt>
      <trkpt lat="41.674552" lon="1.262707">
        <ele>545.089</ele>
        <time>2021-08-19T08:05:22Z</time>
      </trkpt>
      <trkpt lat="41.674546" lon="1.262630">
        <ele>545.417</ele>
        <time>2021-08-19T08:05:23Z</time>
      </trkpt>
      <trkpt lat="41.674537" lon="1.262516">
        <ele>545.908</ele>
        <time>2021-08-19T08:05:25Z</time>
      </trkpt>
      <trkpt lat="41.674529" lon="1.262451">
        <ele>546.070</ele>
        <time>2021-08-19T08:05:26Z</time>
      </trkpt>
      <trkpt lat="41.674521" lon="1.262385">
        <ele>546.083</ele>
        <time>2021-08-19T08:05:27Z</time>
      </trkpt>
      <trkpt lat="41.674514" lon="1.262317">
        <ele>546.026</ele>
        <time>2021-08-19T08:05:28Z</time>
      </trkpt>
      <trkpt lat="41.674495" lon="1.262180">
        <ele>545.817</ele>
        <time>2021-08-19T08:05:30Z</time>
      </trkpt>
      <trkpt lat="41.674475" lon="1.262038">
        <ele>545.364</ele>
        <time>2021-08-19T08:05:32Z</time>
      </trkpt>
      <trkpt lat="41.674455" lon="1.261908">
        <ele>544.752</ele>
        <time>2021-08-19T08:05:34Z</time>
      </trkpt>
      <trkpt lat="41.674437" lon="1.261845">
        <ele>544.271</ele>
        <time>2021-08-19T08:05:36Z</time>
      </trkpt>
      <trkpt lat="41.674417" lon="1.261768">
        <ele>543.570</ele>
        <time>2021-08-19T08:05:37Z</time>
      </trkpt>
      <trkpt lat="41.674409" lon="1.261669">
        <ele>542.873</ele>
        <time>2021-08-19T08:05:39Z</time>
      </trkpt>
      <trkpt lat="41.674400" lon="1.261579">
        <ele>542.185</ele>
        <time>2021-08-19T08:05:41Z</time>
      </trkpt>
      <trkpt lat="41.674393" lon="1.261516">
        <ele>541.613</ele>
        <time>2021-08-19T08:05:42Z</time>
      </trkpt>
      <trkpt lat="41.674380" lon="1.261427">
        <ele>541.008</ele>
        <time>2021-08-19T08:05:44Z</time>
      </trkpt>
      <trkpt lat="41.674369" lon="1.261362">
        <ele>540.675</ele>
        <time>2021-08-19T08:05:45Z</time>
      </trkpt>
      <trkpt lat="41.674354" lon="1.261258">
        <ele>539.968</ele>
        <time>2021-08-19T08:05:47Z</time>
      </trkpt>
      <trkpt lat="41.674345" lon="1.261193">
        <ele>539.531</ele>
        <time>2021-08-19T08:05:48Z</time>
      </trkpt>
      <trkpt lat="41.674334" lon="1.261101">
        <ele>539.092</ele>
        <time>2021-08-19T08:05:50Z</time>
      </trkpt>
      <trkpt lat="41.674323" lon="1.261024">
        <ele>539.079</ele>
        <time>2021-08-19T08:05:51Z</time>
      </trkpt>
      <trkpt lat="41.674315" lon="1.260943">
        <ele>539.017</ele>
        <time>2021-08-19T08:05:53Z</time>
      </trkpt>
      <trkpt lat="41.674314" lon="1.260868">
        <ele>539.096</ele>
        <time>2021-08-19T08:05:54Z</time>
      </trkpt>
      <trkpt lat="41.674321" lon="1.260760">
        <ele>538.975</ele>
        <time>2021-08-19T08:05:56Z</time>
      </trkpt>
      <trkpt lat="41.674329" lon="1.260682">
        <ele>538.865</ele>
        <time>2021-08-19T08:05:57Z</time>
      </trkpt>
      <trkpt lat="41.674335" lon="1.260590">
        <ele>538.768</ele>
        <time>2021-08-19T08:05:59Z</time>
      </trkpt>
      <trkpt lat="41.674341" lon="1.260525">
        <ele>538.614</ele>
        <time>2021-08-19T08:06:00Z</time>
      </trkpt>
      <trkpt lat="41.674352" lon="1.260459">
        <ele>538.608</ele>
        <time>2021-08-19T08:06:01Z</time>
      </trkpt>
      <trkpt lat="41.674365" lon="1.260374">
        <ele>538.474</ele>
        <time>2021-08-19T08:06:03Z</time>
      </trkpt>
      <trkpt lat="41.674376" lon="1.260289">
        <ele>538.327</ele>
        <time>2021-08-19T08:06:04Z</time>
      </trkpt>
      <trkpt lat="41.674376" lon="1.260227">
        <ele>537.910</ele>
        <time>2021-08-19T08:06:05Z</time>
      </trkpt>
      <trkpt lat="41.674369" lon="1.260161">
        <ele>537.561</ele>
        <time>2021-08-19T08:06:07Z</time>
      </trkpt>
      <trkpt lat="41.674365" lon="1.260094">
        <ele>537.298</ele>
        <time>2021-08-19T08:06:08Z</time>
      </trkpt>
      <trkpt lat="41.674361" lon="1.260034">
        <ele>536.886</ele>
        <time>2021-08-19T08:06:09Z</time>
      </trkpt>
      <trkpt lat="41.674353" lon="1.259963">
        <ele>536.445</ele>
        <time>2021-08-19T08:06:10Z</time>
      </trkpt>
      <trkpt lat="41.674348" lon="1.259878">
        <ele>536.064</ele>
        <time>2021-08-19T08:06:12Z</time>
      </trkpt>
      <trkpt lat="41.674339" lon="1.259811">
        <ele>535.732</ele>
        <time>2021-08-19T08:06:13Z</time>
      </trkpt>
      <trkpt lat="41.674327" lon="1.259738">
        <ele>535.492</ele>
        <time>2021-08-19T08:06:14Z</time>
      </trkpt>
      <trkpt lat="41.674318" lon="1.259658">
        <ele>535.111</ele>
        <time>2021-08-19T08:06:16Z</time>
      </trkpt>
      <trkpt lat="41.674308" lon="1.259573">
        <ele>534.908</ele>
        <time>2021-08-19T08:06:17Z</time>
      </trkpt>
      <trkpt lat="41.674293" lon="1.259469">
        <ele>534.721</ele>
        <time>2021-08-19T08:06:19Z</time>
      </trkpt>
      <trkpt lat="41.674284" lon="1.259383">
        <ele>534.684</ele>
        <time>2021-08-19T08:06:20Z</time>
      </trkpt>
      <trkpt lat="41.674273" lon="1.259320">
        <ele>534.597</ele>
        <time>2021-08-19T08:06:21Z</time>
      </trkpt>
      <trkpt lat="41.674252" lon="1.259196">
        <ele>534.128</ele>
        <time>2021-08-19T08:06:23Z</time>
      </trkpt>
      <trkpt lat="41.674243" lon="1.259135">
        <ele>534.075</ele>
        <time>2021-08-19T08:06:24Z</time>
      </trkpt>
      <trkpt lat="41.674232" lon="1.259074">
        <ele>533.973</ele>
        <time>2021-08-19T08:06:25Z</time>
      </trkpt>
      <trkpt lat="41.674214" lon="1.258954">
        <ele>533.912</ele>
        <time>2021-08-19T08:06:27Z</time>
      </trkpt>
      <trkpt lat="41.674204" lon="1.258894">
        <ele>533.931</ele>
        <time>2021-08-19T08:06:28Z</time>
      </trkpt>
      <trkpt lat="41.674195" lon="1.258833">
        <ele>533.569</ele>
        <time>2021-08-19T08:06:29Z</time>
      </trkpt>
      <trkpt lat="41.674179" lon="1.258712">
        <ele>532.704</ele>
        <time>2021-08-19T08:06:31Z</time>
      </trkpt>
      <trkpt lat="41.674165" lon="1.258585">
        <ele>531.824</ele>
        <time>2021-08-19T08:06:33Z</time>
      </trkpt>
      <trkpt lat="41.674148" lon="1.258462">
        <ele>531.008</ele>
        <time>2021-08-19T08:06:35Z</time>
      </trkpt>
      <trkpt lat="41.674139" lon="1.258399">
        <ele>530.644</ele>
        <time>2021-08-19T08:06:36Z</time>
      </trkpt>
      <trkpt lat="41.674121" lon="1.258275">
        <ele>530.117</ele>
        <time>2021-08-19T08:06:38Z</time>
      </trkpt>
      <trkpt lat="41.674111" lon="1.258213">
        <ele>530.060</ele>
        <time>2021-08-19T08:06:39Z</time>
      </trkpt>
      <trkpt lat="41.674091" lon="1.258092">
        <ele>529.831</ele>
        <time>2021-08-19T08:06:41Z</time>
      </trkpt>
      <trkpt lat="41.674073" lon="1.257975">
        <ele>530.098</ele>
        <time>2021-08-19T08:06:43Z</time>
      </trkpt>
      <trkpt lat="41.674057" lon="1.257865">
        <ele>530.386</ele>
        <time>2021-08-19T08:06:45Z</time>
      </trkpt>
      <trkpt lat="41.674042" lon="1.257754">
        <ele>530.755</ele>
        <time>2021-08-19T08:06:47Z</time>
      </trkpt>
      <trkpt lat="41.674029" lon="1.257652">
        <ele>531.414</ele>
        <time>2021-08-19T08:06:49Z</time>
      </trkpt>
      <trkpt lat="41.674018" lon="1.257553">
        <ele>532.123</ele>
        <time>2021-08-19T08:06:51Z</time>
      </trkpt>
      <trkpt lat="41.674000" lon="1.257491">
        <ele>532.483</ele>
        <time>2021-08-19T08:06:52Z</time>
      </trkpt>
      <trkpt lat="41.673972" lon="1.257395">
        <ele>532.711</ele>
        <time>2021-08-19T08:06:54Z</time>
      </trkpt>
      <trkpt lat="41.673959" lon="1.257310">
        <ele>532.908</ele>
        <time>2021-08-19T08:06:56Z</time>
      </trkpt>
      <trkpt lat="41.673947" lon="1.257248">
        <ele>533.140</ele>
        <time>2021-08-19T08:06:57Z</time>
      </trkpt>
      <trkpt lat="41.673938" lon="1.257188">
        <ele>533.333</ele>
        <time>2021-08-19T08:06:58Z</time>
      </trkpt>
      <trkpt lat="41.673926" lon="1.257092">
        <ele>533.536</ele>
        <time>2021-08-19T08:07:00Z</time>
      </trkpt>
      <trkpt lat="41.673924" lon="1.256982">
        <ele>533.947</ele>
        <time>2021-08-19T08:07:02Z</time>
      </trkpt>
      <trkpt lat="41.673921" lon="1.256855">
        <ele>534.084</ele>
        <time>2021-08-19T08:07:04Z</time>
      </trkpt>
      <trkpt lat="41.673915" lon="1.256754">
        <ele>534.042</ele>
        <time>2021-08-19T08:07:06Z</time>
      </trkpt>
      <trkpt lat="41.673911" lon="1.256684">
        <ele>534.031</ele>
        <time>2021-08-19T08:07:07Z</time>
      </trkpt>
      <trkpt lat="41.673896" lon="1.256549">
        <ele>534.080</ele>
        <time>2021-08-19T08:07:09Z</time>
      </trkpt>
      <trkpt lat="41.673879" lon="1.256437">
        <ele>534.027</ele>
        <time>2021-08-19T08:07:11Z</time>
      </trkpt>
      <trkpt lat="41.673865" lon="1.256322">
        <ele>533.968</ele>
        <time>2021-08-19T08:07:13Z</time>
      </trkpt>
      <trkpt lat="41.673851" lon="1.256219">
        <ele>533.914</ele>
        <time>2021-08-19T08:07:15Z</time>
      </trkpt>
      <trkpt lat="41.673841" lon="1.256157">
        <ele>533.808</ele>
        <time>2021-08-19T08:07:16Z</time>
      </trkpt>
      <trkpt lat="41.673825" lon="1.256040">
        <ele>533.780</ele>
        <time>2021-08-19T08:07:18Z</time>
      </trkpt>
      <trkpt lat="41.673815" lon="1.255972">
        <ele>533.613</ele>
        <time>2021-08-19T08:07:19Z</time>
      </trkpt>
      <trkpt lat="41.673798" lon="1.255862">
        <ele>533.426</ele>
        <time>2021-08-19T08:07:21Z</time>
      </trkpt>
      <trkpt lat="41.673787" lon="1.255798">
        <ele>533.147</ele>
        <time>2021-08-19T08:07:22Z</time>
      </trkpt>
      <trkpt lat="41.673770" lon="1.255692">
        <ele>532.314</ele>
        <time>2021-08-19T08:07:24Z</time>
      </trkpt>
      <trkpt lat="41.673754" lon="1.255567">
        <ele>531.672</ele>
        <time>2021-08-19T08:07:26Z</time>
      </trkpt>
      <trkpt lat="41.673737" lon="1.255431">
        <ele>530.881</ele>
        <time>2021-08-19T08:07:28Z</time>
      </trkpt>
      <trkpt lat="41.673724" lon="1.255315">
        <ele>530.230</ele>
        <time>2021-08-19T08:07:30Z</time>
      </trkpt>
      <trkpt lat="41.673715" lon="1.255249">
        <ele>529.978</ele>
        <time>2021-08-19T08:07:31Z</time>
      </trkpt>
      <trkpt lat="41.673700" lon="1.255126">
        <ele>529.333</ele>
        <time>2021-08-19T08:07:33Z</time>
      </trkpt>
      <trkpt lat="41.673691" lon="1.255061">
        <ele>529.026</ele>
        <time>2021-08-19T08:07:34Z</time>
      </trkpt>
      <trkpt lat="41.673681" lon="1.254999">
        <ele>528.708</ele>
        <time>2021-08-19T08:07:35Z</time>
      </trkpt>
      <trkpt lat="41.673667" lon="1.254941">
        <ele>528.665</ele>
        <time>2021-08-19T08:07:36Z</time>
      </trkpt>
      <trkpt lat="41.673644" lon="1.254819">
        <ele>528.298</ele>
        <time>2021-08-19T08:07:38Z</time>
      </trkpt>
      <trkpt lat="41.673616" lon="1.254703">
        <ele>527.911</ele>
        <time>2021-08-19T08:07:40Z</time>
      </trkpt>
      <trkpt lat="41.673606" lon="1.254642">
        <ele>527.772</ele>
        <time>2021-08-19T08:07:41Z</time>
      </trkpt>
      <trkpt lat="41.673581" lon="1.254522">
        <ele>527.339</ele>
        <time>2021-08-19T08:07:43Z</time>
      </trkpt>
      <trkpt lat="41.673568" lon="1.254461">
        <ele>527.187</ele>
        <time>2021-08-19T08:07:44Z</time>
      </trkpt>
      <trkpt lat="41.673546" lon="1.254336">
        <ele>526.976</ele>
        <time>2021-08-19T08:07:46Z</time>
      </trkpt>
      <trkpt lat="41.673535" lon="1.254275">
        <ele>526.875</ele>
        <time>2021-08-19T08:07:47Z</time>
      </trkpt>
      <trkpt lat="41.673513" lon="1.254150">
        <ele>526.655</ele>
        <time>2021-08-19T08:07:49Z</time>
      </trkpt>
      <trkpt lat="41.673500" lon="1.254087">
        <ele>526.307</ele>
        <time>2021-08-19T08:07:50Z</time>
      </trkpt>
      <trkpt lat="41.673481" lon="1.253960">
        <ele>525.817</ele>
        <time>2021-08-19T08:07:52Z</time>
      </trkpt>
      <trkpt lat="41.673472" lon="1.253894">
        <ele>525.508</ele>
        <time>2021-08-19T08:07:53Z</time>
      </trkpt>
      <trkpt lat="41.673452" lon="1.253762">
        <ele>524.823</ele>
        <time>2021-08-19T08:07:55Z</time>
      </trkpt>
      <trkpt lat="41.673435" lon="1.253628">
        <ele>524.196</ele>
        <time>2021-08-19T08:07:57Z</time>
      </trkpt>
      <trkpt lat="41.673421" lon="1.253496">
        <ele>523.559</ele>
        <time>2021-08-19T08:07:59Z</time>
      </trkpt>
      <trkpt lat="41.673411" lon="1.253429">
        <ele>523.210</ele>
        <time>2021-08-19T08:08:00Z</time>
      </trkpt>
      <trkpt lat="41.673399" lon="1.253359">
        <ele>522.967</ele>
        <time>2021-08-19T08:08:01Z</time>
      </trkpt>
      <trkpt lat="41.673374" lon="1.253213">
        <ele>522.875</ele>
        <time>2021-08-19T08:08:03Z</time>
      </trkpt>
      <trkpt lat="41.673363" lon="1.253140">
        <ele>522.884</ele>
        <time>2021-08-19T08:08:04Z</time>
      </trkpt>
      <trkpt lat="41.673351" lon="1.253067">
        <ele>522.993</ele>
        <time>2021-08-19T08:08:05Z</time>
      </trkpt>
      <trkpt lat="41.673333" lon="1.252932">
        <ele>522.146</ele>
        <time>2021-08-19T08:08:07Z</time>
      </trkpt>
      <trkpt lat="41.673317" lon="1.252830">
        <ele>521.488</ele>
        <time>2021-08-19T08:08:09Z</time>
      </trkpt>
      <trkpt lat="41.673303" lon="1.252754">
        <ele>521.016</ele>
        <time>2021-08-19T08:08:11Z</time>
      </trkpt>
      <trkpt lat="41.673297" lon="1.252689">
        <ele>520.808</ele>
        <time>2021-08-19T08:08:13Z</time>
      </trkpt>
      <trkpt lat="41.673284" lon="1.252588">
        <ele>520.532</ele>
        <time>2021-08-19T08:08:15Z</time>
      </trkpt>
      <trkpt lat="41.673265" lon="1.252482">
        <ele>520.245</ele>
        <time>2021-08-19T08:08:17Z</time>
      </trkpt>
      <trkpt lat="41.673239" lon="1.252321">
        <ele>519.918</ele>
        <time>2021-08-19T08:08:19Z</time>
      </trkpt>
      <trkpt lat="41.673230" lon="1.252249">
        <ele>519.849</ele>
        <time>2021-08-19T08:08:20Z</time>
      </trkpt>
      <trkpt lat="41.673217" lon="1.252109">
        <ele>519.846</ele>
        <time>2021-08-19T08:08:22Z</time>
      </trkpt>
      <trkpt lat="41.673194" lon="1.251973">
        <ele>520.024</ele>
        <time>2021-08-19T08:08:24Z</time>
      </trkpt>
      <trkpt lat="41.673175" lon="1.251836">
        <ele>520.133</ele>
        <time>2021-08-19T08:08:26Z</time>
      </trkpt>
      <trkpt lat="41.673152" lon="1.251698">
        <ele>520.352</ele>
        <time>2021-08-19T08:08:28Z</time>
      </trkpt>
      <trkpt lat="41.673143" lon="1.251629">
        <ele>520.354</ele>
        <time>2021-08-19T08:08:29Z</time>
      </trkpt>
      <trkpt lat="41.673122" lon="1.251489">
        <ele>520.056</ele>
        <time>2021-08-19T08:08:31Z</time>
      </trkpt>
      <trkpt lat="41.673100" lon="1.251347">
        <ele>519.611</ele>
        <time>2021-08-19T08:08:33Z</time>
      </trkpt>
      <trkpt lat="41.673089" lon="1.251274">
        <ele>519.108</ele>
        <time>2021-08-19T08:08:34Z</time>
      </trkpt>
      <trkpt lat="41.673081" lon="1.251200">
        <ele>518.613</ele>
        <time>2021-08-19T08:08:35Z</time>
      </trkpt>
      <trkpt lat="41.673064" lon="1.251053">
        <ele>517.826</ele>
        <time>2021-08-19T08:08:37Z</time>
      </trkpt>
      <trkpt lat="41.673053" lon="1.250978">
        <ele>517.579</ele>
        <time>2021-08-19T08:08:38Z</time>
      </trkpt>
      <trkpt lat="41.673041" lon="1.250904">
        <ele>517.280</ele>
        <time>2021-08-19T08:08:39Z</time>
      </trkpt>
      <trkpt lat="41.673030" lon="1.250830">
        <ele>516.957</ele>
        <time>2021-08-19T08:08:40Z</time>
      </trkpt>
      <trkpt lat="41.673019" lon="1.250755">
        <ele>516.985</ele>
        <time>2021-08-19T08:08:41Z</time>
      </trkpt>
      <trkpt lat="41.672998" lon="1.250604">
        <ele>517.014</ele>
        <time>2021-08-19T08:08:43Z</time>
      </trkpt>
      <trkpt lat="41.672976" lon="1.250451">
        <ele>517.053</ele>
        <time>2021-08-19T08:08:45Z</time>
      </trkpt>
      <trkpt lat="41.672963" lon="1.250374">
        <ele>517.059</ele>
        <time>2021-08-19T08:08:46Z</time>
      </trkpt>
      <trkpt lat="41.672942" lon="1.250221">
        <ele>516.903</ele>
        <time>2021-08-19T08:08:48Z</time>
      </trkpt>
      <trkpt lat="41.672931" lon="1.250144">
        <ele>516.723</ele>
        <time>2021-08-19T08:08:49Z</time>
      </trkpt>
      <trkpt lat="41.672910" lon="1.249991">
        <ele>516.508</ele>
        <time>2021-08-19T08:08:51Z</time>
      </trkpt>
      <trkpt lat="41.672899" lon="1.249913">
        <ele>516.253</ele>
        <time>2021-08-19T08:08:52Z</time>
      </trkpt>
      <trkpt lat="41.672876" lon="1.249758">
        <ele>515.876</ele>
        <time>2021-08-19T08:08:54Z</time>
      </trkpt>
      <trkpt lat="41.672853" lon="1.249602">
        <ele>515.369</ele>
        <time>2021-08-19T08:08:56Z</time>
      </trkpt>
      <trkpt lat="41.672843" lon="1.249525">
        <ele>515.130</ele>
        <time>2021-08-19T08:08:57Z</time>
      </trkpt>
      <trkpt lat="41.672820" lon="1.249375">
        <ele>514.677</ele>
        <time>2021-08-19T08:08:59Z</time>
      </trkpt>
      <trkpt lat="41.672796" lon="1.249222">
        <ele>514.235</ele>
        <time>2021-08-19T08:09:01Z</time>
      </trkpt>
      <trkpt lat="41.672785" lon="1.249144">
        <ele>514.064</ele>
        <time>2021-08-19T08:09:02Z</time>
      </trkpt>
      <trkpt lat="41.672774" lon="1.249067">
        <ele>514.083</ele>
        <time>2021-08-19T08:09:03Z</time>
      </trkpt>
      <trkpt lat="41.672750" lon="1.248912">
        <ele>514.115</ele>
        <time>2021-08-19T08:09:05Z</time>
      </trkpt>
      <trkpt lat="41.672725" lon="1.248756">
        <ele>513.765</ele>
        <time>2021-08-19T08:09:07Z</time>
      </trkpt>
      <trkpt lat="41.672699" lon="1.248611">
        <ele>513.311</ele>
        <time>2021-08-19T08:09:09Z</time>
      </trkpt>
      <trkpt lat="41.672688" lon="1.248547">
        <ele>512.708</ele>
        <time>2021-08-19T08:09:10Z</time>
      </trkpt>
      <trkpt lat="41.672675" lon="1.248459">
        <ele>511.919</ele>
        <time>2021-08-19T08:09:12Z</time>
      </trkpt>
      <trkpt lat="41.672668" lon="1.248348">
        <ele>510.922</ele>
        <time>2021-08-19T08:09:14Z</time>
      </trkpt>
      <trkpt lat="41.672687" lon="1.248252">
        <ele>510.115</ele>
        <time>2021-08-19T08:09:16Z</time>
      </trkpt>
      <trkpt lat="41.672719" lon="1.248117">
        <ele>508.936</ele>
        <time>2021-08-19T08:09:18Z</time>
      </trkpt>
      <trkpt lat="41.672730" lon="1.248050">
        <ele>508.353</ele>
        <time>2021-08-19T08:09:20Z</time>
      </trkpt>
      <trkpt lat="41.672699" lon="1.247990">
        <ele>508.181</ele>
        <time>2021-08-19T08:09:21Z</time>
      </trkpt>
      <trkpt lat="41.672661" lon="1.247925">
        <ele>507.990</ele>
        <time>2021-08-19T08:09:23Z</time>
      </trkpt>
      <trkpt lat="41.672625" lon="1.247857">
        <ele>507.729</ele>
        <time>2021-08-19T08:09:24Z</time>
      </trkpt>
      <trkpt lat="41.672610" lon="1.247791">
        <ele>507.395</ele>
        <time>2021-08-19T08:09:25Z</time>
      </trkpt>
      <trkpt lat="41.672601" lon="1.247664">
        <ele>507.049</ele>
        <time>2021-08-19T08:09:27Z</time>
      </trkpt>
      <trkpt lat="41.672598" lon="1.247565">
        <ele>506.823</ele>
        <time>2021-08-19T08:09:29Z</time>
      </trkpt>
      <trkpt lat="41.672591" lon="1.247453">
        <ele>506.708</ele>
        <time>2021-08-19T08:09:31Z</time>
      </trkpt>
      <trkpt lat="41.672582" lon="1.247330">
        <ele>506.747</ele>
        <time>2021-08-19T08:09:33Z</time>
      </trkpt>
      <trkpt lat="41.672579" lon="1.247269">
        <ele>506.760</ele>
        <time>2021-08-19T08:09:34Z</time>
      </trkpt>
      <trkpt lat="41.672568" lon="1.247147">
        <ele>507.333</ele>
        <time>2021-08-19T08:09:36Z</time>
      </trkpt>
      <trkpt lat="41.672566" lon="1.247083">
        <ele>507.874</ele>
        <time>2021-08-19T08:09:37Z</time>
      </trkpt>
      <trkpt lat="41.672557" lon="1.246957">
        <ele>508.781</ele>
        <time>2021-08-19T08:09:39Z</time>
      </trkpt>
      <trkpt lat="41.672549" lon="1.246843">
        <ele>509.259</ele>
        <time>2021-08-19T08:09:41Z</time>
      </trkpt>
      <trkpt lat="41.672541" lon="1.246715">
        <ele>509.798</ele>
        <time>2021-08-19T08:09:43Z</time>
      </trkpt>
      <trkpt lat="41.672537" lon="1.246652">
        <ele>509.947</ele>
        <time>2021-08-19T08:09:44Z</time>
      </trkpt>
      <trkpt lat="41.672531" lon="1.246527">
        <ele>509.959</ele>
        <time>2021-08-19T08:09:46Z</time>
      </trkpt>
      <trkpt lat="41.672529" lon="1.246400">
        <ele>510.003</ele>
        <time>2021-08-19T08:09:48Z</time>
      </trkpt>
      <trkpt lat="41.672518" lon="1.246277">
        <ele>509.223</ele>
        <time>2021-08-19T08:09:50Z</time>
      </trkpt>
      <trkpt lat="41.672516" lon="1.246214">
        <ele>508.708</ele>
        <time>2021-08-19T08:09:51Z</time>
      </trkpt>
      <trkpt lat="41.672513" lon="1.246152">
        <ele>508.333</ele>
        <time>2021-08-19T08:09:52Z</time>
      </trkpt>
      <trkpt lat="41.672506" lon="1.246028">
        <ele>507.186</ele>
        <time>2021-08-19T08:09:54Z</time>
      </trkpt>
      <trkpt lat="41.672499" lon="1.245901">
        <ele>505.789</ele>
        <time>2021-08-19T08:09:56Z</time>
      </trkpt>
      <trkpt lat="41.672496" lon="1.245840">
        <ele>505.170</ele>
        <time>2021-08-19T08:09:57Z</time>
      </trkpt>
      <trkpt lat="41.672492" lon="1.245779">
        <ele>505.097</ele>
        <time>2021-08-19T08:09:58Z</time>
      </trkpt>
      <trkpt lat="41.672486" lon="1.245719">
        <ele>505.055</ele>
        <time>2021-08-19T08:09:59Z</time>
      </trkpt>
      <trkpt lat="41.672480" lon="1.245597">
        <ele>505.044</ele>
        <time>2021-08-19T08:10:01Z</time>
      </trkpt>
      <trkpt lat="41.672474" lon="1.245472">
        <ele>505.363</ele>
        <time>2021-08-19T08:10:03Z</time>
      </trkpt>
      <trkpt lat="41.672463" lon="1.245348">
        <ele>505.781</ele>
        <time>2021-08-19T08:10:05Z</time>
      </trkpt>
      <trkpt lat="41.672455" lon="1.245224">
        <ele>506.061</ele>
        <time>2021-08-19T08:10:07Z</time>
      </trkpt>
      <trkpt lat="41.672451" lon="1.245161">
        <ele>506.017</ele>
        <time>2021-08-19T08:10:08Z</time>
      </trkpt>
      <trkpt lat="41.672442" lon="1.245037">
        <ele>506.008</ele>
        <time>2021-08-19T08:10:10Z</time>
      </trkpt>
      <trkpt lat="41.672436" lon="1.244915">
        <ele>506.076</ele>
        <time>2021-08-19T08:10:12Z</time>
      </trkpt>
      <trkpt lat="41.672430" lon="1.244803">
        <ele>506.089</ele>
        <time>2021-08-19T08:10:14Z</time>
      </trkpt>
      <trkpt lat="41.672427" lon="1.244692">
        <ele>506.022</ele>
        <time>2021-08-19T08:10:16Z</time>
      </trkpt>
      <trkpt lat="41.672425" lon="1.244592">
        <ele>506.023</ele>
        <time>2021-08-19T08:10:18Z</time>
      </trkpt>
      <trkpt lat="41.672427" lon="1.244464">
        <ele>506.010</ele>
        <time>2021-08-19T08:10:20Z</time>
      </trkpt>
      <trkpt lat="41.672426" lon="1.244379">
        <ele>505.848</ele>
        <time>2021-08-19T08:10:22Z</time>
      </trkpt>
      <trkpt lat="41.672423" lon="1.244285">
        <ele>505.417</ele>
        <time>2021-08-19T08:10:24Z</time>
      </trkpt>
      <trkpt lat="41.672424" lon="1.244216">
        <ele>505.226</ele>
        <time>2021-08-19T08:10:26Z</time>
      </trkpt>
      <trkpt lat="41.672428" lon="1.244143">
        <ele>504.953</ele>
        <time>2021-08-19T08:10:29Z</time>
      </trkpt>
      <trkpt lat="41.672736" lon="1.244584">
        <ele>505.604</ele>
        <time>2021-08-19T08:11:23Z</time>
      </trkpt>
      <trkpt lat="41.672422" lon="1.244120">
        <ele>504.814</ele>
        <time>2021-08-19T08:11:25Z</time>
      </trkpt>
      <trkpt lat="41.672401" lon="1.244042">
        <ele>504.608</ele>
        <time>2021-08-19T08:16:13Z</time>
      </trkpt>
      <trkpt lat="41.672407" lon="1.243969">
        <ele>504.393</ele>
        <time>2021-08-19T08:16:15Z</time>
      </trkpt>
      <trkpt lat="41.672416" lon="1.243892">
        <ele>504.096</ele>
        <time>2021-08-19T08:16:17Z</time>
      </trkpt>
      <trkpt lat="41.672433" lon="1.243809">
        <ele>503.799</ele>
        <time>2021-08-19T08:16:19Z</time>
      </trkpt>
      <trkpt lat="41.672453" lon="1.243702">
        <ele>503.330</ele>
        <time>2021-08-19T08:16:21Z</time>
      </trkpt>
      <trkpt lat="41.672474" lon="1.243588">
        <ele>503.017</ele>
        <time>2021-08-19T08:16:23Z</time>
      </trkpt>
      <trkpt lat="41.672492" lon="1.243498">
        <ele>503.015</ele>
        <time>2021-08-19T08:16:25Z</time>
      </trkpt>
      <trkpt lat="41.672514" lon="1.243395">
        <ele>503.164</ele>
        <time>2021-08-19T08:16:27Z</time>
      </trkpt>
      <trkpt lat="41.672539" lon="1.243295">
        <ele>503.223</ele>
        <time>2021-08-19T08:16:29Z</time>
      </trkpt>
      <trkpt lat="41.672573" lon="1.243179">
        <ele>503.542</ele>
        <time>2021-08-19T08:16:31Z</time>
      </trkpt>
      <trkpt lat="41.672594" lon="1.243117">
        <ele>503.622</ele>
        <time>2021-08-19T08:16:32Z</time>
      </trkpt>
      <trkpt lat="41.672614" lon="1.243057">
        <ele>503.614</ele>
        <time>2021-08-19T08:16:33Z</time>
      </trkpt>
      <trkpt lat="41.672649" lon="1.242938">
        <ele>503.308</ele>
        <time>2021-08-19T08:16:35Z</time>
      </trkpt>
      <trkpt lat="41.672666" lon="1.242880">
        <ele>503.162</ele>
        <time>2021-08-19T08:16:36Z</time>
      </trkpt>
      <trkpt lat="41.672685" lon="1.242818">
        <ele>503.085</ele>
        <time>2021-08-19T08:16:37Z</time>
      </trkpt>
      <trkpt lat="41.672728" lon="1.242700">
        <ele>502.568</ele>
        <time>2021-08-19T08:16:39Z</time>
      </trkpt>
      <trkpt lat="41.672750" lon="1.242637">
        <ele>502.069</ele>
        <time>2021-08-19T08:16:40Z</time>
      </trkpt>
      <trkpt lat="41.672774" lon="1.242572">
        <ele>501.546</ele>
        <time>2021-08-19T08:16:41Z</time>
      </trkpt>
      <trkpt lat="41.672824" lon="1.242449">
        <ele>501.044</ele>
        <time>2021-08-19T08:16:43Z</time>
      </trkpt>
      <trkpt lat="41.672847" lon="1.242385">
        <ele>500.933</ele>
        <time>2021-08-19T08:16:44Z</time>
      </trkpt>
      <trkpt lat="41.672890" lon="1.242261">
        <ele>500.772</ele>
        <time>2021-08-19T08:16:46Z</time>
      </trkpt>
      <trkpt lat="41.672910" lon="1.242191">
        <ele>500.534</ele>
        <time>2021-08-19T08:16:47Z</time>
      </trkpt>
      <trkpt lat="41.672926" lon="1.242124">
        <ele>500.355</ele>
        <time>2021-08-19T08:16:48Z</time>
      </trkpt>
      <trkpt lat="41.672952" lon="1.241988">
        <ele>500.110</ele>
        <time>2021-08-19T08:16:50Z</time>
      </trkpt>
      <trkpt lat="41.672963" lon="1.241928">
        <ele>500.008</ele>
        <time>2021-08-19T08:16:51Z</time>
      </trkpt>
      <trkpt lat="41.672974" lon="1.241850">
        <ele>500.121</ele>
        <time>2021-08-19T08:16:53Z</time>
      </trkpt>
      <trkpt lat="41.672977" lon="1.241766">
        <ele>500.274</ele>
        <time>2021-08-19T08:16:55Z</time>
      </trkpt>
      <trkpt lat="41.672981" lon="1.241665">
        <ele>500.387</ele>
        <time>2021-08-19T08:16:57Z</time>
      </trkpt>
      <trkpt lat="41.672982" lon="1.241601">
        <ele>500.318</ele>
        <time>2021-08-19T08:16:58Z</time>
      </trkpt>
      <trkpt lat="41.672968" lon="1.241529">
        <ele>500.365</ele>
        <time>2021-08-19T08:16:59Z</time>
      </trkpt>
      <trkpt lat="41.672938" lon="1.241407">
        <ele>500.413</ele>
        <time>2021-08-19T08:17:01Z</time>
      </trkpt>
      <trkpt lat="41.672905" lon="1.241276">
        <ele>499.752</ele>
        <time>2021-08-19T08:17:03Z</time>
      </trkpt>
      <trkpt lat="41.672894" lon="1.241206">
        <ele>499.221</ele>
        <time>2021-08-19T08:17:04Z</time>
      </trkpt>
      <trkpt lat="41.672875" lon="1.241080">
        <ele>498.224</ele>
        <time>2021-08-19T08:17:06Z</time>
      </trkpt>
      <trkpt lat="41.672854" lon="1.240950">
        <ele>497.504</ele>
        <time>2021-08-19T08:17:08Z</time>
      </trkpt>
      <trkpt lat="41.672846" lon="1.240885">
        <ele>497.214</ele>
        <time>2021-08-19T08:17:09Z</time>
      </trkpt>
      <trkpt lat="41.672835" lon="1.240761">
        <ele>496.708</ele>
        <time>2021-08-19T08:17:11Z</time>
      </trkpt>
      <trkpt lat="41.672834" lon="1.240700">
        <ele>496.490</ele>
        <time>2021-08-19T08:17:12Z</time>
      </trkpt>
      <trkpt lat="41.672843" lon="1.240585">
        <ele>495.983</ele>
        <time>2021-08-19T08:17:14Z</time>
      </trkpt>
      <trkpt lat="41.672870" lon="1.240465">
        <ele>495.316</ele>
        <time>2021-08-19T08:17:16Z</time>
      </trkpt>
      <trkpt lat="41.672887" lon="1.240403">
        <ele>495.137</ele>
        <time>2021-08-19T08:17:17Z</time>
      </trkpt>
      <trkpt lat="41.672918" lon="1.240282">
        <ele>494.544</ele>
        <time>2021-08-19T08:17:19Z</time>
      </trkpt>
      <trkpt lat="41.672935" lon="1.240222">
        <ele>494.482</ele>
        <time>2021-08-19T08:17:20Z</time>
      </trkpt>
      <trkpt lat="41.672950" lon="1.240156">
        <ele>494.491</ele>
        <time>2021-08-19T08:17:21Z</time>
      </trkpt>
      <trkpt lat="41.672987" lon="1.240032">
        <ele>494.230</ele>
        <time>2021-08-19T08:17:23Z</time>
      </trkpt>
      <trkpt lat="41.673008" lon="1.239900">
        <ele>494.244</ele>
        <time>2021-08-19T08:17:25Z</time>
      </trkpt>
      <trkpt lat="41.673025" lon="1.239770">
        <ele>494.105</ele>
        <time>2021-08-19T08:17:27Z</time>
      </trkpt>
      <trkpt lat="41.673035" lon="1.239705">
        <ele>494.215</ele>
        <time>2021-08-19T08:17:28Z</time>
      </trkpt>
      <trkpt lat="41.673044" lon="1.239639">
        <ele>494.608</ele>
        <time>2021-08-19T08:17:29Z</time>
      </trkpt>
      <trkpt lat="41.673064" lon="1.239509">
        <ele>495.522</ele>
        <time>2021-08-19T08:17:31Z</time>
      </trkpt>
      <trkpt lat="41.673072" lon="1.239443">
        <ele>495.935</ele>
        <time>2021-08-19T08:17:32Z</time>
      </trkpt>
      <trkpt lat="41.673092" lon="1.239310">
        <ele>495.978</ele>
        <time>2021-08-19T08:17:34Z</time>
      </trkpt>
      <trkpt lat="41.673101" lon="1.239242">
        <ele>495.819</ele>
        <time>2021-08-19T08:17:35Z</time>
      </trkpt>
      <trkpt lat="41.673120" lon="1.239107">
        <ele>495.846</ele>
        <time>2021-08-19T08:17:37Z</time>
      </trkpt>
      <trkpt lat="41.673129" lon="1.239039">
        <ele>495.744</ele>
        <time>2021-08-19T08:17:38Z</time>
      </trkpt>
      <trkpt lat="41.673148" lon="1.238900">
        <ele>495.743</ele>
        <time>2021-08-19T08:17:40Z</time>
      </trkpt>
      <trkpt lat="41.673169" lon="1.238761">
        <ele>495.452</ele>
        <time>2021-08-19T08:17:42Z</time>
      </trkpt>
      <trkpt lat="41.673188" lon="1.238620">
        <ele>495.155</ele>
        <time>2021-08-19T08:17:44Z</time>
      </trkpt>
      <trkpt lat="41.673208" lon="1.238488">
        <ele>494.707</ele>
        <time>2021-08-19T08:17:46Z</time>
      </trkpt>
      <trkpt lat="41.673219" lon="1.238411">
        <ele>494.417</ele>
        <time>2021-08-19T08:17:47Z</time>
      </trkpt>
      <trkpt lat="41.673238" lon="1.238272">
        <ele>494.108</ele>
        <time>2021-08-19T08:17:49Z</time>
      </trkpt>
      <trkpt lat="41.673253" lon="1.238136">
        <ele>494.213</ele>
        <time>2021-08-19T08:17:51Z</time>
      </trkpt>
      <trkpt lat="41.673262" lon="1.238065">
        <ele>494.236</ele>
        <time>2021-08-19T08:17:52Z</time>
      </trkpt>
      <trkpt lat="41.673269" lon="1.237994">
        <ele>494.079</ele>
        <time>2021-08-19T08:17:53Z</time>
      </trkpt>
      <trkpt lat="41.673291" lon="1.237852">
        <ele>493.420</ele>
        <time>2021-08-19T08:17:55Z</time>
      </trkpt>
      <trkpt lat="41.673311" lon="1.237710">
        <ele>493.167</ele>
        <time>2021-08-19T08:17:57Z</time>
      </trkpt>
      <trkpt lat="41.673332" lon="1.237567">
        <ele>493.035</ele>
        <time>2021-08-19T08:17:59Z</time>
      </trkpt>
      <trkpt lat="41.673353" lon="1.237426">
        <ele>492.634</ele>
        <time>2021-08-19T08:18:01Z</time>
      </trkpt>
      <trkpt lat="41.673381" lon="1.237295">
        <ele>491.913</ele>
        <time>2021-08-19T08:18:03Z</time>
      </trkpt>
      <trkpt lat="41.673413" lon="1.237168">
        <ele>491.179</ele>
        <time>2021-08-19T08:18:05Z</time>
      </trkpt>
      <trkpt lat="41.673446" lon="1.237037">
        <ele>490.105</ele>
        <time>2021-08-19T08:18:07Z</time>
      </trkpt>
      <trkpt lat="41.673461" lon="1.236967">
        <ele>489.725</ele>
        <time>2021-08-19T08:18:08Z</time>
      </trkpt>
      <trkpt lat="41.673491" lon="1.236828">
        <ele>488.808</ele>
        <time>2021-08-19T08:18:10Z</time>
      </trkpt>
      <trkpt lat="41.673510" lon="1.236760">
        <ele>488.315</ele>
        <time>2021-08-19T08:18:11Z</time>
      </trkpt>
      <trkpt lat="41.673556" lon="1.236629">
        <ele>487.418</ele>
        <time>2021-08-19T08:18:13Z</time>
      </trkpt>
      <trkpt lat="41.673581" lon="1.236565">
        <ele>487.251</ele>
        <time>2021-08-19T08:18:14Z</time>
      </trkpt>
      <trkpt lat="41.673637" lon="1.236447">
        <ele>487.182</ele>
        <time>2021-08-19T08:18:16Z</time>
      </trkpt>
      <trkpt lat="41.673665" lon="1.236385">
        <ele>487.219</ele>
        <time>2021-08-19T08:18:17Z</time>
      </trkpt>
      <trkpt lat="41.673695" lon="1.236329">
        <ele>487.567</ele>
        <time>2021-08-19T08:18:18Z</time>
      </trkpt>
      <trkpt lat="41.673750" lon="1.236220">
        <ele>487.816</ele>
        <time>2021-08-19T08:18:20Z</time>
      </trkpt>
      <trkpt lat="41.673776" lon="1.236163">
        <ele>487.965</ele>
        <time>2021-08-19T08:18:21Z</time>
      </trkpt>
      <trkpt lat="41.673828" lon="1.236054">
        <ele>488.297</ele>
        <time>2021-08-19T08:18:23Z</time>
      </trkpt>
      <trkpt lat="41.673880" lon="1.235940">
        <ele>488.623</ele>
        <time>2021-08-19T08:18:25Z</time>
      </trkpt>
      <trkpt lat="41.673933" lon="1.235824">
        <ele>489.025</ele>
        <time>2021-08-19T08:18:27Z</time>
      </trkpt>
      <trkpt lat="41.673958" lon="1.235765">
        <ele>489.008</ele>
        <time>2021-08-19T08:18:28Z</time>
      </trkpt>
      <trkpt lat="41.673983" lon="1.235706">
        <ele>489.037</ele>
        <time>2021-08-19T08:18:29Z</time>
      </trkpt>
      <trkpt lat="41.674019" lon="1.235585">
        <ele>489.030</ele>
        <time>2021-08-19T08:18:31Z</time>
      </trkpt>
      <trkpt lat="41.674043" lon="1.235460">
        <ele>488.753</ele>
        <time>2021-08-19T08:18:33Z</time>
      </trkpt>
      <trkpt lat="41.674049" lon="1.235395">
        <ele>488.474</ele>
        <time>2021-08-19T08:18:34Z</time>
      </trkpt>
      <trkpt lat="41.674059" lon="1.235260">
        <ele>487.931</ele>
        <time>2021-08-19T08:18:36Z</time>
      </trkpt>
      <trkpt lat="41.674071" lon="1.235114">
        <ele>486.849</ele>
        <time>2021-08-19T08:18:38Z</time>
      </trkpt>
      <trkpt lat="41.674071" lon="1.235041">
        <ele>486.368</ele>
        <time>2021-08-19T08:18:39Z</time>
      </trkpt>
      <trkpt lat="41.674060" lon="1.234899">
        <ele>486.047</ele>
        <time>2021-08-19T08:18:41Z</time>
      </trkpt>
      <trkpt lat="41.674035" lon="1.234757">
        <ele>486.033</ele>
        <time>2021-08-19T08:18:43Z</time>
      </trkpt>
      <trkpt lat="41.673996" lon="1.234628">
        <ele>486.023</ele>
        <time>2021-08-19T08:18:45Z</time>
      </trkpt>
      <trkpt lat="41.673941" lon="1.234493">
        <ele>486.015</ele>
        <time>2021-08-19T08:18:47Z</time>
      </trkpt>
      <trkpt lat="41.673891" lon="1.234359">
        <ele>486.308</ele>
        <time>2021-08-19T08:18:49Z</time>
      </trkpt>
      <trkpt lat="41.673891" lon="1.234212">
        <ele>486.861</ele>
        <time>2021-08-19T08:18:51Z</time>
      </trkpt>
      <trkpt lat="41.673931" lon="1.234075">
        <ele>486.994</ele>
        <time>2021-08-19T08:18:53Z</time>
      </trkpt>
      <trkpt lat="41.673960" lon="1.234018">
        <ele>486.927</ele>
        <time>2021-08-19T08:18:54Z</time>
      </trkpt>
      <trkpt lat="41.674029" lon="1.233934">
        <ele>486.998</ele>
        <time>2021-08-19T08:18:56Z</time>
      </trkpt>
      <trkpt lat="41.674093" lon="1.233864">
        <ele>487.185</ele>
        <time>2021-08-19T08:18:58Z</time>
      </trkpt>
      <trkpt lat="41.674150" lon="1.233791">
        <ele>487.433</ele>
        <time>2021-08-19T08:19:00Z</time>
      </trkpt>
      <trkpt lat="41.674201" lon="1.233713">
        <ele>487.422</ele>
        <time>2021-08-19T08:19:02Z</time>
      </trkpt>
      <trkpt lat="41.674273" lon="1.233596">
        <ele>487.391</ele>
        <time>2021-08-19T08:19:04Z</time>
      </trkpt>
      <trkpt lat="41.674319" lon="1.233570">
        <ele>487.077</ele>
        <time>2021-08-19T08:19:06Z</time>
      </trkpt>
      <trkpt lat="41.674353" lon="1.233506">
        <ele>486.961</ele>
        <time>2021-08-19T08:19:08Z</time>
      </trkpt>
      <trkpt lat="41.674384" lon="1.233443">
        <ele>486.927</ele>
        <time>2021-08-19T08:19:09Z</time>
      </trkpt>
      <trkpt lat="41.674410" lon="1.233391">
        <ele>486.908</ele>
        <time>2021-08-19T08:19:10Z</time>
      </trkpt>
      <trkpt lat="41.674448" lon="1.233298">
        <ele>487.155</ele>
        <time>2021-08-19T08:19:12Z</time>
      </trkpt>
      <trkpt lat="41.674486" lon="1.233209">
        <ele>487.378</ele>
        <time>2021-08-19T08:19:14Z</time>
      </trkpt>
      <trkpt lat="41.674512" lon="1.233141">
        <ele>487.421</ele>
        <time>2021-08-19T08:19:16Z</time>
      </trkpt>
      <trkpt lat="41.674555" lon="1.233052">
        <ele>487.642</ele>
        <time>2021-08-19T08:19:18Z</time>
      </trkpt>
      <trkpt lat="41.674578" lon="1.232980">
        <ele>487.579</ele>
        <time>2021-08-19T08:19:20Z</time>
      </trkpt>
      <trkpt lat="41.674599" lon="1.232910">
        <ele>487.487</ele>
        <time>2021-08-19T08:19:22Z</time>
      </trkpt>
      <trkpt lat="41.674623" lon="1.232836">
        <ele>487.446</ele>
        <time>2021-08-19T08:19:24Z</time>
      </trkpt>
      <trkpt lat="41.674651" lon="1.232759">
        <ele>487.335</ele>
        <time>2021-08-19T08:19:26Z</time>
      </trkpt>
      <trkpt lat="41.674687" lon="1.232680">
        <ele>487.147</ele>
        <time>2021-08-19T08:19:28Z</time>
      </trkpt>
      <trkpt lat="41.674728" lon="1.232608">
        <ele>487.029</ele>
        <time>2021-08-19T08:19:30Z</time>
      </trkpt>
      <trkpt lat="41.674766" lon="1.232532">
        <ele>486.721</ele>
        <time>2021-08-19T08:19:32Z</time>
      </trkpt>
      <trkpt lat="41.674805" lon="1.232451">
        <ele>486.308</ele>
        <time>2021-08-19T08:19:34Z</time>
      </trkpt>
      <trkpt lat="41.674853" lon="1.232368">
        <ele>485.872</ele>
        <time>2021-08-19T08:19:36Z</time>
      </trkpt>
      <trkpt lat="41.674898" lon="1.232289">
        <ele>485.595</ele>
        <time>2021-08-19T08:19:38Z</time>
      </trkpt>
      <trkpt lat="41.674942" lon="1.232211">
        <ele>485.298</ele>
        <time>2021-08-19T08:19:40Z</time>
      </trkpt>
      <trkpt lat="41.674988" lon="1.232136">
        <ele>485.059</ele>
        <time>2021-08-19T08:19:42Z</time>
      </trkpt>
      <trkpt lat="41.675046" lon="1.232077">
        <ele>484.766</ele>
        <time>2021-08-19T08:19:44Z</time>
      </trkpt>
      <trkpt lat="41.675097" lon="1.232030">
        <ele>484.434</ele>
        <time>2021-08-19T08:19:46Z</time>
      </trkpt>
      <trkpt lat="41.675158" lon="1.231960">
        <ele>484.493</ele>
        <time>2021-08-19T08:19:48Z</time>
      </trkpt>
      <trkpt lat="41.675221" lon="1.231900">
        <ele>484.792</ele>
        <time>2021-08-19T08:19:50Z</time>
      </trkpt>
      <trkpt lat="41.675283" lon="1.231844">
        <ele>485.095</ele>
        <time>2021-08-19T08:19:52Z</time>
      </trkpt>
      <trkpt lat="41.675345" lon="1.231776">
        <ele>485.149</ele>
        <time>2021-08-19T08:19:54Z</time>
      </trkpt>
      <trkpt lat="41.675406" lon="1.231706">
        <ele>485.223</ele>
        <time>2021-08-19T08:19:56Z</time>
      </trkpt>
      <trkpt lat="41.675466" lon="1.231635">
        <ele>485.208</ele>
        <time>2021-08-19T08:19:58Z</time>
      </trkpt>
      <trkpt lat="41.675545" lon="1.231526">
        <ele>484.737</ele>
        <time>2021-08-19T08:20:00Z</time>
      </trkpt>
      <trkpt lat="41.675579" lon="1.231478">
        <ele>484.380</ele>
        <time>2021-08-19T08:20:01Z</time>
      </trkpt>
      <trkpt lat="41.675632" lon="1.231371">
        <ele>483.913</ele>
        <time>2021-08-19T08:20:03Z</time>
      </trkpt>
      <trkpt lat="41.675661" lon="1.231272">
        <ele>483.554</ele>
        <time>2021-08-19T08:20:05Z</time>
      </trkpt>
      <trkpt lat="41.675673" lon="1.231211">
        <ele>483.331</ele>
        <time>2021-08-19T08:20:08Z</time>
      </trkpt>
      <trkpt lat="41.675672" lon="1.231111">
        <ele>483.349</ele>
        <time>2021-08-19T08:20:10Z</time>
      </trkpt>
      <trkpt lat="41.675692" lon="1.231013">
        <ele>482.738</ele>
        <time>2021-08-19T08:20:12Z</time>
      </trkpt>
      <trkpt lat="41.675731" lon="1.230915">
        <ele>481.827</ele>
        <time>2021-08-19T08:20:14Z</time>
      </trkpt>
      <trkpt lat="41.675701" lon="1.230729">
        <ele>481.779</ele>
        <time>2021-08-19T08:20:16Z</time>
      </trkpt>
      <trkpt lat="41.675696" lon="1.230667">
        <ele>481.705</ele>
        <time>2021-08-19T08:20:17Z</time>
      </trkpt>
      <trkpt lat="41.675692" lon="1.230606">
        <ele>481.625</ele>
        <time>2021-08-19T08:20:18Z</time>
      </trkpt>
      <trkpt lat="41.675689" lon="1.230472">
        <ele>481.208</ele>
        <time>2021-08-19T08:20:20Z</time>
      </trkpt>
      <trkpt lat="41.675690" lon="1.230351">
        <ele>480.835</ele>
        <time>2021-08-19T08:20:22Z</time>
      </trkpt>
      <trkpt lat="41.675687" lon="1.230229">
        <ele>480.448</ele>
        <time>2021-08-19T08:20:24Z</time>
      </trkpt>
      <trkpt lat="41.675692" lon="1.230118">
        <ele>480.261</ele>
        <time>2021-08-19T08:20:26Z</time>
      </trkpt>
      <trkpt lat="41.675698" lon="1.229997">
        <ele>480.072</ele>
        <time>2021-08-19T08:20:28Z</time>
      </trkpt>
      <trkpt lat="41.675709" lon="1.229884">
        <ele>480.239</ele>
        <time>2021-08-19T08:20:30Z</time>
      </trkpt>
      <trkpt lat="41.675714" lon="1.229773">
        <ele>480.487</ele>
        <time>2021-08-19T08:20:32Z</time>
      </trkpt>
      <trkpt lat="41.675720" lon="1.229659">
        <ele>480.486</ele>
        <time>2021-08-19T08:20:34Z</time>
      </trkpt>
      <trkpt lat="41.675743" lon="1.229545">
        <ele>480.345</ele>
        <time>2021-08-19T08:20:36Z</time>
      </trkpt>
      <trkpt lat="41.675772" lon="1.229432">
        <ele>480.317</ele>
        <time>2021-08-19T08:20:38Z</time>
      </trkpt>
      <trkpt lat="41.675802" lon="1.229325">
        <ele>480.587</ele>
        <time>2021-08-19T08:20:40Z</time>
      </trkpt>
      <trkpt lat="41.675831" lon="1.229233">
        <ele>480.815</ele>
        <time>2021-08-19T08:20:42Z</time>
      </trkpt>
      <trkpt lat="41.675862" lon="1.229152">
        <ele>480.808</ele>
        <time>2021-08-19T08:20:44Z</time>
      </trkpt>
      <trkpt lat="41.675889" lon="1.229085">
        <ele>480.739</ele>
        <time>2021-08-19T08:20:46Z</time>
      </trkpt>
      <trkpt lat="41.675929" lon="1.229025">
        <ele>480.592</ele>
        <time>2021-08-19T08:20:48Z</time>
      </trkpt>
      <trkpt lat="41.675965" lon="1.228961">
        <ele>480.465</ele>
        <time>2021-08-19T08:20:50Z</time>
      </trkpt>
      <trkpt lat="41.675999" lon="1.228896">
        <ele>480.416</ele>
        <time>2021-08-19T08:20:52Z</time>
      </trkpt>
      <trkpt lat="41.676031" lon="1.228834">
        <ele>480.393</ele>
        <time>2021-08-19T08:20:54Z</time>
      </trkpt>
      <trkpt lat="41.676065" lon="1.228772">
        <ele>480.271</ele>
        <time>2021-08-19T08:20:56Z</time>
      </trkpt>
      <trkpt lat="41.676091" lon="1.228712">
        <ele>480.170</ele>
        <time>2021-08-19T08:20:58Z</time>
      </trkpt>
      <trkpt lat="41.676126" lon="1.228662">
        <ele>479.939</ele>
        <time>2021-08-19T08:21:00Z</time>
      </trkpt>
      <trkpt lat="41.676154" lon="1.228611">
        <ele>479.833</ele>
        <time>2021-08-19T08:21:02Z</time>
      </trkpt>
      <trkpt lat="41.676177" lon="1.228559">
        <ele>479.923</ele>
        <time>2021-08-19T08:21:04Z</time>
      </trkpt>
      <trkpt lat="41.676212" lon="1.228487">
        <ele>479.915</ele>
        <time>2021-08-19T08:21:07Z</time>
      </trkpt>
      <trkpt lat="41.676247" lon="1.228430">
        <ele>479.808</ele>
        <time>2021-08-19T08:21:10Z</time>
      </trkpt>
      <trkpt lat="41.676285" lon="1.228362">
        <ele>479.761</ele>
        <time>2021-08-19T08:21:13Z</time>
      </trkpt>
      <trkpt lat="41.676318" lon="1.228296">
        <ele>479.644</ele>
        <time>2021-08-19T08:21:16Z</time>
      </trkpt>
      <trkpt lat="41.676344" lon="1.228245">
        <ele>479.667</ele>
        <time>2021-08-19T08:21:18Z</time>
      </trkpt>
      <trkpt lat="41.676369" lon="1.228191">
        <ele>479.698</ele>
        <time>2021-08-19T08:21:20Z</time>
      </trkpt>
      <trkpt lat="41.676390" lon="1.228134">
        <ele>479.785</ele>
        <time>2021-08-19T08:21:22Z</time>
      </trkpt>
      <trkpt lat="41.676411" lon="1.228079">
        <ele>479.893</ele>
        <time>2021-08-19T08:21:24Z</time>
      </trkpt>
      <trkpt lat="41.676438" lon="1.228030">
        <ele>479.682</ele>
        <time>2021-08-19T08:21:26Z</time>
      </trkpt>
      <trkpt lat="41.676480" lon="1.227957">
        <ele>479.381</ele>
        <time>2021-08-19T08:21:29Z</time>
      </trkpt>
      <trkpt lat="41.676505" lon="1.227897">
        <ele>479.249</ele>
        <time>2021-08-19T08:21:31Z</time>
      </trkpt>
      <trkpt lat="41.676534" lon="1.227830">
        <ele>479.002</ele>
        <time>2021-08-19T08:21:33Z</time>
      </trkpt>
      <trkpt lat="41.676559" lon="1.227755">
        <ele>478.722</ele>
        <time>2021-08-19T08:21:35Z</time>
      </trkpt>
      <trkpt lat="41.676585" lon="1.227687">
        <ele>478.508</ele>
        <time>2021-08-19T08:21:37Z</time>
      </trkpt>
      <trkpt lat="41.676612" lon="1.227630">
        <ele>478.382</ele>
        <time>2021-08-19T08:21:39Z</time>
      </trkpt>
      <trkpt lat="41.676634" lon="1.227565">
        <ele>478.195</ele>
        <time>2021-08-19T08:21:41Z</time>
      </trkpt>
      <trkpt lat="41.676659" lon="1.227497">
        <ele>478.038</ele>
        <time>2021-08-19T08:21:43Z</time>
      </trkpt>
      <trkpt lat="41.676687" lon="1.227423">
        <ele>478.499</ele>
        <time>2021-08-19T08:21:45Z</time>
      </trkpt>
      <trkpt lat="41.676717" lon="1.227354">
        <ele>478.976</ele>
        <time>2021-08-19T08:21:47Z</time>
      </trkpt>
      <trkpt lat="41.676746" lon="1.227283">
        <ele>479.484</ele>
        <time>2021-08-19T08:21:49Z</time>
      </trkpt>
      <trkpt lat="41.676771" lon="1.227214">
        <ele>479.823</ele>
        <time>2021-08-19T08:21:51Z</time>
      </trkpt>
      <trkpt lat="41.676810" lon="1.227176">
        <ele>480.362</ele>
        <time>2021-08-19T08:21:53Z</time>
      </trkpt>
      <trkpt lat="41.676861" lon="1.227166">
        <ele>480.753</ele>
        <time>2021-08-19T08:21:55Z</time>
      </trkpt>
      <trkpt lat="41.676909" lon="1.227173">
        <ele>480.904</ele>
        <time>2021-08-19T08:21:57Z</time>
      </trkpt>
      <trkpt lat="41.676919" lon="1.227108">
        <ele>481.314</ele>
        <time>2021-08-19T08:22:30Z</time>
      </trkpt>
      <trkpt lat="41.676984" lon="1.227099">
        <ele>481.308</ele>
        <time>2021-08-19T08:22:32Z</time>
      </trkpt>
      <trkpt lat="41.677037" lon="1.227083">
        <ele>481.253</ele>
        <time>2021-08-19T08:22:33Z</time>
      </trkpt>
      <trkpt lat="41.677148" lon="1.227041">
        <ele>480.916</ele>
        <time>2021-08-19T08:22:35Z</time>
      </trkpt>
      <trkpt lat="41.677198" lon="1.227025">
        <ele>480.869</ele>
        <time>2021-08-19T08:22:36Z</time>
      </trkpt>
      <trkpt lat="41.677294" lon="1.226989">
        <ele>480.390</ele>
        <time>2021-08-19T08:22:38Z</time>
      </trkpt>
      <trkpt lat="41.677394" lon="1.226954">
        <ele>479.717</ele>
        <time>2021-08-19T08:22:40Z</time>
      </trkpt>
      <trkpt lat="41.677500" lon="1.226914">
        <ele>479.375</ele>
        <time>2021-08-19T08:22:42Z</time>
      </trkpt>
      <trkpt lat="41.677554" lon="1.226893">
        <ele>478.734</ele>
        <time>2021-08-19T08:22:43Z</time>
      </trkpt>
      <trkpt lat="41.677608" lon="1.226871">
        <ele>478.163</ele>
        <time>2021-08-19T08:22:44Z</time>
      </trkpt>
      <trkpt lat="41.677713" lon="1.226832">
        <ele>476.846</ele>
        <time>2021-08-19T08:22:46Z</time>
      </trkpt>
      <trkpt lat="41.677819" lon="1.226794">
        <ele>475.988</ele>
        <time>2021-08-19T08:22:48Z</time>
      </trkpt>
      <trkpt lat="41.677872" lon="1.226769">
        <ele>475.816</ele>
        <time>2021-08-19T08:22:49Z</time>
      </trkpt>
      <trkpt lat="41.677927" lon="1.226745">
        <ele>475.708</ele>
        <time>2021-08-19T08:22:50Z</time>
      </trkpt>
      <trkpt lat="41.678030" lon="1.226698">
        <ele>475.872</ele>
        <time>2021-08-19T08:22:52Z</time>
      </trkpt>
      <trkpt lat="41.678125" lon="1.226643">
        <ele>476.445</ele>
        <time>2021-08-19T08:22:54Z</time>
      </trkpt>
      <trkpt lat="41.678220" lon="1.226581">
        <ele>477.068</ele>
        <time>2021-08-19T08:22:56Z</time>
      </trkpt>
      <trkpt lat="41.678313" lon="1.226531">
        <ele>477.579</ele>
        <time>2021-08-19T08:22:58Z</time>
      </trkpt>
      <trkpt lat="41.678364" lon="1.226509">
        <ele>477.516</ele>
        <time>2021-08-19T08:22:59Z</time>
      </trkpt>
      <trkpt lat="41.678415" lon="1.226496">
        <ele>477.584</ele>
        <time>2021-08-19T08:23:00Z</time>
      </trkpt>
      <trkpt lat="41.678517" lon="1.226466">
        <ele>477.583</ele>
        <time>2021-08-19T08:23:02Z</time>
      </trkpt>
      <trkpt lat="41.678571" lon="1.226459">
        <ele>477.582</ele>
        <time>2021-08-19T08:23:03Z</time>
      </trkpt>
      <trkpt lat="41.678622" lon="1.226449">
        <ele>477.557</ele>
        <time>2021-08-19T08:23:04Z</time>
      </trkpt>
      <trkpt lat="41.678719" lon="1.226423">
        <ele>477.300</ele>
        <time>2021-08-19T08:23:06Z</time>
      </trkpt>
      <trkpt lat="41.678809" lon="1.226389">
        <ele>477.320</ele>
        <time>2021-08-19T08:23:08Z</time>
      </trkpt>
      <trkpt lat="41.678855" lon="1.226368">
        <ele>477.308</ele>
        <time>2021-08-19T08:23:09Z</time>
      </trkpt>
      <trkpt lat="41.678944" lon="1.226311">
        <ele>477.293</ele>
        <time>2021-08-19T08:23:11Z</time>
      </trkpt>
      <trkpt lat="41.678990" lon="1.226280">
        <ele>477.136</ele>
        <time>2021-08-19T08:23:12Z</time>
      </trkpt>
      <trkpt lat="41.679073" lon="1.226218">
        <ele>476.989</ele>
        <time>2021-08-19T08:23:14Z</time>
      </trkpt>
      <trkpt lat="41.679113" lon="1.226187">
        <ele>476.820</ele>
        <time>2021-08-19T08:23:15Z</time>
      </trkpt>
      <trkpt lat="41.679154" lon="1.226155">
        <ele>476.857</ele>
        <time>2021-08-19T08:23:16Z</time>
      </trkpt>
      <trkpt lat="41.679216" lon="1.226095">
        <ele>476.765</ele>
        <time>2021-08-19T08:23:18Z</time>
      </trkpt>
      <trkpt lat="41.679281" lon="1.226029">
        <ele>476.464</ele>
        <time>2021-08-19T08:23:20Z</time>
      </trkpt>
      <trkpt lat="41.679354" lon="1.225941">
        <ele>475.983</ele>
        <time>2021-08-19T08:23:22Z</time>
      </trkpt>
      <trkpt lat="41.679422" lon="1.225843">
        <ele>475.297</ele>
        <time>2021-08-19T08:23:24Z</time>
      </trkpt>
      <trkpt lat="41.679458" lon="1.225794">
        <ele>475.123</ele>
        <time>2021-08-19T08:23:25Z</time>
      </trkpt>
      <trkpt lat="41.679518" lon="1.225713">
        <ele>475.325</ele>
        <time>2021-08-19T08:23:27Z</time>
      </trkpt>
      <trkpt lat="41.679541" lon="1.225637">
        <ele>475.508</ele>
        <time>2021-08-19T08:23:29Z</time>
      </trkpt>
      <trkpt lat="41.679593" lon="1.225557">
        <ele>475.517</ele>
        <time>2021-08-19T08:23:31Z</time>
      </trkpt>
      <trkpt lat="41.679632" lon="1.225494">
        <ele>475.150</ele>
        <time>2021-08-19T08:23:33Z</time>
      </trkpt>
      <trkpt lat="41.679671" lon="1.225432">
        <ele>474.513</ele>
        <time>2021-08-19T08:23:34Z</time>
      </trkpt>
      <trkpt lat="41.679726" lon="1.225391">
        <ele>473.884</ele>
        <time>2021-08-19T08:23:36Z</time>
      </trkpt>
      <trkpt lat="41.679731" lon="1.225331">
        <ele>473.331</ele>
        <time>2021-08-19T08:23:48Z</time>
      </trkpt>
      <trkpt lat="41.679741" lon="1.225259">
        <ele>472.839</ele>
        <time>2021-08-19T08:23:50Z</time>
      </trkpt>
      <trkpt lat="41.679749" lon="1.225171">
        <ele>472.318</ele>
        <time>2021-08-19T08:23:52Z</time>
      </trkpt>
      <trkpt lat="41.679742" lon="1.225085">
        <ele>472.157</ele>
        <time>2021-08-19T08:23:54Z</time>
      </trkpt>
      <trkpt lat="41.679731" lon="1.224995">
        <ele>471.882</ele>
        <time>2021-08-19T08:23:56Z</time>
      </trkpt>
      <trkpt lat="41.679739" lon="1.224895">
        <ele>470.643</ele>
        <time>2021-08-19T08:23:58Z</time>
      </trkpt>
      <trkpt lat="41.679746" lon="1.224784">
        <ele>469.417</ele>
        <time>2021-08-19T08:24:00Z</time>
      </trkpt>
      <trkpt lat="41.679744" lon="1.224679">
        <ele>468.608</ele>
        <time>2021-08-19T08:24:02Z</time>
      </trkpt>
      <trkpt lat="41.679735" lon="1.224578">
        <ele>468.426</ele>
        <time>2021-08-19T08:24:04Z</time>
      </trkpt>
      <trkpt lat="41.679721" lon="1.224485">
        <ele>468.229</ele>
        <time>2021-08-19T08:24:06Z</time>
      </trkpt>
      <trkpt lat="41.679692" lon="1.224392">
        <ele>468.982</ele>
        <time>2021-08-19T08:24:08Z</time>
      </trkpt>
      <trkpt lat="41.679674" lon="1.224306">
        <ele>469.843</ele>
        <time>2021-08-19T08:24:10Z</time>
      </trkpt>
      <trkpt lat="41.679658" lon="1.224215">
        <ele>470.670</ele>
        <time>2021-08-19T08:24:12Z</time>
      </trkpt>
      <trkpt lat="41.679634" lon="1.224111">
        <ele>471.618</ele>
        <time>2021-08-19T08:24:14Z</time>
      </trkpt>
      <trkpt lat="41.679623" lon="1.224017">
        <ele>472.497</ele>
        <time>2021-08-19T08:24:16Z</time>
      </trkpt>
      <trkpt lat="41.679609" lon="1.223924">
        <ele>473.256</ele>
        <time>2021-08-19T08:24:18Z</time>
      </trkpt>
      <trkpt lat="41.679610" lon="1.223850">
        <ele>473.458</ele>
        <time>2021-08-19T08:24:20Z</time>
      </trkpt>
      <trkpt lat="41.679621" lon="1.223784">
        <ele>473.052</ele>
        <time>2021-08-19T08:24:22Z</time>
      </trkpt>
      <trkpt lat="41.679629" lon="1.223709">
        <ele>472.817</ele>
        <time>2021-08-19T08:24:24Z</time>
      </trkpt>
      <trkpt lat="41.679639" lon="1.223638">
        <ele>472.508</ele>
        <time>2021-08-19T08:24:26Z</time>
      </trkpt>
      <trkpt lat="41.679653" lon="1.223571">
        <ele>472.263</ele>
        <time>2021-08-19T08:24:28Z</time>
      </trkpt>
      <trkpt lat="41.679682" lon="1.223492">
        <ele>471.736</ele>
        <time>2021-08-19T08:24:30Z</time>
      </trkpt>
      <trkpt lat="41.679709" lon="1.223407">
        <ele>471.219</ele>
        <time>2021-08-19T08:24:32Z</time>
      </trkpt>
      <trkpt lat="41.679715" lon="1.223330">
        <ele>471.120</ele>
        <time>2021-08-19T08:24:34Z</time>
      </trkpt>
      <trkpt lat="41.679705" lon="1.223253">
        <ele>471.337</ele>
        <time>2021-08-19T08:24:36Z</time>
      </trkpt>
      <trkpt lat="41.679695" lon="1.223190">
        <ele>471.595</ele>
        <time>2021-08-19T08:24:38Z</time>
      </trkpt>
      <trkpt lat="41.679661" lon="1.223109">
        <ele>472.374</ele>
        <time>2021-08-19T08:24:41Z</time>
      </trkpt>
      <trkpt lat="41.679631" lon="1.223064">
        <ele>473.033</ele>
        <time>2021-08-19T08:24:43Z</time>
      </trkpt>
      <trkpt lat="41.679595" lon="1.223001">
        <ele>473.911</ele>
        <time>2021-08-19T08:24:46Z</time>
      </trkpt>
      <trkpt lat="41.679595" lon="1.222928">
        <ele>474.021</ele>
        <time>2021-08-19T08:24:49Z</time>
      </trkpt>
      <trkpt lat="41.679606" lon="1.222866">
        <ele>473.903</ele>
        <time>2021-08-19T08:24:51Z</time>
      </trkpt>
      <trkpt lat="41.679614" lon="1.222794">
        <ele>473.908</ele>
        <time>2021-08-19T08:24:54Z</time>
      </trkpt>
      <trkpt lat="41.679605" lon="1.222733">
        <ele>474.069</ele>
        <time>2021-08-19T08:24:57Z</time>
      </trkpt>
      <trkpt lat="41.679617" lon="1.222663">
        <ele>473.692</ele>
        <time>2021-08-19T08:25:00Z</time>
      </trkpt>
      <trkpt lat="41.679661" lon="1.222621">
        <ele>472.915</ele>
        <time>2021-08-19T08:25:02Z</time>
      </trkpt>
      <trkpt lat="41.679703" lon="1.222598">
        <ele>472.316</ele>
        <time>2021-08-19T08:25:36Z</time>
      </trkpt>
      <trkpt lat="41.679759" lon="1.222587">
        <ele>471.753</ele>
        <time>2021-08-19T08:25:49Z</time>
      </trkpt>
      <trkpt lat="41.679928" lon="1.222590">
        <ele>470.321</ele>
        <time>2021-08-19T08:25:51Z</time>
      </trkpt>
      <trkpt lat="41.679988" lon="1.222589">
        <ele>469.860</ele>
        <time>2021-08-19T08:25:52Z</time>
      </trkpt>
      <trkpt lat="41.680034" lon="1.222588">
        <ele>469.339</ele>
        <time>2021-08-19T08:25:53Z</time>
      </trkpt>
      <trkpt lat="41.680075" lon="1.222626">
        <ele>468.783</ele>
        <time>2021-08-19T08:25:55Z</time>
      </trkpt>
      <trkpt lat="41.680133" lon="1.222604">
        <ele>468.225</ele>
        <time>2021-08-19T08:25:57Z</time>
      </trkpt>
      <trkpt lat="41.680121" lon="1.222542">
        <ele>468.517</ele>
        <time>2021-08-19T08:26:31Z</time>
      </trkpt>
      <trkpt lat="41.680116" lon="1.222472">
        <ele>468.708</ele>
        <time>2021-08-19T08:26:34Z</time>
      </trkpt>
      <trkpt lat="41.680117" lon="1.222390">
        <ele>468.516</ele>
        <time>2021-08-19T08:26:36Z</time>
      </trkpt>
      <trkpt lat="41.680098" lon="1.222291">
        <ele>468.529</ele>
        <time>2021-08-19T08:26:38Z</time>
      </trkpt>
      <trkpt lat="41.680062" lon="1.222193">
        <ele>468.492</ele>
        <time>2021-08-19T08:26:40Z</time>
      </trkpt>
      <trkpt lat="41.680024" lon="1.222093">
        <ele>468.443</ele>
        <time>2021-08-19T08:26:42Z</time>
      </trkpt>
      <trkpt lat="41.680000" lon="1.221987">
        <ele>468.240</ele>
        <time>2021-08-19T08:26:44Z</time>
      </trkpt>
      <trkpt lat="41.680000" lon="1.221874">
        <ele>467.578</ele>
        <time>2021-08-19T08:26:46Z</time>
      </trkpt>
      <trkpt lat="41.679986" lon="1.221762">
        <ele>466.767</ele>
        <time>2021-08-19T08:26:48Z</time>
      </trkpt>
      <trkpt lat="41.679976" lon="1.221682">
        <ele>466.156</ele>
        <time>2021-08-19T08:26:50Z</time>
      </trkpt>
      <trkpt lat="41.680014" lon="1.221714">
        <ele>466.324</ele>
        <time>2021-08-19T08:27:17Z</time>
      </trkpt>
      <trkpt lat="41.680059" lon="1.221671">
        <ele>465.804</ele>
        <time>2021-08-19T08:27:41Z</time>
      </trkpt>
      <trkpt lat="41.680094" lon="1.221592">
        <ele>465.314</ele>
        <time>2021-08-19T08:27:43Z</time>
      </trkpt>
      <trkpt lat="41.680115" lon="1.221535">
        <ele>465.008</ele>
        <time>2021-08-19T08:27:45Z</time>
      </trkpt>
      <trkpt lat="41.680132" lon="1.221477">
        <ele>464.810</ele>
        <time>2021-08-19T08:27:46Z</time>
      </trkpt>
      <trkpt lat="41.680152" lon="1.221411">
        <ele>464.623</ele>
        <time>2021-08-19T08:27:48Z</time>
      </trkpt>
      <trkpt lat="41.680165" lon="1.221335">
        <ele>464.316</ele>
        <time>2021-08-19T08:27:50Z</time>
      </trkpt>
      <trkpt lat="41.680166" lon="1.221252">
        <ele>463.957</ele>
        <time>2021-08-19T08:27:51Z</time>
      </trkpt>
      <trkpt lat="41.680172" lon="1.221192">
        <ele>463.694</ele>
        <time>2021-08-19T08:27:53Z</time>
      </trkpt>
      <trkpt lat="41.680182" lon="1.221130">
        <ele>463.452</ele>
        <time>2021-08-19T08:27:54Z</time>
      </trkpt>
      <trkpt lat="41.680191" lon="1.221070">
        <ele>463.291</ele>
        <time>2021-08-19T08:27:56Z</time>
      </trkpt>
      <trkpt lat="41.680206" lon="1.221003">
        <ele>463.020</ele>
        <time>2021-08-19T08:27:57Z</time>
      </trkpt>
      <trkpt lat="41.680225" lon="1.220933">
        <ele>462.988</ele>
        <time>2021-08-19T08:27:59Z</time>
      </trkpt>
      <trkpt lat="41.680245" lon="1.220837">
        <ele>462.724</ele>
        <time>2021-08-19T08:28:01Z</time>
      </trkpt>
      <trkpt lat="41.680271" lon="1.220780">
        <ele>462.526</ele>
        <time>2021-08-19T08:28:03Z</time>
      </trkpt>
      <trkpt lat="41.680293" lon="1.220727">
        <ele>462.308</ele>
        <time>2021-08-19T08:28:04Z</time>
      </trkpt>
      <trkpt lat="41.680327" lon="1.220660">
        <ele>461.916</ele>
        <time>2021-08-19T08:28:06Z</time>
      </trkpt>
      <trkpt lat="41.680364" lon="1.220609">
        <ele>461.669</ele>
        <time>2021-08-19T08:28:08Z</time>
      </trkpt>
      <trkpt lat="41.680407" lon="1.220561">
        <ele>461.512</ele>
        <time>2021-08-19T08:28:10Z</time>
      </trkpt>
      <trkpt lat="41.680452" lon="1.220514">
        <ele>461.473</ele>
        <time>2021-08-19T08:28:12Z</time>
      </trkpt>
      <trkpt lat="41.680495" lon="1.220464">
        <ele>461.450</ele>
        <time>2021-08-19T08:28:14Z</time>
      </trkpt>
      <trkpt lat="41.680537" lon="1.220424">
        <ele>461.478</ele>
        <time>2021-08-19T08:28:16Z</time>
      </trkpt>
      <trkpt lat="41.680580" lon="1.220385">
        <ele>461.557</ele>
        <time>2021-08-19T08:28:17Z</time>
      </trkpt>
      <trkpt lat="41.680643" lon="1.220333">
        <ele>461.856</ele>
        <time>2021-08-19T08:28:20Z</time>
      </trkpt>
      <trkpt lat="41.680685" lon="1.220297">
        <ele>462.036</ele>
        <time>2021-08-19T08:28:22Z</time>
      </trkpt>
      <trkpt lat="41.680737" lon="1.220241">
        <ele>462.317</ele>
        <time>2021-08-19T08:28:24Z</time>
      </trkpt>
      <trkpt lat="41.680785" lon="1.220191">
        <ele>462.718</ele>
        <time>2021-08-19T08:28:26Z</time>
      </trkpt>
      <trkpt lat="41.680843" lon="1.220149">
        <ele>463.008</ele>
        <time>2021-08-19T08:28:28Z</time>
      </trkpt>
      <trkpt lat="41.680891" lon="1.220107">
        <ele>463.211</ele>
        <time>2021-08-19T08:28:30Z</time>
      </trkpt>
      <trkpt lat="41.680930" lon="1.220069">
        <ele>463.364</ele>
        <time>2021-08-19T08:28:32Z</time>
      </trkpt>
      <trkpt lat="41.680978" lon="1.220010">
        <ele>463.547</ele>
        <time>2021-08-19T08:28:34Z</time>
      </trkpt>
      <trkpt lat="41.681020" lon="1.219937">
        <ele>463.568</ele>
        <time>2021-08-19T08:28:36Z</time>
      </trkpt>
      <trkpt lat="41.681052" lon="1.219863">
        <ele>463.475</ele>
        <time>2021-08-19T08:28:38Z</time>
      </trkpt>
      <trkpt lat="41.681087" lon="1.219790">
        <ele>463.223</ele>
        <time>2021-08-19T08:28:40Z</time>
      </trkpt>
      <trkpt lat="41.681128" lon="1.219721">
        <ele>463.012</ele>
        <time>2021-08-19T08:28:42Z</time>
      </trkpt>
      <trkpt lat="41.681174" lon="1.219652">
        <ele>462.971</ele>
        <time>2021-08-19T08:28:44Z</time>
      </trkpt>
      <trkpt lat="41.681224" lon="1.219582">
        <ele>462.845</ele>
        <time>2021-08-19T08:28:46Z</time>
      </trkpt>
      <trkpt lat="41.681274" lon="1.219522">
        <ele>462.647</ele>
        <time>2021-08-19T08:28:48Z</time>
      </trkpt>
      <trkpt lat="41.681317" lon="1.219469">
        <ele>462.311</ele>
        <time>2021-08-19T08:28:50Z</time>
      </trkpt>
      <trkpt lat="41.681364" lon="1.219401">
        <ele>462.108</ele>
        <time>2021-08-19T08:28:52Z</time>
      </trkpt>
      <trkpt lat="41.681422" lon="1.219324">
        <ele>461.892</ele>
        <time>2021-08-19T08:28:54Z</time>
      </trkpt>
      <trkpt lat="41.681474" lon="1.219238">
        <ele>461.585</ele>
        <time>2021-08-19T08:28:56Z</time>
      </trkpt>
      <trkpt lat="41.681521" lon="1.219146">
        <ele>461.038</ele>
        <time>2021-08-19T08:28:58Z</time>
      </trkpt>
      <trkpt lat="41.681568" lon="1.219061">
        <ele>460.619</ele>
        <time>2021-08-19T08:29:00Z</time>
      </trkpt>
      <trkpt lat="41.681615" lon="1.218986">
        <ele>460.326</ele>
        <time>2021-08-19T08:29:02Z</time>
      </trkpt>
      <trkpt lat="41.681659" lon="1.218905">
        <ele>460.034</ele>
        <time>2021-08-19T08:29:04Z</time>
      </trkpt>
      <trkpt lat="41.681705" lon="1.218834">
        <ele>459.663</ele>
        <time>2021-08-19T08:29:06Z</time>
      </trkpt>
      <trkpt lat="41.681752" lon="1.218772">
        <ele>459.142</ele>
        <time>2021-08-19T08:29:08Z</time>
      </trkpt>
      <trkpt lat="41.681804" lon="1.218694">
        <ele>458.548</ele>
        <time>2021-08-19T08:29:10Z</time>
      </trkpt>
      <trkpt lat="41.681849" lon="1.218608">
        <ele>457.761</ele>
        <time>2021-08-19T08:29:12Z</time>
      </trkpt>
      <trkpt lat="41.681881" lon="1.218511">
        <ele>457.417</ele>
        <time>2021-08-19T08:29:14Z</time>
      </trkpt>
      <trkpt lat="41.681918" lon="1.218417">
        <ele>457.108</ele>
        <time>2021-08-19T08:29:16Z</time>
      </trkpt>
      <trkpt lat="41.681957" lon="1.218329">
        <ele>456.992</ele>
        <time>2021-08-19T08:29:18Z</time>
      </trkpt>
      <trkpt lat="41.681994" lon="1.218240">
        <ele>456.665</ele>
        <time>2021-08-19T08:29:20Z</time>
      </trkpt>
      <trkpt lat="41.682050" lon="1.218176">
        <ele>456.278</ele>
        <time>2021-08-19T08:29:22Z</time>
      </trkpt>
      <trkpt lat="41.682104" lon="1.218112">
        <ele>455.969</ele>
        <time>2021-08-19T08:29:24Z</time>
      </trkpt>
      <trkpt lat="41.682154" lon="1.218037">
        <ele>455.566</ele>
        <time>2021-08-19T08:29:26Z</time>
      </trkpt>
      <trkpt lat="41.682203" lon="1.217952">
        <ele>455.514</ele>
        <time>2021-08-19T08:29:28Z</time>
      </trkpt>
      <trkpt lat="41.682245" lon="1.217862">
        <ele>455.613</ele>
        <time>2021-08-19T08:29:30Z</time>
      </trkpt>
      <trkpt lat="41.682279" lon="1.217758">
        <ele>455.832</ele>
        <time>2021-08-19T08:29:32Z</time>
      </trkpt>
      <trkpt lat="41.682294" lon="1.217701">
        <ele>455.774</ele>
        <time>2021-08-19T08:29:33Z</time>
      </trkpt>
      <trkpt lat="41.682322" lon="1.217601">
        <ele>455.656</ele>
        <time>2021-08-19T08:29:35Z</time>
      </trkpt>
      <trkpt lat="41.682344" lon="1.217501">
        <ele>455.621</ele>
        <time>2021-08-19T08:29:37Z</time>
      </trkpt>
      <trkpt lat="41.682393" lon="1.217420">
        <ele>455.408</ele>
        <time>2021-08-19T08:29:39Z</time>
      </trkpt>
      <trkpt lat="41.682438" lon="1.217326">
        <ele>455.215</ele>
        <time>2021-08-19T08:29:41Z</time>
      </trkpt>
      <trkpt lat="41.682495" lon="1.217211">
        <ele>455.078</ele>
        <time>2021-08-19T08:29:43Z</time>
      </trkpt>
      <trkpt lat="41.682544" lon="1.217089">
        <ele>454.221</ele>
        <time>2021-08-19T08:29:45Z</time>
      </trkpt>
      <trkpt lat="41.682565" lon="1.217031">
        <ele>453.882</ele>
        <time>2021-08-19T08:29:46Z</time>
      </trkpt>
      <trkpt lat="41.682596" lon="1.216925">
        <ele>453.469</ele>
        <time>2021-08-19T08:29:48Z</time>
      </trkpt>
      <trkpt lat="41.682621" lon="1.216822">
        <ele>453.487</ele>
        <time>2021-08-19T08:29:50Z</time>
      </trkpt>
      <trkpt lat="41.682655" lon="1.216771">
        <ele>453.296</ele>
        <time>2021-08-19T08:29:51Z</time>
      </trkpt>
      <trkpt lat="41.682682" lon="1.216719">
        <ele>453.055</ele>
        <time>2021-08-19T08:29:52Z</time>
      </trkpt>
      <trkpt lat="41.682745" lon="1.216625">
        <ele>452.632</ele>
        <time>2021-08-19T08:29:54Z</time>
      </trkpt>
      <trkpt lat="41.682774" lon="1.216576">
        <ele>452.792</ele>
        <time>2021-08-19T08:29:55Z</time>
      </trkpt>
      <trkpt lat="41.682816" lon="1.216495">
        <ele>453.011</ele>
        <time>2021-08-19T08:29:57Z</time>
      </trkpt>
      <trkpt lat="41.682877" lon="1.216414">
        <ele>453.108</ele>
        <time>2021-08-19T08:29:59Z</time>
      </trkpt>
      <trkpt lat="41.682975" lon="1.216323">
        <ele>453.091</ele>
        <time>2021-08-19T08:30:01Z</time>
      </trkpt>
      <trkpt lat="41.683067" lon="1.216228">
        <ele>453.034</ele>
        <time>2021-08-19T08:30:03Z</time>
      </trkpt>
      <trkpt lat="41.683112" lon="1.216176">
        <ele>452.877</ele>
        <time>2021-08-19T08:30:04Z</time>
      </trkpt>
      <trkpt lat="41.683158" lon="1.216129">
        <ele>452.458</ele>
        <time>2021-08-19T08:30:05Z</time>
      </trkpt>
      <trkpt lat="41.683249" lon="1.216034">
        <ele>450.925</ele>
        <time>2021-08-19T08:30:07Z</time>
      </trkpt>
      <trkpt lat="41.683341" lon="1.215942">
        <ele>449.383</ele>
        <time>2021-08-19T08:30:09Z</time>
      </trkpt>
      <trkpt lat="41.683383" lon="1.215892">
        <ele>448.732</ele>
        <time>2021-08-19T08:30:10Z</time>
      </trkpt>
      <trkpt lat="41.683464" lon="1.215792">
        <ele>447.681</ele>
        <time>2021-08-19T08:30:12Z</time>
      </trkpt>
      <trkpt lat="41.683504" lon="1.215741">
        <ele>447.258</ele>
        <time>2021-08-19T08:30:13Z</time>
      </trkpt>
      <trkpt lat="41.683575" lon="1.215648">
        <ele>446.452</ele>
        <time>2021-08-19T08:30:15Z</time>
      </trkpt>
      <trkpt lat="41.683605" lon="1.215597">
        <ele>446.117</ele>
        <time>2021-08-19T08:30:16Z</time>
      </trkpt>
      <trkpt lat="41.683636" lon="1.215542">
        <ele>445.708</ele>
        <time>2021-08-19T08:30:17Z</time>
      </trkpt>
      <trkpt lat="41.683694" lon="1.215432">
        <ele>444.883</ele>
        <time>2021-08-19T08:30:19Z</time>
      </trkpt>
      <trkpt lat="41.683732" lon="1.215335">
        <ele>444.256</ele>
        <time>2021-08-19T08:30:21Z</time>
      </trkpt>
      <trkpt lat="41.683754" lon="1.215279">
        <ele>444.039</ele>
        <time>2021-08-19T08:30:22Z</time>
      </trkpt>
      <trkpt lat="41.683790" lon="1.215190">
        <ele>443.440</ele>
        <time>2021-08-19T08:30:24Z</time>
      </trkpt>
      <trkpt lat="41.683845" lon="1.215101">
        <ele>442.797</ele>
        <time>2021-08-19T08:30:26Z</time>
      </trkpt>
      <trkpt lat="41.683881" lon="1.215055">
        <ele>442.335</ele>
        <time>2021-08-19T08:30:28Z</time>
      </trkpt>
      <trkpt lat="41.683917" lon="1.215007">
        <ele>441.934</ele>
        <time>2021-08-19T08:30:29Z</time>
      </trkpt>
      <trkpt lat="41.683977" lon="1.214936">
        <ele>441.883</ele>
        <time>2021-08-19T08:30:31Z</time>
      </trkpt>
      <trkpt lat="41.684066" lon="1.214859">
        <ele>441.761</ele>
        <time>2021-08-19T08:30:33Z</time>
      </trkpt>
      <trkpt lat="41.684122" lon="1.214814">
        <ele>441.721</ele>
        <time>2021-08-19T08:30:34Z</time>
      </trkpt>
      <trkpt lat="41.684211" lon="1.214736">
        <ele>441.613</ele>
        <time>2021-08-19T08:30:36Z</time>
      </trkpt>
      <trkpt lat="41.684248" lon="1.214699">
        <ele>441.408</ele>
        <time>2021-08-19T08:30:37Z</time>
      </trkpt>
      <trkpt lat="41.684308" lon="1.214625">
        <ele>440.854</ele>
        <time>2021-08-19T08:30:39Z</time>
      </trkpt>
      <trkpt lat="41.684370" lon="1.214561">
        <ele>440.417</ele>
        <time>2021-08-19T08:30:41Z</time>
      </trkpt>
      <trkpt lat="41.684423" lon="1.214493">
        <ele>440.140</ele>
        <time>2021-08-19T08:30:43Z</time>
      </trkpt>
      <trkpt lat="41.684479" lon="1.214418">
        <ele>439.951</ele>
        <time>2021-08-19T08:30:45Z</time>
      </trkpt>
      <trkpt lat="41.684537" lon="1.214347">
        <ele>439.898</ele>
        <time>2021-08-19T08:30:47Z</time>
      </trkpt>
      <trkpt lat="41.684598" lon="1.214289">
        <ele>439.826</ele>
        <time>2021-08-19T08:30:49Z</time>
      </trkpt>
      <trkpt lat="41.684662" lon="1.214230">
        <ele>439.895</ele>
        <time>2021-08-19T08:30:51Z</time>
      </trkpt>
      <trkpt lat="41.684707" lon="1.214198">
        <ele>439.914</ele>
        <time>2021-08-19T08:30:52Z</time>
      </trkpt>
      <trkpt lat="41.684776" lon="1.214139">
        <ele>439.448</ele>
        <time>2021-08-19T08:30:54Z</time>
      </trkpt>
      <trkpt lat="41.684846" lon="1.214082">
        <ele>438.861</ele>
        <time>2021-08-19T08:30:56Z</time>
      </trkpt>
      <trkpt lat="41.684914" lon="1.214021">
        <ele>438.317</ele>
        <time>2021-08-19T08:30:58Z</time>
      </trkpt>
      <trkpt lat="41.684977" lon="1.213958">
        <ele>437.908</ele>
        <time>2021-08-19T08:31:00Z</time>
      </trkpt>
      <trkpt lat="41.685029" lon="1.213889">
        <ele>437.752</ele>
        <time>2021-08-19T08:31:02Z</time>
      </trkpt>
      <trkpt lat="41.685074" lon="1.213812">
        <ele>437.065</ele>
        <time>2021-08-19T08:31:04Z</time>
      </trkpt>
      <trkpt lat="41.685119" lon="1.213730">
        <ele>436.478</ele>
        <time>2021-08-19T08:31:06Z</time>
      </trkpt>
      <trkpt lat="41.685204" lon="1.213634">
        <ele>435.699</ele>
        <time>2021-08-19T08:31:08Z</time>
      </trkpt>
      <trkpt lat="41.685266" lon="1.213551">
        <ele>434.976</ele>
        <time>2021-08-19T08:31:10Z</time>
      </trkpt>
      <trkpt lat="41.685289" lon="1.213499">
        <ele>434.584</ele>
        <time>2021-08-19T08:31:11Z</time>
      </trkpt>
      <trkpt lat="41.685351" lon="1.213427">
        <ele>433.583</ele>
        <time>2021-08-19T08:31:13Z</time>
      </trkpt>
      <trkpt lat="41.685414" lon="1.213352">
        <ele>432.692</ele>
        <time>2021-08-19T08:31:15Z</time>
      </trkpt>
      <trkpt lat="41.685518" lon="1.213291">
        <ele>431.465</ele>
        <time>2021-08-19T08:31:17Z</time>
      </trkpt>
      <trkpt lat="41.685573" lon="1.213231">
        <ele>430.868</ele>
        <time>2021-08-19T08:31:19Z</time>
      </trkpt>
      <trkpt lat="41.685619" lon="1.213170">
        <ele>430.214</ele>
        <time>2021-08-19T08:31:21Z</time>
      </trkpt>
      <trkpt lat="41.685654" lon="1.213110">
        <ele>429.708</ele>
        <time>2021-08-19T08:31:23Z</time>
      </trkpt>
      <trkpt lat="41.685691" lon="1.213046">
        <ele>429.084</ele>
        <time>2021-08-19T08:31:25Z</time>
      </trkpt>
      <trkpt lat="41.685721" lon="1.212974">
        <ele>428.497</ele>
        <time>2021-08-19T08:31:27Z</time>
      </trkpt>
      <trkpt lat="41.685756" lon="1.212890">
        <ele>427.890</ele>
        <time>2021-08-19T08:31:29Z</time>
      </trkpt>
      <trkpt lat="41.685796" lon="1.212812">
        <ele>427.331</ele>
        <time>2021-08-19T08:31:30Z</time>
      </trkpt>
      <trkpt lat="41.685868" lon="1.212698">
        <ele>426.528</ele>
        <time>2021-08-19T08:31:32Z</time>
      </trkpt>
      <trkpt lat="41.685914" lon="1.212647">
        <ele>425.826</ele>
        <time>2021-08-19T08:31:33Z</time>
      </trkpt>
      <trkpt lat="41.685964" lon="1.212599">
        <ele>425.175</ele>
        <time>2021-08-19T08:31:34Z</time>
      </trkpt>
      <trkpt lat="41.686057" lon="1.212504">
        <ele>423.894</ele>
        <time>2021-08-19T08:31:36Z</time>
      </trkpt>
      <trkpt lat="41.686124" lon="1.212401">
        <ele>423.443</ele>
        <time>2021-08-19T08:31:38Z</time>
      </trkpt>
      <trkpt lat="41.686157" lon="1.212344">
        <ele>423.864</ele>
        <time>2021-08-19T08:31:39Z</time>
      </trkpt>
      <trkpt lat="41.686188" lon="1.212290">
        <ele>424.210</ele>
        <time>2021-08-19T08:31:40Z</time>
      </trkpt>
      <trkpt lat="41.686239" lon="1.212185">
        <ele>425.008</ele>
        <time>2021-08-19T08:31:42Z</time>
      </trkpt>
      <trkpt lat="41.686264" lon="1.212131">
        <ele>425.212</ele>
        <time>2021-08-19T08:31:43Z</time>
      </trkpt>
      <trkpt lat="41.686309" lon="1.212050">
        <ele>425.695</ele>
        <time>2021-08-19T08:31:45Z</time>
      </trkpt>
      <trkpt lat="41.686359" lon="1.211959">
        <ele>425.998</ele>
        <time>2021-08-19T08:31:47Z</time>
      </trkpt>
      <trkpt lat="41.686388" lon="1.211905">
        <ele>425.989</ele>
        <time>2021-08-19T08:31:48Z</time>
      </trkpt>
      <trkpt lat="41.686433" lon="1.211816">
        <ele>425.946</ele>
        <time>2021-08-19T08:31:50Z</time>
      </trkpt>
      <trkpt lat="41.686470" lon="1.211776">
        <ele>426.134</ele>
        <time>2021-08-19T08:31:51Z</time>
      </trkpt>
      <trkpt lat="41.686517" lon="1.211710">
        <ele>426.143</ele>
        <time>2021-08-19T08:31:53Z</time>
      </trkpt>
      <trkpt lat="41.686569" lon="1.211642">
        <ele>426.232</ele>
        <time>2021-08-19T08:31:55Z</time>
      </trkpt>
      <trkpt lat="41.686628" lon="1.211579">
        <ele>426.499</ele>
        <time>2021-08-19T08:31:57Z</time>
      </trkpt>
      <trkpt lat="41.686689" lon="1.211510">
        <ele>426.807</ele>
        <time>2021-08-19T08:31:59Z</time>
      </trkpt>
      <trkpt lat="41.686731" lon="1.211433">
        <ele>427.127</ele>
        <time>2021-08-19T08:32:01Z</time>
      </trkpt>
      <trkpt lat="41.686776" lon="1.211351">
        <ele>427.408</ele>
        <time>2021-08-19T08:32:03Z</time>
      </trkpt>
      <trkpt lat="41.686811" lon="1.211282">
        <ele>427.567</ele>
        <time>2021-08-19T08:32:05Z</time>
      </trkpt>
      <trkpt lat="41.686831" lon="1.211206">
        <ele>427.380</ele>
        <time>2021-08-19T08:32:07Z</time>
      </trkpt>
      <trkpt lat="41.686850" lon="1.211116">
        <ele>427.013</ele>
        <time>2021-08-19T08:32:09Z</time>
      </trkpt>
      <trkpt lat="41.686880" lon="1.211045">
        <ele>426.664</ele>
        <time>2021-08-19T08:32:11Z</time>
      </trkpt>
      <trkpt lat="41.686913" lon="1.210989">
        <ele>426.441</ele>
        <time>2021-08-19T08:32:13Z</time>
      </trkpt>
      <trkpt lat="41.686951" lon="1.210924">
        <ele>426.179</ele>
        <time>2021-08-19T08:32:16Z</time>
      </trkpt>
      <trkpt lat="41.686998" lon="1.210879">
        <ele>426.358</ele>
        <time>2021-08-19T08:32:19Z</time>
      </trkpt>
      <trkpt lat="41.687034" lon="1.210819">
        <ele>426.217</ele>
        <time>2021-08-19T08:32:22Z</time>
      </trkpt>
      <trkpt lat="41.687075" lon="1.210761">
        <ele>426.279</ele>
        <time>2021-08-19T08:32:26Z</time>
      </trkpt>
      <trkpt lat="41.687108" lon="1.210706">
        <ele>426.205</ele>
        <time>2021-08-19T08:32:29Z</time>
      </trkpt>
      <trkpt lat="41.687128" lon="1.210648">
        <ele>426.125</ele>
        <time>2021-08-19T08:32:31Z</time>
      </trkpt>
      <trkpt lat="41.687137" lon="1.210584">
        <ele>425.708</ele>
        <time>2021-08-19T08:32:33Z</time>
      </trkpt>
      <trkpt lat="41.687153" lon="1.210500">
        <ele>425.615</ele>
        <time>2021-08-19T08:32:35Z</time>
      </trkpt>
      <trkpt lat="41.687170" lon="1.210421">
        <ele>425.688</ele>
        <time>2021-08-19T08:32:37Z</time>
      </trkpt>
      <trkpt lat="41.687199" lon="1.210344">
        <ele>425.891</ele>
        <time>2021-08-19T08:32:39Z</time>
      </trkpt>
      <trkpt lat="41.687226" lon="1.210268">
        <ele>426.092</ele>
        <time>2021-08-19T08:32:41Z</time>
      </trkpt>
      <trkpt lat="41.687240" lon="1.210200">
        <ele>426.129</ele>
        <time>2021-08-19T08:32:43Z</time>
      </trkpt>
      <trkpt lat="41.687255" lon="1.210134">
        <ele>426.137</ele>
        <time>2021-08-19T08:32:44Z</time>
      </trkpt>
      <trkpt lat="41.687282" lon="1.210024">
        <ele>426.286</ele>
        <time>2021-08-19T08:32:46Z</time>
      </trkpt>
      <trkpt lat="41.687307" lon="1.209926">
        <ele>425.925</ele>
        <time>2021-08-19T08:32:48Z</time>
      </trkpt>
      <trkpt lat="41.687328" lon="1.209835">
        <ele>425.537</ele>
        <time>2021-08-19T08:32:50Z</time>
      </trkpt>
      <trkpt lat="41.687350" lon="1.209772">
        <ele>425.349</ele>
        <time>2021-08-19T08:32:52Z</time>
      </trkpt>
      <trkpt lat="41.687376" lon="1.209687">
        <ele>424.913</ele>
        <time>2021-08-19T08:32:54Z</time>
      </trkpt>
      <trkpt lat="41.687406" lon="1.209605">
        <ele>424.508</ele>
        <time>2021-08-19T08:32:56Z</time>
      </trkpt>
      <trkpt lat="41.687439" lon="1.209510">
        <ele>424.041</ele>
        <time>2021-08-19T08:32:58Z</time>
      </trkpt>
      <trkpt lat="41.687471" lon="1.209416">
        <ele>423.554</ele>
        <time>2021-08-19T08:33:00Z</time>
      </trkpt>
      <trkpt lat="41.687496" lon="1.209316">
        <ele>423.027</ele>
        <time>2021-08-19T08:33:02Z</time>
      </trkpt>
      <trkpt lat="41.687517" lon="1.209239">
        <ele>422.898</ele>
        <time>2021-08-19T08:33:04Z</time>
      </trkpt>
      <trkpt lat="41.687546" lon="1.209168">
        <ele>422.735</ele>
        <time>2021-08-19T08:33:06Z</time>
      </trkpt>
      <trkpt lat="41.687571" lon="1.209104">
        <ele>423.073</ele>
        <time>2021-08-19T08:33:08Z</time>
      </trkpt>
      <trkpt lat="41.687594" lon="1.209036">
        <ele>423.292</ele>
        <time>2021-08-19T08:33:10Z</time>
      </trkpt>
      <trkpt lat="41.687614" lon="1.208964">
        <ele>423.391</ele>
        <time>2021-08-19T08:33:12Z</time>
      </trkpt>
      <trkpt lat="41.687637" lon="1.208884">
        <ele>423.538</ele>
        <time>2021-08-19T08:33:14Z</time>
      </trkpt>
      <trkpt lat="41.687645" lon="1.208806">
        <ele>423.470</ele>
        <time>2021-08-19T08:33:16Z</time>
      </trkpt>
      <trkpt lat="41.687650" lon="1.208725">
        <ele>423.317</ele>
        <time>2021-08-19T08:33:18Z</time>
      </trkpt>
      <trkpt lat="41.687656" lon="1.208648">
        <ele>423.308</ele>
        <time>2021-08-19T08:33:20Z</time>
      </trkpt>
      <trkpt lat="41.687661" lon="1.208577">
        <ele>423.161</ele>
        <time>2021-08-19T08:33:22Z</time>
      </trkpt>
      <trkpt lat="41.687671" lon="1.208503">
        <ele>422.844</ele>
        <time>2021-08-19T08:33:24Z</time>
      </trkpt>
      <trkpt lat="41.687682" lon="1.208429">
        <ele>422.587</ele>
        <time>2021-08-19T08:33:26Z</time>
      </trkpt>
      <trkpt lat="41.687700" lon="1.208356">
        <ele>422.328</ele>
        <time>2021-08-19T08:33:28Z</time>
      </trkpt>
      <trkpt lat="41.687715" lon="1.208285">
        <ele>422.125</ele>
        <time>2021-08-19T08:33:30Z</time>
      </trkpt>
      <trkpt lat="41.687728" lon="1.208211">
        <ele>422.043</ele>
        <time>2021-08-19T08:33:32Z</time>
      </trkpt>
      <trkpt lat="41.687737" lon="1.208140">
        <ele>421.992</ele>
        <time>2021-08-19T08:33:34Z</time>
      </trkpt>
      <trkpt lat="41.687743" lon="1.208070">
        <ele>421.781</ele>
        <time>2021-08-19T08:33:36Z</time>
      </trkpt>
      <trkpt lat="41.687751" lon="1.207996">
        <ele>421.769</ele>
        <time>2021-08-19T08:33:38Z</time>
      </trkpt>
      <trkpt lat="41.687766" lon="1.207914">
        <ele>421.904</ele>
        <time>2021-08-19T08:33:40Z</time>
      </trkpt>
      <trkpt lat="41.687778" lon="1.207841">
        <ele>422.024</ele>
        <time>2021-08-19T08:33:42Z</time>
      </trkpt>
      <trkpt lat="41.687788" lon="1.207736">
        <ele>422.008</ele>
        <time>2021-08-19T08:33:44Z</time>
      </trkpt>
      <trkpt lat="41.687819" lon="1.207610">
        <ele>422.144</ele>
        <time>2021-08-19T08:33:46Z</time>
      </trkpt>
      <trkpt lat="41.687794" lon="1.207556">
        <ele>421.597</ele>
        <time>2021-08-19T08:33:48Z</time>
      </trkpt>
      <trkpt lat="41.687802" lon="1.207468">
        <ele>421.360</ele>
        <time>2021-08-19T08:33:50Z</time>
      </trkpt>
      <trkpt lat="41.687821" lon="1.207398">
        <ele>421.411</ele>
        <time>2021-08-19T08:33:52Z</time>
      </trkpt>
      <trkpt lat="41.687836" lon="1.207331">
        <ele>421.438</ele>
        <time>2021-08-19T08:33:54Z</time>
      </trkpt>
      <trkpt lat="41.687851" lon="1.207268">
        <ele>421.566</ele>
        <time>2021-08-19T08:33:56Z</time>
      </trkpt>
      <trkpt lat="41.687857" lon="1.207205">
        <ele>421.465</ele>
        <time>2021-08-19T08:33:58Z</time>
      </trkpt>
      <trkpt lat="41.687859" lon="1.207118">
        <ele>421.314</ele>
        <time>2021-08-19T08:34:01Z</time>
      </trkpt>
      <trkpt lat="41.687884" lon="1.207065">
        <ele>421.885</ele>
        <time>2021-08-19T08:34:04Z</time>
      </trkpt>
      <trkpt lat="41.687912" lon="1.206999">
        <ele>422.489</ele>
        <time>2021-08-19T08:34:08Z</time>
      </trkpt>
      <trkpt lat="41.687938" lon="1.206938">
        <ele>423.117</ele>
        <time>2021-08-19T08:34:11Z</time>
      </trkpt>
      <trkpt lat="41.687972" lon="1.206877">
        <ele>424.008</ele>
        <time>2021-08-19T08:34:15Z</time>
      </trkpt>
      <trkpt lat="41.688017" lon="1.206835">
        <ele>425.196</ele>
        <time>2021-08-19T08:34:18Z</time>
      </trkpt>
      <trkpt lat="41.688059" lon="1.206783">
        <ele>426.189</ele>
        <time>2021-08-19T08:34:21Z</time>
      </trkpt>
      <trkpt lat="41.688092" lon="1.206727">
        <ele>426.862</ele>
        <time>2021-08-19T08:34:24Z</time>
      </trkpt>
      <trkpt lat="41.688123" lon="1.206675">
        <ele>427.573</ele>
        <time>2021-08-19T08:34:28Z</time>
      </trkpt>
      <trkpt lat="41.688123" lon="1.206598">
        <ele>427.980</ele>
        <time>2021-08-19T08:34:33Z</time>
      </trkpt>
      <trkpt lat="41.688126" lon="1.206533">
        <ele>428.438</ele>
        <time>2021-08-19T08:34:37Z</time>
      </trkpt>
      <trkpt lat="41.688106" lon="1.206479">
        <ele>428.317</ele>
        <time>2021-08-19T08:35:14Z</time>
      </trkpt>
      <trkpt lat="41.688106" lon="1.206412">
        <ele>428.896</ele>
        <time>2021-08-19T08:36:29Z</time>
      </trkpt>
      <trkpt lat="41.688106" lon="1.206320">
        <ele>429.668</ele>
        <time>2021-08-19T08:36:32Z</time>
      </trkpt>
      <trkpt lat="41.688113" lon="1.206256">
        <ele>430.442</ele>
        <time>2021-08-19T08:36:34Z</time>
      </trkpt>
      <trkpt lat="41.688114" lon="1.206195">
        <ele>431.026</ele>
        <time>2021-08-19T08:36:36Z</time>
      </trkpt>
      <trkpt lat="41.688115" lon="1.206116">
        <ele>431.808</ele>
        <time>2021-08-19T08:36:39Z</time>
      </trkpt>
      <trkpt lat="41.688122" lon="1.206047">
        <ele>432.164</ele>
        <time>2021-08-19T08:36:42Z</time>
      </trkpt>
      <trkpt lat="41.688124" lon="1.205970">
        <ele>432.237</ele>
        <time>2021-08-19T08:36:45Z</time>
      </trkpt>
      <trkpt lat="41.688140" lon="1.205913">
        <ele>432.670</ele>
        <time>2021-08-19T08:36:47Z</time>
      </trkpt>
      <trkpt lat="41.688184" lon="1.205863">
        <ele>433.741</ele>
        <time>2021-08-19T08:36:50Z</time>
      </trkpt>
      <trkpt lat="41.688207" lon="1.205797">
        <ele>434.448</ele>
        <time>2021-08-19T08:36:53Z</time>
      </trkpt>
      <trkpt lat="41.688218" lon="1.205723">
        <ele>435.096</ele>
        <time>2021-08-19T08:36:56Z</time>
      </trkpt>
      <trkpt lat="41.688201" lon="1.205656">
        <ele>434.855</ele>
        <time>2021-08-19T08:36:59Z</time>
      </trkpt>
      <trkpt lat="41.688180" lon="1.205590">
        <ele>434.524</ele>
        <time>2021-08-19T08:37:01Z</time>
      </trkpt>
      <trkpt lat="41.688173" lon="1.205521">
        <ele>434.538</ele>
        <time>2021-08-19T08:37:03Z</time>
      </trkpt>
      <trkpt lat="41.688147" lon="1.205438">
        <ele>434.170</ele>
        <time>2021-08-19T08:37:05Z</time>
      </trkpt>
      <trkpt lat="41.688130" lon="1.205377">
        <ele>433.817</ele>
        <time>2021-08-19T08:37:06Z</time>
      </trkpt>
      <trkpt lat="41.688104" lon="1.205312">
        <ele>433.308</ele>
        <time>2021-08-19T08:37:08Z</time>
      </trkpt>
      <trkpt lat="41.688152" lon="1.205294">
        <ele>434.761</ele>
        <time>2021-08-19T08:37:10Z</time>
      </trkpt>
      <trkpt lat="41.688129" lon="1.205226">
        <ele>434.184</ele>
        <time>2021-08-19T08:37:12Z</time>
      </trkpt>
      <trkpt lat="41.688108" lon="1.205167">
        <ele>433.577</ele>
        <time>2021-08-19T08:37:14Z</time>
      </trkpt>
      <trkpt lat="41.688089" lon="1.205109">
        <ele>433.068</ele>
        <time>2021-08-19T08:37:15Z</time>
      </trkpt>
      <trkpt lat="41.688071" lon="1.205050">
        <ele>432.435</ele>
        <time>2021-08-19T08:37:16Z</time>
      </trkpt>
      <trkpt lat="41.688056" lon="1.204981">
        <ele>432.053</ele>
        <time>2021-08-19T08:37:18Z</time>
      </trkpt>
      <trkpt lat="41.688028" lon="1.204906">
        <ele>431.192</ele>
        <time>2021-08-19T08:37:20Z</time>
      </trkpt>
      <trkpt lat="41.688008" lon="1.204841">
        <ele>430.651</ele>
        <time>2021-08-19T08:37:22Z</time>
      </trkpt>
      <trkpt lat="41.687996" lon="1.204763">
        <ele>430.312</ele>
        <time>2021-08-19T08:37:24Z</time>
      </trkpt>
      <trkpt lat="41.687969" lon="1.204712">
        <ele>429.632</ele>
        <time>2021-08-19T08:37:26Z</time>
      </trkpt>
      <trkpt lat="41.687944" lon="1.204643">
        <ele>429.205</ele>
        <time>2021-08-19T08:37:29Z</time>
      </trkpt>
      <trkpt lat="41.687917" lon="1.204557">
        <ele>428.908</ele>
        <time>2021-08-19T08:37:32Z</time>
      </trkpt>
      <trkpt lat="41.687893" lon="1.204493">
        <ele>428.659</ele>
        <time>2021-08-19T08:37:33Z</time>
      </trkpt>
      <trkpt lat="41.687872" lon="1.204403">
        <ele>428.362</ele>
        <time>2021-08-19T08:37:35Z</time>
      </trkpt>
      <trkpt lat="41.687861" lon="1.204337">
        <ele>428.045</ele>
        <time>2021-08-19T08:37:37Z</time>
      </trkpt>
      <trkpt lat="41.687862" lon="1.204269">
        <ele>427.936</ele>
        <time>2021-08-19T08:37:38Z</time>
      </trkpt>
      <trkpt lat="41.687862" lon="1.204202">
        <ele>427.953</ele>
        <time>2021-08-19T08:37:40Z</time>
      </trkpt>
      <trkpt lat="41.687865" lon="1.204141">
        <ele>427.811</ele>
        <time>2021-08-19T08:37:42Z</time>
      </trkpt>
      <trkpt lat="41.687887" lon="1.204086">
        <ele>428.070</ele>
        <time>2021-08-19T08:37:44Z</time>
      </trkpt>
      <trkpt lat="41.687912" lon="1.204036">
        <ele>428.229</ele>
        <time>2021-08-19T08:37:46Z</time>
      </trkpt>
      <trkpt lat="41.687954" lon="1.203997">
        <ele>428.849</ele>
        <time>2021-08-19T08:37:48Z</time>
      </trkpt>
      <trkpt lat="41.687989" lon="1.203958">
        <ele>429.202</ele>
        <time>2021-08-19T08:37:50Z</time>
      </trkpt>
      <trkpt lat="41.688038" lon="1.203918">
        <ele>429.922</ele>
        <time>2021-08-19T08:37:53Z</time>
      </trkpt>
      <trkpt lat="41.688079" lon="1.203869">
        <ele>430.208</ele>
        <time>2021-08-19T08:37:55Z</time>
      </trkpt>
      <trkpt lat="41.688114" lon="1.203823">
        <ele>430.582</ele>
        <time>2021-08-19T08:37:57Z</time>
      </trkpt>
      <trkpt lat="41.688162" lon="1.203768">
        <ele>430.835</ele>
        <time>2021-08-19T08:38:00Z</time>
      </trkpt>
      <trkpt lat="41.688199" lon="1.203723">
        <ele>430.948</ele>
        <time>2021-08-19T08:38:02Z</time>
      </trkpt>
      <trkpt lat="41.688246" lon="1.203687">
        <ele>431.199</ele>
        <time>2021-08-19T08:38:04Z</time>
      </trkpt>
      <trkpt lat="41.688289" lon="1.203662">
        <ele>431.126</ele>
        <time>2021-08-19T08:38:06Z</time>
      </trkpt>
      <trkpt lat="41.688337" lon="1.203648">
        <ele>431.314</ele>
        <time>2021-08-19T08:38:08Z</time>
      </trkpt>
      <trkpt lat="41.688385" lon="1.203648">
        <ele>431.353</ele>
        <time>2021-08-19T08:38:10Z</time>
      </trkpt>
      <trkpt lat="41.688443" lon="1.203667">
        <ele>431.562</ele>
        <time>2021-08-19T08:38:13Z</time>
      </trkpt>
      <trkpt lat="41.688490" lon="1.203711">
        <ele>431.954</ele>
        <time>2021-08-19T08:38:16Z</time>
      </trkpt>
      <trkpt lat="41.688517" lon="1.203760">
        <ele>432.456</ele>
        <time>2021-08-19T08:38:18Z</time>
      </trkpt>
      <trkpt lat="41.688546" lon="1.203807">
        <ele>432.911</ele>
        <time>2021-08-19T08:38:21Z</time>
      </trkpt>
      <trkpt lat="41.688582" lon="1.203852">
        <ele>433.508</ele>
        <time>2021-08-19T08:38:23Z</time>
      </trkpt>
      <trkpt lat="41.688613" lon="1.203912">
        <ele>434.493</ele>
        <time>2021-08-19T08:38:26Z</time>
      </trkpt>
      <trkpt lat="41.688643" lon="1.203965">
        <ele>435.346</ele>
        <time>2021-08-19T08:38:29Z</time>
      </trkpt>
      <trkpt lat="41.688678" lon="1.204009">
        <ele>436.149</ele>
        <time>2021-08-19T08:38:32Z</time>
      </trkpt>
      <trkpt lat="41.688706" lon="1.204057">
        <ele>436.890</ele>
        <time>2021-08-19T08:38:35Z</time>
      </trkpt>
      <trkpt lat="41.688740" lon="1.204112">
        <ele>437.677</ele>
        <time>2021-08-19T08:38:38Z</time>
      </trkpt>
      <trkpt lat="41.688782" lon="1.204164">
        <ele>438.325</ele>
        <time>2021-08-19T08:38:42Z</time>
      </trkpt>
      <trkpt lat="41.688822" lon="1.204214">
        <ele>438.524</ele>
        <time>2021-08-19T08:38:45Z</time>
      </trkpt>
      <trkpt lat="41.688860" lon="1.204258">
        <ele>438.563</ele>
        <time>2021-08-19T08:38:49Z</time>
      </trkpt>
      <trkpt lat="41.688906" lon="1.204303">
        <ele>438.222</ele>
        <time>2021-08-19T08:38:52Z</time>
      </trkpt>
      <trkpt lat="41.688943" lon="1.204343">
        <ele>437.762</ele>
        <time>2021-08-19T08:38:55Z</time>
      </trkpt>
      <trkpt lat="41.688978" lon="1.204391">
        <ele>437.308</ele>
        <time>2021-08-19T08:39:01Z</time>
      </trkpt>
      <trkpt lat="41.689024" lon="1.204385">
        <ele>436.508</ele>
        <time>2021-08-19T08:39:38Z</time>
      </trkpt>
      <trkpt lat="41.689065" lon="1.204330">
        <ele>435.770</ele>
        <time>2021-08-19T08:39:40Z</time>
      </trkpt>
      <trkpt lat="41.689095" lon="1.204264">
        <ele>435.143</ele>
        <time>2021-08-19T08:39:43Z</time>
      </trkpt>
      <trkpt lat="41.689143" lon="1.204171">
        <ele>434.386</ele>
        <time>2021-08-19T08:39:45Z</time>
      </trkpt>
      <trkpt lat="41.689183" lon="1.204081">
        <ele>433.257</ele>
        <time>2021-08-19T08:39:47Z</time>
      </trkpt>
      <trkpt lat="41.689223" lon="1.204000">
        <ele>432.474</ele>
        <time>2021-08-19T08:39:49Z</time>
      </trkpt>
      <trkpt lat="41.689254" lon="1.203932">
        <ele>431.932</ele>
        <time>2021-08-19T08:39:51Z</time>
      </trkpt>
      <trkpt lat="41.689287" lon="1.203858">
        <ele>431.411</ele>
        <time>2021-08-19T08:39:53Z</time>
      </trkpt>
      <trkpt lat="41.689330" lon="1.203779">
        <ele>430.880</ele>
        <time>2021-08-19T08:39:55Z</time>
      </trkpt>
      <trkpt lat="41.689353" lon="1.203726">
        <ele>430.371</ele>
        <time>2021-08-19T08:39:56Z</time>
      </trkpt>
      <trkpt lat="41.689374" lon="1.203656">
        <ele>429.841</ele>
        <time>2021-08-19T08:39:57Z</time>
      </trkpt>
      <trkpt lat="41.689417" lon="1.203529">
        <ele>428.315</ele>
        <time>2021-08-19T08:39:59Z</time>
      </trkpt>
      <trkpt lat="41.689477" lon="1.203419">
        <ele>426.808</ele>
        <time>2021-08-19T08:40:01Z</time>
      </trkpt>
      <trkpt lat="41.689530" lon="1.203302">
        <ele>425.645</ele>
        <time>2021-08-19T08:40:03Z</time>
      </trkpt>
      <trkpt lat="41.689587" lon="1.203183">
        <ele>424.968</ele>
        <time>2021-08-19T08:40:05Z</time>
      </trkpt>
      <trkpt lat="41.689642" lon="1.203079">
        <ele>424.421</ele>
        <time>2021-08-19T08:40:07Z</time>
      </trkpt>
      <trkpt lat="41.689669" lon="1.203014">
        <ele>424.012</ele>
        <time>2021-08-19T08:40:09Z</time>
      </trkpt>
      <trkpt lat="41.689712" lon="1.202963">
        <ele>423.779</ele>
        <time>2021-08-19T08:40:11Z</time>
      </trkpt>
      <trkpt lat="41.689727" lon="1.202888">
        <ele>423.417</ele>
        <time>2021-08-19T08:40:13Z</time>
      </trkpt>
      <trkpt lat="41.689742" lon="1.202825">
        <ele>423.186</ele>
        <time>2021-08-19T08:40:15Z</time>
      </trkpt>
      <trkpt lat="41.689779" lon="1.202757">
        <ele>422.755</ele>
        <time>2021-08-19T08:40:18Z</time>
      </trkpt>
      <trkpt lat="41.689827" lon="1.202742">
        <ele>422.593</ele>
        <time>2021-08-19T08:40:20Z</time>
      </trkpt>
      <trkpt lat="41.689877" lon="1.202748">
        <ele>422.365</ele>
        <time>2021-08-19T08:40:22Z</time>
      </trkpt>
      <trkpt lat="41.689924" lon="1.202776">
        <ele>422.321</ele>
        <time>2021-08-19T08:40:24Z</time>
      </trkpt>
      <trkpt lat="41.689980" lon="1.202807">
        <ele>422.208</ele>
        <time>2021-08-19T08:40:26Z</time>
      </trkpt>
      <trkpt lat="41.690037" lon="1.202831">
        <ele>422.087</ele>
        <time>2021-08-19T08:40:28Z</time>
      </trkpt>
      <trkpt lat="41.690088" lon="1.202860">
        <ele>421.880</ele>
        <time>2021-08-19T08:40:30Z</time>
      </trkpt>
      <trkpt lat="41.690138" lon="1.202881">
        <ele>421.673</ele>
        <time>2021-08-19T08:40:32Z</time>
      </trkpt>
      <trkpt lat="41.690186" lon="1.202901">
        <ele>421.494</ele>
        <time>2021-08-19T08:40:34Z</time>
      </trkpt>
      <trkpt lat="41.690234" lon="1.202920">
        <ele>421.321</ele>
        <time>2021-08-19T08:40:36Z</time>
      </trkpt>
      <trkpt lat="41.690289" lon="1.202945">
        <ele>421.169</ele>
        <time>2021-08-19T08:40:38Z</time>
      </trkpt>
      <trkpt lat="41.690338" lon="1.202961">
        <ele>420.538</ele>
        <time>2021-08-19T08:40:40Z</time>
      </trkpt>
      <trkpt lat="41.690392" lon="1.202965">
        <ele>419.817</ele>
        <time>2021-08-19T08:40:42Z</time>
      </trkpt>
      <trkpt lat="41.690443" lon="1.202950">
        <ele>419.155</ele>
        <time>2021-08-19T08:40:44Z</time>
      </trkpt>
      <trkpt lat="41.690504" lon="1.202946">
        <ele>418.307</ele>
        <time>2021-08-19T08:40:46Z</time>
      </trkpt>
      <trkpt lat="41.690574" lon="1.202926">
        <ele>417.517</ele>
        <time>2021-08-19T08:40:48Z</time>
      </trkpt>
      <trkpt lat="41.690654" lon="1.202908">
        <ele>417.508</ele>
        <time>2021-08-19T08:40:50Z</time>
      </trkpt>
      <trkpt lat="41.690730" lon="1.202885">
        <ele>417.493</ele>
        <time>2021-08-19T08:40:52Z</time>
      </trkpt>
      <trkpt lat="41.690813" lon="1.202864">
        <ele>417.326</ele>
        <time>2021-08-19T08:40:54Z</time>
      </trkpt>
      <trkpt lat="41.690891" lon="1.202845">
        <ele>417.019</ele>
        <time>2021-08-19T08:40:56Z</time>
      </trkpt>
      <trkpt lat="41.690965" lon="1.202825">
        <ele>416.790</ele>
        <time>2021-08-19T08:40:58Z</time>
      </trkpt>
      <trkpt lat="41.691047" lon="1.202806">
        <ele>416.377</ele>
        <time>2021-08-19T08:41:00Z</time>
      </trkpt>
      <trkpt lat="41.691132" lon="1.202792">
        <ele>416.085</ele>
        <time>2021-08-19T08:41:02Z</time>
      </trkpt>
      <trkpt lat="41.691219" lon="1.202779">
        <ele>415.694</ele>
        <time>2021-08-19T08:41:04Z</time>
      </trkpt>
      <trkpt lat="41.691333" lon="1.202777">
        <ele>415.283</ele>
        <time>2021-08-19T08:41:06Z</time>
      </trkpt>
      <trkpt lat="41.691379" lon="1.202774">
        <ele>415.061</ele>
        <time>2021-08-19T08:41:07Z</time>
      </trkpt>
      <trkpt lat="41.691489" lon="1.202759">
        <ele>414.621</ele>
        <time>2021-08-19T08:41:09Z</time>
      </trkpt>
      <trkpt lat="41.691545" lon="1.202750">
        <ele>414.413</ele>
        <time>2021-08-19T08:41:10Z</time>
      </trkpt>
      <trkpt lat="41.691665" lon="1.202736">
        <ele>413.908</ele>
        <time>2021-08-19T08:41:12Z</time>
      </trkpt>
      <trkpt lat="41.691730" lon="1.202732">
        <ele>413.374</ele>
        <time>2021-08-19T08:41:13Z</time>
      </trkpt>
      <trkpt lat="41.691854" lon="1.202726">
        <ele>412.397</ele>
        <time>2021-08-19T08:41:15Z</time>
      </trkpt>
      <trkpt lat="41.691919" lon="1.202723">
        <ele>411.850</ele>
        <time>2021-08-19T08:41:16Z</time>
      </trkpt>
      <trkpt lat="41.692043" lon="1.202720">
        <ele>410.781</ele>
        <time>2021-08-19T08:41:18Z</time>
      </trkpt>
      <trkpt lat="41.692162" lon="1.202733">
        <ele>409.618</ele>
        <time>2021-08-19T08:41:20Z</time>
      </trkpt>
      <trkpt lat="41.692276" lon="1.202758">
        <ele>408.866</ele>
        <time>2021-08-19T08:41:22Z</time>
      </trkpt>
      <trkpt lat="41.692334" lon="1.202768">
        <ele>408.645</ele>
        <time>2021-08-19T08:41:23Z</time>
      </trkpt>
      <trkpt lat="41.692449" lon="1.202757">
        <ele>408.134</ele>
        <time>2021-08-19T08:41:25Z</time>
      </trkpt>
      <trkpt lat="41.692499" lon="1.202732">
        <ele>407.883</ele>
        <time>2021-08-19T08:41:26Z</time>
      </trkpt>
      <trkpt lat="41.692543" lon="1.202701">
        <ele>407.825</ele>
        <time>2021-08-19T08:41:27Z</time>
      </trkpt>
      <trkpt lat="41.692583" lon="1.202667">
        <ele>407.717</ele>
        <time>2021-08-19T08:41:28Z</time>
      </trkpt>
      <trkpt lat="41.692650" lon="1.202612">
        <ele>407.708</ele>
        <time>2021-08-19T08:41:30Z</time>
      </trkpt>
      <trkpt lat="41.692712" lon="1.202546">
        <ele>407.866</ele>
        <time>2021-08-19T08:41:32Z</time>
      </trkpt>
      <trkpt lat="41.692768" lon="1.202487">
        <ele>408.099</ele>
        <time>2021-08-19T08:41:34Z</time>
      </trkpt>
      <trkpt lat="41.692820" lon="1.202468">
        <ele>408.132</ele>
        <time>2021-08-19T08:41:38Z</time>
      </trkpt>
      <trkpt lat="41.692866" lon="1.202433">
        <ele>408.223</ele>
        <time>2021-08-19T08:41:39Z</time>
      </trkpt>
      <trkpt lat="41.692921" lon="1.202377">
        <ele>408.390</ele>
        <time>2021-08-19T08:41:40Z</time>
      </trkpt>
      <trkpt lat="41.692972" lon="1.202321">
        <ele>408.248</ele>
        <time>2021-08-19T08:41:42Z</time>
      </trkpt>
      <trkpt lat="41.693007" lon="1.202268">
        <ele>408.127</ele>
        <time>2021-08-19T08:41:44Z</time>
      </trkpt>
      <trkpt lat="41.693039" lon="1.202198">
        <ele>408.066</ele>
        <time>2021-08-19T08:41:46Z</time>
      </trkpt>
      <trkpt lat="41.693071" lon="1.202126">
        <ele>408.051</ele>
        <time>2021-08-19T08:41:48Z</time>
      </trkpt>
      <trkpt lat="41.693103" lon="1.202056">
        <ele>408.101</ele>
        <time>2021-08-19T08:41:50Z</time>
      </trkpt>
      <trkpt lat="41.693138" lon="1.201983">
        <ele>408.311</ele>
        <time>2021-08-19T08:41:52Z</time>
      </trkpt>
      <trkpt lat="41.693176" lon="1.201909">
        <ele>408.508</ele>
        <time>2021-08-19T08:41:54Z</time>
      </trkpt>
      <trkpt lat="41.693213" lon="1.201838">
        <ele>408.893</ele>
        <time>2021-08-19T08:41:56Z</time>
      </trkpt>
      <trkpt lat="41.693248" lon="1.201772">
        <ele>409.126</ele>
        <time>2021-08-19T08:41:58Z</time>
      </trkpt>
      <trkpt lat="41.693274" lon="1.201709">
        <ele>409.589</ele>
        <time>2021-08-19T08:42:00Z</time>
      </trkpt>
      <trkpt lat="41.693295" lon="1.201651">
        <ele>409.850</ele>
        <time>2021-08-19T08:42:02Z</time>
      </trkpt>
      <trkpt lat="41.693327" lon="1.201576">
        <ele>410.677</ele>
        <time>2021-08-19T08:42:05Z</time>
      </trkpt>
      <trkpt lat="41.693363" lon="1.201512">
        <ele>411.215</ele>
        <time>2021-08-19T08:42:08Z</time>
      </trkpt>
      <trkpt lat="41.693397" lon="1.201448">
        <ele>411.884</ele>
        <time>2021-08-19T08:42:11Z</time>
      </trkpt>
      <trkpt lat="41.693424" lon="1.201388">
        <ele>412.343</ele>
        <time>2021-08-19T08:42:14Z</time>
      </trkpt>
      <trkpt lat="41.693448" lon="1.201333">
        <ele>412.929</ele>
        <time>2021-08-19T08:42:17Z</time>
      </trkpt>
      <trkpt lat="41.693452" lon="1.201243">
        <ele>413.700</ele>
        <time>2021-08-19T08:42:20Z</time>
      </trkpt>
      <trkpt lat="41.693434" lon="1.201163">
        <ele>414.320</ele>
        <time>2021-08-19T08:42:22Z</time>
      </trkpt>
      <trkpt lat="41.693478" lon="1.201133">
        <ele>414.808</ele>
        <time>2021-08-19T08:43:19Z</time>
      </trkpt>
      <trkpt lat="41.693484" lon="1.201058">
        <ele>415.310</ele>
        <time>2021-08-19T08:43:21Z</time>
      </trkpt>
      <trkpt lat="41.693485" lon="1.200997">
        <ele>415.513</ele>
        <time>2021-08-19T08:43:23Z</time>
      </trkpt>
      <trkpt lat="41.693513" lon="1.200929">
        <ele>415.926</ele>
        <time>2021-08-19T08:43:27Z</time>
      </trkpt>
      <trkpt lat="41.693526" lon="1.200871">
        <ele>416.337</ele>
        <time>2021-08-19T08:43:30Z</time>
      </trkpt>
      <trkpt lat="41.693561" lon="1.200815">
        <ele>416.784</ele>
        <time>2021-08-19T08:43:34Z</time>
      </trkpt>
      <trkpt lat="41.693588" lon="1.200762">
        <ele>416.922</ele>
        <time>2021-08-19T08:43:37Z</time>
      </trkpt>
      <trkpt lat="41.693623" lon="1.200706">
        <ele>417.091</ele>
        <time>2021-08-19T08:43:40Z</time>
      </trkpt>
      <trkpt lat="41.693662" lon="1.200672">
        <ele>416.930</ele>
        <time>2021-08-19T08:43:44Z</time>
      </trkpt>
      <trkpt lat="41.693697" lon="1.200633">
        <ele>416.854</ele>
        <time>2021-08-19T08:43:47Z</time>
      </trkpt>
      <trkpt lat="41.693728" lon="1.200578">
        <ele>416.656</ele>
        <time>2021-08-19T08:43:51Z</time>
      </trkpt>
      <trkpt lat="41.693769" lon="1.200534">
        <ele>416.411</ele>
        <time>2021-08-19T08:43:55Z</time>
      </trkpt>
      <trkpt lat="41.693806" lon="1.200481">
        <ele>416.208</ele>
        <time>2021-08-19T08:43:58Z</time>
      </trkpt>
      <trkpt lat="41.693840" lon="1.200426">
        <ele>416.123</ele>
        <time>2021-08-19T08:44:01Z</time>
      </trkpt>
      <trkpt lat="41.693891" lon="1.200359">
        <ele>416.096</ele>
        <time>2021-08-19T08:44:04Z</time>
      </trkpt>
      <trkpt lat="41.693936" lon="1.200330">
        <ele>416.249</ele>
        <time>2021-08-19T08:44:06Z</time>
      </trkpt>
      <trkpt lat="41.693973" lon="1.200286">
        <ele>416.320</ele>
        <time>2021-08-19T08:44:08Z</time>
      </trkpt>
      <trkpt lat="41.694017" lon="1.200239">
        <ele>416.397</ele>
        <time>2021-08-19T08:44:10Z</time>
      </trkpt>
      <trkpt lat="41.694067" lon="1.200187">
        <ele>416.355</ele>
        <time>2021-08-19T08:44:12Z</time>
      </trkpt>
      <trkpt lat="41.694130" lon="1.200137">
        <ele>416.414</ele>
        <time>2021-08-19T08:44:14Z</time>
      </trkpt>
      <trkpt lat="41.694189" lon="1.200099">
        <ele>416.413</ele>
        <time>2021-08-19T08:44:16Z</time>
      </trkpt>
      <trkpt lat="41.694244" lon="1.200063">
        <ele>416.546</ele>
        <time>2021-08-19T08:44:18Z</time>
      </trkpt>
      <trkpt lat="41.694310" lon="1.200021">
        <ele>416.688</ele>
        <time>2021-08-19T08:44:20Z</time>
      </trkpt>
      <trkpt lat="41.694375" lon="1.199980">
        <ele>416.716</ele>
        <time>2021-08-19T08:44:22Z</time>
      </trkpt>
      <trkpt lat="41.694431" lon="1.199942">
        <ele>416.808</ele>
        <time>2021-08-19T08:44:24Z</time>
      </trkpt>
      <trkpt lat="41.694488" lon="1.199906">
        <ele>416.822</ele>
        <time>2021-08-19T08:44:26Z</time>
      </trkpt>
      <trkpt lat="41.694546" lon="1.199858">
        <ele>416.945</ele>
        <time>2021-08-19T08:44:28Z</time>
      </trkpt>
      <trkpt lat="41.694606" lon="1.199811">
        <ele>416.978</ele>
        <time>2021-08-19T08:44:30Z</time>
      </trkpt>
      <trkpt lat="41.694663" lon="1.199765">
        <ele>416.989</ele>
        <time>2021-08-19T08:44:32Z</time>
      </trkpt>
      <trkpt lat="41.694718" lon="1.199713">
        <ele>417.056</ele>
        <time>2021-08-19T08:44:34Z</time>
      </trkpt>
      <trkpt lat="41.694775" lon="1.199675">
        <ele>417.284</ele>
        <time>2021-08-19T08:44:36Z</time>
      </trkpt>
      <trkpt lat="41.694822" lon="1.199649">
        <ele>417.563</ele>
        <time>2021-08-19T08:44:38Z</time>
      </trkpt>
      <trkpt lat="41.694876" lon="1.199604">
        <ele>417.722</ele>
        <time>2021-08-19T08:44:40Z</time>
      </trkpt>
      <trkpt lat="41.694927" lon="1.199560">
        <ele>417.978</ele>
        <time>2021-08-19T08:44:42Z</time>
      </trkpt>
      <trkpt lat="41.694972" lon="1.199509">
        <ele>418.033</ele>
        <time>2021-08-19T08:44:44Z</time>
      </trkpt>
      <trkpt lat="41.695023" lon="1.199461">
        <ele>418.226</ele>
        <time>2021-08-19T08:44:46Z</time>
      </trkpt>
      <trkpt lat="41.695071" lon="1.199411">
        <ele>418.508</ele>
        <time>2021-08-19T08:44:48Z</time>
      </trkpt>
      <trkpt lat="41.695116" lon="1.199365">
        <ele>418.895</ele>
        <time>2021-08-19T08:44:50Z</time>
      </trkpt>
      <trkpt lat="41.695171" lon="1.199317">
        <ele>419.258</ele>
        <time>2021-08-19T08:44:53Z</time>
      </trkpt>
      <trkpt lat="41.695217" lon="1.199273">
        <ele>419.621</ele>
        <time>2021-08-19T08:44:56Z</time>
      </trkpt>
      <trkpt lat="41.695276" lon="1.199227">
        <ele>420.062</ele>
        <time>2021-08-19T08:45:00Z</time>
      </trkpt>
      <trkpt lat="41.695328" lon="1.199191">
        <ele>420.419</ele>
        <time>2021-08-19T08:45:01Z</time>
      </trkpt>
      <trkpt lat="41.695421" lon="1.199125">
        <ele>421.117</ele>
        <time>2021-08-19T08:45:03Z</time>
      </trkpt>
      <trkpt lat="41.695474" lon="1.199087">
        <ele>421.676</ele>
        <time>2021-08-19T08:45:09Z</time>
      </trkpt>
      <trkpt lat="41.695527" lon="1.199078">
        <ele>422.115</ele>
        <time>2021-08-19T08:45:13Z</time>
      </trkpt>
      <trkpt lat="41.695550" lon="1.199018">
        <ele>422.542</ele>
        <time>2021-08-19T08:45:18Z</time>
      </trkpt>
      <trkpt lat="41.695542" lon="1.198954">
        <ele>422.622</ele>
        <time>2021-08-19T08:45:23Z</time>
      </trkpt>
      <trkpt lat="41.695547" lon="1.198886">
        <ele>422.914</ele>
        <time>2021-08-19T08:45:29Z</time>
      </trkpt>
      <trkpt lat="41.695568" lon="1.198828">
        <ele>423.308</ele>
        <time>2021-08-19T08:45:34Z</time>
      </trkpt>
      <trkpt lat="41.695599" lon="1.198783">
        <ele>423.872</ele>
        <time>2021-08-19T08:45:41Z</time>
      </trkpt>
      <trkpt lat="41.695645" lon="1.198766">
        <ele>424.315</ele>
        <time>2021-08-19T08:45:47Z</time>
      </trkpt>
      <trkpt lat="41.695705" lon="1.198769">
        <ele>424.868</ele>
        <time>2021-08-19T08:45:53Z</time>
      </trkpt>
      <trkpt lat="41.695752" lon="1.198752">
        <ele>425.329</ele>
        <time>2021-08-19T08:45:57Z</time>
      </trkpt>
      <trkpt lat="41.695801" lon="1.198744">
        <ele>425.726</ele>
        <time>2021-08-19T08:46:01Z</time>
      </trkpt>
      <trkpt lat="41.695847" lon="1.198736">
        <ele>426.114</ele>
        <time>2021-08-19T08:46:04Z</time>
      </trkpt>
      <trkpt lat="41.695899" lon="1.198733">
        <ele>426.683</ele>
        <time>2021-08-19T08:46:08Z</time>
      </trkpt>
      <trkpt lat="41.695960" lon="1.198716">
        <ele>427.262</ele>
        <time>2021-08-19T08:46:11Z</time>
      </trkpt>
      <trkpt lat="41.696006" lon="1.198708">
        <ele>427.613</ele>
        <time>2021-08-19T08:46:15Z</time>
      </trkpt>
      <trkpt lat="41.696051" lon="1.198687">
        <ele>428.143</ele>
        <time>2021-08-19T08:46:22Z</time>
      </trkpt>
      <trkpt lat="41.696089" lon="1.198653">
        <ele>428.607</ele>
        <time>2021-08-19T08:46:28Z</time>
      </trkpt>
      <trkpt lat="41.696128" lon="1.198611">
        <ele>429.108</ele>
        <time>2021-08-19T08:46:32Z</time>
      </trkpt>
      <trkpt lat="41.696181" lon="1.198577">
        <ele>429.779</ele>
        <time>2021-08-19T08:46:37Z</time>
      </trkpt>
      <trkpt lat="41.696222" lon="1.198540">
        <ele>430.332</ele>
        <time>2021-08-19T08:46:40Z</time>
      </trkpt>
      <trkpt lat="41.696259" lon="1.198502">
        <ele>430.915</ele>
        <time>2021-08-19T08:46:42Z</time>
      </trkpt>
      <trkpt lat="41.696302" lon="1.198445">
        <ele>431.616</ele>
        <time>2021-08-19T08:46:45Z</time>
      </trkpt>
      <trkpt lat="41.696341" lon="1.198382">
        <ele>432.383</ele>
        <time>2021-08-19T08:46:48Z</time>
      </trkpt>
      <trkpt lat="41.696369" lon="1.198332">
        <ele>432.951</ele>
        <time>2021-08-19T08:46:50Z</time>
      </trkpt>
      <trkpt lat="41.696403" lon="1.198254">
        <ele>433.430</ele>
        <time>2021-08-19T08:46:53Z</time>
      </trkpt>
      <trkpt lat="41.696440" lon="1.198176">
        <ele>433.889</ele>
        <time>2021-08-19T08:46:56Z</time>
      </trkpt>
      <trkpt lat="41.696471" lon="1.198110">
        <ele>434.234</ele>
        <time>2021-08-19T08:46:59Z</time>
      </trkpt>
      <trkpt lat="41.696497" lon="1.198056">
        <ele>434.455</ele>
        <time>2021-08-19T08:47:01Z</time>
      </trkpt>
      <trkpt lat="41.696521" lon="1.198004">
        <ele>434.710</ele>
        <time>2021-08-19T08:47:03Z</time>
      </trkpt>
      <trkpt lat="41.696554" lon="1.197941">
        <ele>435.308</ele>
        <time>2021-08-19T08:47:06Z</time>
      </trkpt>
      <trkpt lat="41.696581" lon="1.197886">
        <ele>435.781</ele>
        <time>2021-08-19T08:47:08Z</time>
      </trkpt>
      <trkpt lat="41.696611" lon="1.197838">
        <ele>436.234</ele>
        <time>2021-08-19T08:47:10Z</time>
      </trkpt>
      <trkpt lat="41.696658" lon="1.197772">
        <ele>436.987</ele>
        <time>2021-08-19T08:47:13Z</time>
      </trkpt>
      <trkpt lat="41.696706" lon="1.197716">
        <ele>437.068</ele>
        <time>2021-08-19T08:47:16Z</time>
      </trkpt>
      <trkpt lat="41.696743" lon="1.197678">
        <ele>437.075</ele>
        <time>2021-08-19T08:47:18Z</time>
      </trkpt>
      <trkpt lat="41.696779" lon="1.197638">
        <ele>437.073</ele>
        <time>2021-08-19T08:47:20Z</time>
      </trkpt>
      <trkpt lat="41.696835" lon="1.197593">
        <ele>437.012</ele>
        <time>2021-08-19T08:47:23Z</time>
      </trkpt>
      <trkpt lat="41.696878" lon="1.197565">
        <ele>437.041</ele>
        <time>2021-08-19T08:47:26Z</time>
      </trkpt>
      <trkpt lat="41.696924" lon="1.197534">
        <ele>437.013</ele>
        <time>2021-08-19T08:47:29Z</time>
      </trkpt>
      <trkpt lat="41.696977" lon="1.197510">
        <ele>437.043</ele>
        <time>2021-08-19T08:47:32Z</time>
      </trkpt>
      <trkpt lat="41.697026" lon="1.197498">
        <ele>437.007</ele>
        <time>2021-08-19T08:47:35Z</time>
      </trkpt>
      <trkpt lat="41.697077" lon="1.197494">
        <ele>437.008</ele>
        <time>2021-08-19T08:47:39Z</time>
      </trkpt>
      <trkpt lat="41.697134" lon="1.197496">
        <ele>437.069</ele>
        <time>2021-08-19T08:47:42Z</time>
      </trkpt>
      <trkpt lat="41.697179" lon="1.197491">
        <ele>437.012</ele>
        <time>2021-08-19T08:47:45Z</time>
      </trkpt>
      <trkpt lat="41.697244" lon="1.197495">
        <ele>437.055</ele>
        <time>2021-08-19T08:49:01Z</time>
      </trkpt>
      <trkpt lat="41.697289" lon="1.197499">
        <ele>437.096</ele>
        <time>2021-08-19T08:49:03Z</time>
      </trkpt>
      <trkpt lat="41.697335" lon="1.197499">
        <ele>437.043</ele>
        <time>2021-08-19T08:49:05Z</time>
      </trkpt>
      <trkpt lat="41.697390" lon="1.197518">
        <ele>437.111</ele>
        <time>2021-08-19T08:49:08Z</time>
      </trkpt>
      <trkpt lat="41.697446" lon="1.197522">
        <ele>437.110</ele>
        <time>2021-08-19T08:49:11Z</time>
      </trkpt>
      <trkpt lat="41.697507" lon="1.197518">
        <ele>437.069</ele>
        <time>2021-08-19T08:49:14Z</time>
      </trkpt>
      <trkpt lat="41.697560" lon="1.197527">
        <ele>436.715</ele>
        <time>2021-08-19T08:49:17Z</time>
      </trkpt>
      <trkpt lat="41.697608" lon="1.197529">
        <ele>436.465</ele>
        <time>2021-08-19T08:49:19Z</time>
      </trkpt>
      <trkpt lat="41.697671" lon="1.197538">
        <ele>436.111</ele>
        <time>2021-08-19T08:49:22Z</time>
      </trkpt>
      <trkpt lat="41.697718" lon="1.197548">
        <ele>435.908</ele>
        <time>2021-08-19T08:49:24Z</time>
      </trkpt>
      <trkpt lat="41.697767" lon="1.197558">
        <ele>435.789</ele>
        <time>2021-08-19T08:49:26Z</time>
      </trkpt>
      <trkpt lat="41.697814" lon="1.197567">
        <ele>435.522</ele>
        <time>2021-08-19T08:49:28Z</time>
      </trkpt>
      <trkpt lat="41.697879" lon="1.197575">
        <ele>435.295</ele>
        <time>2021-08-19T08:49:31Z</time>
      </trkpt>
      <trkpt lat="41.697936" lon="1.197584">
        <ele>435.056</ele>
        <time>2021-08-19T08:49:34Z</time>
      </trkpt>
      <trkpt lat="41.697993" lon="1.197609">
        <ele>434.833</ele>
        <time>2021-08-19T08:49:37Z</time>
      </trkpt>
      <trkpt lat="41.698036" lon="1.197633">
        <ele>434.691</ele>
        <time>2021-08-19T08:49:39Z</time>
      </trkpt>
      <trkpt lat="41.698086" lon="1.197653">
        <ele>434.280</ele>
        <time>2021-08-19T08:49:41Z</time>
      </trkpt>
      <trkpt lat="41.698143" lon="1.197681">
        <ele>433.789</ele>
        <time>2021-08-19T08:49:43Z</time>
      </trkpt>
      <trkpt lat="41.698210" lon="1.197707">
        <ele>433.161</ele>
        <time>2021-08-19T08:49:45Z</time>
      </trkpt>
      <trkpt lat="41.698324" lon="1.197679">
        <ele>431.721</ele>
        <time>2021-08-19T08:49:47Z</time>
      </trkpt>
      <trkpt lat="41.698438" lon="1.197667">
        <ele>430.613</ele>
        <time>2021-08-19T08:49:49Z</time>
      </trkpt>
      <trkpt lat="41.698551" lon="1.197670">
        <ele>429.608</ele>
        <time>2021-08-19T08:49:51Z</time>
      </trkpt>
      <trkpt lat="41.698610" lon="1.197671">
        <ele>429.074</ele>
        <time>2021-08-19T08:49:52Z</time>
      </trkpt>
      <trkpt lat="41.698720" lon="1.197671">
        <ele>429.257</ele>
        <time>2021-08-19T08:49:54Z</time>
      </trkpt>
      <trkpt lat="41.698835" lon="1.197672">
        <ele>429.520</ele>
        <time>2021-08-19T08:49:56Z</time>
      </trkpt>
      <trkpt lat="41.698892" lon="1.197672">
        <ele>429.671</ele>
        <time>2021-08-19T08:49:57Z</time>
      </trkpt>
      <trkpt lat="41.698946" lon="1.197675">
        <ele>430.078</ele>
        <time>2021-08-19T08:49:58Z</time>
      </trkpt>
      <trkpt lat="41.698998" lon="1.197678">
        <ele>430.476</ele>
        <time>2021-08-19T08:49:59Z</time>
      </trkpt>
      <trkpt lat="41.699092" lon="1.197678">
        <ele>431.145</ele>
        <time>2021-08-19T08:50:01Z</time>
      </trkpt>
      <trkpt lat="41.699184" lon="1.197680">
        <ele>431.734</ele>
        <time>2021-08-19T08:50:03Z</time>
      </trkpt>
      <trkpt lat="41.699240" lon="1.197673">
        <ele>431.976</ele>
        <time>2021-08-19T08:50:05Z</time>
      </trkpt>
      <trkpt lat="41.699287" lon="1.197697">
        <ele>432.190</ele>
        <time>2021-08-19T08:50:08Z</time>
      </trkpt>
      <trkpt lat="41.699331" lon="1.197728">
        <ele>432.419</ele>
        <time>2021-08-19T08:50:11Z</time>
      </trkpt>
      <trkpt lat="41.699382" lon="1.197733">
        <ele>432.608</ele>
        <time>2021-08-19T08:50:15Z</time>
      </trkpt>
      <trkpt lat="41.699435" lon="1.197747">
        <ele>432.975</ele>
        <time>2021-08-19T08:50:19Z</time>
      </trkpt>
      <trkpt lat="41.699489" lon="1.197760">
        <ele>432.848</ele>
        <time>2021-08-19T08:50:23Z</time>
      </trkpt>
      <trkpt lat="41.699535" lon="1.197771">
        <ele>432.721</ele>
        <time>2021-08-19T08:50:25Z</time>
      </trkpt>
      <trkpt lat="41.699584" lon="1.197781">
        <ele>432.532</ele>
        <time>2021-08-19T08:50:27Z</time>
      </trkpt>
      <trkpt lat="41.699633" lon="1.197787">
        <ele>432.489</ele>
        <time>2021-08-19T08:50:29Z</time>
      </trkpt>
      <trkpt lat="41.699681" lon="1.197800">
        <ele>432.297</ele>
        <time>2021-08-19T08:50:31Z</time>
      </trkpt>
      <trkpt lat="41.699743" lon="1.197791">
        <ele>432.026</ele>
        <time>2021-08-19T08:50:34Z</time>
      </trkpt>
      <trkpt lat="41.699797" lon="1.197806">
        <ele>432.125</ele>
        <time>2021-08-19T08:50:37Z</time>
      </trkpt>
      <trkpt lat="41.699853" lon="1.197816">
        <ele>432.124</ele>
        <time>2021-08-19T08:50:39Z</time>
      </trkpt>
      <trkpt lat="41.699902" lon="1.197819">
        <ele>432.104</ele>
        <time>2021-08-19T08:50:41Z</time>
      </trkpt>
      <trkpt lat="41.699965" lon="1.197822">
        <ele>432.214</ele>
        <time>2021-08-19T08:50:44Z</time>
      </trkpt>
      <trkpt lat="41.700012" lon="1.197827">
        <ele>432.308</ele>
        <time>2021-08-19T08:50:46Z</time>
      </trkpt>
      <trkpt lat="41.700065" lon="1.197837">
        <ele>432.650</ele>
        <time>2021-08-19T08:50:48Z</time>
      </trkpt>
      <trkpt lat="41.700117" lon="1.197845">
        <ele>433.023</ele>
        <time>2021-08-19T08:50:50Z</time>
      </trkpt>
      <trkpt lat="41.700169" lon="1.197850">
        <ele>433.366</ele>
        <time>2021-08-19T08:50:52Z</time>
      </trkpt>
      <trkpt lat="41.700220" lon="1.197864">
        <ele>433.667</ele>
        <time>2021-08-19T08:50:54Z</time>
      </trkpt>
      <trkpt lat="41.700283" lon="1.197874">
        <ele>434.014</ele>
        <time>2021-08-19T08:50:56Z</time>
      </trkpt>
      <trkpt lat="41.700348" lon="1.197881">
        <ele>434.412</ele>
        <time>2021-08-19T08:50:58Z</time>
      </trkpt>
      <trkpt lat="41.700401" lon="1.197884">
        <ele>434.711</ele>
        <time>2021-08-19T08:51:00Z</time>
      </trkpt>
      <trkpt lat="41.700446" lon="1.197894">
        <ele>435.040</ele>
        <time>2021-08-19T08:51:01Z</time>
      </trkpt>
      <trkpt lat="41.700505" lon="1.197910">
        <ele>435.289</ele>
        <time>2021-08-19T08:51:03Z</time>
      </trkpt>
      <trkpt lat="41.700566" lon="1.197925">
        <ele>435.506</ele>
        <time>2021-08-19T08:51:05Z</time>
      </trkpt>
      <trkpt lat="41.700623" lon="1.197943">
        <ele>435.926</ele>
        <time>2021-08-19T08:51:07Z</time>
      </trkpt>
      <trkpt lat="41.700673" lon="1.197964">
        <ele>436.208</ele>
        <time>2021-08-19T08:51:09Z</time>
      </trkpt>
      <trkpt lat="41.700719" lon="1.197981">
        <ele>436.486</ele>
        <time>2021-08-19T08:51:11Z</time>
      </trkpt>
      <trkpt lat="41.700762" lon="1.198003">
        <ele>436.789</ele>
        <time>2021-08-19T08:51:13Z</time>
      </trkpt>
      <trkpt lat="41.700826" lon="1.198028">
        <ele>437.032</ele>
        <time>2021-08-19T08:51:16Z</time>
      </trkpt>
      <trkpt lat="41.700892" lon="1.198042">
        <ele>437.323</ele>
        <time>2021-08-19T08:51:19Z</time>
      </trkpt>
      <trkpt lat="41.700939" lon="1.198049">
        <ele>437.460</ele>
        <time>2021-08-19T08:51:21Z</time>
      </trkpt>
      <trkpt lat="41.701008" lon="1.198042">
        <ele>437.778</ele>
        <time>2021-08-19T08:51:24Z</time>
      </trkpt>
      <trkpt lat="41.701055" lon="1.198043">
        <ele>437.887</ele>
        <time>2021-08-19T08:51:26Z</time>
      </trkpt>
      <trkpt lat="41.701101" lon="1.198039">
        <ele>438.026</ele>
        <time>2021-08-19T08:51:28Z</time>
      </trkpt>
      <trkpt lat="41.701165" lon="1.198032">
        <ele>437.946</ele>
        <time>2021-08-19T08:51:32Z</time>
      </trkpt>
      <trkpt lat="41.701212" lon="1.198038">
        <ele>437.788</ele>
        <time>2021-08-19T08:51:34Z</time>
      </trkpt>
      <trkpt lat="41.701265" lon="1.198043">
        <ele>437.516</ele>
        <time>2021-08-19T08:51:36Z</time>
      </trkpt>
      <trkpt lat="41.701325" lon="1.198035">
        <ele>437.308</ele>
        <time>2021-08-19T08:51:38Z</time>
      </trkpt>
      <trkpt lat="41.701388" lon="1.198031">
        <ele>437.162</ele>
        <time>2021-08-19T08:51:40Z</time>
      </trkpt>
      <trkpt lat="41.701453" lon="1.198026">
        <ele>436.635</ele>
        <time>2021-08-19T08:51:42Z</time>
      </trkpt>
      <trkpt lat="41.701518" lon="1.198027">
        <ele>436.248</ele>
        <time>2021-08-19T08:51:44Z</time>
      </trkpt>
      <trkpt lat="41.701581" lon="1.198028">
        <ele>435.769</ele>
        <time>2021-08-19T08:51:46Z</time>
      </trkpt>
      <trkpt lat="41.701646" lon="1.198039">
        <ele>435.246</ele>
        <time>2021-08-19T08:51:48Z</time>
      </trkpt>
      <trkpt lat="41.701715" lon="1.198053">
        <ele>434.814</ele>
        <time>2021-08-19T08:51:50Z</time>
      </trkpt>
      <trkpt lat="41.701781" lon="1.198081">
        <ele>434.663</ele>
        <time>2021-08-19T08:51:52Z</time>
      </trkpt>
      <trkpt lat="41.701837" lon="1.198105">
        <ele>434.562</ele>
        <time>2021-08-19T08:51:54Z</time>
      </trkpt>
      <trkpt lat="41.701894" lon="1.198132">
        <ele>434.431</ele>
        <time>2021-08-19T08:51:55Z</time>
      </trkpt>
      <trkpt lat="41.701942" lon="1.198148">
        <ele>434.361</ele>
        <time>2021-08-19T08:51:56Z</time>
      </trkpt>
      <trkpt lat="41.702031" lon="1.198172">
        <ele>434.007</ele>
        <time>2021-08-19T08:51:58Z</time>
      </trkpt>
      <trkpt lat="41.702078" lon="1.198188">
        <ele>433.808</ele>
        <time>2021-08-19T08:51:59Z</time>
      </trkpt>
      <trkpt lat="41.702168" lon="1.198222">
        <ele>433.331</ele>
        <time>2021-08-19T08:52:01Z</time>
      </trkpt>
      <trkpt lat="41.702214" lon="1.198235">
        <ele>433.074</ele>
        <time>2021-08-19T08:52:02Z</time>
      </trkpt>
      <trkpt lat="41.702298" lon="1.198264">
        <ele>432.597</ele>
        <time>2021-08-19T08:52:04Z</time>
      </trkpt>
      <trkpt lat="41.702378" lon="1.198293">
        <ele>431.928</ele>
        <time>2021-08-19T08:52:06Z</time>
      </trkpt>
      <trkpt lat="41.702455" lon="1.198307">
        <ele>431.375</ele>
        <time>2021-08-19T08:52:08Z</time>
      </trkpt>
      <trkpt lat="41.702527" lon="1.198298">
        <ele>430.973</ele>
        <time>2021-08-19T08:52:10Z</time>
      </trkpt>
      <trkpt lat="41.702594" lon="1.198275">
        <ele>430.752</ele>
        <time>2021-08-19T08:52:12Z</time>
      </trkpt>
      <trkpt lat="41.702647" lon="1.198230">
        <ele>430.571</ele>
        <time>2021-08-19T08:52:14Z</time>
      </trkpt>
      <trkpt lat="41.702696" lon="1.198185">
        <ele>430.346</ele>
        <time>2021-08-19T08:52:16Z</time>
      </trkpt>
      <trkpt lat="41.702737" lon="1.198157">
        <ele>430.188</ele>
        <time>2021-08-19T08:52:18Z</time>
      </trkpt>
      <trkpt lat="41.702777" lon="1.198109">
        <ele>430.016</ele>
        <time>2021-08-19T08:53:03Z</time>
      </trkpt>
      <trkpt lat="41.702822" lon="1.198071">
        <ele>429.808</ele>
        <time>2021-08-19T08:53:05Z</time>
      </trkpt>
      <trkpt lat="41.702875" lon="1.198039">
        <ele>429.732</ele>
        <time>2021-08-19T08:53:07Z</time>
      </trkpt>
      <trkpt lat="41.702925" lon="1.198002">
        <ele>429.725</ele>
        <time>2021-08-19T08:53:09Z</time>
      </trkpt>
      <trkpt lat="41.702966" lon="1.197966">
        <ele>429.678</ele>
        <time>2021-08-19T08:53:11Z</time>
      </trkpt>
      <trkpt lat="41.703002" lon="1.197923">
        <ele>429.739</ele>
        <time>2021-08-19T08:53:14Z</time>
      </trkpt>
      <trkpt lat="41.702948" lon="1.197903">
        <ele>429.996</ele>
        <time>2021-08-19T08:53:17Z</time>
      </trkpt>
      <trkpt lat="41.702912" lon="1.197945">
        <ele>429.954</ele>
        <time>2021-08-19T08:53:20Z</time>
      </trkpt>
      <trkpt lat="41.702888" lon="1.198014">
        <ele>429.823</ele>
        <time>2021-08-19T08:53:23Z</time>
      </trkpt>
      <trkpt lat="41.702847" lon="1.198053">
        <ele>429.832</ele>
        <time>2021-08-19T08:53:26Z</time>
      </trkpt>
      <trkpt lat="41.702801" lon="1.198095">
        <ele>429.934</ele>
        <time>2021-08-19T08:53:28Z</time>
      </trkpt>
      <trkpt lat="41.702760" lon="1.198119">
        <ele>430.155</ele>
        <time>2021-08-19T08:53:31Z</time>
      </trkpt>
      <trkpt lat="41.702730" lon="1.198175">
        <ele>430.210</ele>
        <time>2021-08-19T08:53:35Z</time>
      </trkpt>
      <trkpt lat="41.702756" lon="1.198121">
        <ele>430.108</ele>
        <time>2021-08-19T08:53:55Z</time>
      </trkpt>
      <trkpt lat="41.702801" lon="1.198076">
        <ele>429.981</ele>
        <time>2021-08-19T08:53:58Z</time>
      </trkpt>
      <trkpt lat="41.702836" lon="1.198037">
        <ele>429.914</ele>
        <time>2021-08-19T08:54:00Z</time>
      </trkpt>
      <trkpt lat="41.702892" lon="1.197986">
        <ele>429.877</ele>
        <time>2021-08-19T08:54:02Z</time>
      </trkpt>
      <trkpt lat="41.702950" lon="1.197951">
        <ele>429.838</ele>
        <time>2021-08-19T08:54:04Z</time>
      </trkpt>
      <trkpt lat="41.703003" lon="1.197926">
        <ele>429.715</ele>
        <time>2021-08-19T08:54:06Z</time>
      </trkpt>
      <trkpt lat="41.703069" lon="1.197898">
        <ele>429.513</ele>
        <time>2021-08-19T08:54:08Z</time>
      </trkpt>
      <trkpt lat="41.703124" lon="1.197878">
        <ele>429.492</ele>
        <time>2021-08-19T08:54:10Z</time>
      </trkpt>
      <trkpt lat="41.703181" lon="1.197851">
        <ele>429.391</ele>
        <time>2021-08-19T08:54:12Z</time>
      </trkpt>
      <trkpt lat="41.703247" lon="1.197818">
        <ele>429.236</ele>
        <time>2021-08-19T08:54:14Z</time>
      </trkpt>
      <trkpt lat="41.703311" lon="1.197787">
        <ele>429.017</ele>
        <time>2021-08-19T08:54:16Z</time>
      </trkpt>
      <trkpt lat="41.703372" lon="1.197756">
        <ele>428.918</ele>
        <time>2021-08-19T08:54:18Z</time>
      </trkpt>
      <trkpt lat="41.703432" lon="1.197724">
        <ele>428.708</ele>
        <time>2021-08-19T08:54:20Z</time>
      </trkpt>
      <trkpt lat="41.703491" lon="1.197706">
        <ele>428.411</ele>
        <time>2021-08-19T08:54:22Z</time>
      </trkpt>
      <trkpt lat="41.703551" lon="1.197686">
        <ele>428.014</ele>
        <time>2021-08-19T08:54:24Z</time>
      </trkpt>
      <trkpt lat="41.703608" lon="1.197643">
        <ele>427.547</ele>
        <time>2021-08-19T08:54:26Z</time>
      </trkpt>
      <trkpt lat="41.703642" lon="1.197586">
        <ele>427.218</ele>
        <time>2021-08-19T08:54:28Z</time>
      </trkpt>
      <trkpt lat="41.703671" lon="1.197506">
        <ele>426.845</ele>
        <time>2021-08-19T08:54:30Z</time>
      </trkpt>
      <trkpt lat="41.703691" lon="1.197426">
        <ele>426.723</ele>
        <time>2021-08-19T08:54:32Z</time>
      </trkpt>
      <trkpt lat="41.703716" lon="1.197353">
        <ele>426.692</ele>
        <time>2021-08-19T08:54:34Z</time>
      </trkpt>
      <trkpt lat="41.703741" lon="1.197303">
        <ele>426.521</ele>
        <time>2021-08-19T08:54:36Z</time>
      </trkpt>
      <trkpt lat="41.703776" lon="1.197221">
        <ele>426.495</ele>
        <time>2021-08-19T08:54:38Z</time>
      </trkpt>
      <trkpt lat="41.703804" lon="1.197159">
        <ele>426.549</ele>
        <time>2021-08-19T08:54:40Z</time>
      </trkpt>
      <trkpt lat="41.703846" lon="1.197091">
        <ele>426.623</ele>
        <time>2021-08-19T08:54:42Z</time>
      </trkpt>
      <trkpt lat="41.703887" lon="1.197022">
        <ele>426.708</ele>
        <time>2021-08-19T08:54:44Z</time>
      </trkpt>
      <trkpt lat="41.703924" lon="1.196958">
        <ele>427.067</ele>
        <time>2021-08-19T08:54:46Z</time>
      </trkpt>
      <trkpt lat="41.703955" lon="1.196891">
        <ele>427.210</ele>
        <time>2021-08-19T08:54:48Z</time>
      </trkpt>
      <trkpt lat="41.703975" lon="1.196823">
        <ele>427.483</ele>
        <time>2021-08-19T08:54:50Z</time>
      </trkpt>
      <trkpt lat="41.703994" lon="1.196755">
        <ele>427.784</ele>
        <time>2021-08-19T08:54:52Z</time>
      </trkpt>
      <trkpt lat="41.704019" lon="1.196692">
        <ele>427.971</ele>
        <time>2021-08-19T08:54:54Z</time>
      </trkpt>
      <trkpt lat="41.704048" lon="1.196619">
        <ele>427.989</ele>
        <time>2021-08-19T08:54:56Z</time>
      </trkpt>
      <trkpt lat="41.704088" lon="1.196544">
        <ele>427.758</ele>
        <time>2021-08-19T08:54:58Z</time>
      </trkpt>
      <trkpt lat="41.704134" lon="1.196469">
        <ele>427.457</ele>
        <time>2021-08-19T08:55:00Z</time>
      </trkpt>
      <trkpt lat="41.704189" lon="1.196408">
        <ele>426.954</ele>
        <time>2021-08-19T08:55:02Z</time>
      </trkpt>
      <trkpt lat="41.704237" lon="1.196334">
        <ele>426.456</ele>
        <time>2021-08-19T08:55:04Z</time>
      </trkpt>
      <trkpt lat="41.704266" lon="1.196286">
        <ele>426.211</ele>
        <time>2021-08-19T08:55:06Z</time>
      </trkpt>
      <trkpt lat="41.704301" lon="1.196233">
        <ele>425.808</ele>
        <time>2021-08-19T08:55:07Z</time>
      </trkpt>
      <trkpt lat="41.704350" lon="1.196137">
        <ele>425.133</ele>
        <time>2021-08-19T08:55:10Z</time>
      </trkpt>
      <trkpt lat="41.704375" lon="1.196049">
        <ele>424.936</ele>
        <time>2021-08-19T08:55:12Z</time>
      </trkpt>
      <trkpt lat="41.704398" lon="1.195968">
        <ele>424.969</ele>
        <time>2021-08-19T08:55:14Z</time>
      </trkpt>
      <trkpt lat="41.704408" lon="1.195873">
        <ele>425.170</ele>
        <time>2021-08-19T08:55:16Z</time>
      </trkpt>
      <trkpt lat="41.704425" lon="1.195781">
        <ele>425.167</ele>
        <time>2021-08-19T08:55:18Z</time>
      </trkpt>
      <trkpt lat="41.704442" lon="1.195688">
        <ele>425.035</ele>
        <time>2021-08-19T08:55:20Z</time>
      </trkpt>
      <trkpt lat="41.704458" lon="1.195605">
        <ele>424.854</ele>
        <time>2021-08-19T08:55:22Z</time>
      </trkpt>
      <trkpt lat="41.704472" lon="1.195531">
        <ele>424.733</ele>
        <time>2021-08-19T08:55:24Z</time>
      </trkpt>
      <trkpt lat="41.704488" lon="1.195467">
        <ele>424.674</ele>
        <time>2021-08-19T08:55:26Z</time>
      </trkpt>
      <trkpt lat="41.704534" lon="1.195434">
        <ele>424.256</ele>
        <time>2021-08-19T08:55:37Z</time>
      </trkpt>
      <trkpt lat="41.704542" lon="1.195366">
        <ele>424.221</ele>
        <time>2021-08-19T08:55:40Z</time>
      </trkpt>
      <trkpt lat="41.704513" lon="1.195319">
        <ele>424.508</ele>
        <time>2021-08-19T08:56:20Z</time>
      </trkpt>
      <trkpt lat="41.704524" lon="1.195250">
        <ele>424.415</ele>
        <time>2021-08-19T08:56:46Z</time>
      </trkpt>
      <trkpt lat="41.704500" lon="1.195184">
        <ele>424.318</ele>
        <time>2021-08-19T08:56:48Z</time>
      </trkpt>
      <trkpt lat="41.704471" lon="1.195123">
        <ele>424.351</ele>
        <time>2021-08-19T08:56:50Z</time>
      </trkpt>
      <trkpt lat="41.704442" lon="1.195059">
        <ele>424.232</ele>
        <time>2021-08-19T08:56:52Z</time>
      </trkpt>
      <trkpt lat="41.704421" lon="1.194999">
        <ele>424.179</ele>
        <time>2021-08-19T08:56:54Z</time>
      </trkpt>
      <trkpt lat="41.704393" lon="1.194939">
        <ele>424.167</ele>
        <time>2021-08-19T08:56:55Z</time>
      </trkpt>
      <trkpt lat="41.704369" lon="1.194884">
        <ele>424.296</ele>
        <time>2021-08-19T08:56:57Z</time>
      </trkpt>
      <trkpt lat="41.704343" lon="1.194817">
        <ele>424.165</ele>
        <time>2021-08-19T08:56:59Z</time>
      </trkpt>
      <trkpt lat="41.704314" lon="1.194755">
        <ele>424.172</ele>
        <time>2021-08-19T08:57:01Z</time>
      </trkpt>
      <trkpt lat="41.704268" lon="1.194683">
        <ele>423.913</ele>
        <time>2021-08-19T08:57:03Z</time>
      </trkpt>
      <trkpt lat="41.704223" lon="1.194636">
        <ele>423.914</ele>
        <time>2021-08-19T08:57:05Z</time>
      </trkpt>
      <trkpt lat="41.704177" lon="1.194605">
        <ele>424.008</ele>
        <time>2021-08-19T08:57:07Z</time>
      </trkpt>
      <trkpt lat="41.704124" lon="1.194585">
        <ele>424.075</ele>
        <time>2021-08-19T08:57:09Z</time>
      </trkpt>
      <trkpt lat="41.704068" lon="1.194565">
        <ele>424.068</ele>
        <time>2021-08-19T08:57:11Z</time>
      </trkpt>
      <trkpt lat="41.704012" lon="1.194547">
        <ele>424.091</ele>
        <time>2021-08-19T08:57:13Z</time>
      </trkpt>
      <trkpt lat="41.703968" lon="1.194531">
        <ele>424.072</ele>
        <time>2021-08-19T08:57:15Z</time>
      </trkpt>
      <trkpt lat="41.703924" lon="1.194517">
        <ele>424.089</ele>
        <time>2021-08-19T08:57:16Z</time>
      </trkpt>
      <trkpt lat="41.703881" lon="1.194491">
        <ele>424.027</ele>
        <time>2021-08-19T08:57:18Z</time>
      </trkpt>
      <trkpt lat="41.703844" lon="1.194444">
        <ele>424.286</ele>
        <time>2021-08-19T08:57:20Z</time>
      </trkpt>
      <trkpt lat="41.703819" lon="1.194381">
        <ele>424.075</ele>
        <time>2021-08-19T08:57:22Z</time>
      </trkpt>
      <trkpt lat="41.703810" lon="1.194288">
        <ele>423.779</ele>
        <time>2021-08-19T08:57:24Z</time>
      </trkpt>
      <trkpt lat="41.703799" lon="1.194207">
        <ele>423.505</ele>
        <time>2021-08-19T08:57:26Z</time>
      </trkpt>
      <trkpt lat="41.703788" lon="1.194147">
        <ele>423.325</ele>
        <time>2021-08-19T08:57:28Z</time>
      </trkpt>
      <trkpt lat="41.703782" lon="1.194079">
        <ele>423.208</ele>
        <time>2021-08-19T08:57:29Z</time>
      </trkpt>
      <trkpt lat="41.703775" lon="1.194018">
        <ele>423.125</ele>
        <time>2021-08-19T08:57:31Z</time>
      </trkpt>
      <trkpt lat="41.703766" lon="1.193950">
        <ele>423.068</ele>
        <time>2021-08-19T08:57:32Z</time>
      </trkpt>
      <trkpt lat="41.703754" lon="1.193876">
        <ele>422.941</ele>
        <time>2021-08-19T08:57:34Z</time>
      </trkpt>
      <trkpt lat="41.703737" lon="1.193794">
        <ele>422.812</ele>
        <time>2021-08-19T08:57:36Z</time>
      </trkpt>
      <trkpt lat="41.703721" lon="1.193725">
        <ele>422.639</ele>
        <time>2021-08-19T08:57:38Z</time>
      </trkpt>
      <trkpt lat="41.703699" lon="1.193668">
        <ele>422.687</ele>
        <time>2021-08-19T08:57:39Z</time>
      </trkpt>
      <trkpt lat="41.703650" lon="1.193605">
        <ele>422.796</ele>
        <time>2021-08-19T08:57:42Z</time>
      </trkpt>
      <trkpt lat="41.703609" lon="1.193572">
        <ele>423.035</ele>
        <time>2021-08-19T08:57:43Z</time>
      </trkpt>
      <trkpt lat="41.703566" lon="1.193536">
        <ele>423.317</ele>
        <time>2021-08-19T08:57:45Z</time>
      </trkpt>
      <trkpt lat="41.703518" lon="1.193511">
        <ele>423.787</ele>
        <time>2021-08-19T08:57:46Z</time>
      </trkpt>
      <trkpt lat="41.703471" lon="1.193495">
        <ele>424.015</ele>
        <time>2021-08-19T08:57:48Z</time>
      </trkpt>
      <trkpt lat="41.703427" lon="1.193484">
        <ele>424.308</ele>
        <time>2021-08-19T08:57:49Z</time>
      </trkpt>
      <trkpt lat="41.703376" lon="1.193462">
        <ele>424.799</ele>
        <time>2021-08-19T08:57:51Z</time>
      </trkpt>
      <trkpt lat="41.703323" lon="1.193443">
        <ele>425.042</ele>
        <time>2021-08-19T08:57:53Z</time>
      </trkpt>
      <trkpt lat="41.703268" lon="1.193420">
        <ele>424.855</ele>
        <time>2021-08-19T08:57:55Z</time>
      </trkpt>
      <trkpt lat="41.703215" lon="1.193394">
        <ele>424.716</ele>
        <time>2021-08-19T08:57:57Z</time>
      </trkpt>
      <trkpt lat="41.703173" lon="1.193364">
        <ele>424.543</ele>
        <time>2021-08-19T08:57:59Z</time>
      </trkpt>
      <trkpt lat="41.703134" lon="1.193325">
        <ele>424.361</ele>
        <time>2021-08-19T08:58:01Z</time>
      </trkpt>
      <trkpt lat="41.703085" lon="1.193264">
        <ele>424.160</ele>
        <time>2021-08-19T08:58:03Z</time>
      </trkpt>
      <trkpt lat="41.703059" lon="1.193208">
        <ele>424.099</ele>
        <time>2021-08-19T08:58:05Z</time>
      </trkpt>
      <trkpt lat="41.703033" lon="1.193150">
        <ele>423.965</ele>
        <time>2021-08-19T08:58:07Z</time>
      </trkpt>
      <trkpt lat="41.703010" lon="1.193070">
        <ele>423.868</ele>
        <time>2021-08-19T08:58:09Z</time>
      </trkpt>
      <trkpt lat="41.702988" lon="1.192998">
        <ele>423.714</ele>
        <time>2021-08-19T08:58:11Z</time>
      </trkpt>
      <trkpt lat="41.702971" lon="1.192935">
        <ele>423.608</ele>
        <time>2021-08-19T08:58:13Z</time>
      </trkpt>
      <trkpt lat="41.702954" lon="1.192857">
        <ele>423.434</ele>
        <time>2021-08-19T08:58:16Z</time>
      </trkpt>
      <trkpt lat="41.702933" lon="1.192795">
        <ele>423.157</ele>
        <time>2021-08-19T08:58:17Z</time>
      </trkpt>
      <trkpt lat="41.702916" lon="1.192736">
        <ele>422.910</ele>
        <time>2021-08-19T08:58:19Z</time>
      </trkpt>
      <trkpt lat="41.702897" lon="1.192681">
        <ele>422.751</ele>
        <time>2021-08-19T08:58:21Z</time>
      </trkpt>
      <trkpt lat="41.702860" lon="1.192601">
        <ele>422.438</ele>
        <time>2021-08-19T08:58:23Z</time>
      </trkpt>
      <trkpt lat="41.702828" lon="1.192536">
        <ele>422.226</ele>
        <time>2021-08-19T08:58:25Z</time>
      </trkpt>
      <trkpt lat="41.702796" lon="1.192484">
        <ele>422.125</ele>
        <time>2021-08-19T08:58:27Z</time>
      </trkpt>
      <trkpt lat="41.702755" lon="1.192423">
        <ele>422.164</ele>
        <time>2021-08-19T08:58:29Z</time>
      </trkpt>
      <trkpt lat="41.702714" lon="1.192364">
        <ele>422.236</ele>
        <time>2021-08-19T08:58:31Z</time>
      </trkpt>
      <trkpt lat="41.702672" lon="1.192307">
        <ele>422.417</ele>
        <time>2021-08-19T08:58:33Z</time>
      </trkpt>
      <trkpt lat="41.702638" lon="1.192247">
        <ele>422.518</ele>
        <time>2021-08-19T08:58:35Z</time>
      </trkpt>
      <trkpt lat="41.702604" lon="1.192194">
        <ele>422.508</ele>
        <time>2021-08-19T08:58:37Z</time>
      </trkpt>
      <trkpt lat="41.702570" lon="1.192141">
        <ele>422.531</ele>
        <time>2021-08-19T08:58:39Z</time>
      </trkpt>
      <trkpt lat="41.702530" lon="1.192093">
        <ele>422.454</ele>
        <time>2021-08-19T08:58:41Z</time>
      </trkpt>
      <trkpt lat="41.702496" lon="1.192033">
        <ele>422.367</ele>
        <time>2021-08-19T08:58:43Z</time>
      </trkpt>
      <trkpt lat="41.702459" lon="1.191983">
        <ele>422.248</ele>
        <time>2021-08-19T08:58:45Z</time>
      </trkpt>
      <trkpt lat="41.702425" lon="1.191918">
        <ele>421.925</ele>
        <time>2021-08-19T08:58:47Z</time>
      </trkpt>
      <trkpt lat="41.702388" lon="1.191856">
        <ele>421.733</ele>
        <time>2021-08-19T08:58:49Z</time>
      </trkpt>
      <trkpt lat="41.702349" lon="1.191801">
        <ele>421.582</ele>
        <time>2021-08-19T08:58:51Z</time>
      </trkpt>
      <trkpt lat="41.702316" lon="1.191756">
        <ele>421.371</ele>
        <time>2021-08-19T08:58:53Z</time>
      </trkpt>
      <trkpt lat="41.702279" lon="1.191717">
        <ele>421.232</ele>
        <time>2021-08-19T08:58:55Z</time>
      </trkpt>
      <trkpt lat="41.702240" lon="1.191681">
        <ele>421.192</ele>
        <time>2021-08-19T08:58:57Z</time>
      </trkpt>
      <trkpt lat="41.702194" lon="1.191647">
        <ele>421.011</ele>
        <time>2021-08-19T08:58:59Z</time>
      </trkpt>
      <trkpt lat="41.702147" lon="1.191629">
        <ele>421.008</ele>
        <time>2021-08-19T08:59:01Z</time>
      </trkpt>
      <trkpt lat="41.702094" lon="1.191600">
        <ele>421.081</ele>
        <time>2021-08-19T08:59:03Z</time>
      </trkpt>
      <trkpt lat="41.702042" lon="1.191574">
        <ele>421.054</ele>
        <time>2021-08-19T08:59:05Z</time>
      </trkpt>
      <trkpt lat="41.701991" lon="1.191556">
        <ele>421.057</ele>
        <time>2021-08-19T08:59:07Z</time>
      </trkpt>
      <trkpt lat="41.701943" lon="1.191528">
        <ele>421.058</ele>
        <time>2021-08-19T08:59:09Z</time>
      </trkpt>
      <trkpt lat="41.701890" lon="1.191509">
        <ele>421.235</ele>
        <time>2021-08-19T08:59:11Z</time>
      </trkpt>
      <trkpt lat="41.701836" lon="1.191484">
        <ele>421.323</ele>
        <time>2021-08-19T08:59:13Z</time>
      </trkpt>
      <trkpt lat="41.701786" lon="1.191449">
        <ele>421.282</ele>
        <time>2021-08-19T08:59:15Z</time>
      </trkpt>
      <trkpt lat="41.701740" lon="1.191401">
        <ele>421.111</ele>
        <time>2021-08-19T08:59:17Z</time>
      </trkpt>
      <trkpt lat="41.701703" lon="1.191339">
        <ele>420.835</ele>
        <time>2021-08-19T08:59:19Z</time>
      </trkpt>
      <trkpt lat="41.701688" lon="1.191267">
        <ele>420.686</ele>
        <time>2021-08-19T08:59:21Z</time>
      </trkpt>
      <trkpt lat="41.701681" lon="1.191200">
        <ele>420.414</ele>
        <time>2021-08-19T08:59:23Z</time>
      </trkpt>
      <trkpt lat="41.701679" lon="1.191130">
        <ele>420.108</ele>
        <time>2021-08-19T08:59:25Z</time>
      </trkpt>
      <trkpt lat="41.701684" lon="1.191034">
        <ele>420.141</ele>
        <time>2021-08-19T08:59:27Z</time>
      </trkpt>
      <trkpt lat="41.701693" lon="1.190944">
        <ele>420.134</ele>
        <time>2021-08-19T08:59:29Z</time>
      </trkpt>
      <trkpt lat="41.701706" lon="1.190865">
        <ele>420.137</ele>
        <time>2021-08-19T08:59:31Z</time>
      </trkpt>
      <trkpt lat="41.701717" lon="1.190790">
        <ele>420.278</ele>
        <time>2021-08-19T08:59:33Z</time>
      </trkpt>
      <trkpt lat="41.701727" lon="1.190712">
        <ele>420.155</ele>
        <time>2021-08-19T08:59:35Z</time>
      </trkpt>
      <trkpt lat="41.701740" lon="1.190635">
        <ele>420.153</ele>
        <time>2021-08-19T08:59:37Z</time>
      </trkpt>
      <trkpt lat="41.701743" lon="1.190554">
        <ele>420.082</ele>
        <time>2021-08-19T08:59:39Z</time>
      </trkpt>
      <trkpt lat="41.701755" lon="1.190467">
        <ele>420.091</ele>
        <time>2021-08-19T08:59:41Z</time>
      </trkpt>
      <trkpt lat="41.701766" lon="1.190381">
        <ele>420.048</ele>
        <time>2021-08-19T08:59:43Z</time>
      </trkpt>
      <trkpt lat="41.701776" lon="1.190293">
        <ele>420.061</ele>
        <time>2021-08-19T08:59:45Z</time>
      </trkpt>
      <trkpt lat="41.701781" lon="1.190200">
        <ele>419.717</ele>
        <time>2021-08-19T08:59:47Z</time>
      </trkpt>
      <trkpt lat="41.701777" lon="1.190119">
        <ele>419.408</ele>
        <time>2021-08-19T08:59:49Z</time>
      </trkpt>
      <trkpt lat="41.701776" lon="1.190021">
        <ele>419.122</ele>
        <time>2021-08-19T08:59:51Z</time>
      </trkpt>
      <trkpt lat="41.701783" lon="1.189930">
        <ele>418.775</ele>
        <time>2021-08-19T08:59:53Z</time>
      </trkpt>
      <trkpt lat="41.701791" lon="1.189860">
        <ele>418.528</ele>
        <time>2021-08-19T08:59:55Z</time>
      </trkpt>
      <trkpt lat="41.701805" lon="1.189769">
        <ele>418.239</ele>
        <time>2021-08-19T08:59:57Z</time>
      </trkpt>
      <trkpt lat="41.701823" lon="1.189681">
        <ele>417.956</ele>
        <time>2021-08-19T08:59:59Z</time>
      </trkpt>
      <trkpt lat="41.701849" lon="1.189607">
        <ele>417.684</ele>
        <time>2021-08-19T09:00:01Z</time>
      </trkpt>
      <trkpt lat="41.701874" lon="1.189534">
        <ele>417.393</ele>
        <time>2021-08-19T09:00:03Z</time>
      </trkpt>
      <trkpt lat="41.701897" lon="1.189453">
        <ele>417.062</ele>
        <time>2021-08-19T09:00:05Z</time>
      </trkpt>
      <trkpt lat="41.701927" lon="1.189365">
        <ele>416.757</ele>
        <time>2021-08-19T09:00:07Z</time>
      </trkpt>
      <trkpt lat="41.701952" lon="1.189282">
        <ele>416.400</ele>
        <time>2021-08-19T09:00:09Z</time>
      </trkpt>
      <trkpt lat="41.701980" lon="1.189203">
        <ele>416.120</ele>
        <time>2021-08-19T09:00:11Z</time>
      </trkpt>
      <trkpt lat="41.702004" lon="1.189115">
        <ele>415.708</ele>
        <time>2021-08-19T09:00:13Z</time>
      </trkpt>
      <trkpt lat="41.702026" lon="1.189030">
        <ele>415.233</ele>
        <time>2021-08-19T09:00:15Z</time>
      </trkpt>
      <trkpt lat="41.702043" lon="1.188950">
        <ele>414.736</ele>
        <time>2021-08-19T09:00:17Z</time>
      </trkpt>
      <trkpt lat="41.702057" lon="1.188863">
        <ele>414.419</ele>
        <time>2021-08-19T09:00:19Z</time>
      </trkpt>
      <trkpt lat="41.702069" lon="1.188787">
        <ele>414.380</ele>
        <time>2021-08-19T09:00:21Z</time>
      </trkpt>
      <trkpt lat="41.702078" lon="1.188728">
        <ele>414.277</ele>
        <time>2021-08-19T09:00:22Z</time>
      </trkpt>
      <trkpt lat="41.702092" lon="1.188637">
        <ele>414.195</ele>
        <time>2021-08-19T09:00:24Z</time>
      </trkpt>
      <trkpt lat="41.702102" lon="1.188541">
        <ele>414.064</ele>
        <time>2021-08-19T09:00:26Z</time>
      </trkpt>
      <trkpt lat="41.702110" lon="1.188452">
        <ele>414.013</ele>
        <time>2021-08-19T09:00:28Z</time>
      </trkpt>
      <trkpt lat="41.702120" lon="1.188364">
        <ele>414.034</ele>
        <time>2021-08-19T09:00:30Z</time>
      </trkpt>
      <trkpt lat="41.702124" lon="1.188272">
        <ele>413.855</ele>
        <time>2021-08-19T09:00:32Z</time>
      </trkpt>
      <trkpt lat="41.702129" lon="1.188185">
        <ele>413.510</ele>
        <time>2021-08-19T09:00:34Z</time>
      </trkpt>
      <trkpt lat="41.702132" lon="1.188095">
        <ele>413.108</ele>
        <time>2021-08-19T09:00:36Z</time>
      </trkpt>
      <trkpt lat="41.702137" lon="1.187998">
        <ele>412.911</ele>
        <time>2021-08-19T09:00:38Z</time>
      </trkpt>
      <trkpt lat="41.702129" lon="1.187905">
        <ele>412.844</ele>
        <time>2021-08-19T09:00:40Z</time>
      </trkpt>
      <trkpt lat="41.702122" lon="1.187815">
        <ele>412.797</ele>
        <time>2021-08-19T09:00:42Z</time>
      </trkpt>
      <trkpt lat="41.702119" lon="1.187729">
        <ele>412.748</ele>
        <time>2021-08-19T09:00:44Z</time>
      </trkpt>
      <trkpt lat="41.702109" lon="1.187637">
        <ele>412.875</ele>
        <time>2021-08-19T09:00:46Z</time>
      </trkpt>
      <trkpt lat="41.702098" lon="1.187543">
        <ele>412.973</ele>
        <time>2021-08-19T09:00:48Z</time>
      </trkpt>
      <trkpt lat="41.702086" lon="1.187448">
        <ele>413.262</ele>
        <time>2021-08-19T09:00:50Z</time>
      </trkpt>
      <trkpt lat="41.702069" lon="1.187354">
        <ele>413.581</ele>
        <time>2021-08-19T09:00:52Z</time>
      </trkpt>
      <trkpt lat="41.702050" lon="1.187277">
        <ele>413.855</ele>
        <time>2021-08-19T09:00:54Z</time>
      </trkpt>
      <trkpt lat="41.702031" lon="1.187184">
        <ele>414.107</ele>
        <time>2021-08-19T09:00:56Z</time>
      </trkpt>
      <trkpt lat="41.702009" lon="1.187091">
        <ele>414.417</ele>
        <time>2021-08-19T09:00:58Z</time>
      </trkpt>
      <trkpt lat="41.701987" lon="1.187006">
        <ele>414.708</ele>
        <time>2021-08-19T09:01:00Z</time>
      </trkpt>
      <trkpt lat="41.701970" lon="1.186915">
        <ele>414.913</ele>
        <time>2021-08-19T09:01:02Z</time>
      </trkpt>
      <trkpt lat="41.701955" lon="1.186819">
        <ele>415.066</ele>
        <time>2021-08-19T09:01:04Z</time>
      </trkpt>
      <trkpt lat="41.701952" lon="1.186724">
        <ele>415.019</ele>
        <time>2021-08-19T09:01:06Z</time>
      </trkpt>
      <trkpt lat="41.701955" lon="1.186624">
        <ele>415.090</ele>
        <time>2021-08-19T09:01:08Z</time>
      </trkpt>
      <trkpt lat="41.701958" lon="1.186523">
        <ele>415.067</ele>
        <time>2021-08-19T09:01:10Z</time>
      </trkpt>
      <trkpt lat="41.701962" lon="1.186424">
        <ele>414.985</ele>
        <time>2021-08-19T09:01:12Z</time>
      </trkpt>
      <trkpt lat="41.701961" lon="1.186323">
        <ele>414.534</ele>
        <time>2021-08-19T09:01:14Z</time>
      </trkpt>
      <trkpt lat="41.701964" lon="1.186232">
        <ele>413.893</ele>
        <time>2021-08-19T09:01:16Z</time>
      </trkpt>
      <trkpt lat="41.701966" lon="1.186145">
        <ele>413.251</ele>
        <time>2021-08-19T09:01:18Z</time>
      </trkpt>
      <trkpt lat="41.701960" lon="1.186058">
        <ele>412.801</ele>
        <time>2021-08-19T09:01:20Z</time>
      </trkpt>
      <trkpt lat="41.701960" lon="1.185977">
        <ele>412.511</ele>
        <time>2021-08-19T09:01:22Z</time>
      </trkpt>
      <trkpt lat="41.701946" lon="1.185907">
        <ele>412.308</ele>
        <time>2021-08-19T09:01:24Z</time>
      </trkpt>
      <trkpt lat="41.701936" lon="1.185821">
        <ele>412.093</ele>
        <time>2021-08-19T09:01:26Z</time>
      </trkpt>
      <trkpt lat="41.701923" lon="1.185731">
        <ele>411.786</ele>
        <time>2021-08-19T09:01:28Z</time>
      </trkpt>
      <trkpt lat="41.701909" lon="1.185653">
        <ele>411.569</ele>
        <time>2021-08-19T09:01:30Z</time>
      </trkpt>
      <trkpt lat="41.701893" lon="1.185585">
        <ele>411.350</ele>
        <time>2021-08-19T09:01:32Z</time>
      </trkpt>
      <trkpt lat="41.701874" lon="1.185497">
        <ele>411.347</ele>
        <time>2021-08-19T09:01:34Z</time>
      </trkpt>
      <trkpt lat="41.701848" lon="1.185411">
        <ele>411.385</ele>
        <time>2021-08-19T09:01:36Z</time>
      </trkpt>
      <trkpt lat="41.701806" lon="1.185332">
        <ele>411.584</ele>
        <time>2021-08-19T09:01:38Z</time>
      </trkpt>
      <trkpt lat="41.701754" lon="1.185269">
        <ele>411.763</ele>
        <time>2021-08-19T09:01:40Z</time>
      </trkpt>
      <trkpt lat="41.701697" lon="1.185232">
        <ele>411.731</ele>
        <time>2021-08-19T09:01:42Z</time>
      </trkpt>
      <trkpt lat="41.701640" lon="1.185208">
        <ele>411.761</ele>
        <time>2021-08-19T09:01:44Z</time>
      </trkpt>
      <trkpt lat="41.701587" lon="1.185184">
        <ele>411.607</ele>
        <time>2021-08-19T09:01:46Z</time>
      </trkpt>
      <trkpt lat="41.701534" lon="1.185163">
        <ele>411.408</ele>
        <time>2021-08-19T09:01:48Z</time>
      </trkpt>
      <trkpt lat="41.701474" lon="1.185141">
        <ele>411.221</ele>
        <time>2021-08-19T09:01:50Z</time>
      </trkpt>
      <trkpt lat="41.701415" lon="1.185108">
        <ele>410.894</ele>
        <time>2021-08-19T09:01:52Z</time>
      </trkpt>
      <trkpt lat="41.701366" lon="1.185083">
        <ele>410.687</ele>
        <time>2021-08-19T09:01:54Z</time>
      </trkpt>
      <trkpt lat="41.701303" lon="1.185052">
        <ele>410.448</ele>
        <time>2021-08-19T09:01:56Z</time>
      </trkpt>
      <trkpt lat="41.701249" lon="1.185032">
        <ele>410.365</ele>
        <time>2021-08-19T09:01:58Z</time>
      </trkpt>
      <trkpt lat="41.701205" lon="1.185015">
        <ele>410.163</ele>
        <time>2021-08-19T09:02:00Z</time>
      </trkpt>
      <trkpt lat="41.701135" lon="1.184991">
        <ele>409.952</ele>
        <time>2021-08-19T09:02:02Z</time>
      </trkpt>
      <trkpt lat="41.701080" lon="1.184965">
        <ele>410.091</ele>
        <time>2021-08-19T09:02:04Z</time>
      </trkpt>
      <trkpt lat="41.701022" lon="1.184943">
        <ele>410.463</ele>
        <time>2021-08-19T09:02:06Z</time>
      </trkpt>
      <trkpt lat="41.700972" lon="1.184919">
        <ele>410.744</ele>
        <time>2021-08-19T09:02:08Z</time>
      </trkpt>
      <trkpt lat="41.700926" lon="1.184889">
        <ele>411.118</ele>
        <time>2021-08-19T09:02:10Z</time>
      </trkpt>
      <trkpt lat="41.700888" lon="1.184832">
        <ele>411.408</ele>
        <time>2021-08-19T09:02:12Z</time>
      </trkpt>
      <trkpt lat="41.700879" lon="1.184755">
        <ele>411.484</ele>
        <time>2021-08-19T09:02:14Z</time>
      </trkpt>
      <trkpt lat="41.700902" lon="1.184681">
        <ele>410.997</ele>
        <time>2021-08-19T09:02:16Z</time>
      </trkpt>
      <trkpt lat="41.700948" lon="1.184641">
        <ele>410.350</ele>
        <time>2021-08-19T09:02:18Z</time>
      </trkpt>
      <trkpt lat="41.701006" lon="1.184636">
        <ele>409.621</ele>
        <time>2021-08-19T09:02:21Z</time>
      </trkpt>
      <trkpt lat="41.701058" lon="1.184634">
        <ele>409.088</ele>
        <time>2021-08-19T09:02:23Z</time>
      </trkpt>
      <trkpt lat="41.701113" lon="1.184640">
        <ele>408.326</ele>
        <time>2021-08-19T09:02:25Z</time>
      </trkpt>
      <trkpt lat="41.701168" lon="1.184648">
        <ele>408.415</ele>
        <time>2021-08-19T09:02:27Z</time>
      </trkpt>
      <trkpt lat="41.701225" lon="1.184644">
        <ele>408.514</ele>
        <time>2021-08-19T09:02:30Z</time>
      </trkpt>
      <trkpt lat="41.701297" lon="1.184641">
        <ele>408.666</ele>
        <time>2021-08-19T09:02:45Z</time>
      </trkpt>
      <trkpt lat="41.701343" lon="1.184643">
        <ele>408.629</ele>
        <time>2021-08-19T09:02:46Z</time>
      </trkpt>
      <trkpt lat="41.701399" lon="1.184646">
        <ele>408.821</ele>
        <time>2021-08-19T09:02:48Z</time>
      </trkpt>
      <trkpt lat="41.701455" lon="1.184645">
        <ele>409.008</ele>
        <time>2021-08-19T09:02:50Z</time>
      </trkpt>
      <trkpt lat="41.701506" lon="1.184649">
        <ele>409.264</ele>
        <time>2021-08-19T09:02:52Z</time>
      </trkpt>
      <trkpt lat="41.701562" lon="1.184640">
        <ele>409.347</ele>
        <time>2021-08-19T09:02:54Z</time>
      </trkpt>
      <trkpt lat="41.701628" lon="1.184634">
        <ele>409.530</ele>
        <time>2021-08-19T09:02:56Z</time>
      </trkpt>
      <trkpt lat="41.701693" lon="1.184633">
        <ele>409.781</ele>
        <time>2021-08-19T09:02:58Z</time>
      </trkpt>
      <trkpt lat="41.701765" lon="1.184636">
        <ele>409.748</ele>
        <time>2021-08-19T09:03:00Z</time>
      </trkpt>
      <trkpt lat="41.701812" lon="1.184634">
        <ele>409.746</ele>
        <time>2021-08-19T09:03:01Z</time>
      </trkpt>
      <trkpt lat="41.701860" lon="1.184635">
        <ele>409.755</ele>
        <time>2021-08-19T09:03:03Z</time>
      </trkpt>
      <trkpt lat="41.701906" lon="1.184631">
        <ele>409.764</ele>
        <time>2021-08-19T09:03:04Z</time>
      </trkpt>
      <trkpt lat="41.701952" lon="1.184631">
        <ele>409.753</ele>
        <time>2021-08-19T09:03:06Z</time>
      </trkpt>
      <trkpt lat="41.702000" lon="1.184639">
        <ele>409.704</ele>
        <time>2021-08-19T09:03:07Z</time>
      </trkpt>
      <trkpt lat="41.702053" lon="1.184641">
        <ele>409.714</ele>
        <time>2021-08-19T09:03:09Z</time>
      </trkpt>
      <trkpt lat="41.702098" lon="1.184644">
        <ele>409.708</ele>
        <time>2021-08-19T09:03:10Z</time>
      </trkpt>
      <trkpt lat="41.702145" lon="1.184645">
        <ele>409.743</ele>
        <time>2021-08-19T09:03:12Z</time>
      </trkpt>
      <trkpt lat="41.702196" lon="1.184641">
        <ele>409.746</ele>
        <time>2021-08-19T09:03:14Z</time>
      </trkpt>
      <trkpt lat="41.702268" lon="1.184634">
        <ele>409.739</ele>
        <time>2021-08-19T09:03:16Z</time>
      </trkpt>
      <trkpt lat="41.702326" lon="1.184634">
        <ele>409.770</ele>
        <time>2021-08-19T09:03:18Z</time>
      </trkpt>
      <trkpt lat="41.702388" lon="1.184628">
        <ele>409.767</ele>
        <time>2021-08-19T09:03:20Z</time>
      </trkpt>
      <trkpt lat="41.702433" lon="1.184624">
        <ele>409.675</ele>
        <time>2021-08-19T09:03:21Z</time>
      </trkpt>
      <trkpt lat="41.702486" lon="1.184623">
        <ele>409.664</ele>
        <time>2021-08-19T09:03:22Z</time>
      </trkpt>
      <trkpt lat="41.702551" lon="1.184622">
        <ele>409.873</ele>
        <time>2021-08-19T09:03:24Z</time>
      </trkpt>
      <trkpt lat="41.702603" lon="1.184631">
        <ele>409.941</ele>
        <time>2021-08-19T09:03:26Z</time>
      </trkpt>
      <trkpt lat="41.702654" lon="1.184636">
        <ele>410.181</ele>
        <time>2021-08-19T09:03:27Z</time>
      </trkpt>
      <trkpt lat="41.702705" lon="1.184643">
        <ele>410.209</ele>
        <time>2021-08-19T09:03:29Z</time>
      </trkpt>
      <trkpt lat="41.702760" lon="1.184655">
        <ele>410.508</ele>
        <time>2021-08-19T09:03:31Z</time>
      </trkpt>
      <trkpt lat="41.702810" lon="1.184661">
        <ele>410.542</ele>
        <time>2021-08-19T09:03:33Z</time>
      </trkpt>
      <trkpt lat="41.702861" lon="1.184660">
        <ele>410.375</ele>
        <time>2021-08-19T09:03:34Z</time>
      </trkpt>
      <trkpt lat="41.702912" lon="1.184660">
        <ele>410.218</ele>
        <time>2021-08-19T09:03:36Z</time>
      </trkpt>
      <trkpt lat="41.702967" lon="1.184652">
        <ele>410.099</ele>
        <time>2021-08-19T09:03:38Z</time>
      </trkpt>
      <trkpt lat="41.703020" lon="1.184651">
        <ele>409.816</ele>
        <time>2021-08-19T09:03:40Z</time>
      </trkpt>
      <trkpt lat="41.703074" lon="1.184659">
        <ele>409.774</ele>
        <time>2021-08-19T09:03:42Z</time>
      </trkpt>
      <trkpt lat="41.703122" lon="1.184673">
        <ele>409.613</ele>
        <time>2021-08-19T09:03:44Z</time>
      </trkpt>
      <trkpt lat="41.703174" lon="1.184692">
        <ele>409.532</ele>
        <time>2021-08-19T09:03:46Z</time>
      </trkpt>
      <trkpt lat="41.703224" lon="1.184726">
        <ele>409.454</ele>
        <time>2021-08-19T09:03:48Z</time>
      </trkpt>
      <trkpt lat="41.703270" lon="1.184766">
        <ele>409.356</ele>
        <time>2021-08-19T09:03:50Z</time>
      </trkpt>
      <trkpt lat="41.703315" lon="1.184808">
        <ele>409.111</ele>
        <time>2021-08-19T09:03:53Z</time>
      </trkpt>
      <trkpt lat="41.703353" lon="1.184853">
        <ele>408.908</ele>
        <time>2021-08-19T09:03:55Z</time>
      </trkpt>
      <trkpt lat="41.703391" lon="1.184892">
        <ele>408.613</ele>
        <time>2021-08-19T09:03:57Z</time>
      </trkpt>
      <trkpt lat="41.703440" lon="1.184944">
        <ele>408.266</ele>
        <time>2021-08-19T09:04:00Z</time>
      </trkpt>
      <trkpt lat="41.703493" lon="1.184954">
        <ele>407.919</ele>
        <time>2021-08-19T09:04:03Z</time>
      </trkpt>
      <trkpt lat="41.703539" lon="1.184914">
        <ele>407.510</ele>
        <time>2021-08-19T09:04:06Z</time>
      </trkpt>
      <trkpt lat="41.703560" lon="1.184841">
        <ele>407.427</ele>
        <time>2021-08-19T09:04:09Z</time>
      </trkpt>
      <trkpt lat="41.703532" lon="1.184789">
        <ele>407.675</ele>
        <time>2021-08-19T09:04:12Z</time>
      </trkpt>
      <trkpt lat="41.703492" lon="1.184761">
        <ele>407.934</ele>
        <time>2021-08-19T09:04:15Z</time>
      </trkpt>
      <trkpt lat="41.703452" lon="1.184730">
        <ele>408.173</ele>
        <time>2021-08-19T09:04:18Z</time>
      </trkpt>
      <trkpt lat="41.703407" lon="1.184707">
        <ele>408.443</ele>
        <time>2021-08-19T09:04:22Z</time>
      </trkpt>
      <trkpt lat="41.703369" lon="1.184661">
        <ele>408.664</ele>
        <time>2021-08-19T09:04:24Z</time>
      </trkpt>
      <trkpt lat="41.703333" lon="1.184608">
        <ele>408.610</ele>
        <time>2021-08-19T09:04:27Z</time>
      </trkpt>
      <trkpt lat="41.703304" lon="1.184546">
        <ele>408.508</ele>
        <time>2021-08-19T09:04:30Z</time>
      </trkpt>
      <trkpt lat="41.703289" lon="1.184475">
        <ele>408.382</ele>
        <time>2021-08-19T09:04:33Z</time>
      </trkpt>
      <trkpt lat="41.703274" lon="1.184402">
        <ele>408.225</ele>
        <time>2021-08-19T09:04:37Z</time>
      </trkpt>
      <trkpt lat="41.703271" lon="1.184324">
        <ele>408.178</ele>
        <time>2021-08-19T09:04:41Z</time>
      </trkpt>
      <trkpt lat="41.703291" lon="1.184243">
        <ele>408.019</ele>
        <time>2021-08-19T09:04:44Z</time>
      </trkpt>
      <trkpt lat="41.703291" lon="1.184163">
        <ele>408.066</ele>
        <time>2021-08-19T09:04:47Z</time>
      </trkpt>
      <trkpt lat="41.703286" lon="1.184092">
        <ele>408.074</ele>
        <time>2021-08-19T09:04:50Z</time>
      </trkpt>
      <trkpt lat="41.703286" lon="1.184003">
        <ele>408.013</ele>
        <time>2021-08-19T09:04:53Z</time>
      </trkpt>
      <trkpt lat="41.703253" lon="1.183939">
        <ele>408.062</ele>
        <time>2021-08-19T09:04:55Z</time>
      </trkpt>
      <trkpt lat="41.703221" lon="1.183878">
        <ele>408.057</ele>
        <time>2021-08-19T09:04:57Z</time>
      </trkpt>
      <trkpt lat="41.703185" lon="1.183838">
        <ele>408.000</ele>
        <time>2021-08-19T09:04:59Z</time>
      </trkpt>
      <trkpt lat="41.703142" lon="1.183790">
        <ele>408.020</ele>
        <time>2021-08-19T09:05:01Z</time>
      </trkpt>
      <trkpt lat="41.703091" lon="1.183745">
        <ele>408.008</ele>
        <time>2021-08-19T09:05:03Z</time>
      </trkpt>
      <trkpt lat="41.703035" lon="1.183704">
        <ele>407.963</ele>
        <time>2021-08-19T09:05:05Z</time>
      </trkpt>
      <trkpt lat="41.702972" lon="1.183667">
        <ele>407.756</ele>
        <time>2021-08-19T09:05:07Z</time>
      </trkpt>
      <trkpt lat="41.702923" lon="1.183641">
        <ele>407.569</ele>
        <time>2021-08-19T09:05:09Z</time>
      </trkpt>
      <trkpt lat="41.702874" lon="1.183608">
        <ele>407.490</ele>
        <time>2021-08-19T09:05:11Z</time>
      </trkpt>
      <trkpt lat="41.702818" lon="1.183580">
        <ele>407.237</ele>
        <time>2021-08-19T09:05:13Z</time>
      </trkpt>
      <trkpt lat="41.702754" lon="1.183545">
        <ele>407.245</ele>
        <time>2021-08-19T09:05:15Z</time>
      </trkpt>
      <trkpt lat="41.702687" lon="1.183514">
        <ele>407.294</ele>
        <time>2021-08-19T09:05:17Z</time>
      </trkpt>
      <trkpt lat="41.702645" lon="1.183488">
        <ele>407.243</ele>
        <time>2021-08-19T09:05:19Z</time>
      </trkpt>
      <trkpt lat="41.702586" lon="1.183453">
        <ele>407.272</ele>
        <time>2021-08-19T09:05:20Z</time>
      </trkpt>
      <trkpt lat="41.702510" lon="1.183407">
        <ele>407.013</ele>
        <time>2021-08-19T09:05:22Z</time>
      </trkpt>
      <trkpt lat="41.702436" lon="1.183353">
        <ele>406.614</ele>
        <time>2021-08-19T09:05:24Z</time>
      </trkpt>
      <trkpt lat="41.702361" lon="1.183315">
        <ele>406.008</ele>
        <time>2021-08-19T09:05:26Z</time>
      </trkpt>
      <trkpt lat="41.702287" lon="1.183288">
        <ele>405.445</ele>
        <time>2021-08-19T09:05:28Z</time>
      </trkpt>
      <trkpt lat="41.702221" lon="1.183256">
        <ele>405.068</ele>
        <time>2021-08-19T09:05:30Z</time>
      </trkpt>
      <trkpt lat="41.702162" lon="1.183222">
        <ele>404.961</ele>
        <time>2021-08-19T09:05:32Z</time>
      </trkpt>
      <trkpt lat="41.702095" lon="1.183182">
        <ele>404.862</ele>
        <time>2021-08-19T09:05:34Z</time>
      </trkpt>
      <trkpt lat="41.702029" lon="1.183138">
        <ele>404.539</ele>
        <time>2021-08-19T09:05:36Z</time>
      </trkpt>
      <trkpt lat="41.701966" lon="1.183082">
        <ele>404.267</ele>
        <time>2021-08-19T09:05:38Z</time>
      </trkpt>
      <trkpt lat="41.701914" lon="1.183030">
        <ele>404.266</ele>
        <time>2021-08-19T09:05:40Z</time>
      </trkpt>
      <trkpt lat="41.701870" lon="1.182982">
        <ele>404.545</ele>
        <time>2021-08-19T09:05:42Z</time>
      </trkpt>
      <trkpt lat="41.701824" lon="1.182927">
        <ele>404.763</ele>
        <time>2021-08-19T09:05:44Z</time>
      </trkpt>
      <trkpt lat="41.701770" lon="1.182869">
        <ele>404.944</ele>
        <time>2021-08-19T09:05:46Z</time>
      </trkpt>
      <trkpt lat="41.701711" lon="1.182802">
        <ele>405.018</ele>
        <time>2021-08-19T09:05:48Z</time>
      </trkpt>
      <trkpt lat="41.701663" lon="1.182747">
        <ele>404.908</ele>
        <time>2021-08-19T09:05:50Z</time>
      </trkpt>
      <trkpt lat="41.701600" lon="1.182683">
        <ele>404.744</ele>
        <time>2021-08-19T09:05:52Z</time>
      </trkpt>
      <trkpt lat="41.701547" lon="1.182613">
        <ele>404.717</ele>
        <time>2021-08-19T09:05:54Z</time>
      </trkpt>
      <trkpt lat="41.701498" lon="1.182548">
        <ele>404.720</ele>
        <time>2021-08-19T09:05:56Z</time>
      </trkpt>
      <trkpt lat="41.701449" lon="1.182485">
        <ele>404.811</ele>
        <time>2021-08-19T09:05:58Z</time>
      </trkpt>
      <trkpt lat="41.701405" lon="1.182415">
        <ele>404.978</ele>
        <time>2021-08-19T09:06:00Z</time>
      </trkpt>
      <trkpt lat="41.701360" lon="1.182352">
        <ele>405.116</ele>
        <time>2021-08-19T09:06:02Z</time>
      </trkpt>
      <trkpt lat="41.701318" lon="1.182283">
        <ele>405.375</ele>
        <time>2021-08-19T09:06:04Z</time>
      </trkpt>
      <trkpt lat="41.701276" lon="1.182207">
        <ele>405.474</ele>
        <time>2021-08-19T09:06:06Z</time>
      </trkpt>
      <trkpt lat="41.701233" lon="1.182133">
        <ele>405.772</ele>
        <time>2021-08-19T09:06:08Z</time>
      </trkpt>
      <trkpt lat="41.701191" lon="1.182057">
        <ele>405.913</ele>
        <time>2021-08-19T09:06:10Z</time>
      </trkpt>
      <trkpt lat="41.701149" lon="1.181985">
        <ele>406.014</ele>
        <time>2021-08-19T09:06:12Z</time>
      </trkpt>
      <trkpt lat="41.701107" lon="1.181917">
        <ele>406.008</ele>
        <time>2021-08-19T09:06:14Z</time>
      </trkpt>
      <trkpt lat="41.701067" lon="1.181853">
        <ele>405.925</ele>
        <time>2021-08-19T09:06:16Z</time>
      </trkpt>
      <trkpt lat="41.701022" lon="1.181795">
        <ele>405.888</ele>
        <time>2021-08-19T09:06:18Z</time>
      </trkpt>
      <trkpt lat="41.700990" lon="1.181741">
        <ele>405.781</ele>
        <time>2021-08-19T09:06:20Z</time>
      </trkpt>
      <trkpt lat="41.700956" lon="1.181691">
        <ele>405.552</ele>
        <time>2021-08-19T09:06:22Z</time>
      </trkpt>
      <trkpt lat="41.700928" lon="1.181619">
        <ele>405.299</ele>
        <time>2021-08-19T09:06:25Z</time>
      </trkpt>
      <trkpt lat="41.700914" lon="1.181552">
        <ele>405.147</ele>
        <time>2021-08-19T09:06:28Z</time>
      </trkpt>
      <trkpt lat="41.700935" lon="1.181498">
        <ele>404.946</ele>
        <time>2021-08-19T09:06:55Z</time>
      </trkpt>
      <trkpt lat="41.700959" lon="1.181422">
        <ele>404.715</ele>
        <time>2021-08-19T09:06:58Z</time>
      </trkpt>
      <trkpt lat="41.700988" lon="1.181355">
        <ele>404.416</ele>
        <time>2021-08-19T09:07:01Z</time>
      </trkpt>
      <trkpt lat="41.701015" lon="1.181298">
        <ele>404.276</ele>
        <time>2021-08-19T09:07:03Z</time>
      </trkpt>
      <trkpt lat="41.701051" lon="1.181235">
        <ele>404.113</ele>
        <time>2021-08-19T09:07:05Z</time>
      </trkpt>
      <trkpt lat="41.701081" lon="1.181178">
        <ele>404.008</ele>
        <time>2021-08-19T09:07:07Z</time>
      </trkpt>
      <trkpt lat="41.701114" lon="1.181114">
        <ele>404.099</ele>
        <time>2021-08-19T09:07:10Z</time>
      </trkpt>
      <trkpt lat="41.701141" lon="1.181056">
        <ele>403.852</ele>
        <time>2021-08-19T09:07:12Z</time>
      </trkpt>
      <trkpt lat="41.701171" lon="1.181002">
        <ele>403.845</ele>
        <time>2021-08-19T09:07:14Z</time>
      </trkpt>
      <trkpt lat="41.701194" lon="1.180948">
        <ele>403.896</ele>
        <time>2021-08-19T09:07:16Z</time>
      </trkpt>
      <trkpt lat="41.701226" lon="1.180883">
        <ele>403.933</ele>
        <time>2021-08-19T09:07:19Z</time>
      </trkpt>
      <trkpt lat="41.701251" lon="1.180808">
        <ele>404.091</ele>
        <time>2021-08-19T09:07:21Z</time>
      </trkpt>
      <trkpt lat="41.701273" lon="1.180746">
        <ele>404.130</ele>
        <time>2021-08-19T09:07:23Z</time>
      </trkpt>
      <trkpt lat="41.701288" lon="1.180667">
        <ele>404.119</ele>
        <time>2021-08-19T09:07:25Z</time>
      </trkpt>
      <trkpt lat="41.701301" lon="1.180609">
        <ele>404.193</ele>
        <time>2021-08-19T09:07:27Z</time>
      </trkpt>
      <trkpt lat="41.701317" lon="1.180519">
        <ele>403.965</ele>
        <time>2021-08-19T09:07:29Z</time>
      </trkpt>
      <trkpt lat="41.701331" lon="1.180446">
        <ele>403.621</ele>
        <time>2021-08-19T09:07:31Z</time>
      </trkpt>
      <trkpt lat="41.701343" lon="1.180372">
        <ele>403.308</ele>
        <time>2021-08-19T09:07:33Z</time>
      </trkpt>
      <trkpt lat="41.701355" lon="1.180308">
        <ele>403.137</ele>
        <time>2021-08-19T09:07:35Z</time>
      </trkpt>
      <trkpt lat="41.701378" lon="1.180234">
        <ele>402.750</ele>
        <time>2021-08-19T09:07:37Z</time>
      </trkpt>
      <trkpt lat="41.701397" lon="1.180164">
        <ele>402.213</ele>
        <time>2021-08-19T09:07:39Z</time>
      </trkpt>
      <trkpt lat="41.701420" lon="1.180087">
        <ele>401.774</ele>
        <time>2021-08-19T09:07:41Z</time>
      </trkpt>
      <trkpt lat="41.701440" lon="1.180027">
        <ele>401.381</ele>
        <time>2021-08-19T09:07:42Z</time>
      </trkpt>
      <trkpt lat="41.701466" lon="1.179966">
        <ele>401.419</ele>
        <time>2021-08-19T09:07:44Z</time>
      </trkpt>
      <trkpt lat="41.701492" lon="1.179890">
        <ele>401.678</ele>
        <time>2021-08-19T09:07:46Z</time>
      </trkpt>
      <trkpt lat="41.701514" lon="1.179832">
        <ele>401.877</ele>
        <time>2021-08-19T09:07:48Z</time>
      </trkpt>
      <trkpt lat="41.701536" lon="1.179769">
        <ele>401.953</ele>
        <time>2021-08-19T09:07:49Z</time>
      </trkpt>
      <trkpt lat="41.701559" lon="1.179705">
        <ele>402.104</ele>
        <time>2021-08-19T09:07:51Z</time>
      </trkpt>
      <trkpt lat="41.701589" lon="1.179630">
        <ele>402.314</ele>
        <time>2021-08-19T09:07:53Z</time>
      </trkpt>
      <trkpt lat="41.701610" lon="1.179570">
        <ele>402.508</ele>
        <time>2021-08-19T09:07:55Z</time>
      </trkpt>
      <trkpt lat="41.701642" lon="1.179494">
        <ele>402.893</ele>
        <time>2021-08-19T09:07:57Z</time>
      </trkpt>
      <trkpt lat="41.701666" lon="1.179436">
        <ele>403.066</ele>
        <time>2021-08-19T09:07:59Z</time>
      </trkpt>
      <trkpt lat="41.701693" lon="1.179363">
        <ele>403.029</ele>
        <time>2021-08-19T09:08:01Z</time>
      </trkpt>
      <trkpt lat="41.701713" lon="1.179302">
        <ele>403.020</ele>
        <time>2021-08-19T09:08:03Z</time>
      </trkpt>
      <trkpt lat="41.701736" lon="1.179237">
        <ele>402.987</ele>
        <time>2021-08-19T09:08:05Z</time>
      </trkpt>
      <trkpt lat="41.701769" lon="1.179181">
        <ele>402.575</ele>
        <time>2021-08-19T09:08:07Z</time>
      </trkpt>
      <trkpt lat="41.701796" lon="1.179109">
        <ele>402.014</ele>
        <time>2021-08-19T09:08:10Z</time>
      </trkpt>
      <trkpt lat="41.701814" lon="1.179051">
        <ele>401.773</ele>
        <time>2021-08-19T09:08:12Z</time>
      </trkpt>
      <trkpt lat="41.701835" lon="1.178983">
        <ele>401.246</ele>
        <time>2021-08-19T09:08:14Z</time>
      </trkpt>
      <trkpt lat="41.701874" lon="1.178890">
        <ele>400.388</ele>
        <time>2021-08-19T09:08:16Z</time>
      </trkpt>
      <trkpt lat="41.701908" lon="1.178820">
        <ele>399.816</ele>
        <time>2021-08-19T09:08:18Z</time>
      </trkpt>
      <trkpt lat="41.701941" lon="1.178753">
        <ele>399.508</ele>
        <time>2021-08-19T09:08:19Z</time>
      </trkpt>
      <trkpt lat="41.701973" lon="1.178681">
        <ele>399.582</ele>
        <time>2021-08-19T09:08:21Z</time>
      </trkpt>
      <trkpt lat="41.701998" lon="1.178627">
        <ele>399.635</ele>
        <time>2021-08-19T09:08:22Z</time>
      </trkpt>
      <trkpt lat="41.702021" lon="1.178567">
        <ele>399.688</ele>
        <time>2021-08-19T09:08:24Z</time>
      </trkpt>
      <trkpt lat="41.702055" lon="1.178505">
        <ele>399.649</ele>
        <time>2021-08-19T09:08:25Z</time>
      </trkpt>
      <trkpt lat="41.702079" lon="1.178453">
        <ele>399.656</ele>
        <time>2021-08-19T09:08:27Z</time>
      </trkpt>
      <trkpt lat="41.702116" lon="1.178377">
        <ele>399.644</ele>
        <time>2021-08-19T09:08:29Z</time>
      </trkpt>
      <trkpt lat="41.702144" lon="1.178326">
        <ele>399.683</ele>
        <time>2021-08-19T09:08:30Z</time>
      </trkpt>
      <trkpt lat="41.702178" lon="1.178257">
        <ele>399.722</ele>
        <time>2021-08-19T09:08:32Z</time>
      </trkpt>
      <trkpt lat="41.702207" lon="1.178187">
        <ele>400.132</ele>
        <time>2021-08-19T09:08:33Z</time>
      </trkpt>
      <trkpt lat="41.702235" lon="1.178123">
        <ele>400.492</ele>
        <time>2021-08-19T09:08:35Z</time>
      </trkpt>
      <trkpt lat="41.702265" lon="1.178061">
        <ele>400.511</ele>
        <time>2021-08-19T09:08:36Z</time>
      </trkpt>
      <trkpt lat="41.702296" lon="1.177991">
        <ele>400.008</ele>
        <time>2021-08-19T09:08:38Z</time>
      </trkpt>
      <trkpt lat="41.702322" lon="1.177940">
        <ele>399.521</ele>
        <time>2021-08-19T09:08:39Z</time>
      </trkpt>
      <trkpt lat="41.702342" lon="1.177886">
        <ele>399.154</ele>
        <time>2021-08-19T09:08:40Z</time>
      </trkpt>
      <trkpt lat="41.702376" lon="1.177812">
        <ele>398.577</ele>
        <time>2021-08-19T09:08:42Z</time>
      </trkpt>
      <trkpt lat="41.702404" lon="1.177744">
        <ele>397.938</ele>
        <time>2021-08-19T09:08:44Z</time>
      </trkpt>
      <trkpt lat="41.702425" lon="1.177690">
        <ele>397.435</ele>
        <time>2021-08-19T09:08:45Z</time>
      </trkpt>
      <trkpt lat="41.702453" lon="1.177622">
        <ele>396.973</ele>
        <time>2021-08-19T09:08:47Z</time>
      </trkpt>
      <trkpt lat="41.702478" lon="1.177556">
        <ele>396.452</ele>
        <time>2021-08-19T09:08:48Z</time>
      </trkpt>
      <trkpt lat="41.702504" lon="1.177492">
        <ele>396.051</ele>
        <time>2021-08-19T09:08:50Z</time>
      </trkpt>
      <trkpt lat="41.702532" lon="1.177425">
        <ele>395.657</ele>
        <time>2021-08-19T09:08:51Z</time>
      </trkpt>
      <trkpt lat="41.702551" lon="1.177369">
        <ele>395.300</ele>
        <time>2021-08-19T09:08:53Z</time>
      </trkpt>
      <trkpt lat="41.702583" lon="1.177283">
        <ele>394.920</ele>
        <time>2021-08-19T09:08:55Z</time>
      </trkpt>
      <trkpt lat="41.702622" lon="1.177184">
        <ele>394.608</ele>
        <time>2021-08-19T09:08:57Z</time>
      </trkpt>
      <trkpt lat="41.702651" lon="1.177098">
        <ele>394.573</ele>
        <time>2021-08-19T09:08:59Z</time>
      </trkpt>
      <trkpt lat="41.702677" lon="1.177028">
        <ele>394.446</ele>
        <time>2021-08-19T09:09:00Z</time>
      </trkpt>
      <trkpt lat="41.702715" lon="1.176928">
        <ele>394.359</ele>
        <time>2021-08-19T09:09:03Z</time>
      </trkpt>
      <trkpt lat="41.702739" lon="1.176876">
        <ele>394.480</ele>
        <time>2021-08-19T09:09:04Z</time>
      </trkpt>
      <trkpt lat="41.702771" lon="1.176808">
        <ele>394.587</ele>
        <time>2021-08-19T09:09:06Z</time>
      </trkpt>
      <trkpt lat="41.702804" lon="1.176748">
        <ele>394.795</ele>
        <time>2021-08-19T09:09:07Z</time>
      </trkpt>
      <trkpt lat="41.702834" lon="1.176694">
        <ele>394.954</ele>
        <time>2021-08-19T09:09:09Z</time>
      </trkpt>
      <trkpt lat="41.702886" lon="1.176601">
        <ele>395.023</ele>
        <time>2021-08-19T09:09:11Z</time>
      </trkpt>
      <trkpt lat="41.702924" lon="1.176536">
        <ele>395.035</ele>
        <time>2021-08-19T09:09:13Z</time>
      </trkpt>
      <trkpt lat="41.702957" lon="1.176482">
        <ele>395.086</ele>
        <time>2021-08-19T09:09:14Z</time>
      </trkpt>
      <trkpt lat="41.702990" lon="1.176423">
        <ele>395.014</ele>
        <time>2021-08-19T09:09:16Z</time>
      </trkpt>
      <trkpt lat="41.703029" lon="1.176358">
        <ele>394.908</ele>
        <time>2021-08-19T09:09:18Z</time>
      </trkpt>
      <trkpt lat="41.703059" lon="1.176298">
        <ele>394.741</ele>
        <time>2021-08-19T09:09:20Z</time>
      </trkpt>
      <trkpt lat="41.703090" lon="1.176247">
        <ele>394.694</ele>
        <time>2021-08-19T09:09:22Z</time>
      </trkpt>
      <trkpt lat="41.703120" lon="1.176182">
        <ele>394.427</ele>
        <time>2021-08-19T09:09:24Z</time>
      </trkpt>
      <trkpt lat="41.703152" lon="1.176101">
        <ele>394.368</ele>
        <time>2021-08-19T09:09:26Z</time>
      </trkpt>
      <trkpt lat="41.703175" lon="1.176045">
        <ele>394.395</ele>
        <time>2021-08-19T09:09:27Z</time>
      </trkpt>
      <trkpt lat="41.703200" lon="1.175961">
        <ele>394.243</ele>
        <time>2021-08-19T09:09:29Z</time>
      </trkpt>
      <trkpt lat="41.703229" lon="1.175876">
        <ele>394.142</ele>
        <time>2021-08-19T09:09:31Z</time>
      </trkpt>
      <trkpt lat="41.703256" lon="1.175802">
        <ele>394.081</ele>
        <time>2021-08-19T09:09:33Z</time>
      </trkpt>
      <trkpt lat="41.703285" lon="1.175720">
        <ele>394.149</ele>
        <time>2021-08-19T09:09:35Z</time>
      </trkpt>
      <trkpt lat="41.703307" lon="1.175651">
        <ele>394.102</ele>
        <time>2021-08-19T09:09:36Z</time>
      </trkpt>
      <trkpt lat="41.703330" lon="1.175585">
        <ele>394.022</ele>
        <time>2021-08-19T09:09:38Z</time>
      </trkpt>
      <trkpt lat="41.703355" lon="1.175511">
        <ele>394.108</ele>
        <time>2021-08-19T09:09:39Z</time>
      </trkpt>
      <trkpt lat="41.703382" lon="1.175428">
        <ele>394.462</ele>
        <time>2021-08-19T09:09:41Z</time>
      </trkpt>
      <trkpt lat="41.703411" lon="1.175342">
        <ele>394.685</ele>
        <time>2021-08-19T09:09:42Z</time>
      </trkpt>
      <trkpt lat="41.703433" lon="1.175283">
        <ele>394.668</ele>
        <time>2021-08-19T09:09:44Z</time>
      </trkpt>
      <trkpt lat="41.703455" lon="1.175215">
        <ele>394.749</ele>
        <time>2021-08-19T09:09:45Z</time>
      </trkpt>
      <trkpt lat="41.703482" lon="1.175131">
        <ele>394.796</ele>
        <time>2021-08-19T09:09:47Z</time>
      </trkpt>
      <trkpt lat="41.703508" lon="1.175064">
        <ele>394.784</ele>
        <time>2021-08-19T09:09:48Z</time>
      </trkpt>
      <trkpt lat="41.703539" lon="1.174977">
        <ele>394.543</ele>
        <time>2021-08-19T09:09:50Z</time>
      </trkpt>
      <trkpt lat="41.703556" lon="1.174920">
        <ele>394.422</ele>
        <time>2021-08-19T09:09:51Z</time>
      </trkpt>
      <trkpt lat="41.703584" lon="1.174824">
        <ele>394.277</ele>
        <time>2021-08-19T09:09:53Z</time>
      </trkpt>
      <trkpt lat="41.703611" lon="1.174752">
        <ele>394.061</ele>
        <time>2021-08-19T09:09:54Z</time>
      </trkpt>
      <trkpt lat="41.703628" lon="1.174695">
        <ele>393.927</ele>
        <time>2021-08-19T09:09:56Z</time>
      </trkpt>
      <trkpt lat="41.703654" lon="1.174622">
        <ele>393.908</ele>
        <time>2021-08-19T09:09:57Z</time>
      </trkpt>
      <trkpt lat="41.703692" lon="1.174520">
        <ele>393.985</ele>
        <time>2021-08-19T09:09:59Z</time>
      </trkpt>
      <trkpt lat="41.703715" lon="1.174455">
        <ele>394.058</ele>
        <time>2021-08-19T09:10:01Z</time>
      </trkpt>
      <trkpt lat="41.703739" lon="1.174383">
        <ele>393.971</ele>
        <time>2021-08-19T09:10:02Z</time>
      </trkpt>
      <trkpt lat="41.703762" lon="1.174327">
        <ele>393.892</ele>
        <time>2021-08-19T09:10:03Z</time>
      </trkpt>
      <trkpt lat="41.703792" lon="1.174220">
        <ele>393.589</ele>
        <time>2021-08-19T09:10:05Z</time>
      </trkpt>
      <trkpt lat="41.703822" lon="1.174119">
        <ele>393.177</ele>
        <time>2021-08-19T09:10:07Z</time>
      </trkpt>
      <trkpt lat="41.703848" lon="1.174022">
        <ele>392.646</ele>
        <time>2021-08-19T09:10:09Z</time>
      </trkpt>
      <trkpt lat="41.703873" lon="1.173933">
        <ele>392.235</ele>
        <time>2021-08-19T09:10:11Z</time>
      </trkpt>
      <trkpt lat="41.703902" lon="1.173846">
        <ele>391.764</ele>
        <time>2021-08-19T09:10:13Z</time>
      </trkpt>
      <trkpt lat="41.703923" lon="1.173772">
        <ele>391.306</ele>
        <time>2021-08-19T09:10:15Z</time>
      </trkpt>
      <trkpt lat="41.703945" lon="1.173698">
        <ele>390.816</ele>
        <time>2021-08-19T09:10:17Z</time>
      </trkpt>
      <trkpt lat="41.703968" lon="1.173632">
        <ele>390.408</ele>
        <time>2021-08-19T09:10:19Z</time>
      </trkpt>
      <trkpt lat="41.703996" lon="1.173557">
        <ele>390.254</ele>
        <time>2021-08-19T09:10:22Z</time>
      </trkpt>
      <trkpt lat="41.704035" lon="1.173513">
        <ele>390.247</ele>
        <time>2021-08-19T09:10:24Z</time>
      </trkpt>
      <trkpt lat="41.704071" lon="1.173474">
        <ele>390.090</ele>
        <time>2021-08-19T09:10:26Z</time>
      </trkpt>
      <trkpt lat="41.704136" lon="1.173405">
        <ele>389.661</ele>
        <time>2021-08-19T09:10:28Z</time>
      </trkpt>
      <trkpt lat="41.704208" lon="1.173348">
        <ele>389.228</ele>
        <time>2021-08-19T09:10:30Z</time>
      </trkpt>
      <trkpt lat="41.704272" lon="1.173298">
        <ele>389.416</ele>
        <time>2021-08-19T09:10:32Z</time>
      </trkpt>
      <trkpt lat="41.704333" lon="1.173255">
        <ele>389.625</ele>
        <time>2021-08-19T09:10:34Z</time>
      </trkpt>
      <trkpt lat="41.704394" lon="1.173215">
        <ele>389.894</ele>
        <time>2021-08-19T09:10:36Z</time>
      </trkpt>
      <trkpt lat="41.704454" lon="1.173175">
        <ele>390.043</ele>
        <time>2021-08-19T09:10:38Z</time>
      </trkpt>
      <trkpt lat="41.704500" lon="1.173143">
        <ele>389.964</ele>
        <time>2021-08-19T09:10:40Z</time>
      </trkpt>
      <trkpt lat="41.704552" lon="1.173107">
        <ele>389.910</ele>
        <time>2021-08-19T09:10:42Z</time>
      </trkpt>
      <trkpt lat="41.704616" lon="1.173063">
        <ele>390.008</ele>
        <time>2021-08-19T09:10:44Z</time>
      </trkpt>
      <trkpt lat="41.704680" lon="1.173015">
        <ele>390.172</ele>
        <time>2021-08-19T09:10:46Z</time>
      </trkpt>
      <trkpt lat="41.704735" lon="1.172966">
        <ele>390.375</ele>
        <time>2021-08-19T09:10:48Z</time>
      </trkpt>
      <trkpt lat="41.704791" lon="1.172928">
        <ele>390.628</ele>
        <time>2021-08-19T09:10:50Z</time>
      </trkpt>
      <trkpt lat="41.704836" lon="1.172873">
        <ele>390.989</ele>
        <time>2021-08-19T09:10:52Z</time>
      </trkpt>
      <trkpt lat="41.704887" lon="1.172808">
        <ele>391.496</ele>
        <time>2021-08-19T09:10:54Z</time>
      </trkpt>
      <trkpt lat="41.704927" lon="1.172745">
        <ele>391.694</ele>
        <time>2021-08-19T09:10:56Z</time>
      </trkpt>
      <trkpt lat="41.704980" lon="1.172660">
        <ele>391.573</ele>
        <time>2021-08-19T09:10:58Z</time>
      </trkpt>
      <trkpt lat="41.705026" lon="1.172587">
        <ele>391.382</ele>
        <time>2021-08-19T09:11:00Z</time>
      </trkpt>
      <trkpt lat="41.705070" lon="1.172512">
        <ele>391.049</ele>
        <time>2021-08-19T09:11:02Z</time>
      </trkpt>
      <trkpt lat="41.705119" lon="1.172446">
        <ele>390.802</ele>
        <time>2021-08-19T09:11:04Z</time>
      </trkpt>
      <trkpt lat="41.705166" lon="1.172382">
        <ele>390.622</ele>
        <time>2021-08-19T09:11:06Z</time>
      </trkpt>
      <trkpt lat="41.705214" lon="1.172322">
        <ele>390.408</ele>
        <time>2021-08-19T09:11:08Z</time>
      </trkpt>
      <trkpt lat="41.705260" lon="1.172258">
        <ele>390.162</ele>
        <time>2021-08-19T09:11:10Z</time>
      </trkpt>
      <trkpt lat="41.705303" lon="1.172193">
        <ele>389.865</ele>
        <time>2021-08-19T09:11:12Z</time>
      </trkpt>
      <trkpt lat="41.705348" lon="1.172134">
        <ele>389.538</ele>
        <time>2021-08-19T09:11:14Z</time>
      </trkpt>
      <trkpt lat="41.705401" lon="1.172071">
        <ele>389.319</ele>
        <time>2021-08-19T09:11:16Z</time>
      </trkpt>
      <trkpt lat="41.705449" lon="1.172004">
        <ele>389.146</ele>
        <time>2021-08-19T09:11:18Z</time>
      </trkpt>
      <trkpt lat="41.705494" lon="1.171938">
        <ele>389.064</ele>
        <time>2021-08-19T09:11:20Z</time>
      </trkpt>
      <trkpt lat="41.705536" lon="1.171871">
        <ele>389.093</ele>
        <time>2021-08-19T09:11:22Z</time>
      </trkpt>
      <trkpt lat="41.705575" lon="1.171802">
        <ele>388.962</ele>
        <time>2021-08-19T09:11:24Z</time>
      </trkpt>
      <trkpt lat="41.705615" lon="1.171731">
        <ele>388.752</ele>
        <time>2021-08-19T09:11:26Z</time>
      </trkpt>
      <trkpt lat="41.705655" lon="1.171670">
        <ele>388.653</ele>
        <time>2021-08-19T09:11:28Z</time>
      </trkpt>
      <trkpt lat="41.705701" lon="1.171588">
        <ele>388.208</ele>
        <time>2021-08-19T09:11:30Z</time>
      </trkpt>
      <trkpt lat="41.705749" lon="1.171517">
        <ele>387.608</ele>
        <time>2021-08-19T09:11:32Z</time>
      </trkpt>
      <trkpt lat="41.705794" lon="1.171451">
        <ele>386.823</ele>
        <time>2021-08-19T09:11:34Z</time>
      </trkpt>
      <trkpt lat="41.705840" lon="1.171384">
        <ele>385.966</ele>
        <time>2021-08-19T09:11:36Z</time>
      </trkpt>
      <trkpt lat="41.705894" lon="1.171317">
        <ele>385.459</ele>
        <time>2021-08-19T09:11:38Z</time>
      </trkpt>
      <trkpt lat="41.705949" lon="1.171234">
        <ele>384.880</ele>
        <time>2021-08-19T09:11:40Z</time>
      </trkpt>
      <trkpt lat="41.705999" lon="1.171152">
        <ele>384.567</ele>
        <time>2021-08-19T09:11:42Z</time>
      </trkpt>
      <trkpt lat="41.706047" lon="1.171070">
        <ele>384.395</ele>
        <time>2021-08-19T09:11:44Z</time>
      </trkpt>
      <trkpt lat="41.706098" lon="1.170995">
        <ele>384.484</ele>
        <time>2021-08-19T09:11:46Z</time>
      </trkpt>
      <trkpt lat="41.706142" lon="1.170931">
        <ele>384.873</ele>
        <time>2021-08-19T09:11:48Z</time>
      </trkpt>
      <trkpt lat="41.706189" lon="1.170872">
        <ele>385.429</ele>
        <time>2021-08-19T09:11:50Z</time>
      </trkpt>
      <trkpt lat="41.706228" lon="1.170803">
        <ele>386.000</ele>
        <time>2021-08-19T09:11:52Z</time>
      </trkpt>
      <trkpt lat="41.706265" lon="1.170739">
        <ele>386.420</ele>
        <time>2021-08-19T09:11:54Z</time>
      </trkpt>
      <trkpt lat="41.706303" lon="1.170681">
        <ele>386.908</ele>
        <time>2021-08-19T09:11:56Z</time>
      </trkpt>
      <trkpt lat="41.706336" lon="1.170632">
        <ele>387.390</ele>
        <time>2021-08-19T09:11:58Z</time>
      </trkpt>
      <trkpt lat="41.706376" lon="1.170579">
        <ele>387.833</ele>
        <time>2021-08-19T09:12:00Z</time>
      </trkpt>
      <trkpt lat="41.706413" lon="1.170532">
        <ele>387.916</ele>
        <time>2021-08-19T09:12:01Z</time>
      </trkpt>
      <trkpt lat="41.706460" lon="1.170469">
        <ele>387.727</ele>
        <time>2021-08-19T09:12:03Z</time>
      </trkpt>
      <trkpt lat="41.706512" lon="1.170413">
        <ele>387.384</ele>
        <time>2021-08-19T09:12:05Z</time>
      </trkpt>
      <trkpt lat="41.706564" lon="1.170350">
        <ele>386.912</ele>
        <time>2021-08-19T09:12:07Z</time>
      </trkpt>
      <trkpt lat="41.706618" lon="1.170292">
        <ele>386.481</ele>
        <time>2021-08-19T09:12:09Z</time>
      </trkpt>
      <trkpt lat="41.706669" lon="1.170228">
        <ele>386.290</ele>
        <time>2021-08-19T09:12:11Z</time>
      </trkpt>
      <trkpt lat="41.706721" lon="1.170163">
        <ele>386.415</ele>
        <time>2021-08-19T09:12:13Z</time>
      </trkpt>
      <trkpt lat="41.706774" lon="1.170102">
        <ele>386.665</ele>
        <time>2021-08-19T09:12:15Z</time>
      </trkpt>
      <trkpt lat="41.706828" lon="1.170038">
        <ele>386.911</ele>
        <time>2021-08-19T09:12:17Z</time>
      </trkpt>
      <trkpt lat="41.706885" lon="1.169967">
        <ele>387.108</ele>
        <time>2021-08-19T09:12:19Z</time>
      </trkpt>
      <trkpt lat="41.706938" lon="1.169903">
        <ele>387.379</ele>
        <time>2021-08-19T09:12:21Z</time>
      </trkpt>
      <trkpt lat="41.706993" lon="1.169837">
        <ele>387.582</ele>
        <time>2021-08-19T09:12:23Z</time>
      </trkpt>
      <trkpt lat="41.707052" lon="1.169769">
        <ele>387.535</ele>
        <time>2021-08-19T09:12:25Z</time>
      </trkpt>
      <trkpt lat="41.707107" lon="1.169704">
        <ele>387.316</ele>
        <time>2021-08-19T09:12:27Z</time>
      </trkpt>
      <trkpt lat="41.707154" lon="1.169650">
        <ele>387.013</ele>
        <time>2021-08-19T09:12:29Z</time>
      </trkpt>
      <trkpt lat="41.707214" lon="1.169578">
        <ele>386.511</ele>
        <time>2021-08-19T09:12:31Z</time>
      </trkpt>
      <trkpt lat="41.707264" lon="1.169511">
        <ele>386.080</ele>
        <time>2021-08-19T09:12:33Z</time>
      </trkpt>
      <trkpt lat="41.707324" lon="1.169445">
        <ele>385.339</ele>
        <time>2021-08-19T09:12:35Z</time>
      </trkpt>
      <trkpt lat="41.707381" lon="1.169369">
        <ele>384.621</ele>
        <time>2021-08-19T09:12:37Z</time>
      </trkpt>
      <trkpt lat="41.707437" lon="1.169305">
        <ele>384.041</ele>
        <time>2021-08-19T09:12:39Z</time>
      </trkpt>
      <trkpt lat="41.707483" lon="1.169234">
        <ele>383.405</ele>
        <time>2021-08-19T09:12:41Z</time>
      </trkpt>
      <trkpt lat="41.707538" lon="1.169167">
        <ele>383.108</ele>
        <time>2021-08-19T09:12:43Z</time>
      </trkpt>
      <trkpt lat="41.707595" lon="1.169096">
        <ele>383.590</ele>
        <time>2021-08-19T09:12:45Z</time>
      </trkpt>
      <trkpt lat="41.707657" lon="1.169022">
        <ele>383.873</ele>
        <time>2021-08-19T09:12:47Z</time>
      </trkpt>
      <trkpt lat="41.707714" lon="1.168953">
        <ele>383.956</ele>
        <time>2021-08-19T09:12:49Z</time>
      </trkpt>
      <trkpt lat="41.707766" lon="1.168890">
        <ele>384.087</ele>
        <time>2021-08-19T09:12:51Z</time>
      </trkpt>
      <trkpt lat="41.707815" lon="1.168837">
        <ele>384.024</ele>
        <time>2021-08-19T09:12:53Z</time>
      </trkpt>
      <trkpt lat="41.707868" lon="1.168776">
        <ele>384.012</ele>
        <time>2021-08-19T09:12:55Z</time>
      </trkpt>
      <trkpt lat="41.707925" lon="1.168715">
        <ele>384.011</ele>
        <time>2021-08-19T09:12:57Z</time>
      </trkpt>
      <trkpt lat="41.707967" lon="1.168672">
        <ele>384.050</ele>
        <time>2021-08-19T09:12:59Z</time>
      </trkpt>
      <trkpt lat="41.708017" lon="1.168599">
        <ele>384.059</ele>
        <time>2021-08-19T09:13:01Z</time>
      </trkpt>
      <trkpt lat="41.708058" lon="1.168526">
        <ele>384.003</ele>
        <time>2021-08-19T09:13:03Z</time>
      </trkpt>
      <trkpt lat="41.708089" lon="1.168449">
        <ele>383.923</ele>
        <time>2021-08-19T09:13:05Z</time>
      </trkpt>
      <trkpt lat="41.708107" lon="1.168361">
        <ele>384.008</ele>
        <time>2021-08-19T09:13:07Z</time>
      </trkpt>
      <trkpt lat="41.708129" lon="1.168281">
        <ele>384.183</ele>
        <time>2021-08-19T09:13:09Z</time>
      </trkpt>
      <trkpt lat="41.708150" lon="1.168203">
        <ele>384.316</ele>
        <time>2021-08-19T09:13:11Z</time>
      </trkpt>
      <trkpt lat="41.708175" lon="1.168126">
        <ele>384.419</ele>
        <time>2021-08-19T09:13:13Z</time>
      </trkpt>
      <trkpt lat="41.708196" lon="1.168047">
        <ele>384.580</ele>
        <time>2021-08-19T09:13:15Z</time>
      </trkpt>
      <trkpt lat="41.708217" lon="1.167965">
        <ele>384.467</ele>
        <time>2021-08-19T09:13:17Z</time>
      </trkpt>
      <trkpt lat="41.708243" lon="1.167881">
        <ele>384.355</ele>
        <time>2021-08-19T09:13:19Z</time>
      </trkpt>
      <trkpt lat="41.708263" lon="1.167793">
        <ele>384.364</ele>
        <time>2021-08-19T09:13:21Z</time>
      </trkpt>
      <trkpt lat="41.708285" lon="1.167720">
        <ele>384.063</ele>
        <time>2021-08-19T09:13:23Z</time>
      </trkpt>
      <trkpt lat="41.708300" lon="1.167649">
        <ele>383.718</ele>
        <time>2021-08-19T09:13:25Z</time>
      </trkpt>
      <trkpt lat="41.708321" lon="1.167586">
        <ele>383.498</ele>
        <time>2021-08-19T09:13:27Z</time>
      </trkpt>
      <trkpt lat="41.708340" lon="1.167523">
        <ele>383.117</ele>
        <time>2021-08-19T09:13:29Z</time>
      </trkpt>
      <trkpt lat="41.708366" lon="1.167434">
        <ele>382.908</ele>
        <time>2021-08-19T09:13:31Z</time>
      </trkpt>
      <trkpt lat="41.708379" lon="1.167368">
        <ele>382.979</ele>
        <time>2021-08-19T09:13:33Z</time>
      </trkpt>
      <trkpt lat="41.708391" lon="1.167308">
        <ele>382.972</ele>
        <time>2021-08-19T09:13:35Z</time>
      </trkpt>
      <trkpt lat="41.708405" lon="1.167210">
        <ele>383.095</ele>
        <time>2021-08-19T09:13:37Z</time>
      </trkpt>
      <trkpt lat="41.708415" lon="1.167150">
        <ele>382.786</ele>
        <time>2021-08-19T09:13:38Z</time>
      </trkpt>
      <trkpt lat="41.708418" lon="1.167026">
        <ele>382.373</ele>
        <time>2021-08-19T09:13:40Z</time>
      </trkpt>
      <trkpt lat="41.708419" lon="1.166927">
        <ele>381.951</ele>
        <time>2021-08-19T09:13:42Z</time>
      </trkpt>
      <trkpt lat="41.708400" lon="1.166860">
        <ele>381.430</ele>
        <time>2021-08-19T09:13:44Z</time>
      </trkpt>
      <trkpt lat="41.708346" lon="1.166859">
        <ele>381.449</ele>
        <time>2021-08-19T09:14:14Z</time>
      </trkpt>
      <trkpt lat="41.708297" lon="1.166835">
        <ele>381.394</ele>
        <time>2021-08-19T09:14:16Z</time>
      </trkpt>
      <trkpt lat="41.708255" lon="1.166805">
        <ele>381.157</ele>
        <time>2021-08-19T09:14:18Z</time>
      </trkpt>
      <trkpt lat="41.708203" lon="1.166786">
        <ele>381.122</ele>
        <time>2021-08-19T09:14:20Z</time>
      </trkpt>
      <trkpt lat="41.708157" lon="1.166771">
        <ele>381.108</ele>
        <time>2021-08-19T09:14:22Z</time>
      </trkpt>
      <trkpt lat="41.708097" lon="1.166765">
        <ele>381.377</ele>
        <time>2021-08-19T09:14:25Z</time>
      </trkpt>
      <trkpt lat="41.708052" lon="1.166752">
        <ele>381.310</ele>
        <time>2021-08-19T09:14:27Z</time>
      </trkpt>
      <trkpt lat="41.707996" lon="1.166745">
        <ele>381.593</ele>
        <time>2021-08-19T09:14:30Z</time>
      </trkpt>
      <trkpt lat="41.707947" lon="1.166734">
        <ele>381.664</ele>
        <time>2021-08-19T09:14:32Z</time>
      </trkpt>
      <trkpt lat="41.707902" lon="1.166723">
        <ele>381.841</ele>
        <time>2021-08-19T09:14:33Z</time>
      </trkpt>
      <trkpt lat="41.707849" lon="1.166709">
        <ele>381.919</ele>
        <time>2021-08-19T09:14:35Z</time>
      </trkpt>
      <trkpt lat="41.707802" lon="1.166704">
        <ele>382.048</ele>
        <time>2021-08-19T09:14:37Z</time>
      </trkpt>
      <trkpt lat="41.707751" lon="1.166693">
        <ele>382.267</ele>
        <time>2021-08-19T09:14:39Z</time>
      </trkpt>
      <trkpt lat="41.707693" lon="1.166681">
        <ele>382.339</ele>
        <time>2021-08-19T09:14:41Z</time>
      </trkpt>
      <trkpt lat="41.707638" lon="1.166666">
        <ele>382.501</ele>
        <time>2021-08-19T09:14:43Z</time>
      </trkpt>
      <trkpt lat="41.707577" lon="1.166650">
        <ele>382.721</ele>
        <time>2021-08-19T09:14:45Z</time>
      </trkpt>
      <trkpt lat="41.707504" lon="1.166638">
        <ele>382.908</ele>
        <time>2021-08-19T09:14:47Z</time>
      </trkpt>
      <trkpt lat="41.707441" lon="1.166624">
        <ele>382.871</ele>
        <time>2021-08-19T09:14:49Z</time>
      </trkpt>
      <trkpt lat="41.707389" lon="1.166615">
        <ele>382.884</ele>
        <time>2021-08-19T09:14:51Z</time>
      </trkpt>
      <trkpt lat="41.707333" lon="1.166607">
        <ele>382.857</ele>
        <time>2021-08-19T09:14:52Z</time>
      </trkpt>
      <trkpt lat="41.707287" lon="1.166595">
        <ele>382.748</ele>
        <time>2021-08-19T09:14:54Z</time>
      </trkpt>
      <trkpt lat="41.707220" lon="1.166582">
        <ele>382.755</ele>
        <time>2021-08-19T09:14:56Z</time>
      </trkpt>
      <trkpt lat="41.707173" lon="1.166570">
        <ele>382.753</ele>
        <time>2021-08-19T09:14:57Z</time>
      </trkpt>
      <trkpt lat="41.707125" lon="1.166561">
        <ele>382.612</ele>
        <time>2021-08-19T09:14:58Z</time>
      </trkpt>
      <trkpt lat="41.707066" lon="1.166551">
        <ele>382.661</ele>
        <time>2021-08-19T09:15:00Z</time>
      </trkpt>
      <trkpt lat="41.706998" lon="1.166541">
        <ele>382.551</ele>
        <time>2021-08-19T09:15:02Z</time>
      </trkpt>
      <trkpt lat="41.706952" lon="1.166536">
        <ele>382.501</ele>
        <time>2021-08-19T09:15:03Z</time>
      </trkpt>
      <trkpt lat="41.706894" lon="1.166532">
        <ele>382.611</ele>
        <time>2021-08-19T09:15:05Z</time>
      </trkpt>
      <trkpt lat="41.706840" lon="1.166530">
        <ele>382.708</ele>
        <time>2021-08-19T09:15:06Z</time>
      </trkpt>
      <trkpt lat="41.706773" lon="1.166523">
        <ele>382.883</ele>
        <time>2021-08-19T09:15:08Z</time>
      </trkpt>
      <trkpt lat="41.706723" lon="1.166512">
        <ele>382.926</ele>
        <time>2021-08-19T09:15:09Z</time>
      </trkpt>
      <trkpt lat="41.706663" lon="1.166501">
        <ele>383.019</ele>
        <time>2021-08-19T09:15:11Z</time>
      </trkpt>
      <trkpt lat="41.706610" lon="1.166500">
        <ele>383.220</ele>
        <time>2021-08-19T09:15:12Z</time>
      </trkpt>
      <trkpt lat="41.706548" lon="1.166494">
        <ele>383.417</ele>
        <time>2021-08-19T09:15:14Z</time>
      </trkpt>
      <trkpt lat="41.706501" lon="1.166489">
        <ele>383.615</ele>
        <time>2021-08-19T09:15:15Z</time>
      </trkpt>
      <trkpt lat="41.706451" lon="1.166483">
        <ele>383.894</ele>
        <time>2021-08-19T09:15:17Z</time>
      </trkpt>
      <trkpt lat="41.706403" lon="1.166472">
        <ele>383.933</ele>
        <time>2021-08-19T09:15:18Z</time>
      </trkpt>
      <trkpt lat="41.706358" lon="1.166464">
        <ele>383.961</ele>
        <time>2021-08-19T09:15:20Z</time>
      </trkpt>
      <trkpt lat="41.706311" lon="1.166461">
        <ele>383.721</ele>
        <time>2021-08-19T09:15:21Z</time>
      </trkpt>
      <trkpt lat="41.706258" lon="1.166452">
        <ele>383.513</ele>
        <time>2021-08-19T09:15:23Z</time>
      </trkpt>
      <trkpt lat="41.706229" lon="1.166398">
        <ele>383.408</ele>
        <time>2021-08-19T09:15:25Z</time>
      </trkpt>
      <trkpt lat="41.706261" lon="1.166335">
        <ele>383.874</ele>
        <time>2021-08-19T09:15:27Z</time>
      </trkpt>
      <trkpt lat="41.706302" lon="1.166298">
        <ele>384.117</ele>
        <time>2021-08-19T09:15:29Z</time>
      </trkpt>
      <trkpt lat="41.706355" lon="1.166255">
        <ele>384.420</ele>
        <time>2021-08-19T09:15:31Z</time>
      </trkpt>
      <trkpt lat="41.706411" lon="1.166208">
        <ele>384.661</ele>
        <time>2021-08-19T09:15:33Z</time>
      </trkpt>
      <trkpt lat="41.706457" lon="1.166157">
        <ele>384.618</ele>
        <time>2021-08-19T09:15:35Z</time>
      </trkpt>
      <trkpt lat="41.706501" lon="1.166110">
        <ele>384.646</ele>
        <time>2021-08-19T09:15:37Z</time>
      </trkpt>
      <trkpt lat="41.706533" lon="1.166059">
        <ele>384.715</ele>
        <time>2021-08-19T09:15:39Z</time>
      </trkpt>
      <trkpt lat="41.706584" lon="1.166003">
        <ele>384.794</ele>
        <time>2021-08-19T09:15:41Z</time>
      </trkpt>
      <trkpt lat="41.706647" lon="1.165945">
        <ele>384.761</ele>
        <time>2021-08-19T09:15:43Z</time>
      </trkpt>
      <trkpt lat="41.706709" lon="1.165881">
        <ele>384.521</ele>
        <time>2021-08-19T09:15:45Z</time>
      </trkpt>
      <trkpt lat="41.706748" lon="1.165838">
        <ele>384.413</ele>
        <time>2021-08-19T09:15:46Z</time>
      </trkpt>
      <trkpt lat="41.706783" lon="1.165796">
        <ele>384.208</ele>
        <time>2021-08-19T09:15:48Z</time>
      </trkpt>
      <trkpt lat="41.706827" lon="1.165749">
        <ele>384.094</ele>
        <time>2021-08-19T09:15:49Z</time>
      </trkpt>
      <trkpt lat="41.706875" lon="1.165694">
        <ele>383.697</ele>
        <time>2021-08-19T09:15:51Z</time>
      </trkpt>
      <trkpt lat="41.706913" lon="1.165653">
        <ele>383.380</ele>
        <time>2021-08-19T09:15:52Z</time>
      </trkpt>
      <trkpt lat="41.706955" lon="1.165606">
        <ele>383.051</ele>
        <time>2021-08-19T09:15:54Z</time>
      </trkpt>
      <trkpt lat="41.707005" lon="1.165557">
        <ele>382.878</ele>
        <time>2021-08-19T09:15:56Z</time>
      </trkpt>
      <trkpt lat="41.707041" lon="1.165519">
        <ele>382.626</ele>
        <time>2021-08-19T09:15:57Z</time>
      </trkpt>
      <trkpt lat="41.707083" lon="1.165474">
        <ele>382.455</ele>
        <time>2021-08-19T09:15:59Z</time>
      </trkpt>
      <trkpt lat="41.707134" lon="1.165406">
        <ele>381.924</ele>
        <time>2021-08-19T09:16:01Z</time>
      </trkpt>
      <trkpt lat="41.707180" lon="1.165359">
        <ele>381.671</ele>
        <time>2021-08-19T09:16:03Z</time>
      </trkpt>
      <trkpt lat="41.707217" lon="1.165319">
        <ele>381.241</ele>
        <time>2021-08-19T09:16:04Z</time>
      </trkpt>
      <trkpt lat="41.707248" lon="1.165276">
        <ele>381.015</ele>
        <time>2021-08-19T09:16:06Z</time>
      </trkpt>
      <trkpt lat="41.707286" lon="1.165218">
        <ele>380.808</ele>
        <time>2021-08-19T09:16:07Z</time>
      </trkpt>
      <trkpt lat="41.707327" lon="1.165151">
        <ele>380.795</ele>
        <time>2021-08-19T09:16:09Z</time>
      </trkpt>
      <trkpt lat="41.707368" lon="1.165071">
        <ele>380.648</ele>
        <time>2021-08-19T09:16:11Z</time>
      </trkpt>
      <trkpt lat="41.707402" lon="1.165001">
        <ele>380.691</ele>
        <time>2021-08-19T09:16:13Z</time>
      </trkpt>
      <trkpt lat="41.707428" lon="1.164951">
        <ele>380.682</ele>
        <time>2021-08-19T09:16:14Z</time>
      </trkpt>
      <trkpt lat="41.707458" lon="1.164894">
        <ele>380.589</ele>
        <time>2021-08-19T09:16:15Z</time>
      </trkpt>
      <trkpt lat="41.707503" lon="1.164813">
        <ele>380.337</ele>
        <time>2021-08-19T09:16:17Z</time>
      </trkpt>
      <trkpt lat="41.707555" lon="1.164727">
        <ele>379.866</ele>
        <time>2021-08-19T09:16:19Z</time>
      </trkpt>
      <trkpt lat="41.707586" lon="1.164675">
        <ele>379.475</ele>
        <time>2021-08-19T09:16:21Z</time>
      </trkpt>
      <trkpt lat="41.707606" lon="1.164621">
        <ele>379.014</ele>
        <time>2021-08-19T09:16:22Z</time>
      </trkpt>
      <trkpt lat="41.707633" lon="1.164559">
        <ele>378.654</ele>
        <time>2021-08-19T09:16:24Z</time>
      </trkpt>
      <trkpt lat="41.707667" lon="1.164506">
        <ele>378.309</ele>
        <time>2021-08-19T09:16:25Z</time>
      </trkpt>
      <trkpt lat="41.707718" lon="1.164433">
        <ele>378.008</ele>
        <time>2021-08-19T09:16:27Z</time>
      </trkpt>
      <trkpt lat="41.707753" lon="1.164391">
        <ele>377.849</ele>
        <time>2021-08-19T09:16:28Z</time>
      </trkpt>
      <trkpt lat="41.707811" lon="1.164311">
        <ele>377.512</ele>
        <time>2021-08-19T09:16:30Z</time>
      </trkpt>
      <trkpt lat="41.707849" lon="1.164262">
        <ele>377.455</ele>
        <time>2021-08-19T09:16:31Z</time>
      </trkpt>
      <trkpt lat="41.707887" lon="1.164212">
        <ele>377.446</ele>
        <time>2021-08-19T09:16:33Z</time>
      </trkpt>
      <trkpt lat="41.707924" lon="1.164163">
        <ele>377.533</ele>
        <time>2021-08-19T09:16:34Z</time>
      </trkpt>
      <trkpt lat="41.707977" lon="1.164104">
        <ele>377.621</ele>
        <time>2021-08-19T09:16:36Z</time>
      </trkpt>
      <trkpt lat="41.708025" lon="1.164054">
        <ele>377.660</ele>
        <time>2021-08-19T09:16:38Z</time>
      </trkpt>
      <trkpt lat="41.708065" lon="1.164014">
        <ele>377.449</ele>
        <time>2021-08-19T09:16:39Z</time>
      </trkpt>
      <trkpt lat="41.708105" lon="1.163970">
        <ele>377.267</ele>
        <time>2021-08-19T09:16:40Z</time>
      </trkpt>
      <trkpt lat="41.708142" lon="1.163931">
        <ele>377.181</ele>
        <time>2021-08-19T09:16:41Z</time>
      </trkpt>
      <trkpt lat="41.708181" lon="1.163887">
        <ele>377.019</ele>
        <time>2021-08-19T09:16:42Z</time>
      </trkpt>
      <trkpt lat="41.708226" lon="1.163834">
        <ele>377.008</ele>
        <time>2021-08-19T09:16:44Z</time>
      </trkpt>
      <trkpt lat="41.708264" lon="1.163787">
        <ele>376.814</ele>
        <time>2021-08-19T09:16:45Z</time>
      </trkpt>
      <trkpt lat="41.708305" lon="1.163733">
        <ele>376.617</ele>
        <time>2021-08-19T09:16:46Z</time>
      </trkpt>
      <trkpt lat="41.708355" lon="1.163667">
        <ele>376.170</ele>
        <time>2021-08-19T09:16:48Z</time>
      </trkpt>
      <trkpt lat="41.708401" lon="1.163599">
        <ele>375.881</ele>
        <time>2021-08-19T09:16:50Z</time>
      </trkpt>
      <trkpt lat="41.708432" lon="1.163554">
        <ele>375.818</ele>
        <time>2021-08-19T09:16:51Z</time>
      </trkpt>
      <trkpt lat="41.708471" lon="1.163487">
        <ele>375.766</ele>
        <time>2021-08-19T09:16:53Z</time>
      </trkpt>
      <trkpt lat="41.708514" lon="1.163405">
        <ele>375.645</ele>
        <time>2021-08-19T09:16:55Z</time>
      </trkpt>
      <trkpt lat="41.708554" lon="1.163331">
        <ele>375.454</ele>
        <time>2021-08-19T09:16:56Z</time>
      </trkpt>
      <trkpt lat="41.708588" lon="1.163262">
        <ele>375.711</ele>
        <time>2021-08-19T09:16:58Z</time>
      </trkpt>
      <trkpt lat="41.708624" lon="1.163192">
        <ele>375.921</ele>
        <time>2021-08-19T09:16:59Z</time>
      </trkpt>
      <trkpt lat="41.708675" lon="1.163104">
        <ele>376.203</ele>
        <time>2021-08-19T09:17:01Z</time>
      </trkpt>
      <trkpt lat="41.708702" lon="1.163028">
        <ele>376.508</ele>
        <time>2021-08-19T09:17:03Z</time>
      </trkpt>
      <trkpt lat="41.708759" lon="1.162964">
        <ele>376.629</ele>
        <time>2021-08-19T09:17:04Z</time>
      </trkpt>
      <trkpt lat="41.708795" lon="1.162916">
        <ele>376.752</ele>
        <time>2021-08-19T09:17:05Z</time>
      </trkpt>
      <trkpt lat="41.708865" lon="1.162827">
        <ele>376.885</ele>
        <time>2021-08-19T09:17:07Z</time>
      </trkpt>
      <trkpt lat="41.708902" lon="1.162785">
        <ele>376.966</ele>
        <time>2021-08-19T09:17:08Z</time>
      </trkpt>
      <trkpt lat="41.708939" lon="1.162742">
        <ele>376.543</ele>
        <time>2021-08-19T09:17:09Z</time>
      </trkpt>
      <trkpt lat="41.708975" lon="1.162700">
        <ele>376.171</ele>
        <time>2021-08-19T09:17:10Z</time>
      </trkpt>
      <trkpt lat="41.709010" lon="1.162660">
        <ele>375.790</ele>
        <time>2021-08-19T09:17:11Z</time>
      </trkpt>
      <trkpt lat="41.709049" lon="1.162573">
        <ele>375.119</ele>
        <time>2021-08-19T09:17:14Z</time>
      </trkpt>
      <trkpt lat="41.709095" lon="1.162527">
        <ele>374.672</ele>
        <time>2021-08-19T09:17:15Z</time>
      </trkpt>
      <trkpt lat="41.709146" lon="1.162480">
        <ele>374.113</ele>
        <time>2021-08-19T09:17:16Z</time>
      </trkpt>
      <trkpt lat="41.709212" lon="1.162399">
        <ele>373.814</ele>
        <time>2021-08-19T09:17:18Z</time>
      </trkpt>
      <trkpt lat="41.709263" lon="1.162336">
        <ele>373.708</ele>
        <time>2021-08-19T09:17:20Z</time>
      </trkpt>
      <trkpt lat="41.709295" lon="1.162292">
        <ele>373.575</ele>
        <time>2021-08-19T09:17:21Z</time>
      </trkpt>
      <trkpt lat="41.709352" lon="1.162229">
        <ele>373.358</ele>
        <time>2021-08-19T09:17:22Z</time>
      </trkpt>
      <trkpt lat="41.709440" lon="1.162123">
        <ele>373.431</ele>
        <time>2021-08-19T09:17:24Z</time>
      </trkpt>
      <trkpt lat="41.709484" lon="1.162073">
        <ele>373.212</ele>
        <time>2021-08-19T09:17:25Z</time>
      </trkpt>
      <trkpt lat="41.709525" lon="1.162026">
        <ele>372.949</ele>
        <time>2021-08-19T09:17:26Z</time>
      </trkpt>
      <trkpt lat="41.709590" lon="1.161951">
        <ele>372.447</ele>
        <time>2021-08-19T09:17:28Z</time>
      </trkpt>
      <trkpt lat="41.709626" lon="1.161904">
        <ele>372.116</ele>
        <time>2021-08-19T09:17:29Z</time>
      </trkpt>
      <trkpt lat="41.709699" lon="1.161804">
        <ele>371.745</ele>
        <time>2021-08-19T09:17:31Z</time>
      </trkpt>
      <trkpt lat="41.709772" lon="1.161698">
        <ele>371.592</ele>
        <time>2021-08-19T09:17:33Z</time>
      </trkpt>
      <trkpt lat="41.709808" lon="1.161644">
        <ele>371.473</ele>
        <time>2021-08-19T09:17:34Z</time>
      </trkpt>
      <trkpt lat="41.709878" lon="1.161534">
        <ele>371.120</ele>
        <time>2021-08-19T09:17:36Z</time>
      </trkpt>
      <trkpt lat="41.709951" lon="1.161426">
        <ele>370.508</ele>
        <time>2021-08-19T09:17:38Z</time>
      </trkpt>
      <trkpt lat="41.710022" lon="1.161323">
        <ele>370.157</ele>
        <time>2021-08-19T09:17:40Z</time>
      </trkpt>
      <trkpt lat="41.710088" lon="1.161219">
        <ele>369.950</ele>
        <time>2021-08-19T09:17:42Z</time>
      </trkpt>
      <trkpt lat="41.710154" lon="1.161131">
        <ele>369.323</ele>
        <time>2021-08-19T09:17:44Z</time>
      </trkpt>
      <trkpt lat="41.710185" lon="1.161087">
        <ele>369.124</ele>
        <time>2021-08-19T09:17:45Z</time>
      </trkpt>
      <trkpt lat="41.710215" lon="1.161041">
        <ele>368.971</ele>
        <time>2021-08-19T09:17:46Z</time>
      </trkpt>
      <trkpt lat="41.710281" lon="1.160956">
        <ele>368.669</ele>
        <time>2021-08-19T09:17:48Z</time>
      </trkpt>
      <trkpt lat="41.710347" lon="1.160872">
        <ele>368.958</ele>
        <time>2021-08-19T09:17:50Z</time>
      </trkpt>
      <trkpt lat="41.710381" lon="1.160830">
        <ele>369.097</ele>
        <time>2021-08-19T09:17:51Z</time>
      </trkpt>
      <trkpt lat="41.710452" lon="1.160745">
        <ele>369.198</ele>
        <time>2021-08-19T09:17:53Z</time>
      </trkpt>
      <trkpt lat="41.710486" lon="1.160697">
        <ele>369.115</ele>
        <time>2021-08-19T09:17:54Z</time>
      </trkpt>
      <trkpt lat="41.710521" lon="1.160648">
        <ele>369.126</ele>
        <time>2021-08-19T09:17:55Z</time>
      </trkpt>
      <trkpt lat="41.710589" lon="1.160547">
        <ele>368.908</ele>
        <time>2021-08-19T09:17:57Z</time>
      </trkpt>
      <trkpt lat="41.710623" lon="1.160496">
        <ele>369.097</ele>
        <time>2021-08-19T09:17:58Z</time>
      </trkpt>
      <trkpt lat="41.710691" lon="1.160400">
        <ele>369.160</ele>
        <time>2021-08-19T09:18:00Z</time>
      </trkpt>
      <trkpt lat="41.710724" lon="1.160355">
        <ele>369.183</ele>
        <time>2021-08-19T09:18:01Z</time>
      </trkpt>
      <trkpt lat="41.710752" lon="1.160306">
        <ele>369.234</ele>
        <time>2021-08-19T09:18:02Z</time>
      </trkpt>
      <trkpt lat="41.710806" lon="1.160232">
        <ele>368.951</ele>
        <time>2021-08-19T09:18:04Z</time>
      </trkpt>
      <trkpt lat="41.710862" lon="1.160150">
        <ele>368.369</ele>
        <time>2021-08-19T09:18:06Z</time>
      </trkpt>
      <trkpt lat="41.710918" lon="1.160078">
        <ele>367.778</ele>
        <time>2021-08-19T09:18:08Z</time>
      </trkpt>
      <trkpt lat="41.710955" lon="1.160001">
        <ele>367.187</ele>
        <time>2021-08-19T09:18:10Z</time>
      </trkpt>
      <trkpt lat="41.710996" lon="1.159938">
        <ele>366.869</ele>
        <time>2021-08-19T09:18:13Z</time>
      </trkpt>
      <trkpt lat="41.711021" lon="1.159855">
        <ele>366.604</ele>
        <time>2021-08-19T09:18:14Z</time>
      </trkpt>
      <trkpt lat="41.711040" lon="1.159784">
        <ele>366.524</ele>
        <time>2021-08-19T09:18:15Z</time>
      </trkpt>
      <trkpt lat="41.711056" lon="1.159715">
        <ele>366.408</ele>
        <time>2021-08-19T09:18:16Z</time>
      </trkpt>
      <trkpt lat="41.711073" lon="1.159634">
        <ele>366.574</ele>
        <time>2021-08-19T09:18:17Z</time>
      </trkpt>
      <trkpt lat="41.711092" lon="1.159578">
        <ele>366.647</ele>
        <time>2021-08-19T09:18:18Z</time>
      </trkpt>
      <trkpt lat="41.711083" lon="1.159497">
        <ele>366.850</ele>
        <time>2021-08-19T09:18:20Z</time>
      </trkpt>
      <trkpt lat="41.711129" lon="1.159403">
        <ele>367.161</ele>
        <time>2021-08-19T09:18:21Z</time>
      </trkpt>
      <trkpt lat="41.711143" lon="1.159339">
        <ele>367.358</ele>
        <time>2021-08-19T09:18:22Z</time>
      </trkpt>
      <trkpt lat="41.711144" lon="1.159216">
        <ele>367.736</ele>
        <time>2021-08-19T09:18:24Z</time>
      </trkpt>
      <trkpt lat="41.711136" lon="1.159090">
        <ele>367.925</ele>
        <time>2021-08-19T09:18:26Z</time>
      </trkpt>
      <trkpt lat="41.711142" lon="1.158975">
        <ele>367.954</ele>
        <time>2021-08-19T09:18:28Z</time>
      </trkpt>
      <trkpt lat="41.711150" lon="1.158857">
        <ele>367.833</ele>
        <time>2021-08-19T09:18:30Z</time>
      </trkpt>
      <trkpt lat="41.711147" lon="1.158729">
        <ele>367.423</ele>
        <time>2021-08-19T09:18:32Z</time>
      </trkpt>
      <trkpt lat="41.711145" lon="1.158604">
        <ele>367.015</ele>
        <time>2021-08-19T09:18:34Z</time>
      </trkpt>
      <trkpt lat="41.711145" lon="1.158485">
        <ele>366.908</ele>
        <time>2021-08-19T09:18:36Z</time>
      </trkpt>
      <trkpt lat="41.711167" lon="1.158426">
        <ele>366.751</ele>
        <time>2021-08-19T09:18:38Z</time>
      </trkpt>
      <trkpt lat="41.711180" lon="1.158352">
        <ele>366.574</ele>
        <time>2021-08-19T09:18:39Z</time>
      </trkpt>
      <trkpt lat="41.711184" lon="1.158277">
        <ele>366.327</ele>
        <time>2021-08-19T09:18:40Z</time>
      </trkpt>
      <trkpt lat="41.711189" lon="1.158166">
        <ele>366.048</ele>
        <time>2021-08-19T09:18:42Z</time>
      </trkpt>
      <trkpt lat="41.711187" lon="1.158096">
        <ele>365.885</ele>
        <time>2021-08-19T09:18:43Z</time>
      </trkpt>
      <trkpt lat="41.711183" lon="1.158007">
        <ele>365.613</ele>
        <time>2021-08-19T09:18:45Z</time>
      </trkpt>
      <trkpt lat="41.711177" lon="1.157946">
        <ele>365.412</ele>
        <time>2021-08-19T09:18:46Z</time>
      </trkpt>
      <trkpt lat="41.711173" lon="1.157882">
        <ele>365.281</ele>
        <time>2021-08-19T09:18:47Z</time>
      </trkpt>
      <trkpt lat="41.711167" lon="1.157812">
        <ele>364.934</ele>
        <time>2021-08-19T09:18:49Z</time>
      </trkpt>
      <trkpt lat="41.711160" lon="1.157737">
        <ele>364.855</ele>
        <time>2021-08-19T09:18:50Z</time>
      </trkpt>
      <trkpt lat="41.711149" lon="1.157671">
        <ele>364.910</ele>
        <time>2021-08-19T09:18:51Z</time>
      </trkpt>
      <trkpt lat="41.711138" lon="1.157597">
        <ele>364.908</ele>
        <time>2021-08-19T09:18:53Z</time>
      </trkpt>
      <trkpt lat="41.711129" lon="1.157537">
        <ele>364.961</ele>
        <time>2021-08-19T09:18:54Z</time>
      </trkpt>
      <trkpt lat="41.711117" lon="1.157458">
        <ele>365.114</ele>
        <time>2021-08-19T09:18:56Z</time>
      </trkpt>
      <trkpt lat="41.711106" lon="1.157375">
        <ele>365.517</ele>
        <time>2021-08-19T09:18:58Z</time>
      </trkpt>
      <trkpt lat="41.711094" lon="1.157292">
        <ele>365.898</ele>
        <time>2021-08-19T09:19:00Z</time>
      </trkpt>
      <trkpt lat="41.711077" lon="1.157199">
        <ele>366.085</ele>
        <time>2021-08-19T09:19:02Z</time>
      </trkpt>
      <trkpt lat="41.711068" lon="1.157126">
        <ele>366.093</ele>
        <time>2021-08-19T09:19:04Z</time>
      </trkpt>
      <trkpt lat="41.711059" lon="1.157046">
        <ele>366.042</ele>
        <time>2021-08-19T09:19:05Z</time>
      </trkpt>
      <trkpt lat="41.711046" lon="1.156959">
        <ele>366.071</ele>
        <time>2021-08-19T09:19:07Z</time>
      </trkpt>
      <trkpt lat="41.711036" lon="1.156874">
        <ele>365.949</ele>
        <time>2021-08-19T09:19:09Z</time>
      </trkpt>
      <trkpt lat="41.711026" lon="1.156806">
        <ele>365.802</ele>
        <time>2021-08-19T09:19:11Z</time>
      </trkpt>
      <trkpt lat="41.711012" lon="1.156732">
        <ele>365.722</ele>
        <time>2021-08-19T09:19:14Z</time>
      </trkpt>
      <trkpt lat="41.711015" lon="1.156665">
        <ele>365.608</ele>
        <time>2021-08-19T09:19:16Z</time>
      </trkpt>
      <trkpt lat="41.711017" lon="1.156604">
        <ele>365.572</ele>
        <time>2021-08-19T09:19:18Z</time>
      </trkpt>
      <trkpt lat="41.711004" lon="1.156535">
        <ele>365.395</ele>
        <time>2021-08-19T09:19:20Z</time>
      </trkpt>
      <trkpt lat="41.710991" lon="1.156461">
        <ele>365.128</ele>
        <time>2021-08-19T09:19:22Z</time>
      </trkpt>
      <trkpt lat="41.710982" lon="1.156382">
        <ele>365.049</ele>
        <time>2021-08-19T09:19:24Z</time>
      </trkpt>
      <trkpt lat="41.710976" lon="1.156308">
        <ele>364.656</ele>
        <time>2021-08-19T09:19:26Z</time>
      </trkpt>
      <trkpt lat="41.710964" lon="1.156245">
        <ele>364.284</ele>
        <time>2021-08-19T09:19:28Z</time>
      </trkpt>
      <trkpt lat="41.710952" lon="1.156174">
        <ele>363.993</ele>
        <time>2021-08-19T09:19:29Z</time>
      </trkpt>
      <trkpt lat="41.710940" lon="1.156107">
        <ele>363.642</ele>
        <time>2021-08-19T09:19:31Z</time>
      </trkpt>
      <trkpt lat="41.710921" lon="1.156044">
        <ele>363.414</ele>
        <time>2021-08-19T09:19:33Z</time>
      </trkpt>
      <trkpt lat="41.710896" lon="1.155973">
        <ele>363.254</ele>
        <time>2021-08-19T09:19:34Z</time>
      </trkpt>
      <trkpt lat="41.710873" lon="1.155916">
        <ele>363.109</ele>
        <time>2021-08-19T09:19:36Z</time>
      </trkpt>
      <trkpt lat="41.710840" lon="1.155855">
        <ele>363.008</ele>
        <time>2021-08-19T09:19:37Z</time>
      </trkpt>
      <trkpt lat="41.710797" lon="1.155809">
        <ele>363.349</ele>
        <time>2021-08-19T09:19:39Z</time>
      </trkpt>
      <trkpt lat="41.710768" lon="1.155745">
        <ele>363.482</ele>
        <time>2021-08-19T09:19:41Z</time>
      </trkpt>
      <trkpt lat="41.710766" lon="1.155672">
        <ele>363.145</ele>
        <time>2021-08-19T09:19:43Z</time>
      </trkpt>
      <trkpt lat="41.710774" lon="1.155600">
        <ele>362.896</ele>
        <time>2021-08-19T09:19:44Z</time>
      </trkpt>
      <trkpt lat="41.710782" lon="1.155523">
        <ele>362.613</ele>
        <time>2021-08-19T09:19:45Z</time>
      </trkpt>
      <trkpt lat="41.710784" lon="1.155445">
        <ele>362.551</ele>
        <time>2021-08-19T09:19:47Z</time>
      </trkpt>
      <trkpt lat="41.710783" lon="1.155357">
        <ele>362.590</ele>
        <time>2021-08-19T09:19:49Z</time>
      </trkpt>
      <trkpt lat="41.710782" lon="1.155286">
        <ele>362.699</ele>
        <time>2021-08-19T09:19:50Z</time>
      </trkpt>
      <trkpt lat="41.710782" lon="1.155204">
        <ele>362.843</ele>
        <time>2021-08-19T09:19:51Z</time>
      </trkpt>
      <trkpt lat="41.710780" lon="1.155141">
        <ele>363.164</ele>
        <time>2021-08-19T09:19:53Z</time>
      </trkpt>
      <trkpt lat="41.710780" lon="1.155080">
        <ele>363.310</ele>
        <time>2021-08-19T09:19:54Z</time>
      </trkpt>
      <trkpt lat="41.710773" lon="1.154996">
        <ele>363.708</ele>
        <time>2021-08-19T09:19:56Z</time>
      </trkpt>
      <trkpt lat="41.710769" lon="1.154908">
        <ele>363.872</ele>
        <time>2021-08-19T09:19:58Z</time>
      </trkpt>
      <trkpt lat="41.710762" lon="1.154821">
        <ele>363.985</ele>
        <time>2021-08-19T09:20:00Z</time>
      </trkpt>
      <trkpt lat="41.710759" lon="1.154748">
        <ele>364.068</ele>
        <time>2021-08-19T09:20:01Z</time>
      </trkpt>
      <trkpt lat="41.710753" lon="1.154671">
        <ele>364.289</ele>
        <time>2021-08-19T09:20:03Z</time>
      </trkpt>
      <trkpt lat="41.710751" lon="1.154589">
        <ele>364.256</ele>
        <time>2021-08-19T09:20:05Z</time>
      </trkpt>
      <trkpt lat="41.710751" lon="1.154504">
        <ele>364.244</ele>
        <time>2021-08-19T09:20:07Z</time>
      </trkpt>
      <trkpt lat="41.710752" lon="1.154419">
        <ele>364.133</ele>
        <time>2021-08-19T09:20:09Z</time>
      </trkpt>
      <trkpt lat="41.710748" lon="1.154331">
        <ele>363.712</ele>
        <time>2021-08-19T09:20:11Z</time>
      </trkpt>
      <trkpt lat="41.710745" lon="1.154262">
        <ele>363.449</ele>
        <time>2021-08-19T09:20:13Z</time>
      </trkpt>
      <trkpt lat="41.710745" lon="1.154193">
        <ele>363.102</ele>
        <time>2021-08-19T09:20:14Z</time>
      </trkpt>
      <trkpt lat="41.710744" lon="1.154126">
        <ele>362.822</ele>
        <time>2021-08-19T09:20:16Z</time>
      </trkpt>
      <trkpt lat="41.710742" lon="1.154054">
        <ele>362.608</ele>
        <time>2021-08-19T09:20:18Z</time>
      </trkpt>
      <trkpt lat="41.710747" lon="1.153981">
        <ele>362.352</ele>
        <time>2021-08-19T09:20:20Z</time>
      </trkpt>
      <trkpt lat="41.710747" lon="1.153917">
        <ele>362.065</ele>
        <time>2021-08-19T09:20:21Z</time>
      </trkpt>
      <trkpt lat="41.710746" lon="1.153847">
        <ele>361.848</ele>
        <time>2021-08-19T09:20:23Z</time>
      </trkpt>
      <trkpt lat="41.710745" lon="1.153763">
        <ele>361.549</ele>
        <time>2021-08-19T09:20:25Z</time>
      </trkpt>
      <trkpt lat="41.710747" lon="1.153698">
        <ele>361.226</ele>
        <time>2021-08-19T09:20:27Z</time>
      </trkpt>
      <trkpt lat="41.710747" lon="1.153634">
        <ele>361.044</ele>
        <time>2021-08-19T09:20:28Z</time>
      </trkpt>
      <trkpt lat="41.710750" lon="1.153564">
        <ele>360.853</ele>
        <time>2021-08-19T09:20:30Z</time>
      </trkpt>
      <trkpt lat="41.710748" lon="1.153480">
        <ele>360.872</ele>
        <time>2021-08-19T09:20:32Z</time>
      </trkpt>
      <trkpt lat="41.710750" lon="1.153394">
        <ele>360.733</ele>
        <time>2021-08-19T09:20:34Z</time>
      </trkpt>
      <trkpt lat="41.710753" lon="1.153318">
        <ele>360.523</ele>
        <time>2021-08-19T09:20:36Z</time>
      </trkpt>
      <trkpt lat="41.710752" lon="1.153236">
        <ele>360.315</ele>
        <time>2021-08-19T09:20:38Z</time>
      </trkpt>
      <trkpt lat="41.710751" lon="1.153153">
        <ele>360.108</ele>
        <time>2021-08-19T09:20:40Z</time>
      </trkpt>
      <trkpt lat="41.710747" lon="1.153064">
        <ele>360.071</ele>
        <time>2021-08-19T09:20:42Z</time>
      </trkpt>
      <trkpt lat="41.710743" lon="1.153003">
        <ele>359.874</ele>
        <time>2021-08-19T09:20:44Z</time>
      </trkpt>
      <trkpt lat="41.710734" lon="1.152922">
        <ele>359.827</ele>
        <time>2021-08-19T09:20:46Z</time>
      </trkpt>
      <trkpt lat="41.710726" lon="1.152843">
        <ele>359.768</ele>
        <time>2021-08-19T09:20:48Z</time>
      </trkpt>
      <trkpt lat="41.710717" lon="1.152779">
        <ele>359.755</ele>
        <time>2021-08-19T09:20:50Z</time>
      </trkpt>
      <trkpt lat="41.710698" lon="1.152703">
        <ele>360.153</ele>
        <time>2021-08-19T09:20:52Z</time>
      </trkpt>
      <trkpt lat="41.710677" lon="1.152640">
        <ele>360.542</ele>
        <time>2021-08-19T09:20:55Z</time>
      </trkpt>
      <trkpt lat="41.710666" lon="1.152562">
        <ele>360.771</ele>
        <time>2021-08-19T09:20:58Z</time>
      </trkpt>
      <trkpt lat="41.710660" lon="1.152500">
        <ele>360.918</ele>
        <time>2021-08-19T09:21:00Z</time>
      </trkpt>
      <trkpt lat="41.710645" lon="1.152441">
        <ele>361.198</ele>
        <time>2021-08-19T09:21:02Z</time>
      </trkpt>
      <trkpt lat="41.710679" lon="1.152388">
        <ele>360.817</ele>
        <time>2021-08-19T09:22:15Z</time>
      </trkpt>
      <trkpt lat="41.710702" lon="1.152319">
        <ele>360.808</ele>
        <time>2021-08-19T09:22:18Z</time>
      </trkpt>
      <trkpt lat="41.710711" lon="1.152251">
        <ele>360.869</ele>
        <time>2021-08-19T09:22:20Z</time>
      </trkpt>
      <trkpt lat="41.710722" lon="1.152175">
        <ele>360.822</ele>
        <time>2021-08-19T09:22:22Z</time>
      </trkpt>
      <trkpt lat="41.710730" lon="1.152106">
        <ele>360.755</ele>
        <time>2021-08-19T09:22:23Z</time>
      </trkpt>
      <trkpt lat="41.710728" lon="1.152035">
        <ele>360.866</ele>
        <time>2021-08-19T09:22:25Z</time>
      </trkpt>
      <trkpt lat="41.710723" lon="1.151974">
        <ele>360.823</ele>
        <time>2021-08-19T09:22:27Z</time>
      </trkpt>
      <trkpt lat="41.710725" lon="1.151894">
        <ele>360.721</ele>
        <time>2021-08-19T09:22:29Z</time>
      </trkpt>
      <trkpt lat="41.710721" lon="1.151831">
        <ele>360.610</ele>
        <time>2021-08-19T09:22:30Z</time>
      </trkpt>
      <trkpt lat="41.710719" lon="1.151754">
        <ele>360.579</ele>
        <time>2021-08-19T09:22:32Z</time>
      </trkpt>
      <trkpt lat="41.710711" lon="1.151680">
        <ele>360.599</ele>
        <time>2021-08-19T09:22:34Z</time>
      </trkpt>
      <trkpt lat="41.710696" lon="1.151611">
        <ele>360.307</ele>
        <time>2021-08-19T09:22:36Z</time>
      </trkpt>
      <trkpt lat="41.710675" lon="1.151528">
        <ele>360.127</ele>
        <time>2021-08-19T09:22:38Z</time>
      </trkpt>
      <trkpt lat="41.710657" lon="1.151449">
        <ele>359.908</ele>
        <time>2021-08-19T09:22:40Z</time>
      </trkpt>
      <trkpt lat="41.710640" lon="1.151375">
        <ele>359.697</ele>
        <time>2021-08-19T09:22:42Z</time>
      </trkpt>
      <trkpt lat="41.710627" lon="1.151316">
        <ele>359.150</ele>
        <time>2021-08-19T09:22:43Z</time>
      </trkpt>
      <trkpt lat="41.710608" lon="1.151242">
        <ele>358.423</ele>
        <time>2021-08-19T09:22:45Z</time>
      </trkpt>
      <trkpt lat="41.710585" lon="1.151149">
        <ele>357.594</ele>
        <time>2021-08-19T09:22:47Z</time>
      </trkpt>
      <trkpt lat="41.710574" lon="1.151086">
        <ele>357.071</ele>
        <time>2021-08-19T09:22:48Z</time>
      </trkpt>
      <trkpt lat="41.710559" lon="1.151025">
        <ele>356.749</ele>
        <time>2021-08-19T09:22:50Z</time>
      </trkpt>
      <trkpt lat="41.710544" lon="1.150955">
        <ele>356.598</ele>
        <time>2021-08-19T09:22:51Z</time>
      </trkpt>
      <trkpt lat="41.710528" lon="1.150881">
        <ele>356.377</ele>
        <time>2021-08-19T09:22:53Z</time>
      </trkpt>
      <trkpt lat="41.710511" lon="1.150805">
        <ele>356.239</ele>
        <time>2021-08-19T09:22:55Z</time>
      </trkpt>
      <trkpt lat="41.710498" lon="1.150743">
        <ele>356.201</ele>
        <time>2021-08-19T09:22:56Z</time>
      </trkpt>
      <trkpt lat="41.710475" lon="1.150655">
        <ele>356.321</ele>
        <time>2021-08-19T09:22:58Z</time>
      </trkpt>
      <trkpt lat="41.710458" lon="1.150588">
        <ele>356.408</ele>
        <time>2021-08-19T09:23:00Z</time>
      </trkpt>
      <trkpt lat="41.710444" lon="1.150523">
        <ele>356.421</ele>
        <time>2021-08-19T09:23:01Z</time>
      </trkpt>
      <trkpt lat="41.710418" lon="1.150429">
        <ele>356.564</ele>
        <time>2021-08-19T09:23:03Z</time>
      </trkpt>
      <trkpt lat="41.710393" lon="1.150346">
        <ele>356.637</ele>
        <time>2021-08-19T09:23:05Z</time>
      </trkpt>
      <trkpt lat="41.710363" lon="1.150280">
        <ele>356.758</ele>
        <time>2021-08-19T09:23:07Z</time>
      </trkpt>
      <trkpt lat="41.710326" lon="1.150208">
        <ele>357.065</ele>
        <time>2021-08-19T09:23:10Z</time>
      </trkpt>
      <trkpt lat="41.710298" lon="1.150142">
        <ele>357.353</ele>
        <time>2021-08-19T09:23:13Z</time>
      </trkpt>
      <trkpt lat="41.710277" lon="1.150065">
        <ele>357.842</ele>
        <time>2021-08-19T09:23:15Z</time>
      </trkpt>
      <trkpt lat="41.710252" lon="1.150007">
        <ele>358.241</ele>
        <time>2021-08-19T09:23:17Z</time>
      </trkpt>
      <trkpt lat="41.710232" lon="1.149938">
        <ele>358.467</ele>
        <time>2021-08-19T09:23:19Z</time>
      </trkpt>
      <trkpt lat="41.710213" lon="1.149875">
        <ele>358.681</ele>
        <time>2021-08-19T09:23:21Z</time>
      </trkpt>
      <trkpt lat="41.710192" lon="1.149801">
        <ele>358.819</ele>
        <time>2021-08-19T09:23:23Z</time>
      </trkpt>
      <trkpt lat="41.710168" lon="1.149738">
        <ele>359.208</ele>
        <time>2021-08-19T09:23:25Z</time>
      </trkpt>
      <trkpt lat="41.710141" lon="1.149668">
        <ele>359.774</ele>
        <time>2021-08-19T09:23:27Z</time>
      </trkpt>
      <trkpt lat="41.710129" lon="1.149601">
        <ele>360.027</ele>
        <time>2021-08-19T09:23:29Z</time>
      </trkpt>
      <trkpt lat="41.710139" lon="1.149530">
        <ele>360.250</ele>
        <time>2021-08-19T09:23:31Z</time>
      </trkpt>
      <trkpt lat="41.710160" lon="1.149467">
        <ele>360.221</ele>
        <time>2021-08-19T09:23:33Z</time>
      </trkpt>
      <trkpt lat="41.710181" lon="1.149405">
        <ele>360.318</ele>
        <time>2021-08-19T09:23:35Z</time>
      </trkpt>
      <trkpt lat="41.710213" lon="1.149351">
        <ele>360.396</ele>
        <time>2021-08-19T09:23:37Z</time>
      </trkpt>
      <trkpt lat="41.710238" lon="1.149287">
        <ele>360.555</ele>
        <time>2021-08-19T09:23:39Z</time>
      </trkpt>
      <trkpt lat="41.710266" lon="1.149225">
        <ele>360.784</ele>
        <time>2021-08-19T09:23:41Z</time>
      </trkpt>
      <trkpt lat="41.710290" lon="1.149155">
        <ele>360.868</ele>
        <time>2021-08-19T09:23:43Z</time>
      </trkpt>
      <trkpt lat="41.710302" lon="1.149084">
        <ele>360.642</ele>
        <time>2021-08-19T09:23:45Z</time>
      </trkpt>
      <trkpt lat="41.710315" lon="1.149014">
        <ele>360.426</ele>
        <time>2021-08-19T09:23:47Z</time>
      </trkpt>
      <trkpt lat="41.710324" lon="1.148947">
        <ele>360.208</ele>
        <time>2021-08-19T09:23:49Z</time>
      </trkpt>
      <trkpt lat="41.710330" lon="1.148877">
        <ele>360.144</ele>
        <time>2021-08-19T09:23:51Z</time>
      </trkpt>
      <trkpt lat="41.710340" lon="1.148802">
        <ele>360.277</ele>
        <time>2021-08-19T09:23:53Z</time>
      </trkpt>
      <trkpt lat="41.710347" lon="1.148732">
        <ele>360.340</ele>
        <time>2021-08-19T09:23:55Z</time>
      </trkpt>
      <trkpt lat="41.710354" lon="1.148672">
        <ele>360.451</ele>
        <time>2021-08-19T09:23:57Z</time>
      </trkpt>
      <trkpt lat="41.710363" lon="1.148573">
        <ele>360.648</ele>
        <time>2021-08-19T09:23:59Z</time>
      </trkpt>
      <trkpt lat="41.710377" lon="1.148505">
        <ele>360.766</ele>
        <time>2021-08-19T09:24:01Z</time>
      </trkpt>
      <trkpt lat="41.710391" lon="1.148431">
        <ele>360.935</ele>
        <time>2021-08-19T09:24:03Z</time>
      </trkpt>
      <trkpt lat="41.710399" lon="1.148359">
        <ele>361.194</ele>
        <time>2021-08-19T09:24:05Z</time>
      </trkpt>
      <trkpt lat="41.710413" lon="1.148282">
        <ele>361.217</ele>
        <time>2021-08-19T09:24:07Z</time>
      </trkpt>
      <trkpt lat="41.710421" lon="1.148216">
        <ele>361.487</ele>
        <time>2021-08-19T09:24:09Z</time>
      </trkpt>
      <trkpt lat="41.710430" lon="1.148156">
        <ele>361.415</ele>
        <time>2021-08-19T09:24:11Z</time>
      </trkpt>
      <trkpt lat="41.710448" lon="1.148080">
        <ele>361.508</ele>
        <time>2021-08-19T09:24:13Z</time>
      </trkpt>
      <trkpt lat="41.710462" lon="1.147999">
        <ele>361.659</ele>
        <time>2021-08-19T09:24:15Z</time>
      </trkpt>
      <trkpt lat="41.710476" lon="1.147916">
        <ele>361.672</ele>
        <time>2021-08-19T09:24:17Z</time>
      </trkpt>
      <trkpt lat="41.710491" lon="1.147835">
        <ele>361.765</ele>
        <time>2021-08-19T09:24:19Z</time>
      </trkpt>
      <trkpt lat="41.710505" lon="1.147755">
        <ele>361.746</ele>
        <time>2021-08-19T09:24:21Z</time>
      </trkpt>
      <trkpt lat="41.710513" lon="1.147683">
        <ele>361.633</ele>
        <time>2021-08-19T09:24:23Z</time>
      </trkpt>
      <trkpt lat="41.710511" lon="1.147610">
        <ele>361.661</ele>
        <time>2021-08-19T09:24:25Z</time>
      </trkpt>
      <trkpt lat="41.710514" lon="1.147536">
        <ele>361.660</ele>
        <time>2021-08-19T09:24:27Z</time>
      </trkpt>
      <trkpt lat="41.710519" lon="1.147449">
        <ele>361.289</ele>
        <time>2021-08-19T09:24:29Z</time>
      </trkpt>
      <trkpt lat="41.710517" lon="1.147356">
        <ele>360.785</ele>
        <time>2021-08-19T09:24:31Z</time>
      </trkpt>
      <trkpt lat="41.710521" lon="1.147260">
        <ele>360.189</ele>
        <time>2021-08-19T09:24:33Z</time>
      </trkpt>
      <trkpt lat="41.710519" lon="1.147167">
        <ele>359.717</ele>
        <time>2021-08-19T09:24:35Z</time>
      </trkpt>
      <trkpt lat="41.710518" lon="1.147079">
        <ele>359.408</ele>
        <time>2021-08-19T09:24:37Z</time>
      </trkpt>
      <trkpt lat="41.710526" lon="1.146985">
        <ele>358.856</ele>
        <time>2021-08-19T09:24:39Z</time>
      </trkpt>
      <trkpt lat="41.710528" lon="1.146896">
        <ele>358.869</ele>
        <time>2021-08-19T09:24:41Z</time>
      </trkpt>
      <trkpt lat="41.710524" lon="1.146806">
        <ele>359.252</ele>
        <time>2021-08-19T09:24:43Z</time>
      </trkpt>
      <trkpt lat="41.710523" lon="1.146714">
        <ele>359.633</ele>
        <time>2021-08-19T09:24:45Z</time>
      </trkpt>
      <trkpt lat="41.710519" lon="1.146622">
        <ele>360.160</ele>
        <time>2021-08-19T09:24:47Z</time>
      </trkpt>
      <trkpt lat="41.710518" lon="1.146518">
        <ele>360.428</ele>
        <time>2021-08-19T09:24:49Z</time>
      </trkpt>
      <trkpt lat="41.710513" lon="1.146416">
        <ele>360.837</ele>
        <time>2021-08-19T09:24:51Z</time>
      </trkpt>
      <trkpt lat="41.710507" lon="1.146317">
        <ele>361.116</ele>
        <time>2021-08-19T09:24:53Z</time>
      </trkpt>
      <trkpt lat="41.710501" lon="1.146237">
        <ele>361.383</ele>
        <time>2021-08-19T09:24:55Z</time>
      </trkpt>
      <trkpt lat="41.710497" lon="1.146131">
        <ele>361.525</ele>
        <time>2021-08-19T09:24:57Z</time>
      </trkpt>
      <trkpt lat="41.710495" lon="1.146027">
        <ele>361.917</ele>
        <time>2021-08-19T09:24:59Z</time>
      </trkpt>
      <trkpt lat="41.710492" lon="1.145921">
        <ele>362.308</ele>
        <time>2021-08-19T09:25:01Z</time>
      </trkpt>
      <trkpt lat="41.710497" lon="1.145828">
        <ele>362.716</ele>
        <time>2021-08-19T09:25:03Z</time>
      </trkpt>
      <trkpt lat="41.710497" lon="1.145746">
        <ele>362.959</ele>
        <time>2021-08-19T09:25:05Z</time>
      </trkpt>
      <trkpt lat="41.710489" lon="1.145664">
        <ele>363.332</ele>
        <time>2021-08-19T09:25:07Z</time>
      </trkpt>
      <trkpt lat="41.710496" lon="1.145586">
        <ele>363.563</ele>
        <time>2021-08-19T09:25:09Z</time>
      </trkpt>
      <trkpt lat="41.710506" lon="1.145513">
        <ele>363.420</ele>
        <time>2021-08-19T09:25:11Z</time>
      </trkpt>
      <trkpt lat="41.710496" lon="1.145444">
        <ele>363.248</ele>
        <time>2021-08-19T09:25:13Z</time>
      </trkpt>
      <trkpt lat="41.710488" lon="1.145366">
        <ele>362.987</ele>
        <time>2021-08-19T09:25:15Z</time>
      </trkpt>
      <trkpt lat="41.710486" lon="1.145284">
        <ele>362.576</ele>
        <time>2021-08-19T09:25:17Z</time>
      </trkpt>
      <trkpt lat="41.710478" lon="1.145204">
        <ele>361.593</ele>
        <time>2021-08-19T09:25:19Z</time>
      </trkpt>
      <trkpt lat="41.710458" lon="1.145120">
        <ele>360.465</ele>
        <time>2021-08-19T09:25:21Z</time>
      </trkpt>
      <trkpt lat="41.710441" lon="1.145030">
        <ele>359.321</ele>
        <time>2021-08-19T09:25:23Z</time>
      </trkpt>
      <trkpt lat="41.710420" lon="1.144958">
        <ele>358.708</ele>
        <time>2021-08-19T09:25:25Z</time>
      </trkpt>
      <trkpt lat="41.710394" lon="1.144898">
        <ele>358.447</ele>
        <time>2021-08-19T09:25:26Z</time>
      </trkpt>
      <trkpt lat="41.710350" lon="1.144834">
        <ele>358.340</ele>
        <time>2021-08-19T09:25:28Z</time>
      </trkpt>
      <trkpt lat="41.710315" lon="1.144782">
        <ele>358.233</ele>
        <time>2021-08-19T09:25:30Z</time>
      </trkpt>
      <trkpt lat="41.710277" lon="1.144729">
        <ele>358.134</ele>
        <time>2021-08-19T09:25:31Z</time>
      </trkpt>
      <trkpt lat="41.710233" lon="1.144675">
        <ele>357.861</ele>
        <time>2021-08-19T09:25:34Z</time>
      </trkpt>
      <trkpt lat="41.710192" lon="1.144631">
        <ele>357.699</ele>
        <time>2021-08-19T09:26:48Z</time>
      </trkpt>
      <trkpt lat="41.710165" lon="1.144569">
        <ele>357.168</ele>
        <time>2021-08-19T09:26:51Z</time>
      </trkpt>
      <trkpt lat="41.710147" lon="1.144491">
        <ele>356.427</ele>
        <time>2021-08-19T09:26:53Z</time>
      </trkpt>
      <trkpt lat="41.710133" lon="1.144419">
        <ele>355.994</ele>
        <time>2021-08-19T09:26:55Z</time>
      </trkpt>
      <trkpt lat="41.710119" lon="1.144356">
        <ele>355.557</ele>
        <time>2021-08-19T09:26:56Z</time>
      </trkpt>
      <trkpt lat="41.710093" lon="1.144270">
        <ele>355.022</ele>
        <time>2021-08-19T09:26:58Z</time>
      </trkpt>
      <trkpt lat="41.710071" lon="1.144207">
        <ele>354.508</ele>
        <time>2021-08-19T09:26:59Z</time>
      </trkpt>
      <trkpt lat="41.710050" lon="1.144148">
        <ele>354.127</ele>
        <time>2021-08-19T09:27:00Z</time>
      </trkpt>
      <trkpt lat="41.710021" lon="1.144075">
        <ele>353.730</ele>
        <time>2021-08-19T09:27:01Z</time>
      </trkpt>
      <trkpt lat="41.709997" lon="1.144017">
        <ele>353.433</ele>
        <time>2021-08-19T09:27:03Z</time>
      </trkpt>
      <trkpt lat="41.709979" lon="1.143951">
        <ele>353.124</ele>
        <time>2021-08-19T09:27:04Z</time>
      </trkpt>
      <trkpt lat="41.709960" lon="1.143863">
        <ele>352.721</ele>
        <time>2021-08-19T09:27:06Z</time>
      </trkpt>
      <trkpt lat="41.709942" lon="1.143770">
        <ele>352.829</ele>
        <time>2021-08-19T09:27:08Z</time>
      </trkpt>
      <trkpt lat="41.709936" lon="1.143704">
        <ele>352.898</ele>
        <time>2021-08-19T09:27:09Z</time>
      </trkpt>
      <trkpt lat="41.709929" lon="1.143615">
        <ele>353.017</ele>
        <time>2021-08-19T09:27:11Z</time>
      </trkpt>
      <trkpt lat="41.709923" lon="1.143545">
        <ele>352.824</ele>
        <time>2021-08-19T09:27:12Z</time>
      </trkpt>
      <trkpt lat="41.709917" lon="1.143462">
        <ele>352.604</ele>
        <time>2021-08-19T09:27:14Z</time>
      </trkpt>
      <trkpt lat="41.709909" lon="1.143366">
        <ele>352.414</ele>
        <time>2021-08-19T09:27:16Z</time>
      </trkpt>
      <trkpt lat="41.709901" lon="1.143302">
        <ele>352.208</ele>
        <time>2021-08-19T09:27:18Z</time>
      </trkpt>
      <trkpt lat="41.709894" lon="1.143229">
        <ele>352.050</ele>
        <time>2021-08-19T09:27:19Z</time>
      </trkpt>
      <trkpt lat="41.709889" lon="1.143167">
        <ele>351.843</ele>
        <time>2021-08-19T09:27:20Z</time>
      </trkpt>
      <trkpt lat="41.709877" lon="1.143091">
        <ele>351.666</ele>
        <time>2021-08-19T09:27:22Z</time>
      </trkpt>
      <trkpt lat="41.709863" lon="1.143026">
        <ele>351.337</ele>
        <time>2021-08-19T09:27:24Z</time>
      </trkpt>
      <trkpt lat="41.709844" lon="1.142960">
        <ele>351.134</ele>
        <time>2021-08-19T09:27:25Z</time>
      </trkpt>
      <trkpt lat="41.709830" lon="1.142886">
        <ele>350.872</ele>
        <time>2021-08-19T09:27:27Z</time>
      </trkpt>
      <trkpt lat="41.709824" lon="1.142814">
        <ele>350.481</ele>
        <time>2021-08-19T09:27:29Z</time>
      </trkpt>
      <trkpt lat="41.709820" lon="1.142732">
        <ele>350.210</ele>
        <time>2021-08-19T09:27:31Z</time>
      </trkpt>
      <trkpt lat="41.709821" lon="1.142661">
        <ele>350.053</ele>
        <time>2021-08-19T09:27:32Z</time>
      </trkpt>
      <trkpt lat="41.709817" lon="1.142587">
        <ele>349.904</ele>
        <time>2021-08-19T09:27:33Z</time>
      </trkpt>
      <trkpt lat="41.709810" lon="1.142519">
        <ele>349.714</ele>
        <time>2021-08-19T09:27:34Z</time>
      </trkpt>
      <trkpt lat="41.709787" lon="1.142387">
        <ele>349.408</ele>
        <time>2021-08-19T09:27:36Z</time>
      </trkpt>
      <trkpt lat="41.709773" lon="1.142325">
        <ele>349.253</ele>
        <time>2021-08-19T09:27:37Z</time>
      </trkpt>
      <trkpt lat="41.709741" lon="1.142219">
        <ele>348.926</ele>
        <time>2021-08-19T09:27:39Z</time>
      </trkpt>
      <trkpt lat="41.709714" lon="1.142108">
        <ele>348.619</ele>
        <time>2021-08-19T09:27:41Z</time>
      </trkpt>
      <trkpt lat="41.709685" lon="1.142034">
        <ele>348.470</ele>
        <time>2021-08-19T09:27:43Z</time>
      </trkpt>
      <trkpt lat="41.709665" lon="1.141969">
        <ele>348.387</ele>
        <time>2021-08-19T09:27:44Z</time>
      </trkpt>
      <trkpt lat="41.709643" lon="1.141876">
        <ele>348.065</ele>
        <time>2021-08-19T09:27:46Z</time>
      </trkpt>
      <trkpt lat="41.709622" lon="1.141792">
        <ele>347.834</ele>
        <time>2021-08-19T09:27:48Z</time>
      </trkpt>
      <trkpt lat="41.709605" lon="1.141697">
        <ele>347.513</ele>
        <time>2021-08-19T09:27:49Z</time>
      </trkpt>
      <trkpt lat="41.709593" lon="1.141630">
        <ele>347.469</ele>
        <time>2021-08-19T09:27:50Z</time>
      </trkpt>
      <trkpt lat="41.709567" lon="1.141509">
        <ele>347.304</ele>
        <time>2021-08-19T09:27:52Z</time>
      </trkpt>
      <trkpt lat="41.709538" lon="1.141388">
        <ele>347.324</ele>
        <time>2021-08-19T09:27:54Z</time>
      </trkpt>
      <trkpt lat="41.709525" lon="1.141324">
        <ele>347.208</ele>
        <time>2021-08-19T09:27:55Z</time>
      </trkpt>
      <trkpt lat="41.709514" lon="1.141262">
        <ele>347.044</ele>
        <time>2021-08-19T09:27:56Z</time>
      </trkpt>
      <trkpt lat="41.709486" lon="1.141146">
        <ele>346.847</ele>
        <time>2021-08-19T09:27:58Z</time>
      </trkpt>
      <trkpt lat="41.709472" lon="1.141088">
        <ele>346.830</ele>
        <time>2021-08-19T09:27:59Z</time>
      </trkpt>
      <trkpt lat="41.709450" lon="1.140992">
        <ele>347.041</ele>
        <time>2021-08-19T09:28:01Z</time>
      </trkpt>
      <trkpt lat="41.709417" lon="1.140861">
        <ele>347.148</ele>
        <time>2021-08-19T09:28:03Z</time>
      </trkpt>
      <trkpt lat="41.709380" lon="1.140740">
        <ele>347.256</ele>
        <time>2021-08-19T09:28:05Z</time>
      </trkpt>
      <trkpt lat="41.709364" lon="1.140678">
        <ele>347.365</ele>
        <time>2021-08-19T09:28:06Z</time>
      </trkpt>
      <trkpt lat="41.709347" lon="1.140620">
        <ele>347.424</ele>
        <time>2021-08-19T09:28:07Z</time>
      </trkpt>
      <trkpt lat="41.709327" lon="1.140559">
        <ele>347.467</ele>
        <time>2021-08-19T09:28:08Z</time>
      </trkpt>
      <trkpt lat="41.709311" lon="1.140500">
        <ele>347.581</ele>
        <time>2021-08-19T09:28:09Z</time>
      </trkpt>
      <trkpt lat="41.709297" lon="1.140440">
        <ele>347.519</ele>
        <time>2021-08-19T09:28:10Z</time>
      </trkpt>
      <trkpt lat="41.709284" lon="1.140377">
        <ele>347.608</ele>
        <time>2021-08-19T09:28:11Z</time>
      </trkpt>
      <trkpt lat="41.709260" lon="1.140255">
        <ele>347.554</ele>
        <time>2021-08-19T09:28:13Z</time>
      </trkpt>
      <trkpt lat="41.709248" lon="1.140195">
        <ele>347.217</ele>
        <time>2021-08-19T09:28:14Z</time>
      </trkpt>
      <trkpt lat="41.709230" lon="1.140078">
        <ele>346.570</ele>
        <time>2021-08-19T09:28:16Z</time>
      </trkpt>
      <trkpt lat="41.709218" lon="1.139993">
        <ele>346.071</ele>
        <time>2021-08-19T09:28:18Z</time>
      </trkpt>
      <trkpt lat="41.709205" lon="1.139885">
        <ele>345.258</ele>
        <time>2021-08-19T09:28:20Z</time>
      </trkpt>
      <trkpt lat="41.709188" lon="1.139828">
        <ele>344.826</ele>
        <time>2021-08-19T09:28:21Z</time>
      </trkpt>
      <trkpt lat="41.709164" lon="1.139772">
        <ele>344.375</ele>
        <time>2021-08-19T09:28:22Z</time>
      </trkpt>
      <trkpt lat="41.709182" lon="1.139682">
        <ele>343.874</ele>
        <time>2021-08-19T09:28:24Z</time>
      </trkpt>
      <trkpt lat="41.709128" lon="1.139615">
        <ele>342.921</ele>
        <time>2021-08-19T09:28:25Z</time>
      </trkpt>
      <trkpt lat="41.709078" lon="1.139549">
        <ele>342.141</ele>
        <time>2021-08-19T09:28:27Z</time>
      </trkpt>
      <trkpt lat="41.709039" lon="1.139494">
        <ele>341.405</ele>
        <time>2021-08-19T09:28:28Z</time>
      </trkpt>
      <trkpt lat="41.709001" lon="1.139438">
        <ele>340.808</ele>
        <time>2021-08-19T09:28:29Z</time>
      </trkpt>
      <trkpt lat="41.708934" lon="1.139362">
        <ele>340.880</ele>
        <time>2021-08-19T09:28:31Z</time>
      </trkpt>
      <trkpt lat="41.708872" lon="1.139286">
        <ele>341.273</ele>
        <time>2021-08-19T09:28:33Z</time>
      </trkpt>
      <trkpt lat="41.708798" lon="1.139221">
        <ele>342.026</ele>
        <time>2021-08-19T09:28:35Z</time>
      </trkpt>
      <trkpt lat="41.708715" lon="1.139181">
        <ele>342.627</ele>
        <time>2021-08-19T09:28:37Z</time>
      </trkpt>
      <trkpt lat="41.708631" lon="1.139169">
        <ele>342.964</ele>
        <time>2021-08-19T09:28:39Z</time>
      </trkpt>
      <trkpt lat="41.708565" lon="1.139154">
        <ele>343.232</ele>
        <time>2021-08-19T09:28:41Z</time>
      </trkpt>
      <trkpt lat="41.708503" lon="1.139119">
        <ele>343.621</ele>
        <time>2021-08-19T09:28:43Z</time>
      </trkpt>
      <trkpt lat="41.708464" lon="1.139045">
        <ele>343.930</ele>
        <time>2021-08-19T09:28:45Z</time>
      </trkpt>
      <trkpt lat="41.708470" lon="1.138933">
        <ele>344.321</ele>
        <time>2021-08-19T09:28:47Z</time>
      </trkpt>
      <trkpt lat="41.708483" lon="1.138820">
        <ele>344.741</ele>
        <time>2021-08-19T09:28:49Z</time>
      </trkpt>
      <trkpt lat="41.708481" lon="1.138717">
        <ele>344.805</ele>
        <time>2021-08-19T09:28:51Z</time>
      </trkpt>
      <trkpt lat="41.708470" lon="1.138625">
        <ele>345.008</ele>
        <time>2021-08-19T09:28:53Z</time>
      </trkpt>
      <trkpt lat="41.708462" lon="1.138534">
        <ele>344.990</ele>
        <time>2021-08-19T09:28:55Z</time>
      </trkpt>
      <trkpt lat="41.708437" lon="1.138431">
        <ele>344.653</ele>
        <time>2021-08-19T09:28:57Z</time>
      </trkpt>
      <trkpt lat="41.708369" lon="1.138382">
        <ele>344.366</ele>
        <time>2021-08-19T09:28:59Z</time>
      </trkpt>
      <trkpt lat="41.708281" lon="1.138412">
        <ele>344.187</ele>
        <time>2021-08-19T09:29:01Z</time>
      </trkpt>
      <trkpt lat="41.708200" lon="1.138424">
        <ele>343.874</ele>
        <time>2021-08-19T09:29:03Z</time>
      </trkpt>
      <trkpt lat="41.708122" lon="1.138396">
        <ele>343.512</ele>
        <time>2021-08-19T09:29:05Z</time>
      </trkpt>
      <trkpt lat="41.708060" lon="1.138347">
        <ele>343.131</ele>
        <time>2021-08-19T09:29:07Z</time>
      </trkpt>
      <trkpt lat="41.708027" lon="1.138276">
        <ele>343.030</ele>
        <time>2021-08-19T09:29:09Z</time>
      </trkpt>
      <trkpt lat="41.708005" lon="1.138208">
        <ele>342.889</ele>
        <time>2021-08-19T09:29:11Z</time>
      </trkpt>
      <trkpt lat="41.707988" lon="1.138142">
        <ele>342.706</ele>
        <time>2021-08-19T09:29:13Z</time>
      </trkpt>
      <trkpt lat="41.707976" lon="1.138074">
        <ele>342.526</ele>
        <time>2021-08-19T09:29:15Z</time>
      </trkpt>
      <trkpt lat="41.707972" lon="1.138006">
        <ele>342.408</ele>
        <time>2021-08-19T09:29:17Z</time>
      </trkpt>
      <trkpt lat="41.707956" lon="1.137936">
        <ele>342.316</ele>
        <time>2021-08-19T09:29:19Z</time>
      </trkpt>
      <trkpt lat="41.707945" lon="1.137864">
        <ele>342.239</ele>
        <time>2021-08-19T09:29:21Z</time>
      </trkpt>
      <trkpt lat="41.707943" lon="1.137779">
        <ele>342.232</ele>
        <time>2021-08-19T09:29:23Z</time>
      </trkpt>
      <trkpt lat="41.707942" lon="1.137694">
        <ele>342.573</ele>
        <time>2021-08-19T09:29:25Z</time>
      </trkpt>
      <trkpt lat="41.707941" lon="1.137634">
        <ele>342.770</ele>
        <time>2021-08-19T09:29:26Z</time>
      </trkpt>
      <trkpt lat="41.707940" lon="1.137523">
        <ele>343.128</ele>
        <time>2021-08-19T09:29:28Z</time>
      </trkpt>
      <trkpt lat="41.707943" lon="1.137413">
        <ele>343.057</ele>
        <time>2021-08-19T09:29:30Z</time>
      </trkpt>
      <trkpt lat="41.707948" lon="1.137297">
        <ele>342.866</ele>
        <time>2021-08-19T09:29:32Z</time>
      </trkpt>
      <trkpt lat="41.707953" lon="1.137186">
        <ele>342.539</ele>
        <time>2021-08-19T09:29:34Z</time>
      </trkpt>
      <trkpt lat="41.707962" lon="1.137079">
        <ele>342.301</ele>
        <time>2021-08-19T09:29:36Z</time>
      </trkpt>
      <trkpt lat="41.707975" lon="1.136980">
        <ele>342.121</ele>
        <time>2021-08-19T09:29:38Z</time>
      </trkpt>
      <trkpt lat="41.707973" lon="1.136880">
        <ele>342.408</ele>
        <time>2021-08-19T09:29:40Z</time>
      </trkpt>
      <trkpt lat="41.707976" lon="1.136770">
        <ele>343.161</ele>
        <time>2021-08-19T09:29:42Z</time>
      </trkpt>
      <trkpt lat="41.707977" lon="1.136660">
        <ele>343.834</ele>
        <time>2021-08-19T09:29:44Z</time>
      </trkpt>
      <trkpt lat="41.707969" lon="1.136598">
        <ele>344.527</ele>
        <time>2021-08-19T09:29:45Z</time>
      </trkpt>
      <trkpt lat="41.707956" lon="1.136515">
        <ele>345.428</ele>
        <time>2021-08-19T09:29:47Z</time>
      </trkpt>
      <trkpt lat="41.707943" lon="1.136453">
        <ele>346.045</ele>
        <time>2021-08-19T09:29:48Z</time>
      </trkpt>
      <trkpt lat="41.707924" lon="1.136378">
        <ele>346.793</ele>
        <time>2021-08-19T09:29:49Z</time>
      </trkpt>
      <trkpt lat="41.707908" lon="1.136318">
        <ele>346.972</ele>
        <time>2021-08-19T09:29:50Z</time>
      </trkpt>
      <trkpt lat="41.707875" lon="1.136213">
        <ele>347.361</ele>
        <time>2021-08-19T09:29:52Z</time>
      </trkpt>
      <trkpt lat="41.707846" lon="1.136139">
        <ele>347.541</ele>
        <time>2021-08-19T09:29:54Z</time>
      </trkpt>
      <trkpt lat="41.707826" lon="1.136079">
        <ele>347.781</ele>
        <time>2021-08-19T09:29:55Z</time>
      </trkpt>
      <trkpt lat="41.707787" lon="1.135980">
        <ele>347.609</ele>
        <time>2021-08-19T09:29:57Z</time>
      </trkpt>
      <trkpt lat="41.707734" lon="1.135900">
        <ele>347.108</ele>
        <time>2021-08-19T09:29:59Z</time>
      </trkpt>
      <trkpt lat="41.707690" lon="1.135814">
        <ele>346.992</ele>
        <time>2021-08-19T09:30:01Z</time>
      </trkpt>
      <trkpt lat="41.707656" lon="1.135747">
        <ele>346.735</ele>
        <time>2021-08-19T09:30:03Z</time>
      </trkpt>
      <trkpt lat="41.707621" lon="1.135693">
        <ele>346.528</ele>
        <time>2021-08-19T09:30:05Z</time>
      </trkpt>
      <trkpt lat="41.707580" lon="1.135635">
        <ele>346.129</ele>
        <time>2021-08-19T09:30:07Z</time>
      </trkpt>
      <trkpt lat="41.707536" lon="1.135573">
        <ele>345.616</ele>
        <time>2021-08-19T09:30:09Z</time>
      </trkpt>
      <trkpt lat="41.707490" lon="1.135508">
        <ele>345.244</ele>
        <time>2021-08-19T09:30:11Z</time>
      </trkpt>
      <trkpt lat="41.707441" lon="1.135442">
        <ele>345.173</ele>
        <time>2021-08-19T09:30:13Z</time>
      </trkpt>
      <trkpt lat="41.707392" lon="1.135365">
        <ele>344.952</ele>
        <time>2021-08-19T09:30:15Z</time>
      </trkpt>
      <trkpt lat="41.707347" lon="1.135293">
        <ele>344.755</ele>
        <time>2021-08-19T09:30:17Z</time>
      </trkpt>
      <trkpt lat="41.707305" lon="1.135239">
        <ele>344.607</ele>
        <time>2021-08-19T09:30:19Z</time>
      </trkpt>
      <trkpt lat="41.707265" lon="1.135179">
        <ele>344.417</ele>
        <time>2021-08-19T09:30:21Z</time>
      </trkpt>
      <trkpt lat="41.707228" lon="1.135113">
        <ele>344.308</ele>
        <time>2021-08-19T09:30:23Z</time>
      </trkpt>
      <trkpt lat="41.707192" lon="1.135050">
        <ele>344.263</ele>
        <time>2021-08-19T09:30:25Z</time>
      </trkpt>
      <trkpt lat="41.707165" lon="1.135001">
        <ele>344.276</ele>
        <time>2021-08-19T09:30:26Z</time>
      </trkpt>
      <trkpt lat="41.707118" lon="1.134930">
        <ele>344.349</ele>
        <time>2021-08-19T09:30:28Z</time>
      </trkpt>
      <trkpt lat="41.707073" lon="1.134865">
        <ele>344.330</ele>
        <time>2021-08-19T09:30:30Z</time>
      </trkpt>
      <trkpt lat="41.707028" lon="1.134803">
        <ele>344.097</ele>
        <time>2021-08-19T09:30:32Z</time>
      </trkpt>
      <trkpt lat="41.706986" lon="1.134733">
        <ele>343.875</ele>
        <time>2021-08-19T09:30:34Z</time>
      </trkpt>
      <trkpt lat="41.706946" lon="1.134666">
        <ele>343.474</ele>
        <time>2021-08-19T09:30:36Z</time>
      </trkpt>
      <trkpt lat="41.706915" lon="1.134619">
        <ele>343.293</ele>
        <time>2021-08-19T09:30:38Z</time>
      </trkpt>
      <trkpt lat="41.706875" lon="1.134582">
        <ele>342.865</ele>
        <time>2021-08-19T09:30:41Z</time>
      </trkpt>
      <trkpt lat="41.706849" lon="1.134525">
        <ele>342.768</ele>
        <time>2021-08-19T09:31:11Z</time>
      </trkpt>
      <trkpt lat="41.706816" lon="1.134466">
        <ele>342.514</ele>
        <time>2021-08-19T09:31:16Z</time>
      </trkpt>
      <trkpt lat="41.706776" lon="1.134426">
        <ele>342.208</ele>
        <time>2021-08-19T09:31:21Z</time>
      </trkpt>
      <trkpt lat="41.706745" lon="1.134378">
        <ele>342.394</ele>
        <time>2021-08-19T09:31:26Z</time>
      </trkpt>
      <trkpt lat="41.706707" lon="1.134328">
        <ele>342.367</ele>
        <time>2021-08-19T09:33:12Z</time>
      </trkpt>
      <trkpt lat="41.706661" lon="1.134275">
        <ele>342.460</ele>
        <time>2021-08-19T09:33:15Z</time>
      </trkpt>
      <trkpt lat="41.706629" lon="1.134202">
        <ele>343.171</ele>
        <time>2021-08-19T09:33:19Z</time>
      </trkpt>
      <trkpt lat="41.706583" lon="1.134152">
        <ele>343.328</ele>
        <time>2021-08-19T09:33:21Z</time>
      </trkpt>
      <trkpt lat="41.706544" lon="1.134111">
        <ele>343.536</ele>
        <time>2021-08-19T09:33:23Z</time>
      </trkpt>
      <trkpt lat="41.706496" lon="1.134059">
        <ele>343.735</ele>
        <time>2021-08-19T09:33:25Z</time>
      </trkpt>
      <trkpt lat="41.706463" lon="1.133999">
        <ele>344.214</ele>
        <time>2021-08-19T09:33:27Z</time>
      </trkpt>
      <trkpt lat="41.706424" lon="1.133953">
        <ele>344.591</ele>
        <time>2021-08-19T09:33:29Z</time>
      </trkpt>
      <trkpt lat="41.706391" lon="1.133901">
        <ele>344.881</ele>
        <time>2021-08-19T09:33:31Z</time>
      </trkpt>
      <trkpt lat="41.706351" lon="1.133855">
        <ele>345.219</ele>
        <time>2021-08-19T09:33:33Z</time>
      </trkpt>
      <trkpt lat="41.706315" lon="1.133807">
        <ele>345.508</ele>
        <time>2021-08-19T09:33:35Z</time>
      </trkpt>
      <trkpt lat="41.706283" lon="1.133752">
        <ele>345.837</ele>
        <time>2021-08-19T09:33:37Z</time>
      </trkpt>
      <trkpt lat="41.706242" lon="1.133681">
        <ele>346.160</ele>
        <time>2021-08-19T09:33:40Z</time>
      </trkpt>
      <trkpt lat="41.706202" lon="1.133630">
        <ele>346.163</ele>
        <time>2021-08-19T09:33:43Z</time>
      </trkpt>
      <trkpt lat="41.706169" lon="1.133588">
        <ele>345.914</ele>
        <time>2021-08-19T09:33:45Z</time>
      </trkpt>
      <trkpt lat="41.706117" lon="1.133529">
        <ele>345.441</ele>
        <time>2021-08-19T09:33:48Z</time>
      </trkpt>
      <trkpt lat="41.706089" lon="1.133473">
        <ele>345.189</ele>
        <time>2021-08-19T09:33:50Z</time>
      </trkpt>
      <trkpt lat="41.706051" lon="1.133428">
        <ele>344.628</ele>
        <time>2021-08-19T09:33:52Z</time>
      </trkpt>
      <trkpt lat="41.706019" lon="1.133378">
        <ele>344.247</ele>
        <time>2021-08-19T09:33:54Z</time>
      </trkpt>
      <trkpt lat="41.705987" lon="1.133335">
        <ele>343.897</ele>
        <time>2021-08-19T09:33:56Z</time>
      </trkpt>
      <trkpt lat="41.705945" lon="1.133278">
        <ele>343.223</ele>
        <time>2021-08-19T09:33:58Z</time>
      </trkpt>
      <trkpt lat="41.705903" lon="1.133226">
        <ele>342.625</ele>
        <time>2021-08-19T09:34:00Z</time>
      </trkpt>
      <trkpt lat="41.705867" lon="1.133177">
        <ele>342.208</ele>
        <time>2021-08-19T09:34:02Z</time>
      </trkpt>
      <trkpt lat="41.705832" lon="1.133131">
        <ele>341.737</ele>
        <time>2021-08-19T09:34:04Z</time>
      </trkpt>
      <trkpt lat="41.705793" lon="1.133092">
        <ele>341.630</ele>
        <time>2021-08-19T09:34:06Z</time>
      </trkpt>
      <trkpt lat="41.705757" lon="1.133051">
        <ele>341.583</ele>
        <time>2021-08-19T09:34:08Z</time>
      </trkpt>
      <trkpt lat="41.705710" lon="1.133005">
        <ele>341.474</ele>
        <time>2021-08-19T09:34:10Z</time>
      </trkpt>
      <trkpt lat="41.705667" lon="1.132940">
        <ele>341.491</ele>
        <time>2021-08-19T09:34:12Z</time>
      </trkpt>
      <trkpt lat="41.705625" lon="1.132865">
        <ele>341.419</ele>
        <time>2021-08-19T09:34:14Z</time>
      </trkpt>
      <trkpt lat="41.705590" lon="1.132782">
        <ele>341.458</ele>
        <time>2021-08-19T09:34:16Z</time>
      </trkpt>
      <trkpt lat="41.705543" lon="1.132700">
        <ele>341.437</ele>
        <time>2021-08-19T09:34:18Z</time>
      </trkpt>
      <trkpt lat="41.705490" lon="1.132628">
        <ele>341.476</ele>
        <time>2021-08-19T09:34:20Z</time>
      </trkpt>
      <trkpt lat="41.705438" lon="1.132566">
        <ele>341.390</ele>
        <time>2021-08-19T09:34:22Z</time>
      </trkpt>
      <trkpt lat="41.705396" lon="1.132528">
        <ele>341.119</ele>
        <time>2021-08-19T09:34:24Z</time>
      </trkpt>
      <trkpt lat="41.705346" lon="1.132465">
        <ele>341.008</ele>
        <time>2021-08-19T09:34:26Z</time>
      </trkpt>
      <trkpt lat="41.705310" lon="1.132415">
        <ele>340.955</ele>
        <time>2021-08-19T09:34:28Z</time>
      </trkpt>
      <trkpt lat="41.705291" lon="1.132354">
        <ele>341.228</ele>
        <time>2021-08-19T09:34:30Z</time>
      </trkpt>
      <trkpt lat="41.705267" lon="1.132290">
        <ele>341.411</ele>
        <time>2021-08-19T09:34:32Z</time>
      </trkpt>
      <trkpt lat="41.705230" lon="1.132223">
        <ele>341.682</ele>
        <time>2021-08-19T09:34:34Z</time>
      </trkpt>
      <trkpt lat="41.705197" lon="1.132139">
        <ele>341.899</ele>
        <time>2021-08-19T09:34:36Z</time>
      </trkpt>
      <trkpt lat="41.705158" lon="1.132072">
        <ele>341.947</ele>
        <time>2021-08-19T09:34:38Z</time>
      </trkpt>
      <trkpt lat="41.705132" lon="1.132018">
        <ele>342.146</ele>
        <time>2021-08-19T09:34:40Z</time>
      </trkpt>
      <trkpt lat="41.705102" lon="1.131965">
        <ele>342.275</ele>
        <time>2021-08-19T09:34:43Z</time>
      </trkpt>
      <trkpt lat="41.705071" lon="1.131904">
        <ele>342.661</ele>
        <time>2021-08-19T09:34:46Z</time>
      </trkpt>
      <trkpt lat="41.705038" lon="1.131836">
        <ele>343.021</ele>
        <time>2021-08-19T09:34:49Z</time>
      </trkpt>
      <trkpt lat="41.704994" lon="1.131772">
        <ele>343.213</ele>
        <time>2021-08-19T09:34:52Z</time>
      </trkpt>
      <trkpt lat="41.704972" lon="1.131717">
        <ele>343.408</ele>
        <time>2021-08-19T09:34:54Z</time>
      </trkpt>
      <trkpt lat="41.704938" lon="1.131662">
        <ele>343.484</ele>
        <time>2021-08-19T09:34:56Z</time>
      </trkpt>
      <trkpt lat="41.704904" lon="1.131601">
        <ele>343.747</ele>
        <time>2021-08-19T09:34:58Z</time>
      </trkpt>
      <trkpt lat="41.704868" lon="1.131542">
        <ele>343.910</ele>
        <time>2021-08-19T09:35:00Z</time>
      </trkpt>
      <trkpt lat="41.704825" lon="1.131489">
        <ele>344.061</ele>
        <time>2021-08-19T09:35:02Z</time>
      </trkpt>
      <trkpt lat="41.704783" lon="1.131437">
        <ele>344.128</ele>
        <time>2021-08-19T09:35:04Z</time>
      </trkpt>
      <trkpt lat="41.704742" lon="1.131390">
        <ele>344.286</ele>
        <time>2021-08-19T09:35:06Z</time>
      </trkpt>
      <trkpt lat="41.704695" lon="1.131350">
        <ele>344.415</ele>
        <time>2021-08-19T09:35:08Z</time>
      </trkpt>
      <trkpt lat="41.704656" lon="1.131308">
        <ele>344.634</ele>
        <time>2021-08-19T09:35:10Z</time>
      </trkpt>
      <trkpt lat="41.704617" lon="1.131273">
        <ele>344.667</ele>
        <time>2021-08-19T09:35:12Z</time>
      </trkpt>
      <trkpt lat="41.704581" lon="1.131234">
        <ele>344.781</ele>
        <time>2021-08-19T09:35:14Z</time>
      </trkpt>
      <trkpt lat="41.704538" lon="1.131205">
        <ele>344.419</ele>
        <time>2021-08-19T09:35:16Z</time>
      </trkpt>
      <trkpt lat="41.704500" lon="1.131160">
        <ele>344.408</ele>
        <time>2021-08-19T09:35:18Z</time>
      </trkpt>
      <trkpt lat="41.704447" lon="1.131134">
        <ele>343.854</ele>
        <time>2021-08-19T09:35:20Z</time>
      </trkpt>
      <trkpt lat="41.704394" lon="1.131094">
        <ele>344.147</ele>
        <time>2021-08-19T09:35:22Z</time>
      </trkpt>
      <trkpt lat="41.704340" lon="1.131066">
        <ele>344.390</ele>
        <time>2021-08-19T09:35:25Z</time>
      </trkpt>
      <trkpt lat="41.704287" lon="1.131037">
        <ele>344.521</ele>
        <time>2021-08-19T09:35:27Z</time>
      </trkpt>
      <trkpt lat="41.704244" lon="1.131019">
        <ele>344.648</ele>
        <time>2021-08-19T09:35:29Z</time>
      </trkpt>
      <trkpt lat="41.704191" lon="1.130997">
        <ele>344.786</ele>
        <time>2021-08-19T09:35:31Z</time>
      </trkpt>
      <trkpt lat="41.704131" lon="1.130963">
        <ele>345.315</ele>
        <time>2021-08-19T09:35:33Z</time>
      </trkpt>
      <trkpt lat="41.704076" lon="1.130943">
        <ele>345.894</ele>
        <time>2021-08-19T09:35:35Z</time>
      </trkpt>
      <trkpt lat="41.704026" lon="1.130920">
        <ele>346.458</ele>
        <time>2021-08-19T09:35:37Z</time>
      </trkpt>
      <trkpt lat="41.703981" lon="1.130895">
        <ele>347.252</ele>
        <time>2021-08-19T09:35:39Z</time>
      </trkpt>
      <trkpt lat="41.703931" lon="1.130878">
        <ele>347.817</ele>
        <time>2021-08-19T09:35:41Z</time>
      </trkpt>
      <trkpt lat="41.703887" lon="1.130850">
        <ele>348.608</ele>
        <time>2021-08-19T09:35:43Z</time>
      </trkpt>
      <trkpt lat="41.703842" lon="1.130829">
        <ele>348.263</ele>
        <time>2021-08-19T09:35:45Z</time>
      </trkpt>
      <trkpt lat="41.703798" lon="1.130808">
        <ele>347.926</ele>
        <time>2021-08-19T09:35:47Z</time>
      </trkpt>
      <trkpt lat="41.703735" lon="1.130770">
        <ele>347.579</ele>
        <time>2021-08-19T09:35:50Z</time>
      </trkpt>
      <trkpt lat="41.703694" lon="1.130739">
        <ele>347.310</ele>
        <time>2021-08-19T09:35:52Z</time>
      </trkpt>
      <trkpt lat="41.703639" lon="1.130711">
        <ele>346.797</ele>
        <time>2021-08-19T09:35:55Z</time>
      </trkpt>
      <trkpt lat="41.703590" lon="1.130680">
        <ele>346.495</ele>
        <time>2021-08-19T09:35:57Z</time>
      </trkpt>
      <trkpt lat="41.703546" lon="1.130660">
        <ele>346.014</ele>
        <time>2021-08-19T09:35:59Z</time>
      </trkpt>
      <trkpt lat="41.703499" lon="1.130620">
        <ele>345.973</ele>
        <time>2021-08-19T09:36:02Z</time>
      </trkpt>
      <trkpt lat="41.703454" lon="1.130575">
        <ele>345.981</ele>
        <time>2021-08-19T09:36:05Z</time>
      </trkpt>
      <trkpt lat="41.703400" lon="1.130515">
        <ele>345.761</ele>
        <time>2021-08-19T09:36:08Z</time>
      </trkpt>
      <trkpt lat="41.703360" lon="1.130465">
        <ele>345.517</ele>
        <time>2021-08-19T09:36:10Z</time>
      </trkpt>
      <trkpt lat="41.703322" lon="1.130411">
        <ele>345.408</ele>
        <time>2021-08-19T09:36:12Z</time>
      </trkpt>
      <trkpt lat="41.703288" lon="1.130342">
        <ele>345.566</ele>
        <time>2021-08-19T09:36:14Z</time>
      </trkpt>
      <trkpt lat="41.703258" lon="1.130270">
        <ele>345.819</ele>
        <time>2021-08-19T09:36:16Z</time>
      </trkpt>
      <trkpt lat="41.703223" lon="1.130194">
        <ele>346.332</ele>
        <time>2021-08-19T09:36:18Z</time>
      </trkpt>
      <trkpt lat="41.703187" lon="1.130125">
        <ele>346.533</ele>
        <time>2021-08-19T09:36:20Z</time>
      </trkpt>
      <trkpt lat="41.703149" lon="1.130054">
        <ele>346.690</ele>
        <time>2021-08-19T09:36:22Z</time>
      </trkpt>
      <trkpt lat="41.703126" lon="1.129997">
        <ele>346.868</ele>
        <time>2021-08-19T09:36:24Z</time>
      </trkpt>
      <trkpt lat="41.703083" lon="1.129912">
        <ele>346.777</ele>
        <time>2021-08-19T09:36:26Z</time>
      </trkpt>
      <trkpt lat="41.703047" lon="1.129843">
        <ele>346.596</ele>
        <time>2021-08-19T09:36:28Z</time>
      </trkpt>
      <trkpt lat="41.702997" lon="1.129793">
        <ele>345.557</ele>
        <time>2021-08-19T09:36:30Z</time>
      </trkpt>
      <trkpt lat="41.702953" lon="1.129752">
        <ele>344.500</ele>
        <time>2021-08-19T09:36:32Z</time>
      </trkpt>
      <trkpt lat="41.702903" lon="1.129707">
        <ele>343.220</ele>
        <time>2021-08-19T09:36:35Z</time>
      </trkpt>
      <trkpt lat="41.702845" lon="1.129676">
        <ele>341.508</ele>
        <time>2021-08-19T09:36:38Z</time>
      </trkpt>
      <trkpt lat="41.702786" lon="1.129633">
        <ele>339.623</ele>
        <time>2021-08-19T09:36:41Z</time>
      </trkpt>
      <trkpt lat="41.702747" lon="1.129556">
        <ele>339.196</ele>
        <time>2021-08-19T09:36:43Z</time>
      </trkpt>
      <trkpt lat="41.702727" lon="1.129454">
        <ele>339.139</ele>
        <time>2021-08-19T09:36:45Z</time>
      </trkpt>
      <trkpt lat="41.702716" lon="1.129345">
        <ele>339.430</ele>
        <time>2021-08-19T09:36:47Z</time>
      </trkpt>
      <trkpt lat="41.702710" lon="1.129239">
        <ele>339.997</ele>
        <time>2021-08-19T09:36:49Z</time>
      </trkpt>
      <trkpt lat="41.702697" lon="1.129131">
        <ele>340.255</ele>
        <time>2021-08-19T09:36:51Z</time>
      </trkpt>
      <trkpt lat="41.702675" lon="1.129022">
        <ele>340.394</ele>
        <time>2021-08-19T09:36:53Z</time>
      </trkpt>
      <trkpt lat="41.702665" lon="1.128961">
        <ele>340.333</ele>
        <time>2021-08-19T09:36:54Z</time>
      </trkpt>
      <trkpt lat="41.702649" lon="1.128862">
        <ele>340.513</ele>
        <time>2021-08-19T09:36:56Z</time>
      </trkpt>
      <trkpt lat="41.702637" lon="1.128799">
        <ele>340.643</ele>
        <time>2021-08-19T09:36:57Z</time>
      </trkpt>
      <trkpt lat="41.702617" lon="1.128694">
        <ele>340.807</ele>
        <time>2021-08-19T09:36:59Z</time>
      </trkpt>
      <trkpt lat="41.702595" lon="1.128590">
        <ele>340.908</ele>
        <time>2021-08-19T09:37:01Z</time>
      </trkpt>
      <trkpt lat="41.702560" lon="1.128480">
        <ele>340.779</ele>
        <time>2021-08-19T09:37:03Z</time>
      </trkpt>
      <trkpt lat="41.702539" lon="1.128426">
        <ele>340.512</ele>
        <time>2021-08-19T09:37:04Z</time>
      </trkpt>
      <trkpt lat="41.702499" lon="1.128334">
        <ele>340.065</ele>
        <time>2021-08-19T09:37:06Z</time>
      </trkpt>
      <trkpt lat="41.702466" lon="1.128255">
        <ele>340.346</ele>
        <time>2021-08-19T09:37:08Z</time>
      </trkpt>
      <trkpt lat="41.702435" lon="1.128204">
        <ele>340.243</ele>
        <time>2021-08-19T09:37:09Z</time>
      </trkpt>
      <trkpt lat="41.702388" lon="1.128125">
        <ele>340.091</ele>
        <time>2021-08-19T09:37:11Z</time>
      </trkpt>
      <trkpt lat="41.702349" lon="1.128042">
        <ele>339.890</ele>
        <time>2021-08-19T09:37:13Z</time>
      </trkpt>
      <trkpt lat="41.702307" lon="1.127963">
        <ele>338.959</ele>
        <time>2021-08-19T09:37:15Z</time>
      </trkpt>
      <trkpt lat="41.702273" lon="1.127881">
        <ele>338.217</ele>
        <time>2021-08-19T09:37:17Z</time>
      </trkpt>
      <trkpt lat="41.702243" lon="1.127806">
        <ele>337.587</ele>
        <time>2021-08-19T09:37:18Z</time>
      </trkpt>
      <trkpt lat="41.702218" lon="1.127721">
        <ele>337.015</ele>
        <time>2021-08-19T09:37:20Z</time>
      </trkpt>
      <trkpt lat="41.702197" lon="1.127646">
        <ele>336.708</ele>
        <time>2021-08-19T09:37:21Z</time>
      </trkpt>
      <trkpt lat="41.702183" lon="1.127584">
        <ele>336.689</ele>
        <time>2021-08-19T09:37:22Z</time>
      </trkpt>
      <trkpt lat="41.702158" lon="1.127503">
        <ele>336.342</ele>
        <time>2021-08-19T09:37:24Z</time>
      </trkpt>
      <trkpt lat="41.702139" lon="1.127433">
        <ele>336.355</ele>
        <time>2021-08-19T09:37:25Z</time>
      </trkpt>
      <trkpt lat="41.702117" lon="1.127354">
        <ele>336.216</ele>
        <time>2021-08-19T09:37:27Z</time>
      </trkpt>
      <trkpt lat="41.702091" lon="1.127275">
        <ele>336.033</ele>
        <time>2021-08-19T09:37:29Z</time>
      </trkpt>
      <trkpt lat="41.702084" lon="1.127202">
        <ele>336.141</ele>
        <time>2021-08-19T09:37:31Z</time>
      </trkpt>
      <trkpt lat="41.702075" lon="1.127126">
        <ele>336.450</ele>
        <time>2021-08-19T09:37:33Z</time>
      </trkpt>
      <trkpt lat="41.702071" lon="1.127051">
        <ele>336.739</ele>
        <time>2021-08-19T09:37:35Z</time>
      </trkpt>
      <trkpt lat="41.702077" lon="1.126983">
        <ele>337.221</ele>
        <time>2021-08-19T09:37:37Z</time>
      </trkpt>
      <trkpt lat="41.702094" lon="1.126899">
        <ele>338.041</ele>
        <time>2021-08-19T09:37:40Z</time>
      </trkpt>
      <trkpt lat="41.702104" lon="1.126823">
        <ele>338.605</ele>
        <time>2021-08-19T09:37:43Z</time>
      </trkpt>
      <trkpt lat="41.702109" lon="1.126743">
        <ele>339.308</ele>
        <time>2021-08-19T09:37:46Z</time>
      </trkpt>
      <trkpt lat="41.702111" lon="1.126674">
        <ele>339.710</ele>
        <time>2021-08-19T09:37:49Z</time>
      </trkpt>
      <trkpt lat="41.702114" lon="1.126600">
        <ele>339.993</ele>
        <time>2021-08-19T09:37:52Z</time>
      </trkpt>
      <trkpt lat="41.702118" lon="1.126535">
        <ele>340.026</ele>
        <time>2021-08-19T09:37:55Z</time>
      </trkpt>
      <trkpt lat="41.702102" lon="1.126472">
        <ele>339.597</ele>
        <time>2021-08-19T09:37:57Z</time>
      </trkpt>
      <trkpt lat="41.702069" lon="1.126398">
        <ele>338.634</ele>
        <time>2021-08-19T09:38:00Z</time>
      </trkpt>
      <trkpt lat="41.702046" lon="1.126323">
        <ele>337.882</ele>
        <time>2021-08-19T09:38:02Z</time>
      </trkpt>
      <trkpt lat="41.702050" lon="1.126237">
        <ele>337.841</ele>
        <time>2021-08-19T09:38:04Z</time>
      </trkpt>
      <trkpt lat="41.702057" lon="1.126160">
        <ele>337.940</ele>
        <time>2021-08-19T09:38:06Z</time>
      </trkpt>
      <trkpt lat="41.702071" lon="1.126069">
        <ele>338.143</ele>
        <time>2021-08-19T09:38:08Z</time>
      </trkpt>
      <trkpt lat="41.702087" lon="1.126002">
        <ele>338.264</ele>
        <time>2021-08-19T09:38:10Z</time>
      </trkpt>
      <trkpt lat="41.702113" lon="1.125926">
        <ele>338.410</ele>
        <time>2021-08-19T09:38:12Z</time>
      </trkpt>
      <trkpt lat="41.702143" lon="1.125848">
        <ele>338.608</ele>
        <time>2021-08-19T09:38:14Z</time>
      </trkpt>
      <trkpt lat="41.702161" lon="1.125780">
        <ele>338.722</ele>
        <time>2021-08-19T09:38:16Z</time>
      </trkpt>
      <trkpt lat="41.702181" lon="1.125723">
        <ele>338.985</ele>
        <time>2021-08-19T09:38:18Z</time>
      </trkpt>
      <trkpt lat="41.702203" lon="1.125660">
        <ele>339.158</ele>
        <time>2021-08-19T09:38:21Z</time>
      </trkpt>
      <trkpt lat="41.702200" lon="1.125589">
        <ele>338.849</ele>
        <time>2021-08-19T09:38:33Z</time>
      </trkpt>
      <trkpt lat="41.702219" lon="1.125494">
        <ele>338.596</ele>
        <time>2021-08-19T09:38:35Z</time>
      </trkpt>
      <trkpt lat="41.702244" lon="1.125411">
        <ele>338.214</ele>
        <time>2021-08-19T09:38:37Z</time>
      </trkpt>
      <trkpt lat="41.702270" lon="1.125344">
        <ele>338.163</ele>
        <time>2021-08-19T09:38:39Z</time>
      </trkpt>
      <trkpt lat="41.702284" lon="1.125281">
        <ele>337.992</ele>
        <time>2021-08-19T09:38:41Z</time>
      </trkpt>
      <trkpt lat="41.702298" lon="1.125219">
        <ele>337.717</ele>
        <time>2021-08-19T09:38:43Z</time>
      </trkpt>
      <trkpt lat="41.702303" lon="1.125159">
        <ele>337.387</ele>
        <time>2021-08-19T09:38:45Z</time>
      </trkpt>
      <trkpt lat="41.702302" lon="1.125095">
        <ele>336.815</ele>
        <time>2021-08-19T09:38:47Z</time>
      </trkpt>
      <trkpt lat="41.702320" lon="1.125013">
        <ele>336.508</ele>
        <time>2021-08-19T09:38:50Z</time>
      </trkpt>
      <trkpt lat="41.702347" lon="1.124952">
        <ele>336.659</ele>
        <time>2021-08-19T09:38:52Z</time>
      </trkpt>
      <trkpt lat="41.702376" lon="1.124889">
        <ele>336.832</ele>
        <time>2021-08-19T09:38:54Z</time>
      </trkpt>
      <trkpt lat="41.702396" lon="1.124833">
        <ele>336.855</ele>
        <time>2021-08-19T09:38:56Z</time>
      </trkpt>
      <trkpt lat="41.702417" lon="1.124767">
        <ele>336.616</ele>
        <time>2021-08-19T09:38:59Z</time>
      </trkpt>
      <trkpt lat="41.702390" lon="1.124714">
        <ele>336.283</ele>
        <time>2021-08-19T09:39:13Z</time>
      </trkpt>
      <trkpt lat="41.702436" lon="1.124682">
        <ele>336.771</ele>
        <time>2021-08-19T09:40:29Z</time>
      </trkpt>
      <trkpt lat="41.702460" lon="1.124606">
        <ele>337.160</ele>
        <time>2021-08-19T09:40:32Z</time>
      </trkpt>
      <trkpt lat="41.702461" lon="1.124543">
        <ele>337.459</ele>
        <time>2021-08-19T09:40:34Z</time>
      </trkpt>
      <trkpt lat="41.702447" lon="1.124467">
        <ele>337.574</ele>
        <time>2021-08-19T09:40:36Z</time>
      </trkpt>
      <trkpt lat="41.702435" lon="1.124391">
        <ele>337.456</ele>
        <time>2021-08-19T09:40:38Z</time>
      </trkpt>
      <trkpt lat="41.702411" lon="1.124314">
        <ele>337.221</ele>
        <time>2021-08-19T09:40:40Z</time>
      </trkpt>
      <trkpt lat="41.702380" lon="1.124243">
        <ele>337.008</ele>
        <time>2021-08-19T09:40:42Z</time>
      </trkpt>
      <trkpt lat="41.702355" lon="1.124183">
        <ele>337.035</ele>
        <time>2021-08-19T09:40:44Z</time>
      </trkpt>
      <trkpt lat="41.702344" lon="1.124114">
        <ele>336.598</ele>
        <time>2021-08-19T09:40:46Z</time>
      </trkpt>
      <trkpt lat="41.702336" lon="1.124054">
        <ele>336.061</ele>
        <time>2021-08-19T09:40:48Z</time>
      </trkpt>
      <trkpt lat="41.702348" lon="1.123988">
        <ele>335.482</ele>
        <time>2021-08-19T09:41:01Z</time>
      </trkpt>
      <trkpt lat="41.702377" lon="1.123933">
        <ele>334.859</ele>
        <time>2021-08-19T09:41:04Z</time>
      </trkpt>
      <trkpt lat="41.702424" lon="1.123932">
        <ele>334.777</ele>
        <time>2021-08-19T09:41:06Z</time>
      </trkpt>
      <trkpt lat="41.702481" lon="1.123907">
        <ele>334.376</ele>
        <time>2021-08-19T09:41:09Z</time>
      </trkpt>
      <trkpt lat="41.702528" lon="1.123873">
        <ele>333.965</ele>
        <time>2021-08-19T09:41:12Z</time>
      </trkpt>
      <trkpt lat="41.702559" lon="1.123821">
        <ele>333.854</ele>
        <time>2021-08-19T09:41:15Z</time>
      </trkpt>
      <trkpt lat="41.702573" lon="1.123745">
        <ele>333.556</ele>
        <time>2021-08-19T09:41:18Z</time>
      </trkpt>
      <trkpt lat="41.702590" lon="1.123674">
        <ele>333.211</ele>
        <time>2021-08-19T09:41:21Z</time>
      </trkpt>
      <trkpt lat="41.702603" lon="1.123607">
        <ele>333.008</ele>
        <time>2021-08-19T09:41:23Z</time>
      </trkpt>
      <trkpt lat="41.702612" lon="1.123532">
        <ele>333.563</ele>
        <time>2021-08-19T09:41:25Z</time>
      </trkpt>
      <trkpt lat="41.702625" lon="1.123461">
        <ele>334.036</ele>
        <time>2021-08-19T09:41:27Z</time>
      </trkpt>
      <trkpt lat="41.702633" lon="1.123380">
        <ele>334.639</ele>
        <time>2021-08-19T09:41:30Z</time>
      </trkpt>
      <trkpt lat="41.702635" lon="1.123312">
        <ele>335.130</ele>
        <time>2021-08-19T09:41:33Z</time>
      </trkpt>
      <trkpt lat="41.702650" lon="1.123255">
        <ele>335.637</ele>
        <time>2021-08-19T09:41:35Z</time>
      </trkpt>
      <trkpt lat="41.702669" lon="1.123185">
        <ele>336.345</ele>
        <time>2021-08-19T09:41:38Z</time>
      </trkpt>
      <trkpt lat="41.702677" lon="1.123119">
        <ele>336.854</ele>
        <time>2021-08-19T09:41:41Z</time>
      </trkpt>
      <trkpt lat="41.702696" lon="1.123061">
        <ele>337.463</ele>
        <time>2021-08-19T09:41:44Z</time>
      </trkpt>
      <trkpt lat="41.702714" lon="1.122996">
        <ele>337.665</ele>
        <time>2021-08-19T09:41:49Z</time>
      </trkpt>
      <trkpt lat="41.702743" lon="1.122948">
        <ele>337.868</ele>
        <time>2021-08-19T09:41:52Z</time>
      </trkpt>
      <trkpt lat="41.702760" lon="1.122885">
        <ele>337.914</ele>
        <time>2021-08-19T09:41:55Z</time>
      </trkpt>
      <trkpt lat="41.702793" lon="1.122828">
        <ele>338.208</ele>
        <time>2021-08-19T09:41:59Z</time>
      </trkpt>
      <trkpt lat="41.702820" lon="1.122774">
        <ele>338.574</ele>
        <time>2021-08-19T09:42:02Z</time>
      </trkpt>
      <trkpt lat="41.702843" lon="1.122721">
        <ele>338.757</ele>
        <time>2021-08-19T09:42:05Z</time>
      </trkpt>
      <trkpt lat="41.702867" lon="1.122666">
        <ele>338.840</ele>
        <time>2021-08-19T09:42:08Z</time>
      </trkpt>
      <trkpt lat="41.702893" lon="1.122613">
        <ele>339.021</ele>
        <time>2021-08-19T09:42:11Z</time>
      </trkpt>
      <trkpt lat="41.702916" lon="1.122554">
        <ele>339.138</ele>
        <time>2021-08-19T09:42:14Z</time>
      </trkpt>
      <trkpt lat="41.702933" lon="1.122497">
        <ele>339.176</ele>
        <time>2021-08-19T09:42:17Z</time>
      </trkpt>
      <trkpt lat="41.702959" lon="1.122446">
        <ele>339.675</ele>
        <time>2021-08-19T09:42:20Z</time>
      </trkpt>
      <trkpt lat="41.702992" lon="1.122383">
        <ele>340.134</ele>
        <time>2021-08-19T09:42:24Z</time>
      </trkpt>
      <trkpt lat="41.703021" lon="1.122314">
        <ele>340.551</ele>
        <time>2021-08-19T09:42:28Z</time>
      </trkpt>
      <trkpt lat="41.703045" lon="1.122259">
        <ele>340.801</ele>
        <time>2021-08-19T09:42:31Z</time>
      </trkpt>
      <trkpt lat="41.703068" lon="1.122190">
        <ele>341.411</ele>
        <time>2021-08-19T09:42:35Z</time>
      </trkpt>
      <trkpt lat="41.703079" lon="1.122129">
        <ele>342.108</ele>
        <time>2021-08-19T09:42:38Z</time>
      </trkpt>
      <trkpt lat="41.703101" lon="1.122060">
        <ele>343.063</ele>
        <time>2021-08-19T09:42:42Z</time>
      </trkpt>
      <trkpt lat="41.703130" lon="1.122006">
        <ele>343.756</ele>
        <time>2021-08-19T09:42:46Z</time>
      </trkpt>
      <trkpt lat="41.703141" lon="1.121941">
        <ele>344.319</ele>
        <time>2021-08-19T09:42:50Z</time>
      </trkpt>
      <trkpt lat="41.703153" lon="1.121881">
        <ele>344.930</ele>
        <time>2021-08-19T09:42:54Z</time>
      </trkpt>
      <trkpt lat="41.703165" lon="1.121809">
        <ele>345.537</ele>
        <time>2021-08-19T09:42:57Z</time>
      </trkpt>
      <trkpt lat="41.703189" lon="1.121745">
        <ele>345.925</ele>
        <time>2021-08-19T09:43:00Z</time>
      </trkpt>
      <trkpt lat="41.703193" lon="1.121674">
        <ele>346.544</ele>
        <time>2021-08-19T09:43:03Z</time>
      </trkpt>
      <trkpt lat="41.703212" lon="1.121611">
        <ele>346.633</ele>
        <time>2021-08-19T09:43:06Z</time>
      </trkpt>
      <trkpt lat="41.703222" lon="1.121548">
        <ele>346.868</ele>
        <time>2021-08-19T09:43:09Z</time>
      </trkpt>
      <trkpt lat="41.703244" lon="1.121488">
        <ele>347.042</ele>
        <time>2021-08-19T09:43:12Z</time>
      </trkpt>
      <trkpt lat="41.703251" lon="1.121426">
        <ele>347.226</ele>
        <time>2021-08-19T09:43:15Z</time>
      </trkpt>
      <trkpt lat="41.703258" lon="1.121358">
        <ele>347.408</ele>
        <time>2021-08-19T09:43:18Z</time>
      </trkpt>
      <trkpt lat="41.703273" lon="1.121300">
        <ele>347.544</ele>
        <time>2021-08-19T09:43:21Z</time>
      </trkpt>
      <trkpt lat="41.703294" lon="1.121233">
        <ele>347.767</ele>
        <time>2021-08-19T09:43:25Z</time>
      </trkpt>
      <trkpt lat="41.703292" lon="1.121173">
        <ele>347.930</ele>
        <time>2021-08-19T09:43:28Z</time>
      </trkpt>
      <trkpt lat="41.703309" lon="1.121103">
        <ele>348.291</ele>
        <time>2021-08-19T09:43:32Z</time>
      </trkpt>
      <trkpt lat="41.703311" lon="1.121043">
        <ele>348.818</ele>
        <time>2021-08-19T09:43:35Z</time>
      </trkpt>
      <trkpt lat="41.703307" lon="1.120965">
        <ele>349.696</ele>
        <time>2021-08-19T09:43:39Z</time>
      </trkpt>
      <trkpt lat="41.703313" lon="1.120897">
        <ele>350.375</ele>
        <time>2021-08-19T09:43:43Z</time>
      </trkpt>
      <trkpt lat="41.703304" lon="1.120821">
        <ele>351.034</ele>
        <time>2021-08-19T09:43:47Z</time>
      </trkpt>
      <trkpt lat="41.703294" lon="1.120750">
        <ele>351.734</ele>
        <time>2021-08-19T09:43:51Z</time>
      </trkpt>
      <trkpt lat="41.703266" lon="1.120682">
        <ele>352.155</ele>
        <time>2021-08-19T09:43:55Z</time>
      </trkpt>
      <trkpt lat="41.703258" lon="1.120621">
        <ele>352.610</ele>
        <time>2021-08-19T09:43:58Z</time>
      </trkpt>
      <trkpt lat="41.703259" lon="1.120550">
        <ele>353.208</ele>
        <time>2021-08-19T09:44:02Z</time>
      </trkpt>
      <trkpt lat="41.703263" lon="1.120480">
        <ele>353.611</ele>
        <time>2021-08-19T09:44:06Z</time>
      </trkpt>
      <trkpt lat="41.703267" lon="1.120411">
        <ele>354.164</ele>
        <time>2021-08-19T09:44:11Z</time>
      </trkpt>
      <trkpt lat="41.703288" lon="1.120343">
        <ele>354.537</ele>
        <time>2021-08-19T09:44:16Z</time>
      </trkpt>
      <trkpt lat="41.703296" lon="1.120276">
        <ele>354.978</ele>
        <time>2021-08-19T09:44:20Z</time>
      </trkpt>
      <trkpt lat="41.703316" lon="1.120210">
        <ele>355.025</ele>
        <time>2021-08-19T09:44:24Z</time>
      </trkpt>
      <trkpt lat="41.703339" lon="1.120145">
        <ele>355.023</ele>
        <time>2021-08-19T09:44:28Z</time>
      </trkpt>
      <trkpt lat="41.703354" lon="1.120087">
        <ele>355.192</ele>
        <time>2021-08-19T09:44:31Z</time>
      </trkpt>
      <trkpt lat="41.703373" lon="1.120019">
        <ele>355.161</ele>
        <time>2021-08-19T09:44:35Z</time>
      </trkpt>
      <trkpt lat="41.703386" lon="1.119947">
        <ele>355.286</ele>
        <time>2021-08-19T09:44:39Z</time>
      </trkpt>
      <trkpt lat="41.703401" lon="1.119889">
        <ele>355.160</ele>
        <time>2021-08-19T09:44:42Z</time>
      </trkpt>
      <trkpt lat="41.703411" lon="1.119821">
        <ele>355.126</ele>
        <time>2021-08-19T09:44:46Z</time>
      </trkpt>
      <trkpt lat="41.703432" lon="1.119763">
        <ele>355.108</ele>
        <time>2021-08-19T09:44:50Z</time>
      </trkpt>
      <trkpt lat="41.703446" lon="1.119704">
        <ele>354.976</ele>
        <time>2021-08-19T09:44:55Z</time>
      </trkpt>
      <trkpt lat="41.703410" lon="1.119654">
        <ele>354.749</ele>
        <time>2021-08-19T09:45:40Z</time>
      </trkpt>
      <trkpt lat="41.703371" lon="1.119609">
        <ele>354.572</ele>
        <time>2021-08-19T09:50:40Z</time>
      </trkpt>
      <trkpt lat="41.703335" lon="1.119571">
        <ele>354.583</ele>
        <time>2021-08-19T09:50:43Z</time>
      </trkpt>
      <trkpt lat="41.703289" lon="1.119530">
        <ele>354.690</ele>
        <time>2021-08-19T09:50:47Z</time>
      </trkpt>
      <trkpt lat="41.703244" lon="1.119493">
        <ele>354.848</ele>
        <time>2021-08-19T09:50:51Z</time>
      </trkpt>
      <trkpt lat="41.703204" lon="1.119459">
        <ele>355.037</ele>
        <time>2021-08-19T09:50:54Z</time>
      </trkpt>
      <trkpt lat="41.703158" lon="1.119426">
        <ele>355.256</ele>
        <time>2021-08-19T09:50:57Z</time>
      </trkpt>
      <trkpt lat="41.703109" lon="1.119406">
        <ele>355.663</ele>
        <time>2021-08-19T09:51:00Z</time>
      </trkpt>
      <trkpt lat="41.703056" lon="1.119378">
        <ele>356.044</ele>
        <time>2021-08-19T09:51:03Z</time>
      </trkpt>
      <trkpt lat="41.703007" lon="1.119329">
        <ele>356.218</ele>
        <time>2021-08-19T09:51:06Z</time>
      </trkpt>
      <trkpt lat="41.702951" lon="1.119310">
        <ele>356.408</ele>
        <time>2021-08-19T09:51:09Z</time>
      </trkpt>
      <trkpt lat="41.702905" lon="1.119266">
        <ele>356.594</ele>
        <time>2021-08-19T09:51:12Z</time>
      </trkpt>
      <trkpt lat="41.702853" lon="1.119238">
        <ele>356.757</ele>
        <time>2021-08-19T09:51:15Z</time>
      </trkpt>
      <trkpt lat="41.702788" lon="1.119220">
        <ele>357.080</ele>
        <time>2021-08-19T09:51:18Z</time>
      </trkpt>
      <trkpt lat="41.702728" lon="1.119197">
        <ele>356.651</ele>
        <time>2021-08-19T09:51:21Z</time>
      </trkpt>
      <trkpt lat="41.702682" lon="1.119171">
        <ele>356.378</ele>
        <time>2021-08-19T09:51:23Z</time>
      </trkpt>
      <trkpt lat="41.702624" lon="1.119147">
        <ele>355.996</ele>
        <time>2021-08-19T09:51:26Z</time>
      </trkpt>
      <trkpt lat="41.702578" lon="1.119133">
        <ele>355.685</ele>
        <time>2021-08-19T09:51:29Z</time>
      </trkpt>
      <trkpt lat="41.702533" lon="1.119082">
        <ele>355.384</ele>
        <time>2021-08-19T09:51:32Z</time>
      </trkpt>
      <trkpt lat="41.702494" lon="1.119013">
        <ele>355.054</ele>
        <time>2021-08-19T09:51:35Z</time>
      </trkpt>
      <trkpt lat="41.702499" lon="1.118949">
        <ele>355.056</ele>
        <time>2021-08-19T09:51:37Z</time>
      </trkpt>
      <trkpt lat="41.702505" lon="1.118878">
        <ele>355.111</ele>
        <time>2021-08-19T09:51:40Z</time>
      </trkpt>
      <trkpt lat="41.702515" lon="1.118809">
        <ele>355.108</ele>
        <time>2021-08-19T09:51:42Z</time>
      </trkpt>
      <trkpt lat="41.702531" lon="1.118740">
        <ele>355.333</ele>
        <time>2021-08-19T09:51:45Z</time>
      </trkpt>
      <trkpt lat="41.702544" lon="1.118662">
        <ele>355.346</ele>
        <time>2021-08-19T09:51:48Z</time>
      </trkpt>
      <trkpt lat="41.702563" lon="1.118599">
        <ele>355.489</ele>
        <time>2021-08-19T09:51:51Z</time>
      </trkpt>
      <trkpt lat="41.702576" lon="1.118539">
        <ele>355.370</ele>
        <time>2021-08-19T09:51:53Z</time>
      </trkpt>
      <trkpt lat="41.702602" lon="1.118478">
        <ele>355.367</ele>
        <time>2021-08-19T09:51:56Z</time>
      </trkpt>
      <trkpt lat="41.702621" lon="1.118418">
        <ele>355.245</ele>
        <time>2021-08-19T09:51:58Z</time>
      </trkpt>
      <trkpt lat="41.702644" lon="1.118351">
        <ele>355.134</ele>
        <time>2021-08-19T09:52:01Z</time>
      </trkpt>
      <trkpt lat="41.702665" lon="1.118290">
        <ele>355.133</ele>
        <time>2021-08-19T09:52:03Z</time>
      </trkpt>
      <trkpt lat="41.702676" lon="1.118227">
        <ele>355.046</ele>
        <time>2021-08-19T09:52:05Z</time>
      </trkpt>
      <trkpt lat="41.702698" lon="1.118156">
        <ele>355.088</ele>
        <time>2021-08-19T09:52:08Z</time>
      </trkpt>
      <trkpt lat="41.702723" lon="1.118103">
        <ele>354.916</ele>
        <time>2021-08-19T09:52:10Z</time>
      </trkpt>
      <trkpt lat="41.702744" lon="1.118048">
        <ele>354.908</ele>
        <time>2021-08-19T09:52:12Z</time>
      </trkpt>
      <trkpt lat="41.702774" lon="1.117985">
        <ele>355.082</ele>
        <time>2021-08-19T09:52:15Z</time>
      </trkpt>
      <trkpt lat="41.702797" lon="1.117929">
        <ele>355.115</ele>
        <time>2021-08-19T09:52:18Z</time>
      </trkpt>
      <trkpt lat="41.702823" lon="1.117870">
        <ele>355.298</ele>
        <time>2021-08-19T09:52:21Z</time>
      </trkpt>
      <trkpt lat="41.702845" lon="1.117810">
        <ele>355.269</ele>
        <time>2021-08-19T09:52:24Z</time>
      </trkpt>
      <trkpt lat="41.702862" lon="1.117747">
        <ele>355.316</ele>
        <time>2021-08-19T09:52:27Z</time>
      </trkpt>
      <trkpt lat="41.702883" lon="1.117692">
        <ele>355.424</ele>
        <time>2021-08-19T09:52:30Z</time>
      </trkpt>
      <trkpt lat="41.702904" lon="1.117637">
        <ele>355.543</ele>
        <time>2021-08-19T09:52:33Z</time>
      </trkpt>
      <trkpt lat="41.702924" lon="1.117574">
        <ele>355.572</ele>
        <time>2021-08-19T09:52:36Z</time>
      </trkpt>
      <trkpt lat="41.702951" lon="1.117524">
        <ele>355.632</ele>
        <time>2021-08-19T09:52:40Z</time>
      </trkpt>
      <trkpt lat="41.702971" lon="1.117465">
        <ele>355.992</ele>
        <time>2021-08-19T09:52:44Z</time>
      </trkpt>
      <trkpt lat="41.702980" lon="1.117401">
        <ele>356.311</ele>
        <time>2021-08-19T09:52:48Z</time>
      </trkpt>
      <trkpt lat="41.703005" lon="1.117351">
        <ele>356.808</ele>
        <time>2021-08-19T09:52:51Z</time>
      </trkpt>
      <trkpt lat="41.703032" lon="1.117290">
        <ele>357.461</ele>
        <time>2021-08-19T09:52:54Z</time>
      </trkpt>
      <trkpt lat="41.703048" lon="1.117206">
        <ele>358.014</ele>
        <time>2021-08-19T09:52:57Z</time>
      </trkpt>
      <trkpt lat="41.703067" lon="1.117133">
        <ele>358.487</ele>
        <time>2021-08-19T09:53:00Z</time>
      </trkpt>
      <trkpt lat="41.703086" lon="1.117059">
        <ele>358.768</ele>
        <time>2021-08-19T09:53:02Z</time>
      </trkpt>
      <trkpt lat="41.703094" lon="1.116982">
        <ele>359.055</ele>
        <time>2021-08-19T09:53:04Z</time>
      </trkpt>
      <trkpt lat="41.703089" lon="1.116918">
        <ele>359.143</ele>
        <time>2021-08-19T09:53:06Z</time>
      </trkpt>
      <trkpt lat="41.703101" lon="1.116848">
        <ele>359.192</ele>
        <time>2021-08-19T09:53:08Z</time>
      </trkpt>
      <trkpt lat="41.703117" lon="1.116777">
        <ele>359.161</ele>
        <time>2021-08-19T09:53:10Z</time>
      </trkpt>
      <trkpt lat="41.703136" lon="1.116709">
        <ele>359.086</ele>
        <time>2021-08-19T09:53:12Z</time>
      </trkpt>
      <trkpt lat="41.703153" lon="1.116648">
        <ele>358.960</ele>
        <time>2021-08-19T09:53:14Z</time>
      </trkpt>
      <trkpt lat="41.703162" lon="1.116581">
        <ele>358.726</ele>
        <time>2021-08-19T09:53:16Z</time>
      </trkpt>
      <trkpt lat="41.703171" lon="1.116515">
        <ele>358.508</ele>
        <time>2021-08-19T09:53:18Z</time>
      </trkpt>
      <trkpt lat="41.703185" lon="1.116451">
        <ele>358.296</ele>
        <time>2021-08-19T09:53:22Z</time>
      </trkpt>
      <trkpt lat="41.703196" lon="1.116392">
        <ele>358.019</ele>
        <time>2021-08-19T09:53:27Z</time>
      </trkpt>
      <trkpt lat="41.703206" lon="1.116327">
        <ele>357.642</ele>
        <time>2021-08-19T09:53:32Z</time>
      </trkpt>
      <trkpt lat="41.703221" lon="1.116257">
        <ele>357.113</ele>
        <time>2021-08-19T09:53:36Z</time>
      </trkpt>
      <trkpt lat="41.703225" lon="1.116184">
        <ele>356.770</ele>
        <time>2021-08-19T09:53:47Z</time>
      </trkpt>
      <trkpt lat="41.703235" lon="1.116124">
        <ele>356.458</ele>
        <time>2021-08-19T09:53:49Z</time>
      </trkpt>
      <trkpt lat="41.703247" lon="1.116046">
        <ele>356.167</ele>
        <time>2021-08-19T09:53:51Z</time>
      </trkpt>
      <trkpt lat="41.703261" lon="1.115965">
        <ele>356.016</ele>
        <time>2021-08-19T09:53:53Z</time>
      </trkpt>
      <trkpt lat="41.703279" lon="1.115882">
        <ele>355.856</ele>
        <time>2021-08-19T09:53:55Z</time>
      </trkpt>
      <trkpt lat="41.703292" lon="1.115806">
        <ele>355.759</ele>
        <time>2021-08-19T09:53:57Z</time>
      </trkpt>
      <trkpt lat="41.703305" lon="1.115724">
        <ele>355.814</ele>
        <time>2021-08-19T09:53:59Z</time>
      </trkpt>
      <trkpt lat="41.703317" lon="1.115666">
        <ele>355.808</ele>
        <time>2021-08-19T09:54:00Z</time>
      </trkpt>
      <trkpt lat="41.703336" lon="1.115572">
        <ele>356.043</ele>
        <time>2021-08-19T09:54:02Z</time>
      </trkpt>
      <trkpt lat="41.703353" lon="1.115493">
        <ele>355.896</ele>
        <time>2021-08-19T09:54:04Z</time>
      </trkpt>
      <trkpt lat="41.703367" lon="1.115408">
        <ele>355.549</ele>
        <time>2021-08-19T09:54:06Z</time>
      </trkpt>
      <trkpt lat="41.703388" lon="1.115319">
        <ele>355.170</ele>
        <time>2021-08-19T09:54:08Z</time>
      </trkpt>
      <trkpt lat="41.703402" lon="1.115251">
        <ele>355.097</ele>
        <time>2021-08-19T09:54:10Z</time>
      </trkpt>
      <trkpt lat="41.703418" lon="1.115172">
        <ele>354.935</ele>
        <time>2021-08-19T09:54:12Z</time>
      </trkpt>
      <trkpt lat="41.703440" lon="1.115083">
        <ele>354.764</ele>
        <time>2021-08-19T09:54:14Z</time>
      </trkpt>
      <trkpt lat="41.703457" lon="1.115015">
        <ele>354.613</ele>
        <time>2021-08-19T09:54:15Z</time>
      </trkpt>
      <trkpt lat="41.703478" lon="1.114935">
        <ele>354.478</ele>
        <time>2021-08-19T09:54:17Z</time>
      </trkpt>
      <trkpt lat="41.703498" lon="1.114857">
        <ele>354.233</ele>
        <time>2021-08-19T09:54:19Z</time>
      </trkpt>
      <trkpt lat="41.703509" lon="1.114789">
        <ele>354.126</ele>
        <time>2021-08-19T09:54:20Z</time>
      </trkpt>
      <trkpt lat="41.703531" lon="1.114701">
        <ele>354.008</ele>
        <time>2021-08-19T09:54:22Z</time>
      </trkpt>
      <trkpt lat="41.703546" lon="1.114624">
        <ele>354.175</ele>
        <time>2021-08-19T09:54:24Z</time>
      </trkpt>
      <trkpt lat="41.703556" lon="1.114564">
        <ele>354.168</ele>
        <time>2021-08-19T09:54:25Z</time>
      </trkpt>
      <trkpt lat="41.703566" lon="1.114500">
        <ele>354.191</ele>
        <time>2021-08-19T09:54:26Z</time>
      </trkpt>
      <trkpt lat="41.703577" lon="1.114441">
        <ele>354.162</ele>
        <time>2021-08-19T09:54:28Z</time>
      </trkpt>
      <trkpt lat="41.703592" lon="1.114360">
        <ele>354.049</ele>
        <time>2021-08-19T09:54:30Z</time>
      </trkpt>
      <trkpt lat="41.703600" lon="1.114296">
        <ele>354.077</ele>
        <time>2021-08-19T09:54:31Z</time>
      </trkpt>
      <trkpt lat="41.703608" lon="1.114224">
        <ele>354.076</ele>
        <time>2021-08-19T09:54:32Z</time>
      </trkpt>
      <trkpt lat="41.703619" lon="1.114151">
        <ele>353.995</ele>
        <time>2021-08-19T09:54:34Z</time>
      </trkpt>
      <trkpt lat="41.703628" lon="1.114052">
        <ele>353.623</ele>
        <time>2021-08-19T09:54:36Z</time>
      </trkpt>
      <trkpt lat="41.703637" lon="1.113974">
        <ele>353.483</ele>
        <time>2021-08-19T09:54:38Z</time>
      </trkpt>
      <trkpt lat="41.703654" lon="1.113899">
        <ele>353.211</ele>
        <time>2021-08-19T09:54:39Z</time>
      </trkpt>
      <trkpt lat="41.703669" lon="1.113821">
        <ele>352.908</ele>
        <time>2021-08-19T09:54:41Z</time>
      </trkpt>
      <trkpt lat="41.703690" lon="1.113744">
        <ele>352.670</ele>
        <time>2021-08-19T09:54:43Z</time>
      </trkpt>
      <trkpt lat="41.703705" lon="1.113684">
        <ele>352.433</ele>
        <time>2021-08-19T09:54:44Z</time>
      </trkpt>
      <trkpt lat="41.703735" lon="1.113607">
        <ele>352.016</ele>
        <time>2021-08-19T09:54:46Z</time>
      </trkpt>
      <trkpt lat="41.703752" lon="1.113549">
        <ele>351.817</ele>
        <time>2021-08-19T09:54:47Z</time>
      </trkpt>
      <trkpt lat="41.703767" lon="1.113490">
        <ele>351.634</ele>
        <time>2021-08-19T09:54:48Z</time>
      </trkpt>
      <trkpt lat="41.703798" lon="1.113383">
        <ele>351.262</ele>
        <time>2021-08-19T09:54:50Z</time>
      </trkpt>
      <trkpt lat="41.703823" lon="1.113317">
        <ele>351.031</ele>
        <time>2021-08-19T09:54:52Z</time>
      </trkpt>
      <trkpt lat="41.703844" lon="1.113246">
        <ele>351.170</ele>
        <time>2021-08-19T09:54:53Z</time>
      </trkpt>
      <trkpt lat="41.703867" lon="1.113169">
        <ele>351.052</ele>
        <time>2021-08-19T09:54:54Z</time>
      </trkpt>
      <trkpt lat="41.703903" lon="1.113049">
        <ele>351.053</ele>
        <time>2021-08-19T09:54:56Z</time>
      </trkpt>
      <trkpt lat="41.703920" lon="1.112991">
        <ele>351.008</ele>
        <time>2021-08-19T09:54:57Z</time>
      </trkpt>
      <trkpt lat="41.703954" lon="1.112877">
        <ele>351.208</ele>
        <time>2021-08-19T09:54:59Z</time>
      </trkpt>
      <trkpt lat="41.703974" lon="1.112811">
        <ele>351.353</ele>
        <time>2021-08-19T09:55:01Z</time>
      </trkpt>
      <trkpt lat="41.703994" lon="1.112751">
        <ele>351.496</ele>
        <time>2021-08-19T09:55:02Z</time>
      </trkpt>
      <trkpt lat="41.704026" lon="1.112658">
        <ele>351.579</ele>
        <time>2021-08-19T09:55:03Z</time>
      </trkpt>
      <trkpt lat="41.704042" lon="1.112602">
        <ele>351.680</ele>
        <time>2021-08-19T09:55:04Z</time>
      </trkpt>
      <trkpt lat="41.704065" lon="1.112528">
        <ele>351.637</ele>
        <time>2021-08-19T09:55:06Z</time>
      </trkpt>
      <trkpt lat="41.704083" lon="1.112469">
        <ele>351.775</ele>
        <time>2021-08-19T09:55:07Z</time>
      </trkpt>
      <trkpt lat="41.704100" lon="1.112413">
        <ele>351.824</ele>
        <time>2021-08-19T09:55:08Z</time>
      </trkpt>
      <trkpt lat="41.704120" lon="1.112355">
        <ele>351.913</ele>
        <time>2021-08-19T09:55:09Z</time>
      </trkpt>
      <trkpt lat="41.704147" lon="1.112286">
        <ele>352.054</ele>
        <time>2021-08-19T09:55:11Z</time>
      </trkpt>
      <trkpt lat="41.704170" lon="1.112225">
        <ele>352.056</ele>
        <time>2021-08-19T09:55:12Z</time>
      </trkpt>
      <trkpt lat="41.704193" lon="1.112169">
        <ele>352.011</ele>
        <time>2021-08-19T09:55:13Z</time>
      </trkpt>
      <trkpt lat="41.704227" lon="1.112089">
        <ele>352.008</ele>
        <time>2021-08-19T09:55:14Z</time>
      </trkpt>
      <trkpt lat="41.704263" lon="1.112006">
        <ele>352.063</ele>
        <time>2021-08-19T09:55:16Z</time>
      </trkpt>
      <trkpt lat="41.704298" lon="1.111940">
        <ele>352.036</ele>
        <time>2021-08-19T09:55:18Z</time>
      </trkpt>
      <trkpt lat="41.704322" lon="1.111882">
        <ele>351.789</ele>
        <time>2021-08-19T09:55:19Z</time>
      </trkpt>
      <trkpt lat="41.704344" lon="1.111826">
        <ele>351.470</ele>
        <time>2021-08-19T09:55:20Z</time>
      </trkpt>
      <trkpt lat="41.704377" lon="1.111753">
        <ele>351.127</ele>
        <time>2021-08-19T09:55:21Z</time>
      </trkpt>
      <trkpt lat="41.704401" lon="1.111699">
        <ele>351.025</ele>
        <time>2021-08-19T09:55:23Z</time>
      </trkpt>
      <trkpt lat="41.704432" lon="1.111640">
        <ele>350.954</ele>
        <time>2021-08-19T09:55:24Z</time>
      </trkpt>
      <trkpt lat="41.704466" lon="1.111573">
        <ele>350.643</ele>
        <time>2021-08-19T09:55:25Z</time>
      </trkpt>
      <trkpt lat="41.704515" lon="1.111477">
        <ele>350.214</ele>
        <time>2021-08-19T09:55:27Z</time>
      </trkpt>
      <trkpt lat="41.704548" lon="1.111408">
        <ele>350.054</ele>
        <time>2021-08-19T09:55:28Z</time>
      </trkpt>
      <trkpt lat="41.704574" lon="1.111350">
        <ele>349.909</ele>
        <time>2021-08-19T09:55:30Z</time>
      </trkpt>
      <trkpt lat="41.704605" lon="1.111280">
        <ele>349.608</ele>
        <time>2021-08-19T09:55:31Z</time>
      </trkpt>
      <trkpt lat="41.704638" lon="1.111216">
        <ele>349.459</ele>
        <time>2021-08-19T09:55:33Z</time>
      </trkpt>
      <trkpt lat="41.704665" lon="1.111162">
        <ele>349.232</ele>
        <time>2021-08-19T09:55:34Z</time>
      </trkpt>
      <trkpt lat="41.704693" lon="1.111102">
        <ele>349.055</ele>
        <time>2021-08-19T09:55:35Z</time>
      </trkpt>
      <trkpt lat="41.704721" lon="1.111042">
        <ele>348.846</ele>
        <time>2021-08-19T09:55:36Z</time>
      </trkpt>
      <trkpt lat="41.704758" lon="1.110966">
        <ele>348.383</ele>
        <time>2021-08-19T09:55:38Z</time>
      </trkpt>
      <trkpt lat="41.704787" lon="1.110905">
        <ele>348.071</ele>
        <time>2021-08-19T09:55:40Z</time>
      </trkpt>
      <trkpt lat="41.704818" lon="1.110841">
        <ele>347.730</ele>
        <time>2021-08-19T09:55:41Z</time>
      </trkpt>
      <trkpt lat="41.704845" lon="1.110779">
        <ele>347.419</ele>
        <time>2021-08-19T09:55:43Z</time>
      </trkpt>
      <trkpt lat="41.704882" lon="1.110702">
        <ele>347.097</ele>
        <time>2021-08-19T09:55:44Z</time>
      </trkpt>
      <trkpt lat="41.704915" lon="1.110642">
        <ele>346.623</ele>
        <time>2021-08-19T09:55:46Z</time>
      </trkpt>
      <trkpt lat="41.704948" lon="1.110567">
        <ele>346.225</ele>
        <time>2021-08-19T09:55:47Z</time>
      </trkpt>
      <trkpt lat="41.704974" lon="1.110512">
        <ele>346.108</ele>
        <time>2021-08-19T09:55:48Z</time>
      </trkpt>
      <trkpt lat="41.705015" lon="1.110436">
        <ele>346.047</ele>
        <time>2021-08-19T09:55:50Z</time>
      </trkpt>
      <trkpt lat="41.705052" lon="1.110374">
        <ele>346.050</ele>
        <time>2021-08-19T09:55:52Z</time>
      </trkpt>
      <trkpt lat="41.705087" lon="1.110312">
        <ele>346.073</ele>
        <time>2021-08-19T09:55:53Z</time>
      </trkpt>
      <trkpt lat="41.705131" lon="1.110231">
        <ele>345.914</ele>
        <time>2021-08-19T09:55:55Z</time>
      </trkpt>
      <trkpt lat="41.705161" lon="1.110177">
        <ele>345.891</ele>
        <time>2021-08-19T09:55:56Z</time>
      </trkpt>
      <trkpt lat="41.705197" lon="1.110113">
        <ele>345.669</ele>
        <time>2021-08-19T09:55:58Z</time>
      </trkpt>
      <trkpt lat="41.705225" lon="1.110057">
        <ele>345.498</ele>
        <time>2021-08-19T09:55:59Z</time>
      </trkpt>
      <trkpt lat="41.705260" lon="1.109982">
        <ele>345.047</ele>
        <time>2021-08-19T09:56:01Z</time>
      </trkpt>
      <trkpt lat="41.705288" lon="1.109931">
        <ele>344.777</ele>
        <time>2021-08-19T09:56:02Z</time>
      </trkpt>
      <trkpt lat="41.705319" lon="1.109859">
        <ele>344.461</ele>
        <time>2021-08-19T09:56:03Z</time>
      </trkpt>
      <trkpt lat="41.705344" lon="1.109796">
        <ele>344.227</ele>
        <time>2021-08-19T09:56:04Z</time>
      </trkpt>
      <trkpt lat="41.705381" lon="1.109720">
        <ele>344.008</ele>
        <time>2021-08-19T09:56:06Z</time>
      </trkpt>
      <trkpt lat="41.705421" lon="1.109637">
        <ele>343.765</ele>
        <time>2021-08-19T09:56:08Z</time>
      </trkpt>
      <trkpt lat="41.705457" lon="1.109556">
        <ele>343.478</ele>
        <time>2021-08-19T09:56:10Z</time>
      </trkpt>
      <trkpt lat="41.705502" lon="1.109471">
        <ele>343.181</ele>
        <time>2021-08-19T09:56:12Z</time>
      </trkpt>
      <trkpt lat="41.705535" lon="1.109408">
        <ele>343.072</ele>
        <time>2021-08-19T09:56:13Z</time>
      </trkpt>
      <trkpt lat="41.705566" lon="1.109353">
        <ele>343.069</ele>
        <time>2021-08-19T09:56:14Z</time>
      </trkpt>
      <trkpt lat="41.705596" lon="1.109306">
        <ele>343.057</ele>
        <time>2021-08-19T09:56:16Z</time>
      </trkpt>
      <trkpt lat="41.705634" lon="1.109249">
        <ele>343.056</ele>
        <time>2021-08-19T09:56:17Z</time>
      </trkpt>
      <trkpt lat="41.705670" lon="1.109196">
        <ele>343.095</ele>
        <time>2021-08-19T09:56:18Z</time>
      </trkpt>
      <trkpt lat="41.705709" lon="1.109139">
        <ele>342.977</ele>
        <time>2021-08-19T09:56:20Z</time>
      </trkpt>
      <trkpt lat="41.705749" lon="1.109084">
        <ele>342.761</ele>
        <time>2021-08-19T09:56:21Z</time>
      </trkpt>
      <trkpt lat="41.705799" lon="1.109019">
        <ele>342.527</ele>
        <time>2021-08-19T09:56:23Z</time>
      </trkpt>
      <trkpt lat="41.705835" lon="1.108974">
        <ele>342.308</ele>
        <time>2021-08-19T09:56:24Z</time>
      </trkpt>
      <trkpt lat="41.705872" lon="1.108925">
        <ele>342.345</ele>
        <time>2021-08-19T09:56:26Z</time>
      </trkpt>
      <trkpt lat="41.705912" lon="1.108864">
        <ele>342.218</ele>
        <time>2021-08-19T09:56:27Z</time>
      </trkpt>
      <trkpt lat="41.705946" lon="1.108811">
        <ele>342.181</ele>
        <time>2021-08-19T09:56:29Z</time>
      </trkpt>
      <trkpt lat="41.705981" lon="1.108742">
        <ele>342.072</ele>
        <time>2021-08-19T09:56:31Z</time>
      </trkpt>
      <trkpt lat="41.706020" lon="1.108667">
        <ele>341.959</ele>
        <time>2021-08-19T09:56:33Z</time>
      </trkpt>
      <trkpt lat="41.706051" lon="1.108601">
        <ele>341.837</ele>
        <time>2021-08-19T09:56:35Z</time>
      </trkpt>
      <trkpt lat="41.706079" lon="1.108532">
        <ele>341.996</ele>
        <time>2021-08-19T09:56:37Z</time>
      </trkpt>
      <trkpt lat="41.706112" lon="1.108466">
        <ele>342.055</ele>
        <time>2021-08-19T09:56:39Z</time>
      </trkpt>
      <trkpt lat="41.706143" lon="1.108396">
        <ele>342.147</ele>
        <time>2021-08-19T09:56:41Z</time>
      </trkpt>
      <trkpt lat="41.706166" lon="1.108338">
        <ele>342.229</ele>
        <time>2021-08-19T09:56:43Z</time>
      </trkpt>
      <trkpt lat="41.706201" lon="1.108273">
        <ele>342.221</ele>
        <time>2021-08-19T09:56:45Z</time>
      </trkpt>
      <trkpt lat="41.706228" lon="1.108208">
        <ele>342.208</ele>
        <time>2021-08-19T09:56:47Z</time>
      </trkpt>
      <trkpt lat="41.706251" lon="1.108136">
        <ele>342.262</ele>
        <time>2021-08-19T09:56:49Z</time>
      </trkpt>
      <trkpt lat="41.706273" lon="1.108075">
        <ele>342.295</ele>
        <time>2021-08-19T09:56:52Z</time>
      </trkpt>
      <trkpt lat="41.706282" lon="1.108009">
        <ele>342.288</ele>
        <time>2021-08-19T09:56:55Z</time>
      </trkpt>
      <trkpt lat="41.706290" lon="1.107947">
        <ele>342.379</ele>
        <time>2021-08-19T09:56:57Z</time>
      </trkpt>
      <trkpt lat="41.706289" lon="1.107876">
        <ele>342.356</ele>
        <time>2021-08-19T09:57:00Z</time>
      </trkpt>
      <trkpt lat="41.706271" lon="1.107818">
        <ele>342.244</ele>
        <time>2021-08-19T09:57:03Z</time>
      </trkpt>
      <trkpt lat="41.706246" lon="1.107746">
        <ele>342.063</ele>
        <time>2021-08-19T09:57:06Z</time>
      </trkpt>
      <trkpt lat="41.706219" lon="1.107689">
        <ele>342.072</ele>
        <time>2021-08-19T09:57:09Z</time>
      </trkpt>
      <trkpt lat="41.706192" lon="1.107634">
        <ele>341.971</ele>
        <time>2021-08-19T09:57:12Z</time>
      </trkpt>
      <trkpt lat="41.706151" lon="1.107574">
        <ele>341.941</ele>
        <time>2021-08-19T09:57:16Z</time>
      </trkpt>
      <trkpt lat="41.706129" lon="1.107514">
        <ele>342.015</ele>
        <time>2021-08-19T09:57:19Z</time>
      </trkpt>
      <trkpt lat="41.706110" lon="1.107445">
        <ele>342.008</ele>
        <time>2021-08-19T09:57:22Z</time>
      </trkpt>
      <trkpt lat="41.706101" lon="1.107363">
        <ele>342.085</ele>
        <time>2021-08-19T09:57:25Z</time>
      </trkpt>
      <trkpt lat="41.706088" lon="1.107281">
        <ele>341.988</ele>
        <time>2021-08-19T09:57:28Z</time>
      </trkpt>
      <trkpt lat="41.706074" lon="1.107201">
        <ele>341.931</ele>
        <time>2021-08-19T09:57:31Z</time>
      </trkpt>
      <trkpt lat="41.706052" lon="1.107116">
        <ele>341.882</ele>
        <time>2021-08-19T09:57:34Z</time>
      </trkpt>
      <trkpt lat="41.706046" lon="1.107050">
        <ele>341.899</ele>
        <time>2021-08-19T09:57:36Z</time>
      </trkpt>
      <trkpt lat="41.706052" lon="1.106962">
        <ele>341.887</ele>
        <time>2021-08-19T09:57:39Z</time>
      </trkpt>
      <trkpt lat="41.706073" lon="1.106906">
        <ele>341.726</ele>
        <time>2021-08-19T09:57:41Z</time>
      </trkpt>
      <trkpt lat="41.706110" lon="1.106864">
        <ele>341.735</ele>
        <time>2021-08-19T09:57:43Z</time>
      </trkpt>
      <trkpt lat="41.706150" lon="1.106825">
        <ele>341.611</ele>
        <time>2021-08-19T09:57:45Z</time>
      </trkpt>
      <trkpt lat="41.706194" lon="1.106800">
        <ele>341.621</ele>
        <time>2021-08-19T09:57:47Z</time>
      </trkpt>
      <trkpt lat="41.706251" lon="1.106773">
        <ele>341.603</ele>
        <time>2021-08-19T09:57:50Z</time>
      </trkpt>
      <trkpt lat="41.706308" lon="1.106745">
        <ele>341.508</ele>
        <time>2021-08-19T09:57:53Z</time>
      </trkpt>
      <trkpt lat="41.706356" lon="1.106713">
        <ele>341.329</ele>
        <time>2021-08-19T09:57:56Z</time>
      </trkpt>
      <trkpt lat="41.706401" lon="1.106696">
        <ele>341.392</ele>
        <time>2021-08-19T09:57:58Z</time>
      </trkpt>
      <trkpt lat="41.706463" lon="1.106670">
        <ele>341.815</ele>
        <time>2021-08-19T09:58:01Z</time>
      </trkpt>
      <trkpt lat="41.706504" lon="1.106641">
        <ele>342.296</ele>
        <time>2021-08-19T09:58:03Z</time>
      </trkpt>
      <trkpt lat="41.706548" lon="1.106617">
        <ele>342.533</ele>
        <time>2021-08-19T09:58:05Z</time>
      </trkpt>
      <trkpt lat="41.706611" lon="1.106590">
        <ele>343.131</ele>
        <time>2021-08-19T09:58:08Z</time>
      </trkpt>
      <trkpt lat="41.706670" lon="1.106554">
        <ele>343.610</ele>
        <time>2021-08-19T09:58:11Z</time>
      </trkpt>
      <trkpt lat="41.706722" lon="1.106510">
        <ele>344.059</ele>
        <time>2021-08-19T09:58:14Z</time>
      </trkpt>
      <trkpt lat="41.706782" lon="1.106488">
        <ele>344.676</ele>
        <time>2021-08-19T09:58:17Z</time>
      </trkpt>
      <trkpt lat="41.706838" lon="1.106457">
        <ele>345.190</ele>
        <time>2021-08-19T09:58:20Z</time>
      </trkpt>
      <trkpt lat="41.706888" lon="1.106414">
        <ele>345.519</ele>
        <time>2021-08-19T09:58:23Z</time>
      </trkpt>
      <trkpt lat="41.706936" lon="1.106382">
        <ele>345.908</ele>
        <time>2021-08-19T09:58:26Z</time>
      </trkpt>
      <trkpt lat="41.706976" lon="1.106348">
        <ele>346.145</ele>
        <time>2021-08-19T09:58:30Z</time>
      </trkpt>
      <trkpt lat="41.706964" lon="1.106265">
        <ele>346.148</ele>
        <time>2021-08-19T09:58:34Z</time>
      </trkpt>
      <trkpt lat="41.706962" lon="1.106185">
        <ele>346.181</ele>
        <time>2021-08-19T09:58:37Z</time>
      </trkpt>
      <trkpt lat="41.706928" lon="1.106127">
        <ele>345.842</ele>
        <time>2021-08-19T09:58:40Z</time>
      </trkpt>
      <trkpt lat="41.706917" lon="1.106044">
        <ele>345.749</ele>
        <time>2021-08-19T09:58:43Z</time>
      </trkpt>
      <trkpt lat="41.706912" lon="1.105960">
        <ele>345.627</ele>
        <time>2021-08-19T09:58:46Z</time>
      </trkpt>
      <trkpt lat="41.706934" lon="1.105903">
        <ele>345.956</ele>
        <time>2021-08-19T09:58:48Z</time>
      </trkpt>
      <trkpt lat="41.706975" lon="1.105837">
        <ele>346.115</ele>
        <time>2021-08-19T09:58:51Z</time>
      </trkpt>
      <trkpt lat="41.707011" lon="1.105797">
        <ele>346.293</ele>
        <time>2021-08-19T09:58:53Z</time>
      </trkpt>
      <trkpt lat="41.707055" lon="1.105748">
        <ele>346.465</ele>
        <time>2021-08-19T09:58:55Z</time>
      </trkpt>
      <trkpt lat="41.707090" lon="1.105703">
        <ele>346.521</ele>
        <time>2021-08-19T09:58:57Z</time>
      </trkpt>
      <trkpt lat="41.707129" lon="1.105646">
        <ele>346.708</ele>
        <time>2021-08-19T09:58:59Z</time>
      </trkpt>
      <trkpt lat="41.707166" lon="1.105599">
        <ele>346.887</ele>
        <time>2021-08-19T09:59:01Z</time>
      </trkpt>
      <trkpt lat="41.707203" lon="1.105536">
        <ele>346.980</ele>
        <time>2021-08-19T09:59:03Z</time>
      </trkpt>
      <trkpt lat="41.707249" lon="1.105487">
        <ele>346.873</ele>
        <time>2021-08-19T09:59:05Z</time>
      </trkpt>
      <trkpt lat="41.707295" lon="1.105434">
        <ele>346.674</ele>
        <time>2021-08-19T09:59:07Z</time>
      </trkpt>
      <trkpt lat="41.707332" lon="1.105381">
        <ele>346.431</ele>
        <time>2021-08-19T09:59:09Z</time>
      </trkpt>
      <trkpt lat="41.707373" lon="1.105337">
        <ele>346.299</ele>
        <time>2021-08-19T09:59:11Z</time>
      </trkpt>
      <trkpt lat="41.707415" lon="1.105291">
        <ele>346.058</ele>
        <time>2021-08-19T09:59:13Z</time>
      </trkpt>
      <trkpt lat="41.707454" lon="1.105231">
        <ele>345.887</ele>
        <time>2021-08-19T09:59:15Z</time>
      </trkpt>
      <trkpt lat="41.707498" lon="1.105180">
        <ele>345.665</ele>
        <time>2021-08-19T09:59:17Z</time>
      </trkpt>
      <trkpt lat="41.707539" lon="1.105130">
        <ele>345.668</ele>
        <time>2021-08-19T09:59:19Z</time>
      </trkpt>
      <trkpt lat="41.707578" lon="1.105083">
        <ele>345.614</ele>
        <time>2021-08-19T09:59:21Z</time>
      </trkpt>
      <trkpt lat="41.707616" lon="1.105038">
        <ele>345.608</ele>
        <time>2021-08-19T09:59:23Z</time>
      </trkpt>
      <trkpt lat="41.707655" lon="1.104984">
        <ele>345.564</ele>
        <time>2021-08-19T09:59:25Z</time>
      </trkpt>
      <trkpt lat="41.707690" lon="1.104939">
        <ele>345.667</ele>
        <time>2021-08-19T09:59:27Z</time>
      </trkpt>
      <trkpt lat="41.707729" lon="1.104872">
        <ele>345.720</ele>
        <time>2021-08-19T09:59:29Z</time>
      </trkpt>
      <trkpt lat="41.707770" lon="1.104811">
        <ele>346.071</ele>
        <time>2021-08-19T09:59:31Z</time>
      </trkpt>
      <trkpt lat="41.707809" lon="1.104755">
        <ele>346.268</ele>
        <time>2021-08-19T09:59:33Z</time>
      </trkpt>
      <trkpt lat="41.707846" lon="1.104697">
        <ele>346.436</ele>
        <time>2021-08-19T09:59:35Z</time>
      </trkpt>
      <trkpt lat="41.707881" lon="1.104628">
        <ele>346.345</ele>
        <time>2021-08-19T09:59:37Z</time>
      </trkpt>
      <trkpt lat="41.707918" lon="1.104565">
        <ele>346.264</ele>
        <time>2021-08-19T09:59:39Z</time>
      </trkpt>
      <trkpt lat="41.707956" lon="1.104510">
        <ele>346.082</ele>
        <time>2021-08-19T09:59:41Z</time>
      </trkpt>
      <trkpt lat="41.708001" lon="1.104452">
        <ele>345.943</ele>
        <time>2021-08-19T09:59:43Z</time>
      </trkpt>
      <trkpt lat="41.708040" lon="1.104388">
        <ele>345.717</ele>
        <time>2021-08-19T09:59:45Z</time>
      </trkpt>
      <trkpt lat="41.708075" lon="1.104332">
        <ele>345.608</ele>
        <time>2021-08-19T09:59:47Z</time>
      </trkpt>
      <trkpt lat="41.708114" lon="1.104274">
        <ele>345.526</ele>
        <time>2021-08-19T09:59:49Z</time>
      </trkpt>
      <trkpt lat="41.708152" lon="1.104216">
        <ele>345.249</ele>
        <time>2021-08-19T09:59:51Z</time>
      </trkpt>
      <trkpt lat="41.708191" lon="1.104161">
        <ele>345.072</ele>
        <time>2021-08-19T09:59:53Z</time>
      </trkpt>
      <trkpt lat="41.708232" lon="1.104107">
        <ele>344.823</ele>
        <time>2021-08-19T09:59:55Z</time>
      </trkpt>
      <trkpt lat="41.708267" lon="1.104051">
        <ele>344.610</ele>
        <time>2021-08-19T09:59:57Z</time>
      </trkpt>
      <trkpt lat="41.708297" lon="1.103998">
        <ele>344.418</ele>
        <time>2021-08-19T09:59:59Z</time>
      </trkpt>
      <trkpt lat="41.708356" lon="1.103913">
        <ele>344.347</ele>
        <time>2021-08-19T10:00:02Z</time>
      </trkpt>
      <trkpt lat="41.708390" lon="1.103856">
        <ele>344.756</ele>
        <time>2021-08-19T10:00:04Z</time>
      </trkpt>
      <trkpt lat="41.708422" lon="1.103807">
        <ele>345.271</ele>
        <time>2021-08-19T10:00:06Z</time>
      </trkpt>
      <trkpt lat="41.708452" lon="1.103762">
        <ele>345.541</ele>
        <time>2021-08-19T10:00:08Z</time>
      </trkpt>
      <trkpt lat="41.708502" lon="1.103706">
        <ele>346.115</ele>
        <time>2021-08-19T10:00:11Z</time>
      </trkpt>
      <trkpt lat="41.708545" lon="1.103647">
        <ele>346.508</ele>
        <time>2021-08-19T10:00:14Z</time>
      </trkpt>
      <trkpt lat="41.708585" lon="1.103582">
        <ele>346.975</ele>
        <time>2021-08-19T10:00:17Z</time>
      </trkpt>
      <trkpt lat="41.708624" lon="1.103543">
        <ele>347.358</ele>
        <time>2021-08-19T10:00:20Z</time>
      </trkpt>
      <trkpt lat="41.708655" lon="1.103500">
        <ele>347.771</ele>
        <time>2021-08-19T10:00:23Z</time>
      </trkpt>
      <trkpt lat="41.708688" lon="1.103456">
        <ele>348.122</ele>
        <time>2021-08-19T10:00:26Z</time>
      </trkpt>
      <trkpt lat="41.708729" lon="1.103432">
        <ele>348.589</ele>
        <time>2021-08-19T10:00:30Z</time>
      </trkpt>
      <trkpt lat="41.708773" lon="1.103393">
        <ele>349.087</ele>
        <time>2021-08-19T10:00:35Z</time>
      </trkpt>
      <trkpt lat="41.708807" lon="1.103347">
        <ele>349.486</ele>
        <time>2021-08-19T10:00:39Z</time>
      </trkpt>
      <trkpt lat="41.708852" lon="1.103314">
        <ele>349.845</ele>
        <time>2021-08-19T10:00:44Z</time>
      </trkpt>
      <trkpt lat="41.708880" lon="1.103253">
        <ele>350.025</ele>
        <time>2021-08-19T10:00:48Z</time>
      </trkpt>
      <trkpt lat="41.708908" lon="1.103196">
        <ele>350.026</ele>
        <time>2021-08-19T10:00:52Z</time>
      </trkpt>
      <trkpt lat="41.708923" lon="1.103139">
        <ele>350.108</ele>
        <time>2021-08-19T10:00:56Z</time>
      </trkpt>
      <trkpt lat="41.708952" lon="1.103092">
        <ele>350.208</ele>
        <time>2021-08-19T10:01:00Z</time>
      </trkpt>
      <trkpt lat="41.708982" lon="1.103040">
        <ele>350.490</ele>
        <time>2021-08-19T10:01:03Z</time>
      </trkpt>
      <trkpt lat="41.709021" lon="1.103004">
        <ele>350.853</ele>
        <time>2021-08-19T10:01:06Z</time>
      </trkpt>
      <trkpt lat="41.709063" lon="1.102970">
        <ele>351.276</ele>
        <time>2021-08-19T10:01:09Z</time>
      </trkpt>
      <trkpt lat="41.709105" lon="1.102919">
        <ele>351.817</ele>
        <time>2021-08-19T10:01:13Z</time>
      </trkpt>
      <trkpt lat="41.709145" lon="1.102863">
        <ele>352.344</ele>
        <time>2021-08-19T10:01:17Z</time>
      </trkpt>
      <trkpt lat="41.709122" lon="1.102792">
        <ele>352.722</ele>
        <time>2021-08-19T10:02:37Z</time>
      </trkpt>
      <trkpt lat="41.709133" lon="1.102727">
        <ele>352.931</ele>
        <time>2021-08-19T10:02:40Z</time>
      </trkpt>
      <trkpt lat="41.709150" lon="1.102657">
        <ele>353.060</ele>
        <time>2021-08-19T10:02:43Z</time>
      </trkpt>
      <trkpt lat="41.709144" lon="1.102589">
        <ele>353.015</ele>
        <time>2021-08-19T10:02:45Z</time>
      </trkpt>
      <trkpt lat="41.709144" lon="1.102522">
        <ele>353.065</ele>
        <time>2021-08-19T10:02:47Z</time>
      </trkpt>
      <trkpt lat="41.709148" lon="1.102456">
        <ele>352.811</ele>
        <time>2021-08-19T10:02:49Z</time>
      </trkpt>
      <trkpt lat="41.709158" lon="1.102377">
        <ele>352.608</ele>
        <time>2021-08-19T10:02:51Z</time>
      </trkpt>
      <trkpt lat="41.709163" lon="1.102313">
        <ele>352.369</ele>
        <time>2021-08-19T10:02:53Z</time>
      </trkpt>
      <trkpt lat="41.709173" lon="1.102246">
        <ele>352.162</ele>
        <time>2021-08-19T10:02:55Z</time>
      </trkpt>
      <trkpt lat="41.709182" lon="1.102183">
        <ele>351.755</ele>
        <time>2021-08-19T10:02:57Z</time>
      </trkpt>
      <trkpt lat="41.709188" lon="1.102123">
        <ele>351.366</ele>
        <time>2021-08-19T10:02:59Z</time>
      </trkpt>
      <trkpt lat="41.709196" lon="1.102063">
        <ele>350.923</ele>
        <time>2021-08-19T10:03:01Z</time>
      </trkpt>
      <trkpt lat="41.709199" lon="1.102002">
        <ele>350.421</ele>
        <time>2021-08-19T10:03:03Z</time>
      </trkpt>
      <trkpt lat="41.709209" lon="1.101931">
        <ele>350.080</ele>
        <time>2021-08-19T10:03:05Z</time>
      </trkpt>
      <trkpt lat="41.709218" lon="1.101861">
        <ele>349.759</ele>
        <time>2021-08-19T10:03:07Z</time>
      </trkpt>
      <trkpt lat="41.709229" lon="1.101790">
        <ele>349.419</ele>
        <time>2021-08-19T10:03:09Z</time>
      </trkpt>
      <trkpt lat="41.709235" lon="1.101723">
        <ele>349.209</ele>
        <time>2021-08-19T10:03:11Z</time>
      </trkpt>
      <trkpt lat="41.709244" lon="1.101655">
        <ele>349.019</ele>
        <time>2021-08-19T10:03:13Z</time>
      </trkpt>
      <trkpt lat="41.709254" lon="1.101576">
        <ele>349.008</ele>
        <time>2021-08-19T10:03:15Z</time>
      </trkpt>
      <trkpt lat="41.709264" lon="1.101501">
        <ele>349.059</ele>
        <time>2021-08-19T10:03:17Z</time>
      </trkpt>
      <trkpt lat="41.709269" lon="1.101433">
        <ele>349.072</ele>
        <time>2021-08-19T10:03:18Z</time>
      </trkpt>
      <trkpt lat="41.709273" lon="1.101366">
        <ele>349.075</ele>
        <time>2021-08-19T10:03:20Z</time>
      </trkpt>
      <trkpt lat="41.709280" lon="1.101290">
        <ele>349.016</ele>
        <time>2021-08-19T10:03:21Z</time>
      </trkpt>
      <trkpt lat="41.709289" lon="1.101211">
        <ele>349.073</ele>
        <time>2021-08-19T10:03:23Z</time>
      </trkpt>
      <trkpt lat="41.709296" lon="1.101127">
        <ele>349.091</ele>
        <time>2021-08-19T10:03:25Z</time>
      </trkpt>
      <trkpt lat="41.709304" lon="1.101036">
        <ele>348.960</ele>
        <time>2021-08-19T10:03:27Z</time>
      </trkpt>
      <trkpt lat="41.709315" lon="1.100971">
        <ele>348.819</ele>
        <time>2021-08-19T10:03:29Z</time>
      </trkpt>
      <trkpt lat="41.709326" lon="1.100908">
        <ele>348.737</ele>
        <time>2021-08-19T10:03:30Z</time>
      </trkpt>
      <trkpt lat="41.709335" lon="1.100839">
        <ele>348.649</ele>
        <time>2021-08-19T10:03:32Z</time>
      </trkpt>
      <trkpt lat="41.709353" lon="1.100738">
        <ele>348.413</ele>
        <time>2021-08-19T10:03:34Z</time>
      </trkpt>
      <trkpt lat="41.709362" lon="1.100657">
        <ele>348.308</ele>
        <time>2021-08-19T10:03:36Z</time>
      </trkpt>
      <trkpt lat="41.709372" lon="1.100595">
        <ele>348.181</ele>
        <time>2021-08-19T10:03:37Z</time>
      </trkpt>
      <trkpt lat="41.709381" lon="1.100522">
        <ele>348.024</ele>
        <time>2021-08-19T10:03:39Z</time>
      </trkpt>
      <trkpt lat="41.709392" lon="1.100448">
        <ele>347.927</ele>
        <time>2021-08-19T10:03:40Z</time>
      </trkpt>
      <trkpt lat="41.709407" lon="1.100357">
        <ele>347.948</ele>
        <time>2021-08-19T10:03:42Z</time>
      </trkpt>
      <trkpt lat="41.709424" lon="1.100264">
        <ele>347.955</ele>
        <time>2021-08-19T10:03:44Z</time>
      </trkpt>
      <trkpt lat="41.709441" lon="1.100179">
        <ele>347.693</ele>
        <time>2021-08-19T10:03:46Z</time>
      </trkpt>
      <trkpt lat="41.709461" lon="1.100119">
        <ele>347.422</ele>
        <time>2021-08-19T10:03:49Z</time>
      </trkpt>
      <trkpt lat="41.709492" lon="1.100062">
        <ele>347.261</ele>
        <time>2021-08-19T10:04:06Z</time>
      </trkpt>
      <trkpt lat="41.709517" lon="1.099992">
        <ele>347.084</ele>
        <time>2021-08-19T10:04:08Z</time>
      </trkpt>
      <trkpt lat="41.709544" lon="1.099919">
        <ele>346.607</ele>
        <time>2021-08-19T10:04:10Z</time>
      </trkpt>
      <trkpt lat="41.709571" lon="1.099856">
        <ele>346.217</ele>
        <time>2021-08-19T10:04:12Z</time>
      </trkpt>
      <trkpt lat="41.709596" lon="1.099796">
        <ele>345.908</ele>
        <time>2021-08-19T10:04:14Z</time>
      </trkpt>
      <trkpt lat="41.709625" lon="1.099732">
        <ele>345.426</ele>
        <time>2021-08-19T10:04:16Z</time>
      </trkpt>
      <trkpt lat="41.709651" lon="1.099666">
        <ele>345.159</ele>
        <time>2021-08-19T10:04:18Z</time>
      </trkpt>
      <trkpt lat="41.709678" lon="1.099596">
        <ele>344.752</ele>
        <time>2021-08-19T10:04:20Z</time>
      </trkpt>
      <trkpt lat="41.709707" lon="1.099530">
        <ele>344.473</ele>
        <time>2021-08-19T10:04:22Z</time>
      </trkpt>
      <trkpt lat="41.709727" lon="1.099462">
        <ele>344.140</ele>
        <time>2021-08-19T10:04:24Z</time>
      </trkpt>
      <trkpt lat="41.709744" lon="1.099386">
        <ele>344.018</ele>
        <time>2021-08-19T10:04:26Z</time>
      </trkpt>
      <trkpt lat="41.709764" lon="1.099298">
        <ele>344.177</ele>
        <time>2021-08-19T10:04:28Z</time>
      </trkpt>
      <trkpt lat="41.709776" lon="1.099226">
        <ele>344.236</ele>
        <time>2021-08-19T10:04:30Z</time>
      </trkpt>
      <trkpt lat="41.709790" lon="1.099144">
        <ele>344.429</ele>
        <time>2021-08-19T10:04:32Z</time>
      </trkpt>
      <trkpt lat="41.709802" lon="1.099061">
        <ele>344.900</ele>
        <time>2021-08-19T10:04:34Z</time>
      </trkpt>
      <trkpt lat="41.709815" lon="1.098975">
        <ele>345.520</ele>
        <time>2021-08-19T10:04:36Z</time>
      </trkpt>
      <trkpt lat="41.709831" lon="1.098885">
        <ele>346.008</ele>
        <time>2021-08-19T10:04:38Z</time>
      </trkpt>
      <trkpt lat="41.709854" lon="1.098779">
        <ele>346.230</ele>
        <time>2021-08-19T10:04:40Z</time>
      </trkpt>
      <trkpt lat="41.709875" lon="1.098672">
        <ele>346.473</ele>
        <time>2021-08-19T10:04:42Z</time>
      </trkpt>
      <trkpt lat="41.709899" lon="1.098569">
        <ele>346.416</ele>
        <time>2021-08-19T10:04:44Z</time>
      </trkpt>
      <trkpt lat="41.709922" lon="1.098470">
        <ele>346.327</ele>
        <time>2021-08-19T10:04:46Z</time>
      </trkpt>
      <trkpt lat="41.709949" lon="1.098376">
        <ele>346.294</ele>
        <time>2021-08-19T10:04:48Z</time>
      </trkpt>
      <trkpt lat="41.709976" lon="1.098291">
        <ele>346.142</ele>
        <time>2021-08-19T10:04:50Z</time>
      </trkpt>
      <trkpt lat="41.709998" lon="1.098206">
        <ele>346.071</ele>
        <time>2021-08-19T10:04:52Z</time>
      </trkpt>
      <trkpt lat="41.710026" lon="1.098127">
        <ele>345.970</ele>
        <time>2021-08-19T10:04:54Z</time>
      </trkpt>
      <trkpt lat="41.710047" lon="1.098052">
        <ele>345.878</ele>
        <time>2021-08-19T10:04:56Z</time>
      </trkpt>
      <trkpt lat="41.710067" lon="1.097979">
        <ele>345.633</ele>
        <time>2021-08-19T10:04:58Z</time>
      </trkpt>
      <trkpt lat="41.710085" lon="1.097916">
        <ele>345.326</ele>
        <time>2021-08-19T10:05:00Z</time>
      </trkpt>
      <trkpt lat="41.710115" lon="1.097839">
        <ele>345.108</ele>
        <time>2021-08-19T10:05:02Z</time>
      </trkpt>
      <trkpt lat="41.710144" lon="1.097761">
        <ele>345.015</ele>
        <time>2021-08-19T10:05:04Z</time>
      </trkpt>
      <trkpt lat="41.710168" lon="1.097673">
        <ele>344.918</ele>
        <time>2021-08-19T10:05:06Z</time>
      </trkpt>
      <trkpt lat="41.710197" lon="1.097589">
        <ele>344.811</ele>
        <time>2021-08-19T10:05:08Z</time>
      </trkpt>
      <trkpt lat="41.710219" lon="1.097510">
        <ele>344.852</ele>
        <time>2021-08-19T10:05:10Z</time>
      </trkpt>
      <trkpt lat="41.710242" lon="1.097426">
        <ele>344.999</ele>
        <time>2021-08-19T10:05:12Z</time>
      </trkpt>
      <trkpt lat="41.710274" lon="1.097345">
        <ele>345.037</ele>
        <time>2021-08-19T10:05:14Z</time>
      </trkpt>
      <trkpt lat="41.710307" lon="1.097264">
        <ele>345.056</ele>
        <time>2021-08-19T10:05:16Z</time>
      </trkpt>
      <trkpt lat="41.710331" lon="1.097188">
        <ele>344.985</ele>
        <time>2021-08-19T10:05:18Z</time>
      </trkpt>
      <trkpt lat="41.710349" lon="1.097118">
        <ele>344.556</ele>
        <time>2021-08-19T10:05:20Z</time>
      </trkpt>
      <trkpt lat="41.710366" lon="1.097046">
        <ele>344.259</ele>
        <time>2021-08-19T10:05:21Z</time>
      </trkpt>
      <trkpt lat="41.710388" lon="1.096961">
        <ele>343.714</ele>
        <time>2021-08-19T10:05:23Z</time>
      </trkpt>
      <trkpt lat="41.710397" lon="1.096890">
        <ele>343.508</ele>
        <time>2021-08-19T10:05:25Z</time>
      </trkpt>
      <trkpt lat="41.710412" lon="1.096811">
        <ele>343.353</ele>
        <time>2021-08-19T10:05:27Z</time>
      </trkpt>
      <trkpt lat="41.710429" lon="1.096733">
        <ele>343.086</ele>
        <time>2021-08-19T10:05:29Z</time>
      </trkpt>
      <trkpt lat="41.710437" lon="1.096670">
        <ele>342.979</ele>
        <time>2021-08-19T10:05:31Z</time>
      </trkpt>
      <trkpt lat="41.710449" lon="1.096600">
        <ele>342.890</ele>
        <time>2021-08-19T10:05:33Z</time>
      </trkpt>
      <trkpt lat="41.710465" lon="1.096534">
        <ele>342.847</ele>
        <time>2021-08-19T10:05:35Z</time>
      </trkpt>
      <trkpt lat="41.710471" lon="1.096464">
        <ele>342.915</ele>
        <time>2021-08-19T10:05:37Z</time>
      </trkpt>
      <trkpt lat="41.710488" lon="1.096392">
        <ele>343.064</ele>
        <time>2021-08-19T10:05:39Z</time>
      </trkpt>
      <trkpt lat="41.710506" lon="1.096330">
        <ele>343.253</ele>
        <time>2021-08-19T10:05:41Z</time>
      </trkpt>
      <trkpt lat="41.710528" lon="1.096269">
        <ele>343.472</ele>
        <time>2021-08-19T10:05:43Z</time>
      </trkpt>
      <trkpt lat="41.710543" lon="1.096205">
        <ele>343.613</ele>
        <time>2021-08-19T10:05:45Z</time>
      </trkpt>
      <trkpt lat="41.710551" lon="1.096145">
        <ele>343.914</ele>
        <time>2021-08-19T10:05:47Z</time>
      </trkpt>
      <trkpt lat="41.710565" lon="1.096084">
        <ele>344.308</ele>
        <time>2021-08-19T10:05:49Z</time>
      </trkpt>
      <trkpt lat="41.710571" lon="1.096023">
        <ele>344.715</ele>
        <time>2021-08-19T10:05:51Z</time>
      </trkpt>
      <trkpt lat="41.710586" lon="1.095958">
        <ele>345.278</ele>
        <time>2021-08-19T10:05:53Z</time>
      </trkpt>
      <trkpt lat="41.710612" lon="1.095884">
        <ele>345.761</ele>
        <time>2021-08-19T10:05:56Z</time>
      </trkpt>
      <trkpt lat="41.710643" lon="1.095806">
        <ele>346.062</ele>
        <time>2021-08-19T10:05:59Z</time>
      </trkpt>
      <trkpt lat="41.710661" lon="1.095749">
        <ele>345.979</ele>
        <time>2021-08-19T10:06:01Z</time>
      </trkpt>
      <trkpt lat="41.710671" lon="1.095679">
        <ele>345.937</ele>
        <time>2021-08-19T10:06:04Z</time>
      </trkpt>
      <trkpt lat="41.710679" lon="1.095602">
        <ele>345.926</ele>
        <time>2021-08-19T10:06:07Z</time>
      </trkpt>
      <trkpt lat="41.710686" lon="1.095535">
        <ele>345.995</ele>
        <time>2021-08-19T10:06:09Z</time>
      </trkpt>
      <trkpt lat="41.710695" lon="1.095455">
        <ele>346.052</ele>
        <time>2021-08-19T10:06:11Z</time>
      </trkpt>
      <trkpt lat="41.710701" lon="1.095373">
        <ele>346.053</ele>
        <time>2021-08-19T10:06:13Z</time>
      </trkpt>
      <trkpt lat="41.710706" lon="1.095286">
        <ele>346.108</ele>
        <time>2021-08-19T10:06:15Z</time>
      </trkpt>
      <trkpt lat="41.710706" lon="1.095201">
        <ele>345.908</ele>
        <time>2021-08-19T10:06:17Z</time>
      </trkpt>
      <trkpt lat="41.710714" lon="1.095120">
        <ele>345.893</ele>
        <time>2021-08-19T10:06:19Z</time>
      </trkpt>
      <trkpt lat="41.710721" lon="1.095033">
        <ele>345.716</ele>
        <time>2021-08-19T10:06:21Z</time>
      </trkpt>
      <trkpt lat="41.710739" lon="1.094961">
        <ele>345.749</ele>
        <time>2021-08-19T10:06:23Z</time>
      </trkpt>
      <trkpt lat="41.710740" lon="1.094884">
        <ele>345.780</ele>
        <time>2021-08-19T10:06:25Z</time>
      </trkpt>
      <trkpt lat="41.710741" lon="1.094798">
        <ele>345.767</ele>
        <time>2021-08-19T10:06:27Z</time>
      </trkpt>
      <trkpt lat="41.710747" lon="1.094718">
        <ele>345.735</ele>
        <time>2021-08-19T10:06:29Z</time>
      </trkpt>
      <trkpt lat="41.710749" lon="1.094653">
        <ele>345.754</ele>
        <time>2021-08-19T10:06:31Z</time>
      </trkpt>
      <trkpt lat="41.710760" lon="1.094555">
        <ele>345.783</ele>
        <time>2021-08-19T10:06:33Z</time>
      </trkpt>
      <trkpt lat="41.710774" lon="1.094454">
        <ele>345.848</ele>
        <time>2021-08-19T10:06:35Z</time>
      </trkpt>
      <trkpt lat="41.710788" lon="1.094357">
        <ele>345.861</ele>
        <time>2021-08-19T10:06:37Z</time>
      </trkpt>
      <trkpt lat="41.710805" lon="1.094276">
        <ele>345.917</ele>
        <time>2021-08-19T10:06:39Z</time>
      </trkpt>
      <trkpt lat="41.710834" lon="1.094196">
        <ele>346.008</ele>
        <time>2021-08-19T10:06:41Z</time>
      </trkpt>
      <trkpt lat="41.710850" lon="1.094108">
        <ele>345.572</ele>
        <time>2021-08-19T10:06:43Z</time>
      </trkpt>
      <trkpt lat="41.710849" lon="1.094020">
        <ele>344.975</ele>
        <time>2021-08-19T10:06:45Z</time>
      </trkpt>
      <trkpt lat="41.710846" lon="1.093941">
        <ele>344.458</ele>
        <time>2021-08-19T10:06:47Z</time>
      </trkpt>
      <trkpt lat="41.710840" lon="1.093859">
        <ele>344.069</ele>
        <time>2021-08-19T10:06:49Z</time>
      </trkpt>
      <trkpt lat="41.710833" lon="1.093779">
        <ele>344.046</ele>
        <time>2021-08-19T10:06:51Z</time>
      </trkpt>
      <trkpt lat="41.710837" lon="1.093712">
        <ele>344.044</ele>
        <time>2021-08-19T10:06:53Z</time>
      </trkpt>
      <trkpt lat="41.710838" lon="1.093637">
        <ele>344.013</ele>
        <time>2021-08-19T10:06:55Z</time>
      </trkpt>
      <trkpt lat="41.710844" lon="1.093565">
        <ele>344.012</ele>
        <time>2021-08-19T10:06:57Z</time>
      </trkpt>
      <trkpt lat="41.710854" lon="1.093500">
        <ele>343.946</ele>
        <time>2021-08-19T10:06:59Z</time>
      </trkpt>
      <trkpt lat="41.710874" lon="1.093431">
        <ele>343.888</ele>
        <time>2021-08-19T10:07:01Z</time>
      </trkpt>
      <trkpt lat="41.710897" lon="1.093369">
        <ele>343.616</ele>
        <time>2021-08-19T10:07:03Z</time>
      </trkpt>
      <trkpt lat="41.710925" lon="1.093307">
        <ele>343.408</ele>
        <time>2021-08-19T10:07:05Z</time>
      </trkpt>
      <trkpt lat="41.710962" lon="1.093267">
        <ele>343.352</ele>
        <time>2021-08-19T10:07:07Z</time>
      </trkpt>
      <trkpt lat="41.711016" lon="1.093225">
        <ele>343.185</ele>
        <time>2021-08-19T10:07:10Z</time>
      </trkpt>
      <trkpt lat="41.711065" lon="1.093171">
        <ele>342.988</ele>
        <time>2021-08-19T10:07:13Z</time>
      </trkpt>
      <trkpt lat="41.711112" lon="1.093131">
        <ele>342.739</ele>
        <time>2021-08-19T10:07:16Z</time>
      </trkpt>
      <trkpt lat="41.711153" lon="1.093085">
        <ele>342.996</ele>
        <time>2021-08-19T10:07:19Z</time>
      </trkpt>
      <trkpt lat="41.711202" lon="1.093037">
        <ele>343.144</ele>
        <time>2021-08-19T10:07:22Z</time>
      </trkpt>
      <trkpt lat="41.711244" lon="1.093013">
        <ele>343.283</ele>
        <time>2021-08-19T10:07:24Z</time>
      </trkpt>
      <trkpt lat="41.711291" lon="1.092982">
        <ele>343.312</ele>
        <time>2021-08-19T10:07:26Z</time>
      </trkpt>
      <trkpt lat="41.711354" lon="1.092944">
        <ele>343.472</ele>
        <time>2021-08-19T10:07:28Z</time>
      </trkpt>
      <trkpt lat="41.711419" lon="1.092901">
        <ele>343.613</ele>
        <time>2021-08-19T10:07:30Z</time>
      </trkpt>
      <trkpt lat="41.711464" lon="1.092867">
        <ele>343.714</ele>
        <time>2021-08-19T10:07:32Z</time>
      </trkpt>
      <trkpt lat="41.711512" lon="1.092832">
        <ele>343.808</ele>
        <time>2021-08-19T10:07:33Z</time>
      </trkpt>
      <trkpt lat="41.711576" lon="1.092781">
        <ele>344.015</ele>
        <time>2021-08-19T10:07:35Z</time>
      </trkpt>
      <trkpt lat="41.711639" lon="1.092726">
        <ele>344.258</ele>
        <time>2021-08-19T10:07:37Z</time>
      </trkpt>
      <trkpt lat="41.711702" lon="1.092665">
        <ele>344.581</ele>
        <time>2021-08-19T10:07:39Z</time>
      </trkpt>
      <trkpt lat="41.711772" lon="1.092613">
        <ele>344.732</ele>
        <time>2021-08-19T10:07:41Z</time>
      </trkpt>
      <trkpt lat="41.711841" lon="1.092556">
        <ele>344.999</ele>
        <time>2021-08-19T10:07:43Z</time>
      </trkpt>
      <trkpt lat="41.711912" lon="1.092487">
        <ele>345.047</ele>
        <time>2021-08-19T10:07:45Z</time>
      </trkpt>
      <trkpt lat="41.711982" lon="1.092413">
        <ele>344.816</ele>
        <time>2021-08-19T10:07:47Z</time>
      </trkpt>
      <trkpt lat="41.712050" lon="1.092336">
        <ele>344.535</ele>
        <time>2021-08-19T10:07:49Z</time>
      </trkpt>
      <trkpt lat="41.712116" lon="1.092265">
        <ele>344.318</ele>
        <time>2021-08-19T10:07:51Z</time>
      </trkpt>
      <trkpt lat="41.712172" lon="1.092185">
        <ele>344.198</ele>
        <time>2021-08-19T10:07:53Z</time>
      </trkpt>
      <trkpt lat="41.712228" lon="1.092110">
        <ele>343.517</ele>
        <time>2021-08-19T10:07:55Z</time>
      </trkpt>
      <trkpt lat="41.712281" lon="1.092029">
        <ele>342.508</ele>
        <time>2021-08-19T10:07:57Z</time>
      </trkpt>
      <trkpt lat="41.712335" lon="1.091951">
        <ele>341.419</ele>
        <time>2021-08-19T10:07:59Z</time>
      </trkpt>
      <trkpt lat="41.712374" lon="1.091882">
        <ele>340.562</ele>
        <time>2021-08-19T10:08:01Z</time>
      </trkpt>
      <trkpt lat="41.712425" lon="1.091786">
        <ele>339.495</ele>
        <time>2021-08-19T10:08:03Z</time>
      </trkpt>
      <trkpt lat="41.712470" lon="1.091691">
        <ele>338.416</ele>
        <time>2021-08-19T10:08:05Z</time>
      </trkpt>
      <trkpt lat="41.712519" lon="1.091597">
        <ele>338.133</ele>
        <time>2021-08-19T10:08:07Z</time>
      </trkpt>
      <trkpt lat="41.712575" lon="1.091504">
        <ele>338.421</ele>
        <time>2021-08-19T10:08:09Z</time>
      </trkpt>
      <trkpt lat="41.712617" lon="1.091430">
        <ele>338.830</ele>
        <time>2021-08-19T10:08:11Z</time>
      </trkpt>
      <trkpt lat="41.712669" lon="1.091312">
        <ele>339.229</ele>
        <time>2021-08-19T10:08:13Z</time>
      </trkpt>
      <trkpt lat="41.712690" lon="1.091253">
        <ele>339.438</ele>
        <time>2021-08-19T10:08:14Z</time>
      </trkpt>
      <trkpt lat="41.712708" lon="1.091193">
        <ele>339.570</ele>
        <time>2021-08-19T10:08:15Z</time>
      </trkpt>
      <trkpt lat="41.712743" lon="1.091080">
        <ele>339.717</ele>
        <time>2021-08-19T10:08:17Z</time>
      </trkpt>
      <trkpt lat="41.712760" lon="1.091022">
        <ele>339.608</ele>
        <time>2021-08-19T10:08:18Z</time>
      </trkpt>
      <trkpt lat="41.712794" lon="1.090916">
        <ele>339.371</ele>
        <time>2021-08-19T10:08:20Z</time>
      </trkpt>
      <trkpt lat="41.712820" lon="1.090782">
        <ele>338.844</ele>
        <time>2021-08-19T10:08:22Z</time>
      </trkpt>
      <trkpt lat="41.712839" lon="1.090639">
        <ele>338.177</ele>
        <time>2021-08-19T10:08:24Z</time>
      </trkpt>
      <trkpt lat="41.712845" lon="1.090569">
        <ele>337.898</ele>
        <time>2021-08-19T10:08:25Z</time>
      </trkpt>
      <trkpt lat="41.712849" lon="1.090501">
        <ele>337.525</ele>
        <time>2021-08-19T10:08:26Z</time>
      </trkpt>
      <trkpt lat="41.712855" lon="1.090435">
        <ele>337.313</ele>
        <time>2021-08-19T10:08:27Z</time>
      </trkpt>
      <trkpt lat="41.712861" lon="1.090303">
        <ele>336.832</ele>
        <time>2021-08-19T10:08:29Z</time>
      </trkpt>
      <trkpt lat="41.712863" lon="1.090238">
        <ele>336.751</ele>
        <time>2021-08-19T10:08:30Z</time>
      </trkpt>
      <trkpt lat="41.712864" lon="1.090123">
        <ele>336.992</ele>
        <time>2021-08-19T10:08:32Z</time>
      </trkpt>
      <trkpt lat="41.712893" lon="1.090045">
        <ele>336.773</ele>
        <time>2021-08-19T10:08:34Z</time>
      </trkpt>
      <trkpt lat="41.712885" lon="1.089966">
        <ele>337.020</ele>
        <time>2021-08-19T10:08:35Z</time>
      </trkpt>
      <trkpt lat="41.712884" lon="1.089861">
        <ele>337.708</ele>
        <time>2021-08-19T10:08:37Z</time>
      </trkpt>
      <trkpt lat="41.712880" lon="1.089750">
        <ele>338.447</ele>
        <time>2021-08-19T10:08:39Z</time>
      </trkpt>
      <trkpt lat="41.712884" lon="1.089633">
        <ele>338.260</ele>
        <time>2021-08-19T10:08:41Z</time>
      </trkpt>
      <trkpt lat="41.712885" lon="1.089518">
        <ele>337.823</ele>
        <time>2021-08-19T10:08:43Z</time>
      </trkpt>
      <trkpt lat="41.712896" lon="1.089410">
        <ele>337.454</ele>
        <time>2021-08-19T10:08:45Z</time>
      </trkpt>
      <trkpt lat="41.712902" lon="1.089297">
        <ele>337.091</ele>
        <time>2021-08-19T10:08:47Z</time>
      </trkpt>
      <trkpt lat="41.712917" lon="1.089183">
        <ele>336.659</ele>
        <time>2021-08-19T10:08:49Z</time>
      </trkpt>
      <trkpt lat="41.712930" lon="1.089124">
        <ele>336.548</ele>
        <time>2021-08-19T10:08:50Z</time>
      </trkpt>
      <trkpt lat="41.712951" lon="1.089062">
        <ele>336.487</ele>
        <time>2021-08-19T10:08:51Z</time>
      </trkpt>
      <trkpt lat="41.712976" lon="1.088949">
        <ele>336.324</ele>
        <time>2021-08-19T10:08:53Z</time>
      </trkpt>
      <trkpt lat="41.713002" lon="1.088848">
        <ele>336.204</ele>
        <time>2021-08-19T10:08:55Z</time>
      </trkpt>
      <trkpt lat="41.713033" lon="1.088731">
        <ele>336.114</ele>
        <time>2021-08-19T10:08:57Z</time>
      </trkpt>
      <trkpt lat="41.713052" lon="1.088668">
        <ele>336.008</ele>
        <time>2021-08-19T10:08:58Z</time>
      </trkpt>
      <trkpt lat="41.713087" lon="1.088550">
        <ele>335.240</ele>
        <time>2021-08-19T10:09:00Z</time>
      </trkpt>
      <trkpt lat="41.713106" lon="1.088494">
        <ele>334.763</ele>
        <time>2021-08-19T10:09:01Z</time>
      </trkpt>
      <trkpt lat="41.713154" lon="1.088390">
        <ele>333.796</ele>
        <time>2021-08-19T10:09:03Z</time>
      </trkpt>
      <trkpt lat="41.713203" lon="1.088333">
        <ele>332.977</ele>
        <time>2021-08-19T10:09:05Z</time>
      </trkpt>
      <trkpt lat="41.713241" lon="1.088293">
        <ele>332.234</ele>
        <time>2021-08-19T10:09:06Z</time>
      </trkpt>
      <trkpt lat="41.713287" lon="1.088256">
        <ele>331.562</ele>
        <time>2021-08-19T10:09:07Z</time>
      </trkpt>
      <trkpt lat="41.713354" lon="1.088209">
        <ele>330.961</ele>
        <time>2021-08-19T10:09:09Z</time>
      </trkpt>
      <trkpt lat="41.713450" lon="1.088168">
        <ele>330.470</ele>
        <time>2021-08-19T10:09:11Z</time>
      </trkpt>
      <trkpt lat="41.713521" lon="1.088083">
        <ele>330.333</ele>
        <time>2021-08-19T10:09:13Z</time>
      </trkpt>
      <trkpt lat="41.713548" lon="1.088032">
        <ele>330.323</ele>
        <time>2021-08-19T10:09:14Z</time>
      </trkpt>
      <trkpt lat="41.713591" lon="1.087925">
        <ele>330.515</ele>
        <time>2021-08-19T10:09:16Z</time>
      </trkpt>
      <trkpt lat="41.713612" lon="1.087869">
        <ele>330.708</ele>
        <time>2021-08-19T10:09:17Z</time>
      </trkpt>
      <trkpt lat="41.713638" lon="1.087762">
        <ele>330.821</ele>
        <time>2021-08-19T10:09:19Z</time>
      </trkpt>
      <trkpt lat="41.713672" lon="1.087658">
        <ele>330.644</ele>
        <time>2021-08-19T10:09:21Z</time>
      </trkpt>
      <trkpt lat="41.713716" lon="1.087565">
        <ele>330.287</ele>
        <time>2021-08-19T10:09:23Z</time>
      </trkpt>
      <trkpt lat="41.713755" lon="1.087468">
        <ele>330.078</ele>
        <time>2021-08-19T10:09:25Z</time>
      </trkpt>
      <trkpt lat="41.713781" lon="1.087363">
        <ele>329.895</ele>
        <time>2021-08-19T10:09:27Z</time>
      </trkpt>
      <trkpt lat="41.713814" lon="1.087262">
        <ele>329.543</ele>
        <time>2021-08-19T10:09:29Z</time>
      </trkpt>
      <trkpt lat="41.713839" lon="1.087162">
        <ele>329.212</ele>
        <time>2021-08-19T10:09:31Z</time>
      </trkpt>
      <trkpt lat="41.713891" lon="1.087083">
        <ele>328.531</ele>
        <time>2021-08-19T10:09:33Z</time>
      </trkpt>
      <trkpt lat="41.713957" lon="1.087033">
        <ele>327.878</ele>
        <time>2021-08-19T10:09:35Z</time>
      </trkpt>
      <trkpt lat="41.714076" lon="1.086977">
        <ele>326.733</ele>
        <time>2021-08-19T10:09:38Z</time>
      </trkpt>
      <trkpt lat="41.714161" lon="1.086971">
        <ele>326.026</ele>
        <time>2021-08-19T10:09:40Z</time>
      </trkpt>
      <trkpt lat="41.714242" lon="1.086973">
        <ele>325.508</ele>
        <time>2021-08-19T10:09:42Z</time>
      </trkpt>
      <trkpt lat="41.714307" lon="1.086944">
        <ele>325.075</ele>
        <time>2021-08-19T10:09:44Z</time>
      </trkpt>
      <trkpt lat="41.714391" lon="1.086962">
        <ele>324.448</ele>
        <time>2021-08-19T10:09:46Z</time>
      </trkpt>
      <trkpt lat="41.714475" lon="1.086985">
        <ele>323.631</ele>
        <time>2021-08-19T10:09:48Z</time>
      </trkpt>
      <trkpt lat="41.714521" lon="1.086979">
        <ele>323.032</ele>
        <time>2021-08-19T10:09:49Z</time>
      </trkpt>
      <trkpt lat="41.714605" lon="1.086940">
        <ele>321.739</ele>
        <time>2021-08-19T10:09:51Z</time>
      </trkpt>
      <trkpt lat="41.714673" lon="1.086866">
        <ele>320.937</ele>
        <time>2021-08-19T10:09:53Z</time>
      </trkpt>
      <trkpt lat="41.714727" lon="1.086779">
        <ele>320.616</ele>
        <time>2021-08-19T10:09:55Z</time>
      </trkpt>
      <trkpt lat="41.714784" lon="1.086688">
        <ele>320.725</ele>
        <time>2021-08-19T10:09:57Z</time>
      </trkpt>
      <trkpt lat="41.714842" lon="1.086602">
        <ele>320.883</ele>
        <time>2021-08-19T10:09:59Z</time>
      </trkpt>
      <trkpt lat="41.714905" lon="1.086554">
        <ele>320.725</ele>
        <time>2021-08-19T10:10:01Z</time>
      </trkpt>
      <trkpt lat="41.714970" lon="1.086516">
        <ele>320.617</ele>
        <time>2021-08-19T10:10:03Z</time>
      </trkpt>
      <trkpt lat="41.715029" lon="1.086488">
        <ele>320.608</ele>
        <time>2021-08-19T10:10:05Z</time>
      </trkpt>
      <trkpt lat="41.715082" lon="1.086451">
        <ele>320.846</ele>
        <time>2021-08-19T10:10:07Z</time>
      </trkpt>
      <trkpt lat="41.715143" lon="1.086400">
        <ele>321.069</ele>
        <time>2021-08-19T10:10:09Z</time>
      </trkpt>
      <trkpt lat="41.715188" lon="1.086353">
        <ele>321.212</ele>
        <time>2021-08-19T10:10:11Z</time>
      </trkpt>
      <trkpt lat="41.715233" lon="1.086305">
        <ele>321.413</ele>
        <time>2021-08-19T10:10:13Z</time>
      </trkpt>
      <trkpt lat="41.715283" lon="1.086238">
        <ele>321.520</ele>
        <time>2021-08-19T10:10:15Z</time>
      </trkpt>
      <trkpt lat="41.715339" lon="1.086161">
        <ele>321.658</ele>
        <time>2021-08-19T10:10:17Z</time>
      </trkpt>
      <trkpt lat="41.715400" lon="1.086080">
        <ele>321.727</ele>
        <time>2021-08-19T10:10:19Z</time>
      </trkpt>
      <trkpt lat="41.715444" lon="1.086028">
        <ele>321.876</ele>
        <time>2021-08-19T10:10:21Z</time>
      </trkpt>
      <trkpt lat="41.715449" lon="1.085960">
        <ele>322.113</ele>
        <time>2021-08-19T10:11:57Z</time>
      </trkpt>
      <trkpt lat="41.715430" lon="1.085901">
        <ele>322.643</ele>
        <time>2021-08-19T10:11:59Z</time>
      </trkpt>
      <trkpt lat="41.715387" lon="1.085857">
        <ele>323.107</ele>
        <time>2021-08-19T10:12:01Z</time>
      </trkpt>
      <trkpt lat="41.715347" lon="1.085812">
        <ele>323.508</ele>
        <time>2021-08-19T10:12:03Z</time>
      </trkpt>
      <trkpt lat="41.715301" lon="1.085763">
        <ele>323.869</ele>
        <time>2021-08-19T10:12:05Z</time>
      </trkpt>
      <trkpt lat="41.715267" lon="1.085714">
        <ele>324.062</ele>
        <time>2021-08-19T10:12:06Z</time>
      </trkpt>
      <trkpt lat="41.715226" lon="1.085645">
        <ele>324.135</ele>
        <time>2021-08-19T10:12:08Z</time>
      </trkpt>
      <trkpt lat="41.715194" lon="1.085599">
        <ele>324.396</ele>
        <time>2021-08-19T10:12:10Z</time>
      </trkpt>
      <trkpt lat="41.715155" lon="1.085548">
        <ele>324.483</ele>
        <time>2021-08-19T10:12:12Z</time>
      </trkpt>
      <trkpt lat="41.715120" lon="1.085507">
        <ele>324.681</ele>
        <time>2021-08-19T10:12:14Z</time>
      </trkpt>
      <trkpt lat="41.715082" lon="1.085470">
        <ele>324.770</ele>
        <time>2021-08-19T10:12:16Z</time>
      </trkpt>
      <trkpt lat="41.715043" lon="1.085430">
        <ele>324.839</ele>
        <time>2021-08-19T10:12:18Z</time>
      </trkpt>
      <trkpt lat="41.714988" lon="1.085379">
        <ele>324.918</ele>
        <time>2021-08-19T10:12:20Z</time>
      </trkpt>
      <trkpt lat="41.714950" lon="1.085331">
        <ele>324.898</ele>
        <time>2021-08-19T10:12:22Z</time>
      </trkpt>
      <trkpt lat="41.714905" lon="1.085278">
        <ele>324.717</ele>
        <time>2021-08-19T10:12:24Z</time>
      </trkpt>
      <trkpt lat="41.714867" lon="1.085232">
        <ele>324.408</ele>
        <time>2021-08-19T10:12:26Z</time>
      </trkpt>
      <trkpt lat="41.714831" lon="1.085187">
        <ele>324.219</ele>
        <time>2021-08-19T10:12:28Z</time>
      </trkpt>
      <trkpt lat="41.714797" lon="1.085144">
        <ele>323.932</ele>
        <time>2021-08-19T10:12:30Z</time>
      </trkpt>
      <trkpt lat="41.714767" lon="1.085099">
        <ele>323.645</ele>
        <time>2021-08-19T10:12:33Z</time>
      </trkpt>
      <trkpt lat="41.714731" lon="1.085060">
        <ele>323.336</ele>
        <time>2021-08-19T10:12:36Z</time>
      </trkpt>
      <trkpt lat="41.714691" lon="1.085016">
        <ele>323.273</ele>
        <time>2021-08-19T10:12:38Z</time>
      </trkpt>
      <trkpt lat="41.714656" lon="1.084977">
        <ele>323.251</ele>
        <time>2021-08-19T10:12:40Z</time>
      </trkpt>
      <trkpt lat="41.714619" lon="1.084938">
        <ele>323.390</ele>
        <time>2021-08-19T10:12:42Z</time>
      </trkpt>
      <trkpt lat="41.714582" lon="1.084893">
        <ele>323.379</ele>
        <time>2021-08-19T10:12:45Z</time>
      </trkpt>
      <trkpt lat="41.714543" lon="1.084847">
        <ele>323.345</ele>
        <time>2021-08-19T10:12:47Z</time>
      </trkpt>
      <trkpt lat="41.714507" lon="1.084806">
        <ele>323.247</ele>
        <time>2021-08-19T10:12:49Z</time>
      </trkpt>
      <trkpt lat="41.714468" lon="1.084765">
        <ele>323.111</ele>
        <time>2021-08-19T10:12:51Z</time>
      </trkpt>
      <trkpt lat="41.714419" lon="1.084703">
        <ele>322.908</ele>
        <time>2021-08-19T10:12:54Z</time>
      </trkpt>
      <trkpt lat="41.714383" lon="1.084663">
        <ele>322.882</ele>
        <time>2021-08-19T10:12:56Z</time>
      </trkpt>
      <trkpt lat="41.714346" lon="1.084626">
        <ele>322.855</ele>
        <time>2021-08-19T10:12:58Z</time>
      </trkpt>
      <trkpt lat="41.714305" lon="1.084573">
        <ele>322.748</ele>
        <time>2021-08-19T10:13:00Z</time>
      </trkpt>
      <trkpt lat="41.714268" lon="1.084533">
        <ele>322.889</ele>
        <time>2021-08-19T10:13:02Z</time>
      </trkpt>
      <trkpt lat="41.714230" lon="1.084486">
        <ele>322.846</ele>
        <time>2021-08-19T10:13:04Z</time>
      </trkpt>
      <trkpt lat="41.714191" lon="1.084440">
        <ele>322.974</ele>
        <time>2021-08-19T10:13:06Z</time>
      </trkpt>
      <trkpt lat="41.714154" lon="1.084395">
        <ele>322.913</ele>
        <time>2021-08-19T10:13:08Z</time>
      </trkpt>
      <trkpt lat="41.714118" lon="1.084357">
        <ele>322.962</ele>
        <time>2021-08-19T10:13:10Z</time>
      </trkpt>
      <trkpt lat="41.714082" lon="1.084314">
        <ele>323.098</ele>
        <time>2021-08-19T10:13:12Z</time>
      </trkpt>
      <trkpt lat="41.714047" lon="1.084270">
        <ele>323.115</ele>
        <time>2021-08-19T10:13:14Z</time>
      </trkpt>
      <trkpt lat="41.714005" lon="1.084218">
        <ele>323.226</ele>
        <time>2021-08-19T10:13:17Z</time>
      </trkpt>
      <trkpt lat="41.713980" lon="1.084160">
        <ele>323.408</ele>
        <time>2021-08-19T10:13:20Z</time>
      </trkpt>
      <trkpt lat="41.713962" lon="1.084089">
        <ele>323.587</ele>
        <time>2021-08-19T10:13:24Z</time>
      </trkpt>
      <trkpt lat="41.713944" lon="1.084028">
        <ele>323.780</ele>
        <time>2021-08-19T10:14:23Z</time>
      </trkpt>
      <trkpt lat="41.713892" lon="1.084052">
        <ele>324.063</ele>
        <time>2021-08-19T10:17:04Z</time>
      </trkpt>
      <trkpt lat="41.713844" lon="1.084050">
        <ele>324.184</ele>
        <time>2021-08-19T10:17:09Z</time>
      </trkpt>
      <trkpt lat="41.713812" lon="1.083991">
        <ele>324.181</ele>
        <time>2021-08-19T10:20:44Z</time>
      </trkpt>
      <trkpt lat="41.713772" lon="1.083949">
        <ele>324.199</ele>
        <time>2021-08-19T10:20:46Z</time>
      </trkpt>
      <trkpt lat="41.713734" lon="1.083900">
        <ele>324.068</ele>
        <time>2021-08-19T10:20:48Z</time>
      </trkpt>
      <trkpt lat="41.713693" lon="1.083855">
        <ele>324.057</ele>
        <time>2021-08-19T10:20:50Z</time>
      </trkpt>
      <trkpt lat="41.713650" lon="1.083818">
        <ele>324.096</ele>
        <time>2021-08-19T10:20:53Z</time>
      </trkpt>
      <trkpt lat="41.713613" lon="1.083771">
        <ele>324.031</ele>
        <time>2021-08-19T10:20:54Z</time>
      </trkpt>
      <trkpt lat="41.713574" lon="1.083721">
        <ele>324.124</ele>
        <time>2021-08-19T10:20:56Z</time>
      </trkpt>
      <trkpt lat="41.713537" lon="1.083681">
        <ele>324.108</ele>
        <time>2021-08-19T10:20:58Z</time>
      </trkpt>
      <trkpt lat="41.713481" lon="1.083630">
        <ele>324.057</ele>
        <time>2021-08-19T10:21:00Z</time>
      </trkpt>
      <trkpt lat="41.713435" lon="1.083572">
        <ele>324.190</ele>
        <time>2021-08-19T10:21:03Z</time>
      </trkpt>
      <trkpt lat="41.713395" lon="1.083526">
        <ele>324.223</ele>
        <time>2021-08-19T10:21:06Z</time>
      </trkpt>
      <trkpt lat="41.713354" lon="1.083471">
        <ele>324.524</ele>
        <time>2021-08-19T10:21:08Z</time>
      </trkpt>
      <trkpt lat="41.713323" lon="1.083426">
        <ele>324.791</ele>
        <time>2021-08-19T10:21:10Z</time>
      </trkpt>
      <trkpt lat="41.713289" lon="1.083385">
        <ele>324.869</ele>
        <time>2021-08-19T10:21:12Z</time>
      </trkpt>
      <trkpt lat="41.713249" lon="1.083337">
        <ele>325.098</ele>
        <time>2021-08-19T10:21:14Z</time>
      </trkpt>
      <trkpt lat="41.713220" lon="1.083278">
        <ele>324.967</ele>
        <time>2021-08-19T10:21:16Z</time>
      </trkpt>
      <trkpt lat="41.713198" lon="1.083215">
        <ele>324.829</ele>
        <time>2021-08-19T10:21:18Z</time>
      </trkpt>
      <trkpt lat="41.713177" lon="1.083145">
        <ele>324.600</ele>
        <time>2021-08-19T10:21:20Z</time>
      </trkpt>
      <trkpt lat="41.713160" lon="1.083069">
        <ele>324.420</ele>
        <time>2021-08-19T10:21:22Z</time>
      </trkpt>
      <trkpt lat="41.713142" lon="1.082992">
        <ele>324.208</ele>
        <time>2021-08-19T10:21:24Z</time>
      </trkpt>
      <trkpt lat="41.713132" lon="1.082923">
        <ele>324.190</ele>
        <time>2021-08-19T10:21:26Z</time>
      </trkpt>
      <trkpt lat="41.713111" lon="1.082866">
        <ele>324.193</ele>
        <time>2021-08-19T10:21:28Z</time>
      </trkpt>
      <trkpt lat="41.713096" lon="1.082804">
        <ele>324.086</ele>
        <time>2021-08-19T10:21:30Z</time>
      </trkpt>
      <trkpt lat="41.713076" lon="1.082744">
        <ele>324.027</ele>
        <time>2021-08-19T10:21:32Z</time>
      </trkpt>
      <trkpt lat="41.713054" lon="1.082686">
        <ele>324.024</ele>
        <time>2021-08-19T10:21:34Z</time>
      </trkpt>
      <trkpt lat="41.713018" lon="1.082611">
        <ele>323.862</ele>
        <time>2021-08-19T10:21:37Z</time>
      </trkpt>
      <trkpt lat="41.713001" lon="1.082553">
        <ele>323.881</ele>
        <time>2021-08-19T10:21:39Z</time>
      </trkpt>
      <trkpt lat="41.712975" lon="1.082502">
        <ele>323.740</ele>
        <time>2021-08-19T10:21:41Z</time>
      </trkpt>
      <trkpt lat="41.712948" lon="1.082449">
        <ele>323.651</ele>
        <time>2021-08-19T10:21:43Z</time>
      </trkpt>
      <trkpt lat="41.712925" lon="1.082393">
        <ele>323.501</ele>
        <time>2021-08-19T10:21:45Z</time>
      </trkpt>
      <trkpt lat="41.712894" lon="1.082314">
        <ele>323.411</ele>
        <time>2021-08-19T10:21:48Z</time>
      </trkpt>
      <trkpt lat="41.712869" lon="1.082262">
        <ele>323.308</ele>
        <time>2021-08-19T10:21:50Z</time>
      </trkpt>
      <trkpt lat="41.712841" lon="1.082215">
        <ele>323.273</ele>
        <time>2021-08-19T10:21:52Z</time>
      </trkpt>
      <trkpt lat="41.712815" lon="1.082164">
        <ele>323.126</ele>
        <time>2021-08-19T10:21:54Z</time>
      </trkpt>
      <trkpt lat="41.712788" lon="1.082107">
        <ele>323.089</ele>
        <time>2021-08-19T10:21:56Z</time>
      </trkpt>
      <trkpt lat="41.712757" lon="1.082047">
        <ele>322.910</ele>
        <time>2021-08-19T10:21:58Z</time>
      </trkpt>
      <trkpt lat="41.712730" lon="1.081979">
        <ele>322.747</ele>
        <time>2021-08-19T10:22:00Z</time>
      </trkpt>
      <trkpt lat="41.712694" lon="1.081909">
        <ele>322.425</ele>
        <time>2021-08-19T10:22:02Z</time>
      </trkpt>
      <trkpt lat="41.712651" lon="1.081835">
        <ele>322.184</ele>
        <time>2021-08-19T10:22:04Z</time>
      </trkpt>
      <trkpt lat="41.712617" lon="1.081755">
        <ele>321.843</ele>
        <time>2021-08-19T10:22:06Z</time>
      </trkpt>
      <trkpt lat="41.712575" lon="1.081657">
        <ele>321.579</ele>
        <time>2021-08-19T10:22:08Z</time>
      </trkpt>
      <trkpt lat="41.712539" lon="1.081561">
        <ele>320.205</ele>
        <time>2021-08-19T10:22:10Z</time>
      </trkpt>
      <trkpt lat="41.712518" lon="1.081484">
        <ele>319.225</ele>
        <time>2021-08-19T10:22:12Z</time>
      </trkpt>
      <trkpt lat="41.712500" lon="1.081425">
        <ele>318.408</ele>
        <time>2021-08-19T10:22:14Z</time>
      </trkpt>
      <trkpt lat="41.712486" lon="1.081366">
        <ele>317.895</ele>
        <time>2021-08-19T10:22:16Z</time>
      </trkpt>
      <trkpt lat="41.712477" lon="1.081284">
        <ele>317.148</ele>
        <time>2021-08-19T10:22:19Z</time>
      </trkpt>
      <trkpt lat="41.712444" lon="1.081221">
        <ele>316.551</ele>
        <time>2021-08-19T10:22:23Z</time>
      </trkpt>
      <trkpt lat="41.712427" lon="1.081159">
        <ele>315.912</ele>
        <time>2021-08-19T10:22:26Z</time>
      </trkpt>
      <trkpt lat="41.712408" lon="1.081089">
        <ele>315.329</ele>
        <time>2021-08-19T10:22:29Z</time>
      </trkpt>
      <trkpt lat="41.712390" lon="1.081004">
        <ele>314.827</ele>
        <time>2021-08-19T10:22:31Z</time>
      </trkpt>
      <trkpt lat="41.712377" lon="1.080868">
        <ele>314.216</ele>
        <time>2021-08-19T10:22:33Z</time>
      </trkpt>
      <trkpt lat="41.712366" lon="1.080805">
        <ele>314.265</ele>
        <time>2021-08-19T10:22:34Z</time>
      </trkpt>
      <trkpt lat="41.712347" lon="1.080703">
        <ele>314.665</ele>
        <time>2021-08-19T10:22:36Z</time>
      </trkpt>
      <trkpt lat="41.712330" lon="1.080626">
        <ele>315.068</ele>
        <time>2021-08-19T10:22:38Z</time>
      </trkpt>
      <trkpt lat="41.712308" lon="1.080573">
        <ele>315.214</ele>
        <time>2021-08-19T10:22:39Z</time>
      </trkpt>
      <trkpt lat="41.712278" lon="1.080503">
        <ele>315.408</ele>
        <time>2021-08-19T10:22:40Z</time>
      </trkpt>
      <trkpt lat="41.712244" lon="1.080413">
        <ele>315.624</ele>
        <time>2021-08-19T10:22:42Z</time>
      </trkpt>
      <trkpt lat="41.712220" lon="1.080334">
        <ele>315.897</ele>
        <time>2021-08-19T10:22:44Z</time>
      </trkpt>
      <trkpt lat="41.712198" lon="1.080265">
        <ele>315.710</ele>
        <time>2021-08-19T10:22:46Z</time>
      </trkpt>
      <trkpt lat="41.712176" lon="1.080197">
        <ele>315.511</ele>
        <time>2021-08-19T10:22:48Z</time>
      </trkpt>
      <trkpt lat="41.712162" lon="1.080127">
        <ele>315.228</ele>
        <time>2021-08-19T10:22:50Z</time>
      </trkpt>
      <trkpt lat="41.712149" lon="1.080063">
        <ele>315.096</ele>
        <time>2021-08-19T10:22:52Z</time>
      </trkpt>
      <trkpt lat="41.712119" lon="1.079996">
        <ele>314.525</ele>
        <time>2021-08-19T10:22:54Z</time>
      </trkpt>
      <trkpt lat="41.712082" lon="1.079933">
        <ele>314.584</ele>
        <time>2021-08-19T10:22:56Z</time>
      </trkpt>
      <trkpt lat="41.712038" lon="1.079874">
        <ele>314.384</ele>
        <time>2021-08-19T10:22:58Z</time>
      </trkpt>
      <trkpt lat="41.711991" lon="1.079827">
        <ele>313.907</ele>
        <time>2021-08-19T10:23:00Z</time>
      </trkpt>
      <trkpt lat="41.711937" lon="1.079786">
        <ele>313.617</ele>
        <time>2021-08-19T10:23:02Z</time>
      </trkpt>
      <trkpt lat="41.711888" lon="1.079745">
        <ele>313.908</ele>
        <time>2021-08-19T10:23:04Z</time>
      </trkpt>
      <trkpt lat="41.711851" lon="1.079700">
        <ele>314.196</ele>
        <time>2021-08-19T10:23:06Z</time>
      </trkpt>
      <trkpt lat="41.711791" lon="1.079638">
        <ele>314.489</ele>
        <time>2021-08-19T10:23:08Z</time>
      </trkpt>
      <trkpt lat="41.711742" lon="1.079574">
        <ele>314.782</ele>
        <time>2021-08-19T10:23:10Z</time>
      </trkpt>
      <trkpt lat="41.711701" lon="1.079497">
        <ele>314.923</ele>
        <time>2021-08-19T10:23:12Z</time>
      </trkpt>
      <trkpt lat="41.711659" lon="1.079420">
        <ele>315.150</ele>
        <time>2021-08-19T10:23:14Z</time>
      </trkpt>
      <trkpt lat="41.711629" lon="1.079339">
        <ele>315.388</ele>
        <time>2021-08-19T10:23:16Z</time>
      </trkpt>
      <trkpt lat="41.711603" lon="1.079254">
        <ele>315.587</ele>
        <time>2021-08-19T10:23:18Z</time>
      </trkpt>
      <trkpt lat="41.711576" lon="1.079179">
        <ele>315.696</ele>
        <time>2021-08-19T10:23:20Z</time>
      </trkpt>
      <trkpt lat="41.711553" lon="1.079105">
        <ele>315.254</ele>
        <time>2021-08-19T10:23:22Z</time>
      </trkpt>
      <trkpt lat="41.711536" lon="1.079035">
        <ele>314.856</ele>
        <time>2021-08-19T10:23:24Z</time>
      </trkpt>
      <trkpt lat="41.711515" lon="1.078974">
        <ele>314.411</ele>
        <time>2021-08-19T10:23:26Z</time>
      </trkpt>
      <trkpt lat="41.711498" lon="1.078894">
        <ele>314.008</ele>
        <time>2021-08-19T10:23:28Z</time>
      </trkpt>
      <trkpt lat="41.711473" lon="1.078818">
        <ele>313.633</ele>
        <time>2021-08-19T10:23:30Z</time>
      </trkpt>
      <trkpt lat="41.711445" lon="1.078745">
        <ele>313.136</ele>
        <time>2021-08-19T10:23:32Z</time>
      </trkpt>
      <trkpt lat="41.711419" lon="1.078680">
        <ele>312.659</ele>
        <time>2021-08-19T10:23:34Z</time>
      </trkpt>
      <trkpt lat="41.711397" lon="1.078598">
        <ele>312.050</ele>
        <time>2021-08-19T10:23:37Z</time>
      </trkpt>
      <trkpt lat="41.711371" lon="1.078508">
        <ele>312.197</ele>
        <time>2021-08-19T10:23:39Z</time>
      </trkpt>
      <trkpt lat="41.711348" lon="1.078425">
        <ele>312.195</ele>
        <time>2021-08-19T10:23:41Z</time>
      </trkpt>
      <trkpt lat="41.711331" lon="1.078330">
        <ele>312.214</ele>
        <time>2021-08-19T10:23:43Z</time>
      </trkpt>
      <trkpt lat="41.711312" lon="1.078238">
        <ele>312.433</ele>
        <time>2021-08-19T10:23:45Z</time>
      </trkpt>
      <trkpt lat="41.711307" lon="1.078144">
        <ele>312.638</ele>
        <time>2021-08-19T10:23:47Z</time>
      </trkpt>
      <trkpt lat="41.711297" lon="1.078051">
        <ele>312.770</ele>
        <time>2021-08-19T10:23:49Z</time>
      </trkpt>
      <trkpt lat="41.711287" lon="1.077962">
        <ele>312.817</ele>
        <time>2021-08-19T10:23:51Z</time>
      </trkpt>
      <trkpt lat="41.711273" lon="1.077877">
        <ele>313.008</ele>
        <time>2021-08-19T10:23:53Z</time>
      </trkpt>
      <trkpt lat="41.711266" lon="1.077812">
        <ele>313.071</ele>
        <time>2021-08-19T10:23:55Z</time>
      </trkpt>
      <trkpt lat="41.711252" lon="1.077711">
        <ele>313.064</ele>
        <time>2021-08-19T10:23:57Z</time>
      </trkpt>
      <trkpt lat="41.711236" lon="1.077629">
        <ele>312.937</ele>
        <time>2021-08-19T10:23:59Z</time>
      </trkpt>
      <trkpt lat="41.711225" lon="1.077561">
        <ele>312.818</ele>
        <time>2021-08-19T10:24:01Z</time>
      </trkpt>
      <trkpt lat="41.711212" lon="1.077484">
        <ele>312.795</ele>
        <time>2021-08-19T10:24:03Z</time>
      </trkpt>
      <trkpt lat="41.711196" lon="1.077413">
        <ele>312.633</ele>
        <time>2021-08-19T10:24:05Z</time>
      </trkpt>
      <trkpt lat="41.711186" lon="1.077349">
        <ele>312.562</ele>
        <time>2021-08-19T10:24:07Z</time>
      </trkpt>
      <trkpt lat="41.711176" lon="1.077265">
        <ele>312.561</ele>
        <time>2021-08-19T10:24:09Z</time>
      </trkpt>
      <trkpt lat="41.711160" lon="1.077188">
        <ele>312.469</ele>
        <time>2021-08-19T10:24:11Z</time>
      </trkpt>
      <trkpt lat="41.711150" lon="1.077115">
        <ele>312.304</ele>
        <time>2021-08-19T10:24:13Z</time>
      </trkpt>
      <trkpt lat="41.711135" lon="1.077043">
        <ele>312.224</ele>
        <time>2021-08-19T10:24:15Z</time>
      </trkpt>
      <trkpt lat="41.711125" lon="1.076980">
        <ele>312.108</ele>
        <time>2021-08-19T10:24:17Z</time>
      </trkpt>
      <trkpt lat="41.711111" lon="1.076913">
        <ele>312.054</ele>
        <time>2021-08-19T10:24:19Z</time>
      </trkpt>
      <trkpt lat="41.711098" lon="1.076839">
        <ele>311.937</ele>
        <time>2021-08-19T10:24:21Z</time>
      </trkpt>
      <trkpt lat="41.711083" lon="1.076767">
        <ele>311.780</ele>
        <time>2021-08-19T10:24:23Z</time>
      </trkpt>
      <trkpt lat="41.711066" lon="1.076698">
        <ele>311.581</ele>
        <time>2021-08-19T10:24:25Z</time>
      </trkpt>
      <trkpt lat="41.711052" lon="1.076627">
        <ele>311.568</ele>
        <time>2021-08-19T10:24:27Z</time>
      </trkpt>
      <trkpt lat="41.711035" lon="1.076556">
        <ele>311.616</ele>
        <time>2021-08-19T10:24:29Z</time>
      </trkpt>
      <trkpt lat="41.711020" lon="1.076485">
        <ele>311.725</ele>
        <time>2021-08-19T10:24:31Z</time>
      </trkpt>
      <trkpt lat="41.710996" lon="1.076425">
        <ele>311.644</ele>
        <time>2021-08-19T10:24:33Z</time>
      </trkpt>
      <trkpt lat="41.710981" lon="1.076354">
        <ele>311.771</ele>
        <time>2021-08-19T10:24:35Z</time>
      </trkpt>
      <trkpt lat="41.710953" lon="1.076264">
        <ele>311.541</ele>
        <time>2021-08-19T10:24:38Z</time>
      </trkpt>
      <trkpt lat="41.710936" lon="1.076201">
        <ele>311.415</ele>
        <time>2021-08-19T10:24:40Z</time>
      </trkpt>
      <trkpt lat="41.710926" lon="1.076141">
        <ele>311.308</ele>
        <time>2021-08-19T10:24:42Z</time>
      </trkpt>
      <trkpt lat="41.710921" lon="1.076075">
        <ele>311.375</ele>
        <time>2021-08-19T10:24:44Z</time>
      </trkpt>
      <trkpt lat="41.710901" lon="1.076017">
        <ele>311.178</ele>
        <time>2021-08-19T10:24:46Z</time>
      </trkpt>
      <trkpt lat="41.710883" lon="1.075951">
        <ele>310.851</ele>
        <time>2021-08-19T10:24:48Z</time>
      </trkpt>
      <trkpt lat="41.710867" lon="1.075892">
        <ele>310.632</ele>
        <time>2021-08-19T10:24:50Z</time>
      </trkpt>
      <trkpt lat="41.710843" lon="1.075833">
        <ele>310.259</ele>
        <time>2021-08-19T10:24:52Z</time>
      </trkpt>
      <trkpt lat="41.710814" lon="1.075762">
        <ele>309.927</ele>
        <time>2021-08-19T10:24:54Z</time>
      </trkpt>
      <trkpt lat="41.710780" lon="1.075691">
        <ele>309.696</ele>
        <time>2021-08-19T10:24:56Z</time>
      </trkpt>
      <trkpt lat="41.710737" lon="1.075632">
        <ele>309.375</ele>
        <time>2021-08-19T10:24:58Z</time>
      </trkpt>
      <trkpt lat="41.710693" lon="1.075563">
        <ele>309.055</ele>
        <time>2021-08-19T10:25:00Z</time>
      </trkpt>
      <trkpt lat="41.710647" lon="1.075502">
        <ele>308.707</ele>
        <time>2021-08-19T10:25:02Z</time>
      </trkpt>
      <trkpt lat="41.710604" lon="1.075449">
        <ele>308.417</ele>
        <time>2021-08-19T10:25:04Z</time>
      </trkpt>
      <trkpt lat="41.710568" lon="1.075402">
        <ele>308.108</ele>
        <time>2021-08-19T10:25:06Z</time>
      </trkpt>
      <trkpt lat="41.710521" lon="1.075359">
        <ele>307.883</ele>
        <time>2021-08-19T10:25:08Z</time>
      </trkpt>
      <trkpt lat="41.710464" lon="1.075320">
        <ele>307.416</ele>
        <time>2021-08-19T10:25:10Z</time>
      </trkpt>
      <trkpt lat="41.710403" lon="1.075282">
        <ele>306.989</ele>
        <time>2021-08-19T10:25:12Z</time>
      </trkpt>
      <trkpt lat="41.710342" lon="1.075251">
        <ele>306.550</ele>
        <time>2021-08-19T10:25:14Z</time>
      </trkpt>
      <trkpt lat="41.710289" lon="1.075207">
        <ele>306.137</ele>
        <time>2021-08-19T10:25:16Z</time>
      </trkpt>
      <trkpt lat="41.710229" lon="1.075180">
        <ele>305.975</ele>
        <time>2021-08-19T10:25:18Z</time>
      </trkpt>
      <trkpt lat="41.710173" lon="1.075150">
        <ele>305.824</ele>
        <time>2021-08-19T10:25:20Z</time>
      </trkpt>
      <trkpt lat="41.710118" lon="1.075128">
        <ele>305.713</ele>
        <time>2021-08-19T10:25:22Z</time>
      </trkpt>
      <trkpt lat="41.710064" lon="1.075112">
        <ele>305.518</ele>
        <time>2021-08-19T10:25:24Z</time>
      </trkpt>
      <trkpt lat="41.710010" lon="1.075111">
        <ele>305.498</ele>
        <time>2021-08-19T10:25:26Z</time>
      </trkpt>
      <trkpt lat="41.709956" lon="1.075126">
        <ele>305.417</ele>
        <time>2021-08-19T10:25:28Z</time>
      </trkpt>
      <trkpt lat="41.709908" lon="1.075136">
        <ele>305.308</ele>
        <time>2021-08-19T10:25:30Z</time>
      </trkpt>
      <trkpt lat="41.709861" lon="1.075144">
        <ele>305.399</ele>
        <time>2021-08-19T10:25:32Z</time>
      </trkpt>
      <trkpt lat="41.709808" lon="1.075152">
        <ele>305.222</ele>
        <time>2021-08-19T10:25:34Z</time>
      </trkpt>
      <trkpt lat="41.709755" lon="1.075145">
        <ele>305.145</ele>
        <time>2021-08-19T10:25:37Z</time>
      </trkpt>
      <trkpt lat="41.709697" lon="1.075128">
        <ele>305.286</ele>
        <time>2021-08-19T10:25:39Z</time>
      </trkpt>
      <trkpt lat="41.709631" lon="1.075119">
        <ele>305.883</ele>
        <time>2021-08-19T10:25:42Z</time>
      </trkpt>
      <trkpt lat="41.709587" lon="1.075103">
        <ele>306.281</ele>
        <time>2021-08-19T10:25:44Z</time>
      </trkpt>
      <trkpt lat="41.709534" lon="1.075083">
        <ele>306.690</ele>
        <time>2021-08-19T10:25:46Z</time>
      </trkpt>
      <trkpt lat="41.709481" lon="1.075030">
        <ele>306.879</ele>
        <time>2021-08-19T10:25:48Z</time>
      </trkpt>
      <trkpt lat="41.709435" lon="1.074968">
        <ele>307.178</ele>
        <time>2021-08-19T10:25:50Z</time>
      </trkpt>
      <trkpt lat="41.709393" lon="1.074913">
        <ele>307.533</ele>
        <time>2021-08-19T10:25:52Z</time>
      </trkpt>
      <trkpt lat="41.709342" lon="1.074858">
        <ele>307.926</ele>
        <time>2021-08-19T10:25:55Z</time>
      </trkpt>
      <trkpt lat="41.709288" lon="1.074805">
        <ele>308.308</ele>
        <time>2021-08-19T10:25:58Z</time>
      </trkpt>
      <trkpt lat="41.709248" lon="1.074761">
        <ele>308.555</ele>
        <time>2021-08-19T10:26:00Z</time>
      </trkpt>
      <trkpt lat="41.709203" lon="1.074698">
        <ele>308.758</ele>
        <time>2021-08-19T10:26:02Z</time>
      </trkpt>
      <trkpt lat="41.709152" lon="1.074632">
        <ele>308.651</ele>
        <time>2021-08-19T10:26:04Z</time>
      </trkpt>
      <trkpt lat="41.709111" lon="1.074554">
        <ele>308.282</ele>
        <time>2021-08-19T10:26:06Z</time>
      </trkpt>
      <trkpt lat="41.709072" lon="1.074485">
        <ele>307.839</ele>
        <time>2021-08-19T10:26:08Z</time>
      </trkpt>
      <trkpt lat="41.709032" lon="1.074414">
        <ele>307.387</ele>
        <time>2021-08-19T10:26:09Z</time>
      </trkpt>
      <trkpt lat="41.708980" lon="1.074322">
        <ele>306.476</ele>
        <time>2021-08-19T10:26:11Z</time>
      </trkpt>
      <trkpt lat="41.708933" lon="1.074229">
        <ele>305.635</ele>
        <time>2021-08-19T10:26:13Z</time>
      </trkpt>
      <trkpt lat="41.708888" lon="1.074141">
        <ele>305.028</ele>
        <time>2021-08-19T10:26:15Z</time>
      </trkpt>
      <trkpt lat="41.708839" lon="1.074063">
        <ele>304.989</ele>
        <time>2021-08-19T10:26:17Z</time>
      </trkpt>
      <trkpt lat="41.708794" lon="1.073985">
        <ele>304.817</ele>
        <time>2021-08-19T10:26:19Z</time>
      </trkpt>
      <trkpt lat="41.708748" lon="1.073908">
        <ele>304.508</ele>
        <time>2021-08-19T10:26:21Z</time>
      </trkpt>
      <trkpt lat="41.708699" lon="1.073841">
        <ele>304.350</ele>
        <time>2021-08-19T10:26:23Z</time>
      </trkpt>
      <trkpt lat="41.708655" lon="1.073770">
        <ele>304.243</ele>
        <time>2021-08-19T10:26:25Z</time>
      </trkpt>
      <trkpt lat="41.708602" lon="1.073704">
        <ele>304.096</ele>
        <time>2021-08-19T10:26:27Z</time>
      </trkpt>
      <trkpt lat="41.708548" lon="1.073653">
        <ele>304.067</ele>
        <time>2021-08-19T10:26:29Z</time>
      </trkpt>
      <trkpt lat="41.708489" lon="1.073617">
        <ele>304.014</ele>
        <time>2021-08-19T10:26:31Z</time>
      </trkpt>
      <trkpt lat="41.708432" lon="1.073582">
        <ele>303.852</ele>
        <time>2021-08-19T10:26:33Z</time>
      </trkpt>
      <trkpt lat="41.708375" lon="1.073562">
        <ele>303.691</ele>
        <time>2021-08-19T10:26:35Z</time>
      </trkpt>
      <trkpt lat="41.708328" lon="1.073540">
        <ele>303.580</ele>
        <time>2021-08-19T10:26:37Z</time>
      </trkpt>
      <trkpt lat="41.708296" lon="1.073490">
        <ele>303.316</ele>
        <time>2021-08-19T10:26:40Z</time>
      </trkpt>
      <trkpt lat="41.708323" lon="1.073429">
        <ele>302.776</ele>
        <time>2021-08-19T10:27:11Z</time>
      </trkpt>
      <trkpt lat="41.708350" lon="1.073371">
        <ele>302.213</ele>
        <time>2021-08-19T10:27:14Z</time>
      </trkpt>
      <trkpt lat="41.708403" lon="1.073331">
        <ele>301.708</ele>
        <time>2021-08-19T10:27:16Z</time>
      </trkpt>
      <trkpt lat="41.708456" lon="1.073277">
        <ele>301.229</ele>
        <time>2021-08-19T10:27:19Z</time>
      </trkpt>
      <trkpt lat="41.708502" lon="1.073248">
        <ele>300.842</ele>
        <time>2021-08-19T10:27:21Z</time>
      </trkpt>
      <trkpt lat="41.708545" lon="1.073219">
        <ele>300.425</ele>
        <time>2021-08-19T10:27:23Z</time>
      </trkpt>
      <trkpt lat="41.708601" lon="1.073186">
        <ele>300.046</ele>
        <time>2021-08-19T10:27:25Z</time>
      </trkpt>
      <trkpt lat="41.708646" lon="1.073160">
        <ele>300.053</ele>
        <time>2021-08-19T10:27:27Z</time>
      </trkpt>
      <trkpt lat="41.708696" lon="1.073126">
        <ele>300.171</ele>
        <time>2021-08-19T10:27:29Z</time>
      </trkpt>
      <trkpt lat="41.708750" lon="1.073099">
        <ele>300.320</ele>
        <time>2021-08-19T10:27:32Z</time>
      </trkpt>
      <trkpt lat="41.708782" lon="1.073037">
        <ele>300.349</ele>
        <time>2021-08-19T10:27:34Z</time>
      </trkpt>
      <trkpt lat="41.708801" lon="1.072970">
        <ele>300.579</ele>
        <time>2021-08-19T10:27:36Z</time>
      </trkpt>
      <trkpt lat="41.708777" lon="1.072891">
        <ele>300.405</ele>
        <time>2021-08-19T10:27:38Z</time>
      </trkpt>
      <trkpt lat="41.708744" lon="1.072823">
        <ele>300.425</ele>
        <time>2021-08-19T10:27:40Z</time>
      </trkpt>
      <trkpt lat="41.708722" lon="1.072752">
        <ele>300.408</ele>
        <time>2021-08-19T10:27:42Z</time>
      </trkpt>
      <trkpt lat="41.708705" lon="1.072657">
        <ele>300.565</ele>
        <time>2021-08-19T10:27:44Z</time>
      </trkpt>
      <trkpt lat="41.708689" lon="1.072558">
        <ele>300.598</ele>
        <time>2021-08-19T10:27:46Z</time>
      </trkpt>
      <trkpt lat="41.708689" lon="1.072446">
        <ele>300.781</ele>
        <time>2021-08-19T10:27:48Z</time>
      </trkpt>
      <trkpt lat="41.708687" lon="1.072356">
        <ele>300.962</ele>
        <time>2021-08-19T10:27:50Z</time>
      </trkpt>
      <trkpt lat="41.708687" lon="1.072291">
        <ele>301.119</ele>
        <time>2021-08-19T10:27:51Z</time>
      </trkpt>
      <trkpt lat="41.708684" lon="1.072223">
        <ele>301.327</ele>
        <time>2021-08-19T10:27:52Z</time>
      </trkpt>
      <trkpt lat="41.708677" lon="1.072127">
        <ele>301.866</ele>
        <time>2021-08-19T10:27:54Z</time>
      </trkpt>
      <trkpt lat="41.708670" lon="1.072057">
        <ele>302.395</ele>
        <time>2021-08-19T10:27:55Z</time>
      </trkpt>
      <trkpt lat="41.708652" lon="1.071979">
        <ele>302.866</ele>
        <time>2021-08-19T10:27:57Z</time>
      </trkpt>
      <trkpt lat="41.708638" lon="1.071902">
        <ele>303.029</ele>
        <time>2021-08-19T10:27:58Z</time>
      </trkpt>
      <trkpt lat="41.708623" lon="1.071798">
        <ele>303.021</ele>
        <time>2021-08-19T10:28:00Z</time>
      </trkpt>
      <trkpt lat="41.708605" lon="1.071713">
        <ele>303.008</ele>
        <time>2021-08-19T10:28:02Z</time>
      </trkpt>
      <trkpt lat="41.708588" lon="1.071655">
        <ele>303.074</ele>
        <time>2021-08-19T10:28:04Z</time>
      </trkpt>
      <trkpt lat="41.708567" lon="1.071584">
        <ele>303.157</ele>
        <time>2021-08-19T10:28:05Z</time>
      </trkpt>
      <trkpt lat="41.708537" lon="1.071500">
        <ele>303.260</ele>
        <time>2021-08-19T10:28:07Z</time>
      </trkpt>
      <trkpt lat="41.708509" lon="1.071406">
        <ele>303.221</ele>
        <time>2021-08-19T10:28:09Z</time>
      </trkpt>
      <trkpt lat="41.708476" lon="1.071326">
        <ele>302.938</ele>
        <time>2021-08-19T10:28:11Z</time>
      </trkpt>
      <trkpt lat="41.708444" lon="1.071267">
        <ele>302.696</ele>
        <time>2021-08-19T10:28:13Z</time>
      </trkpt>
      <trkpt lat="41.708419" lon="1.071208">
        <ele>302.415</ele>
        <time>2021-08-19T10:28:14Z</time>
      </trkpt>
      <trkpt lat="41.708388" lon="1.071110">
        <ele>302.244</ele>
        <time>2021-08-19T10:28:16Z</time>
      </trkpt>
      <trkpt lat="41.708350" lon="1.071004">
        <ele>302.017</ele>
        <time>2021-08-19T10:28:18Z</time>
      </trkpt>
      <trkpt lat="41.708322" lon="1.070953">
        <ele>302.087</ele>
        <time>2021-08-19T10:28:19Z</time>
      </trkpt>
      <trkpt lat="41.708278" lon="1.070857">
        <ele>302.015</ele>
        <time>2021-08-19T10:28:21Z</time>
      </trkpt>
      <trkpt lat="41.708240" lon="1.070763">
        <ele>301.908</ele>
        <time>2021-08-19T10:28:23Z</time>
      </trkpt>
      <trkpt lat="41.708205" lon="1.070679">
        <ele>301.779</ele>
        <time>2021-08-19T10:28:25Z</time>
      </trkpt>
      <trkpt lat="41.708174" lon="1.070596">
        <ele>301.512</ele>
        <time>2021-08-19T10:28:27Z</time>
      </trkpt>
      <trkpt lat="41.708150" lon="1.070505">
        <ele>301.375</ele>
        <time>2021-08-19T10:28:29Z</time>
      </trkpt>
      <trkpt lat="41.708116" lon="1.070411">
        <ele>301.286</ele>
        <time>2021-08-19T10:28:31Z</time>
      </trkpt>
      <trkpt lat="41.708078" lon="1.070324">
        <ele>301.143</ele>
        <time>2021-08-19T10:28:33Z</time>
      </trkpt>
      <trkpt lat="41.708022" lon="1.070242">
        <ele>300.971</ele>
        <time>2021-08-19T10:28:35Z</time>
      </trkpt>
      <trkpt lat="41.707967" lon="1.070177">
        <ele>300.650</ele>
        <time>2021-08-19T10:28:37Z</time>
      </trkpt>
      <trkpt lat="41.707927" lon="1.070139">
        <ele>300.339</ele>
        <time>2021-08-19T10:28:38Z</time>
      </trkpt>
      <trkpt lat="41.707873" lon="1.070076">
        <ele>299.989</ele>
        <time>2021-08-19T10:28:40Z</time>
      </trkpt>
      <trkpt lat="41.707818" lon="1.070013">
        <ele>299.306</ele>
        <time>2021-08-19T10:28:42Z</time>
      </trkpt>
      <trkpt lat="41.707763" lon="1.069952">
        <ele>298.926</ele>
        <time>2021-08-19T10:28:44Z</time>
      </trkpt>
      <trkpt lat="41.707709" lon="1.069873">
        <ele>298.808</ele>
        <time>2021-08-19T10:28:46Z</time>
      </trkpt>
      <trkpt lat="41.707657" lon="1.069808">
        <ele>298.666</ele>
        <time>2021-08-19T10:28:48Z</time>
      </trkpt>
      <trkpt lat="41.707603" lon="1.069754">
        <ele>298.419</ele>
        <time>2021-08-19T10:28:50Z</time>
      </trkpt>
      <trkpt lat="41.707562" lon="1.069701">
        <ele>298.232</ele>
        <time>2021-08-19T10:28:52Z</time>
      </trkpt>
      <trkpt lat="41.707517" lon="1.069630">
        <ele>298.053</ele>
        <time>2021-08-19T10:28:54Z</time>
      </trkpt>
      <trkpt lat="41.707484" lon="1.069554">
        <ele>298.020</ele>
        <time>2021-08-19T10:28:56Z</time>
      </trkpt>
      <trkpt lat="41.707478" lon="1.069463">
        <ele>298.048</ele>
        <time>2021-08-19T10:28:58Z</time>
      </trkpt>
      <trkpt lat="41.707498" lon="1.069406">
        <ele>298.027</ele>
        <time>2021-08-19T10:28:59Z</time>
      </trkpt>
      <trkpt lat="41.707530" lon="1.069315">
        <ele>298.046</ele>
        <time>2021-08-19T10:29:01Z</time>
      </trkpt>
      <trkpt lat="41.707571" lon="1.069217">
        <ele>298.025</ele>
        <time>2021-08-19T10:29:03Z</time>
      </trkpt>
      <trkpt lat="41.707625" lon="1.069142">
        <ele>298.026</ele>
        <time>2021-08-19T10:29:05Z</time>
      </trkpt>
      <trkpt lat="41.707682" lon="1.069073">
        <ele>297.808</ele>
        <time>2021-08-19T10:29:07Z</time>
      </trkpt>
      <trkpt lat="41.707720" lon="1.069011">
        <ele>297.608</ele>
        <time>2021-08-19T10:29:09Z</time>
      </trkpt>
      <trkpt lat="41.707754" lon="1.068962">
        <ele>297.320</ele>
        <time>2021-08-19T10:29:10Z</time>
      </trkpt>
      <trkpt lat="41.707805" lon="1.068892">
        <ele>297.153</ele>
        <time>2021-08-19T10:29:11Z</time>
      </trkpt>
      <trkpt lat="41.707838" lon="1.068842">
        <ele>297.296</ele>
        <time>2021-08-19T10:29:12Z</time>
      </trkpt>
      <trkpt lat="41.707871" lon="1.068791">
        <ele>297.397</ele>
        <time>2021-08-19T10:29:13Z</time>
      </trkpt>
      <trkpt lat="41.707933" lon="1.068690">
        <ele>297.664</ele>
        <time>2021-08-19T10:29:15Z</time>
      </trkpt>
      <trkpt lat="41.707964" lon="1.068643">
        <ele>297.772</ele>
        <time>2021-08-19T10:29:16Z</time>
      </trkpt>
      <trkpt lat="41.707997" lon="1.068552">
        <ele>297.721</ele>
        <time>2021-08-19T10:29:18Z</time>
      </trkpt>
      <trkpt lat="41.708039" lon="1.068489">
        <ele>297.930</ele>
        <time>2021-08-19T10:29:20Z</time>
      </trkpt>
      <trkpt lat="41.708081" lon="1.068437">
        <ele>298.242</ele>
        <time>2021-08-19T10:29:21Z</time>
      </trkpt>
      <trkpt lat="41.708132" lon="1.068363">
        <ele>298.622</ele>
        <time>2021-08-19T10:29:23Z</time>
      </trkpt>
      <trkpt lat="41.708179" lon="1.068293">
        <ele>298.514</ele>
        <time>2021-08-19T10:29:25Z</time>
      </trkpt>
      <trkpt lat="41.708210" lon="1.068219">
        <ele>298.108</ele>
        <time>2021-08-19T10:29:27Z</time>
      </trkpt>
      <trkpt lat="41.708200" lon="1.068151">
        <ele>297.482</ele>
        <time>2021-08-19T10:29:29Z</time>
      </trkpt>
      <trkpt lat="41.708173" lon="1.068089">
        <ele>296.765</ele>
        <time>2021-08-19T10:29:31Z</time>
      </trkpt>
      <trkpt lat="41.708144" lon="1.068042">
        <ele>296.218</ele>
        <time>2021-08-19T10:29:32Z</time>
      </trkpt>
      <trkpt lat="41.708093" lon="1.068001">
        <ele>295.669</ele>
        <time>2021-08-19T10:29:34Z</time>
      </trkpt>
      <trkpt lat="41.708057" lon="1.067955">
        <ele>294.966</ele>
        <time>2021-08-19T10:29:35Z</time>
      </trkpt>
      <trkpt lat="41.708015" lon="1.067896">
        <ele>294.314</ele>
        <time>2021-08-19T10:29:36Z</time>
      </trkpt>
      <trkpt lat="41.707947" lon="1.067814">
        <ele>293.753</ele>
        <time>2021-08-19T10:29:38Z</time>
      </trkpt>
      <trkpt lat="41.707888" lon="1.067748">
        <ele>293.572</ele>
        <time>2021-08-19T10:29:40Z</time>
      </trkpt>
      <trkpt lat="41.707846" lon="1.067711">
        <ele>293.636</ele>
        <time>2021-08-19T10:29:41Z</time>
      </trkpt>
      <trkpt lat="41.707801" lon="1.067651">
        <ele>293.517</ele>
        <time>2021-08-19T10:29:43Z</time>
      </trkpt>
      <trkpt lat="41.707761" lon="1.067616">
        <ele>293.518</ele>
        <time>2021-08-19T10:29:44Z</time>
      </trkpt>
      <trkpt lat="41.707703" lon="1.067555">
        <ele>293.708</ele>
        <time>2021-08-19T10:29:46Z</time>
      </trkpt>
      <trkpt lat="41.707646" lon="1.067488">
        <ele>293.921</ele>
        <time>2021-08-19T10:29:48Z</time>
      </trkpt>
      <trkpt lat="41.707592" lon="1.067423">
        <ele>294.244</ele>
        <time>2021-08-19T10:29:50Z</time>
      </trkpt>
      <trkpt lat="41.707542" lon="1.067359">
        <ele>294.317</ele>
        <time>2021-08-19T10:29:52Z</time>
      </trkpt>
      <trkpt lat="41.707491" lon="1.067303">
        <ele>294.368</ele>
        <time>2021-08-19T10:29:54Z</time>
      </trkpt>
      <trkpt lat="41.707446" lon="1.067234">
        <ele>294.255</ele>
        <time>2021-08-19T10:29:56Z</time>
      </trkpt>
      <trkpt lat="41.707394" lon="1.067169">
        <ele>294.423</ele>
        <time>2021-08-19T10:29:58Z</time>
      </trkpt>
      <trkpt lat="41.707345" lon="1.067115">
        <ele>294.682</ele>
        <time>2021-08-19T10:30:00Z</time>
      </trkpt>
      <trkpt lat="41.707296" lon="1.067065">
        <ele>294.791</ele>
        <time>2021-08-19T10:30:02Z</time>
      </trkpt>
      <trkpt lat="41.707248" lon="1.067010">
        <ele>294.964</ele>
        <time>2021-08-19T10:30:04Z</time>
      </trkpt>
      <trkpt lat="41.707203" lon="1.066956">
        <ele>294.906</ele>
        <time>2021-08-19T10:30:06Z</time>
      </trkpt>
      <trkpt lat="41.707143" lon="1.066891">
        <ele>294.316</ele>
        <time>2021-08-19T10:30:08Z</time>
      </trkpt>
      <trkpt lat="41.707081" lon="1.066815">
        <ele>293.808</ele>
        <time>2021-08-19T10:30:10Z</time>
      </trkpt>
      <trkpt lat="41.707022" lon="1.066738">
        <ele>293.414</ele>
        <time>2021-08-19T10:30:12Z</time>
      </trkpt>
      <trkpt lat="41.706966" lon="1.066667">
        <ele>293.117</ele>
        <time>2021-08-19T10:30:14Z</time>
      </trkpt>
      <trkpt lat="41.706930" lon="1.066626">
        <ele>293.040</ele>
        <time>2021-08-19T10:30:15Z</time>
      </trkpt>
      <trkpt lat="41.706878" lon="1.066558">
        <ele>292.911</ele>
        <time>2021-08-19T10:30:17Z</time>
      </trkpt>
      <trkpt lat="41.706841" lon="1.066519">
        <ele>292.848</ele>
        <time>2021-08-19T10:30:18Z</time>
      </trkpt>
      <trkpt lat="41.706778" lon="1.066452">
        <ele>292.966</ele>
        <time>2021-08-19T10:30:20Z</time>
      </trkpt>
      <trkpt lat="41.706713" lon="1.066378">
        <ele>293.055</ele>
        <time>2021-08-19T10:30:22Z</time>
      </trkpt>
      <trkpt lat="41.706655" lon="1.066318">
        <ele>293.044</ele>
        <time>2021-08-19T10:30:24Z</time>
      </trkpt>
      <trkpt lat="41.706612" lon="1.066275">
        <ele>293.192</ele>
        <time>2021-08-19T10:30:25Z</time>
      </trkpt>
      <trkpt lat="41.706550" lon="1.066198">
        <ele>293.373</ele>
        <time>2021-08-19T10:30:27Z</time>
      </trkpt>
      <trkpt lat="41.706505" lon="1.066128">
        <ele>293.520</ele>
        <time>2021-08-19T10:30:29Z</time>
      </trkpt>
      <trkpt lat="41.706472" lon="1.066063">
        <ele>293.808</ele>
        <time>2021-08-19T10:30:30Z</time>
      </trkpt>
      <trkpt lat="41.706440" lon="1.065976">
        <ele>293.987</ele>
        <time>2021-08-19T10:30:32Z</time>
      </trkpt>
      <trkpt lat="41.706423" lon="1.065912">
        <ele>294.050</ele>
        <time>2021-08-19T10:30:33Z</time>
      </trkpt>
      <trkpt lat="41.706392" lon="1.065804">
        <ele>294.163</ele>
        <time>2021-08-19T10:30:35Z</time>
      </trkpt>
      <trkpt lat="41.706363" lon="1.065711">
        <ele>294.594</ele>
        <time>2021-08-19T10:30:37Z</time>
      </trkpt>
      <trkpt lat="41.706347" lon="1.065641">
        <ele>294.771</ele>
        <time>2021-08-19T10:30:38Z</time>
      </trkpt>
      <trkpt lat="41.706312" lon="1.065534">
        <ele>295.039</ele>
        <time>2021-08-19T10:30:40Z</time>
      </trkpt>
      <trkpt lat="41.706292" lon="1.065454">
        <ele>295.168</ele>
        <time>2021-08-19T10:30:42Z</time>
      </trkpt>
      <trkpt lat="41.706276" lon="1.065385">
        <ele>295.287</ele>
        <time>2021-08-19T10:30:43Z</time>
      </trkpt>
      <trkpt lat="41.706243" lon="1.065283">
        <ele>295.561</ele>
        <time>2021-08-19T10:30:45Z</time>
      </trkpt>
      <trkpt lat="41.706223" lon="1.065198">
        <ele>295.421</ele>
        <time>2021-08-19T10:30:47Z</time>
      </trkpt>
      <trkpt lat="41.706210" lon="1.065139">
        <ele>295.313</ele>
        <time>2021-08-19T10:30:48Z</time>
      </trkpt>
      <trkpt lat="41.706175" lon="1.065042">
        <ele>295.108</ele>
        <time>2021-08-19T10:30:50Z</time>
      </trkpt>
      <trkpt lat="41.706162" lon="1.064983">
        <ele>295.014</ele>
        <time>2021-08-19T10:30:51Z</time>
      </trkpt>
      <trkpt lat="41.706146" lon="1.064887">
        <ele>295.017</ele>
        <time>2021-08-19T10:30:53Z</time>
      </trkpt>
      <trkpt lat="41.706120" lon="1.064795">
        <ele>295.070</ele>
        <time>2021-08-19T10:30:55Z</time>
      </trkpt>
      <trkpt lat="41.706102" lon="1.064731">
        <ele>295.021</ele>
        <time>2021-08-19T10:30:56Z</time>
      </trkpt>
      <trkpt lat="41.706075" lon="1.064653">
        <ele>294.688</ele>
        <time>2021-08-19T10:30:58Z</time>
      </trkpt>
      <trkpt lat="41.706052" lon="1.064585">
        <ele>294.376</ele>
        <time>2021-08-19T10:30:59Z</time>
      </trkpt>
      <trkpt lat="41.706026" lon="1.064479">
        <ele>293.825</ele>
        <time>2021-08-19T10:31:01Z</time>
      </trkpt>
      <trkpt lat="41.705998" lon="1.064377">
        <ele>293.484</ele>
        <time>2021-08-19T10:31:03Z</time>
      </trkpt>
      <trkpt lat="41.705967" lon="1.064281">
        <ele>293.226</ele>
        <time>2021-08-19T10:31:05Z</time>
      </trkpt>
      <trkpt lat="41.705931" lon="1.064187">
        <ele>293.047</ele>
        <time>2021-08-19T10:31:07Z</time>
      </trkpt>
      <trkpt lat="41.705898" lon="1.064102">
        <ele>293.011</ele>
        <time>2021-08-19T10:31:09Z</time>
      </trkpt>
      <trkpt lat="41.705873" lon="1.064047">
        <ele>293.008</ele>
        <time>2021-08-19T10:31:10Z</time>
      </trkpt>
      <trkpt lat="41.705845" lon="1.063994">
        <ele>293.040</ele>
        <time>2021-08-19T10:31:11Z</time>
      </trkpt>
      <trkpt lat="41.705809" lon="1.063922">
        <ele>293.173</ele>
        <time>2021-08-19T10:31:13Z</time>
      </trkpt>
      <trkpt lat="41.705766" lon="1.063841">
        <ele>293.236</ele>
        <time>2021-08-19T10:31:15Z</time>
      </trkpt>
      <trkpt lat="41.705716" lon="1.063764">
        <ele>293.277</ele>
        <time>2021-08-19T10:31:17Z</time>
      </trkpt>
      <trkpt lat="41.705670" lon="1.063680">
        <ele>293.124</ele>
        <time>2021-08-19T10:31:19Z</time>
      </trkpt>
      <trkpt lat="41.705626" lon="1.063596">
        <ele>293.082</ele>
        <time>2021-08-19T10:31:21Z</time>
      </trkpt>
      <trkpt lat="41.705589" lon="1.063538">
        <ele>292.941</ele>
        <time>2021-08-19T10:31:23Z</time>
      </trkpt>
      <trkpt lat="41.705555" lon="1.063469">
        <ele>293.010</ele>
        <time>2021-08-19T10:31:24Z</time>
      </trkpt>
      <trkpt lat="41.705509" lon="1.063376">
        <ele>293.279</ele>
        <time>2021-08-19T10:31:26Z</time>
      </trkpt>
      <trkpt lat="41.705473" lon="1.063305">
        <ele>293.205</ele>
        <time>2021-08-19T10:31:28Z</time>
      </trkpt>
      <trkpt lat="41.705447" lon="1.063251">
        <ele>293.225</ele>
        <time>2021-08-19T10:31:29Z</time>
      </trkpt>
      <trkpt lat="41.705412" lon="1.063172">
        <ele>293.208</ele>
        <time>2021-08-19T10:31:31Z</time>
      </trkpt>
      <trkpt lat="41.705380" lon="1.063114">
        <ele>293.355</ele>
        <time>2021-08-19T10:31:32Z</time>
      </trkpt>
      <trkpt lat="41.705349" lon="1.063056">
        <ele>293.548</ele>
        <time>2021-08-19T10:31:34Z</time>
      </trkpt>
      <trkpt lat="41.705325" lon="1.062998">
        <ele>293.681</ele>
        <time>2021-08-19T10:31:35Z</time>
      </trkpt>
      <trkpt lat="41.705283" lon="1.062911">
        <ele>294.062</ele>
        <time>2021-08-19T10:31:37Z</time>
      </trkpt>
      <trkpt lat="41.705249" lon="1.062834">
        <ele>294.199</ele>
        <time>2021-08-19T10:31:39Z</time>
      </trkpt>
      <trkpt lat="41.705208" lon="1.062753">
        <ele>294.147</ele>
        <time>2021-08-19T10:31:41Z</time>
      </trkpt>
      <trkpt lat="41.705179" lon="1.062702">
        <ele>293.866</ele>
        <time>2021-08-19T10:31:43Z</time>
      </trkpt>
      <trkpt lat="41.705154" lon="1.062637">
        <ele>293.485</ele>
        <time>2021-08-19T10:31:44Z</time>
      </trkpt>
      <trkpt lat="41.705126" lon="1.062550">
        <ele>292.965</ele>
        <time>2021-08-19T10:31:46Z</time>
      </trkpt>
      <trkpt lat="41.705098" lon="1.062472">
        <ele>292.668</ele>
        <time>2021-08-19T10:31:48Z</time>
      </trkpt>
      <trkpt lat="41.705075" lon="1.062400">
        <ele>292.514</ele>
        <time>2021-08-19T10:31:49Z</time>
      </trkpt>
      <trkpt lat="41.705049" lon="1.062302">
        <ele>292.208</ele>
        <time>2021-08-19T10:31:51Z</time>
      </trkpt>
      <trkpt lat="41.705026" lon="1.062202">
        <ele>292.084</ele>
        <time>2021-08-19T10:31:53Z</time>
      </trkpt>
      <trkpt lat="41.705016" lon="1.062126">
        <ele>292.097</ele>
        <time>2021-08-19T10:31:55Z</time>
      </trkpt>
      <trkpt lat="41.704989" lon="1.062032">
        <ele>292.040</ele>
        <time>2021-08-19T10:31:57Z</time>
      </trkpt>
      <trkpt lat="41.704974" lon="1.061942">
        <ele>292.111</ele>
        <time>2021-08-19T10:31:59Z</time>
      </trkpt>
      <trkpt lat="41.704953" lon="1.061848">
        <ele>291.878</ele>
        <time>2021-08-19T10:32:01Z</time>
      </trkpt>
      <trkpt lat="41.704915" lon="1.061764">
        <ele>291.756</ele>
        <time>2021-08-19T10:32:03Z</time>
      </trkpt>
      <trkpt lat="41.704893" lon="1.061687">
        <ele>291.545</ele>
        <time>2021-08-19T10:32:05Z</time>
      </trkpt>
      <trkpt lat="41.704866" lon="1.061609">
        <ele>291.274</ele>
        <time>2021-08-19T10:32:07Z</time>
      </trkpt>
      <trkpt lat="41.704841" lon="1.061529">
        <ele>290.825</ele>
        <time>2021-08-19T10:32:09Z</time>
      </trkpt>
      <trkpt lat="41.704823" lon="1.061438">
        <ele>290.326</ele>
        <time>2021-08-19T10:32:11Z</time>
      </trkpt>
      <trkpt lat="41.704799" lon="1.061344">
        <ele>289.908</ele>
        <time>2021-08-19T10:32:13Z</time>
      </trkpt>
      <trkpt lat="41.704756" lon="1.061255">
        <ele>289.608</ele>
        <time>2021-08-19T10:32:15Z</time>
      </trkpt>
      <trkpt lat="41.704728" lon="1.061148">
        <ele>289.250</ele>
        <time>2021-08-19T10:32:17Z</time>
      </trkpt>
      <trkpt lat="41.704703" lon="1.061043">
        <ele>289.093</ele>
        <time>2021-08-19T10:32:19Z</time>
      </trkpt>
      <trkpt lat="41.704681" lon="1.060952">
        <ele>289.046</ele>
        <time>2021-08-19T10:32:21Z</time>
      </trkpt>
      <trkpt lat="41.704653" lon="1.060865">
        <ele>289.017</ele>
        <time>2021-08-19T10:32:23Z</time>
      </trkpt>
      <trkpt lat="41.704621" lon="1.060777">
        <ele>289.384</ele>
        <time>2021-08-19T10:32:25Z</time>
      </trkpt>
      <trkpt lat="41.704603" lon="1.060690">
        <ele>289.832</ele>
        <time>2021-08-19T10:32:27Z</time>
      </trkpt>
      <trkpt lat="41.704580" lon="1.060603">
        <ele>290.241</ele>
        <time>2021-08-19T10:32:29Z</time>
      </trkpt>
      <trkpt lat="41.704546" lon="1.060516">
        <ele>290.510</ele>
        <time>2021-08-19T10:32:31Z</time>
      </trkpt>
      <trkpt lat="41.704517" lon="1.060419">
        <ele>290.891</ele>
        <time>2021-08-19T10:32:33Z</time>
      </trkpt>
      <trkpt lat="41.704488" lon="1.060317">
        <ele>291.081</ele>
        <time>2021-08-19T10:32:35Z</time>
      </trkpt>
      <trkpt lat="41.704464" lon="1.060220">
        <ele>291.319</ele>
        <time>2021-08-19T10:32:37Z</time>
      </trkpt>
      <trkpt lat="41.704433" lon="1.060133">
        <ele>291.608</ele>
        <time>2021-08-19T10:32:39Z</time>
      </trkpt>
      <trkpt lat="41.704407" lon="1.060055">
        <ele>291.977</ele>
        <time>2021-08-19T10:32:41Z</time>
      </trkpt>
      <trkpt lat="41.704378" lon="1.059969">
        <ele>292.560</ele>
        <time>2021-08-19T10:32:43Z</time>
      </trkpt>
      <trkpt lat="41.704353" lon="1.059874">
        <ele>293.273</ele>
        <time>2021-08-19T10:32:45Z</time>
      </trkpt>
      <trkpt lat="41.704324" lon="1.059792">
        <ele>293.984</ele>
        <time>2021-08-19T10:32:47Z</time>
      </trkpt>
      <trkpt lat="41.704293" lon="1.059710">
        <ele>294.691</ele>
        <time>2021-08-19T10:32:49Z</time>
      </trkpt>
      <trkpt lat="41.704272" lon="1.059642">
        <ele>294.889</ele>
        <time>2021-08-19T10:32:51Z</time>
      </trkpt>
      <trkpt lat="41.704230" lon="1.059580">
        <ele>295.218</ele>
        <time>2021-08-19T10:32:53Z</time>
      </trkpt>
      <trkpt lat="41.704200" lon="1.059514">
        <ele>295.547</ele>
        <time>2021-08-19T10:32:55Z</time>
      </trkpt>
      <trkpt lat="41.704165" lon="1.059442">
        <ele>296.099</ele>
        <time>2021-08-19T10:32:57Z</time>
      </trkpt>
      <trkpt lat="41.704124" lon="1.059370">
        <ele>296.207</ele>
        <time>2021-08-19T10:32:59Z</time>
      </trkpt>
      <trkpt lat="41.704084" lon="1.059290">
        <ele>296.527</ele>
        <time>2021-08-19T10:33:01Z</time>
      </trkpt>
      <trkpt lat="41.704057" lon="1.059208">
        <ele>296.708</ele>
        <time>2021-08-19T10:33:03Z</time>
      </trkpt>
      <trkpt lat="41.704022" lon="1.059126">
        <ele>297.037</ele>
        <time>2021-08-19T10:33:05Z</time>
      </trkpt>
      <trkpt lat="41.703984" lon="1.059044">
        <ele>297.210</ele>
        <time>2021-08-19T10:33:07Z</time>
      </trkpt>
      <trkpt lat="41.703951" lon="1.058959">
        <ele>297.443</ele>
        <time>2021-08-19T10:33:09Z</time>
      </trkpt>
      <trkpt lat="41.703919" lon="1.058879">
        <ele>297.754</ele>
        <time>2021-08-19T10:33:11Z</time>
      </trkpt>
      <trkpt lat="41.703891" lon="1.058796">
        <ele>298.041</ele>
        <time>2021-08-19T10:33:13Z</time>
      </trkpt>
      <trkpt lat="41.703867" lon="1.058708">
        <ele>298.249</ele>
        <time>2021-08-19T10:33:15Z</time>
      </trkpt>
      <trkpt lat="41.703837" lon="1.058620">
        <ele>298.498</ele>
        <time>2021-08-19T10:33:17Z</time>
      </trkpt>
      <trkpt lat="41.703805" lon="1.058540">
        <ele>298.387</ele>
        <time>2021-08-19T10:33:19Z</time>
      </trkpt>
      <trkpt lat="41.703770" lon="1.058463">
        <ele>298.378</ele>
        <time>2021-08-19T10:33:21Z</time>
      </trkpt>
      <trkpt lat="41.703736" lon="1.058363">
        <ele>298.233</ele>
        <time>2021-08-19T10:33:23Z</time>
      </trkpt>
      <trkpt lat="41.703702" lon="1.058273">
        <ele>297.926</ele>
        <time>2021-08-19T10:33:25Z</time>
      </trkpt>
      <trkpt lat="41.703667" lon="1.058182">
        <ele>297.508</ele>
        <time>2021-08-19T10:33:27Z</time>
      </trkpt>
      <trkpt lat="41.703626" lon="1.058094">
        <ele>297.215</ele>
        <time>2021-08-19T10:33:29Z</time>
      </trkpt>
      <trkpt lat="41.703593" lon="1.058009">
        <ele>296.758</ele>
        <time>2021-08-19T10:33:31Z</time>
      </trkpt>
      <trkpt lat="41.703557" lon="1.057925">
        <ele>296.161</ele>
        <time>2021-08-19T10:33:33Z</time>
      </trkpt>
      <trkpt lat="41.703527" lon="1.057841">
        <ele>295.672</ele>
        <time>2021-08-19T10:33:35Z</time>
      </trkpt>
      <trkpt lat="41.703497" lon="1.057757">
        <ele>295.259</ele>
        <time>2021-08-19T10:33:37Z</time>
      </trkpt>
      <trkpt lat="41.703462" lon="1.057672">
        <ele>294.967</ele>
        <time>2021-08-19T10:33:39Z</time>
      </trkpt>
      <trkpt lat="41.703430" lon="1.057582">
        <ele>294.776</ele>
        <time>2021-08-19T10:33:41Z</time>
      </trkpt>
      <trkpt lat="41.703402" lon="1.057497">
        <ele>294.575</ele>
        <time>2021-08-19T10:33:43Z</time>
      </trkpt>
      <trkpt lat="41.703382" lon="1.057433">
        <ele>294.488</ele>
        <time>2021-08-19T10:33:45Z</time>
      </trkpt>
      <trkpt lat="41.703361" lon="1.057367">
        <ele>294.224</ele>
        <time>2021-08-19T10:33:46Z</time>
      </trkpt>
      <trkpt lat="41.703321" lon="1.057280">
        <ele>294.026</ele>
        <time>2021-08-19T10:33:48Z</time>
      </trkpt>
      <trkpt lat="41.703281" lon="1.057197">
        <ele>293.908</ele>
        <time>2021-08-19T10:33:50Z</time>
      </trkpt>
      <trkpt lat="41.703249" lon="1.057104">
        <ele>294.166</ele>
        <time>2021-08-19T10:33:52Z</time>
      </trkpt>
      <trkpt lat="41.703215" lon="1.057029">
        <ele>294.359</ele>
        <time>2021-08-19T10:33:54Z</time>
      </trkpt>
      <trkpt lat="41.703195" lon="1.056964">
        <ele>294.452</ele>
        <time>2021-08-19T10:33:56Z</time>
      </trkpt>
      <trkpt lat="41.703169" lon="1.056900">
        <ele>294.553</ele>
        <time>2021-08-19T10:33:57Z</time>
      </trkpt>
      <trkpt lat="41.703145" lon="1.056825">
        <ele>294.640</ele>
        <time>2021-08-19T10:33:59Z</time>
      </trkpt>
      <trkpt lat="41.703113" lon="1.056754">
        <ele>294.868</ele>
        <time>2021-08-19T10:34:01Z</time>
      </trkpt>
      <trkpt lat="41.703092" lon="1.056678">
        <ele>295.017</ele>
        <time>2021-08-19T10:34:03Z</time>
      </trkpt>
      <trkpt lat="41.703048" lon="1.056599">
        <ele>295.266</ele>
        <time>2021-08-19T10:34:05Z</time>
      </trkpt>
      <trkpt lat="41.703030" lon="1.056501">
        <ele>295.514</ele>
        <time>2021-08-19T10:34:07Z</time>
      </trkpt>
      <trkpt lat="41.703007" lon="1.056404">
        <ele>295.854</ele>
        <time>2021-08-19T10:34:09Z</time>
      </trkpt>
      <trkpt lat="41.702975" lon="1.056322">
        <ele>296.009</ele>
        <time>2021-08-19T10:34:11Z</time>
      </trkpt>
      <trkpt lat="41.702961" lon="1.056248">
        <ele>296.208</ele>
        <time>2021-08-19T10:34:13Z</time>
      </trkpt>
      <trkpt lat="41.702944" lon="1.056192">
        <ele>296.389</ele>
        <time>2021-08-19T10:34:15Z</time>
      </trkpt>
      <trkpt lat="41.702908" lon="1.056121">
        <ele>296.422</ele>
        <time>2021-08-19T10:34:18Z</time>
      </trkpt>
      <trkpt lat="41.702865" lon="1.056087">
        <ele>296.395</ele>
        <time>2021-08-19T10:40:23Z</time>
      </trkpt>
      <trkpt lat="41.702876" lon="1.056019">
        <ele>296.426</ele>
        <time>2021-08-19T10:40:27Z</time>
      </trkpt>
      <trkpt lat="41.702894" lon="1.055938">
        <ele>296.443</ele>
        <time>2021-08-19T10:40:33Z</time>
      </trkpt>
      <trkpt lat="41.702922" lon="1.055883">
        <ele>296.571</ele>
        <time>2021-08-19T10:40:35Z</time>
      </trkpt>
      <trkpt lat="41.702951" lon="1.055830">
        <ele>296.690</ele>
        <time>2021-08-19T10:40:37Z</time>
      </trkpt>
      <trkpt lat="41.702983" lon="1.055773">
        <ele>296.919</ele>
        <time>2021-08-19T10:40:39Z</time>
      </trkpt>
      <trkpt lat="41.703006" lon="1.055719">
        <ele>297.066</ele>
        <time>2021-08-19T10:40:42Z</time>
      </trkpt>
      <trkpt lat="41.703003" lon="1.055634">
        <ele>297.129</ele>
        <time>2021-08-19T10:40:46Z</time>
      </trkpt>
      <trkpt lat="41.702976" lon="1.055585">
        <ele>297.221</ele>
        <time>2021-08-19T10:40:48Z</time>
      </trkpt>
      <trkpt lat="41.702925" lon="1.055558">
        <ele>297.508</ele>
        <time>2021-08-19T10:40:50Z</time>
      </trkpt>
      <trkpt lat="41.702870" lon="1.055533">
        <ele>297.694</ele>
        <time>2021-08-19T10:40:52Z</time>
      </trkpt>
      <trkpt lat="41.702808" lon="1.055496">
        <ele>297.767</ele>
        <time>2021-08-19T10:40:54Z</time>
      </trkpt>
      <trkpt lat="41.702760" lon="1.055457">
        <ele>297.640</ele>
        <time>2021-08-19T10:40:56Z</time>
      </trkpt>
      <trkpt lat="41.702716" lon="1.055405">
        <ele>297.561</ele>
        <time>2021-08-19T10:40:58Z</time>
      </trkpt>
      <trkpt lat="41.702659" lon="1.055344">
        <ele>297.598</ele>
        <time>2021-08-19T10:41:00Z</time>
      </trkpt>
      <trkpt lat="41.702610" lon="1.055296">
        <ele>297.646</ele>
        <time>2021-08-19T10:41:02Z</time>
      </trkpt>
      <trkpt lat="41.702566" lon="1.055238">
        <ele>297.735</ele>
        <time>2021-08-19T10:41:04Z</time>
      </trkpt>
      <trkpt lat="41.702528" lon="1.055175">
        <ele>297.834</ele>
        <time>2021-08-19T10:41:06Z</time>
      </trkpt>
      <trkpt lat="41.702484" lon="1.055120">
        <ele>298.116</ele>
        <time>2021-08-19T10:41:08Z</time>
      </trkpt>
      <trkpt lat="41.702449" lon="1.055078">
        <ele>298.476</ele>
        <time>2021-08-19T10:41:10Z</time>
      </trkpt>
      <trkpt lat="41.702412" lon="1.055021">
        <ele>298.913</ele>
        <time>2021-08-19T10:41:12Z</time>
      </trkpt>
      <trkpt lat="41.702361" lon="1.054958">
        <ele>299.408</ele>
        <time>2021-08-19T10:41:14Z</time>
      </trkpt>
      <trkpt lat="41.702319" lon="1.054913">
        <ele>299.729</ele>
        <time>2021-08-19T10:41:16Z</time>
      </trkpt>
      <trkpt lat="41.702275" lon="1.054879">
        <ele>300.362</ele>
        <time>2021-08-19T10:41:18Z</time>
      </trkpt>
      <trkpt lat="41.702226" lon="1.054852">
        <ele>300.915</ele>
        <time>2021-08-19T10:41:21Z</time>
      </trkpt>
      <trkpt lat="41.702176" lon="1.054867">
        <ele>301.246</ele>
        <time>2021-08-19T10:41:24Z</time>
      </trkpt>
      <trkpt lat="41.702153" lon="1.054921">
        <ele>301.383</ele>
        <time>2021-08-19T10:41:27Z</time>
      </trkpt>
      <trkpt lat="41.702127" lon="1.054971">
        <ele>301.411</ele>
        <time>2021-08-19T10:41:29Z</time>
      </trkpt>
      <trkpt lat="41.702088" lon="1.055045">
        <ele>301.130</ele>
        <time>2021-08-19T10:41:32Z</time>
      </trkpt>
      <trkpt lat="41.702068" lon="1.055104">
        <ele>300.689</ele>
        <time>2021-08-19T10:41:34Z</time>
      </trkpt>
      <trkpt lat="41.702035" lon="1.055155">
        <ele>300.278</ele>
        <time>2021-08-19T10:41:36Z</time>
      </trkpt>
      <trkpt lat="41.702003" lon="1.055210">
        <ele>299.733</ele>
        <time>2021-08-19T10:41:38Z</time>
      </trkpt>
      <trkpt lat="41.701959" lon="1.055275">
        <ele>299.026</ele>
        <time>2021-08-19T10:41:41Z</time>
      </trkpt>
      <trkpt lat="41.701947" lon="1.055338">
        <ele>298.608</ele>
        <time>2021-08-19T10:41:43Z</time>
      </trkpt>
      <trkpt lat="41.701926" lon="1.055396">
        <ele>298.325</ele>
        <time>2021-08-19T10:41:45Z</time>
      </trkpt>
      <trkpt lat="41.701906" lon="1.055457">
        <ele>298.138</ele>
        <time>2021-08-19T10:41:47Z</time>
      </trkpt>
      <trkpt lat="41.701893" lon="1.055532">
        <ele>297.781</ele>
        <time>2021-08-19T10:41:49Z</time>
      </trkpt>
      <trkpt lat="41.701846" lon="1.055589">
        <ele>297.782</ele>
        <time>2021-08-19T10:41:51Z</time>
      </trkpt>
      <trkpt lat="41.701803" lon="1.055648">
        <ele>297.559</ele>
        <time>2021-08-19T10:41:53Z</time>
      </trkpt>
      <trkpt lat="41.701773" lon="1.055712">
        <ele>297.277</ele>
        <time>2021-08-19T10:41:55Z</time>
      </trkpt>
      <trkpt lat="41.701734" lon="1.055770">
        <ele>297.046</ele>
        <time>2021-08-19T10:41:57Z</time>
      </trkpt>
      <trkpt lat="41.701684" lon="1.055818">
        <ele>297.085</ele>
        <time>2021-08-19T10:41:59Z</time>
      </trkpt>
      <trkpt lat="41.701641" lon="1.055862">
        <ele>297.193</ele>
        <time>2021-08-19T10:42:01Z</time>
      </trkpt>
      <trkpt lat="41.701586" lon="1.055927">
        <ele>297.265</ele>
        <time>2021-08-19T10:42:03Z</time>
      </trkpt>
      <trkpt lat="41.701535" lon="1.055969">
        <ele>297.421</ele>
        <time>2021-08-19T10:42:05Z</time>
      </trkpt>
      <trkpt lat="41.701487" lon="1.056012">
        <ele>297.708</ele>
        <time>2021-08-19T10:42:07Z</time>
      </trkpt>
      <trkpt lat="41.701437" lon="1.056034">
        <ele>298.097</ele>
        <time>2021-08-19T10:42:09Z</time>
      </trkpt>
      <trkpt lat="41.701385" lon="1.056069">
        <ele>298.390</ele>
        <time>2021-08-19T10:42:11Z</time>
      </trkpt>
      <trkpt lat="41.701333" lon="1.056086">
        <ele>298.463</ele>
        <time>2021-08-19T10:42:13Z</time>
      </trkpt>
      <trkpt lat="41.701274" lon="1.056104">
        <ele>298.514</ele>
        <time>2021-08-19T10:42:15Z</time>
      </trkpt>
      <trkpt lat="41.701219" lon="1.056123">
        <ele>298.521</ele>
        <time>2021-08-19T10:42:17Z</time>
      </trkpt>
      <trkpt lat="41.701169" lon="1.056131">
        <ele>298.679</ele>
        <time>2021-08-19T10:42:19Z</time>
      </trkpt>
      <trkpt lat="41.701122" lon="1.056129">
        <ele>298.858</ele>
        <time>2021-08-19T10:42:21Z</time>
      </trkpt>
      <trkpt lat="41.701074" lon="1.056135">
        <ele>298.497</ele>
        <time>2021-08-19T10:42:23Z</time>
      </trkpt>
      <trkpt lat="41.701029" lon="1.056123">
        <ele>298.028</ele>
        <time>2021-08-19T10:42:25Z</time>
      </trkpt>
      <trkpt lat="41.700970" lon="1.056101">
        <ele>297.589</ele>
        <time>2021-08-19T10:42:28Z</time>
      </trkpt>
      <trkpt lat="41.700913" lon="1.056076">
        <ele>297.017</ele>
        <time>2021-08-19T10:42:31Z</time>
      </trkpt>
      <trkpt lat="41.700849" lon="1.056045">
        <ele>296.408</ele>
        <time>2021-08-19T10:42:34Z</time>
      </trkpt>
      <trkpt lat="41.700801" lon="1.056009">
        <ele>296.310</ele>
        <time>2021-08-19T10:42:36Z</time>
      </trkpt>
      <trkpt lat="41.700756" lon="1.055981">
        <ele>296.263</ele>
        <time>2021-08-19T10:42:38Z</time>
      </trkpt>
      <trkpt lat="41.700705" lon="1.055963">
        <ele>296.146</ele>
        <time>2021-08-19T10:42:40Z</time>
      </trkpt>
      <trkpt lat="41.700661" lon="1.055943">
        <ele>296.037</ele>
        <time>2021-08-19T10:42:42Z</time>
      </trkpt>
      <trkpt lat="41.700607" lon="1.055919">
        <ele>295.914</ele>
        <time>2021-08-19T10:42:45Z</time>
      </trkpt>
      <trkpt lat="41.700555" lon="1.055896">
        <ele>295.852</ele>
        <time>2021-08-19T10:42:48Z</time>
      </trkpt>
      <trkpt lat="41.700516" lon="1.055863">
        <ele>295.971</ele>
        <time>2021-08-19T10:42:50Z</time>
      </trkpt>
      <trkpt lat="41.700470" lon="1.055796">
        <ele>296.290</ele>
        <time>2021-08-19T10:42:53Z</time>
      </trkpt>
      <trkpt lat="41.700442" lon="1.055747">
        <ele>296.556</ele>
        <time>2021-08-19T10:42:55Z</time>
      </trkpt>
      <trkpt lat="41.700422" lon="1.055676">
        <ele>296.959</ele>
        <time>2021-08-19T10:42:57Z</time>
      </trkpt>
      <trkpt lat="41.700417" lon="1.055601">
        <ele>297.314</ele>
        <time>2021-08-19T10:42:59Z</time>
      </trkpt>
      <trkpt lat="41.700411" lon="1.055513">
        <ele>297.308</ele>
        <time>2021-08-19T10:43:01Z</time>
      </trkpt>
      <trkpt lat="41.700418" lon="1.055431">
        <ele>297.153</ele>
        <time>2021-08-19T10:43:03Z</time>
      </trkpt>
      <trkpt lat="41.700433" lon="1.055350">
        <ele>296.836</ele>
        <time>2021-08-19T10:43:05Z</time>
      </trkpt>
      <trkpt lat="41.700442" lon="1.055269">
        <ele>296.699</ele>
        <time>2021-08-19T10:43:07Z</time>
      </trkpt>
      <trkpt lat="41.700449" lon="1.055198">
        <ele>296.390</ele>
        <time>2021-08-19T10:43:09Z</time>
      </trkpt>
      <trkpt lat="41.700457" lon="1.055121">
        <ele>296.147</ele>
        <time>2021-08-19T10:43:11Z</time>
      </trkpt>
      <trkpt lat="41.700472" lon="1.055055">
        <ele>295.985</ele>
        <time>2021-08-19T10:43:13Z</time>
      </trkpt>
      <trkpt lat="41.700480" lon="1.054994">
        <ele>295.774</ele>
        <time>2021-08-19T10:43:14Z</time>
      </trkpt>
      <trkpt lat="41.700474" lon="1.054921">
        <ele>295.493</ele>
        <time>2021-08-19T10:43:16Z</time>
      </trkpt>
      <trkpt lat="41.700472" lon="1.054858">
        <ele>295.244</ele>
        <time>2021-08-19T10:43:18Z</time>
      </trkpt>
      <trkpt lat="41.700471" lon="1.054777">
        <ele>294.905</ele>
        <time>2021-08-19T10:43:20Z</time>
      </trkpt>
      <trkpt lat="41.700481" lon="1.054710">
        <ele>294.715</ele>
        <time>2021-08-19T10:43:22Z</time>
      </trkpt>
      <trkpt lat="41.700507" lon="1.054643">
        <ele>294.708</ele>
        <time>2021-08-19T10:43:24Z</time>
      </trkpt>
      <trkpt lat="41.700510" lon="1.054579">
        <ele>294.742</ele>
        <time>2021-08-19T10:43:26Z</time>
      </trkpt>
      <trkpt lat="41.700521" lon="1.054517">
        <ele>294.715</ele>
        <time>2021-08-19T10:43:28Z</time>
      </trkpt>
      <trkpt lat="41.700544" lon="1.054465">
        <ele>294.988</ele>
        <time>2021-08-19T10:43:30Z</time>
      </trkpt>
      <trkpt lat="41.700586" lon="1.054428">
        <ele>295.239</ele>
        <time>2021-08-19T10:43:33Z</time>
      </trkpt>
      <trkpt lat="41.700641" lon="1.054424">
        <ele>295.696</ele>
        <time>2021-08-19T10:43:35Z</time>
      </trkpt>
      <trkpt lat="41.700702" lon="1.054433">
        <ele>296.024</ele>
        <time>2021-08-19T10:43:39Z</time>
      </trkpt>
      <trkpt lat="41.700749" lon="1.054442">
        <ele>296.463</ele>
        <time>2021-08-19T10:43:41Z</time>
      </trkpt>
      <trkpt lat="41.700817" lon="1.054453">
        <ele>296.932</ele>
        <time>2021-08-19T10:43:44Z</time>
      </trkpt>
      <trkpt lat="41.700881" lon="1.054466">
        <ele>297.672</ele>
        <time>2021-08-19T10:43:47Z</time>
      </trkpt>
      <trkpt lat="41.700934" lon="1.054480">
        <ele>298.213</ele>
        <time>2021-08-19T10:43:50Z</time>
      </trkpt>
      <trkpt lat="41.700982" lon="1.054505">
        <ele>298.714</ele>
        <time>2021-08-19T10:43:53Z</time>
      </trkpt>
      <trkpt lat="41.701032" lon="1.054524">
        <ele>299.208</ele>
        <time>2021-08-19T10:43:56Z</time>
      </trkpt>
      <trkpt lat="41.701086" lon="1.054494">
        <ele>299.775</ele>
        <time>2021-08-19T10:44:01Z</time>
      </trkpt>
      <trkpt lat="41.701118" lon="1.054430">
        <ele>300.048</ele>
        <time>2021-08-19T10:44:04Z</time>
      </trkpt>
      <trkpt lat="41.701130" lon="1.054349">
        <ele>299.831</ele>
        <time>2021-08-19T10:44:07Z</time>
      </trkpt>
      <trkpt lat="41.701137" lon="1.054268">
        <ele>299.672</ele>
        <time>2021-08-19T10:44:10Z</time>
      </trkpt>
      <trkpt lat="41.701152" lon="1.054186">
        <ele>299.519</ele>
        <time>2021-08-19T10:44:12Z</time>
      </trkpt>
      <trkpt lat="41.701161" lon="1.054122">
        <ele>299.297</ele>
        <time>2021-08-19T10:44:14Z</time>
      </trkpt>
      <trkpt lat="41.701179" lon="1.054039">
        <ele>298.926</ele>
        <time>2021-08-19T10:44:16Z</time>
      </trkpt>
      <trkpt lat="41.701185" lon="1.053964">
        <ele>298.585</ele>
        <time>2021-08-19T10:44:18Z</time>
      </trkpt>
      <trkpt lat="41.701199" lon="1.053896">
        <ele>298.361</ele>
        <time>2021-08-19T10:44:20Z</time>
      </trkpt>
      <trkpt lat="41.701207" lon="1.053825">
        <ele>298.221</ele>
        <time>2021-08-19T10:44:22Z</time>
      </trkpt>
      <trkpt lat="41.701216" lon="1.053755">
        <ele>298.013</ele>
        <time>2021-08-19T10:44:24Z</time>
      </trkpt>
      <trkpt lat="41.701212" lon="1.053680">
        <ele>297.708</ele>
        <time>2021-08-19T10:44:26Z</time>
      </trkpt>
      <trkpt lat="41.701207" lon="1.053602">
        <ele>297.354</ele>
        <time>2021-08-19T10:44:28Z</time>
      </trkpt>
      <trkpt lat="41.701195" lon="1.053519">
        <ele>296.897</ele>
        <time>2021-08-19T10:44:30Z</time>
      </trkpt>
      <trkpt lat="41.701189" lon="1.053432">
        <ele>296.330</ele>
        <time>2021-08-19T10:44:32Z</time>
      </trkpt>
      <trkpt lat="41.701184" lon="1.053343">
        <ele>295.871</ele>
        <time>2021-08-19T10:44:34Z</time>
      </trkpt>
      <trkpt lat="41.701179" lon="1.053267">
        <ele>295.768</ele>
        <time>2021-08-19T10:44:36Z</time>
      </trkpt>
      <trkpt lat="41.701177" lon="1.053189">
        <ele>295.636</ele>
        <time>2021-08-19T10:44:38Z</time>
      </trkpt>
      <trkpt lat="41.701186" lon="1.053130">
        <ele>295.615</ele>
        <time>2021-08-19T10:44:40Z</time>
      </trkpt>
      <trkpt lat="41.701182" lon="1.053061">
        <ele>295.514</ele>
        <time>2021-08-19T10:44:43Z</time>
      </trkpt>
      <trkpt lat="41.701187" lon="1.052993">
        <ele>295.636</ele>
        <time>2021-08-19T10:44:46Z</time>
      </trkpt>
      <trkpt lat="41.701171" lon="1.052933">
        <ele>295.717</ele>
        <time>2021-08-19T10:44:49Z</time>
      </trkpt>
      <trkpt lat="41.701172" lon="1.052856">
        <ele>295.818</ele>
        <time>2021-08-19T10:44:52Z</time>
      </trkpt>
      <trkpt lat="41.701198" lon="1.052779">
        <ele>296.008</ele>
        <time>2021-08-19T10:44:55Z</time>
      </trkpt>
      <trkpt lat="41.701241" lon="1.052746">
        <ele>296.191</ele>
        <time>2021-08-19T10:44:58Z</time>
      </trkpt>
      <trkpt lat="41.701286" lon="1.052729">
        <ele>296.144</ele>
        <time>2021-08-19T10:45:20Z</time>
      </trkpt>
      <trkpt lat="41.701331" lon="1.052740">
        <ele>296.087</ele>
        <time>2021-08-19T10:45:24Z</time>
      </trkpt>
      <trkpt lat="41.701381" lon="1.052754">
        <ele>296.028</ele>
        <time>2021-08-19T10:45:28Z</time>
      </trkpt>
      <trkpt lat="41.701418" lon="1.052712">
        <ele>295.865</ele>
        <time>2021-08-19T10:45:31Z</time>
      </trkpt>
      <trkpt lat="41.701466" lon="1.052672">
        <ele>295.443</ele>
        <time>2021-08-19T10:45:34Z</time>
      </trkpt>
      <trkpt lat="41.701520" lon="1.052638">
        <ele>295.162</ele>
        <time>2021-08-19T10:45:37Z</time>
      </trkpt>
      <trkpt lat="41.701572" lon="1.052620">
        <ele>294.751</ele>
        <time>2021-08-19T10:45:40Z</time>
      </trkpt>
      <trkpt lat="41.701630" lon="1.052629">
        <ele>294.335</ele>
        <time>2021-08-19T10:45:43Z</time>
      </trkpt>
      <trkpt lat="41.701687" lon="1.052649">
        <ele>293.986</ele>
        <time>2021-08-19T10:45:46Z</time>
      </trkpt>
      <trkpt lat="41.701754" lon="1.052664">
        <ele>293.414</ele>
        <time>2021-08-19T10:45:49Z</time>
      </trkpt>
      <trkpt lat="41.701798" lon="1.052692">
        <ele>293.108</ele>
        <time>2021-08-19T10:45:51Z</time>
      </trkpt>
      <trkpt lat="41.701850" lon="1.052735">
        <ele>292.751</ele>
        <time>2021-08-19T10:45:54Z</time>
      </trkpt>
      <trkpt lat="41.701893" lon="1.052793">
        <ele>292.554</ele>
        <time>2021-08-19T10:45:57Z</time>
      </trkpt>
      <trkpt lat="41.701921" lon="1.052854">
        <ele>292.777</ele>
        <time>2021-08-19T10:46:00Z</time>
      </trkpt>
      <trkpt lat="41.701968" lon="1.052892">
        <ele>292.688</ele>
        <time>2021-08-19T10:47:08Z</time>
      </trkpt>
      <trkpt lat="41.701976" lon="1.052818">
        <ele>292.095</ele>
        <time>2021-08-19T10:47:15Z</time>
      </trkpt>
      <trkpt lat="41.701940" lon="1.052757">
        <ele>292.033</ele>
        <time>2021-08-19T10:47:18Z</time>
      </trkpt>
      <trkpt lat="41.701909" lon="1.052707">
        <ele>292.312</ele>
        <time>2021-08-19T10:47:23Z</time>
      </trkpt>
      <trkpt lat="41.701894" lon="1.052647">
        <ele>292.431</ele>
        <time>2021-08-19T10:47:27Z</time>
      </trkpt>
      <trkpt lat="41.701933" lon="1.052607">
        <ele>292.114</ele>
        <time>2021-08-19T10:47:31Z</time>
      </trkpt>
      <trkpt lat="41.701975" lon="1.052569">
        <ele>291.854</ele>
        <time>2021-08-19T10:47:35Z</time>
      </trkpt>
      <trkpt lat="41.702009" lon="1.052526">
        <ele>291.509</ele>
        <time>2021-08-19T10:47:37Z</time>
      </trkpt>
      <trkpt lat="41.702010" lon="1.052464">
        <ele>291.708</ele>
        <time>2021-08-19T10:47:39Z</time>
      </trkpt>
      <trkpt lat="41.702012" lon="1.052398">
        <ele>291.949</ele>
        <time>2021-08-19T10:47:41Z</time>
      </trkpt>
      <trkpt lat="41.701999" lon="1.052329">
        <ele>292.242</ele>
        <time>2021-08-19T10:47:43Z</time>
      </trkpt>
      <trkpt lat="41.701961" lon="1.052276">
        <ele>292.775</ele>
        <time>2021-08-19T10:47:46Z</time>
      </trkpt>
      <trkpt lat="41.701922" lon="1.052235">
        <ele>293.026</ele>
        <time>2021-08-19T10:47:49Z</time>
      </trkpt>
      <trkpt lat="41.701872" lon="1.052203">
        <ele>293.113</ele>
        <time>2021-08-19T10:47:52Z</time>
      </trkpt>
      <trkpt lat="41.701834" lon="1.052152">
        <ele>293.071</ele>
        <time>2021-08-19T10:47:55Z</time>
      </trkpt>
      <trkpt lat="41.701804" lon="1.052107">
        <ele>292.930</ele>
        <time>2021-08-19T10:47:58Z</time>
      </trkpt>
      <trkpt lat="41.701743" lon="1.052107">
        <ele>293.279</ele>
        <time>2021-08-19T10:48:51Z</time>
      </trkpt>
      <trkpt lat="41.701721" lon="1.052054">
        <ele>293.146</ele>
        <time>2021-08-19T10:48:54Z</time>
      </trkpt>
      <trkpt lat="41.701754" lon="1.052009">
        <ele>292.788</ele>
        <time>2021-08-19T10:48:57Z</time>
      </trkpt>
      <trkpt lat="41.701802" lon="1.051955">
        <ele>292.116</ele>
        <time>2021-08-19T10:49:00Z</time>
      </trkpt>
      <trkpt lat="41.701836" lon="1.051909">
        <ele>291.708</ele>
        <time>2021-08-19T10:49:02Z</time>
      </trkpt>
      <trkpt lat="41.701871" lon="1.051846">
        <ele>291.472</ele>
        <time>2021-08-19T10:49:04Z</time>
      </trkpt>
      <trkpt lat="41.701907" lon="1.051794">
        <ele>291.225</ele>
        <time>2021-08-19T10:49:06Z</time>
      </trkpt>
      <trkpt lat="41.701945" lon="1.051749">
        <ele>291.078</ele>
        <time>2021-08-19T10:49:08Z</time>
      </trkpt>
      <trkpt lat="41.701985" lon="1.051681">
        <ele>290.759</ele>
        <time>2021-08-19T10:49:11Z</time>
      </trkpt>
      <trkpt lat="41.701949" lon="1.051637">
        <ele>290.996</ele>
        <time>2021-08-19T10:49:14Z</time>
      </trkpt>
      <trkpt lat="41.701919" lon="1.051588">
        <ele>290.894</ele>
        <time>2021-08-19T10:49:17Z</time>
      </trkpt>
      <trkpt lat="41.701890" lon="1.051535">
        <ele>290.763</ele>
        <time>2021-08-19T10:49:19Z</time>
      </trkpt>
      <trkpt lat="41.701938" lon="1.051502">
        <ele>290.412</ele>
        <time>2021-08-19T10:50:05Z</time>
      </trkpt>
      <trkpt lat="41.701974" lon="1.051435">
        <ele>290.026</ele>
        <time>2021-08-19T10:50:08Z</time>
      </trkpt>
      <trkpt lat="41.701959" lon="1.051374">
        <ele>289.947</ele>
        <time>2021-08-19T10:50:11Z</time>
      </trkpt>
      <trkpt lat="41.701979" lon="1.051275">
        <ele>289.511</ele>
        <time>2021-08-19T10:50:13Z</time>
      </trkpt>
      <trkpt lat="41.702010" lon="1.051215">
        <ele>289.308</ele>
        <time>2021-08-19T10:50:14Z</time>
      </trkpt>
      <trkpt lat="41.702048" lon="1.051130">
        <ele>289.060</ele>
        <time>2021-08-19T10:50:16Z</time>
      </trkpt>
      <trkpt lat="41.702078" lon="1.051079">
        <ele>289.083</ele>
        <time>2021-08-19T10:50:17Z</time>
      </trkpt>
      <trkpt lat="41.702097" lon="1.051008">
        <ele>289.096</ele>
        <time>2021-08-19T10:50:19Z</time>
      </trkpt>
      <trkpt lat="41.702116" lon="1.050950">
        <ele>289.047</ele>
        <time>2021-08-19T10:50:20Z</time>
      </trkpt>
      <trkpt lat="41.702154" lon="1.050878">
        <ele>289.084</ele>
        <time>2021-08-19T10:50:22Z</time>
      </trkpt>
      <trkpt lat="41.702171" lon="1.050818">
        <ele>289.042</ele>
        <time>2021-08-19T10:50:23Z</time>
      </trkpt>
      <trkpt lat="41.702207" lon="1.050742">
        <ele>289.081</ele>
        <time>2021-08-19T10:50:25Z</time>
      </trkpt>
      <trkpt lat="41.702242" lon="1.050659">
        <ele>289.140</ele>
        <time>2021-08-19T10:50:27Z</time>
      </trkpt>
      <trkpt lat="41.702265" lon="1.050589">
        <ele>289.215</ele>
        <time>2021-08-19T10:50:29Z</time>
      </trkpt>
      <trkpt lat="41.702283" lon="1.050527">
        <ele>289.265</ele>
        <time>2021-08-19T10:50:30Z</time>
      </trkpt>
      <trkpt lat="41.702315" lon="1.050454">
        <ele>289.211</ele>
        <time>2021-08-19T10:50:32Z</time>
      </trkpt>
      <trkpt lat="41.702333" lon="1.050394">
        <ele>289.208</ele>
        <time>2021-08-19T10:50:33Z</time>
      </trkpt>
      <trkpt lat="41.702365" lon="1.050317">
        <ele>289.119</ele>
        <time>2021-08-19T10:50:35Z</time>
      </trkpt>
      <trkpt lat="41.702393" lon="1.050235">
        <ele>288.952</ele>
        <time>2021-08-19T10:50:37Z</time>
      </trkpt>
      <trkpt lat="41.702410" lon="1.050171">
        <ele>288.755</ele>
        <time>2021-08-19T10:50:38Z</time>
      </trkpt>
      <trkpt lat="41.702429" lon="1.050106">
        <ele>288.536</ele>
        <time>2021-08-19T10:50:40Z</time>
      </trkpt>
      <trkpt lat="41.702457" lon="1.050044">
        <ele>288.343</ele>
        <time>2021-08-19T10:50:41Z</time>
      </trkpt>
      <trkpt lat="41.702494" lon="1.049964">
        <ele>287.981</ele>
        <time>2021-08-19T10:50:43Z</time>
      </trkpt>
      <trkpt lat="41.702516" lon="1.049863">
        <ele>287.660</ele>
        <time>2021-08-19T10:50:45Z</time>
      </trkpt>
      <trkpt lat="41.702538" lon="1.049809">
        <ele>287.449</ele>
        <time>2021-08-19T10:50:46Z</time>
      </trkpt>
      <trkpt lat="41.702558" lon="1.049739">
        <ele>287.316</ele>
        <time>2021-08-19T10:50:48Z</time>
      </trkpt>
      <trkpt lat="41.702579" lon="1.049666">
        <ele>287.476</ele>
        <time>2021-08-19T10:50:49Z</time>
      </trkpt>
      <trkpt lat="41.702602" lon="1.049591">
        <ele>287.513</ele>
        <time>2021-08-19T10:50:51Z</time>
      </trkpt>
      <trkpt lat="41.702621" lon="1.049519">
        <ele>287.508</ele>
        <time>2021-08-19T10:50:52Z</time>
      </trkpt>
      <trkpt lat="41.702649" lon="1.049443">
        <ele>287.589</ele>
        <time>2021-08-19T10:50:54Z</time>
      </trkpt>
      <trkpt lat="41.702669" lon="1.049386">
        <ele>287.462</ele>
        <time>2021-08-19T10:50:55Z</time>
      </trkpt>
      <trkpt lat="41.702692" lon="1.049298">
        <ele>287.585</ele>
        <time>2021-08-19T10:50:57Z</time>
      </trkpt>
      <trkpt lat="41.702711" lon="1.049228">
        <ele>287.636</ele>
        <time>2021-08-19T10:50:58Z</time>
      </trkpt>
      <trkpt lat="41.702732" lon="1.049142">
        <ele>287.913</ele>
        <time>2021-08-19T10:51:00Z</time>
      </trkpt>
      <trkpt lat="41.702749" lon="1.049074">
        <ele>288.271</ele>
        <time>2021-08-19T10:51:01Z</time>
      </trkpt>
      <trkpt lat="41.702772" lon="1.048985">
        <ele>288.690</ele>
        <time>2021-08-19T10:51:03Z</time>
      </trkpt>
      <trkpt lat="41.702803" lon="1.048884">
        <ele>289.149</ele>
        <time>2021-08-19T10:51:05Z</time>
      </trkpt>
      <trkpt lat="41.702828" lon="1.048801">
        <ele>289.844</ele>
        <time>2021-08-19T10:51:07Z</time>
      </trkpt>
      <trkpt lat="41.702841" lon="1.048741">
        <ele>290.405</ele>
        <time>2021-08-19T10:51:08Z</time>
      </trkpt>
      <trkpt lat="41.702856" lon="1.048683">
        <ele>290.815</ele>
        <time>2021-08-19T10:51:09Z</time>
      </trkpt>
      <trkpt lat="41.702873" lon="1.048616">
        <ele>291.308</ele>
        <time>2021-08-19T10:51:11Z</time>
      </trkpt>
      <trkpt lat="41.702883" lon="1.048552">
        <ele>291.262</ele>
        <time>2021-08-19T10:51:12Z</time>
      </trkpt>
      <trkpt lat="41.702915" lon="1.048467">
        <ele>291.015</ele>
        <time>2021-08-19T10:51:14Z</time>
      </trkpt>
      <trkpt lat="41.702940" lon="1.048377">
        <ele>290.888</ele>
        <time>2021-08-19T10:51:16Z</time>
      </trkpt>
      <trkpt lat="41.702963" lon="1.048306">
        <ele>290.659</ele>
        <time>2021-08-19T10:51:17Z</time>
      </trkpt>
      <trkpt lat="41.702982" lon="1.048240">
        <ele>290.446</ele>
        <time>2021-08-19T10:51:19Z</time>
      </trkpt>
      <trkpt lat="41.703007" lon="1.048151">
        <ele>290.124</ele>
        <time>2021-08-19T10:51:21Z</time>
      </trkpt>
      <trkpt lat="41.703026" lon="1.048091">
        <ele>290.033</ele>
        <time>2021-08-19T10:51:22Z</time>
      </trkpt>
      <trkpt lat="41.703045" lon="1.048029">
        <ele>289.912</ele>
        <time>2021-08-19T10:51:23Z</time>
      </trkpt>
      <trkpt lat="41.703070" lon="1.047951">
        <ele>289.672</ele>
        <time>2021-08-19T10:51:25Z</time>
      </trkpt>
      <trkpt lat="41.703098" lon="1.047861">
        <ele>289.513</ele>
        <time>2021-08-19T10:51:27Z</time>
      </trkpt>
      <trkpt lat="41.703123" lon="1.047771">
        <ele>289.514</ele>
        <time>2021-08-19T10:51:29Z</time>
      </trkpt>
      <trkpt lat="41.703145" lon="1.047710">
        <ele>290.108</ele>
        <time>2021-08-19T10:51:31Z</time>
      </trkpt>
      <trkpt lat="41.703166" lon="1.047642">
        <ele>290.685</ele>
        <time>2021-08-19T10:51:33Z</time>
      </trkpt>
      <trkpt lat="41.703193" lon="1.047587">
        <ele>291.028</ele>
        <time>2021-08-19T10:51:34Z</time>
      </trkpt>
      <trkpt lat="41.703224" lon="1.047517">
        <ele>291.551</ele>
        <time>2021-08-19T10:51:36Z</time>
      </trkpt>
      <trkpt lat="41.703269" lon="1.047472">
        <ele>291.772</ele>
        <time>2021-08-19T10:51:38Z</time>
      </trkpt>
      <trkpt lat="41.703329" lon="1.047436">
        <ele>291.879</ele>
        <time>2021-08-19T10:51:40Z</time>
      </trkpt>
      <trkpt lat="41.703385" lon="1.047415">
        <ele>291.757</ele>
        <time>2021-08-19T10:51:42Z</time>
      </trkpt>
      <trkpt lat="41.703454" lon="1.047382">
        <ele>291.616</ele>
        <time>2021-08-19T10:51:44Z</time>
      </trkpt>
      <trkpt lat="41.703527" lon="1.047357">
        <ele>291.535</ele>
        <time>2021-08-19T10:51:46Z</time>
      </trkpt>
      <trkpt lat="41.703580" lon="1.047338">
        <ele>291.462</ele>
        <time>2021-08-19T10:51:48Z</time>
      </trkpt>
      <trkpt lat="41.703631" lon="1.047317">
        <ele>291.383</ele>
        <time>2021-08-19T10:51:49Z</time>
      </trkpt>
      <trkpt lat="41.703697" lon="1.047274">
        <ele>291.211</ele>
        <time>2021-08-19T10:51:51Z</time>
      </trkpt>
      <trkpt lat="41.703750" lon="1.047222">
        <ele>291.008</ele>
        <time>2021-08-19T10:51:53Z</time>
      </trkpt>
      <trkpt lat="41.703794" lon="1.047185">
        <ele>290.714</ele>
        <time>2021-08-19T10:51:54Z</time>
      </trkpt>
      <trkpt lat="41.703857" lon="1.047119">
        <ele>290.217</ele>
        <time>2021-08-19T10:51:56Z</time>
      </trkpt>
      <trkpt lat="41.703913" lon="1.047056">
        <ele>289.870</ele>
        <time>2021-08-19T10:51:58Z</time>
      </trkpt>
      <trkpt lat="41.703967" lon="1.046987">
        <ele>289.391</ele>
        <time>2021-08-19T10:52:00Z</time>
      </trkpt>
      <trkpt lat="41.704011" lon="1.046924">
        <ele>288.998</ele>
        <time>2021-08-19T10:52:02Z</time>
      </trkpt>
      <trkpt lat="41.704052" lon="1.046865">
        <ele>288.826</ele>
        <time>2021-08-19T10:52:04Z</time>
      </trkpt>
      <trkpt lat="41.704083" lon="1.046820">
        <ele>288.795</ele>
        <time>2021-08-19T10:52:06Z</time>
      </trkpt>
      <trkpt lat="41.704115" lon="1.046769">
        <ele>288.834</ele>
        <time>2021-08-19T10:52:09Z</time>
      </trkpt>
      <trkpt lat="41.704150" lon="1.046720">
        <ele>288.953</ele>
        <time>2021-08-19T10:52:13Z</time>
      </trkpt>
      <trkpt lat="41.704178" lon="1.046671">
        <ele>289.004</ele>
        <time>2021-08-19T10:52:18Z</time>
      </trkpt>
      <trkpt lat="41.704213" lon="1.046617">
        <ele>288.914</ele>
        <time>2021-08-19T10:52:21Z</time>
      </trkpt>
      <trkpt lat="41.704243" lon="1.046564">
        <ele>288.808</ele>
        <time>2021-08-19T10:52:23Z</time>
      </trkpt>
      <trkpt lat="41.704279" lon="1.046493">
        <ele>288.993</ele>
        <time>2021-08-19T10:52:25Z</time>
      </trkpt>
      <trkpt lat="41.704310" lon="1.046429">
        <ele>289.066</ele>
        <time>2021-08-19T10:52:27Z</time>
      </trkpt>
      <trkpt lat="41.704347" lon="1.046361">
        <ele>289.389</ele>
        <time>2021-08-19T10:52:29Z</time>
      </trkpt>
      <trkpt lat="41.704393" lon="1.046302">
        <ele>289.640</ele>
        <time>2021-08-19T10:52:31Z</time>
      </trkpt>
      <trkpt lat="41.704429" lon="1.046224">
        <ele>289.957</ele>
        <time>2021-08-19T10:52:33Z</time>
      </trkpt>
      <trkpt lat="41.704445" lon="1.046137">
        <ele>290.045</ele>
        <time>2021-08-19T10:52:35Z</time>
      </trkpt>
      <trkpt lat="41.704474" lon="1.046051">
        <ele>290.264</ele>
        <time>2021-08-19T10:52:37Z</time>
      </trkpt>
      <trkpt lat="41.704500" lon="1.045979">
        <ele>290.533</ele>
        <time>2021-08-19T10:52:39Z</time>
      </trkpt>
      <trkpt lat="41.704530" lon="1.045883">
        <ele>290.863</ele>
        <time>2021-08-19T10:52:41Z</time>
      </trkpt>
      <trkpt lat="41.704560" lon="1.045799">
        <ele>290.844</ele>
        <time>2021-08-19T10:52:43Z</time>
      </trkpt>
      <trkpt lat="41.704592" lon="1.045715">
        <ele>290.418</ele>
        <time>2021-08-19T10:52:45Z</time>
      </trkpt>
      <trkpt lat="41.704619" lon="1.045625">
        <ele>290.008</ele>
        <time>2021-08-19T10:52:47Z</time>
      </trkpt>
      <trkpt lat="41.704644" lon="1.045534">
        <ele>289.664</ele>
        <time>2021-08-19T10:52:49Z</time>
      </trkpt>
      <trkpt lat="41.704670" lon="1.045462">
        <ele>289.217</ele>
        <time>2021-08-19T10:52:51Z</time>
      </trkpt>
      <trkpt lat="41.704690" lon="1.045398">
        <ele>288.830</ele>
        <time>2021-08-19T10:52:52Z</time>
      </trkpt>
      <trkpt lat="41.704705" lon="1.045333">
        <ele>288.431</ele>
        <time>2021-08-19T10:52:54Z</time>
      </trkpt>
      <trkpt lat="41.704722" lon="1.045261">
        <ele>287.928</ele>
        <time>2021-08-19T10:52:55Z</time>
      </trkpt>
      <trkpt lat="41.704736" lon="1.045199">
        <ele>287.856</ele>
        <time>2021-08-19T10:52:57Z</time>
      </trkpt>
      <trkpt lat="41.704757" lon="1.045132">
        <ele>287.715</ele>
        <time>2021-08-19T10:52:58Z</time>
      </trkpt>
      <trkpt lat="41.704776" lon="1.045040">
        <ele>287.534</ele>
        <time>2021-08-19T10:53:00Z</time>
      </trkpt>
      <trkpt lat="41.704797" lon="1.044972">
        <ele>287.431</ele>
        <time>2021-08-19T10:53:02Z</time>
      </trkpt>
      <trkpt lat="41.704812" lon="1.044902">
        <ele>287.261</ele>
        <time>2021-08-19T10:53:03Z</time>
      </trkpt>
      <trkpt lat="41.704834" lon="1.044806">
        <ele>286.807</ele>
        <time>2021-08-19T10:53:05Z</time>
      </trkpt>
      <trkpt lat="41.704856" lon="1.044713">
        <ele>286.408</ele>
        <time>2021-08-19T10:53:07Z</time>
      </trkpt>
      <trkpt lat="41.704873" lon="1.044619">
        <ele>286.221</ele>
        <time>2021-08-19T10:53:09Z</time>
      </trkpt>
      <trkpt lat="41.704885" lon="1.044543">
        <ele>285.934</ele>
        <time>2021-08-19T10:53:11Z</time>
      </trkpt>
      <trkpt lat="41.704894" lon="1.044479">
        <ele>285.767</ele>
        <time>2021-08-19T10:53:12Z</time>
      </trkpt>
      <trkpt lat="41.704904" lon="1.044397">
        <ele>285.568</ele>
        <time>2021-08-19T10:53:14Z</time>
      </trkpt>
      <trkpt lat="41.704913" lon="1.044305">
        <ele>285.255</ele>
        <time>2021-08-19T10:53:16Z</time>
      </trkpt>
      <trkpt lat="41.704923" lon="1.044223">
        <ele>284.943</ele>
        <time>2021-08-19T10:53:18Z</time>
      </trkpt>
      <trkpt lat="41.704931" lon="1.044163">
        <ele>284.832</ele>
        <time>2021-08-19T10:53:19Z</time>
      </trkpt>
      <trkpt lat="41.704940" lon="1.044070">
        <ele>285.131</ele>
        <time>2021-08-19T10:53:21Z</time>
      </trkpt>
      <trkpt lat="41.704960" lon="1.043975">
        <ele>285.581</ele>
        <time>2021-08-19T10:53:23Z</time>
      </trkpt>
      <trkpt lat="41.704973" lon="1.043886">
        <ele>285.961</ele>
        <time>2021-08-19T10:53:25Z</time>
      </trkpt>
      <trkpt lat="41.704979" lon="1.043824">
        <ele>286.217</ele>
        <time>2021-08-19T10:53:26Z</time>
      </trkpt>
      <trkpt lat="41.704991" lon="1.043712">
        <ele>286.608</ele>
        <time>2021-08-19T10:53:28Z</time>
      </trkpt>
      <trkpt lat="41.705009" lon="1.043610">
        <ele>287.096</ele>
        <time>2021-08-19T10:53:30Z</time>
      </trkpt>
      <trkpt lat="41.705019" lon="1.043521">
        <ele>287.329</ele>
        <time>2021-08-19T10:53:32Z</time>
      </trkpt>
      <trkpt lat="41.705040" lon="1.043441">
        <ele>287.552</ele>
        <time>2021-08-19T10:53:34Z</time>
      </trkpt>
      <trkpt lat="41.705057" lon="1.043333">
        <ele>287.883</ele>
        <time>2021-08-19T10:53:36Z</time>
      </trkpt>
      <trkpt lat="41.705067" lon="1.043242">
        <ele>286.940</ele>
        <time>2021-08-19T10:53:38Z</time>
      </trkpt>
      <trkpt lat="41.705074" lon="1.043152">
        <ele>286.118</ele>
        <time>2021-08-19T10:53:40Z</time>
      </trkpt>
      <trkpt lat="41.705080" lon="1.043084">
        <ele>285.517</ele>
        <time>2021-08-19T10:53:41Z</time>
      </trkpt>
      <trkpt lat="41.705080" lon="1.042987">
        <ele>285.096</ele>
        <time>2021-08-19T10:53:43Z</time>
      </trkpt>
      <trkpt lat="41.705085" lon="1.042893">
        <ele>284.561</ele>
        <time>2021-08-19T10:53:45Z</time>
      </trkpt>
      <trkpt lat="41.705090" lon="1.042826">
        <ele>284.221</ele>
        <time>2021-08-19T10:53:46Z</time>
      </trkpt>
      <trkpt lat="41.705090" lon="1.042722">
        <ele>284.113</ele>
        <time>2021-08-19T10:53:48Z</time>
      </trkpt>
      <trkpt lat="41.705083" lon="1.042608">
        <ele>284.408</ele>
        <time>2021-08-19T10:53:50Z</time>
      </trkpt>
      <trkpt lat="41.705086" lon="1.042510">
        <ele>284.744</ele>
        <time>2021-08-19T10:53:52Z</time>
      </trkpt>
      <trkpt lat="41.705106" lon="1.042426">
        <ele>284.797</ele>
        <time>2021-08-19T10:53:53Z</time>
      </trkpt>
      <trkpt lat="41.705125" lon="1.042356">
        <ele>284.860</ele>
        <time>2021-08-19T10:53:54Z</time>
      </trkpt>
      <trkpt lat="41.705150" lon="1.042286">
        <ele>284.931</ele>
        <time>2021-08-19T10:53:55Z</time>
      </trkpt>
      <trkpt lat="41.705197" lon="1.042148">
        <ele>284.828</ele>
        <time>2021-08-19T10:53:57Z</time>
      </trkpt>
      <trkpt lat="41.705246" lon="1.042026">
        <ele>284.426</ele>
        <time>2021-08-19T10:53:59Z</time>
      </trkpt>
      <trkpt lat="41.705270" lon="1.041969">
        <ele>284.135</ele>
        <time>2021-08-19T10:54:00Z</time>
      </trkpt>
      <trkpt lat="41.705294" lon="1.041913">
        <ele>284.174</ele>
        <time>2021-08-19T10:54:01Z</time>
      </trkpt>
      <trkpt lat="41.705341" lon="1.041801">
        <ele>284.341</ele>
        <time>2021-08-19T10:54:03Z</time>
      </trkpt>
      <trkpt lat="41.705393" lon="1.041679">
        <ele>284.881</ele>
        <time>2021-08-19T10:54:05Z</time>
      </trkpt>
      <trkpt lat="41.705450" lon="1.041548">
        <ele>285.209</ele>
        <time>2021-08-19T10:54:07Z</time>
      </trkpt>
      <trkpt lat="41.705477" lon="1.041482">
        <ele>285.408</ele>
        <time>2021-08-19T10:54:08Z</time>
      </trkpt>
      <trkpt lat="41.705527" lon="1.041354">
        <ele>285.812</ele>
        <time>2021-08-19T10:54:10Z</time>
      </trkpt>
      <trkpt lat="41.705576" lon="1.041236">
        <ele>286.055</ele>
        <time>2021-08-19T10:54:12Z</time>
      </trkpt>
      <trkpt lat="41.705599" lon="1.041183">
        <ele>286.098</ele>
        <time>2021-08-19T10:54:13Z</time>
      </trkpt>
      <trkpt lat="41.705620" lon="1.041129">
        <ele>286.019</ele>
        <time>2021-08-19T10:54:14Z</time>
      </trkpt>
      <trkpt lat="41.705643" lon="1.041076">
        <ele>286.036</ele>
        <time>2021-08-19T10:54:15Z</time>
      </trkpt>
      <trkpt lat="41.705668" lon="1.041022">
        <ele>286.064</ele>
        <time>2021-08-19T10:54:16Z</time>
      </trkpt>
      <trkpt lat="41.705692" lon="1.040963">
        <ele>286.043</ele>
        <time>2021-08-19T10:54:17Z</time>
      </trkpt>
      <trkpt lat="41.705739" lon="1.040859">
        <ele>286.012</ele>
        <time>2021-08-19T10:54:19Z</time>
      </trkpt>
      <trkpt lat="41.705774" lon="1.040775">
        <ele>286.021</ele>
        <time>2021-08-19T10:54:21Z</time>
      </trkpt>
      <trkpt lat="41.705795" lon="1.040715">
        <ele>285.941</ele>
        <time>2021-08-19T10:54:22Z</time>
      </trkpt>
      <trkpt lat="41.705837" lon="1.040614">
        <ele>286.005</ele>
        <time>2021-08-19T10:54:24Z</time>
      </trkpt>
      <trkpt lat="41.705878" lon="1.040528">
        <ele>286.008</ele>
        <time>2021-08-19T10:54:26Z</time>
      </trkpt>
      <trkpt lat="41.705923" lon="1.040419">
        <ele>286.060</ele>
        <time>2021-08-19T10:54:28Z</time>
      </trkpt>
      <trkpt lat="41.705976" lon="1.040358">
        <ele>286.023</ele>
        <time>2021-08-19T10:54:30Z</time>
      </trkpt>
      <trkpt lat="41.706022" lon="1.040213">
        <ele>285.986</ele>
        <time>2021-08-19T10:54:32Z</time>
      </trkpt>
      <trkpt lat="41.706045" lon="1.040121">
        <ele>285.717</ele>
        <time>2021-08-19T10:54:34Z</time>
      </trkpt>
      <trkpt lat="41.706088" lon="1.040007">
        <ele>285.844</ele>
        <time>2021-08-19T10:54:36Z</time>
      </trkpt>
      <trkpt lat="41.706113" lon="1.039947">
        <ele>285.692</ele>
        <time>2021-08-19T10:54:37Z</time>
      </trkpt>
      <trkpt lat="41.706135" lon="1.039894">
        <ele>285.221</ele>
        <time>2021-08-19T10:54:38Z</time>
      </trkpt>
      <trkpt lat="41.706158" lon="1.039831">
        <ele>284.770</ele>
        <time>2021-08-19T10:54:39Z</time>
      </trkpt>
      <trkpt lat="41.706180" lon="1.039778">
        <ele>284.451</ele>
        <time>2021-08-19T10:54:40Z</time>
      </trkpt>
      <trkpt lat="41.706220" lon="1.039673">
        <ele>284.001</ele>
        <time>2021-08-19T10:54:42Z</time>
      </trkpt>
      <trkpt lat="41.706257" lon="1.039565">
        <ele>284.011</ele>
        <time>2021-08-19T10:54:44Z</time>
      </trkpt>
      <trkpt lat="41.706297" lon="1.039468">
        <ele>284.008</ele>
        <time>2021-08-19T10:54:46Z</time>
      </trkpt>
      <trkpt lat="41.706321" lon="1.039362">
        <ele>284.133</ele>
        <time>2021-08-19T10:54:48Z</time>
      </trkpt>
      <trkpt lat="41.706344" lon="1.039252">
        <ele>284.166</ele>
        <time>2021-08-19T10:54:50Z</time>
      </trkpt>
      <trkpt lat="41.706356" lon="1.039143">
        <ele>284.249</ele>
        <time>2021-08-19T10:54:52Z</time>
      </trkpt>
      <trkpt lat="41.706366" lon="1.039038">
        <ele>284.540</ele>
        <time>2021-08-19T10:54:54Z</time>
      </trkpt>
      <trkpt lat="41.706381" lon="1.038929">
        <ele>284.957</ele>
        <time>2021-08-19T10:54:56Z</time>
      </trkpt>
      <trkpt lat="41.706392" lon="1.038814">
        <ele>285.025</ele>
        <time>2021-08-19T10:54:58Z</time>
      </trkpt>
      <trkpt lat="41.706391" lon="1.038703">
        <ele>285.044</ele>
        <time>2021-08-19T10:55:00Z</time>
      </trkpt>
      <trkpt lat="41.706398" lon="1.038594">
        <ele>285.083</ele>
        <time>2021-08-19T10:55:02Z</time>
      </trkpt>
      <trkpt lat="41.706418" lon="1.038490">
        <ele>285.018</ele>
        <time>2021-08-19T10:55:04Z</time>
      </trkpt>
      <trkpt lat="41.706442" lon="1.038394">
        <ele>285.198</ele>
        <time>2021-08-19T10:55:06Z</time>
      </trkpt>
      <trkpt lat="41.706484" lon="1.038331">
        <ele>285.317</ele>
        <time>2021-08-19T10:55:08Z</time>
      </trkpt>
      <trkpt lat="41.706552" lon="1.038258">
        <ele>285.308</ele>
        <time>2021-08-19T10:55:10Z</time>
      </trkpt>
      <trkpt lat="41.706589" lon="1.038187">
        <ele>285.299</ele>
        <time>2021-08-19T10:55:12Z</time>
      </trkpt>
      <trkpt lat="41.706622" lon="1.038117">
        <ele>285.192</ele>
        <time>2021-08-19T10:55:14Z</time>
      </trkpt>
      <trkpt lat="41.706660" lon="1.038035">
        <ele>284.925</ele>
        <time>2021-08-19T10:55:16Z</time>
      </trkpt>
      <trkpt lat="41.706692" lon="1.037970">
        <ele>284.726</ele>
        <time>2021-08-19T10:55:18Z</time>
      </trkpt>
      <trkpt lat="41.706717" lon="1.037918">
        <ele>284.573</ele>
        <time>2021-08-19T10:55:20Z</time>
      </trkpt>
      <trkpt lat="41.706743" lon="1.037841">
        <ele>284.251</ele>
        <time>2021-08-19T10:55:22Z</time>
      </trkpt>
      <trkpt lat="41.706765" lon="1.037756">
        <ele>283.960</ele>
        <time>2021-08-19T10:55:24Z</time>
      </trkpt>
      <trkpt lat="41.706785" lon="1.037673">
        <ele>283.689</ele>
        <time>2021-08-19T10:55:26Z</time>
      </trkpt>
      <trkpt lat="41.706800" lon="1.037613">
        <ele>283.453</ele>
        <time>2021-08-19T10:55:27Z</time>
      </trkpt>
      <trkpt lat="41.706819" lon="1.037525">
        <ele>283.104</ele>
        <time>2021-08-19T10:55:29Z</time>
      </trkpt>
      <trkpt lat="41.706845" lon="1.037444">
        <ele>283.014</ele>
        <time>2021-08-19T10:55:31Z</time>
      </trkpt>
      <trkpt lat="41.706861" lon="1.037370">
        <ele>283.008</ele>
        <time>2021-08-19T10:55:33Z</time>
      </trkpt>
      <trkpt lat="41.706884" lon="1.037294">
        <ele>283.013</ele>
        <time>2021-08-19T10:55:35Z</time>
      </trkpt>
      <trkpt lat="41.706902" lon="1.037215">
        <ele>283.046</ele>
        <time>2021-08-19T10:55:38Z</time>
      </trkpt>
      <trkpt lat="41.706932" lon="1.037160">
        <ele>283.249</ele>
        <time>2021-08-19T10:55:41Z</time>
      </trkpt>
      <trkpt lat="41.706963" lon="1.037084">
        <ele>283.450</ele>
        <time>2021-08-19T10:56:08Z</time>
      </trkpt>
      <trkpt lat="41.707016" lon="1.037034">
        <ele>283.387</ele>
        <time>2021-08-19T10:56:10Z</time>
      </trkpt>
      <trkpt lat="41.707068" lon="1.036983">
        <ele>283.125</ele>
        <time>2021-08-19T10:56:12Z</time>
      </trkpt>
      <trkpt lat="41.707114" lon="1.036921">
        <ele>282.774</ele>
        <time>2021-08-19T10:56:14Z</time>
      </trkpt>
      <trkpt lat="41.707150" lon="1.036856">
        <ele>282.463</ele>
        <time>2021-08-19T10:56:16Z</time>
      </trkpt>
      <trkpt lat="41.707182" lon="1.036807">
        <ele>282.284</ele>
        <time>2021-08-19T10:56:18Z</time>
      </trkpt>
      <trkpt lat="41.707224" lon="1.036745">
        <ele>282.007</ele>
        <time>2021-08-19T10:56:20Z</time>
      </trkpt>
      <trkpt lat="41.707266" lon="1.036693">
        <ele>282.017</ele>
        <time>2021-08-19T10:56:22Z</time>
      </trkpt>
      <trkpt lat="41.707302" lon="1.036634">
        <ele>281.908</ele>
        <time>2021-08-19T10:56:24Z</time>
      </trkpt>
      <trkpt lat="41.707342" lon="1.036577">
        <ele>281.826</ele>
        <time>2021-08-19T10:56:26Z</time>
      </trkpt>
      <trkpt lat="41.707396" lon="1.036499">
        <ele>281.849</ele>
        <time>2021-08-19T10:56:28Z</time>
      </trkpt>
      <trkpt lat="41.707443" lon="1.036441">
        <ele>281.812</ele>
        <time>2021-08-19T10:56:30Z</time>
      </trkpt>
      <trkpt lat="41.707482" lon="1.036363">
        <ele>281.923</ele>
        <time>2021-08-19T10:56:32Z</time>
      </trkpt>
      <trkpt lat="41.707526" lon="1.036293">
        <ele>282.180</ele>
        <time>2021-08-19T10:56:34Z</time>
      </trkpt>
      <trkpt lat="41.707568" lon="1.036219">
        <ele>282.418</ele>
        <time>2021-08-19T10:56:36Z</time>
      </trkpt>
      <trkpt lat="41.707614" lon="1.036143">
        <ele>282.817</ele>
        <time>2021-08-19T10:56:38Z</time>
      </trkpt>
      <trkpt lat="41.707670" lon="1.036065">
        <ele>283.346</ele>
        <time>2021-08-19T10:56:40Z</time>
      </trkpt>
      <trkpt lat="41.707708" lon="1.036011">
        <ele>283.684</ele>
        <time>2021-08-19T10:56:42Z</time>
      </trkpt>
      <trkpt lat="41.707746" lon="1.035953">
        <ele>283.807</ele>
        <time>2021-08-19T10:56:43Z</time>
      </trkpt>
      <trkpt lat="41.707800" lon="1.035877">
        <ele>284.017</ele>
        <time>2021-08-19T10:56:45Z</time>
      </trkpt>
      <trkpt lat="41.707855" lon="1.035792">
        <ele>284.008</ele>
        <time>2021-08-19T10:56:47Z</time>
      </trkpt>
      <trkpt lat="41.707897" lon="1.035711">
        <ele>284.046</ele>
        <time>2021-08-19T10:56:49Z</time>
      </trkpt>
      <trkpt lat="41.707933" lon="1.035640">
        <ele>284.099</ele>
        <time>2021-08-19T10:56:51Z</time>
      </trkpt>
      <trkpt lat="41.707972" lon="1.035554">
        <ele>284.092</ele>
        <time>2021-08-19T10:56:53Z</time>
      </trkpt>
      <trkpt lat="41.707999" lon="1.035492">
        <ele>284.053</ele>
        <time>2021-08-19T10:56:55Z</time>
      </trkpt>
      <trkpt lat="41.708026" lon="1.035443">
        <ele>284.060</ele>
        <time>2021-08-19T10:56:56Z</time>
      </trkpt>
      <trkpt lat="41.708054" lon="1.035388">
        <ele>284.068</ele>
        <time>2021-08-19T10:56:58Z</time>
      </trkpt>
      <trkpt lat="41.708078" lon="1.035337">
        <ele>283.837</ele>
        <time>2021-08-19T10:57:00Z</time>
      </trkpt>
      <trkpt lat="41.708104" lon="1.035267">
        <ele>283.776</ele>
        <time>2021-08-19T10:57:03Z</time>
      </trkpt>
      <trkpt lat="41.708130" lon="1.035197">
        <ele>283.573</ele>
        <time>2021-08-19T10:57:06Z</time>
      </trkpt>
      <trkpt lat="41.708159" lon="1.035137">
        <ele>283.485</ele>
        <time>2021-08-19T10:57:08Z</time>
      </trkpt>
      <trkpt lat="41.708180" lon="1.035082">
        <ele>283.413</ele>
        <time>2021-08-19T10:57:10Z</time>
      </trkpt>
      <trkpt lat="41.708213" lon="1.035028">
        <ele>283.408</ele>
        <time>2021-08-19T10:57:12Z</time>
      </trkpt>
      <trkpt lat="41.708245" lon="1.034972">
        <ele>283.355</ele>
        <time>2021-08-19T10:57:14Z</time>
      </trkpt>
      <trkpt lat="41.708271" lon="1.034905">
        <ele>283.188</ele>
        <time>2021-08-19T10:57:16Z</time>
      </trkpt>
      <trkpt lat="41.708294" lon="1.034835">
        <ele>283.141</ele>
        <time>2021-08-19T10:57:18Z</time>
      </trkpt>
      <trkpt lat="41.708325" lon="1.034766">
        <ele>283.032</ele>
        <time>2021-08-19T10:57:20Z</time>
      </trkpt>
      <trkpt lat="41.708368" lon="1.034701">
        <ele>283.149</ele>
        <time>2021-08-19T10:57:23Z</time>
      </trkpt>
      <trkpt lat="41.708410" lon="1.034672">
        <ele>283.257</ele>
        <time>2021-08-19T10:57:26Z</time>
      </trkpt>
      <trkpt lat="41.708456" lon="1.034654">
        <ele>283.276</ele>
        <time>2021-08-19T10:57:29Z</time>
      </trkpt>
      <trkpt lat="41.708503" lon="1.034657">
        <ele>283.235</ele>
        <time>2021-08-19T10:57:32Z</time>
      </trkpt>
      <trkpt lat="41.708553" lon="1.034623">
        <ele>283.474</ele>
        <time>2021-08-19T10:57:35Z</time>
      </trkpt>
      <trkpt lat="41.708611" lon="1.034603">
        <ele>283.456</ele>
        <time>2021-08-19T10:57:38Z</time>
      </trkpt>
      <trkpt lat="41.708572" lon="1.034558">
        <ele>283.621</ele>
        <time>2021-08-19T11:01:47Z</time>
      </trkpt>
      <trkpt lat="41.708534" lon="1.034522">
        <ele>283.708</ele>
        <time>2021-08-19T11:01:51Z</time>
      </trkpt>
      <trkpt lat="41.708481" lon="1.034493">
        <ele>283.885</ele>
        <time>2021-08-19T11:01:55Z</time>
      </trkpt>
      <trkpt lat="41.708447" lon="1.034437">
        <ele>284.038</ele>
        <time>2021-08-19T11:01:59Z</time>
      </trkpt>
      <trkpt lat="41.708465" lon="1.034380">
        <ele>284.071</ele>
        <time>2021-08-19T11:02:15Z</time>
      </trkpt>
      <trkpt lat="41.708502" lon="1.034331">
        <ele>284.092</ele>
        <time>2021-08-19T11:02:21Z</time>
      </trkpt>
      <trkpt lat="41.708546" lon="1.034285">
        <ele>284.069</ele>
        <time>2021-08-19T11:02:24Z</time>
      </trkpt>
      <trkpt lat="41.708574" lon="1.034231">
        <ele>284.047</ele>
        <time>2021-08-19T11:02:26Z</time>
      </trkpt>
      <trkpt lat="41.708601" lon="1.034182">
        <ele>284.076</ele>
        <time>2021-08-19T11:02:28Z</time>
      </trkpt>
      <trkpt lat="41.708634" lon="1.034104">
        <ele>283.915</ele>
        <time>2021-08-19T11:02:31Z</time>
      </trkpt>
      <trkpt lat="41.708657" lon="1.034049">
        <ele>283.882</ele>
        <time>2021-08-19T11:02:33Z</time>
      </trkpt>
      <trkpt lat="41.708694" lon="1.033975">
        <ele>283.743</ele>
        <time>2021-08-19T11:02:36Z</time>
      </trkpt>
      <trkpt lat="41.708715" lon="1.033921">
        <ele>283.617</ele>
        <time>2021-08-19T11:02:38Z</time>
      </trkpt>
      <trkpt lat="41.708739" lon="1.033839">
        <ele>283.508</ele>
        <time>2021-08-19T11:02:41Z</time>
      </trkpt>
      <trkpt lat="41.708765" lon="1.033786">
        <ele>283.246</ele>
        <time>2021-08-19T11:02:43Z</time>
      </trkpt>
      <trkpt lat="41.708786" lon="1.033724">
        <ele>283.019</ele>
        <time>2021-08-19T11:02:45Z</time>
      </trkpt>
      <trkpt lat="41.708800" lon="1.033665">
        <ele>282.842</ele>
        <time>2021-08-19T11:02:47Z</time>
      </trkpt>
      <trkpt lat="41.708816" lon="1.033593">
        <ele>282.593</ele>
        <time>2021-08-19T11:02:50Z</time>
      </trkpt>
      <trkpt lat="41.708830" lon="1.033513">
        <ele>282.340</ele>
        <time>2021-08-19T11:02:54Z</time>
      </trkpt>
      <trkpt lat="41.708850" lon="1.033448">
        <ele>282.288</ele>
        <time>2021-08-19T11:02:59Z</time>
      </trkpt>
      <trkpt lat="41.708820" lon="1.033378">
        <ele>282.357</ele>
        <time>2021-08-19T11:04:04Z</time>
      </trkpt>
      <trkpt lat="41.708792" lon="1.033305">
        <ele>282.246</ele>
        <time>2021-08-19T11:04:07Z</time>
      </trkpt>
      <trkpt lat="41.708774" lon="1.033242">
        <ele>282.121</ele>
        <time>2021-08-19T11:04:09Z</time>
      </trkpt>
      <trkpt lat="41.708739" lon="1.033202">
        <ele>282.141</ele>
        <time>2021-08-19T11:04:11Z</time>
      </trkpt>
      <trkpt lat="41.708684" lon="1.033171">
        <ele>282.205</ele>
        <time>2021-08-19T11:04:13Z</time>
      </trkpt>
      <trkpt lat="41.708643" lon="1.033128">
        <ele>282.108</ele>
        <time>2021-08-19T11:04:15Z</time>
      </trkpt>
      <trkpt lat="41.708592" lon="1.033069">
        <ele>282.050</ele>
        <time>2021-08-19T11:04:18Z</time>
      </trkpt>
      <trkpt lat="41.708562" lon="1.032999">
        <ele>281.833</ele>
        <time>2021-08-19T11:04:21Z</time>
      </trkpt>
      <trkpt lat="41.708522" lon="1.032952">
        <ele>281.626</ele>
        <time>2021-08-19T11:04:25Z</time>
      </trkpt>
      <trkpt lat="41.708485" lon="1.032898">
        <ele>281.467</ele>
        <time>2021-08-19T11:04:50Z</time>
      </trkpt>
      <trkpt lat="41.708436" lon="1.032849">
        <ele>281.324</ele>
        <time>2021-08-19T11:04:53Z</time>
      </trkpt>
      <trkpt lat="41.708378" lon="1.032791">
        <ele>281.052</ele>
        <time>2021-08-19T11:04:56Z</time>
      </trkpt>
      <trkpt lat="41.708333" lon="1.032755">
        <ele>281.121</ele>
        <time>2021-08-19T11:04:58Z</time>
      </trkpt>
      <trkpt lat="41.708282" lon="1.032717">
        <ele>281.240</ele>
        <time>2021-08-19T11:05:01Z</time>
      </trkpt>
      <trkpt lat="41.708227" lon="1.032691">
        <ele>281.368</ele>
        <time>2021-08-19T11:05:04Z</time>
      </trkpt>
      <trkpt lat="41.708178" lon="1.032655">
        <ele>281.442</ele>
        <time>2021-08-19T11:05:08Z</time>
      </trkpt>
      <trkpt lat="41.708122" lon="1.032620">
        <ele>281.626</ele>
        <time>2021-08-19T11:05:11Z</time>
      </trkpt>
      <trkpt lat="41.708077" lon="1.032597">
        <ele>281.708</ele>
        <time>2021-08-19T11:05:13Z</time>
      </trkpt>
      <trkpt lat="41.708032" lon="1.032558">
        <ele>281.934</ele>
        <time>2021-08-19T11:05:15Z</time>
      </trkpt>
      <trkpt lat="41.707977" lon="1.032518">
        <ele>282.277</ele>
        <time>2021-08-19T11:05:18Z</time>
      </trkpt>
      <trkpt lat="41.707931" lon="1.032468">
        <ele>282.540</ele>
        <time>2021-08-19T11:05:21Z</time>
      </trkpt>
      <trkpt lat="41.707877" lon="1.032419">
        <ele>282.841</ele>
        <time>2021-08-19T11:05:23Z</time>
      </trkpt>
      <trkpt lat="41.707835" lon="1.032382">
        <ele>283.118</ele>
        <time>2021-08-19T11:05:25Z</time>
      </trkpt>
      <trkpt lat="41.707784" lon="1.032328">
        <ele>283.646</ele>
        <time>2021-08-19T11:05:28Z</time>
      </trkpt>
      <trkpt lat="41.707749" lon="1.032286">
        <ele>284.075</ele>
        <time>2021-08-19T11:05:30Z</time>
      </trkpt>
      <trkpt lat="41.707713" lon="1.032249">
        <ele>284.384</ele>
        <time>2021-08-19T11:05:32Z</time>
      </trkpt>
      <trkpt lat="41.707670" lon="1.032205">
        <ele>284.894</ele>
        <time>2021-08-19T11:05:35Z</time>
      </trkpt>
      <trkpt lat="41.707629" lon="1.032158">
        <ele>285.157</ele>
        <time>2021-08-19T11:05:37Z</time>
      </trkpt>
      <trkpt lat="41.707588" lon="1.032112">
        <ele>285.422</ele>
        <time>2021-08-19T11:05:41Z</time>
      </trkpt>
      <trkpt lat="41.707564" lon="1.032060">
        <ele>285.508</ele>
        <time>2021-08-19T11:06:17Z</time>
      </trkpt>
      <trkpt lat="41.707521" lon="1.032102">
        <ele>285.847</ele>
        <time>2021-08-19T11:06:19Z</time>
      </trkpt>
      <trkpt lat="41.707489" lon="1.032162">
        <ele>286.020</ele>
        <time>2021-08-19T11:06:21Z</time>
      </trkpt>
      <trkpt lat="41.707456" lon="1.032222">
        <ele>285.813</ele>
        <time>2021-08-19T11:06:23Z</time>
      </trkpt>
      <trkpt lat="41.707425" lon="1.032296">
        <ele>285.354</ele>
        <time>2021-08-19T11:06:25Z</time>
      </trkpt>
      <trkpt lat="41.707390" lon="1.032372">
        <ele>285.021</ele>
        <time>2021-08-19T11:06:27Z</time>
      </trkpt>
      <trkpt lat="41.707355" lon="1.032447">
        <ele>284.799</ele>
        <time>2021-08-19T11:06:29Z</time>
      </trkpt>
      <trkpt lat="41.707318" lon="1.032516">
        <ele>284.698</ele>
        <time>2021-08-19T11:06:31Z</time>
      </trkpt>
      <trkpt lat="41.707283" lon="1.032579">
        <ele>284.787</ele>
        <time>2021-08-19T11:06:33Z</time>
      </trkpt>
      <trkpt lat="41.707260" lon="1.032649">
        <ele>284.723</ele>
        <time>2021-08-19T11:06:35Z</time>
      </trkpt>
      <trkpt lat="41.707226" lon="1.032726">
        <ele>285.083</ele>
        <time>2021-08-19T11:06:37Z</time>
      </trkpt>
      <trkpt lat="41.707190" lon="1.032800">
        <ele>285.211</ele>
        <time>2021-08-19T11:06:39Z</time>
      </trkpt>
      <trkpt lat="41.707164" lon="1.032858">
        <ele>285.408</ele>
        <time>2021-08-19T11:06:41Z</time>
      </trkpt>
      <trkpt lat="41.707130" lon="1.032940">
        <ele>285.760</ele>
        <time>2021-08-19T11:06:43Z</time>
      </trkpt>
      <trkpt lat="41.707107" lon="1.033006">
        <ele>285.963</ele>
        <time>2021-08-19T11:06:45Z</time>
      </trkpt>
      <trkpt lat="41.707083" lon="1.033068">
        <ele>286.036</ele>
        <time>2021-08-19T11:06:47Z</time>
      </trkpt>
      <trkpt lat="41.707037" lon="1.033078">
        <ele>285.977</ele>
        <time>2021-08-19T11:06:50Z</time>
      </trkpt>
      <trkpt lat="41.706994" lon="1.033020">
        <ele>286.024</ele>
        <time>2021-08-19T11:06:53Z</time>
      </trkpt>
      <trkpt lat="41.706942" lon="1.032984">
        <ele>286.082</ele>
        <time>2021-08-19T11:06:55Z</time>
      </trkpt>
      <trkpt lat="41.706882" lon="1.032942">
        <ele>285.591</ele>
        <time>2021-08-19T11:06:57Z</time>
      </trkpt>
      <trkpt lat="41.706834" lon="1.032894">
        <ele>285.090</ele>
        <time>2021-08-19T11:06:59Z</time>
      </trkpt>
      <trkpt lat="41.706787" lon="1.032862">
        <ele>284.516</ele>
        <time>2021-08-19T11:07:01Z</time>
      </trkpt>
      <trkpt lat="41.706743" lon="1.032826">
        <ele>283.976</ele>
        <time>2021-08-19T11:07:03Z</time>
      </trkpt>
      <trkpt lat="41.706692" lon="1.032782">
        <ele>283.313</ele>
        <time>2021-08-19T11:07:05Z</time>
      </trkpt>
      <trkpt lat="41.706644" lon="1.032737">
        <ele>282.408</ele>
        <time>2021-08-19T11:07:07Z</time>
      </trkpt>
      <trkpt lat="41.706603" lon="1.032681">
        <ele>281.579</ele>
        <time>2021-08-19T11:07:09Z</time>
      </trkpt>
      <trkpt lat="41.706568" lon="1.032617">
        <ele>280.682</ele>
        <time>2021-08-19T11:07:11Z</time>
      </trkpt>
      <trkpt lat="41.706530" lon="1.032557">
        <ele>279.825</ele>
        <time>2021-08-19T11:07:13Z</time>
      </trkpt>
      <trkpt lat="41.706501" lon="1.032487">
        <ele>279.286</ele>
        <time>2021-08-19T11:07:15Z</time>
      </trkpt>
      <trkpt lat="41.706457" lon="1.032421">
        <ele>278.753</ele>
        <time>2021-08-19T11:07:17Z</time>
      </trkpt>
      <trkpt lat="41.706430" lon="1.032368">
        <ele>278.421</ele>
        <time>2021-08-19T11:07:18Z</time>
      </trkpt>
      <trkpt lat="41.706409" lon="1.032303">
        <ele>278.280</ele>
        <time>2021-08-19T11:07:20Z</time>
      </trkpt>
      <trkpt lat="41.706373" lon="1.032225">
        <ele>278.059</ele>
        <time>2021-08-19T11:07:22Z</time>
      </trkpt>
      <trkpt lat="41.706349" lon="1.032169">
        <ele>278.228</ele>
        <time>2021-08-19T11:07:23Z</time>
      </trkpt>
      <trkpt lat="41.706319" lon="1.032109">
        <ele>278.389</ele>
        <time>2021-08-19T11:07:24Z</time>
      </trkpt>
      <trkpt lat="41.706282" lon="1.032040">
        <ele>278.417</ele>
        <time>2021-08-19T11:07:26Z</time>
      </trkpt>
      <trkpt lat="41.706253" lon="1.031988">
        <ele>278.408</ele>
        <time>2021-08-19T11:07:27Z</time>
      </trkpt>
      <trkpt lat="41.706217" lon="1.031917">
        <ele>278.440</ele>
        <time>2021-08-19T11:07:29Z</time>
      </trkpt>
      <trkpt lat="41.706183" lon="1.031856">
        <ele>278.393</ele>
        <time>2021-08-19T11:07:30Z</time>
      </trkpt>
      <trkpt lat="41.706146" lon="1.031790">
        <ele>278.216</ele>
        <time>2021-08-19T11:07:32Z</time>
      </trkpt>
      <trkpt lat="41.706114" lon="1.031724">
        <ele>278.017</ele>
        <time>2021-08-19T11:07:34Z</time>
      </trkpt>
      <trkpt lat="41.706080" lon="1.031653">
        <ele>278.084</ele>
        <time>2021-08-19T11:07:36Z</time>
      </trkpt>
      <trkpt lat="41.706046" lon="1.031585">
        <ele>277.962</ele>
        <time>2021-08-19T11:07:38Z</time>
      </trkpt>
      <trkpt lat="41.706008" lon="1.031517">
        <ele>277.831</ele>
        <time>2021-08-19T11:07:41Z</time>
      </trkpt>
      <trkpt lat="41.705966" lon="1.031442">
        <ele>277.650</ele>
        <time>2021-08-19T11:07:44Z</time>
      </trkpt>
      <trkpt lat="41.705934" lon="1.031390">
        <ele>277.478</ele>
        <time>2021-08-19T11:07:46Z</time>
      </trkpt>
      <trkpt lat="41.705907" lon="1.031329">
        <ele>277.333</ele>
        <time>2021-08-19T11:07:48Z</time>
      </trkpt>
      <trkpt lat="41.705868" lon="1.031268">
        <ele>277.126</ele>
        <time>2021-08-19T11:07:50Z</time>
      </trkpt>
      <trkpt lat="41.705833" lon="1.031200">
        <ele>277.008</ele>
        <time>2021-08-19T11:07:52Z</time>
      </trkpt>
      <trkpt lat="41.705800" lon="1.031132">
        <ele>277.145</ele>
        <time>2021-08-19T11:07:54Z</time>
      </trkpt>
      <trkpt lat="41.705765" lon="1.031065">
        <ele>277.268</ele>
        <time>2021-08-19T11:07:56Z</time>
      </trkpt>
      <trkpt lat="41.705738" lon="1.030993">
        <ele>277.211</ele>
        <time>2021-08-19T11:07:58Z</time>
      </trkpt>
      <trkpt lat="41.705700" lon="1.030924">
        <ele>277.212</ele>
        <time>2021-08-19T11:08:00Z</time>
      </trkpt>
      <trkpt lat="41.705667" lon="1.030857">
        <ele>277.119</ele>
        <time>2021-08-19T11:08:02Z</time>
      </trkpt>
      <trkpt lat="41.705637" lon="1.030794">
        <ele>277.147</ele>
        <time>2021-08-19T11:08:04Z</time>
      </trkpt>
      <trkpt lat="41.705599" lon="1.030720">
        <ele>277.396</ele>
        <time>2021-08-19T11:08:06Z</time>
      </trkpt>
      <trkpt lat="41.705565" lon="1.030652">
        <ele>277.665</ele>
        <time>2021-08-19T11:08:08Z</time>
      </trkpt>
      <trkpt lat="41.705529" lon="1.030572">
        <ele>277.993</ele>
        <time>2021-08-19T11:08:10Z</time>
      </trkpt>
      <trkpt lat="41.705499" lon="1.030508">
        <ele>277.865</ele>
        <time>2021-08-19T11:08:12Z</time>
      </trkpt>
      <trkpt lat="41.705467" lon="1.030439">
        <ele>277.721</ele>
        <time>2021-08-19T11:08:14Z</time>
      </trkpt>
      <trkpt lat="41.705437" lon="1.030373">
        <ele>277.608</ele>
        <time>2021-08-19T11:08:16Z</time>
      </trkpt>
      <trkpt lat="41.705401" lon="1.030305">
        <ele>277.467</ele>
        <time>2021-08-19T11:08:18Z</time>
      </trkpt>
      <trkpt lat="41.705373" lon="1.030238">
        <ele>277.370</ele>
        <time>2021-08-19T11:08:20Z</time>
      </trkpt>
      <trkpt lat="41.705341" lon="1.030169">
        <ele>277.273</ele>
        <time>2021-08-19T11:08:22Z</time>
      </trkpt>
      <trkpt lat="41.705308" lon="1.030101">
        <ele>277.194</ele>
        <time>2021-08-19T11:08:24Z</time>
      </trkpt>
      <trkpt lat="41.705274" lon="1.030033">
        <ele>277.091</ele>
        <time>2021-08-19T11:08:26Z</time>
      </trkpt>
      <trkpt lat="41.705245" lon="1.029957">
        <ele>277.059</ele>
        <time>2021-08-19T11:08:28Z</time>
      </trkpt>
      <trkpt lat="41.705216" lon="1.029883">
        <ele>276.838</ele>
        <time>2021-08-19T11:08:30Z</time>
      </trkpt>
      <trkpt lat="41.705180" lon="1.029812">
        <ele>276.747</ele>
        <time>2021-08-19T11:08:32Z</time>
      </trkpt>
      <trkpt lat="41.705147" lon="1.029736">
        <ele>276.559</ele>
        <time>2021-08-19T11:08:34Z</time>
      </trkpt>
      <trkpt lat="41.705116" lon="1.029656">
        <ele>276.203</ele>
        <time>2021-08-19T11:08:36Z</time>
      </trkpt>
      <trkpt lat="41.705080" lon="1.029568">
        <ele>275.823</ele>
        <time>2021-08-19T11:08:38Z</time>
      </trkpt>
      <trkpt lat="41.705043" lon="1.029494">
        <ele>275.308</ele>
        <time>2021-08-19T11:08:40Z</time>
      </trkpt>
      <trkpt lat="41.705008" lon="1.029421">
        <ele>274.863</ele>
        <time>2021-08-19T11:08:42Z</time>
      </trkpt>
      <trkpt lat="41.704968" lon="1.029344">
        <ele>274.556</ele>
        <time>2021-08-19T11:08:44Z</time>
      </trkpt>
      <trkpt lat="41.704930" lon="1.029267">
        <ele>274.219</ele>
        <time>2021-08-19T11:08:46Z</time>
      </trkpt>
      <trkpt lat="41.704894" lon="1.029201">
        <ele>274.060</ele>
        <time>2021-08-19T11:08:48Z</time>
      </trkpt>
      <trkpt lat="41.704862" lon="1.029139">
        <ele>274.017</ele>
        <time>2021-08-19T11:08:50Z</time>
      </trkpt>
      <trkpt lat="41.704829" lon="1.029076">
        <ele>274.445</ele>
        <time>2021-08-19T11:08:52Z</time>
      </trkpt>
      <trkpt lat="41.704787" lon="1.029016">
        <ele>274.764</ele>
        <time>2021-08-19T11:08:54Z</time>
      </trkpt>
      <trkpt lat="41.704750" lon="1.028949">
        <ele>274.973</ele>
        <time>2021-08-19T11:08:56Z</time>
      </trkpt>
      <trkpt lat="41.704711" lon="1.028888">
        <ele>275.193</ele>
        <time>2021-08-19T11:08:58Z</time>
      </trkpt>
      <trkpt lat="41.704679" lon="1.028839">
        <ele>275.665</ele>
        <time>2021-08-19T11:09:00Z</time>
      </trkpt>
      <trkpt lat="41.704632" lon="1.028759">
        <ele>276.121</ele>
        <time>2021-08-19T11:09:02Z</time>
      </trkpt>
      <trkpt lat="41.704594" lon="1.028693">
        <ele>276.408</ele>
        <time>2021-08-19T11:09:04Z</time>
      </trkpt>
      <trkpt lat="41.704562" lon="1.028643">
        <ele>276.617</ele>
        <time>2021-08-19T11:09:06Z</time>
      </trkpt>
      <trkpt lat="41.704520" lon="1.028559">
        <ele>276.650</ele>
        <time>2021-08-19T11:09:08Z</time>
      </trkpt>
      <trkpt lat="41.704486" lon="1.028496">
        <ele>276.583</ele>
        <time>2021-08-19T11:09:10Z</time>
      </trkpt>
      <trkpt lat="41.704449" lon="1.028427">
        <ele>276.324</ele>
        <time>2021-08-19T11:09:13Z</time>
      </trkpt>
      <trkpt lat="41.704420" lon="1.028371">
        <ele>276.281</ele>
        <time>2021-08-19T11:09:15Z</time>
      </trkpt>
      <trkpt lat="41.704394" lon="1.028305">
        <ele>276.169</ele>
        <time>2021-08-19T11:09:17Z</time>
      </trkpt>
      <trkpt lat="41.704372" lon="1.028244">
        <ele>275.958</ele>
        <time>2021-08-19T11:09:19Z</time>
      </trkpt>
      <trkpt lat="41.704344" lon="1.028189">
        <ele>275.817</ele>
        <time>2021-08-19T11:09:21Z</time>
      </trkpt>
      <trkpt lat="41.704322" lon="1.028116">
        <ele>275.722</ele>
        <time>2021-08-19T11:09:23Z</time>
      </trkpt>
      <trkpt lat="41.704293" lon="1.028047">
        <ele>275.562</ele>
        <time>2021-08-19T11:09:25Z</time>
      </trkpt>
      <trkpt lat="41.704260" lon="1.027974">
        <ele>275.508</ele>
        <time>2021-08-19T11:09:27Z</time>
      </trkpt>
      <trkpt lat="41.704229" lon="1.027903">
        <ele>275.408</ele>
        <time>2021-08-19T11:09:29Z</time>
      </trkpt>
      <trkpt lat="41.704201" lon="1.027827">
        <ele>275.280</ele>
        <time>2021-08-19T11:09:31Z</time>
      </trkpt>
      <trkpt lat="41.704172" lon="1.027752">
        <ele>275.083</ele>
        <time>2021-08-19T11:09:33Z</time>
      </trkpt>
      <trkpt lat="41.704143" lon="1.027688">
        <ele>275.196</ele>
        <time>2021-08-19T11:09:35Z</time>
      </trkpt>
      <trkpt lat="41.704113" lon="1.027606">
        <ele>275.267</ele>
        <time>2021-08-19T11:09:37Z</time>
      </trkpt>
      <trkpt lat="41.704084" lon="1.027525">
        <ele>275.364</ele>
        <time>2021-08-19T11:09:39Z</time>
      </trkpt>
      <trkpt lat="41.704057" lon="1.027443">
        <ele>275.432</ele>
        <time>2021-08-19T11:09:41Z</time>
      </trkpt>
      <trkpt lat="41.704033" lon="1.027358">
        <ele>275.531</ele>
        <time>2021-08-19T11:09:43Z</time>
      </trkpt>
      <trkpt lat="41.704005" lon="1.027274">
        <ele>275.670</ele>
        <time>2021-08-19T11:09:45Z</time>
      </trkpt>
      <trkpt lat="41.703976" lon="1.027191">
        <ele>275.852</ele>
        <time>2021-08-19T11:09:47Z</time>
      </trkpt>
      <trkpt lat="41.703954" lon="1.027103">
        <ele>276.253</ele>
        <time>2021-08-19T11:09:49Z</time>
      </trkpt>
      <trkpt lat="41.703930" lon="1.027017">
        <ele>276.608</ele>
        <time>2021-08-19T11:09:51Z</time>
      </trkpt>
      <trkpt lat="41.703906" lon="1.026936">
        <ele>276.908</ele>
        <time>2021-08-19T11:09:53Z</time>
      </trkpt>
      <trkpt lat="41.703886" lon="1.026855">
        <ele>277.023</ele>
        <time>2021-08-19T11:09:55Z</time>
      </trkpt>
      <trkpt lat="41.703867" lon="1.026771">
        <ele>277.056</ele>
        <time>2021-08-19T11:09:57Z</time>
      </trkpt>
      <trkpt lat="41.703842" lon="1.026690">
        <ele>277.059</ele>
        <time>2021-08-19T11:09:59Z</time>
      </trkpt>
      <trkpt lat="41.703824" lon="1.026608">
        <ele>277.080</ele>
        <time>2021-08-19T11:10:01Z</time>
      </trkpt>
      <trkpt lat="41.703805" lon="1.026526">
        <ele>277.067</ele>
        <time>2021-08-19T11:10:03Z</time>
      </trkpt>
      <trkpt lat="41.703789" lon="1.026457">
        <ele>277.045</ele>
        <time>2021-08-19T11:10:05Z</time>
      </trkpt>
      <trkpt lat="41.703769" lon="1.026368">
        <ele>277.144</ele>
        <time>2021-08-19T11:10:07Z</time>
      </trkpt>
      <trkpt lat="41.703747" lon="1.026284">
        <ele>277.463</ele>
        <time>2021-08-19T11:10:09Z</time>
      </trkpt>
      <trkpt lat="41.703725" lon="1.026202">
        <ele>277.649</ele>
        <time>2021-08-19T11:10:11Z</time>
      </trkpt>
      <trkpt lat="41.703706" lon="1.026119">
        <ele>277.702</ele>
        <time>2021-08-19T11:10:13Z</time>
      </trkpt>
      <trkpt lat="41.703683" lon="1.026033">
        <ele>277.822</ele>
        <time>2021-08-19T11:10:15Z</time>
      </trkpt>
      <trkpt lat="41.703662" lon="1.025953">
        <ele>277.908</ele>
        <time>2021-08-19T11:10:17Z</time>
      </trkpt>
      <trkpt lat="41.703636" lon="1.025875">
        <ele>278.012</ele>
        <time>2021-08-19T11:10:19Z</time>
      </trkpt>
      <trkpt lat="41.703613" lon="1.025793">
        <ele>278.045</ele>
        <time>2021-08-19T11:10:21Z</time>
      </trkpt>
      <trkpt lat="41.703589" lon="1.025716">
        <ele>277.928</ele>
        <time>2021-08-19T11:10:23Z</time>
      </trkpt>
      <trkpt lat="41.703562" lon="1.025645">
        <ele>277.889</ele>
        <time>2021-08-19T11:10:25Z</time>
      </trkpt>
      <trkpt lat="41.703537" lon="1.025572">
        <ele>277.776</ele>
        <time>2021-08-19T11:10:27Z</time>
      </trkpt>
      <trkpt lat="41.703510" lon="1.025496">
        <ele>277.684</ele>
        <time>2021-08-19T11:10:29Z</time>
      </trkpt>
      <trkpt lat="41.703492" lon="1.025419">
        <ele>277.683</ele>
        <time>2021-08-19T11:10:31Z</time>
      </trkpt>
      <trkpt lat="41.703467" lon="1.025343">
        <ele>277.572</ele>
        <time>2021-08-19T11:10:33Z</time>
      </trkpt>
      <trkpt lat="41.703443" lon="1.025275">
        <ele>277.469</ele>
        <time>2021-08-19T11:10:35Z</time>
      </trkpt>
      <trkpt lat="41.703416" lon="1.025202">
        <ele>277.404</ele>
        <time>2021-08-19T11:10:37Z</time>
      </trkpt>
      <trkpt lat="41.703387" lon="1.025121">
        <ele>277.324</ele>
        <time>2021-08-19T11:10:39Z</time>
      </trkpt>
      <trkpt lat="41.703361" lon="1.025038">
        <ele>277.208</ele>
        <time>2021-08-19T11:10:41Z</time>
      </trkpt>
      <trkpt lat="41.703339" lon="1.024955">
        <ele>277.084</ele>
        <time>2021-08-19T11:10:43Z</time>
      </trkpt>
      <trkpt lat="41.703310" lon="1.024880">
        <ele>277.097</ele>
        <time>2021-08-19T11:10:45Z</time>
      </trkpt>
      <trkpt lat="41.703286" lon="1.024805">
        <ele>277.020</ele>
        <time>2021-08-19T11:10:47Z</time>
      </trkpt>
      <trkpt lat="41.703263" lon="1.024730">
        <ele>277.051</ele>
        <time>2021-08-19T11:10:49Z</time>
      </trkpt>
      <trkpt lat="41.703251" lon="1.024656">
        <ele>277.018</ele>
        <time>2021-08-19T11:10:51Z</time>
      </trkpt>
      <trkpt lat="41.703234" lon="1.024598">
        <ele>277.076</ele>
        <time>2021-08-19T11:10:53Z</time>
      </trkpt>
      <trkpt lat="41.703210" lon="1.024527">
        <ele>277.085</ele>
        <time>2021-08-19T11:11:16Z</time>
      </trkpt>
      <trkpt lat="41.703199" lon="1.024461">
        <ele>277.064</ele>
        <time>2021-08-19T11:11:18Z</time>
      </trkpt>
      <trkpt lat="41.703186" lon="1.024392">
        <ele>276.916</ele>
        <time>2021-08-19T11:11:20Z</time>
      </trkpt>
      <trkpt lat="41.703180" lon="1.024327">
        <ele>276.876</ele>
        <time>2021-08-19T11:11:22Z</time>
      </trkpt>
      <trkpt lat="41.703167" lon="1.024250">
        <ele>276.713</ele>
        <time>2021-08-19T11:11:24Z</time>
      </trkpt>
      <trkpt lat="41.703152" lon="1.024174">
        <ele>276.708</ele>
        <time>2021-08-19T11:11:26Z</time>
      </trkpt>
      <trkpt lat="41.703140" lon="1.024102">
        <ele>276.589</ele>
        <time>2021-08-19T11:11:28Z</time>
      </trkpt>
      <trkpt lat="41.703131" lon="1.024026">
        <ele>276.412</ele>
        <time>2021-08-19T11:11:29Z</time>
      </trkpt>
      <trkpt lat="41.703119" lon="1.023952">
        <ele>276.275</ele>
        <time>2021-08-19T11:11:31Z</time>
      </trkpt>
      <trkpt lat="41.703102" lon="1.023863">
        <ele>276.036</ele>
        <time>2021-08-19T11:11:33Z</time>
      </trkpt>
      <trkpt lat="41.703091" lon="1.023802">
        <ele>276.023</ele>
        <time>2021-08-19T11:11:34Z</time>
      </trkpt>
      <trkpt lat="41.703075" lon="1.023718">
        <ele>276.081</ele>
        <time>2021-08-19T11:11:36Z</time>
      </trkpt>
      <trkpt lat="41.703058" lon="1.023643">
        <ele>276.070</ele>
        <time>2021-08-19T11:11:38Z</time>
      </trkpt>
      <trkpt lat="41.703036" lon="1.023558">
        <ele>276.219</ele>
        <time>2021-08-19T11:11:40Z</time>
      </trkpt>
      <trkpt lat="41.703018" lon="1.023497">
        <ele>276.425</ele>
        <time>2021-08-19T11:11:42Z</time>
      </trkpt>
      <trkpt lat="41.703002" lon="1.023440">
        <ele>276.626</ele>
        <time>2021-08-19T11:11:43Z</time>
      </trkpt>
      <trkpt lat="41.702983" lon="1.023385">
        <ele>276.808</ele>
        <time>2021-08-19T11:11:44Z</time>
      </trkpt>
      <trkpt lat="41.702955" lon="1.023316">
        <ele>277.008</ele>
        <time>2021-08-19T11:11:46Z</time>
      </trkpt>
      <trkpt lat="41.702928" lon="1.023255">
        <ele>277.210</ele>
        <time>2021-08-19T11:11:48Z</time>
      </trkpt>
      <trkpt lat="41.702895" lon="1.023189">
        <ele>277.253</ele>
        <time>2021-08-19T11:11:50Z</time>
      </trkpt>
      <trkpt lat="41.702864" lon="1.023134">
        <ele>277.246</ele>
        <time>2021-08-19T11:11:51Z</time>
      </trkpt>
      <trkpt lat="41.702827" lon="1.023062">
        <ele>277.297</ele>
        <time>2021-08-19T11:11:53Z</time>
      </trkpt>
      <trkpt lat="41.702794" lon="1.023003">
        <ele>276.954</ele>
        <time>2021-08-19T11:11:55Z</time>
      </trkpt>
      <trkpt lat="41.702755" lon="1.022924">
        <ele>276.552</ele>
        <time>2021-08-19T11:11:57Z</time>
      </trkpt>
      <trkpt lat="41.702728" lon="1.022872">
        <ele>276.381</ele>
        <time>2021-08-19T11:11:58Z</time>
      </trkpt>
      <trkpt lat="41.702688" lon="1.022810">
        <ele>276.160</ele>
        <time>2021-08-19T11:12:00Z</time>
      </trkpt>
      <trkpt lat="41.702639" lon="1.022728">
        <ele>275.832</ele>
        <time>2021-08-19T11:12:02Z</time>
      </trkpt>
      <trkpt lat="41.702606" lon="1.022680">
        <ele>275.692</ele>
        <time>2021-08-19T11:12:03Z</time>
      </trkpt>
      <trkpt lat="41.702559" lon="1.022612">
        <ele>275.411</ele>
        <time>2021-08-19T11:12:05Z</time>
      </trkpt>
      <trkpt lat="41.702520" lon="1.022551">
        <ele>275.208</ele>
        <time>2021-08-19T11:12:07Z</time>
      </trkpt>
      <trkpt lat="41.702483" lon="1.022494">
        <ele>275.021</ele>
        <time>2021-08-19T11:12:09Z</time>
      </trkpt>
      <trkpt lat="41.702448" lon="1.022445">
        <ele>274.674</ele>
        <time>2021-08-19T11:12:10Z</time>
      </trkpt>
      <trkpt lat="41.702395" lon="1.022370">
        <ele>274.277</ele>
        <time>2021-08-19T11:12:12Z</time>
      </trkpt>
      <trkpt lat="41.702345" lon="1.022304">
        <ele>274.068</ele>
        <time>2021-08-19T11:12:14Z</time>
      </trkpt>
      <trkpt lat="41.702298" lon="1.022247">
        <ele>273.885</ele>
        <time>2021-08-19T11:12:16Z</time>
      </trkpt>
      <trkpt lat="41.702252" lon="1.022182">
        <ele>273.973</ele>
        <time>2021-08-19T11:12:18Z</time>
      </trkpt>
      <trkpt lat="41.702200" lon="1.022112">
        <ele>274.182</ele>
        <time>2021-08-19T11:12:20Z</time>
      </trkpt>
      <trkpt lat="41.702153" lon="1.022043">
        <ele>274.211</ele>
        <time>2021-08-19T11:12:22Z</time>
      </trkpt>
      <trkpt lat="41.702105" lon="1.021975">
        <ele>274.453</ele>
        <time>2021-08-19T11:12:24Z</time>
      </trkpt>
      <trkpt lat="41.702057" lon="1.021910">
        <ele>274.704</ele>
        <time>2021-08-19T11:12:26Z</time>
      </trkpt>
      <trkpt lat="41.702017" lon="1.021841">
        <ele>275.114</ele>
        <time>2021-08-19T11:12:28Z</time>
      </trkpt>
      <trkpt lat="41.701975" lon="1.021775">
        <ele>275.508</ele>
        <time>2021-08-19T11:12:30Z</time>
      </trkpt>
      <trkpt lat="41.701924" lon="1.021714">
        <ele>275.943</ele>
        <time>2021-08-19T11:12:32Z</time>
      </trkpt>
      <trkpt lat="41.701885" lon="1.021644">
        <ele>276.166</ele>
        <time>2021-08-19T11:12:34Z</time>
      </trkpt>
      <trkpt lat="41.701845" lon="1.021572">
        <ele>275.879</ele>
        <time>2021-08-19T11:12:36Z</time>
      </trkpt>
      <trkpt lat="41.701795" lon="1.021501">
        <ele>275.330</ele>
        <time>2021-08-19T11:12:38Z</time>
      </trkpt>
      <trkpt lat="41.701746" lon="1.021426">
        <ele>274.697</ele>
        <time>2021-08-19T11:12:40Z</time>
      </trkpt>
      <trkpt lat="41.701716" lon="1.021373">
        <ele>274.155</ele>
        <time>2021-08-19T11:12:42Z</time>
      </trkpt>
      <trkpt lat="41.701679" lon="1.021315">
        <ele>273.574</ele>
        <time>2021-08-19T11:12:43Z</time>
      </trkpt>
      <trkpt lat="41.701638" lon="1.021241">
        <ele>273.033</ele>
        <time>2021-08-19T11:12:45Z</time>
      </trkpt>
      <trkpt lat="41.701593" lon="1.021176">
        <ele>272.779</ele>
        <time>2021-08-19T11:12:47Z</time>
      </trkpt>
      <trkpt lat="41.701549" lon="1.021106">
        <ele>272.405</ele>
        <time>2021-08-19T11:12:49Z</time>
      </trkpt>
      <trkpt lat="41.701497" lon="1.021042">
        <ele>272.725</ele>
        <time>2021-08-19T11:12:51Z</time>
      </trkpt>
      <trkpt lat="41.701455" lon="1.020955">
        <ele>272.908</ele>
        <time>2021-08-19T11:12:53Z</time>
      </trkpt>
      <trkpt lat="41.701419" lon="1.020881">
        <ele>273.095</ele>
        <time>2021-08-19T11:12:55Z</time>
      </trkpt>
      <trkpt lat="41.701388" lon="1.020808">
        <ele>273.128</ele>
        <time>2021-08-19T11:12:57Z</time>
      </trkpt>
      <trkpt lat="41.701349" lon="1.020734">
        <ele>273.511</ele>
        <time>2021-08-19T11:12:59Z</time>
      </trkpt>
      <trkpt lat="41.701320" lon="1.020656">
        <ele>273.812</ele>
        <time>2021-08-19T11:13:01Z</time>
      </trkpt>
      <trkpt lat="41.701285" lon="1.020577">
        <ele>274.059</ele>
        <time>2021-08-19T11:13:03Z</time>
      </trkpt>
      <trkpt lat="41.701246" lon="1.020495">
        <ele>274.197</ele>
        <time>2021-08-19T11:13:05Z</time>
      </trkpt>
      <trkpt lat="41.701201" lon="1.020411">
        <ele>274.286</ele>
        <time>2021-08-19T11:13:07Z</time>
      </trkpt>
      <trkpt lat="41.701161" lon="1.020338">
        <ele>274.135</ele>
        <time>2021-08-19T11:13:09Z</time>
      </trkpt>
      <trkpt lat="41.701128" lon="1.020282">
        <ele>274.123</ele>
        <time>2021-08-19T11:13:11Z</time>
      </trkpt>
      <trkpt lat="41.701082" lon="1.020197">
        <ele>274.483</ele>
        <time>2021-08-19T11:13:13Z</time>
      </trkpt>
      <trkpt lat="41.701037" lon="1.020122">
        <ele>274.611</ele>
        <time>2021-08-19T11:13:15Z</time>
      </trkpt>
      <trkpt lat="41.700993" lon="1.020054">
        <ele>274.508</ele>
        <time>2021-08-19T11:13:17Z</time>
      </trkpt>
      <trkpt lat="41.700951" lon="1.019993">
        <ele>274.370</ele>
        <time>2021-08-19T11:13:19Z</time>
      </trkpt>
      <trkpt lat="41.700908" lon="1.019922">
        <ele>274.063</ele>
        <time>2021-08-19T11:13:21Z</time>
      </trkpt>
      <trkpt lat="41.700869" lon="1.019854">
        <ele>273.856</ele>
        <time>2021-08-19T11:13:23Z</time>
      </trkpt>
      <trkpt lat="41.700822" lon="1.019797">
        <ele>273.797</ele>
        <time>2021-08-19T11:13:25Z</time>
      </trkpt>
      <trkpt lat="41.700790" lon="1.019739">
        <ele>273.864</ele>
        <time>2021-08-19T11:13:27Z</time>
      </trkpt>
      <trkpt lat="41.700762" lon="1.019687">
        <ele>273.932</ele>
        <time>2021-08-19T11:13:29Z</time>
      </trkpt>
      <trkpt lat="41.700712" lon="1.019640">
        <ele>273.951</ele>
        <time>2021-08-19T11:13:32Z</time>
      </trkpt>
      <trkpt lat="41.700660" lon="1.019611">
        <ele>273.880</ele>
        <time>2021-08-19T11:13:59Z</time>
      </trkpt>
      <trkpt lat="41.700622" lon="1.019576">
        <ele>273.851</ele>
        <time>2021-08-19T11:14:00Z</time>
      </trkpt>
      <trkpt lat="41.700578" lon="1.019530">
        <ele>273.801</ele>
        <time>2021-08-19T11:14:03Z</time>
      </trkpt>
      <trkpt lat="41.700533" lon="1.019499">
        <ele>273.911</ele>
        <time>2021-08-19T11:14:05Z</time>
      </trkpt>
      <trkpt lat="41.700487" lon="1.019464">
        <ele>274.208</ele>
        <time>2021-08-19T11:14:08Z</time>
      </trkpt>
      <trkpt lat="41.700445" lon="1.019413">
        <ele>274.513</ele>
        <time>2021-08-19T11:14:10Z</time>
      </trkpt>
      <trkpt lat="41.700405" lon="1.019358">
        <ele>274.956</ele>
        <time>2021-08-19T11:14:12Z</time>
      </trkpt>
      <trkpt lat="41.700371" lon="1.019316">
        <ele>275.149</ele>
        <time>2021-08-19T11:14:14Z</time>
      </trkpt>
      <trkpt lat="41.700339" lon="1.019271">
        <ele>275.410</ele>
        <time>2021-08-19T11:14:16Z</time>
      </trkpt>
      <trkpt lat="41.700296" lon="1.019215">
        <ele>275.857</ele>
        <time>2021-08-19T11:14:18Z</time>
      </trkpt>
      <trkpt lat="41.700253" lon="1.019157">
        <ele>276.015</ele>
        <time>2021-08-19T11:14:20Z</time>
      </trkpt>
      <trkpt lat="41.700221" lon="1.019112">
        <ele>276.274</ele>
        <time>2021-08-19T11:14:22Z</time>
      </trkpt>
      <trkpt lat="41.700186" lon="1.019061">
        <ele>276.373</ele>
        <time>2021-08-19T11:14:24Z</time>
      </trkpt>
      <trkpt lat="41.700149" lon="1.019006">
        <ele>276.394</ele>
        <time>2021-08-19T11:14:26Z</time>
      </trkpt>
      <trkpt lat="41.700120" lon="1.018953">
        <ele>276.357</ele>
        <time>2021-08-19T11:14:28Z</time>
      </trkpt>
      <trkpt lat="41.700074" lon="1.018887">
        <ele>276.322</ele>
        <time>2021-08-19T11:14:30Z</time>
      </trkpt>
      <trkpt lat="41.700046" lon="1.018824">
        <ele>276.108</ele>
        <time>2021-08-19T11:14:32Z</time>
      </trkpt>
      <trkpt lat="41.700010" lon="1.018764">
        <ele>276.017</ele>
        <time>2021-08-19T11:14:34Z</time>
      </trkpt>
      <trkpt lat="41.699974" lon="1.018704">
        <ele>275.840</ele>
        <time>2021-08-19T11:14:36Z</time>
      </trkpt>
      <trkpt lat="41.699936" lon="1.018644">
        <ele>275.633</ele>
        <time>2021-08-19T11:14:38Z</time>
      </trkpt>
      <trkpt lat="41.699905" lon="1.018587">
        <ele>275.264</ele>
        <time>2021-08-19T11:14:40Z</time>
      </trkpt>
      <trkpt lat="41.699877" lon="1.018536">
        <ele>274.721</ele>
        <time>2021-08-19T11:14:42Z</time>
      </trkpt>
      <trkpt lat="41.699842" lon="1.018481">
        <ele>274.239</ele>
        <time>2021-08-19T11:14:43Z</time>
      </trkpt>
      <trkpt lat="41.699811" lon="1.018429">
        <ele>273.868</ele>
        <time>2021-08-19T11:14:45Z</time>
      </trkpt>
      <trkpt lat="41.699774" lon="1.018368">
        <ele>273.347</ele>
        <time>2021-08-19T11:14:47Z</time>
      </trkpt>
      <trkpt lat="41.699740" lon="1.018302">
        <ele>273.056</ele>
        <time>2021-08-19T11:14:49Z</time>
      </trkpt>
      <trkpt lat="41.699710" lon="1.018242">
        <ele>272.659</ele>
        <time>2021-08-19T11:14:51Z</time>
      </trkpt>
      <trkpt lat="41.699678" lon="1.018187">
        <ele>272.414</ele>
        <time>2021-08-19T11:14:52Z</time>
      </trkpt>
      <trkpt lat="41.699646" lon="1.018128">
        <ele>272.208</ele>
        <time>2021-08-19T11:14:54Z</time>
      </trkpt>
      <trkpt lat="41.699609" lon="1.018067">
        <ele>272.043</ele>
        <time>2021-08-19T11:14:56Z</time>
      </trkpt>
      <trkpt lat="41.699575" lon="1.018010">
        <ele>272.126</ele>
        <time>2021-08-19T11:14:58Z</time>
      </trkpt>
      <trkpt lat="41.699538" lon="1.017942">
        <ele>272.189</ele>
        <time>2021-08-19T11:15:00Z</time>
      </trkpt>
      <trkpt lat="41.699507" lon="1.017889">
        <ele>272.130</ele>
        <time>2021-08-19T11:15:01Z</time>
      </trkpt>
      <trkpt lat="41.699466" lon="1.017814">
        <ele>272.187</ele>
        <time>2021-08-19T11:15:04Z</time>
      </trkpt>
      <trkpt lat="41.699434" lon="1.017761">
        <ele>272.165</ele>
        <time>2021-08-19T11:15:06Z</time>
      </trkpt>
      <trkpt lat="41.699404" lon="1.017709">
        <ele>272.284</ele>
        <time>2021-08-19T11:15:07Z</time>
      </trkpt>
      <trkpt lat="41.699369" lon="1.017650">
        <ele>272.553</ele>
        <time>2021-08-19T11:15:09Z</time>
      </trkpt>
      <trkpt lat="41.699333" lon="1.017591">
        <ele>272.736</ele>
        <time>2021-08-19T11:15:11Z</time>
      </trkpt>
      <trkpt lat="41.699291" lon="1.017522">
        <ele>272.917</ele>
        <time>2021-08-19T11:15:13Z</time>
      </trkpt>
      <trkpt lat="41.699258" lon="1.017466">
        <ele>273.118</ele>
        <time>2021-08-19T11:15:15Z</time>
      </trkpt>
      <trkpt lat="41.699221" lon="1.017415">
        <ele>273.308</ele>
        <time>2021-08-19T11:15:16Z</time>
      </trkpt>
      <trkpt lat="41.699180" lon="1.017362">
        <ele>273.541</ele>
        <time>2021-08-19T11:15:18Z</time>
      </trkpt>
      <trkpt lat="41.699138" lon="1.017293">
        <ele>273.764</ele>
        <time>2021-08-19T11:15:20Z</time>
      </trkpt>
      <trkpt lat="41.699090" lon="1.017238">
        <ele>273.957</ele>
        <time>2021-08-19T11:15:22Z</time>
      </trkpt>
      <trkpt lat="41.699049" lon="1.017173">
        <ele>274.258</ele>
        <time>2021-08-19T11:15:24Z</time>
      </trkpt>
      <trkpt lat="41.699008" lon="1.017117">
        <ele>274.485</ele>
        <time>2021-08-19T11:15:26Z</time>
      </trkpt>
      <trkpt lat="41.698974" lon="1.017065">
        <ele>274.643</ele>
        <time>2021-08-19T11:15:28Z</time>
      </trkpt>
      <trkpt lat="41.698933" lon="1.017007">
        <ele>274.842</ele>
        <time>2021-08-19T11:15:30Z</time>
      </trkpt>
      <trkpt lat="41.698887" lon="1.016946">
        <ele>275.091</ele>
        <time>2021-08-19T11:15:32Z</time>
      </trkpt>
      <trkpt lat="41.698850" lon="1.016874">
        <ele>275.133</ele>
        <time>2021-08-19T11:15:34Z</time>
      </trkpt>
      <trkpt lat="41.698802" lon="1.016817">
        <ele>275.123</ele>
        <time>2021-08-19T11:15:36Z</time>
      </trkpt>
      <trkpt lat="41.698759" lon="1.016748">
        <ele>275.215</ele>
        <time>2021-08-19T11:15:38Z</time>
      </trkpt>
      <trkpt lat="41.698718" lon="1.016700">
        <ele>275.308</ele>
        <time>2021-08-19T11:15:40Z</time>
      </trkpt>
      <trkpt lat="41.698663" lon="1.016632">
        <ele>275.291</ele>
        <time>2021-08-19T11:15:42Z</time>
      </trkpt>
      <trkpt lat="41.698613" lon="1.016575">
        <ele>275.094</ele>
        <time>2021-08-19T11:15:44Z</time>
      </trkpt>
      <trkpt lat="41.698563" lon="1.016518">
        <ele>275.047</ele>
        <time>2021-08-19T11:15:46Z</time>
      </trkpt>
      <trkpt lat="41.698517" lon="1.016459">
        <ele>275.098</ele>
        <time>2021-08-19T11:15:48Z</time>
      </trkpt>
      <trkpt lat="41.698469" lon="1.016401">
        <ele>275.045</ele>
        <time>2021-08-19T11:15:50Z</time>
      </trkpt>
      <trkpt lat="41.698416" lon="1.016348">
        <ele>274.983</ele>
        <time>2021-08-19T11:15:52Z</time>
      </trkpt>
      <trkpt lat="41.698370" lon="1.016290">
        <ele>274.642</ele>
        <time>2021-08-19T11:15:54Z</time>
      </trkpt>
      <trkpt lat="41.698325" lon="1.016232">
        <ele>274.421</ele>
        <time>2021-08-19T11:15:56Z</time>
      </trkpt>
      <trkpt lat="41.698282" lon="1.016174">
        <ele>274.258</ele>
        <time>2021-08-19T11:15:58Z</time>
      </trkpt>
      <trkpt lat="41.698233" lon="1.016116">
        <ele>274.052</ele>
        <time>2021-08-19T11:16:00Z</time>
      </trkpt>
      <trkpt lat="41.698182" lon="1.016058">
        <ele>273.717</ele>
        <time>2021-08-19T11:16:02Z</time>
      </trkpt>
      <trkpt lat="41.698131" lon="1.015998">
        <ele>273.508</ele>
        <time>2021-08-19T11:16:04Z</time>
      </trkpt>
      <trkpt lat="41.698086" lon="1.015946">
        <ele>273.383</ele>
        <time>2021-08-19T11:16:06Z</time>
      </trkpt>
      <trkpt lat="41.698046" lon="1.015891">
        <ele>273.296</ele>
        <time>2021-08-19T11:16:08Z</time>
      </trkpt>
      <trkpt lat="41.698001" lon="1.015844">
        <ele>273.279</ele>
        <time>2021-08-19T11:16:10Z</time>
      </trkpt>
      <trkpt lat="41.697942" lon="1.015780">
        <ele>273.390</ele>
        <time>2021-08-19T11:16:12Z</time>
      </trkpt>
      <trkpt lat="41.697896" lon="1.015717">
        <ele>273.347</ele>
        <time>2021-08-19T11:16:14Z</time>
      </trkpt>
      <trkpt lat="41.697849" lon="1.015663">
        <ele>273.325</ele>
        <time>2021-08-19T11:16:16Z</time>
      </trkpt>
      <trkpt lat="41.697799" lon="1.015609">
        <ele>273.244</ele>
        <time>2021-08-19T11:16:18Z</time>
      </trkpt>
      <trkpt lat="41.697755" lon="1.015564">
        <ele>272.993</ele>
        <time>2021-08-19T11:16:20Z</time>
      </trkpt>
      <trkpt lat="41.697709" lon="1.015504">
        <ele>272.736</ele>
        <time>2021-08-19T11:16:22Z</time>
      </trkpt>
      <trkpt lat="41.697658" lon="1.015441">
        <ele>272.417</ele>
        <time>2021-08-19T11:16:24Z</time>
      </trkpt>
      <trkpt lat="41.697613" lon="1.015378">
        <ele>272.018</ele>
        <time>2021-08-19T11:16:26Z</time>
      </trkpt>
      <trkpt lat="41.697563" lon="1.015328">
        <ele>271.608</ele>
        <time>2021-08-19T11:16:28Z</time>
      </trkpt>
      <trkpt lat="41.697519" lon="1.015270">
        <ele>271.111</ele>
        <time>2021-08-19T11:16:30Z</time>
      </trkpt>
      <trkpt lat="41.697470" lon="1.015207">
        <ele>270.794</ele>
        <time>2021-08-19T11:16:32Z</time>
      </trkpt>
      <trkpt lat="41.697418" lon="1.015154">
        <ele>270.417</ele>
        <time>2021-08-19T11:16:34Z</time>
      </trkpt>
      <trkpt lat="41.697371" lon="1.015089">
        <ele>270.298</ele>
        <time>2021-08-19T11:16:36Z</time>
      </trkpt>
      <trkpt lat="41.697321" lon="1.015033">
        <ele>270.075</ele>
        <time>2021-08-19T11:16:38Z</time>
      </trkpt>
      <trkpt lat="41.697278" lon="1.014977">
        <ele>270.023</ele>
        <time>2021-08-19T11:16:40Z</time>
      </trkpt>
      <trkpt lat="41.697234" lon="1.014940">
        <ele>270.062</ele>
        <time>2021-08-19T11:16:42Z</time>
      </trkpt>
      <trkpt lat="41.697193" lon="1.014887">
        <ele>270.161</ele>
        <time>2021-08-19T11:16:44Z</time>
      </trkpt>
      <trkpt lat="41.697145" lon="1.014837">
        <ele>270.365</ele>
        <time>2021-08-19T11:16:46Z</time>
      </trkpt>
      <trkpt lat="41.697094" lon="1.014786">
        <ele>270.568</ele>
        <time>2021-08-19T11:16:48Z</time>
      </trkpt>
      <trkpt lat="41.697042" lon="1.014733">
        <ele>270.614</ele>
        <time>2021-08-19T11:16:50Z</time>
      </trkpt>
      <trkpt lat="41.696991" lon="1.014676">
        <ele>271.008</ele>
        <time>2021-08-19T11:16:52Z</time>
      </trkpt>
      <trkpt lat="41.696940" lon="1.014619">
        <ele>271.484</ele>
        <time>2021-08-19T11:16:54Z</time>
      </trkpt>
      <trkpt lat="41.696892" lon="1.014561">
        <ele>272.017</ele>
        <time>2021-08-19T11:16:56Z</time>
      </trkpt>
      <trkpt lat="41.696843" lon="1.014508">
        <ele>272.690</ele>
        <time>2021-08-19T11:16:58Z</time>
      </trkpt>
      <trkpt lat="41.696794" lon="1.014452">
        <ele>273.141</ele>
        <time>2021-08-19T11:17:00Z</time>
      </trkpt>
      <trkpt lat="41.696747" lon="1.014393">
        <ele>273.788</ele>
        <time>2021-08-19T11:17:02Z</time>
      </trkpt>
      <trkpt lat="41.696697" lon="1.014335">
        <ele>274.236</ele>
        <time>2021-08-19T11:17:04Z</time>
      </trkpt>
      <trkpt lat="41.696646" lon="1.014276">
        <ele>274.435</ele>
        <time>2021-08-19T11:17:06Z</time>
      </trkpt>
      <trkpt lat="41.696595" lon="1.014219">
        <ele>274.154</ele>
        <time>2021-08-19T11:17:08Z</time>
      </trkpt>
      <trkpt lat="41.696543" lon="1.014157">
        <ele>273.727</ele>
        <time>2021-08-19T11:17:10Z</time>
      </trkpt>
      <trkpt lat="41.696487" lon="1.014092">
        <ele>273.168</ele>
        <time>2021-08-19T11:17:12Z</time>
      </trkpt>
      <trkpt lat="41.696435" lon="1.014034">
        <ele>272.814</ele>
        <time>2021-08-19T11:17:14Z</time>
      </trkpt>
      <trkpt lat="41.696386" lon="1.013975">
        <ele>272.708</ele>
        <time>2021-08-19T11:17:16Z</time>
      </trkpt>
      <trkpt lat="41.696338" lon="1.013911">
        <ele>272.620</ele>
        <time>2021-08-19T11:17:18Z</time>
      </trkpt>
      <trkpt lat="41.696296" lon="1.013853">
        <ele>272.513</ele>
        <time>2021-08-19T11:17:20Z</time>
      </trkpt>
      <trkpt lat="41.696257" lon="1.013795">
        <ele>272.566</ele>
        <time>2021-08-19T11:17:22Z</time>
      </trkpt>
      <trkpt lat="41.696214" lon="1.013743">
        <ele>272.677</ele>
        <time>2021-08-19T11:17:24Z</time>
      </trkpt>
      <trkpt lat="41.696177" lon="1.013679">
        <ele>272.844</ele>
        <time>2021-08-19T11:17:26Z</time>
      </trkpt>
      <trkpt lat="41.696135" lon="1.013619">
        <ele>273.052</ele>
        <time>2021-08-19T11:17:28Z</time>
      </trkpt>
      <trkpt lat="41.696096" lon="1.013558">
        <ele>273.271</ele>
        <time>2021-08-19T11:17:30Z</time>
      </trkpt>
      <trkpt lat="41.696056" lon="1.013494">
        <ele>273.350</ele>
        <time>2021-08-19T11:17:32Z</time>
      </trkpt>
      <trkpt lat="41.696016" lon="1.013431">
        <ele>273.471</ele>
        <time>2021-08-19T11:17:34Z</time>
      </trkpt>
      <trkpt lat="41.695976" lon="1.013366">
        <ele>273.541</ele>
        <time>2021-08-19T11:17:36Z</time>
      </trkpt>
      <trkpt lat="41.695941" lon="1.013298">
        <ele>273.315</ele>
        <time>2021-08-19T11:17:38Z</time>
      </trkpt>
      <trkpt lat="41.695909" lon="1.013240">
        <ele>272.908</ele>
        <time>2021-08-19T11:17:40Z</time>
      </trkpt>
      <trkpt lat="41.695871" lon="1.013171">
        <ele>272.685</ele>
        <time>2021-08-19T11:17:42Z</time>
      </trkpt>
      <trkpt lat="41.695833" lon="1.013107">
        <ele>272.278</ele>
        <time>2021-08-19T11:17:44Z</time>
      </trkpt>
      <trkpt lat="41.695797" lon="1.013043">
        <ele>272.011</ele>
        <time>2021-08-19T11:17:46Z</time>
      </trkpt>
      <trkpt lat="41.695767" lon="1.012981">
        <ele>272.342</ele>
        <time>2021-08-19T11:17:48Z</time>
      </trkpt>
      <trkpt lat="41.695737" lon="1.012929">
        <ele>272.589</ele>
        <time>2021-08-19T11:17:51Z</time>
      </trkpt>
      <trkpt lat="41.695765" lon="1.012984">
        <ele>272.377</ele>
        <time>2021-08-19T11:17:57Z</time>
      </trkpt>
      <trkpt lat="41.695726" lon="1.012946">
        <ele>272.436</ele>
        <time>2021-08-19T11:18:00Z</time>
      </trkpt>
      <trkpt lat="41.695685" lon="1.012885">
        <ele>272.695</ele>
        <time>2021-08-19T11:18:01Z</time>
      </trkpt>
      <trkpt lat="41.695635" lon="1.012809">
        <ele>272.987</ele>
        <time>2021-08-19T11:18:03Z</time>
      </trkpt>
      <trkpt lat="41.695593" lon="1.012751">
        <ele>273.142</ele>
        <time>2021-08-19T11:18:05Z</time>
      </trkpt>
      <trkpt lat="41.695533" lon="1.012682">
        <ele>273.326</ele>
        <time>2021-08-19T11:18:07Z</time>
      </trkpt>
      <trkpt lat="41.695499" lon="1.012593">
        <ele>273.708</ele>
        <time>2021-08-19T11:18:09Z</time>
      </trkpt>
      <trkpt lat="41.695464" lon="1.012545">
        <ele>273.866</ele>
        <time>2021-08-19T11:18:11Z</time>
      </trkpt>
      <trkpt lat="41.695417" lon="1.012503">
        <ele>274.049</ele>
        <time>2021-08-19T11:18:13Z</time>
      </trkpt>
      <trkpt lat="41.695378" lon="1.012455">
        <ele>274.052</ele>
        <time>2021-08-19T11:18:15Z</time>
      </trkpt>
      <trkpt lat="41.695349" lon="1.012408">
        <ele>274.083</ele>
        <time>2021-08-19T11:18:17Z</time>
      </trkpt>
      <trkpt lat="41.695317" lon="1.012364">
        <ele>274.050</ele>
        <time>2021-08-19T11:19:18Z</time>
      </trkpt>
      <trkpt lat="41.695283" lon="1.012307">
        <ele>274.048</ele>
        <time>2021-08-19T11:19:21Z</time>
      </trkpt>
      <trkpt lat="41.695236" lon="1.012271">
        <ele>274.097</ele>
        <time>2021-08-19T11:19:26Z</time>
      </trkpt>
      <trkpt lat="41.695198" lon="1.012206">
        <ele>274.066</ele>
        <time>2021-08-19T11:19:28Z</time>
      </trkpt>
      <trkpt lat="41.695157" lon="1.012142">
        <ele>274.035</ele>
        <time>2021-08-19T11:19:30Z</time>
      </trkpt>
      <trkpt lat="41.695119" lon="1.012099">
        <ele>274.086</ele>
        <time>2021-08-19T11:19:32Z</time>
      </trkpt>
      <trkpt lat="41.695081" lon="1.012047">
        <ele>274.014</ele>
        <time>2021-08-19T11:19:34Z</time>
      </trkpt>
      <trkpt lat="41.695047" lon="1.011999">
        <ele>274.008</ele>
        <time>2021-08-19T11:19:36Z</time>
      </trkpt>
      <trkpt lat="41.695010" lon="1.011944">
        <ele>274.051</ele>
        <time>2021-08-19T11:19:38Z</time>
      </trkpt>
      <trkpt lat="41.694971" lon="1.011897">
        <ele>273.844</ele>
        <time>2021-08-19T11:19:40Z</time>
      </trkpt>
      <trkpt lat="41.694916" lon="1.011837">
        <ele>273.757</ele>
        <time>2021-08-19T11:19:43Z</time>
      </trkpt>
      <trkpt lat="41.694876" lon="1.011787">
        <ele>273.798</ele>
        <time>2021-08-19T11:19:45Z</time>
      </trkpt>
      <trkpt lat="41.694831" lon="1.011727">
        <ele>273.725</ele>
        <time>2021-08-19T11:19:47Z</time>
      </trkpt>
      <trkpt lat="41.694783" lon="1.011673">
        <ele>273.863</ele>
        <time>2021-08-19T11:19:49Z</time>
      </trkpt>
      <trkpt lat="41.694734" lon="1.011620">
        <ele>273.862</ele>
        <time>2021-08-19T11:19:51Z</time>
      </trkpt>
      <trkpt lat="41.694686" lon="1.011569">
        <ele>273.761</ele>
        <time>2021-08-19T11:19:53Z</time>
      </trkpt>
      <trkpt lat="41.694641" lon="1.011512">
        <ele>273.882</ele>
        <time>2021-08-19T11:19:55Z</time>
      </trkpt>
      <trkpt lat="41.694592" lon="1.011462">
        <ele>274.043</ele>
        <time>2021-08-19T11:19:57Z</time>
      </trkpt>
      <trkpt lat="41.694542" lon="1.011419">
        <ele>274.317</ele>
        <time>2021-08-19T11:19:59Z</time>
      </trkpt>
      <trkpt lat="41.694499" lon="1.011379">
        <ele>274.508</ele>
        <time>2021-08-19T11:20:01Z</time>
      </trkpt>
      <trkpt lat="41.694455" lon="1.011329">
        <ele>274.566</ele>
        <time>2021-08-19T11:20:03Z</time>
      </trkpt>
      <trkpt lat="41.694419" lon="1.011278">
        <ele>274.139</ele>
        <time>2021-08-19T11:20:05Z</time>
      </trkpt>
      <trkpt lat="41.694384" lon="1.011214">
        <ele>273.792</ele>
        <time>2021-08-19T11:20:08Z</time>
      </trkpt>
      <trkpt lat="41.694386" lon="1.011148">
        <ele>273.243</ele>
        <time>2021-08-19T11:20:12Z</time>
      </trkpt>
      <trkpt lat="41.694338" lon="1.011123">
        <ele>273.130</ele>
        <time>2021-08-19T11:20:38Z</time>
      </trkpt>
      <trkpt lat="41.694323" lon="1.011065">
        <ele>272.938</ele>
        <time>2021-08-19T11:20:40Z</time>
      </trkpt>
      <trkpt lat="41.694308" lon="1.011002">
        <ele>272.817</ele>
        <time>2021-08-19T11:20:42Z</time>
      </trkpt>
      <trkpt lat="41.694277" lon="1.010928">
        <ele>272.696</ele>
        <time>2021-08-19T11:20:44Z</time>
      </trkpt>
      <trkpt lat="41.694257" lon="1.010871">
        <ele>272.441</ele>
        <time>2021-08-19T11:20:46Z</time>
      </trkpt>
      <trkpt lat="41.694229" lon="1.010819">
        <ele>272.281</ele>
        <time>2021-08-19T11:20:48Z</time>
      </trkpt>
      <trkpt lat="41.694194" lon="1.010762">
        <ele>272.109</ele>
        <time>2021-08-19T11:20:50Z</time>
      </trkpt>
      <trkpt lat="41.694163" lon="1.010710">
        <ele>272.008</ele>
        <time>2021-08-19T11:20:52Z</time>
      </trkpt>
      <trkpt lat="41.694127" lon="1.010663">
        <ele>272.162</ele>
        <time>2021-08-19T11:20:54Z</time>
      </trkpt>
      <trkpt lat="41.694086" lon="1.010603">
        <ele>272.195</ele>
        <time>2021-08-19T11:20:57Z</time>
      </trkpt>
      <trkpt lat="41.694052" lon="1.010562">
        <ele>272.048</ele>
        <time>2021-08-19T11:20:59Z</time>
      </trkpt>
      <trkpt lat="41.694020" lon="1.010500">
        <ele>272.029</ele>
        <time>2021-08-19T11:21:01Z</time>
      </trkpt>
      <trkpt lat="41.693983" lon="1.010444">
        <ele>272.156</ele>
        <time>2021-08-19T11:21:03Z</time>
      </trkpt>
      <trkpt lat="41.693957" lon="1.010383">
        <ele>272.364</ele>
        <time>2021-08-19T11:21:06Z</time>
      </trkpt>
      <trkpt lat="41.693936" lon="1.010303">
        <ele>272.613</ele>
        <time>2021-08-19T11:21:08Z</time>
      </trkpt>
      <trkpt lat="41.693931" lon="1.010243">
        <ele>272.622</ele>
        <time>2021-08-19T11:21:10Z</time>
      </trkpt>
      <trkpt lat="41.693932" lon="1.010170">
        <ele>272.436</ele>
        <time>2021-08-19T11:21:12Z</time>
      </trkpt>
      <trkpt lat="41.693940" lon="1.010104">
        <ele>272.117</ele>
        <time>2021-08-19T11:21:14Z</time>
      </trkpt>
      <trkpt lat="41.693948" lon="1.010040">
        <ele>271.918</ele>
        <time>2021-08-19T11:21:16Z</time>
      </trkpt>
      <trkpt lat="41.693966" lon="1.009979">
        <ele>271.708</ele>
        <time>2021-08-19T11:21:18Z</time>
      </trkpt>
      <trkpt lat="41.693983" lon="1.009917">
        <ele>271.741</ele>
        <time>2021-08-19T11:21:20Z</time>
      </trkpt>
      <trkpt lat="41.694007" lon="1.009841">
        <ele>271.634</ele>
        <time>2021-08-19T11:21:23Z</time>
      </trkpt>
      <trkpt lat="41.694028" lon="1.009777">
        <ele>271.587</ele>
        <time>2021-08-19T11:21:25Z</time>
      </trkpt>
      <trkpt lat="41.694046" lon="1.009703">
        <ele>271.478</ele>
        <time>2021-08-19T11:21:27Z</time>
      </trkpt>
      <trkpt lat="41.694057" lon="1.009644">
        <ele>271.555</ele>
        <time>2021-08-19T11:21:29Z</time>
      </trkpt>
      <trkpt lat="41.694060" lon="1.009573">
        <ele>271.593</ele>
        <time>2021-08-19T11:21:31Z</time>
      </trkpt>
      <trkpt lat="41.694059" lon="1.009500">
        <ele>271.652</ele>
        <time>2021-08-19T11:21:33Z</time>
      </trkpt>
      <trkpt lat="41.694051" lon="1.009427">
        <ele>271.691</ele>
        <time>2021-08-19T11:21:35Z</time>
      </trkpt>
      <trkpt lat="41.694036" lon="1.009361">
        <ele>271.514</ele>
        <time>2021-08-19T11:21:37Z</time>
      </trkpt>
      <trkpt lat="41.694010" lon="1.009303">
        <ele>271.454</ele>
        <time>2021-08-19T11:21:39Z</time>
      </trkpt>
      <trkpt lat="41.693973" lon="1.009249">
        <ele>271.309</ele>
        <time>2021-08-19T11:21:41Z</time>
      </trkpt>
      <trkpt lat="41.693935" lon="1.009197">
        <ele>271.208</ele>
        <time>2021-08-19T11:21:43Z</time>
      </trkpt>
      <trkpt lat="41.693895" lon="1.009144">
        <ele>270.929</ele>
        <time>2021-08-19T11:21:45Z</time>
      </trkpt>
      <trkpt lat="41.693860" lon="1.009095">
        <ele>270.862</ele>
        <time>2021-08-19T11:21:47Z</time>
      </trkpt>
      <trkpt lat="41.693826" lon="1.009043">
        <ele>270.825</ele>
        <time>2021-08-19T11:21:49Z</time>
      </trkpt>
      <trkpt lat="41.693793" lon="1.008987">
        <ele>270.866</ele>
        <time>2021-08-19T11:21:51Z</time>
      </trkpt>
      <trkpt lat="41.693756" lon="1.008935">
        <ele>271.063</ele>
        <time>2021-08-19T11:21:53Z</time>
      </trkpt>
      <trkpt lat="41.693721" lon="1.008879">
        <ele>271.221</ele>
        <time>2021-08-19T11:21:55Z</time>
      </trkpt>
      <trkpt lat="41.693686" lon="1.008822">
        <ele>271.330</ele>
        <time>2021-08-19T11:21:57Z</time>
      </trkpt>
      <trkpt lat="41.693647" lon="1.008773">
        <ele>271.459</ele>
        <time>2021-08-19T11:21:59Z</time>
      </trkpt>
      <trkpt lat="41.693616" lon="1.008714">
        <ele>271.342</ele>
        <time>2021-08-19T11:22:01Z</time>
      </trkpt>
      <trkpt lat="41.693586" lon="1.008658">
        <ele>271.322</ele>
        <time>2021-08-19T11:22:03Z</time>
      </trkpt>
      <trkpt lat="41.693543" lon="1.008594">
        <ele>271.514</ele>
        <time>2021-08-19T11:22:05Z</time>
      </trkpt>
      <trkpt lat="41.693506" lon="1.008535">
        <ele>271.708</ele>
        <time>2021-08-19T11:22:07Z</time>
      </trkpt>
      <trkpt lat="41.693468" lon="1.008475">
        <ele>271.832</ele>
        <time>2021-08-19T11:22:09Z</time>
      </trkpt>
      <trkpt lat="41.693431" lon="1.008415">
        <ele>271.845</ele>
        <time>2021-08-19T11:22:11Z</time>
      </trkpt>
      <trkpt lat="41.693393" lon="1.008358">
        <ele>271.958</ele>
        <time>2021-08-19T11:22:13Z</time>
      </trkpt>
      <trkpt lat="41.693355" lon="1.008302">
        <ele>271.889</ele>
        <time>2021-08-19T11:22:15Z</time>
      </trkpt>
      <trkpt lat="41.693318" lon="1.008247">
        <ele>271.796</ele>
        <time>2021-08-19T11:22:17Z</time>
      </trkpt>
      <trkpt lat="41.693280" lon="1.008192">
        <ele>271.564</ele>
        <time>2021-08-19T11:22:19Z</time>
      </trkpt>
      <trkpt lat="41.693240" lon="1.008137">
        <ele>271.393</ele>
        <time>2021-08-19T11:22:21Z</time>
      </trkpt>
      <trkpt lat="41.693201" lon="1.008078">
        <ele>271.152</ele>
        <time>2021-08-19T11:22:23Z</time>
      </trkpt>
      <trkpt lat="41.693164" lon="1.008019">
        <ele>270.959</ele>
        <time>2021-08-19T11:22:25Z</time>
      </trkpt>
      <trkpt lat="41.693125" lon="1.007961">
        <ele>270.903</ele>
        <time>2021-08-19T11:22:27Z</time>
      </trkpt>
      <trkpt lat="41.693083" lon="1.007914">
        <ele>270.923</ele>
        <time>2021-08-19T11:22:29Z</time>
      </trkpt>
      <trkpt lat="41.693045" lon="1.007861">
        <ele>271.108</ele>
        <time>2021-08-19T11:22:31Z</time>
      </trkpt>
      <trkpt lat="41.692992" lon="1.007789">
        <ele>271.573</ele>
        <time>2021-08-19T11:22:34Z</time>
      </trkpt>
      <trkpt lat="41.692952" lon="1.007733">
        <ele>271.766</ele>
        <time>2021-08-19T11:22:36Z</time>
      </trkpt>
      <trkpt lat="41.692912" lon="1.007682">
        <ele>272.099</ele>
        <time>2021-08-19T11:22:38Z</time>
      </trkpt>
      <trkpt lat="41.692876" lon="1.007630">
        <ele>272.340</ele>
        <time>2021-08-19T11:22:40Z</time>
      </trkpt>
      <trkpt lat="41.692831" lon="1.007589">
        <ele>272.617</ele>
        <time>2021-08-19T11:22:42Z</time>
      </trkpt>
      <trkpt lat="41.692797" lon="1.007535">
        <ele>272.955</ele>
        <time>2021-08-19T11:22:44Z</time>
      </trkpt>
      <trkpt lat="41.692762" lon="1.007479">
        <ele>273.034</ele>
        <time>2021-08-19T11:22:46Z</time>
      </trkpt>
      <trkpt lat="41.692727" lon="1.007428">
        <ele>272.943</ele>
        <time>2021-08-19T11:22:48Z</time>
      </trkpt>
      <trkpt lat="41.692685" lon="1.007377">
        <ele>272.938</ele>
        <time>2021-08-19T11:22:50Z</time>
      </trkpt>
      <trkpt lat="41.692644" lon="1.007326">
        <ele>272.970</ele>
        <time>2021-08-19T11:22:52Z</time>
      </trkpt>
      <trkpt lat="41.692604" lon="1.007274">
        <ele>272.817</ele>
        <time>2021-08-19T11:22:54Z</time>
      </trkpt>
      <trkpt lat="41.692564" lon="1.007221">
        <ele>272.808</ele>
        <time>2021-08-19T11:22:56Z</time>
      </trkpt>
      <trkpt lat="41.692524" lon="1.007169">
        <ele>273.171</ele>
        <time>2021-08-19T11:22:58Z</time>
      </trkpt>
      <trkpt lat="41.692487" lon="1.007113">
        <ele>273.484</ele>
        <time>2021-08-19T11:23:00Z</time>
      </trkpt>
      <trkpt lat="41.692451" lon="1.007063">
        <ele>273.677</ele>
        <time>2021-08-19T11:23:02Z</time>
      </trkpt>
      <trkpt lat="41.692411" lon="1.007014">
        <ele>273.828</ele>
        <time>2021-08-19T11:23:04Z</time>
      </trkpt>
      <trkpt lat="41.692368" lon="1.006967">
        <ele>274.035</ele>
        <time>2021-08-19T11:23:06Z</time>
      </trkpt>
      <trkpt lat="41.692330" lon="1.006916">
        <ele>274.083</ele>
        <time>2021-08-19T11:23:08Z</time>
      </trkpt>
      <trkpt lat="41.692295" lon="1.006866">
        <ele>274.032</ele>
        <time>2021-08-19T11:23:10Z</time>
      </trkpt>
      <trkpt lat="41.692262" lon="1.006816">
        <ele>274.081</ele>
        <time>2021-08-19T11:23:12Z</time>
      </trkpt>
      <trkpt lat="41.692229" lon="1.006772">
        <ele>274.062</ele>
        <time>2021-08-19T11:23:14Z</time>
      </trkpt>
      <trkpt lat="41.692190" lon="1.006733">
        <ele>273.883</ele>
        <time>2021-08-19T11:25:29Z</time>
      </trkpt>
      <trkpt lat="41.692150" lon="1.006685">
        <ele>273.511</ele>
        <time>2021-08-19T11:25:32Z</time>
      </trkpt>
      <trkpt lat="41.692093" lon="1.006653">
        <ele>273.008</ele>
        <time>2021-08-19T11:25:36Z</time>
      </trkpt>
      <trkpt lat="41.692064" lon="1.006590">
        <ele>272.624</ele>
        <time>2021-08-19T11:25:38Z</time>
      </trkpt>
      <trkpt lat="41.692033" lon="1.006538">
        <ele>272.247</ele>
        <time>2021-08-19T11:25:40Z</time>
      </trkpt>
      <trkpt lat="41.691994" lon="1.006477">
        <ele>271.770</ele>
        <time>2021-08-19T11:25:42Z</time>
      </trkpt>
      <trkpt lat="41.691956" lon="1.006422">
        <ele>271.221</ele>
        <time>2021-08-19T11:25:44Z</time>
      </trkpt>
      <trkpt lat="41.691924" lon="1.006369">
        <ele>270.928</ele>
        <time>2021-08-19T11:25:46Z</time>
      </trkpt>
      <trkpt lat="41.691882" lon="1.006321">
        <ele>270.876</ele>
        <time>2021-08-19T11:25:48Z</time>
      </trkpt>
      <trkpt lat="41.691843" lon="1.006265">
        <ele>270.645</ele>
        <time>2021-08-19T11:25:50Z</time>
      </trkpt>
      <trkpt lat="41.691805" lon="1.006204">
        <ele>270.364</ele>
        <time>2021-08-19T11:25:52Z</time>
      </trkpt>
      <trkpt lat="41.691765" lon="1.006145">
        <ele>270.175</ele>
        <time>2021-08-19T11:25:54Z</time>
      </trkpt>
      <trkpt lat="41.691730" lon="1.006080">
        <ele>270.128</ele>
        <time>2021-08-19T11:25:56Z</time>
      </trkpt>
      <trkpt lat="41.691693" lon="1.006019">
        <ele>270.320</ele>
        <time>2021-08-19T11:25:58Z</time>
      </trkpt>
      <trkpt lat="41.691666" lon="1.005970">
        <ele>270.508</ele>
        <time>2021-08-19T11:26:00Z</time>
      </trkpt>
      <trkpt lat="41.691627" lon="1.005908">
        <ele>270.865</ele>
        <time>2021-08-19T11:26:02Z</time>
      </trkpt>
      <trkpt lat="41.691589" lon="1.005842">
        <ele>271.058</ele>
        <time>2021-08-19T11:26:04Z</time>
      </trkpt>
      <trkpt lat="41.691553" lon="1.005781">
        <ele>271.111</ele>
        <time>2021-08-19T11:26:06Z</time>
      </trkpt>
      <trkpt lat="41.691518" lon="1.005720">
        <ele>271.222</ele>
        <time>2021-08-19T11:26:08Z</time>
      </trkpt>
      <trkpt lat="41.691484" lon="1.005660">
        <ele>271.429</ele>
        <time>2021-08-19T11:26:10Z</time>
      </trkpt>
      <trkpt lat="41.691451" lon="1.005598">
        <ele>271.727</ele>
        <time>2021-08-19T11:26:12Z</time>
      </trkpt>
      <trkpt lat="41.691416" lon="1.005535">
        <ele>271.996</ele>
        <time>2021-08-19T11:26:14Z</time>
      </trkpt>
      <trkpt lat="41.691381" lon="1.005475">
        <ele>272.085</ele>
        <time>2021-08-19T11:26:16Z</time>
      </trkpt>
      <trkpt lat="41.691348" lon="1.005420">
        <ele>272.128</ele>
        <time>2021-08-19T11:26:18Z</time>
      </trkpt>
      <trkpt lat="41.691313" lon="1.005363">
        <ele>272.389</ele>
        <time>2021-08-19T11:26:20Z</time>
      </trkpt>
      <trkpt lat="41.691279" lon="1.005297">
        <ele>272.417</ele>
        <time>2021-08-19T11:26:22Z</time>
      </trkpt>
      <trkpt lat="41.691240" lon="1.005233">
        <ele>272.608</ele>
        <time>2021-08-19T11:26:24Z</time>
      </trkpt>
      <trkpt lat="41.691207" lon="1.005169">
        <ele>272.850</ele>
        <time>2021-08-19T11:26:26Z</time>
      </trkpt>
      <trkpt lat="41.691170" lon="1.005112">
        <ele>272.933</ele>
        <time>2021-08-19T11:26:28Z</time>
      </trkpt>
      <trkpt lat="41.691135" lon="1.005045">
        <ele>273.056</ele>
        <time>2021-08-19T11:26:30Z</time>
      </trkpt>
      <trkpt lat="41.691103" lon="1.004996">
        <ele>273.047</ele>
        <time>2021-08-19T11:26:32Z</time>
      </trkpt>
      <trkpt lat="41.691066" lon="1.004931">
        <ele>272.874</ele>
        <time>2021-08-19T11:26:34Z</time>
      </trkpt>
      <trkpt lat="41.691028" lon="1.004871">
        <ele>272.622</ele>
        <time>2021-08-19T11:26:36Z</time>
      </trkpt>
      <trkpt lat="41.690994" lon="1.004812">
        <ele>272.391</ele>
        <time>2021-08-19T11:26:38Z</time>
      </trkpt>
      <trkpt lat="41.690958" lon="1.004754">
        <ele>272.090</ele>
        <time>2021-08-19T11:26:40Z</time>
      </trkpt>
      <trkpt lat="41.690924" lon="1.004694">
        <ele>271.624</ele>
        <time>2021-08-19T11:26:42Z</time>
      </trkpt>
      <trkpt lat="41.690890" lon="1.004632">
        <ele>271.304</ele>
        <time>2021-08-19T11:26:44Z</time>
      </trkpt>
      <trkpt lat="41.690854" lon="1.004572">
        <ele>271.114</ele>
        <time>2021-08-19T11:26:46Z</time>
      </trkpt>
      <trkpt lat="41.690820" lon="1.004512">
        <ele>271.008</ele>
        <time>2021-08-19T11:26:48Z</time>
      </trkpt>
      <trkpt lat="41.690787" lon="1.004455">
        <ele>271.040</ele>
        <time>2021-08-19T11:26:50Z</time>
      </trkpt>
      <trkpt lat="41.690749" lon="1.004404">
        <ele>270.913</ele>
        <time>2021-08-19T11:26:52Z</time>
      </trkpt>
      <trkpt lat="41.690717" lon="1.004340">
        <ele>270.616</ele>
        <time>2021-08-19T11:26:54Z</time>
      </trkpt>
      <trkpt lat="41.690674" lon="1.004293">
        <ele>270.557</ele>
        <time>2021-08-19T11:26:56Z</time>
      </trkpt>
      <trkpt lat="41.690639" lon="1.004239">
        <ele>270.384</ele>
        <time>2021-08-19T11:26:58Z</time>
      </trkpt>
      <trkpt lat="41.690605" lon="1.004184">
        <ele>270.132</ele>
        <time>2021-08-19T11:27:00Z</time>
      </trkpt>
      <trkpt lat="41.690568" lon="1.004130">
        <ele>269.911</ele>
        <time>2021-08-19T11:27:02Z</time>
      </trkpt>
      <trkpt lat="41.690539" lon="1.004080">
        <ele>269.870</ele>
        <time>2021-08-19T11:27:04Z</time>
      </trkpt>
      <trkpt lat="41.690502" lon="1.004017">
        <ele>269.811</ele>
        <time>2021-08-19T11:27:06Z</time>
      </trkpt>
      <trkpt lat="41.690460" lon="1.003968">
        <ele>269.921</ele>
        <time>2021-08-19T11:27:08Z</time>
      </trkpt>
      <trkpt lat="41.690426" lon="1.003905">
        <ele>270.003</ele>
        <time>2021-08-19T11:27:10Z</time>
      </trkpt>
      <trkpt lat="41.690387" lon="1.003844">
        <ele>270.208</ele>
        <time>2021-08-19T11:27:12Z</time>
      </trkpt>
      <trkpt lat="41.690352" lon="1.003779">
        <ele>270.529</ele>
        <time>2021-08-19T11:27:14Z</time>
      </trkpt>
      <trkpt lat="41.690319" lon="1.003721">
        <ele>270.782</ele>
        <time>2021-08-19T11:27:16Z</time>
      </trkpt>
      <trkpt lat="41.690283" lon="1.003661">
        <ele>271.075</ele>
        <time>2021-08-19T11:27:18Z</time>
      </trkpt>
      <trkpt lat="41.690244" lon="1.003605">
        <ele>271.166</ele>
        <time>2021-08-19T11:27:20Z</time>
      </trkpt>
      <trkpt lat="41.690207" lon="1.003550">
        <ele>271.013</ele>
        <time>2021-08-19T11:27:22Z</time>
      </trkpt>
      <trkpt lat="41.690173" lon="1.003490">
        <ele>270.961</ele>
        <time>2021-08-19T11:27:24Z</time>
      </trkpt>
      <trkpt lat="41.690143" lon="1.003429">
        <ele>270.840</ele>
        <time>2021-08-19T11:27:26Z</time>
      </trkpt>
      <trkpt lat="41.690112" lon="1.003368">
        <ele>270.759</ele>
        <time>2021-08-19T11:27:28Z</time>
      </trkpt>
      <trkpt lat="41.690075" lon="1.003307">
        <ele>270.798</ele>
        <time>2021-08-19T11:27:30Z</time>
      </trkpt>
      <trkpt lat="41.690038" lon="1.003244">
        <ele>270.915</ele>
        <time>2021-08-19T11:27:32Z</time>
      </trkpt>
      <trkpt lat="41.690002" lon="1.003192">
        <ele>271.026</ele>
        <time>2021-08-19T11:27:34Z</time>
      </trkpt>
      <trkpt lat="41.689960" lon="1.003126">
        <ele>271.008</ele>
        <time>2021-08-19T11:27:36Z</time>
      </trkpt>
      <trkpt lat="41.689922" lon="1.003070">
        <ele>271.057</ele>
        <time>2021-08-19T11:27:38Z</time>
      </trkpt>
      <trkpt lat="41.689888" lon="1.003015">
        <ele>271.050</ele>
        <time>2021-08-19T11:27:40Z</time>
      </trkpt>
      <trkpt lat="41.689858" lon="1.002965">
        <ele>271.013</ele>
        <time>2021-08-19T11:27:42Z</time>
      </trkpt>
      <trkpt lat="41.689814" lon="1.002902">
        <ele>271.064</ele>
        <time>2021-08-19T11:27:45Z</time>
      </trkpt>
      <trkpt lat="41.689777" lon="1.002863">
        <ele>271.081</ele>
        <time>2021-08-19T11:27:48Z</time>
      </trkpt>
      <trkpt lat="41.689740" lon="1.002772">
        <ele>271.059</ele>
        <time>2021-08-19T11:27:51Z</time>
      </trkpt>
      <trkpt lat="41.689685" lon="1.002648">
        <ele>270.978</ele>
        <time>2021-08-19T11:27:53Z</time>
      </trkpt>
      <trkpt lat="41.689630" lon="1.002533">
        <ele>270.777</ele>
        <time>2021-08-19T11:27:55Z</time>
      </trkpt>
      <trkpt lat="41.689580" lon="1.002418">
        <ele>270.391</ele>
        <time>2021-08-19T11:27:57Z</time>
      </trkpt>
      <trkpt lat="41.689549" lon="1.002339">
        <ele>270.281</ele>
        <time>2021-08-19T11:27:59Z</time>
      </trkpt>
      <trkpt lat="41.689528" lon="1.002282">
        <ele>270.119</ele>
        <time>2021-08-19T11:28:00Z</time>
      </trkpt>
      <trkpt lat="41.689503" lon="1.002229">
        <ele>270.008</ele>
        <time>2021-08-19T11:28:01Z</time>
      </trkpt>
      <trkpt lat="41.689469" lon="1.002151">
        <ele>270.087</ele>
        <time>2021-08-19T11:28:03Z</time>
      </trkpt>
      <trkpt lat="41.689444" lon="1.002091">
        <ele>270.030</ele>
        <time>2021-08-19T11:28:04Z</time>
      </trkpt>
      <trkpt lat="41.689401" lon="1.001990">
        <ele>269.743</ele>
        <time>2021-08-19T11:28:06Z</time>
      </trkpt>
      <trkpt lat="41.689369" lon="1.001895">
        <ele>269.644</ele>
        <time>2021-08-19T11:28:08Z</time>
      </trkpt>
      <trkpt lat="41.689344" lon="1.001789">
        <ele>269.881</ele>
        <time>2021-08-19T11:28:10Z</time>
      </trkpt>
      <trkpt lat="41.689320" lon="1.001684">
        <ele>270.019</ele>
        <time>2021-08-19T11:28:12Z</time>
      </trkpt>
      <trkpt lat="41.689296" lon="1.001579">
        <ele>269.998</ele>
        <time>2021-08-19T11:28:14Z</time>
      </trkpt>
      <trkpt lat="41.689278" lon="1.001474">
        <ele>269.817</ele>
        <time>2021-08-19T11:28:16Z</time>
      </trkpt>
      <trkpt lat="41.689254" lon="1.001381">
        <ele>269.697</ele>
        <time>2021-08-19T11:28:18Z</time>
      </trkpt>
      <trkpt lat="41.689239" lon="1.001293">
        <ele>269.823</ele>
        <time>2021-08-19T11:28:20Z</time>
      </trkpt>
      <trkpt lat="41.689217" lon="1.001201">
        <ele>269.925</ele>
        <time>2021-08-19T11:28:22Z</time>
      </trkpt>
      <trkpt lat="41.689187" lon="1.001103">
        <ele>270.108</ele>
        <time>2021-08-19T11:28:24Z</time>
      </trkpt>
      <trkpt lat="41.689162" lon="1.000997">
        <ele>270.067</ele>
        <time>2021-08-19T11:28:26Z</time>
      </trkpt>
      <trkpt lat="41.689133" lon="1.000898">
        <ele>270.090</ele>
        <time>2021-08-19T11:28:28Z</time>
      </trkpt>
      <trkpt lat="41.689113" lon="1.000812">
        <ele>270.153</ele>
        <time>2021-08-19T11:28:30Z</time>
      </trkpt>
      <trkpt lat="41.689097" lon="1.000729">
        <ele>270.314</ele>
        <time>2021-08-19T11:28:32Z</time>
      </trkpt>
      <trkpt lat="41.689085" lon="1.000660">
        <ele>270.461</ele>
        <time>2021-08-19T11:28:34Z</time>
      </trkpt>
      <trkpt lat="41.689064" lon="1.000570">
        <ele>270.649</ele>
        <time>2021-08-19T11:28:36Z</time>
      </trkpt>
      <trkpt lat="41.689037" lon="1.000489">
        <ele>270.478</ele>
        <time>2021-08-19T11:28:38Z</time>
      </trkpt>
      <trkpt lat="41.689016" lon="1.000396">
        <ele>270.237</ele>
        <time>2021-08-19T11:28:40Z</time>
      </trkpt>
      <trkpt lat="41.688994" lon="1.000302">
        <ele>270.075</ele>
        <time>2021-08-19T11:28:42Z</time>
      </trkpt>
      <trkpt lat="41.688977" lon="1.000204">
        <ele>270.128</ele>
        <time>2021-08-19T11:28:44Z</time>
      </trkpt>
      <trkpt lat="41.688970" lon="1.000109">
        <ele>270.220</ele>
        <time>2021-08-19T11:28:46Z</time>
      </trkpt>
      <trkpt lat="41.688967" lon="1.000018">
        <ele>270.308</ele>
        <time>2021-08-19T11:28:48Z</time>
      </trkpt>
      <trkpt lat="41.688952" lon="0.999930">
        <ele>270.275</ele>
        <time>2021-08-19T11:28:50Z</time>
      </trkpt>
      <trkpt lat="41.688926" lon="0.999843">
        <ele>270.148</ele>
        <time>2021-08-19T11:28:52Z</time>
      </trkpt>
      <trkpt lat="41.688884" lon="0.999766">
        <ele>270.061</ele>
        <time>2021-08-19T11:28:54Z</time>
      </trkpt>
      <trkpt lat="41.688826" lon="0.999696">
        <ele>269.722</ele>
        <time>2021-08-19T11:28:56Z</time>
      </trkpt>
      <trkpt lat="41.688752" lon="0.999650">
        <ele>269.499</ele>
        <time>2021-08-19T11:28:58Z</time>
      </trkpt>
      <trkpt lat="41.688678" lon="0.999627">
        <ele>269.267</ele>
        <time>2021-08-19T11:29:00Z</time>
      </trkpt>
      <trkpt lat="41.688603" lon="0.999603">
        <ele>269.136</ele>
        <time>2021-08-19T11:29:02Z</time>
      </trkpt>
      <trkpt lat="41.688550" lon="0.999581">
        <ele>269.485</ele>
        <time>2021-08-19T11:29:04Z</time>
      </trkpt>
      <trkpt lat="41.688489" lon="0.999555">
        <ele>269.934</ele>
        <time>2021-08-19T11:29:05Z</time>
      </trkpt>
      <trkpt lat="41.688415" lon="0.999510">
        <ele>270.455</ele>
        <time>2021-08-19T11:29:07Z</time>
      </trkpt>
      <trkpt lat="41.688350" lon="0.999467">
        <ele>270.910</ele>
        <time>2021-08-19T11:29:09Z</time>
      </trkpt>
      <trkpt lat="41.688281" lon="0.999425">
        <ele>270.908</ele>
        <time>2021-08-19T11:29:11Z</time>
      </trkpt>
      <trkpt lat="41.688219" lon="0.999380">
        <ele>270.881</ele>
        <time>2021-08-19T11:29:13Z</time>
      </trkpt>
      <trkpt lat="41.688161" lon="0.999332">
        <ele>270.634</ele>
        <time>2021-08-19T11:29:15Z</time>
      </trkpt>
      <trkpt lat="41.688106" lon="0.999286">
        <ele>270.417</ele>
        <time>2021-08-19T11:29:17Z</time>
      </trkpt>
      <trkpt lat="41.688050" lon="0.999240">
        <ele>270.218</ele>
        <time>2021-08-19T11:29:19Z</time>
      </trkpt>
      <trkpt lat="41.688001" lon="0.999197">
        <ele>269.915</ele>
        <time>2021-08-19T11:29:21Z</time>
      </trkpt>
      <trkpt lat="41.687950" lon="0.999149">
        <ele>269.633</ele>
        <time>2021-08-19T11:29:23Z</time>
      </trkpt>
      <trkpt lat="41.687902" lon="0.999087">
        <ele>269.372</ele>
        <time>2021-08-19T11:29:25Z</time>
      </trkpt>
      <trkpt lat="41.687857" lon="0.999030">
        <ele>269.181</ele>
        <time>2021-08-19T11:29:27Z</time>
      </trkpt>
      <trkpt lat="41.687809" lon="0.998972">
        <ele>269.078</ele>
        <time>2021-08-19T11:29:29Z</time>
      </trkpt>
      <trkpt lat="41.687776" lon="0.998895">
        <ele>269.033</ele>
        <time>2021-08-19T11:29:31Z</time>
      </trkpt>
      <trkpt lat="41.687752" lon="0.998826">
        <ele>269.026</ele>
        <time>2021-08-19T11:29:33Z</time>
      </trkpt>
      <trkpt lat="41.687720" lon="0.998739">
        <ele>269.008</ele>
        <time>2021-08-19T11:29:35Z</time>
      </trkpt>
      <trkpt lat="41.687688" lon="0.998659">
        <ele>269.055</ele>
        <time>2021-08-19T11:29:37Z</time>
      </trkpt>
      <trkpt lat="41.687655" lon="0.998583">
        <ele>268.998</ele>
        <time>2021-08-19T11:29:39Z</time>
      </trkpt>
      <trkpt lat="41.687630" lon="0.998502">
        <ele>268.871</ele>
        <time>2021-08-19T11:29:41Z</time>
      </trkpt>
      <trkpt lat="41.687603" lon="0.998430">
        <ele>268.832</ele>
        <time>2021-08-19T11:29:43Z</time>
      </trkpt>
      <trkpt lat="41.687564" lon="0.998365">
        <ele>268.879</ele>
        <time>2021-08-19T11:29:45Z</time>
      </trkpt>
      <trkpt lat="41.687533" lon="0.998300">
        <ele>268.887</ele>
        <time>2021-08-19T11:29:47Z</time>
      </trkpt>
      <trkpt lat="41.687491" lon="0.998239">
        <ele>268.686</ele>
        <time>2021-08-19T11:29:49Z</time>
      </trkpt>
      <trkpt lat="41.687452" lon="0.998180">
        <ele>268.455</ele>
        <time>2021-08-19T11:29:51Z</time>
      </trkpt>
      <trkpt lat="41.687414" lon="0.998119">
        <ele>268.222</ele>
        <time>2021-08-19T11:29:53Z</time>
      </trkpt>
      <trkpt lat="41.687377" lon="0.998060">
        <ele>268.062</ele>
        <time>2021-08-19T11:29:55Z</time>
      </trkpt>
      <trkpt lat="41.687334" lon="0.998000">
        <ele>268.008</ele>
        <time>2021-08-19T11:29:57Z</time>
      </trkpt>
      <trkpt lat="41.687299" lon="0.997933">
        <ele>268.008</ele>
        <time>2021-08-19T11:29:59Z</time>
      </trkpt>
      <trkpt lat="41.687265" lon="0.997869">
        <ele>268.020</ele>
        <time>2021-08-19T11:30:01Z</time>
      </trkpt>
      <trkpt lat="41.687243" lon="0.997812">
        <ele>268.093</ele>
        <time>2021-08-19T11:30:03Z</time>
      </trkpt>
      <trkpt lat="41.687225" lon="0.997743">
        <ele>268.146</ele>
        <time>2021-08-19T11:30:05Z</time>
      </trkpt>
      <trkpt lat="41.687208" lon="0.997665">
        <ele>268.477</ele>
        <time>2021-08-19T11:30:07Z</time>
      </trkpt>
      <trkpt lat="41.687200" lon="0.997576">
        <ele>268.744</ele>
        <time>2021-08-19T11:30:09Z</time>
      </trkpt>
      <trkpt lat="41.687198" lon="0.997485">
        <ele>269.162</ele>
        <time>2021-08-19T11:30:11Z</time>
      </trkpt>
      <trkpt lat="41.687194" lon="0.997395">
        <ele>269.411</ele>
        <time>2021-08-19T11:30:13Z</time>
      </trkpt>
      <trkpt lat="41.687192" lon="0.997302">
        <ele>269.740</ele>
        <time>2021-08-19T11:30:15Z</time>
      </trkpt>
      <trkpt lat="41.687196" lon="0.997206">
        <ele>269.967</ele>
        <time>2021-08-19T11:30:17Z</time>
      </trkpt>
      <trkpt lat="41.687195" lon="0.997112">
        <ele>269.681</ele>
        <time>2021-08-19T11:30:19Z</time>
      </trkpt>
      <trkpt lat="41.687192" lon="0.997025">
        <ele>269.419</ele>
        <time>2021-08-19T11:30:21Z</time>
      </trkpt>
      <trkpt lat="41.687196" lon="0.996939">
        <ele>269.108</ele>
        <time>2021-08-19T11:30:23Z</time>
      </trkpt>
      <trkpt lat="41.687197" lon="0.996848">
        <ele>269.134</ele>
        <time>2021-08-19T11:30:25Z</time>
      </trkpt>
      <trkpt lat="41.687198" lon="0.996749">
        <ele>269.087</ele>
        <time>2021-08-19T11:30:27Z</time>
      </trkpt>
      <trkpt lat="41.687193" lon="0.996651">
        <ele>269.090</ele>
        <time>2021-08-19T11:30:29Z</time>
      </trkpt>
      <trkpt lat="41.687189" lon="0.996554">
        <ele>269.071</ele>
        <time>2021-08-19T11:30:31Z</time>
      </trkpt>
      <trkpt lat="41.687187" lon="0.996474">
        <ele>268.958</ele>
        <time>2021-08-19T11:30:33Z</time>
      </trkpt>
      <trkpt lat="41.687190" lon="0.996389">
        <ele>268.976</ele>
        <time>2021-08-19T11:30:35Z</time>
      </trkpt>
      <trkpt lat="41.687191" lon="0.996298">
        <ele>268.655</ele>
        <time>2021-08-19T11:30:37Z</time>
      </trkpt>
      <trkpt lat="41.687189" lon="0.996206">
        <ele>268.334</ele>
        <time>2021-08-19T11:30:39Z</time>
      </trkpt>
      <trkpt lat="41.687192" lon="0.996118">
        <ele>268.075</ele>
        <time>2021-08-19T11:30:41Z</time>
      </trkpt>
      <trkpt lat="41.687188" lon="0.996030">
        <ele>267.728</ele>
        <time>2021-08-19T11:30:43Z</time>
      </trkpt>
      <trkpt lat="41.687185" lon="0.995938">
        <ele>267.520</ele>
        <time>2021-08-19T11:30:45Z</time>
      </trkpt>
      <trkpt lat="41.687183" lon="0.995844">
        <ele>267.208</ele>
        <time>2021-08-19T11:30:47Z</time>
      </trkpt>
      <trkpt lat="41.687179" lon="0.995745">
        <ele>267.255</ele>
        <time>2021-08-19T11:30:49Z</time>
      </trkpt>
      <trkpt lat="41.687171" lon="0.995646">
        <ele>267.268</ele>
        <time>2021-08-19T11:30:51Z</time>
      </trkpt>
      <trkpt lat="41.687163" lon="0.995550">
        <ele>267.291</ele>
        <time>2021-08-19T11:30:53Z</time>
      </trkpt>
      <trkpt lat="41.687155" lon="0.995459">
        <ele>267.262</ele>
        <time>2021-08-19T11:30:55Z</time>
      </trkpt>
      <trkpt lat="41.687151" lon="0.995372">
        <ele>267.319</ele>
        <time>2021-08-19T11:30:57Z</time>
      </trkpt>
      <trkpt lat="41.687139" lon="0.995287">
        <ele>267.327</ele>
        <time>2021-08-19T11:30:59Z</time>
      </trkpt>
      <trkpt lat="41.687136" lon="0.995198">
        <ele>267.366</ele>
        <time>2021-08-19T11:31:01Z</time>
      </trkpt>
      <trkpt lat="41.687137" lon="0.995120">
        <ele>267.345</ele>
        <time>2021-08-19T11:31:03Z</time>
      </trkpt>
      <trkpt lat="41.687122" lon="0.995031">
        <ele>267.473</ele>
        <time>2021-08-19T11:31:05Z</time>
      </trkpt>
      <trkpt lat="41.687119" lon="0.994944">
        <ele>267.385</ele>
        <time>2021-08-19T11:31:07Z</time>
      </trkpt>
      <trkpt lat="41.687124" lon="0.994856">
        <ele>267.213</ele>
        <time>2021-08-19T11:31:09Z</time>
      </trkpt>
      <trkpt lat="41.687117" lon="0.994768">
        <ele>267.108</ele>
        <time>2021-08-19T11:31:11Z</time>
      </trkpt>
      <trkpt lat="41.687122" lon="0.994679">
        <ele>267.165</ele>
        <time>2021-08-19T11:31:13Z</time>
      </trkpt>
      <trkpt lat="41.687127" lon="0.994591">
        <ele>267.288</ele>
        <time>2021-08-19T11:31:15Z</time>
      </trkpt>
      <trkpt lat="41.687139" lon="0.994504">
        <ele>267.221</ele>
        <time>2021-08-19T11:31:17Z</time>
      </trkpt>
      <trkpt lat="41.687141" lon="0.994413">
        <ele>267.492</ele>
        <time>2021-08-19T11:31:19Z</time>
      </trkpt>
      <trkpt lat="41.687151" lon="0.994329">
        <ele>267.649</ele>
        <time>2021-08-19T11:31:21Z</time>
      </trkpt>
      <trkpt lat="41.687163" lon="0.994247">
        <ele>267.867</ele>
        <time>2021-08-19T11:31:23Z</time>
      </trkpt>
      <trkpt lat="41.687165" lon="0.994164">
        <ele>268.096</ele>
        <time>2021-08-19T11:31:25Z</time>
      </trkpt>
      <trkpt lat="41.687162" lon="0.994094">
        <ele>268.085</ele>
        <time>2021-08-19T11:31:27Z</time>
      </trkpt>
      <trkpt lat="41.687149" lon="0.994012">
        <ele>268.058</ele>
        <time>2021-08-19T11:31:29Z</time>
      </trkpt>
      <trkpt lat="41.687132" lon="0.993943">
        <ele>268.052</ele>
        <time>2021-08-19T11:31:31Z</time>
      </trkpt>
      <trkpt lat="41.687104" lon="0.993890">
        <ele>268.017</ele>
        <time>2021-08-19T11:31:33Z</time>
      </trkpt>
      <trkpt lat="41.687065" lon="0.993845">
        <ele>267.908</ele>
        <time>2021-08-19T11:31:35Z</time>
      </trkpt>
      <trkpt lat="41.687013" lon="0.993788">
        <ele>267.763</ele>
        <time>2021-08-19T11:31:37Z</time>
      </trkpt>
      <trkpt lat="41.686967" lon="0.993738">
        <ele>267.536</ele>
        <time>2021-08-19T11:31:39Z</time>
      </trkpt>
      <trkpt lat="41.686928" lon="0.993680">
        <ele>267.119</ele>
        <time>2021-08-19T11:31:41Z</time>
      </trkpt>
      <trkpt lat="41.686883" lon="0.993621">
        <ele>266.670</ele>
        <time>2021-08-19T11:31:43Z</time>
      </trkpt>
      <trkpt lat="41.686834" lon="0.993562">
        <ele>266.297</ele>
        <time>2021-08-19T11:31:45Z</time>
      </trkpt>
      <trkpt lat="41.686790" lon="0.993505">
        <ele>265.965</ele>
        <time>2021-08-19T11:31:47Z</time>
      </trkpt>
      <trkpt lat="41.686751" lon="0.993447">
        <ele>265.624</ele>
        <time>2021-08-19T11:31:49Z</time>
      </trkpt>
      <trkpt lat="41.686706" lon="0.993389">
        <ele>265.333</ele>
        <time>2021-08-19T11:31:51Z</time>
      </trkpt>
      <trkpt lat="41.686664" lon="0.993331">
        <ele>265.093</ele>
        <time>2021-08-19T11:31:53Z</time>
      </trkpt>
      <trkpt lat="41.686619" lon="0.993269">
        <ele>265.465</ele>
        <time>2021-08-19T11:31:55Z</time>
      </trkpt>
      <trkpt lat="41.686574" lon="0.993205">
        <ele>265.821</ele>
        <time>2021-08-19T11:31:57Z</time>
      </trkpt>
      <trkpt lat="41.686526" lon="0.993145">
        <ele>266.008</ele>
        <time>2021-08-19T11:31:59Z</time>
      </trkpt>
      <trkpt lat="41.686479" lon="0.993081">
        <ele>266.247</ele>
        <time>2021-08-19T11:32:01Z</time>
      </trkpt>
      <trkpt lat="41.686431" lon="0.993019">
        <ele>266.350</ele>
        <time>2021-08-19T11:32:03Z</time>
      </trkpt>
      <trkpt lat="41.686381" lon="0.992956">
        <ele>266.473</ele>
        <time>2021-08-19T11:32:05Z</time>
      </trkpt>
      <trkpt lat="41.686327" lon="0.992886">
        <ele>266.874</ele>
        <time>2021-08-19T11:32:07Z</time>
      </trkpt>
      <trkpt lat="41.686278" lon="0.992828">
        <ele>267.241</ele>
        <time>2021-08-19T11:32:09Z</time>
      </trkpt>
      <trkpt lat="41.686232" lon="0.992766">
        <ele>267.639</ele>
        <time>2021-08-19T11:32:11Z</time>
      </trkpt>
      <trkpt lat="41.686183" lon="0.992708">
        <ele>267.718</ele>
        <time>2021-08-19T11:32:13Z</time>
      </trkpt>
      <trkpt lat="41.686138" lon="0.992658">
        <ele>267.987</ele>
        <time>2021-08-19T11:32:15Z</time>
      </trkpt>
      <trkpt lat="41.686097" lon="0.992609">
        <ele>268.022</ele>
        <time>2021-08-19T11:32:17Z</time>
      </trkpt>
      <trkpt lat="41.686058" lon="0.992558">
        <ele>268.062</ele>
        <time>2021-08-19T11:32:19Z</time>
      </trkpt>
      <trkpt lat="41.686011" lon="0.992510">
        <ele>268.008</ele>
        <time>2021-08-19T11:32:21Z</time>
      </trkpt>
      <trkpt lat="41.685969" lon="0.992460">
        <ele>267.908</ele>
        <time>2021-08-19T11:32:23Z</time>
      </trkpt>
      <trkpt lat="41.685922" lon="0.992416">
        <ele>267.830</ele>
        <time>2021-08-19T11:32:25Z</time>
      </trkpt>
      <trkpt lat="41.685873" lon="0.992370">
        <ele>267.943</ele>
        <time>2021-08-19T11:32:27Z</time>
      </trkpt>
      <trkpt lat="41.685826" lon="0.992320">
        <ele>268.026</ele>
        <time>2021-08-19T11:32:29Z</time>
      </trkpt>
      <trkpt lat="41.685780" lon="0.992268">
        <ele>267.817</ele>
        <time>2021-08-19T11:32:31Z</time>
      </trkpt>
      <trkpt lat="41.685735" lon="0.992219">
        <ele>267.684</ele>
        <time>2021-08-19T11:32:33Z</time>
      </trkpt>
      <trkpt lat="41.685696" lon="0.992178">
        <ele>267.372</ele>
        <time>2021-08-19T11:32:35Z</time>
      </trkpt>
      <trkpt lat="41.685646" lon="0.992123">
        <ele>266.911</ele>
        <time>2021-08-19T11:32:37Z</time>
      </trkpt>
      <trkpt lat="41.685609" lon="0.992076">
        <ele>266.610</ele>
        <time>2021-08-19T11:32:39Z</time>
      </trkpt>
      <trkpt lat="41.685571" lon="0.992029">
        <ele>266.384</ele>
        <time>2021-08-19T11:32:41Z</time>
      </trkpt>
      <trkpt lat="41.685534" lon="0.991981">
        <ele>266.107</ele>
        <time>2021-08-19T11:32:43Z</time>
      </trkpt>
      <trkpt lat="41.685497" lon="0.991933">
        <ele>265.717</ele>
        <time>2021-08-19T11:32:45Z</time>
      </trkpt>
      <trkpt lat="41.685453" lon="0.991878">
        <ele>265.208</ele>
        <time>2021-08-19T11:32:47Z</time>
      </trkpt>
      <trkpt lat="41.685415" lon="0.991820">
        <ele>264.816</ele>
        <time>2021-08-19T11:32:49Z</time>
      </trkpt>
      <trkpt lat="41.685373" lon="0.991774">
        <ele>264.569</ele>
        <time>2021-08-19T11:32:51Z</time>
      </trkpt>
      <trkpt lat="41.685328" lon="0.991723">
        <ele>264.272</ele>
        <time>2021-08-19T11:32:53Z</time>
      </trkpt>
      <trkpt lat="41.685291" lon="0.991665">
        <ele>264.043</ele>
        <time>2021-08-19T11:32:55Z</time>
      </trkpt>
      <trkpt lat="41.685252" lon="0.991610">
        <ele>264.180</ele>
        <time>2021-08-19T11:32:57Z</time>
      </trkpt>
      <trkpt lat="41.685210" lon="0.991551">
        <ele>264.218</ele>
        <time>2021-08-19T11:32:59Z</time>
      </trkpt>
      <trkpt lat="41.685173" lon="0.991483">
        <ele>264.487</ele>
        <time>2021-08-19T11:33:01Z</time>
      </trkpt>
      <trkpt lat="41.685133" lon="0.991424">
        <ele>264.516</ele>
        <time>2021-08-19T11:33:03Z</time>
      </trkpt>
      <trkpt lat="41.685104" lon="0.991366">
        <ele>264.776</ele>
        <time>2021-08-19T11:33:05Z</time>
      </trkpt>
      <trkpt lat="41.685068" lon="0.991295">
        <ele>265.090</ele>
        <time>2021-08-19T11:33:07Z</time>
      </trkpt>
      <trkpt lat="41.685035" lon="0.991226">
        <ele>265.419</ele>
        <time>2021-08-19T11:33:09Z</time>
      </trkpt>
      <trkpt lat="41.685011" lon="0.991158">
        <ele>265.808</ele>
        <time>2021-08-19T11:33:11Z</time>
      </trkpt>
      <trkpt lat="41.684986" lon="0.991090">
        <ele>265.995</ele>
        <time>2021-08-19T11:33:13Z</time>
      </trkpt>
      <trkpt lat="41.684965" lon="0.991021">
        <ele>265.798</ele>
        <time>2021-08-19T11:33:15Z</time>
      </trkpt>
      <trkpt lat="41.684942" lon="0.990949">
        <ele>265.521</ele>
        <time>2021-08-19T11:33:17Z</time>
      </trkpt>
      <trkpt lat="41.684924" lon="0.990879">
        <ele>265.492</ele>
        <time>2021-08-19T11:33:19Z</time>
      </trkpt>
      <trkpt lat="41.684906" lon="0.990807">
        <ele>265.319</ele>
        <time>2021-08-19T11:33:21Z</time>
      </trkpt>
      <trkpt lat="41.684887" lon="0.990733">
        <ele>265.487</ele>
        <time>2021-08-19T11:33:23Z</time>
      </trkpt>
      <trkpt lat="41.684872" lon="0.990658">
        <ele>265.536</ele>
        <time>2021-08-19T11:33:25Z</time>
      </trkpt>
      <trkpt lat="41.684852" lon="0.990585">
        <ele>265.595</ele>
        <time>2021-08-19T11:33:27Z</time>
      </trkpt>
      <trkpt lat="41.684829" lon="0.990506">
        <ele>265.528</ele>
        <time>2021-08-19T11:33:29Z</time>
      </trkpt>
      <trkpt lat="41.684804" lon="0.990441">
        <ele>265.489</ele>
        <time>2021-08-19T11:33:31Z</time>
      </trkpt>
      <trkpt lat="41.684786" lon="0.990380">
        <ele>265.317</ele>
        <time>2021-08-19T11:33:33Z</time>
      </trkpt>
      <trkpt lat="41.684758" lon="0.990291">
        <ele>265.008</ele>
        <time>2021-08-19T11:33:36Z</time>
      </trkpt>
      <trkpt lat="41.684730" lon="0.990229">
        <ele>265.210</ele>
        <time>2021-08-19T11:33:38Z</time>
      </trkpt>
      <trkpt lat="41.684708" lon="0.990162">
        <ele>265.463</ele>
        <time>2021-08-19T11:33:40Z</time>
      </trkpt>
      <trkpt lat="41.684680" lon="0.990095">
        <ele>265.696</ele>
        <time>2021-08-19T11:33:42Z</time>
      </trkpt>
      <trkpt lat="41.684656" lon="0.990039">
        <ele>265.777</ele>
        <time>2021-08-19T11:33:44Z</time>
      </trkpt>
      <trkpt lat="41.684631" lon="0.989978">
        <ele>265.794</ele>
        <time>2021-08-19T11:33:46Z</time>
      </trkpt>
      <trkpt lat="41.684610" lon="0.989915">
        <ele>265.772</ele>
        <time>2021-08-19T11:33:48Z</time>
      </trkpt>
      <trkpt lat="41.684582" lon="0.989843">
        <ele>265.851</ele>
        <time>2021-08-19T11:33:50Z</time>
      </trkpt>
      <trkpt lat="41.684549" lon="0.989783">
        <ele>265.990</ele>
        <time>2021-08-19T11:33:52Z</time>
      </trkpt>
      <trkpt lat="41.684522" lon="0.989726">
        <ele>266.059</ele>
        <time>2021-08-19T11:33:54Z</time>
      </trkpt>
      <trkpt lat="41.684494" lon="0.989676">
        <ele>266.003</ele>
        <time>2021-08-19T11:33:56Z</time>
      </trkpt>
      <trkpt lat="41.684459" lon="0.989618">
        <ele>266.023</ele>
        <time>2021-08-19T11:33:58Z</time>
      </trkpt>
      <trkpt lat="41.684422" lon="0.989534">
        <ele>266.008</ele>
        <time>2021-08-19T11:34:01Z</time>
      </trkpt>
      <trkpt lat="41.684391" lon="0.989464">
        <ele>266.023</ele>
        <time>2021-08-19T11:34:04Z</time>
      </trkpt>
      <trkpt lat="41.684358" lon="0.989406">
        <ele>266.026</ele>
        <time>2021-08-19T11:34:06Z</time>
      </trkpt>
      <trkpt lat="41.684332" lon="0.989347">
        <ele>265.979</ele>
        <time>2021-08-19T11:34:08Z</time>
      </trkpt>
      <trkpt lat="41.684302" lon="0.989293">
        <ele>265.740</ele>
        <time>2021-08-19T11:34:10Z</time>
      </trkpt>
      <trkpt lat="41.684273" lon="0.989231">
        <ele>265.587</ele>
        <time>2021-08-19T11:34:12Z</time>
      </trkpt>
      <trkpt lat="41.684245" lon="0.989170">
        <ele>265.325</ele>
        <time>2021-08-19T11:34:14Z</time>
      </trkpt>
      <trkpt lat="41.684213" lon="0.989113">
        <ele>265.194</ele>
        <time>2021-08-19T11:34:16Z</time>
      </trkpt>
      <trkpt lat="41.684183" lon="0.989057">
        <ele>265.043</ele>
        <time>2021-08-19T11:34:18Z</time>
      </trkpt>
      <trkpt lat="41.684156" lon="0.988999">
        <ele>265.061</ele>
        <time>2021-08-19T11:34:20Z</time>
      </trkpt>
      <trkpt lat="41.684126" lon="0.988939">
        <ele>264.921</ele>
        <time>2021-08-19T11:34:22Z</time>
      </trkpt>
      <trkpt lat="41.684098" lon="0.988881">
        <ele>264.713</ele>
        <time>2021-08-19T11:34:24Z</time>
      </trkpt>
      <trkpt lat="41.684067" lon="0.988829">
        <ele>264.508</ele>
        <time>2021-08-19T11:34:26Z</time>
      </trkpt>
      <trkpt lat="41.684034" lon="0.988774">
        <ele>264.374</ele>
        <time>2021-08-19T11:34:28Z</time>
      </trkpt>
      <trkpt lat="41.684000" lon="0.988714">
        <ele>264.197</ele>
        <time>2021-08-19T11:34:30Z</time>
      </trkpt>
      <trkpt lat="41.683963" lon="0.988657">
        <ele>264.030</ele>
        <time>2021-08-19T11:34:32Z</time>
      </trkpt>
      <trkpt lat="41.683918" lon="0.988593">
        <ele>264.051</ele>
        <time>2021-08-19T11:34:35Z</time>
      </trkpt>
      <trkpt lat="41.683871" lon="0.988521">
        <ele>264.158</ele>
        <time>2021-08-19T11:34:37Z</time>
      </trkpt>
      <trkpt lat="41.683834" lon="0.988458">
        <ele>264.336</ele>
        <time>2021-08-19T11:34:39Z</time>
      </trkpt>
      <trkpt lat="41.683795" lon="0.988400">
        <ele>264.655</ele>
        <time>2021-08-19T11:34:41Z</time>
      </trkpt>
      <trkpt lat="41.683766" lon="0.988340">
        <ele>264.974</ele>
        <time>2021-08-19T11:34:43Z</time>
      </trkpt>
      <trkpt lat="41.683730" lon="0.988289">
        <ele>265.244</ele>
        <time>2021-08-19T11:34:45Z</time>
      </trkpt>
      <trkpt lat="41.683699" lon="0.988225">
        <ele>265.505</ele>
        <time>2021-08-19T11:34:47Z</time>
      </trkpt>
      <trkpt lat="41.683666" lon="0.988169">
        <ele>265.715</ele>
        <time>2021-08-19T11:34:49Z</time>
      </trkpt>
      <trkpt lat="41.683641" lon="0.988107">
        <ele>265.908</ele>
        <time>2021-08-19T11:34:51Z</time>
      </trkpt>
      <trkpt lat="41.683606" lon="0.988036">
        <ele>266.192</ele>
        <time>2021-08-19T11:34:54Z</time>
      </trkpt>
      <trkpt lat="41.683575" lon="0.987989">
        <ele>266.475</ele>
        <time>2021-08-19T11:34:56Z</time>
      </trkpt>
      <trkpt lat="41.683545" lon="0.987926">
        <ele>266.828</ele>
        <time>2021-08-19T11:34:58Z</time>
      </trkpt>
      <trkpt lat="41.683527" lon="0.987851">
        <ele>267.269</ele>
        <time>2021-08-19T11:35:00Z</time>
      </trkpt>
      <trkpt lat="41.683493" lon="0.987790">
        <ele>267.546</ele>
        <time>2021-08-19T11:35:02Z</time>
      </trkpt>
      <trkpt lat="41.683464" lon="0.987738">
        <ele>267.614</ele>
        <time>2021-08-19T11:35:04Z</time>
      </trkpt>
      <trkpt lat="41.683427" lon="0.987659">
        <ele>267.823</ele>
        <time>2021-08-19T11:35:06Z</time>
      </trkpt>
      <trkpt lat="41.683395" lon="0.987597">
        <ele>267.992</ele>
        <time>2021-08-19T11:35:08Z</time>
      </trkpt>
      <trkpt lat="41.683363" lon="0.987548">
        <ele>267.989</ele>
        <time>2021-08-19T11:35:10Z</time>
      </trkpt>
      <trkpt lat="41.683319" lon="0.987492">
        <ele>267.906</ele>
        <time>2021-08-19T11:35:13Z</time>
      </trkpt>
      <trkpt lat="41.683294" lon="0.987429">
        <ele>267.826</ele>
        <time>2021-08-19T11:35:16Z</time>
      </trkpt>
      <trkpt lat="41.683288" lon="0.987358">
        <ele>267.808</ele>
        <time>2021-08-19T11:35:26Z</time>
      </trkpt>
      <trkpt lat="41.683292" lon="0.987283">
        <ele>267.896</ele>
        <time>2021-08-19T11:35:29Z</time>
      </trkpt>
      <trkpt lat="41.683302" lon="0.987204">
        <ele>267.949</ele>
        <time>2021-08-19T11:35:32Z</time>
      </trkpt>
      <trkpt lat="41.683263" lon="0.987119">
        <ele>267.872</ele>
        <time>2021-08-19T11:35:36Z</time>
      </trkpt>
      <trkpt lat="41.683217" lon="0.987057">
        <ele>267.873</ele>
        <time>2021-08-19T11:35:38Z</time>
      </trkpt>
      <trkpt lat="41.683180" lon="0.987012">
        <ele>267.960</ele>
        <time>2021-08-19T11:35:40Z</time>
      </trkpt>
      <trkpt lat="41.683144" lon="0.986975">
        <ele>267.978</ele>
        <time>2021-08-19T11:35:51Z</time>
      </trkpt>
      <trkpt lat="41.683131" lon="0.986917">
        <ele>268.057</ele>
        <time>2021-08-19T11:35:57Z</time>
      </trkpt>
      <trkpt lat="41.683129" lon="0.986857">
        <ele>268.016</ele>
        <time>2021-08-19T11:37:37Z</time>
      </trkpt>
      <trkpt lat="41.683118" lon="0.986798">
        <ele>268.088</ele>
        <time>2021-08-19T11:39:36Z</time>
      </trkpt>
      <trkpt lat="41.683140" lon="0.986723">
        <ele>268.024</ele>
        <time>2021-08-19T11:39:39Z</time>
      </trkpt>
      <trkpt lat="41.683154" lon="0.986649">
        <ele>268.026</ele>
        <time>2021-08-19T11:39:42Z</time>
      </trkpt>
      <trkpt lat="41.683168" lon="0.986589">
        <ele>268.008</ele>
        <time>2021-08-19T11:39:44Z</time>
      </trkpt>
      <trkpt lat="41.683187" lon="0.986525">
        <ele>268.036</ele>
        <time>2021-08-19T11:39:46Z</time>
      </trkpt>
      <trkpt lat="41.683204" lon="0.986461">
        <ele>268.069</ele>
        <time>2021-08-19T11:39:48Z</time>
      </trkpt>
      <trkpt lat="41.683229" lon="0.986382">
        <ele>268.072</ele>
        <time>2021-08-19T11:39:50Z</time>
      </trkpt>
      <trkpt lat="41.683248" lon="0.986304">
        <ele>267.843</ele>
        <time>2021-08-19T11:39:52Z</time>
      </trkpt>
      <trkpt lat="41.683257" lon="0.986225">
        <ele>267.690</ele>
        <time>2021-08-19T11:39:54Z</time>
      </trkpt>
      <trkpt lat="41.683272" lon="0.986147">
        <ele>267.328</ele>
        <time>2021-08-19T11:39:56Z</time>
      </trkpt>
      <trkpt lat="41.683286" lon="0.986070">
        <ele>267.057</ele>
        <time>2021-08-19T11:39:58Z</time>
      </trkpt>
      <trkpt lat="41.683302" lon="0.985991">
        <ele>266.756</ele>
        <time>2021-08-19T11:40:00Z</time>
      </trkpt>
      <trkpt lat="41.683320" lon="0.985913">
        <ele>266.355</ele>
        <time>2021-08-19T11:40:02Z</time>
      </trkpt>
      <trkpt lat="41.683331" lon="0.985833">
        <ele>266.007</ele>
        <time>2021-08-19T11:40:04Z</time>
      </trkpt>
      <trkpt lat="41.683344" lon="0.985760">
        <ele>266.017</ele>
        <time>2021-08-19T11:40:06Z</time>
      </trkpt>
      <trkpt lat="41.683358" lon="0.985685">
        <ele>266.008</ele>
        <time>2021-08-19T11:40:08Z</time>
      </trkpt>
      <trkpt lat="41.683377" lon="0.985609">
        <ele>266.023</ele>
        <time>2021-08-19T11:40:10Z</time>
      </trkpt>
      <trkpt lat="41.683390" lon="0.985533">
        <ele>266.166</ele>
        <time>2021-08-19T11:40:12Z</time>
      </trkpt>
      <trkpt lat="41.683401" lon="0.985457">
        <ele>266.349</ele>
        <time>2021-08-19T11:40:14Z</time>
      </trkpt>
      <trkpt lat="41.683408" lon="0.985384">
        <ele>266.550</ele>
        <time>2021-08-19T11:40:16Z</time>
      </trkpt>
      <trkpt lat="41.683419" lon="0.985323">
        <ele>266.687</ele>
        <time>2021-08-19T11:40:18Z</time>
      </trkpt>
      <trkpt lat="41.683416" lon="0.985261">
        <ele>266.725</ele>
        <time>2021-08-19T11:40:51Z</time>
      </trkpt>
      <trkpt lat="41.683422" lon="0.985188">
        <ele>266.644</ele>
        <time>2021-08-19T11:40:54Z</time>
      </trkpt>
      <trkpt lat="41.683428" lon="0.985122">
        <ele>266.533</ele>
        <time>2021-08-19T11:40:56Z</time>
      </trkpt>
      <trkpt lat="41.683429" lon="0.985059">
        <ele>266.488</ele>
        <time>2021-08-19T11:40:58Z</time>
      </trkpt>
      <trkpt lat="41.683398" lon="0.985008">
        <ele>266.524</ele>
        <time>2021-08-19T11:41:01Z</time>
      </trkpt>
      <trkpt lat="41.683335" lon="0.985014">
        <ele>267.026</ele>
        <time>2021-08-19T11:41:06Z</time>
      </trkpt>
      <trkpt lat="41.683290" lon="0.985005">
        <ele>267.008</ele>
        <time>2021-08-19T11:41:08Z</time>
      </trkpt>
      <trkpt lat="41.683244" lon="0.984986">
        <ele>266.926</ele>
        <time>2021-08-19T11:41:11Z</time>
      </trkpt>
      <trkpt lat="41.683199" lon="0.984977">
        <ele>266.939</ele>
        <time>2021-08-19T11:41:13Z</time>
      </trkpt>
      <trkpt lat="41.683155" lon="0.984963">
        <ele>266.972</ele>
        <time>2021-08-19T11:41:16Z</time>
      </trkpt>
      <trkpt lat="41.683122" lon="0.984905">
        <ele>266.783</ele>
        <time>2021-08-19T11:41:20Z</time>
      </trkpt>
      <trkpt lat="41.683139" lon="0.984836">
        <ele>266.450</ele>
        <time>2021-08-19T11:41:24Z</time>
      </trkpt>
      <trkpt lat="41.683147" lon="0.984767">
        <ele>266.278</ele>
        <time>2021-08-19T11:41:26Z</time>
      </trkpt>
      <trkpt lat="41.683156" lon="0.984707">
        <ele>265.987</ele>
        <time>2021-08-19T11:41:28Z</time>
      </trkpt>
      <trkpt lat="41.683168" lon="0.984605">
        <ele>265.666</ele>
        <time>2021-08-19T11:41:31Z</time>
      </trkpt>
      <trkpt lat="41.683175" lon="0.984536">
        <ele>265.369</ele>
        <time>2021-08-19T11:41:33Z</time>
      </trkpt>
      <trkpt lat="41.683186" lon="0.984457">
        <ele>265.004</ele>
        <time>2021-08-19T11:41:35Z</time>
      </trkpt>
      <trkpt lat="41.683194" lon="0.984373">
        <ele>264.724</ele>
        <time>2021-08-19T11:41:37Z</time>
      </trkpt>
      <trkpt lat="41.683201" lon="0.984311">
        <ele>264.508</ele>
        <time>2021-08-19T11:41:38Z</time>
      </trkpt>
      <trkpt lat="41.683206" lon="0.984249">
        <ele>264.364</ele>
        <time>2021-08-19T11:41:40Z</time>
      </trkpt>
      <trkpt lat="41.683210" lon="0.984183">
        <ele>264.147</ele>
        <time>2021-08-19T11:41:41Z</time>
      </trkpt>
      <trkpt lat="41.683215" lon="0.984105">
        <ele>263.840</ele>
        <time>2021-08-19T11:41:43Z</time>
      </trkpt>
      <trkpt lat="41.683224" lon="0.984032">
        <ele>263.541</ele>
        <time>2021-08-19T11:41:45Z</time>
      </trkpt>
      <trkpt lat="41.683230" lon="0.983965">
        <ele>263.358</ele>
        <time>2021-08-19T11:41:48Z</time>
      </trkpt>
      <trkpt lat="41.683207" lon="0.983895">
        <ele>263.036</ele>
        <time>2021-08-19T11:41:52Z</time>
      </trkpt>
      <trkpt lat="41.683160" lon="0.983879">
        <ele>263.015</ele>
        <time>2021-08-19T11:41:54Z</time>
      </trkpt>
      <trkpt lat="41.683110" lon="0.983864">
        <ele>262.984</ele>
        <time>2021-08-19T11:41:56Z</time>
      </trkpt>
      <trkpt lat="41.683061" lon="0.983844">
        <ele>262.871</ele>
        <time>2021-08-19T11:41:58Z</time>
      </trkpt>
      <trkpt lat="41.683003" lon="0.983823">
        <ele>262.641</ele>
        <time>2021-08-19T11:42:00Z</time>
      </trkpt>
      <trkpt lat="41.682955" lon="0.983810">
        <ele>262.415</ele>
        <time>2021-08-19T11:42:02Z</time>
      </trkpt>
      <trkpt lat="41.682904" lon="0.983799">
        <ele>262.108</ele>
        <time>2021-08-19T11:42:11Z</time>
      </trkpt>
      <trkpt lat="41.682861" lon="0.983780">
        <ele>261.985</ele>
        <time>2021-08-19T11:42:13Z</time>
      </trkpt>
      <trkpt lat="41.682802" lon="0.983747">
        <ele>261.638</ele>
        <time>2021-08-19T11:42:15Z</time>
      </trkpt>
      <trkpt lat="41.682730" lon="0.983721">
        <ele>261.471</ele>
        <time>2021-08-19T11:42:17Z</time>
      </trkpt>
      <trkpt lat="41.682651" lon="0.983689">
        <ele>261.592</ele>
        <time>2021-08-19T11:42:19Z</time>
      </trkpt>
      <trkpt lat="41.682574" lon="0.983647">
        <ele>261.729</ele>
        <time>2021-08-19T11:42:21Z</time>
      </trkpt>
      <trkpt lat="41.682505" lon="0.983607">
        <ele>262.067</ele>
        <time>2021-08-19T11:42:23Z</time>
      </trkpt>
      <trkpt lat="41.682443" lon="0.983570">
        <ele>262.256</ele>
        <time>2021-08-19T11:42:25Z</time>
      </trkpt>
      <trkpt lat="41.682385" lon="0.983532">
        <ele>262.425</ele>
        <time>2021-08-19T11:42:27Z</time>
      </trkpt>
      <trkpt lat="41.682325" lon="0.983486">
        <ele>262.674</ele>
        <time>2021-08-19T11:42:29Z</time>
      </trkpt>
      <trkpt lat="41.682258" lon="0.983443">
        <ele>262.956</ele>
        <time>2021-08-19T11:42:31Z</time>
      </trkpt>
      <trkpt lat="41.682191" lon="0.983397">
        <ele>262.921</ele>
        <time>2021-08-19T11:42:33Z</time>
      </trkpt>
      <trkpt lat="41.682133" lon="0.983361">
        <ele>262.708</ele>
        <time>2021-08-19T11:42:35Z</time>
      </trkpt>
      <trkpt lat="41.682063" lon="0.983319">
        <ele>262.475</ele>
        <time>2021-08-19T11:42:37Z</time>
      </trkpt>
      <trkpt lat="41.681998" lon="0.983281">
        <ele>262.258</ele>
        <time>2021-08-19T11:42:39Z</time>
      </trkpt>
      <trkpt lat="41.681937" lon="0.983253">
        <ele>262.011</ele>
        <time>2021-08-19T11:42:41Z</time>
      </trkpt>
      <trkpt lat="41.681891" lon="0.983232">
        <ele>262.352</ele>
        <time>2021-08-19T11:42:43Z</time>
      </trkpt>
      <trkpt lat="41.681833" lon="0.983193">
        <ele>262.659</ele>
        <time>2021-08-19T11:42:45Z</time>
      </trkpt>
      <trkpt lat="41.681780" lon="0.983157">
        <ele>263.067</ele>
        <time>2021-08-19T11:42:47Z</time>
      </trkpt>
      <trkpt lat="41.681732" lon="0.983132">
        <ele>263.356</ele>
        <time>2021-08-19T11:42:49Z</time>
      </trkpt>
      <trkpt lat="41.681679" lon="0.983106">
        <ele>263.775</ele>
        <time>2021-08-19T11:42:51Z</time>
      </trkpt>
      <trkpt lat="41.681635" lon="0.983079">
        <ele>264.028</ele>
        <time>2021-08-19T11:42:53Z</time>
      </trkpt>
      <trkpt lat="41.681599" lon="0.983042">
        <ele>264.389</ele>
        <time>2021-08-19T11:42:55Z</time>
      </trkpt>
      <trkpt lat="41.681592" lon="0.982967">
        <ele>264.617</ele>
        <time>2021-08-19T11:42:58Z</time>
      </trkpt>
      <trkpt lat="41.681614" lon="0.982904">
        <ele>264.708</ele>
        <time>2021-08-19T11:43:01Z</time>
      </trkpt>
      <trkpt lat="41.681640" lon="0.982823">
        <ele>264.910</ele>
        <time>2021-08-19T11:43:04Z</time>
      </trkpt>
      <trkpt lat="41.681667" lon="0.982765">
        <ele>265.173</ele>
        <time>2021-08-19T11:43:06Z</time>
      </trkpt>
      <trkpt lat="41.681689" lon="0.982702">
        <ele>265.526</ele>
        <time>2021-08-19T11:43:08Z</time>
      </trkpt>
      <trkpt lat="41.681709" lon="0.982636">
        <ele>265.977</ele>
        <time>2021-08-19T11:43:10Z</time>
      </trkpt>
      <trkpt lat="41.681736" lon="0.982581">
        <ele>266.244</ele>
        <time>2021-08-19T11:43:12Z</time>
      </trkpt>
      <trkpt lat="41.681759" lon="0.982519">
        <ele>266.512</ele>
        <time>2021-08-19T11:43:14Z</time>
      </trkpt>
      <trkpt lat="41.681778" lon="0.982457">
        <ele>266.761</ele>
        <time>2021-08-19T11:43:16Z</time>
      </trkpt>
      <trkpt lat="41.681800" lon="0.982394">
        <ele>266.750</ele>
        <time>2021-08-19T11:43:18Z</time>
      </trkpt>
      <trkpt lat="41.681820" lon="0.982329">
        <ele>266.857</ele>
        <time>2021-08-19T11:43:20Z</time>
      </trkpt>
      <trkpt lat="41.681841" lon="0.982266">
        <ele>266.900</ele>
        <time>2021-08-19T11:43:22Z</time>
      </trkpt>
      <trkpt lat="41.681864" lon="0.982204">
        <ele>267.020</ele>
        <time>2021-08-19T11:43:24Z</time>
      </trkpt>
      <trkpt lat="41.681888" lon="0.982130">
        <ele>267.008</ele>
        <time>2021-08-19T11:43:26Z</time>
      </trkpt>
      <trkpt lat="41.681910" lon="0.982063">
        <ele>267.023</ele>
        <time>2021-08-19T11:43:28Z</time>
      </trkpt>
      <trkpt lat="41.681924" lon="0.981998">
        <ele>267.086</ele>
        <time>2021-08-19T11:43:30Z</time>
      </trkpt>
      <trkpt lat="41.681948" lon="0.981914">
        <ele>267.079</ele>
        <time>2021-08-19T11:43:33Z</time>
      </trkpt>
      <trkpt lat="41.681961" lon="0.981849">
        <ele>267.090</ele>
        <time>2021-08-19T11:43:35Z</time>
      </trkpt>
      <trkpt lat="41.681969" lon="0.981784">
        <ele>267.037</ele>
        <time>2021-08-19T11:43:37Z</time>
      </trkpt>
      <trkpt lat="41.681975" lon="0.981694">
        <ele>267.025</ele>
        <time>2021-08-19T11:43:40Z</time>
      </trkpt>
      <trkpt lat="41.681974" lon="0.981619">
        <ele>267.034</ele>
        <time>2021-08-19T11:43:42Z</time>
      </trkpt>
      <trkpt lat="41.681971" lon="0.981544">
        <ele>267.053</ele>
        <time>2021-08-19T11:43:44Z</time>
      </trkpt>
      <trkpt lat="41.681963" lon="0.981467">
        <ele>267.075</ele>
        <time>2021-08-19T11:43:46Z</time>
      </trkpt>
      <trkpt lat="41.681955" lon="0.981387">
        <ele>267.028</ele>
        <time>2021-08-19T11:43:48Z</time>
      </trkpt>
      <trkpt lat="41.681950" lon="0.981302">
        <ele>267.320</ele>
        <time>2021-08-19T11:43:50Z</time>
      </trkpt>
      <trkpt lat="41.681940" lon="0.981218">
        <ele>267.608</ele>
        <time>2021-08-19T11:43:52Z</time>
      </trkpt>
      <trkpt lat="41.681932" lon="0.981135">
        <ele>267.955</ele>
        <time>2021-08-19T11:43:54Z</time>
      </trkpt>
      <trkpt lat="41.681928" lon="0.981051">
        <ele>267.928</ele>
        <time>2021-08-19T11:43:56Z</time>
      </trkpt>
      <trkpt lat="41.681922" lon="0.980967">
        <ele>267.981</ele>
        <time>2021-08-19T11:43:58Z</time>
      </trkpt>
      <trkpt lat="41.681926" lon="0.980894">
        <ele>267.922</ele>
        <time>2021-08-19T11:44:00Z</time>
      </trkpt>
      <trkpt lat="41.681921" lon="0.980793">
        <ele>267.849</ele>
        <time>2021-08-19T11:44:03Z</time>
      </trkpt>
      <trkpt lat="41.681921" lon="0.980714">
        <ele>267.517</ele>
        <time>2021-08-19T11:44:05Z</time>
      </trkpt>
      <trkpt lat="41.681924" lon="0.980647">
        <ele>267.316</ele>
        <time>2021-08-19T11:44:07Z</time>
      </trkpt>
      <trkpt lat="41.681923" lon="0.980563">
        <ele>267.095</ele>
        <time>2021-08-19T11:44:09Z</time>
      </trkpt>
      <trkpt lat="41.681923" lon="0.980480">
        <ele>266.752</ele>
        <time>2021-08-19T11:44:11Z</time>
      </trkpt>
      <trkpt lat="41.681922" lon="0.980397">
        <ele>266.453</ele>
        <time>2021-08-19T11:44:13Z</time>
      </trkpt>
      <trkpt lat="41.681929" lon="0.980314">
        <ele>266.108</ele>
        <time>2021-08-19T11:44:15Z</time>
      </trkpt>
      <trkpt lat="41.681950" lon="0.980241">
        <ele>266.008</ele>
        <time>2021-08-19T11:44:17Z</time>
      </trkpt>
      <trkpt lat="41.681968" lon="0.980161">
        <ele>266.023</ele>
        <time>2021-08-19T11:44:19Z</time>
      </trkpt>
      <trkpt lat="41.681989" lon="0.980084">
        <ele>266.016</ele>
        <time>2021-08-19T11:44:21Z</time>
      </trkpt>
      <trkpt lat="41.682009" lon="0.980008">
        <ele>266.019</ele>
        <time>2021-08-19T11:44:23Z</time>
      </trkpt>
      <trkpt lat="41.682024" lon="0.979942">
        <ele>266.130</ele>
        <time>2021-08-19T11:44:25Z</time>
      </trkpt>
      <trkpt lat="41.682048" lon="0.979880">
        <ele>266.227</ele>
        <time>2021-08-19T11:44:27Z</time>
      </trkpt>
      <trkpt lat="41.682068" lon="0.979816">
        <ele>266.375</ele>
        <time>2021-08-19T11:44:29Z</time>
      </trkpt>
      <trkpt lat="41.682099" lon="0.979740">
        <ele>266.544</ele>
        <time>2021-08-19T11:44:32Z</time>
      </trkpt>
      <trkpt lat="41.682124" lon="0.979679">
        <ele>266.513</ele>
        <time>2021-08-19T11:44:35Z</time>
      </trkpt>
      <trkpt lat="41.682152" lon="0.979616">
        <ele>266.491</ele>
        <time>2021-08-19T11:45:07Z</time>
      </trkpt>
      <trkpt lat="41.682182" lon="0.979541">
        <ele>266.281</ele>
        <time>2021-08-19T11:45:10Z</time>
      </trkpt>
      <trkpt lat="41.682197" lon="0.979484">
        <ele>266.119</ele>
        <time>2021-08-19T11:45:12Z</time>
      </trkpt>
      <trkpt lat="41.682213" lon="0.979418">
        <ele>265.908</ele>
        <time>2021-08-19T11:45:14Z</time>
      </trkpt>
      <trkpt lat="41.682233" lon="0.979349">
        <ele>265.747</ele>
        <time>2021-08-19T11:45:16Z</time>
      </trkpt>
      <trkpt lat="41.682251" lon="0.979284">
        <ele>265.560</ele>
        <time>2021-08-19T11:45:18Z</time>
      </trkpt>
      <trkpt lat="41.682268" lon="0.979217">
        <ele>265.323</ele>
        <time>2021-08-19T11:45:20Z</time>
      </trkpt>
      <trkpt lat="41.682284" lon="0.979151">
        <ele>265.154</ele>
        <time>2021-08-19T11:45:22Z</time>
      </trkpt>
      <trkpt lat="41.682302" lon="0.979078">
        <ele>264.641</ele>
        <time>2021-08-19T11:45:24Z</time>
      </trkpt>
      <trkpt lat="41.682326" lon="0.979000">
        <ele>264.239</ele>
        <time>2021-08-19T11:45:26Z</time>
      </trkpt>
      <trkpt lat="41.682345" lon="0.978925">
        <ele>263.748</ele>
        <time>2021-08-19T11:45:28Z</time>
      </trkpt>
      <trkpt lat="41.682370" lon="0.978858">
        <ele>263.537</ele>
        <time>2021-08-19T11:45:30Z</time>
      </trkpt>
      <trkpt lat="41.682409" lon="0.978780">
        <ele>263.479</ele>
        <time>2021-08-19T11:45:33Z</time>
      </trkpt>
      <trkpt lat="41.682442" lon="0.978693">
        <ele>263.205</ele>
        <time>2021-08-19T11:45:35Z</time>
      </trkpt>
      <trkpt lat="41.682470" lon="0.978620">
        <ele>263.025</ele>
        <time>2021-08-19T11:45:37Z</time>
      </trkpt>
      <trkpt lat="41.682506" lon="0.978536">
        <ele>263.008</ele>
        <time>2021-08-19T11:45:39Z</time>
      </trkpt>
      <trkpt lat="41.682539" lon="0.978460">
        <ele>263.145</ele>
        <time>2021-08-19T11:45:41Z</time>
      </trkpt>
      <trkpt lat="41.682575" lon="0.978410">
        <ele>263.158</ele>
        <time>2021-08-19T11:45:43Z</time>
      </trkpt>
      <trkpt lat="41.682615" lon="0.978331">
        <ele>263.041</ele>
        <time>2021-08-19T11:45:45Z</time>
      </trkpt>
      <trkpt lat="41.682642" lon="0.978249">
        <ele>263.142</ele>
        <time>2021-08-19T11:45:47Z</time>
      </trkpt>
      <trkpt lat="41.682658" lon="0.978182">
        <ele>263.219</ele>
        <time>2021-08-19T11:45:49Z</time>
      </trkpt>
      <trkpt lat="41.682686" lon="0.978119">
        <ele>263.337</ele>
        <time>2021-08-19T11:45:51Z</time>
      </trkpt>
      <trkpt lat="41.682708" lon="0.978047">
        <ele>263.396</ele>
        <time>2021-08-19T11:45:53Z</time>
      </trkpt>
      <trkpt lat="41.682746" lon="0.977968">
        <ele>263.425</ele>
        <time>2021-08-19T11:45:55Z</time>
      </trkpt>
      <trkpt lat="41.682779" lon="0.977894">
        <ele>263.633</ele>
        <time>2021-08-19T11:45:57Z</time>
      </trkpt>
      <trkpt lat="41.682801" lon="0.977806">
        <ele>263.823</ele>
        <time>2021-08-19T11:45:59Z</time>
      </trkpt>
      <trkpt lat="41.682825" lon="0.977737">
        <ele>264.015</ele>
        <time>2021-08-19T11:46:01Z</time>
      </trkpt>
      <trkpt lat="41.682840" lon="0.977677">
        <ele>264.108</ele>
        <time>2021-08-19T11:46:02Z</time>
      </trkpt>
      <trkpt lat="41.682863" lon="0.977584">
        <ele>264.281</ele>
        <time>2021-08-19T11:46:04Z</time>
      </trkpt>
      <trkpt lat="41.682914" lon="0.977480">
        <ele>263.974</ele>
        <time>2021-08-19T11:46:06Z</time>
      </trkpt>
      <trkpt lat="41.682934" lon="0.977383">
        <ele>263.347</ele>
        <time>2021-08-19T11:46:08Z</time>
      </trkpt>
      <trkpt lat="41.682955" lon="0.977289">
        <ele>262.738</ele>
        <time>2021-08-19T11:46:10Z</time>
      </trkpt>
      <trkpt lat="41.682975" lon="0.977197">
        <ele>262.155</ele>
        <time>2021-08-19T11:46:12Z</time>
      </trkpt>
      <trkpt lat="41.682998" lon="0.977093">
        <ele>261.493</ele>
        <time>2021-08-19T11:46:14Z</time>
      </trkpt>
      <trkpt lat="41.683018" lon="0.977000">
        <ele>260.612</ele>
        <time>2021-08-19T11:46:16Z</time>
      </trkpt>
      <trkpt lat="41.683032" lon="0.976914">
        <ele>260.381</ele>
        <time>2021-08-19T11:46:18Z</time>
      </trkpt>
      <trkpt lat="41.683050" lon="0.976819">
        <ele>260.597</ele>
        <time>2021-08-19T11:46:20Z</time>
      </trkpt>
      <trkpt lat="41.683067" lon="0.976740">
        <ele>260.723</ele>
        <time>2021-08-19T11:46:22Z</time>
      </trkpt>
      <trkpt lat="41.683084" lon="0.976678">
        <ele>260.925</ele>
        <time>2021-08-19T11:46:23Z</time>
      </trkpt>
      <trkpt lat="41.683107" lon="0.976580">
        <ele>261.208</ele>
        <time>2021-08-19T11:46:25Z</time>
      </trkpt>
      <trkpt lat="41.683127" lon="0.976472">
        <ele>261.637</ele>
        <time>2021-08-19T11:46:27Z</time>
      </trkpt>
      <trkpt lat="41.683147" lon="0.976386">
        <ele>262.060</ele>
        <time>2021-08-19T11:46:29Z</time>
      </trkpt>
      <trkpt lat="41.683164" lon="0.976321">
        <ele>262.173</ele>
        <time>2021-08-19T11:46:30Z</time>
      </trkpt>
      <trkpt lat="41.683187" lon="0.976227">
        <ele>262.374</ele>
        <time>2021-08-19T11:46:32Z</time>
      </trkpt>
      <trkpt lat="41.683200" lon="0.976158">
        <ele>262.471</ele>
        <time>2021-08-19T11:46:34Z</time>
      </trkpt>
      <trkpt lat="41.683219" lon="0.976100">
        <ele>262.689</ele>
        <time>2021-08-19T11:46:38Z</time>
      </trkpt>
      <trkpt lat="41.683236" lon="0.976041">
        <ele>262.748</ele>
        <time>2021-08-19T11:46:43Z</time>
      </trkpt>
      <trkpt lat="41.683259" lon="0.975987">
        <ele>262.927</ele>
        <time>2021-08-19T11:46:48Z</time>
      </trkpt>
      <trkpt lat="41.683276" lon="0.975913">
        <ele>262.994</ele>
        <time>2021-08-19T11:46:52Z</time>
      </trkpt>
      <trkpt lat="41.683290" lon="0.975853">
        <ele>263.057</ele>
        <time>2021-08-19T11:46:55Z</time>
      </trkpt>
      <trkpt lat="41.683307" lon="0.975795">
        <ele>262.922</ele>
        <time>2021-08-19T11:46:58Z</time>
      </trkpt>
      <trkpt lat="41.683325" lon="0.975727">
        <ele>262.608</ele>
        <time>2021-08-19T11:47:02Z</time>
      </trkpt>
      <trkpt lat="41.683341" lon="0.975669">
        <ele>262.457</ele>
        <time>2021-08-19T11:47:06Z</time>
      </trkpt>
      <trkpt lat="41.683361" lon="0.975609">
        <ele>262.250</ele>
        <time>2021-08-19T11:47:10Z</time>
      </trkpt>
      <trkpt lat="41.683377" lon="0.975542">
        <ele>262.033</ele>
        <time>2021-08-19T11:47:14Z</time>
      </trkpt>
      <trkpt lat="41.683403" lon="0.975465">
        <ele>262.094</ele>
        <time>2021-08-19T11:47:42Z</time>
      </trkpt>
      <trkpt lat="41.683419" lon="0.975393">
        <ele>262.041</ele>
        <time>2021-08-19T11:47:44Z</time>
      </trkpt>
      <trkpt lat="41.683443" lon="0.975325">
        <ele>262.029</ele>
        <time>2021-08-19T11:47:46Z</time>
      </trkpt>
      <trkpt lat="41.683466" lon="0.975260">
        <ele>262.048</ele>
        <time>2021-08-19T11:47:48Z</time>
      </trkpt>
      <trkpt lat="41.683483" lon="0.975194">
        <ele>261.947</ele>
        <time>2021-08-19T11:47:50Z</time>
      </trkpt>
      <trkpt lat="41.683498" lon="0.975130">
        <ele>261.839</ele>
        <time>2021-08-19T11:47:52Z</time>
      </trkpt>
      <trkpt lat="41.683514" lon="0.975054">
        <ele>261.701</ele>
        <time>2021-08-19T11:47:54Z</time>
      </trkpt>
      <trkpt lat="41.683540" lon="0.974962">
        <ele>261.621</ele>
        <time>2021-08-19T11:47:57Z</time>
      </trkpt>
      <trkpt lat="41.683554" lon="0.974900">
        <ele>261.508</ele>
        <time>2021-08-19T11:47:59Z</time>
      </trkpt>
      <trkpt lat="41.683574" lon="0.974841">
        <ele>261.451</ele>
        <time>2021-08-19T11:48:01Z</time>
      </trkpt>
      <trkpt lat="41.683591" lon="0.974764">
        <ele>261.164</ele>
        <time>2021-08-19T11:48:04Z</time>
      </trkpt>
      <trkpt lat="41.683609" lon="0.974690">
        <ele>260.887</ele>
        <time>2021-08-19T11:48:07Z</time>
      </trkpt>
      <trkpt lat="41.683628" lon="0.974628">
        <ele>260.378</ele>
        <time>2021-08-19T11:48:10Z</time>
      </trkpt>
      <trkpt lat="41.683665" lon="0.974582">
        <ele>260.085</ele>
        <time>2021-08-19T11:48:13Z</time>
      </trkpt>
      <trkpt lat="41.683611" lon="0.974587">
        <ele>260.043</ele>
        <time>2021-08-19T11:48:32Z</time>
      </trkpt>
      <trkpt lat="41.683585" lon="0.974528">
        <ele>259.772</ele>
        <time>2021-08-19T11:48:35Z</time>
      </trkpt>
      <trkpt lat="41.683566" lon="0.974455">
        <ele>259.421</ele>
        <time>2021-08-19T11:48:37Z</time>
      </trkpt>
      <trkpt lat="41.683554" lon="0.974370">
        <ele>259.429</ele>
        <time>2021-08-19T11:48:39Z</time>
      </trkpt>
      <trkpt lat="41.683552" lon="0.974300">
        <ele>259.300</ele>
        <time>2021-08-19T11:48:41Z</time>
      </trkpt>
      <trkpt lat="41.683550" lon="0.974227">
        <ele>259.320</ele>
        <time>2021-08-19T11:48:42Z</time>
      </trkpt>
      <trkpt lat="41.683548" lon="0.974149">
        <ele>259.208</ele>
        <time>2021-08-19T11:48:44Z</time>
      </trkpt>
      <trkpt lat="41.683555" lon="0.974080">
        <ele>259.320</ele>
        <time>2021-08-19T11:48:46Z</time>
      </trkpt>
      <trkpt lat="41.683559" lon="0.974020">
        <ele>259.343</ele>
        <time>2021-08-19T11:48:48Z</time>
      </trkpt>
      <trkpt lat="41.683555" lon="0.973954">
        <ele>259.436</ele>
        <time>2021-08-19T11:48:50Z</time>
      </trkpt>
      <trkpt lat="41.683556" lon="0.973881">
        <ele>259.497</ele>
        <time>2021-08-19T11:48:52Z</time>
      </trkpt>
      <trkpt lat="41.683551" lon="0.973812">
        <ele>259.474</ele>
        <time>2021-08-19T11:48:54Z</time>
      </trkpt>
      <trkpt lat="41.683545" lon="0.973722">
        <ele>259.562</ele>
        <time>2021-08-19T11:48:56Z</time>
      </trkpt>
      <trkpt lat="41.683545" lon="0.973650">
        <ele>259.541</ele>
        <time>2021-08-19T11:48:58Z</time>
      </trkpt>
      <trkpt lat="41.683541" lon="0.973587">
        <ele>259.640</ele>
        <time>2021-08-19T11:49:00Z</time>
      </trkpt>
      <trkpt lat="41.683543" lon="0.973506">
        <ele>260.186</ele>
        <time>2021-08-19T11:49:02Z</time>
      </trkpt>
      <trkpt lat="41.683538" lon="0.973429">
        <ele>260.560</ele>
        <time>2021-08-19T11:49:04Z</time>
      </trkpt>
      <trkpt lat="41.683544" lon="0.973350">
        <ele>260.926</ele>
        <time>2021-08-19T11:49:06Z</time>
      </trkpt>
      <trkpt lat="41.683541" lon="0.973277">
        <ele>261.208</ele>
        <time>2021-08-19T11:49:09Z</time>
      </trkpt>
      <trkpt lat="41.683547" lon="0.973212">
        <ele>261.416</ele>
        <time>2021-08-19T11:49:10Z</time>
      </trkpt>
      <trkpt lat="41.683548" lon="0.973141">
        <ele>261.769</ele>
        <time>2021-08-19T11:49:12Z</time>
      </trkpt>
      <trkpt lat="41.683544" lon="0.973064">
        <ele>262.032</ele>
        <time>2021-08-19T11:49:14Z</time>
      </trkpt>
      <trkpt lat="41.683544" lon="0.972987">
        <ele>262.183</ele>
        <time>2021-08-19T11:49:16Z</time>
      </trkpt>
      <trkpt lat="41.683544" lon="0.972919">
        <ele>262.180</ele>
        <time>2021-08-19T11:49:18Z</time>
      </trkpt>
      <trkpt lat="41.683543" lon="0.972846">
        <ele>262.278</ele>
        <time>2021-08-19T11:49:20Z</time>
      </trkpt>
      <trkpt lat="41.683542" lon="0.972784">
        <ele>262.217</ele>
        <time>2021-08-19T11:49:21Z</time>
      </trkpt>
      <trkpt lat="41.683540" lon="0.972718">
        <ele>262.156</ele>
        <time>2021-08-19T11:49:23Z</time>
      </trkpt>
      <trkpt lat="41.683540" lon="0.972644">
        <ele>261.997</ele>
        <time>2021-08-19T11:49:25Z</time>
      </trkpt>
      <trkpt lat="41.683532" lon="0.972552">
        <ele>261.723</ele>
        <time>2021-08-19T11:49:27Z</time>
      </trkpt>
      <trkpt lat="41.683528" lon="0.972464">
        <ele>261.425</ele>
        <time>2021-08-19T11:49:29Z</time>
      </trkpt>
      <trkpt lat="41.683521" lon="0.972391">
        <ele>261.008</ele>
        <time>2021-08-19T11:49:31Z</time>
      </trkpt>
      <trkpt lat="41.683527" lon="0.972324">
        <ele>260.557</ele>
        <time>2021-08-19T11:49:33Z</time>
      </trkpt>
      <trkpt lat="41.683520" lon="0.972252">
        <ele>260.220</ele>
        <time>2021-08-19T11:49:35Z</time>
      </trkpt>
      <trkpt lat="41.683515" lon="0.972183">
        <ele>260.073</ele>
        <time>2021-08-19T11:49:37Z</time>
      </trkpt>
      <trkpt lat="41.683508" lon="0.972111">
        <ele>260.034</ele>
        <time>2021-08-19T11:49:39Z</time>
      </trkpt>
      <trkpt lat="41.683505" lon="0.972043">
        <ele>259.981</ele>
        <time>2021-08-19T11:49:41Z</time>
      </trkpt>
      <trkpt lat="41.683494" lon="0.971973">
        <ele>259.939</ele>
        <time>2021-08-19T11:49:43Z</time>
      </trkpt>
      <trkpt lat="41.683485" lon="0.971894">
        <ele>260.048</ele>
        <time>2021-08-19T11:49:45Z</time>
      </trkpt>
      <trkpt lat="41.683477" lon="0.971814">
        <ele>260.297</ele>
        <time>2021-08-19T11:49:47Z</time>
      </trkpt>
      <trkpt lat="41.683470" lon="0.971753">
        <ele>260.414</ele>
        <time>2021-08-19T11:49:49Z</time>
      </trkpt>
      <trkpt lat="41.683452" lon="0.971668">
        <ele>260.654</ele>
        <time>2021-08-19T11:49:51Z</time>
      </trkpt>
      <trkpt lat="41.683448" lon="0.971595">
        <ele>260.609</ele>
        <time>2021-08-19T11:49:53Z</time>
      </trkpt>
      <trkpt lat="41.683438" lon="0.971508">
        <ele>260.608</ele>
        <time>2021-08-19T11:49:55Z</time>
      </trkpt>
      <trkpt lat="41.683427" lon="0.971423">
        <ele>260.759</ele>
        <time>2021-08-19T11:49:57Z</time>
      </trkpt>
      <trkpt lat="41.683422" lon="0.971339">
        <ele>260.962</ele>
        <time>2021-08-19T11:49:59Z</time>
      </trkpt>
      <trkpt lat="41.683408" lon="0.971263">
        <ele>261.255</ele>
        <time>2021-08-19T11:50:01Z</time>
      </trkpt>
      <trkpt lat="41.683404" lon="0.971182">
        <ele>261.586</ele>
        <time>2021-08-19T11:50:03Z</time>
      </trkpt>
      <trkpt lat="41.683399" lon="0.971092">
        <ele>261.863</ele>
        <time>2021-08-19T11:50:05Z</time>
      </trkpt>
      <trkpt lat="41.683394" lon="0.971010">
        <ele>261.831</ele>
        <time>2021-08-19T11:50:07Z</time>
      </trkpt>
      <trkpt lat="41.683400" lon="0.970936">
        <ele>261.830</ele>
        <time>2021-08-19T11:50:09Z</time>
      </trkpt>
      <trkpt lat="41.683399" lon="0.970860">
        <ele>261.889</ele>
        <time>2021-08-19T11:50:11Z</time>
      </trkpt>
      <trkpt lat="41.683402" lon="0.970785">
        <ele>261.594</ele>
        <time>2021-08-19T11:50:13Z</time>
      </trkpt>
      <trkpt lat="41.683405" lon="0.970715">
        <ele>261.257</ele>
        <time>2021-08-19T11:50:15Z</time>
      </trkpt>
      <trkpt lat="41.683410" lon="0.970633">
        <ele>260.822</ele>
        <time>2021-08-19T11:50:17Z</time>
      </trkpt>
      <trkpt lat="41.683418" lon="0.970555">
        <ele>260.408</ele>
        <time>2021-08-19T11:50:19Z</time>
      </trkpt>
      <trkpt lat="41.683424" lon="0.970495">
        <ele>259.997</ele>
        <time>2021-08-19T11:50:20Z</time>
      </trkpt>
      <trkpt lat="41.683427" lon="0.970433">
        <ele>259.470</ele>
        <time>2021-08-19T11:50:21Z</time>
      </trkpt>
      <trkpt lat="41.683442" lon="0.970322">
        <ele>258.723</ele>
        <time>2021-08-19T11:50:23Z</time>
      </trkpt>
      <trkpt lat="41.683454" lon="0.970231">
        <ele>258.244</ele>
        <time>2021-08-19T11:50:25Z</time>
      </trkpt>
      <trkpt lat="41.683462" lon="0.970138">
        <ele>257.791</ele>
        <time>2021-08-19T11:50:27Z</time>
      </trkpt>
      <trkpt lat="41.683461" lon="0.970042">
        <ele>257.219</ele>
        <time>2021-08-19T11:50:29Z</time>
      </trkpt>
      <trkpt lat="41.683446" lon="0.969951">
        <ele>256.668</ele>
        <time>2021-08-19T11:50:31Z</time>
      </trkpt>
      <trkpt lat="41.683421" lon="0.969853">
        <ele>256.177</ele>
        <time>2021-08-19T11:50:33Z</time>
      </trkpt>
      <trkpt lat="41.683380" lon="0.969736">
        <ele>255.495</ele>
        <time>2021-08-19T11:50:35Z</time>
      </trkpt>
      <trkpt lat="41.683360" lon="0.969679">
        <ele>255.049</ele>
        <time>2021-08-19T11:50:36Z</time>
      </trkpt>
      <trkpt lat="41.683340" lon="0.969623">
        <ele>254.723</ele>
        <time>2021-08-19T11:50:37Z</time>
      </trkpt>
      <trkpt lat="41.683304" lon="0.969514">
        <ele>254.208</ele>
        <time>2021-08-19T11:50:39Z</time>
      </trkpt>
      <trkpt lat="41.683262" lon="0.969401">
        <ele>253.727</ele>
        <time>2021-08-19T11:50:41Z</time>
      </trkpt>
      <trkpt lat="41.683219" lon="0.969292">
        <ele>253.410</ele>
        <time>2021-08-19T11:50:43Z</time>
      </trkpt>
      <trkpt lat="41.683174" lon="0.969185">
        <ele>252.963</ele>
        <time>2021-08-19T11:50:45Z</time>
      </trkpt>
      <trkpt lat="41.683140" lon="0.969100">
        <ele>252.194</ele>
        <time>2021-08-19T11:50:47Z</time>
      </trkpt>
      <trkpt lat="41.683112" lon="0.969051">
        <ele>251.621</ele>
        <time>2021-08-19T11:50:50Z</time>
      </trkpt>
      <trkpt lat="41.683091" lon="0.968969">
        <ele>250.849</ele>
        <time>2021-08-19T11:50:51Z</time>
      </trkpt>
      <trkpt lat="41.683070" lon="0.968876">
        <ele>250.048</ele>
        <time>2021-08-19T11:50:53Z</time>
      </trkpt>
      <trkpt lat="41.683061" lon="0.968777">
        <ele>249.267</ele>
        <time>2021-08-19T11:50:55Z</time>
      </trkpt>
      <trkpt lat="41.683083" lon="0.968666">
        <ele>248.693</ele>
        <time>2021-08-19T11:50:57Z</time>
      </trkpt>
      <trkpt lat="41.683097" lon="0.968605">
        <ele>248.365</ele>
        <time>2021-08-19T11:50:58Z</time>
      </trkpt>
      <trkpt lat="41.683127" lon="0.968503">
        <ele>248.021</ele>
        <time>2021-08-19T11:51:00Z</time>
      </trkpt>
      <trkpt lat="41.683142" lon="0.968379">
        <ele>247.508</ele>
        <time>2021-08-19T11:51:02Z</time>
      </trkpt>
      <trkpt lat="41.683139" lon="0.968314">
        <ele>247.237</ele>
        <time>2021-08-19T11:51:03Z</time>
      </trkpt>
      <trkpt lat="41.683135" lon="0.968249">
        <ele>246.740</ele>
        <time>2021-08-19T11:51:04Z</time>
      </trkpt>
      <trkpt lat="41.683126" lon="0.968184">
        <ele>246.273</ele>
        <time>2021-08-19T11:51:05Z</time>
      </trkpt>
      <trkpt lat="41.683100" lon="0.968056">
        <ele>245.264</ele>
        <time>2021-08-19T11:51:07Z</time>
      </trkpt>
      <trkpt lat="41.683079" lon="0.967927">
        <ele>244.661</ele>
        <time>2021-08-19T11:51:09Z</time>
      </trkpt>
      <trkpt lat="41.683067" lon="0.967863">
        <ele>244.369</ele>
        <time>2021-08-19T11:51:10Z</time>
      </trkpt>
      <trkpt lat="41.683057" lon="0.967798">
        <ele>244.158</ele>
        <time>2021-08-19T11:51:11Z</time>
      </trkpt>
      <trkpt lat="41.683045" lon="0.967738">
        <ele>243.857</ele>
        <time>2021-08-19T11:51:12Z</time>
      </trkpt>
      <trkpt lat="41.683020" lon="0.967620">
        <ele>243.163</ele>
        <time>2021-08-19T11:51:14Z</time>
      </trkpt>
      <trkpt lat="41.683008" lon="0.967560">
        <ele>242.744</ele>
        <time>2021-08-19T11:51:15Z</time>
      </trkpt>
      <trkpt lat="41.682992" lon="0.967461">
        <ele>242.318</ele>
        <time>2021-08-19T11:51:17Z</time>
      </trkpt>
      <trkpt lat="41.682974" lon="0.967355">
        <ele>242.208</ele>
        <time>2021-08-19T11:51:19Z</time>
      </trkpt>
      <trkpt lat="41.682953" lon="0.967244">
        <ele>242.234</ele>
        <time>2021-08-19T11:51:21Z</time>
      </trkpt>
      <trkpt lat="41.682938" lon="0.967174">
        <ele>242.317</ele>
        <time>2021-08-19T11:51:22Z</time>
      </trkpt>
      <trkpt lat="41.682892" lon="0.967084">
        <ele>242.740</ele>
        <time>2021-08-19T11:51:24Z</time>
      </trkpt>
      <trkpt lat="41.682882" lon="0.967013">
        <ele>242.751</ele>
        <time>2021-08-19T11:51:25Z</time>
      </trkpt>
      <trkpt lat="41.682872" lon="0.966939">
        <ele>242.718</ele>
        <time>2021-08-19T11:51:27Z</time>
      </trkpt>
      <trkpt lat="41.682858" lon="0.966872">
        <ele>242.756</ele>
        <time>2021-08-19T11:51:28Z</time>
      </trkpt>
      <trkpt lat="41.682840" lon="0.966757">
        <ele>242.875</ele>
        <time>2021-08-19T11:51:30Z</time>
      </trkpt>
      <trkpt lat="41.682832" lon="0.966660">
        <ele>242.864</ele>
        <time>2021-08-19T11:51:32Z</time>
      </trkpt>
      <trkpt lat="41.682819" lon="0.966578">
        <ele>242.385</ele>
        <time>2021-08-19T11:51:34Z</time>
      </trkpt>
      <trkpt lat="41.682802" lon="0.966512">
        <ele>241.889</ele>
        <time>2021-08-19T11:51:36Z</time>
      </trkpt>
      <trkpt lat="41.682772" lon="0.966450">
        <ele>241.417</ele>
        <time>2021-08-19T11:51:38Z</time>
      </trkpt>
      <trkpt lat="41.682762" lon="0.966365">
        <ele>240.908</ele>
        <time>2021-08-19T11:51:40Z</time>
      </trkpt>
      <trkpt lat="41.682744" lon="0.966276">
        <ele>240.616</ele>
        <time>2021-08-19T11:51:42Z</time>
      </trkpt>
      <trkpt lat="41.682732" lon="0.966195">
        <ele>240.429</ele>
        <time>2021-08-19T11:51:44Z</time>
      </trkpt>
      <trkpt lat="41.682716" lon="0.966109">
        <ele>240.232</ele>
        <time>2021-08-19T11:51:46Z</time>
      </trkpt>
      <trkpt lat="41.682705" lon="0.966018">
        <ele>240.323</ele>
        <time>2021-08-19T11:51:48Z</time>
      </trkpt>
      <trkpt lat="41.682688" lon="0.965943">
        <ele>240.320</ele>
        <time>2021-08-19T11:51:50Z</time>
      </trkpt>
      <trkpt lat="41.682675" lon="0.965882">
        <ele>240.418</ele>
        <time>2021-08-19T11:51:51Z</time>
      </trkpt>
      <trkpt lat="41.682662" lon="0.965816">
        <ele>240.437</ele>
        <time>2021-08-19T11:51:53Z</time>
      </trkpt>
      <trkpt lat="41.682641" lon="0.965722">
        <ele>240.146</ele>
        <time>2021-08-19T11:51:55Z</time>
      </trkpt>
      <trkpt lat="41.682617" lon="0.965628">
        <ele>239.855</ele>
        <time>2021-08-19T11:51:57Z</time>
      </trkpt>
      <trkpt lat="41.682598" lon="0.965539">
        <ele>239.607</ele>
        <time>2021-08-19T11:51:59Z</time>
      </trkpt>
      <trkpt lat="41.682575" lon="0.965453">
        <ele>239.617</ele>
        <time>2021-08-19T11:52:01Z</time>
      </trkpt>
      <trkpt lat="41.682555" lon="0.965363">
        <ele>239.708</ele>
        <time>2021-08-19T11:52:03Z</time>
      </trkpt>
      <trkpt lat="41.682531" lon="0.965275">
        <ele>239.863</ele>
        <time>2021-08-19T11:52:05Z</time>
      </trkpt>
      <trkpt lat="41.682509" lon="0.965187">
        <ele>239.916</ele>
        <time>2021-08-19T11:52:07Z</time>
      </trkpt>
      <trkpt lat="41.682490" lon="0.965109">
        <ele>240.149</ele>
        <time>2021-08-19T11:52:09Z</time>
      </trkpt>
      <trkpt lat="41.682467" lon="0.965029">
        <ele>240.210</ele>
        <time>2021-08-19T11:52:11Z</time>
      </trkpt>
      <trkpt lat="41.682447" lon="0.964941">
        <ele>240.667</ele>
        <time>2021-08-19T11:52:13Z</time>
      </trkpt>
      <trkpt lat="41.682427" lon="0.964854">
        <ele>240.955</ele>
        <time>2021-08-19T11:52:15Z</time>
      </trkpt>
      <trkpt lat="41.682407" lon="0.964768">
        <ele>241.284</ele>
        <time>2021-08-19T11:52:17Z</time>
      </trkpt>
      <trkpt lat="41.682384" lon="0.964683">
        <ele>241.383</ele>
        <time>2021-08-19T11:52:19Z</time>
      </trkpt>
      <trkpt lat="41.682362" lon="0.964594">
        <ele>241.327</ele>
        <time>2021-08-19T11:52:21Z</time>
      </trkpt>
      <trkpt lat="41.682340" lon="0.964496">
        <ele>241.268</ele>
        <time>2021-08-19T11:52:23Z</time>
      </trkpt>
      <trkpt lat="41.682315" lon="0.964412">
        <ele>241.314</ele>
        <time>2021-08-19T11:52:25Z</time>
      </trkpt>
      <trkpt lat="41.682296" lon="0.964336">
        <ele>241.308</ele>
        <time>2021-08-19T11:52:27Z</time>
      </trkpt>
      <trkpt lat="41.682274" lon="0.964267">
        <ele>241.280</ele>
        <time>2021-08-19T11:52:29Z</time>
      </trkpt>
      <trkpt lat="41.682249" lon="0.964188">
        <ele>241.153</ele>
        <time>2021-08-19T11:52:31Z</time>
      </trkpt>
      <trkpt lat="41.682230" lon="0.964104">
        <ele>241.076</ele>
        <time>2021-08-19T11:52:33Z</time>
      </trkpt>
      <trkpt lat="41.682205" lon="0.964023">
        <ele>241.177</ele>
        <time>2021-08-19T11:52:35Z</time>
      </trkpt>
      <trkpt lat="41.682168" lon="0.963941">
        <ele>241.144</ele>
        <time>2021-08-19T11:52:37Z</time>
      </trkpt>
      <trkpt lat="41.682132" lon="0.963867">
        <ele>240.942</ele>
        <time>2021-08-19T11:52:39Z</time>
      </trkpt>
      <trkpt lat="41.682112" lon="0.963785">
        <ele>240.451</ele>
        <time>2021-08-19T11:52:41Z</time>
      </trkpt>
      <trkpt lat="41.682069" lon="0.963722">
        <ele>240.170</ele>
        <time>2021-08-19T11:52:43Z</time>
      </trkpt>
      <trkpt lat="41.682035" lon="0.963660">
        <ele>239.948</ele>
        <time>2021-08-19T11:52:45Z</time>
      </trkpt>
      <trkpt lat="41.682008" lon="0.963587">
        <ele>239.861</ele>
        <time>2021-08-19T11:52:47Z</time>
      </trkpt>
      <trkpt lat="41.681981" lon="0.963523">
        <ele>239.917</ele>
        <time>2021-08-19T11:52:49Z</time>
      </trkpt>
      <trkpt lat="41.681969" lon="0.963460">
        <ele>239.908</ele>
        <time>2021-08-19T11:52:51Z</time>
      </trkpt>
      <trkpt lat="41.681955" lon="0.963393">
        <ele>240.052</ele>
        <time>2021-08-19T11:52:52Z</time>
      </trkpt>
      <trkpt lat="41.681935" lon="0.963317">
        <ele>240.145</ele>
        <time>2021-08-19T11:52:54Z</time>
      </trkpt>
      <trkpt lat="41.681915" lon="0.963228">
        <ele>240.258</ele>
        <time>2021-08-19T11:52:56Z</time>
      </trkpt>
      <trkpt lat="41.681895" lon="0.963137">
        <ele>240.269</ele>
        <time>2021-08-19T11:52:58Z</time>
      </trkpt>
      <trkpt lat="41.681873" lon="0.963043">
        <ele>240.286</ele>
        <time>2021-08-19T11:53:00Z</time>
      </trkpt>
      <trkpt lat="41.681846" lon="0.962946">
        <ele>239.624</ele>
        <time>2021-08-19T11:53:02Z</time>
      </trkpt>
      <trkpt lat="41.681816" lon="0.962852">
        <ele>239.083</ele>
        <time>2021-08-19T11:53:04Z</time>
      </trkpt>
      <trkpt lat="41.681785" lon="0.962765">
        <ele>238.522</ele>
        <time>2021-08-19T11:53:06Z</time>
      </trkpt>
      <trkpt lat="41.681757" lon="0.962681">
        <ele>238.068</ele>
        <time>2021-08-19T11:53:08Z</time>
      </trkpt>
      <trkpt lat="41.681726" lon="0.962592">
        <ele>237.442</ele>
        <time>2021-08-19T11:53:10Z</time>
      </trkpt>
      <trkpt lat="41.681692" lon="0.962500">
        <ele>236.926</ele>
        <time>2021-08-19T11:53:12Z</time>
      </trkpt>
      <trkpt lat="41.681655" lon="0.962413">
        <ele>236.808</ele>
        <time>2021-08-19T11:53:14Z</time>
      </trkpt>
      <trkpt lat="41.681628" lon="0.962333">
        <ele>236.784</ele>
        <time>2021-08-19T11:53:16Z</time>
      </trkpt>
      <trkpt lat="41.681608" lon="0.962234">
        <ele>236.537</ele>
        <time>2021-08-19T11:53:18Z</time>
      </trkpt>
      <trkpt lat="41.681579" lon="0.962137">
        <ele>236.320</ele>
        <time>2021-08-19T11:53:20Z</time>
      </trkpt>
      <trkpt lat="41.681564" lon="0.962073">
        <ele>236.251</ele>
        <time>2021-08-19T11:53:21Z</time>
      </trkpt>
      <trkpt lat="41.681552" lon="0.961979">
        <ele>235.968</ele>
        <time>2021-08-19T11:53:23Z</time>
      </trkpt>
      <trkpt lat="41.681544" lon="0.961871">
        <ele>235.836</ele>
        <time>2021-08-19T11:53:25Z</time>
      </trkpt>
      <trkpt lat="41.681544" lon="0.961775">
        <ele>235.695</ele>
        <time>2021-08-19T11:53:27Z</time>
      </trkpt>
      <trkpt lat="41.681550" lon="0.961683">
        <ele>235.494</ele>
        <time>2021-08-19T11:53:29Z</time>
      </trkpt>
      <trkpt lat="41.681562" lon="0.961583">
        <ele>235.122</ele>
        <time>2021-08-19T11:53:31Z</time>
      </trkpt>
      <trkpt lat="41.681579" lon="0.961482">
        <ele>234.762</ele>
        <time>2021-08-19T11:53:33Z</time>
      </trkpt>
      <trkpt lat="41.681595" lon="0.961377">
        <ele>234.208</ele>
        <time>2021-08-19T11:53:35Z</time>
      </trkpt>
      <trkpt lat="41.681617" lon="0.961263">
        <ele>233.708</ele>
        <time>2021-08-19T11:53:37Z</time>
      </trkpt>
      <trkpt lat="41.681642" lon="0.961156">
        <ele>233.230</ele>
        <time>2021-08-19T11:53:39Z</time>
      </trkpt>
      <trkpt lat="41.681666" lon="0.961057">
        <ele>233.063</ele>
        <time>2021-08-19T11:53:41Z</time>
      </trkpt>
      <trkpt lat="41.681681" lon="0.960956">
        <ele>233.166</ele>
        <time>2021-08-19T11:53:43Z</time>
      </trkpt>
      <trkpt lat="41.681710" lon="0.960856">
        <ele>233.247</ele>
        <time>2021-08-19T11:53:45Z</time>
      </trkpt>
      <trkpt lat="41.681736" lon="0.960745">
        <ele>233.544</ele>
        <time>2021-08-19T11:53:47Z</time>
      </trkpt>
      <trkpt lat="41.681751" lon="0.960655">
        <ele>233.872</ele>
        <time>2021-08-19T11:53:49Z</time>
      </trkpt>
      <trkpt lat="41.681732" lon="0.960563">
        <ele>234.031</ele>
        <time>2021-08-19T11:53:51Z</time>
      </trkpt>
      <trkpt lat="41.681752" lon="0.960496">
        <ele>233.930</ele>
        <time>2021-08-19T11:53:52Z</time>
      </trkpt>
      <trkpt lat="41.681797" lon="0.960361">
        <ele>233.662</ele>
        <time>2021-08-19T11:53:54Z</time>
      </trkpt>
      <trkpt lat="41.681819" lon="0.960237">
        <ele>233.583</ele>
        <time>2021-08-19T11:53:56Z</time>
      </trkpt>
      <trkpt lat="41.681826" lon="0.960176">
        <ele>233.411</ele>
        <time>2021-08-19T11:53:57Z</time>
      </trkpt>
      <trkpt lat="41.681829" lon="0.960111">
        <ele>233.208</ele>
        <time>2021-08-19T11:53:58Z</time>
      </trkpt>
      <trkpt lat="41.681834" lon="0.960046">
        <ele>233.164</ele>
        <time>2021-08-19T11:54:00Z</time>
      </trkpt>
      <trkpt lat="41.681806" lon="0.959991">
        <ele>233.027</ele>
        <time>2021-08-19T11:54:01Z</time>
      </trkpt>
      <trkpt lat="41.681811" lon="0.959923">
        <ele>233.110</ele>
        <time>2021-08-19T11:54:02Z</time>
      </trkpt>
      <trkpt lat="41.681842" lon="0.959768">
        <ele>233.331</ele>
        <time>2021-08-19T11:54:04Z</time>
      </trkpt>
      <trkpt lat="41.681850" lon="0.959644">
        <ele>233.888</ele>
        <time>2021-08-19T11:54:06Z</time>
      </trkpt>
      <trkpt lat="41.681850" lon="0.959583">
        <ele>234.226</ele>
        <time>2021-08-19T11:54:07Z</time>
      </trkpt>
      <trkpt lat="41.681851" lon="0.959515">
        <ele>234.625</ele>
        <time>2021-08-19T11:54:09Z</time>
      </trkpt>
      <trkpt lat="41.681851" lon="0.959453">
        <ele>234.984</ele>
        <time>2021-08-19T11:54:10Z</time>
      </trkpt>
      <trkpt lat="41.681844" lon="0.959348">
        <ele>235.648</ele>
        <time>2021-08-19T11:54:12Z</time>
      </trkpt>
      <trkpt lat="41.681845" lon="0.959274">
        <ele>236.061</ele>
        <time>2021-08-19T11:54:14Z</time>
      </trkpt>
      <trkpt lat="41.681849" lon="0.959205">
        <ele>236.417</ele>
        <time>2021-08-19T11:54:16Z</time>
      </trkpt>
      <trkpt lat="41.681845" lon="0.959143">
        <ele>236.608</ele>
        <time>2021-08-19T11:54:18Z</time>
      </trkpt>
      <trkpt lat="41.681845" lon="0.959061">
        <ele>236.332</ele>
        <time>2021-08-19T11:54:21Z</time>
      </trkpt>
      <trkpt lat="41.681845" lon="0.958996">
        <ele>236.025</ele>
        <time>2021-08-19T11:54:24Z</time>
      </trkpt>
      <trkpt lat="41.681848" lon="0.958913">
        <ele>235.718</ele>
        <time>2021-08-19T11:54:27Z</time>
      </trkpt>
      <trkpt lat="41.681845" lon="0.958849">
        <ele>235.539</ele>
        <time>2021-08-19T11:54:30Z</time>
      </trkpt>
      <trkpt lat="41.681831" lon="0.958774">
        <ele>235.246</ele>
        <time>2021-08-19T11:54:34Z</time>
      </trkpt>
      <trkpt lat="41.681819" lon="0.958715">
        <ele>234.914</ele>
        <time>2021-08-19T11:54:38Z</time>
      </trkpt>
      <trkpt lat="41.681785" lon="0.958665">
        <ele>234.663</ele>
        <time>2021-08-19T11:54:42Z</time>
      </trkpt>
      <trkpt lat="41.681740" lon="0.958615">
        <ele>234.342</ele>
        <time>2021-08-19T11:54:45Z</time>
      </trkpt>
      <trkpt lat="41.681687" lon="0.958619">
        <ele>234.184</ele>
        <time>2021-08-19T11:54:49Z</time>
      </trkpt>
      <trkpt lat="41.681637" lon="0.958607">
        <ele>234.107</ele>
        <time>2021-08-19T11:54:53Z</time>
      </trkpt>
      <trkpt lat="41.681591" lon="0.958589">
        <ele>234.317</ele>
        <time>2021-08-19T11:54:56Z</time>
      </trkpt>
      <trkpt lat="41.681543" lon="0.958570">
        <ele>234.408</ele>
        <time>2021-08-19T11:54:59Z</time>
      </trkpt>
      <trkpt lat="41.681480" lon="0.958564">
        <ele>234.756</ele>
        <time>2021-08-19T11:55:03Z</time>
      </trkpt>
      <trkpt lat="41.681422" lon="0.958550">
        <ele>234.969</ele>
        <time>2021-08-19T11:55:06Z</time>
      </trkpt>
      <trkpt lat="41.681363" lon="0.958544">
        <ele>234.982</ele>
        <time>2021-08-19T11:55:09Z</time>
      </trkpt>
      <trkpt lat="41.681301" lon="0.958532">
        <ele>234.893</ele>
        <time>2021-08-19T11:55:12Z</time>
      </trkpt>
      <trkpt lat="41.681246" lon="0.958532">
        <ele>234.670</ele>
        <time>2021-08-19T11:55:15Z</time>
      </trkpt>
      <trkpt lat="41.681180" lon="0.958525">
        <ele>234.518</ele>
        <time>2021-08-19T11:55:18Z</time>
      </trkpt>
      <trkpt lat="41.681130" lon="0.958508">
        <ele>234.477</ele>
        <time>2021-08-19T11:55:21Z</time>
      </trkpt>
      <trkpt lat="41.681079" lon="0.958506">
        <ele>234.456</ele>
        <time>2021-08-19T11:55:23Z</time>
      </trkpt>
      <trkpt lat="41.681021" lon="0.958496">
        <ele>234.465</ele>
        <time>2021-08-19T11:55:26Z</time>
      </trkpt>
      <trkpt lat="41.680968" lon="0.958493">
        <ele>234.468</ele>
        <time>2021-08-19T11:55:29Z</time>
      </trkpt>
      <trkpt lat="41.680907" lon="0.958485">
        <ele>234.514</ele>
        <time>2021-08-19T11:55:32Z</time>
      </trkpt>
      <trkpt lat="41.680848" lon="0.958486">
        <ele>234.408</ele>
        <time>2021-08-19T11:55:35Z</time>
      </trkpt>
      <trkpt lat="41.680802" lon="0.958480">
        <ele>234.624</ele>
        <time>2021-08-19T11:55:38Z</time>
      </trkpt>
      <trkpt lat="41.680765" lon="0.958445">
        <ele>234.967</ele>
        <time>2021-08-19T11:55:41Z</time>
      </trkpt>
      <trkpt lat="41.680728" lon="0.958383">
        <ele>235.310</ele>
        <time>2021-08-19T11:55:44Z</time>
      </trkpt>
      <trkpt lat="41.680722" lon="0.958302">
        <ele>235.371</ele>
        <time>2021-08-19T11:55:46Z</time>
      </trkpt>
      <trkpt lat="41.680713" lon="0.958229">
        <ele>235.138</ele>
        <time>2021-08-19T11:55:48Z</time>
      </trkpt>
      <trkpt lat="41.680711" lon="0.958162">
        <ele>234.856</ele>
        <time>2021-08-19T11:55:50Z</time>
      </trkpt>
      <trkpt lat="41.680699" lon="0.958099">
        <ele>234.665</ele>
        <time>2021-08-19T11:55:53Z</time>
      </trkpt>
      <trkpt lat="41.680685" lon="0.958021">
        <ele>234.584</ele>
        <time>2021-08-19T11:55:55Z</time>
      </trkpt>
      <trkpt lat="41.680673" lon="0.957959">
        <ele>234.447</ele>
        <time>2021-08-19T11:55:57Z</time>
      </trkpt>
      <trkpt lat="41.680660" lon="0.957875">
        <ele>234.429</ele>
        <time>2021-08-19T11:56:00Z</time>
      </trkpt>
      <trkpt lat="41.680652" lon="0.957809">
        <ele>234.321</ele>
        <time>2021-08-19T11:56:02Z</time>
      </trkpt>
      <trkpt lat="41.680645" lon="0.957739">
        <ele>234.308</ele>
        <time>2021-08-19T11:56:04Z</time>
      </trkpt>
      <trkpt lat="41.680628" lon="0.957679">
        <ele>234.352</ele>
        <time>2021-08-19T11:56:06Z</time>
      </trkpt>
      <trkpt lat="41.680624" lon="0.957605">
        <ele>234.235</ele>
        <time>2021-08-19T11:56:09Z</time>
      </trkpt>
      <trkpt lat="41.680675" lon="0.957603">
        <ele>234.138</ele>
        <time>2021-08-19T11:56:21Z</time>
      </trkpt>
      <trkpt lat="41.680740" lon="0.957596">
        <ele>233.959</ele>
        <time>2021-08-19T11:56:24Z</time>
      </trkpt>
      <trkpt lat="41.680804" lon="0.957593">
        <ele>233.726</ele>
        <time>2021-08-19T11:56:27Z</time>
      </trkpt>
      <trkpt lat="41.680855" lon="0.957594">
        <ele>233.864</ele>
        <time>2021-08-19T11:56:30Z</time>
      </trkpt>
      <trkpt lat="41.680908" lon="0.957581">
        <ele>234.153</ele>
        <time>2021-08-19T11:56:34Z</time>
      </trkpt>
      <trkpt lat="41.680964" lon="0.957596">
        <ele>234.322</ele>
        <time>2021-08-19T11:56:37Z</time>
      </trkpt>
      <trkpt lat="41.681022" lon="0.957593">
        <ele>234.651</ele>
        <time>2021-08-19T11:56:40Z</time>
      </trkpt>
      <trkpt lat="41.681067" lon="0.957602">
        <ele>234.801</ele>
        <time>2021-08-19T11:56:42Z</time>
      </trkpt>
      <trkpt lat="41.681113" lon="0.957603">
        <ele>235.011</ele>
        <time>2021-08-19T11:56:44Z</time>
      </trkpt>
      <trkpt lat="41.681158" lon="0.957615">
        <ele>235.008</ele>
        <time>2021-08-19T11:56:46Z</time>
      </trkpt>
      <trkpt lat="41.681208" lon="0.957626">
        <ele>235.053</ele>
        <time>2021-08-19T11:56:48Z</time>
      </trkpt>
      <trkpt lat="41.681260" lon="0.957632">
        <ele>235.026</ele>
        <time>2021-08-19T11:56:51Z</time>
      </trkpt>
      <trkpt lat="41.681308" lon="0.957637">
        <ele>235.049</ele>
        <time>2021-08-19T11:56:53Z</time>
      </trkpt>
      <trkpt lat="41.681372" lon="0.957635">
        <ele>235.010</ele>
        <time>2021-08-19T11:56:56Z</time>
      </trkpt>
      <trkpt lat="41.681418" lon="0.957636">
        <ele>234.997</ele>
        <time>2021-08-19T11:56:58Z</time>
      </trkpt>
      <trkpt lat="41.681469" lon="0.957642">
        <ele>234.735</ele>
        <time>2021-08-19T11:57:01Z</time>
      </trkpt>
      <trkpt lat="41.681418" lon="0.957660">
        <ele>234.994</ele>
        <time>2021-08-19T11:59:42Z</time>
      </trkpt>
      <trkpt lat="41.681364" lon="0.957652">
        <ele>235.083</ele>
        <time>2021-08-19T11:59:45Z</time>
      </trkpt>
      <trkpt lat="41.681297" lon="0.957646">
        <ele>235.097</ele>
        <time>2021-08-19T11:59:48Z</time>
      </trkpt>
      <trkpt lat="41.681249" lon="0.957638">
        <ele>235.023</ele>
        <time>2021-08-19T11:59:50Z</time>
      </trkpt>
      <trkpt lat="41.681205" lon="0.957663">
        <ele>235.025</ele>
        <time>2021-08-19T11:59:53Z</time>
      </trkpt>
      <trkpt lat="41.681141" lon="0.957647">
        <ele>235.008</ele>
        <time>2021-08-19T11:59:55Z</time>
      </trkpt>
      <trkpt lat="41.681087" lon="0.957633">
        <ele>234.977</ele>
        <time>2021-08-19T11:59:56Z</time>
      </trkpt>
      <trkpt lat="41.681042" lon="0.957625">
        <ele>234.650</ele>
        <time>2021-08-19T11:59:58Z</time>
      </trkpt>
      <trkpt lat="41.680992" lon="0.957612">
        <ele>234.413</ele>
        <time>2021-08-19T11:59:59Z</time>
      </trkpt>
      <trkpt lat="41.680928" lon="0.957602">
        <ele>234.174</ele>
        <time>2021-08-19T12:00:01Z</time>
      </trkpt>
      <trkpt lat="41.680874" lon="0.957601">
        <ele>233.821</ele>
        <time>2021-08-19T12:00:03Z</time>
      </trkpt>
      <trkpt lat="41.680827" lon="0.957601">
        <ele>233.719</ele>
        <time>2021-08-19T12:00:04Z</time>
      </trkpt>
      <trkpt lat="41.680779" lon="0.957599">
        <ele>233.898</ele>
        <time>2021-08-19T12:00:05Z</time>
      </trkpt>
      <trkpt lat="41.680726" lon="0.957600">
        <ele>233.927</ele>
        <time>2021-08-19T12:00:07Z</time>
      </trkpt>
      <trkpt lat="41.680670" lon="0.957597">
        <ele>234.142</ele>
        <time>2021-08-19T12:00:09Z</time>
      </trkpt>
      <trkpt lat="41.680625" lon="0.957592">
        <ele>234.222</ele>
        <time>2021-08-19T12:00:11Z</time>
      </trkpt>
      <trkpt lat="41.680590" lon="0.957524">
        <ele>234.114</ele>
        <time>2021-08-19T12:00:14Z</time>
      </trkpt>
      <trkpt lat="41.680573" lon="0.957452">
        <ele>234.008</ele>
        <time>2021-08-19T12:00:17Z</time>
      </trkpt>
      <trkpt lat="41.680561" lon="0.957393">
        <ele>234.022</ele>
        <time>2021-08-19T12:00:19Z</time>
      </trkpt>
      <trkpt lat="41.680538" lon="0.957316">
        <ele>234.115</ele>
        <time>2021-08-19T12:00:21Z</time>
      </trkpt>
      <trkpt lat="41.680519" lon="0.957258">
        <ele>234.218</ele>
        <time>2021-08-19T12:00:23Z</time>
      </trkpt>
      <trkpt lat="41.680499" lon="0.957196">
        <ele>234.149</ele>
        <time>2021-08-19T12:00:24Z</time>
      </trkpt>
      <trkpt lat="41.680479" lon="0.957133">
        <ele>234.056</ele>
        <time>2021-08-19T12:00:26Z</time>
      </trkpt>
      <trkpt lat="41.680460" lon="0.957076">
        <ele>234.084</ele>
        <time>2021-08-19T12:00:28Z</time>
      </trkpt>
      <trkpt lat="41.680448" lon="0.957008">
        <ele>233.973</ele>
        <time>2021-08-19T12:00:32Z</time>
      </trkpt>
      <trkpt lat="41.680434" lon="0.956945">
        <ele>233.982</ele>
        <time>2021-08-19T12:00:35Z</time>
      </trkpt>
      <trkpt lat="41.680433" lon="0.956863">
        <ele>233.868</ele>
        <time>2021-08-19T12:00:38Z</time>
      </trkpt>
      <trkpt lat="41.680427" lon="0.956796">
        <ele>233.742</ele>
        <time>2021-08-19T12:00:40Z</time>
      </trkpt>
      <trkpt lat="41.680415" lon="0.956735">
        <ele>233.626</ele>
        <time>2021-08-19T12:00:41Z</time>
      </trkpt>
      <trkpt lat="41.680402" lon="0.956664">
        <ele>233.608</ele>
        <time>2021-08-19T12:00:44Z</time>
      </trkpt>
      <trkpt lat="41.680394" lon="0.956578">
        <ele>233.624</ele>
        <time>2021-08-19T12:00:47Z</time>
      </trkpt>
      <trkpt lat="41.680387" lon="0.956507">
        <ele>233.637</ele>
        <time>2021-08-19T12:00:50Z</time>
      </trkpt>
      <trkpt lat="41.680382" lon="0.956574">
        <ele>233.670</ele>
        <time>2021-08-19T12:01:00Z</time>
      </trkpt>
      <trkpt lat="41.680401" lon="0.956638">
        <ele>233.671</ele>
        <time>2021-08-19T12:01:03Z</time>
      </trkpt>
      <trkpt lat="41.680434" lon="0.956688">
        <ele>233.598</ele>
        <time>2021-08-19T12:01:06Z</time>
      </trkpt>
      <trkpt lat="41.680498" lon="0.956690">
        <ele>233.286</ele>
        <time>2021-08-19T12:01:08Z</time>
      </trkpt>
      <trkpt lat="41.680540" lon="0.956662">
        <ele>233.125</ele>
        <time>2021-08-19T12:01:10Z</time>
      </trkpt>
      <trkpt lat="41.680583" lon="0.956626">
        <ele>233.044</ele>
        <time>2021-08-19T12:01:12Z</time>
      </trkpt>
      <trkpt lat="41.680630" lon="0.956592">
        <ele>233.093</ele>
        <time>2021-08-19T12:01:15Z</time>
      </trkpt>
      <trkpt lat="41.680673" lon="0.956548">
        <ele>233.065</ele>
        <time>2021-08-19T12:01:17Z</time>
      </trkpt>
      <trkpt lat="41.680718" lon="0.956520">
        <ele>233.021</ele>
        <time>2021-08-19T12:01:19Z</time>
      </trkpt>
      <trkpt lat="41.680779" lon="0.956502">
        <ele>233.008</ele>
        <time>2021-08-19T12:01:22Z</time>
      </trkpt>
      <trkpt lat="41.680829" lon="0.956492">
        <ele>233.017</ele>
        <time>2021-08-19T12:01:26Z</time>
      </trkpt>
      <trkpt lat="41.680879" lon="0.956522">
        <ele>233.070</ele>
        <time>2021-08-19T12:01:31Z</time>
      </trkpt>
      <trkpt lat="41.680921" lon="0.956551">
        <ele>233.013</ele>
        <time>2021-08-19T12:01:43Z</time>
      </trkpt>
      <trkpt lat="41.680964" lon="0.956582">
        <ele>233.094</ele>
        <time>2021-08-19T12:01:48Z</time>
      </trkpt>
      <trkpt lat="41.680995" lon="0.956628">
        <ele>233.081</ele>
        <time>2021-08-19T12:02:55Z</time>
      </trkpt>
      <trkpt lat="41.680957" lon="0.956596">
        <ele>233.019</ele>
        <time>2021-08-19T12:05:23Z</time>
      </trkpt>
      <trkpt lat="41.680918" lon="0.956565">
        <ele>233.018</ele>
        <time>2021-08-19T12:05:33Z</time>
      </trkpt>
      <trkpt lat="41.680872" lon="0.956537">
        <ele>233.077</ele>
        <time>2021-08-19T12:05:38Z</time>
      </trkpt>
      <trkpt lat="41.680823" lon="0.956520">
        <ele>233.028</ele>
        <time>2021-08-19T12:05:42Z</time>
      </trkpt>
      <trkpt lat="41.680772" lon="0.956529">
        <ele>233.089</ele>
        <time>2021-08-19T12:05:49Z</time>
      </trkpt>
      <trkpt lat="41.680727" lon="0.956551">
        <ele>233.017</ele>
        <time>2021-08-19T12:06:14Z</time>
      </trkpt>
      <trkpt lat="41.680678" lon="0.956578">
        <ele>233.008</ele>
        <time>2021-08-19T12:06:19Z</time>
      </trkpt>
      <trkpt lat="41.680630" lon="0.956610">
        <ele>233.040</ele>
        <time>2021-08-19T12:06:24Z</time>
      </trkpt>
      <trkpt lat="41.680590" lon="0.956638">
        <ele>233.033</ele>
        <time>2021-08-19T12:06:29Z</time>
      </trkpt>
      <trkpt lat="41.680546" lon="0.956658">
        <ele>233.016</ele>
        <time>2021-08-19T12:06:33Z</time>
      </trkpt>
      <trkpt lat="41.680495" lon="0.956680">
        <ele>233.287</ele>
        <time>2021-08-19T12:06:39Z</time>
      </trkpt>
      <trkpt lat="41.680454" lon="0.956711">
        <ele>233.414</ele>
        <time>2021-08-19T12:06:44Z</time>
      </trkpt>
      <trkpt lat="41.680409" lon="0.956700">
        <ele>233.662</ele>
        <time>2021-08-19T12:06:49Z</time>
      </trkpt>
      <trkpt lat="41.680414" lon="0.956632">
        <ele>233.531</ele>
        <time>2021-08-19T12:06:56Z</time>
      </trkpt>
      <trkpt lat="41.680386" lon="0.956577">
        <ele>233.630</ele>
        <time>2021-08-19T12:07:24Z</time>
      </trkpt>
      <trkpt lat="41.680360" lon="0.956500">
        <ele>233.796</ele>
        <time>2021-08-19T12:07:28Z</time>
      </trkpt>
      <trkpt lat="41.680370" lon="0.956424">
        <ele>233.731</ele>
        <time>2021-08-19T12:07:30Z</time>
      </trkpt>
      <trkpt lat="41.680372" lon="0.956358">
        <ele>233.624</ele>
        <time>2021-08-19T12:07:32Z</time>
      </trkpt>
      <trkpt lat="41.680368" lon="0.956286">
        <ele>233.608</ele>
        <time>2021-08-19T12:07:34Z</time>
      </trkpt>
      <trkpt lat="41.680362" lon="0.956226">
        <ele>233.547</ele>
        <time>2021-08-19T12:07:36Z</time>
      </trkpt>
      <trkpt lat="41.680357" lon="0.956162">
        <ele>233.550</ele>
        <time>2021-08-19T12:07:38Z</time>
      </trkpt>
      <trkpt lat="41.680356" lon="0.956084">
        <ele>233.623</ele>
        <time>2021-08-19T12:07:40Z</time>
      </trkpt>
      <trkpt lat="41.680353" lon="0.956011">
        <ele>234.064</ele>
        <time>2021-08-19T12:07:42Z</time>
      </trkpt>
      <trkpt lat="41.680350" lon="0.955950">
        <ele>234.361</ele>
        <time>2021-08-19T12:07:44Z</time>
      </trkpt>
      <trkpt lat="41.680347" lon="0.955884">
        <ele>234.729</ele>
        <time>2021-08-19T12:07:46Z</time>
      </trkpt>
      <trkpt lat="41.680349" lon="0.955810">
        <ele>234.928</ele>
        <time>2021-08-19T12:07:48Z</time>
      </trkpt>
      <trkpt lat="41.680344" lon="0.955741">
        <ele>234.857</ele>
        <time>2021-08-19T12:07:50Z</time>
      </trkpt>
      <trkpt lat="41.680336" lon="0.955678">
        <ele>234.775</ele>
        <time>2021-08-19T12:07:52Z</time>
      </trkpt>
      <trkpt lat="41.680328" lon="0.955606">
        <ele>234.628</ele>
        <time>2021-08-19T12:07:54Z</time>
      </trkpt>
      <trkpt lat="41.680330" lon="0.955545">
        <ele>234.520</ele>
        <time>2021-08-19T12:07:56Z</time>
      </trkpt>
      <trkpt lat="41.680315" lon="0.955461">
        <ele>234.908</ele>
        <time>2021-08-19T12:07:59Z</time>
      </trkpt>
      <trkpt lat="41.680298" lon="0.955399">
        <ele>235.395</ele>
        <time>2021-08-19T12:08:02Z</time>
      </trkpt>
      <trkpt lat="41.680280" lon="0.955342">
        <ele>235.778</ele>
        <time>2021-08-19T12:08:04Z</time>
      </trkpt>
      <trkpt lat="41.680251" lon="0.955276">
        <ele>236.221</ele>
        <time>2021-08-19T12:08:07Z</time>
      </trkpt>
      <trkpt lat="41.680217" lon="0.955227">
        <ele>236.492</ele>
        <time>2021-08-19T12:08:09Z</time>
      </trkpt>
      <trkpt lat="41.680192" lon="0.955175">
        <ele>236.589</ele>
        <time>2021-08-19T12:08:11Z</time>
      </trkpt>
      <trkpt lat="41.680176" lon="0.955109">
        <ele>236.537</ele>
        <time>2021-08-19T12:08:13Z</time>
      </trkpt>
      <trkpt lat="41.680149" lon="0.955048">
        <ele>236.536</ele>
        <time>2021-08-19T12:08:15Z</time>
      </trkpt>
      <trkpt lat="41.680113" lon="0.954989">
        <ele>236.645</ele>
        <time>2021-08-19T12:08:17Z</time>
      </trkpt>
      <trkpt lat="41.680096" lon="0.954933">
        <ele>236.578</ele>
        <time>2021-08-19T12:08:19Z</time>
      </trkpt>
      <trkpt lat="41.680069" lon="0.954868">
        <ele>236.433</ele>
        <time>2021-08-19T12:08:22Z</time>
      </trkpt>
      <trkpt lat="41.680061" lon="0.954805">
        <ele>236.226</ele>
        <time>2021-08-19T12:08:24Z</time>
      </trkpt>
      <trkpt lat="41.680042" lon="0.954741">
        <ele>236.108</ele>
        <time>2021-08-19T12:08:26Z</time>
      </trkpt>
      <trkpt lat="41.680022" lon="0.954675">
        <ele>235.795</ele>
        <time>2021-08-19T12:08:28Z</time>
      </trkpt>
      <trkpt lat="41.679999" lon="0.954616">
        <ele>235.288</ele>
        <time>2021-08-19T12:08:30Z</time>
      </trkpt>
      <trkpt lat="41.679987" lon="0.954543">
        <ele>234.721</ele>
        <time>2021-08-19T12:08:32Z</time>
      </trkpt>
      <trkpt lat="41.679969" lon="0.954475">
        <ele>234.172</ele>
        <time>2021-08-19T12:08:34Z</time>
      </trkpt>
      <trkpt lat="41.679945" lon="0.954388">
        <ele>233.769</ele>
        <time>2021-08-19T12:08:37Z</time>
      </trkpt>
      <trkpt lat="41.679929" lon="0.954324">
        <ele>233.597</ele>
        <time>2021-08-19T12:08:39Z</time>
      </trkpt>
      <trkpt lat="41.679912" lon="0.954265">
        <ele>233.436</ele>
        <time>2021-08-19T12:08:41Z</time>
      </trkpt>
      <trkpt lat="41.679895" lon="0.954207">
        <ele>233.465</ele>
        <time>2021-08-19T12:08:43Z</time>
      </trkpt>
      <trkpt lat="41.679875" lon="0.954149">
        <ele>233.585</ele>
        <time>2021-08-19T12:08:45Z</time>
      </trkpt>
      <trkpt lat="41.679845" lon="0.954090">
        <ele>234.089</ele>
        <time>2021-08-19T12:08:47Z</time>
      </trkpt>
      <trkpt lat="41.679822" lon="0.954029">
        <ele>234.317</ele>
        <time>2021-08-19T12:08:49Z</time>
      </trkpt>
      <trkpt lat="41.679798" lon="0.953960">
        <ele>234.708</ele>
        <time>2021-08-19T12:08:51Z</time>
      </trkpt>
      <trkpt lat="41.679781" lon="0.953885">
        <ele>235.086</ele>
        <time>2021-08-19T12:08:53Z</time>
      </trkpt>
      <trkpt lat="41.679759" lon="0.953818">
        <ele>235.459</ele>
        <time>2021-08-19T12:08:55Z</time>
      </trkpt>
      <trkpt lat="41.679739" lon="0.953745">
        <ele>236.052</ele>
        <time>2021-08-19T12:08:57Z</time>
      </trkpt>
      <trkpt lat="41.679727" lon="0.953673">
        <ele>236.593</ele>
        <time>2021-08-19T12:08:59Z</time>
      </trkpt>
      <trkpt lat="41.679722" lon="0.953598">
        <ele>237.050</ele>
        <time>2021-08-19T12:09:01Z</time>
      </trkpt>
      <trkpt lat="41.679706" lon="0.953522">
        <ele>236.818</ele>
        <time>2021-08-19T12:09:03Z</time>
      </trkpt>
      <trkpt lat="41.679689" lon="0.953453">
        <ele>236.877</ele>
        <time>2021-08-19T12:09:05Z</time>
      </trkpt>
      <trkpt lat="41.679663" lon="0.953373">
        <ele>236.926</ele>
        <time>2021-08-19T12:09:07Z</time>
      </trkpt>
      <trkpt lat="41.679636" lon="0.953289">
        <ele>237.163</ele>
        <time>2021-08-19T12:09:09Z</time>
      </trkpt>
      <trkpt lat="41.679613" lon="0.953217">
        <ele>237.244</ele>
        <time>2021-08-19T12:09:11Z</time>
      </trkpt>
      <trkpt lat="41.679598" lon="0.953147">
        <ele>237.118</ele>
        <time>2021-08-19T12:09:13Z</time>
      </trkpt>
      <trkpt lat="41.679576" lon="0.953064">
        <ele>237.108</ele>
        <time>2021-08-19T12:09:15Z</time>
      </trkpt>
      <trkpt lat="41.679552" lon="0.952992">
        <ele>237.124</ele>
        <time>2021-08-19T12:09:17Z</time>
      </trkpt>
      <trkpt lat="41.679537" lon="0.952913">
        <ele>236.877</ele>
        <time>2021-08-19T12:09:19Z</time>
      </trkpt>
      <trkpt lat="41.679517" lon="0.952841">
        <ele>236.660</ele>
        <time>2021-08-19T12:09:21Z</time>
      </trkpt>
      <trkpt lat="41.679504" lon="0.952769">
        <ele>236.311</ele>
        <time>2021-08-19T12:09:23Z</time>
      </trkpt>
      <trkpt lat="41.679488" lon="0.952687">
        <ele>235.918</ele>
        <time>2021-08-19T12:09:25Z</time>
      </trkpt>
      <trkpt lat="41.679469" lon="0.952608">
        <ele>235.576</ele>
        <time>2021-08-19T12:09:27Z</time>
      </trkpt>
      <trkpt lat="41.679465" lon="0.952522">
        <ele>234.985</ele>
        <time>2021-08-19T12:09:29Z</time>
      </trkpt>
      <trkpt lat="41.679456" lon="0.952444">
        <ele>234.774</ele>
        <time>2021-08-19T12:09:31Z</time>
      </trkpt>
      <trkpt lat="41.679445" lon="0.952361">
        <ele>234.526</ele>
        <time>2021-08-19T12:09:33Z</time>
      </trkpt>
      <trkpt lat="41.679443" lon="0.952293">
        <ele>234.347</ele>
        <time>2021-08-19T12:09:35Z</time>
      </trkpt>
      <trkpt lat="41.679435" lon="0.952189">
        <ele>234.211</ele>
        <time>2021-08-19T12:09:37Z</time>
      </trkpt>
      <trkpt lat="41.679431" lon="0.952105">
        <ele>234.508</ele>
        <time>2021-08-19T12:09:39Z</time>
      </trkpt>
      <trkpt lat="41.679422" lon="0.952016">
        <ele>234.930</ele>
        <time>2021-08-19T12:09:41Z</time>
      </trkpt>
      <trkpt lat="41.679415" lon="0.951935">
        <ele>235.193</ele>
        <time>2021-08-19T12:09:43Z</time>
      </trkpt>
      <trkpt lat="41.679405" lon="0.951854">
        <ele>234.716</ele>
        <time>2021-08-19T12:09:45Z</time>
      </trkpt>
      <trkpt lat="41.679399" lon="0.951779">
        <ele>234.247</ele>
        <time>2021-08-19T12:09:47Z</time>
      </trkpt>
      <trkpt lat="41.679396" lon="0.951710">
        <ele>233.834</ele>
        <time>2021-08-19T12:09:49Z</time>
      </trkpt>
      <trkpt lat="41.679391" lon="0.951643">
        <ele>233.682</ele>
        <time>2021-08-19T12:09:51Z</time>
      </trkpt>
      <trkpt lat="41.679374" lon="0.951573">
        <ele>233.891</ele>
        <time>2021-08-19T12:09:53Z</time>
      </trkpt>
      <trkpt lat="41.679368" lon="0.951489">
        <ele>234.080</ele>
        <time>2021-08-19T12:09:55Z</time>
      </trkpt>
      <trkpt lat="41.679359" lon="0.951413">
        <ele>234.287</ele>
        <time>2021-08-19T12:09:57Z</time>
      </trkpt>
      <trkpt lat="41.679352" lon="0.951339">
        <ele>234.242</ele>
        <time>2021-08-19T12:09:59Z</time>
      </trkpt>
      <trkpt lat="41.679338" lon="0.951267">
        <ele>234.326</ele>
        <time>2021-08-19T12:10:01Z</time>
      </trkpt>
      <trkpt lat="41.679327" lon="0.951204">
        <ele>234.308</ele>
        <time>2021-08-19T12:10:03Z</time>
      </trkpt>
      <trkpt lat="41.679319" lon="0.951118">
        <ele>234.356</ele>
        <time>2021-08-19T12:10:06Z</time>
      </trkpt>
      <trkpt lat="41.679307" lon="0.951030">
        <ele>234.519</ele>
        <time>2021-08-19T12:10:08Z</time>
      </trkpt>
      <trkpt lat="41.679302" lon="0.950965">
        <ele>234.662</ele>
        <time>2021-08-19T12:10:10Z</time>
      </trkpt>
      <trkpt lat="41.679295" lon="0.950878">
        <ele>234.683</ele>
        <time>2021-08-19T12:10:13Z</time>
      </trkpt>
      <trkpt lat="41.679294" lon="0.950815">
        <ele>234.640</ele>
        <time>2021-08-19T12:10:15Z</time>
      </trkpt>
      <trkpt lat="41.679289" lon="0.950753">
        <ele>234.548</ele>
        <time>2021-08-19T12:10:17Z</time>
      </trkpt>
      <trkpt lat="41.679281" lon="0.950692">
        <ele>234.547</ele>
        <time>2021-08-19T12:10:19Z</time>
      </trkpt>
      <trkpt lat="41.679281" lon="0.950609">
        <ele>234.356</ele>
        <time>2021-08-19T12:10:22Z</time>
      </trkpt>
      <trkpt lat="41.679271" lon="0.950543">
        <ele>234.263</ele>
        <time>2021-08-19T12:10:24Z</time>
      </trkpt>
      <trkpt lat="41.679258" lon="0.950456">
        <ele>234.244</ele>
        <time>2021-08-19T12:10:27Z</time>
      </trkpt>
      <trkpt lat="41.679262" lon="0.950379">
        <ele>234.118</ele>
        <time>2021-08-19T12:10:29Z</time>
      </trkpt>
      <trkpt lat="41.679256" lon="0.950306">
        <ele>234.108</ele>
        <time>2021-08-19T12:10:31Z</time>
      </trkpt>
      <trkpt lat="41.679240" lon="0.950242">
        <ele>234.384</ele>
        <time>2021-08-19T12:10:33Z</time>
      </trkpt>
      <trkpt lat="41.679238" lon="0.950160">
        <ele>234.717</ele>
        <time>2021-08-19T12:10:36Z</time>
      </trkpt>
      <trkpt lat="41.679231" lon="0.950095">
        <ele>235.030</ele>
        <time>2021-08-19T12:10:39Z</time>
      </trkpt>
      <trkpt lat="41.679235" lon="0.950022">
        <ele>235.221</ele>
        <time>2021-08-19T12:10:42Z</time>
      </trkpt>
      <trkpt lat="41.679227" lon="0.949936">
        <ele>235.338</ele>
        <time>2021-08-19T12:10:45Z</time>
      </trkpt>
      <trkpt lat="41.679216" lon="0.949855">
        <ele>235.436</ele>
        <time>2021-08-19T12:10:48Z</time>
      </trkpt>
      <trkpt lat="41.679186" lon="0.949808">
        <ele>235.775</ele>
        <time>2021-08-19T12:10:50Z</time>
      </trkpt>
      <trkpt lat="41.679171" lon="0.949750">
        <ele>235.954</ele>
        <time>2021-08-19T12:10:52Z</time>
      </trkpt>
      <trkpt lat="41.679161" lon="0.949672">
        <ele>236.264</ele>
        <time>2021-08-19T12:10:54Z</time>
      </trkpt>
      <trkpt lat="41.679158" lon="0.949602">
        <ele>236.206</ele>
        <time>2021-08-19T12:10:56Z</time>
      </trkpt>
      <trkpt lat="41.679145" lon="0.949515">
        <ele>236.616</ele>
        <time>2021-08-19T12:10:59Z</time>
      </trkpt>
      <trkpt lat="41.679138" lon="0.949441">
        <ele>236.708</ele>
        <time>2021-08-19T12:11:01Z</time>
      </trkpt>
      <trkpt lat="41.679122" lon="0.949371">
        <ele>236.614</ele>
        <time>2021-08-19T12:11:03Z</time>
      </trkpt>
      <trkpt lat="41.679116" lon="0.949286">
        <ele>236.197</ele>
        <time>2021-08-19T12:11:06Z</time>
      </trkpt>
      <trkpt lat="41.679112" lon="0.949195">
        <ele>235.670</ele>
        <time>2021-08-19T12:11:08Z</time>
      </trkpt>
      <trkpt lat="41.679106" lon="0.949114">
        <ele>235.211</ele>
        <time>2021-08-19T12:11:10Z</time>
      </trkpt>
      <trkpt lat="41.679103" lon="0.949038">
        <ele>234.778</ele>
        <time>2021-08-19T12:11:12Z</time>
      </trkpt>
      <trkpt lat="41.679089" lon="0.948957">
        <ele>234.486</ele>
        <time>2021-08-19T12:11:14Z</time>
      </trkpt>
      <trkpt lat="41.679083" lon="0.948873">
        <ele>234.135</ele>
        <time>2021-08-19T12:11:16Z</time>
      </trkpt>
      <trkpt lat="41.679071" lon="0.948793">
        <ele>234.554</ele>
        <time>2021-08-19T12:11:18Z</time>
      </trkpt>
      <trkpt lat="41.679059" lon="0.948708">
        <ele>235.019</ele>
        <time>2021-08-19T12:11:20Z</time>
      </trkpt>
      <trkpt lat="41.679051" lon="0.948628">
        <ele>235.309</ele>
        <time>2021-08-19T12:11:22Z</time>
      </trkpt>
      <trkpt lat="41.679053" lon="0.948553">
        <ele>235.419</ele>
        <time>2021-08-19T12:11:24Z</time>
      </trkpt>
      <trkpt lat="41.679050" lon="0.948452">
        <ele>235.708</ele>
        <time>2021-08-19T12:11:26Z</time>
      </trkpt>
      <trkpt lat="41.679060" lon="0.948343">
        <ele>235.759</ele>
        <time>2021-08-19T12:11:28Z</time>
      </trkpt>
      <trkpt lat="41.679066" lon="0.948243">
        <ele>235.112</ele>
        <time>2021-08-19T12:11:30Z</time>
      </trkpt>
      <trkpt lat="41.679063" lon="0.948156">
        <ele>234.725</ele>
        <time>2021-08-19T12:11:32Z</time>
      </trkpt>
      <trkpt lat="41.679062" lon="0.948062">
        <ele>234.356</ele>
        <time>2021-08-19T12:11:34Z</time>
      </trkpt>
      <trkpt lat="41.679050" lon="0.947986">
        <ele>234.633</ele>
        <time>2021-08-19T12:11:36Z</time>
      </trkpt>
      <trkpt lat="41.679033" lon="0.947878">
        <ele>234.921</ele>
        <time>2021-08-19T12:11:38Z</time>
      </trkpt>
      <trkpt lat="41.679013" lon="0.947796">
        <ele>235.250</ele>
        <time>2021-08-19T12:11:40Z</time>
      </trkpt>
      <trkpt lat="41.679004" lon="0.947722">
        <ele>235.379</ele>
        <time>2021-08-19T12:11:42Z</time>
      </trkpt>
      <trkpt lat="41.678992" lon="0.947655">
        <ele>235.438</ele>
        <time>2021-08-19T12:11:44Z</time>
      </trkpt>
      <trkpt lat="41.678981" lon="0.947589">
        <ele>235.470</ele>
        <time>2021-08-19T12:11:46Z</time>
      </trkpt>
      <trkpt lat="41.678963" lon="0.947521">
        <ele>235.517</ele>
        <time>2021-08-19T12:11:48Z</time>
      </trkpt>
      <trkpt lat="41.678939" lon="0.947445">
        <ele>235.608</ele>
        <time>2021-08-19T12:11:50Z</time>
      </trkpt>
      <trkpt lat="41.678918" lon="0.947382">
        <ele>235.741</ele>
        <time>2021-08-19T12:11:52Z</time>
      </trkpt>
      <trkpt lat="41.678889" lon="0.947303">
        <ele>236.074</ele>
        <time>2021-08-19T12:11:54Z</time>
      </trkpt>
      <trkpt lat="41.678860" lon="0.947211">
        <ele>236.057</ele>
        <time>2021-08-19T12:11:56Z</time>
      </trkpt>
      <trkpt lat="41.678828" lon="0.947119">
        <ele>235.678</ele>
        <time>2021-08-19T12:11:58Z</time>
      </trkpt>
      <trkpt lat="41.678796" lon="0.947027">
        <ele>235.315</ele>
        <time>2021-08-19T12:12:00Z</time>
      </trkpt>
      <trkpt lat="41.678770" lon="0.946938">
        <ele>235.093</ele>
        <time>2021-08-19T12:12:02Z</time>
      </trkpt>
      <trkpt lat="41.678747" lon="0.946859">
        <ele>234.572</ele>
        <time>2021-08-19T12:12:04Z</time>
      </trkpt>
      <trkpt lat="41.678727" lon="0.946781">
        <ele>234.211</ele>
        <time>2021-08-19T12:12:06Z</time>
      </trkpt>
      <trkpt lat="41.678698" lon="0.946711">
        <ele>233.977</ele>
        <time>2021-08-19T12:12:08Z</time>
      </trkpt>
      <trkpt lat="41.678682" lon="0.946638">
        <ele>233.761</ele>
        <time>2021-08-19T12:12:10Z</time>
      </trkpt>
      <trkpt lat="41.678654" lon="0.946563">
        <ele>233.527</ele>
        <time>2021-08-19T12:12:12Z</time>
      </trkpt>
      <trkpt lat="41.678633" lon="0.946485">
        <ele>233.308</ele>
        <time>2021-08-19T12:12:14Z</time>
      </trkpt>
      <trkpt lat="41.678608" lon="0.946413">
        <ele>233.145</ele>
        <time>2021-08-19T12:12:16Z</time>
      </trkpt>
      <trkpt lat="41.678590" lon="0.946343">
        <ele>233.088</ele>
        <time>2021-08-19T12:12:18Z</time>
      </trkpt>
      <trkpt lat="41.678570" lon="0.946283">
        <ele>232.911</ele>
        <time>2021-08-19T12:12:20Z</time>
      </trkpt>
      <trkpt lat="41.678552" lon="0.946224">
        <ele>232.842</ele>
        <time>2021-08-19T12:12:22Z</time>
      </trkpt>
      <trkpt lat="41.678538" lon="0.946162">
        <ele>232.549</ele>
        <time>2021-08-19T12:12:24Z</time>
      </trkpt>
      <trkpt lat="41.678518" lon="0.946102">
        <ele>232.357</ele>
        <time>2021-08-19T12:12:26Z</time>
      </trkpt>
      <trkpt lat="41.678508" lon="0.946026">
        <ele>232.016</ele>
        <time>2021-08-19T12:12:29Z</time>
      </trkpt>
      <trkpt lat="41.678562" lon="0.945991">
        <ele>231.715</ele>
        <time>2021-08-19T12:12:32Z</time>
      </trkpt>
      <trkpt lat="41.678631" lon="0.945990">
        <ele>231.687</ele>
        <time>2021-08-19T12:12:35Z</time>
      </trkpt>
      <trkpt lat="41.678692" lon="0.945975">
        <ele>231.742</ele>
        <time>2021-08-19T12:12:38Z</time>
      </trkpt>
      <trkpt lat="41.678737" lon="0.945969">
        <ele>231.726</ele>
        <time>2021-08-19T12:12:40Z</time>
      </trkpt>
      <trkpt lat="41.678792" lon="0.945953">
        <ele>231.808</ele>
        <time>2021-08-19T12:12:43Z</time>
      </trkpt>
      <trkpt lat="41.678844" lon="0.945950">
        <ele>231.936</ele>
        <time>2021-08-19T12:16:18Z</time>
      </trkpt>
      <trkpt lat="41.678795" lon="0.945956">
        <ele>231.859</ele>
        <time>2021-08-19T12:20:21Z</time>
      </trkpt>
      <trkpt lat="41.678748" lon="0.945984">
        <ele>231.852</ele>
        <time>2021-08-19T12:21:04Z</time>
      </trkpt>
      <trkpt lat="41.678696" lon="0.946013">
        <ele>231.863</ele>
        <time>2021-08-19T12:21:09Z</time>
      </trkpt>
      <trkpt lat="41.678649" lon="0.946014">
        <ele>231.780</ele>
        <time>2021-08-19T12:21:11Z</time>
      </trkpt>
      <trkpt lat="41.678600" lon="0.946023">
        <ele>231.728</ele>
        <time>2021-08-19T12:21:13Z</time>
      </trkpt>
      <trkpt lat="41.678548" lon="0.946027">
        <ele>231.917</ele>
        <time>2021-08-19T12:21:15Z</time>
      </trkpt>
      <trkpt lat="41.678501" lon="0.946031">
        <ele>232.066</ele>
        <time>2021-08-19T12:21:18Z</time>
      </trkpt>
      <trkpt lat="41.678459" lon="0.945985">
        <ele>231.817</ele>
        <time>2021-08-19T12:21:22Z</time>
      </trkpt>
      <trkpt lat="41.678420" lon="0.945940">
        <ele>231.687</ele>
        <time>2021-08-19T12:21:25Z</time>
      </trkpt>
      <trkpt lat="41.678362" lon="0.945936">
        <ele>231.715</ele>
        <time>2021-08-19T12:21:28Z</time>
      </trkpt>
      <trkpt lat="41.678307" lon="0.945950">
        <ele>232.208</ele>
        <time>2021-08-19T12:21:30Z</time>
      </trkpt>
      <trkpt lat="41.678249" lon="0.945956">
        <ele>232.919</ele>
        <time>2021-08-19T12:21:33Z</time>
      </trkpt>
      <trkpt lat="41.678202" lon="0.945912">
        <ele>233.192</ele>
        <time>2021-08-19T12:21:36Z</time>
      </trkpt>
      <trkpt lat="41.678177" lon="0.945855">
        <ele>232.915</ele>
        <time>2021-08-19T12:21:38Z</time>
      </trkpt>
      <trkpt lat="41.678158" lon="0.945782">
        <ele>232.976</ele>
        <time>2021-08-19T12:21:40Z</time>
      </trkpt>
      <trkpt lat="41.678143" lon="0.945711">
        <ele>233.153</ele>
        <time>2021-08-19T12:21:42Z</time>
      </trkpt>
      <trkpt lat="41.678136" lon="0.945625">
        <ele>233.161</ele>
        <time>2021-08-19T12:21:44Z</time>
      </trkpt>
      <trkpt lat="41.678126" lon="0.945548">
        <ele>233.360</ele>
        <time>2021-08-19T12:21:46Z</time>
      </trkpt>
      <trkpt lat="41.678117" lon="0.945464">
        <ele>233.889</ele>
        <time>2021-08-19T12:21:48Z</time>
      </trkpt>
      <trkpt lat="41.678096" lon="0.945383">
        <ele>234.694</ele>
        <time>2021-08-19T12:21:50Z</time>
      </trkpt>
      <trkpt lat="41.678087" lon="0.945299">
        <ele>235.357</ele>
        <time>2021-08-19T12:21:52Z</time>
      </trkpt>
      <trkpt lat="41.678076" lon="0.945215">
        <ele>235.622</ele>
        <time>2021-08-19T12:21:54Z</time>
      </trkpt>
      <trkpt lat="41.678060" lon="0.945145">
        <ele>235.908</ele>
        <time>2021-08-19T12:21:56Z</time>
      </trkpt>
      <trkpt lat="41.678051" lon="0.945058">
        <ele>236.187</ele>
        <time>2021-08-19T12:21:58Z</time>
      </trkpt>
      <trkpt lat="41.678035" lon="0.944977">
        <ele>236.470</ele>
        <time>2021-08-19T12:22:00Z</time>
      </trkpt>
      <trkpt lat="41.678024" lon="0.944910">
        <ele>236.733</ele>
        <time>2021-08-19T12:22:02Z</time>
      </trkpt>
      <trkpt lat="41.678015" lon="0.944843">
        <ele>237.154</ele>
        <time>2021-08-19T12:22:04Z</time>
      </trkpt>
      <trkpt lat="41.678007" lon="0.944743">
        <ele>237.571</ele>
        <time>2021-08-19T12:22:06Z</time>
      </trkpt>
      <trkpt lat="41.677995" lon="0.944657">
        <ele>237.349</ele>
        <time>2021-08-19T12:22:08Z</time>
      </trkpt>
      <trkpt lat="41.677977" lon="0.944582">
        <ele>237.338</ele>
        <time>2021-08-19T12:22:10Z</time>
      </trkpt>
      <trkpt lat="41.677962" lon="0.944510">
        <ele>237.347</ele>
        <time>2021-08-19T12:22:12Z</time>
      </trkpt>
      <trkpt lat="41.677944" lon="0.944438">
        <ele>237.479</ele>
        <time>2021-08-19T12:22:14Z</time>
      </trkpt>
      <trkpt lat="41.677937" lon="0.944363">
        <ele>237.005</ele>
        <time>2021-08-19T12:22:16Z</time>
      </trkpt>
      <trkpt lat="41.677915" lon="0.944291">
        <ele>236.925</ele>
        <time>2021-08-19T12:22:18Z</time>
      </trkpt>
      <trkpt lat="41.677903" lon="0.944210">
        <ele>236.508</ele>
        <time>2021-08-19T12:22:20Z</time>
      </trkpt>
      <trkpt lat="41.677900" lon="0.944120">
        <ele>236.185</ele>
        <time>2021-08-19T12:22:22Z</time>
      </trkpt>
      <trkpt lat="41.677890" lon="0.944028">
        <ele>236.058</ele>
        <time>2021-08-19T12:22:24Z</time>
      </trkpt>
      <trkpt lat="41.677878" lon="0.943944">
        <ele>236.051</ele>
        <time>2021-08-19T12:22:26Z</time>
      </trkpt>
      <trkpt lat="41.677865" lon="0.943864">
        <ele>236.072</ele>
        <time>2021-08-19T12:22:28Z</time>
      </trkpt>
      <trkpt lat="41.677859" lon="0.943783">
        <ele>235.659</ele>
        <time>2021-08-19T12:22:30Z</time>
      </trkpt>
      <trkpt lat="41.677843" lon="0.943714">
        <ele>235.557</ele>
        <time>2021-08-19T12:22:32Z</time>
      </trkpt>
      <trkpt lat="41.677838" lon="0.943629">
        <ele>235.016</ele>
        <time>2021-08-19T12:22:34Z</time>
      </trkpt>
      <trkpt lat="41.677828" lon="0.943548">
        <ele>235.365</ele>
        <time>2021-08-19T12:22:36Z</time>
      </trkpt>
      <trkpt lat="41.677818" lon="0.943470">
        <ele>235.772</ele>
        <time>2021-08-19T12:22:38Z</time>
      </trkpt>
      <trkpt lat="41.677814" lon="0.943395">
        <ele>236.013</ele>
        <time>2021-08-19T12:22:40Z</time>
      </trkpt>
      <trkpt lat="41.677802" lon="0.943313">
        <ele>236.614</ele>
        <time>2021-08-19T12:22:42Z</time>
      </trkpt>
      <trkpt lat="41.677792" lon="0.943226">
        <ele>237.408</ele>
        <time>2021-08-19T12:22:44Z</time>
      </trkpt>
      <trkpt lat="41.677787" lon="0.943141">
        <ele>238.285</ele>
        <time>2021-08-19T12:22:46Z</time>
      </trkpt>
      <trkpt lat="41.677778" lon="0.943056">
        <ele>239.088</ele>
        <time>2021-08-19T12:22:48Z</time>
      </trkpt>
      <trkpt lat="41.677771" lon="0.942963">
        <ele>239.911</ele>
        <time>2021-08-19T12:22:50Z</time>
      </trkpt>
      <trkpt lat="41.677769" lon="0.942872">
        <ele>240.672</ele>
        <time>2021-08-19T12:22:52Z</time>
      </trkpt>
      <trkpt lat="41.677774" lon="0.942792">
        <ele>241.029</ele>
        <time>2021-08-19T12:22:54Z</time>
      </trkpt>
      <trkpt lat="41.677781" lon="0.942705">
        <ele>240.657</ele>
        <time>2021-08-19T12:22:56Z</time>
      </trkpt>
      <trkpt lat="41.677791" lon="0.942615">
        <ele>240.056</ele>
        <time>2021-08-19T12:22:58Z</time>
      </trkpt>
      <trkpt lat="41.677809" lon="0.942542">
        <ele>239.335</ele>
        <time>2021-08-19T12:23:00Z</time>
      </trkpt>
      <trkpt lat="41.677824" lon="0.942476">
        <ele>238.862</ele>
        <time>2021-08-19T12:23:01Z</time>
      </trkpt>
      <trkpt lat="41.677835" lon="0.942411">
        <ele>238.683</ele>
        <time>2021-08-19T12:23:02Z</time>
      </trkpt>
      <trkpt lat="41.677849" lon="0.942322">
        <ele>238.411</ele>
        <time>2021-08-19T12:23:04Z</time>
      </trkpt>
      <trkpt lat="41.677857" lon="0.942231">
        <ele>238.308</ele>
        <time>2021-08-19T12:23:06Z</time>
      </trkpt>
      <trkpt lat="41.677872" lon="0.942145">
        <ele>238.054</ele>
        <time>2021-08-19T12:23:08Z</time>
      </trkpt>
      <trkpt lat="41.677879" lon="0.942058">
        <ele>237.997</ele>
        <time>2021-08-19T12:23:10Z</time>
      </trkpt>
      <trkpt lat="41.677882" lon="0.941967">
        <ele>237.970</ele>
        <time>2021-08-19T12:23:12Z</time>
      </trkpt>
      <trkpt lat="41.677893" lon="0.941885">
        <ele>237.911</ele>
        <time>2021-08-19T12:23:14Z</time>
      </trkpt>
      <trkpt lat="41.677903" lon="0.941809">
        <ele>237.928</ele>
        <time>2021-08-19T12:23:16Z</time>
      </trkpt>
      <trkpt lat="41.677905" lon="0.941738">
        <ele>238.056</ele>
        <time>2021-08-19T12:23:18Z</time>
      </trkpt>
      <trkpt lat="41.677913" lon="0.941668">
        <ele>238.145</ele>
        <time>2021-08-19T12:23:20Z</time>
      </trkpt>
      <trkpt lat="41.677909" lon="0.941582">
        <ele>237.884</ele>
        <time>2021-08-19T12:23:22Z</time>
      </trkpt>
      <trkpt lat="41.677901" lon="0.941497">
        <ele>237.546</ele>
        <time>2021-08-19T12:23:24Z</time>
      </trkpt>
      <trkpt lat="41.677892" lon="0.941413">
        <ele>237.388</ele>
        <time>2021-08-19T12:23:26Z</time>
      </trkpt>
      <trkpt lat="41.677880" lon="0.941330">
        <ele>237.116</ele>
        <time>2021-08-19T12:23:28Z</time>
      </trkpt>
      <trkpt lat="41.677864" lon="0.941241">
        <ele>236.808</ele>
        <time>2021-08-19T12:23:30Z</time>
      </trkpt>
      <trkpt lat="41.677839" lon="0.941178">
        <ele>236.832</ele>
        <time>2021-08-19T12:23:32Z</time>
      </trkpt>
      <trkpt lat="41.677813" lon="0.941080">
        <ele>236.535</ele>
        <time>2021-08-19T12:23:34Z</time>
      </trkpt>
      <trkpt lat="41.677789" lon="0.940995">
        <ele>236.128</ele>
        <time>2021-08-19T12:23:36Z</time>
      </trkpt>
      <trkpt lat="41.677768" lon="0.940913">
        <ele>235.779</ele>
        <time>2021-08-19T12:23:38Z</time>
      </trkpt>
      <trkpt lat="41.677750" lon="0.940836">
        <ele>235.366</ele>
        <time>2021-08-19T12:23:40Z</time>
      </trkpt>
      <trkpt lat="41.677731" lon="0.940755">
        <ele>235.224</ele>
        <time>2021-08-19T12:23:42Z</time>
      </trkpt>
      <trkpt lat="41.677714" lon="0.940681">
        <ele>235.163</ele>
        <time>2021-08-19T12:23:44Z</time>
      </trkpt>
      <trkpt lat="41.677690" lon="0.940614">
        <ele>235.292</ele>
        <time>2021-08-19T12:23:46Z</time>
      </trkpt>
      <trkpt lat="41.677677" lon="0.940541">
        <ele>235.177</ele>
        <time>2021-08-19T12:23:48Z</time>
      </trkpt>
      <trkpt lat="41.677668" lon="0.940461">
        <ele>235.161</ele>
        <time>2021-08-19T12:23:50Z</time>
      </trkpt>
      <trkpt lat="41.677666" lon="0.940380">
        <ele>235.027</ele>
        <time>2021-08-19T12:23:52Z</time>
      </trkpt>
      <trkpt lat="41.677672" lon="0.940294">
        <ele>234.808</ele>
        <time>2021-08-19T12:23:54Z</time>
      </trkpt>
      <trkpt lat="41.677676" lon="0.940219">
        <ele>234.755</ele>
        <time>2021-08-19T12:23:56Z</time>
      </trkpt>
      <trkpt lat="41.677673" lon="0.940140">
        <ele>234.658</ele>
        <time>2021-08-19T12:23:58Z</time>
      </trkpt>
      <trkpt lat="41.677669" lon="0.940069">
        <ele>234.581</ele>
        <time>2021-08-19T12:24:00Z</time>
      </trkpt>
      <trkpt lat="41.677672" lon="0.940005">
        <ele>234.442</ele>
        <time>2021-08-19T12:24:02Z</time>
      </trkpt>
      <trkpt lat="41.677681" lon="0.939904">
        <ele>234.099</ele>
        <time>2021-08-19T12:24:05Z</time>
      </trkpt>
      <trkpt lat="41.677685" lon="0.939812">
        <ele>233.757</ele>
        <time>2021-08-19T12:24:07Z</time>
      </trkpt>
      <trkpt lat="41.677691" lon="0.939720">
        <ele>233.366</ele>
        <time>2021-08-19T12:24:09Z</time>
      </trkpt>
      <trkpt lat="41.677686" lon="0.939634">
        <ele>233.145</ele>
        <time>2021-08-19T12:24:11Z</time>
      </trkpt>
      <trkpt lat="41.677688" lon="0.939534">
        <ele>232.929</ele>
        <time>2021-08-19T12:24:13Z</time>
      </trkpt>
      <trkpt lat="41.677675" lon="0.939442">
        <ele>232.700</ele>
        <time>2021-08-19T12:24:15Z</time>
      </trkpt>
      <trkpt lat="41.677668" lon="0.939349">
        <ele>232.820</ele>
        <time>2021-08-19T12:24:17Z</time>
      </trkpt>
      <trkpt lat="41.677675" lon="0.939251">
        <ele>232.708</ele>
        <time>2021-08-19T12:24:19Z</time>
      </trkpt>
      <trkpt lat="41.677683" lon="0.939171">
        <ele>232.750</ele>
        <time>2021-08-19T12:24:21Z</time>
      </trkpt>
      <trkpt lat="41.677696" lon="0.939085">
        <ele>232.973</ele>
        <time>2021-08-19T12:24:23Z</time>
      </trkpt>
      <trkpt lat="41.677703" lon="0.939017">
        <ele>233.186</ele>
        <time>2021-08-19T12:24:25Z</time>
      </trkpt>
      <trkpt lat="41.677696" lon="0.938933">
        <ele>233.457</ele>
        <time>2021-08-19T12:24:27Z</time>
      </trkpt>
      <trkpt lat="41.677695" lon="0.938844">
        <ele>233.534</ele>
        <time>2021-08-19T12:24:29Z</time>
      </trkpt>
      <trkpt lat="41.677702" lon="0.938777">
        <ele>233.432</ele>
        <time>2021-08-19T12:24:31Z</time>
      </trkpt>
      <trkpt lat="41.677707" lon="0.938707">
        <ele>233.351</ele>
        <time>2021-08-19T12:24:33Z</time>
      </trkpt>
      <trkpt lat="41.677716" lon="0.938609">
        <ele>233.250</ele>
        <time>2021-08-19T12:24:35Z</time>
      </trkpt>
      <trkpt lat="41.677720" lon="0.938532">
        <ele>232.976</ele>
        <time>2021-08-19T12:24:37Z</time>
      </trkpt>
      <trkpt lat="41.677716" lon="0.938451">
        <ele>232.690</ele>
        <time>2021-08-19T12:24:39Z</time>
      </trkpt>
      <trkpt lat="41.677725" lon="0.938381">
        <ele>232.419</ele>
        <time>2021-08-19T12:24:41Z</time>
      </trkpt>
      <trkpt lat="41.677737" lon="0.938310">
        <ele>232.108</ele>
        <time>2021-08-19T12:24:43Z</time>
      </trkpt>
      <trkpt lat="41.677727" lon="0.938238">
        <ele>231.955</ele>
        <time>2021-08-19T12:24:45Z</time>
      </trkpt>
      <trkpt lat="41.677737" lon="0.938166">
        <ele>231.688</ele>
        <time>2021-08-19T12:24:47Z</time>
      </trkpt>
      <trkpt lat="41.677741" lon="0.938086">
        <ele>231.471</ele>
        <time>2021-08-19T12:24:49Z</time>
      </trkpt>
      <trkpt lat="41.677753" lon="0.937996">
        <ele>231.222</ele>
        <time>2021-08-19T12:24:51Z</time>
      </trkpt>
      <trkpt lat="41.677767" lon="0.937931">
        <ele>231.129</ele>
        <time>2021-08-19T12:24:53Z</time>
      </trkpt>
      <trkpt lat="41.677759" lon="0.937869">
        <ele>231.257</ele>
        <time>2021-08-19T12:24:55Z</time>
      </trkpt>
      <trkpt lat="41.677771" lon="0.937807">
        <ele>231.186</ele>
        <time>2021-08-19T12:24:57Z</time>
      </trkpt>
      <trkpt lat="41.677776" lon="0.937735">
        <ele>231.245</ele>
        <time>2021-08-19T12:24:59Z</time>
      </trkpt>
      <trkpt lat="41.677781" lon="0.937666">
        <ele>231.418</ele>
        <time>2021-08-19T12:25:01Z</time>
      </trkpt>
      <trkpt lat="41.677804" lon="0.937566">
        <ele>231.798</ele>
        <time>2021-08-19T12:25:04Z</time>
      </trkpt>
      <trkpt lat="41.677817" lon="0.937480">
        <ele>231.917</ele>
        <time>2021-08-19T12:25:06Z</time>
      </trkpt>
      <trkpt lat="41.677825" lon="0.937417">
        <ele>232.108</ele>
        <time>2021-08-19T12:25:08Z</time>
      </trkpt>
      <trkpt lat="41.677832" lon="0.937356">
        <ele>232.219</ele>
        <time>2021-08-19T12:25:09Z</time>
      </trkpt>
      <trkpt lat="41.677837" lon="0.937287">
        <ele>232.412</ele>
        <time>2021-08-19T12:25:11Z</time>
      </trkpt>
      <trkpt lat="41.677848" lon="0.937198">
        <ele>232.665</ele>
        <time>2021-08-19T12:25:13Z</time>
      </trkpt>
      <trkpt lat="41.677861" lon="0.937132">
        <ele>232.756</ele>
        <time>2021-08-19T12:25:15Z</time>
      </trkpt>
      <trkpt lat="41.677884" lon="0.937048">
        <ele>232.923</ele>
        <time>2021-08-19T12:25:17Z</time>
      </trkpt>
      <trkpt lat="41.677887" lon="0.936986">
        <ele>233.151</ele>
        <time>2021-08-19T12:25:19Z</time>
      </trkpt>
      <trkpt lat="41.677921" lon="0.936903">
        <ele>233.180</ele>
        <time>2021-08-19T12:25:22Z</time>
      </trkpt>
      <trkpt lat="41.677943" lon="0.936846">
        <ele>233.219</ele>
        <time>2021-08-19T12:25:24Z</time>
      </trkpt>
      <trkpt lat="41.677989" lon="0.936811">
        <ele>233.075</ele>
        <time>2021-08-19T12:25:27Z</time>
      </trkpt>
      <trkpt lat="41.678035" lon="0.936811">
        <ele>232.628</ele>
        <time>2021-08-19T12:25:30Z</time>
      </trkpt>
      <trkpt lat="41.678085" lon="0.936794">
        <ele>232.520</ele>
        <time>2021-08-19T12:25:34Z</time>
      </trkpt>
      <trkpt lat="41.678143" lon="0.936773">
        <ele>232.408</ele>
        <time>2021-08-19T12:25:37Z</time>
      </trkpt>
      <trkpt lat="41.678207" lon="0.936766">
        <ele>232.385</ele>
        <time>2021-08-19T12:25:39Z</time>
      </trkpt>
      <trkpt lat="41.678258" lon="0.936764">
        <ele>232.238</ele>
        <time>2021-08-19T12:25:41Z</time>
      </trkpt>
      <trkpt lat="41.678311" lon="0.936767">
        <ele>232.191</ele>
        <time>2021-08-19T12:25:43Z</time>
      </trkpt>
      <trkpt lat="41.678367" lon="0.936744">
        <ele>232.122</ele>
        <time>2021-08-19T12:25:46Z</time>
      </trkpt>
      <trkpt lat="41.678428" lon="0.936727">
        <ele>232.369</ele>
        <time>2021-08-19T12:25:49Z</time>
      </trkpt>
      <trkpt lat="41.678480" lon="0.936715">
        <ele>232.567</ele>
        <time>2021-08-19T12:25:51Z</time>
      </trkpt>
      <trkpt lat="41.678533" lon="0.936718">
        <ele>232.746</ele>
        <time>2021-08-19T12:25:53Z</time>
      </trkpt>
      <trkpt lat="41.678583" lon="0.936706">
        <ele>232.925</ele>
        <time>2021-08-19T12:25:55Z</time>
      </trkpt>
      <trkpt lat="41.678634" lon="0.936697">
        <ele>233.154</ele>
        <time>2021-08-19T12:25:58Z</time>
      </trkpt>
      <trkpt lat="41.678688" lon="0.936696">
        <ele>233.256</ele>
        <time>2021-08-19T12:26:00Z</time>
      </trkpt>
      <trkpt lat="41.678740" lon="0.936678">
        <ele>233.411</ele>
        <time>2021-08-19T12:26:04Z</time>
      </trkpt>
      <trkpt lat="41.678786" lon="0.936666">
        <ele>233.608</ele>
        <time>2021-08-19T12:26:14Z</time>
      </trkpt>
      <trkpt lat="41.678851" lon="0.936649">
        <ele>233.943</ele>
        <time>2021-08-19T12:26:17Z</time>
      </trkpt>
      <trkpt lat="41.678905" lon="0.936643">
        <ele>233.996</ele>
        <time>2021-08-19T12:26:19Z</time>
      </trkpt>
      <trkpt lat="41.678951" lon="0.936641">
        <ele>233.869</ele>
        <time>2021-08-19T12:26:20Z</time>
      </trkpt>
      <trkpt lat="41.678996" lon="0.936630">
        <ele>233.750</ele>
        <time>2021-08-19T12:26:22Z</time>
      </trkpt>
      <trkpt lat="41.679044" lon="0.936626">
        <ele>233.527</ele>
        <time>2021-08-19T12:26:24Z</time>
      </trkpt>
      <trkpt lat="41.679095" lon="0.936617">
        <ele>233.425</ele>
        <time>2021-08-19T12:26:26Z</time>
      </trkpt>
      <trkpt lat="41.679154" lon="0.936593">
        <ele>233.394</ele>
        <time>2021-08-19T12:26:28Z</time>
      </trkpt>
      <trkpt lat="41.679216" lon="0.936553">
        <ele>233.313</ele>
        <time>2021-08-19T12:26:31Z</time>
      </trkpt>
      <trkpt lat="41.679272" lon="0.936516">
        <ele>233.393</ele>
        <time>2021-08-19T12:26:33Z</time>
      </trkpt>
      <trkpt lat="41.679309" lon="0.936470">
        <ele>233.365</ele>
        <time>2021-08-19T12:26:35Z</time>
      </trkpt>
      <trkpt lat="41.679347" lon="0.936433">
        <ele>233.321</ele>
        <time>2021-08-19T12:26:37Z</time>
      </trkpt>
      <trkpt lat="41.679387" lon="0.936383">
        <ele>233.208</ele>
        <time>2021-08-19T12:26:39Z</time>
      </trkpt>
      <trkpt lat="41.679421" lon="0.936340">
        <ele>232.737</ele>
        <time>2021-08-19T12:26:41Z</time>
      </trkpt>
      <trkpt lat="41.679460" lon="0.936287">
        <ele>232.350</ele>
        <time>2021-08-19T12:26:43Z</time>
      </trkpt>
      <trkpt lat="41.679497" lon="0.936227">
        <ele>231.843</ele>
        <time>2021-08-19T12:26:45Z</time>
      </trkpt>
      <trkpt lat="41.679540" lon="0.936183">
        <ele>231.594</ele>
        <time>2021-08-19T12:26:47Z</time>
      </trkpt>
      <trkpt lat="41.679588" lon="0.936142">
        <ele>231.281</ele>
        <time>2021-08-19T12:26:49Z</time>
      </trkpt>
      <trkpt lat="41.679635" lon="0.936085">
        <ele>230.739</ele>
        <time>2021-08-19T12:26:51Z</time>
      </trkpt>
      <trkpt lat="41.679673" lon="0.936031">
        <ele>230.218</ele>
        <time>2021-08-19T12:26:53Z</time>
      </trkpt>
      <trkpt lat="41.679708" lon="0.935988">
        <ele>229.717</ele>
        <time>2021-08-19T12:26:54Z</time>
      </trkpt>
      <trkpt lat="41.679765" lon="0.935930">
        <ele>229.719</ele>
        <time>2021-08-19T12:26:57Z</time>
      </trkpt>
      <trkpt lat="41.679801" lon="0.935886">
        <ele>229.909</ele>
        <time>2021-08-19T12:26:59Z</time>
      </trkpt>
      <trkpt lat="41.679836" lon="0.935838">
        <ele>230.119</ele>
        <time>2021-08-19T12:27:01Z</time>
      </trkpt>
      <trkpt lat="41.679886" lon="0.935787">
        <ele>231.008</ele>
        <time>2021-08-19T12:27:03Z</time>
      </trkpt>
      <trkpt lat="41.679925" lon="0.935738">
        <ele>231.789</ele>
        <time>2021-08-19T12:27:05Z</time>
      </trkpt>
      <trkpt lat="41.679967" lon="0.935695">
        <ele>232.542</ele>
        <time>2021-08-19T12:27:07Z</time>
      </trkpt>
      <trkpt lat="41.680020" lon="0.935660">
        <ele>233.465</ele>
        <time>2021-08-19T12:27:10Z</time>
      </trkpt>
      <trkpt lat="41.680062" lon="0.935703">
        <ele>234.326</ele>
        <time>2021-08-19T12:27:12Z</time>
      </trkpt>
      <trkpt lat="41.680085" lon="0.935758">
        <ele>234.813</ele>
        <time>2021-08-19T12:27:14Z</time>
      </trkpt>
      <trkpt lat="41.680117" lon="0.935851">
        <ele>235.541</ele>
        <time>2021-08-19T12:27:16Z</time>
      </trkpt>
      <trkpt lat="41.680138" lon="0.935910">
        <ele>236.080</ele>
        <time>2021-08-19T12:27:17Z</time>
      </trkpt>
      <trkpt lat="41.680172" lon="0.935978">
        <ele>236.699</ele>
        <time>2021-08-19T12:27:19Z</time>
      </trkpt>
      <trkpt lat="41.680206" lon="0.936048">
        <ele>237.188</ele>
        <time>2021-08-19T12:27:21Z</time>
      </trkpt>
      <trkpt lat="41.680228" lon="0.936108">
        <ele>237.324</ele>
        <time>2021-08-19T12:27:23Z</time>
      </trkpt>
      <trkpt lat="41.680250" lon="0.936170">
        <ele>237.426</ele>
        <time>2021-08-19T12:27:25Z</time>
      </trkpt>
      <trkpt lat="41.680275" lon="0.936246">
        <ele>237.508</ele>
        <time>2021-08-19T12:27:28Z</time>
      </trkpt>
      <trkpt lat="41.680297" lon="0.936312">
        <ele>237.426</ele>
        <time>2021-08-19T12:27:30Z</time>
      </trkpt>
      <trkpt lat="41.680317" lon="0.936367">
        <ele>237.269</ele>
        <time>2021-08-19T12:27:32Z</time>
      </trkpt>
      <trkpt lat="41.680334" lon="0.936431">
        <ele>236.972</ele>
        <time>2021-08-19T12:27:34Z</time>
      </trkpt>
      <trkpt lat="41.680356" lon="0.936498">
        <ele>236.653</ele>
        <time>2021-08-19T12:27:36Z</time>
      </trkpt>
      <trkpt lat="41.680380" lon="0.936553">
        <ele>236.490</ele>
        <time>2021-08-19T12:27:39Z</time>
      </trkpt>
      <trkpt lat="41.680404" lon="0.936613">
        <ele>236.218</ele>
        <time>2021-08-19T12:27:41Z</time>
      </trkpt>
      <trkpt lat="41.680435" lon="0.936685">
        <ele>236.037</ele>
        <time>2021-08-19T12:27:44Z</time>
      </trkpt>
      <trkpt lat="41.680469" lon="0.936753">
        <ele>236.096</ele>
        <time>2021-08-19T12:27:47Z</time>
      </trkpt>
      <trkpt lat="41.680494" lon="0.936827">
        <ele>235.998</ele>
        <time>2021-08-19T12:27:50Z</time>
      </trkpt>
      <trkpt lat="41.680523" lon="0.936882">
        <ele>235.915</ele>
        <time>2021-08-19T12:27:52Z</time>
      </trkpt>
      <trkpt lat="41.680559" lon="0.936943">
        <ele>236.026</ele>
        <time>2021-08-19T12:27:56Z</time>
      </trkpt>
      <trkpt lat="41.680590" lon="0.936995">
        <ele>235.908</ele>
        <time>2021-08-19T12:28:00Z</time>
      </trkpt>
      <trkpt lat="41.680615" lon="0.937060">
        <ele>235.657</ele>
        <time>2021-08-19T12:28:04Z</time>
      </trkpt>
      <trkpt lat="41.680651" lon="0.937124">
        <ele>235.460</ele>
        <time>2021-08-19T12:28:07Z</time>
      </trkpt>
      <trkpt lat="41.680688" lon="0.937183">
        <ele>235.263</ele>
        <time>2021-08-19T12:28:10Z</time>
      </trkpt>
      <trkpt lat="41.680720" lon="0.937233">
        <ele>235.134</ele>
        <time>2021-08-19T12:28:13Z</time>
      </trkpt>
      <trkpt lat="41.680736" lon="0.937290">
        <ele>235.191</ele>
        <time>2021-08-19T12:28:16Z</time>
      </trkpt>
      <trkpt lat="41.680781" lon="0.937339">
        <ele>235.269</ele>
        <time>2021-08-19T12:28:19Z</time>
      </trkpt>
      <trkpt lat="41.680833" lon="0.937393">
        <ele>235.438</ele>
        <time>2021-08-19T12:28:22Z</time>
      </trkpt>
      <trkpt lat="41.680873" lon="0.937434">
        <ele>235.367</ele>
        <time>2021-08-19T12:28:24Z</time>
      </trkpt>
      <trkpt lat="41.680911" lon="0.937470">
        <ele>235.178</ele>
        <time>2021-08-19T12:28:26Z</time>
      </trkpt>
      <trkpt lat="41.680958" lon="0.937502">
        <ele>235.033</ele>
        <time>2021-08-19T12:28:28Z</time>
      </trkpt>
      <trkpt lat="41.681006" lon="0.937529">
        <ele>234.826</ele>
        <time>2021-08-19T12:28:31Z</time>
      </trkpt>
      <trkpt lat="41.681052" lon="0.937557">
        <ele>234.608</ele>
        <time>2021-08-19T12:28:34Z</time>
      </trkpt>
      <trkpt lat="41.681111" lon="0.937543">
        <ele>234.725</ele>
        <time>2021-08-19T12:28:37Z</time>
      </trkpt>
      <trkpt lat="41.681152" lon="0.937516">
        <ele>234.948</ele>
        <time>2021-08-19T12:28:39Z</time>
      </trkpt>
      <trkpt lat="41.681197" lon="0.937498">
        <ele>235.071</ele>
        <time>2021-08-19T12:28:44Z</time>
      </trkpt>
      <trkpt lat="41.681242" lon="0.937476">
        <ele>235.182</ele>
        <time>2021-08-19T12:28:49Z</time>
      </trkpt>
      <trkpt lat="41.681283" lon="0.937450">
        <ele>235.249</ele>
        <time>2021-08-19T12:28:54Z</time>
      </trkpt>
      <trkpt lat="41.681279" lon="0.937514">
        <ele>234.997</ele>
        <time>2021-08-19T12:29:22Z</time>
      </trkpt>
      <trkpt lat="41.681321" lon="0.937473">
        <ele>235.196</ele>
        <time>2021-08-19T12:44:44Z</time>
      </trkpt>
      <trkpt lat="41.681366" lon="0.937454">
        <ele>235.255</ele>
        <time>2021-08-19T12:44:48Z</time>
      </trkpt>
      <trkpt lat="41.681410" lon="0.937416">
        <ele>235.211</ele>
        <time>2021-08-19T12:44:51Z</time>
      </trkpt>
      <trkpt lat="41.681446" lon="0.937356">
        <ele>235.321</ele>
        <time>2021-08-19T12:44:55Z</time>
      </trkpt>
      <trkpt lat="41.681482" lon="0.937309">
        <ele>235.403</ele>
        <time>2021-08-19T12:45:00Z</time>
      </trkpt>
      <trkpt lat="41.681513" lon="0.937256">
        <ele>235.408</ele>
        <time>2021-08-19T12:45:04Z</time>
      </trkpt>
      <trkpt lat="41.681537" lon="0.937201">
        <ele>235.629</ele>
        <time>2021-08-19T12:45:06Z</time>
      </trkpt>
      <trkpt lat="41.681562" lon="0.937139">
        <ele>235.842</ele>
        <time>2021-08-19T12:45:08Z</time>
      </trkpt>
      <trkpt lat="41.681583" lon="0.937069">
        <ele>236.045</ele>
        <time>2021-08-19T12:45:10Z</time>
      </trkpt>
      <trkpt lat="41.681603" lon="0.936966">
        <ele>236.476</ele>
        <time>2021-08-19T12:45:12Z</time>
      </trkpt>
      <trkpt lat="41.681617" lon="0.936896">
        <ele>236.573</ele>
        <time>2021-08-19T12:45:14Z</time>
      </trkpt>
      <trkpt lat="41.681632" lon="0.936839">
        <ele>236.631</ele>
        <time>2021-08-19T12:45:16Z</time>
      </trkpt>
      <trkpt lat="41.681649" lon="0.936778">
        <ele>236.740</ele>
        <time>2021-08-19T12:45:18Z</time>
      </trkpt>
      <trkpt lat="41.681653" lon="0.936715">
        <ele>236.929</ele>
        <time>2021-08-19T12:45:21Z</time>
      </trkpt>
      <trkpt lat="41.681673" lon="0.936659">
        <ele>236.986</ele>
        <time>2021-08-19T12:45:23Z</time>
      </trkpt>
      <trkpt lat="41.681708" lon="0.936594">
        <ele>236.260</ele>
        <time>2021-08-19T12:45:26Z</time>
      </trkpt>
      <trkpt lat="41.681734" lon="0.936525">
        <ele>235.626</ele>
        <time>2021-08-19T12:45:29Z</time>
      </trkpt>
      <trkpt lat="41.681755" lon="0.936470">
        <ele>235.208</ele>
        <time>2021-08-19T12:45:31Z</time>
      </trkpt>
      <trkpt lat="41.681770" lon="0.936399">
        <ele>234.946</ele>
        <time>2021-08-19T12:45:34Z</time>
      </trkpt>
      <trkpt lat="41.681790" lon="0.936329">
        <ele>234.899</ele>
        <time>2021-08-19T12:45:37Z</time>
      </trkpt>
      <trkpt lat="41.681818" lon="0.936278">
        <ele>234.562</ele>
        <time>2021-08-19T12:45:40Z</time>
      </trkpt>
      <trkpt lat="41.681833" lon="0.936212">
        <ele>234.533</ele>
        <time>2021-08-19T12:45:42Z</time>
      </trkpt>
      <trkpt lat="41.681853" lon="0.936156">
        <ele>234.370</ele>
        <time>2021-08-19T12:45:45Z</time>
      </trkpt>
      <trkpt lat="41.681867" lon="0.936098">
        <ele>234.268</ele>
        <time>2021-08-19T12:45:47Z</time>
      </trkpt>
      <trkpt lat="41.681876" lon="0.936026">
        <ele>234.337</ele>
        <time>2021-08-19T12:45:49Z</time>
      </trkpt>
      <trkpt lat="41.681892" lon="0.935951">
        <ele>234.336</ele>
        <time>2021-08-19T12:45:52Z</time>
      </trkpt>
      <trkpt lat="41.681913" lon="0.935871">
        <ele>234.312</ele>
        <time>2021-08-19T12:45:55Z</time>
      </trkpt>
      <trkpt lat="41.681926" lon="0.935795">
        <ele>234.432</ele>
        <time>2021-08-19T12:45:58Z</time>
      </trkpt>
      <trkpt lat="41.681938" lon="0.935724">
        <ele>234.505</ele>
        <time>2021-08-19T12:46:00Z</time>
      </trkpt>
      <trkpt lat="41.681947" lon="0.935665">
        <ele>234.608</ele>
        <time>2021-08-19T12:46:02Z</time>
      </trkpt>
      <trkpt lat="41.681965" lon="0.935594">
        <ele>234.879</ele>
        <time>2021-08-19T12:46:05Z</time>
      </trkpt>
      <trkpt lat="41.681973" lon="0.935528">
        <ele>235.132</ele>
        <time>2021-08-19T12:46:07Z</time>
      </trkpt>
      <trkpt lat="41.681978" lon="0.935461">
        <ele>235.625</ele>
        <time>2021-08-19T12:46:09Z</time>
      </trkpt>
      <trkpt lat="41.681978" lon="0.935398">
        <ele>236.146</ele>
        <time>2021-08-19T12:46:11Z</time>
      </trkpt>
      <trkpt lat="41.681959" lon="0.935328">
        <ele>236.623</ele>
        <time>2021-08-19T12:46:14Z</time>
      </trkpt>
      <trkpt lat="41.681922" lon="0.935270">
        <ele>237.471</ele>
        <time>2021-08-19T12:46:16Z</time>
      </trkpt>
      <trkpt lat="41.681888" lon="0.935227">
        <ele>238.390</ele>
        <time>2021-08-19T12:46:18Z</time>
      </trkpt>
      <trkpt lat="41.681843" lon="0.935196">
        <ele>239.169</ele>
        <time>2021-08-19T12:46:22Z</time>
      </trkpt>
      <trkpt lat="41.681801" lon="0.935166">
        <ele>239.964</ele>
        <time>2021-08-19T12:46:25Z</time>
      </trkpt>
      <trkpt lat="41.681761" lon="0.935133">
        <ele>240.506</ele>
        <time>2021-08-19T12:46:29Z</time>
      </trkpt>
      <trkpt lat="41.681711" lon="0.935101">
        <ele>241.216</ele>
        <time>2021-08-19T12:46:34Z</time>
      </trkpt>
      <trkpt lat="41.681667" lon="0.935066">
        <ele>241.808</ele>
        <time>2021-08-19T12:46:38Z</time>
      </trkpt>
      <trkpt lat="41.681608" lon="0.935040">
        <ele>242.154</ele>
        <time>2021-08-19T12:47:03Z</time>
      </trkpt>
      <trkpt lat="41.681575" lon="0.934992">
        <ele>242.377</ele>
        <time>2021-08-19T12:47:05Z</time>
      </trkpt>
      <trkpt lat="41.681525" lon="0.934962">
        <ele>242.510</ele>
        <time>2021-08-19T12:47:08Z</time>
      </trkpt>
      <trkpt lat="41.681481" lon="0.934923">
        <ele>242.711</ele>
        <time>2021-08-19T12:47:11Z</time>
      </trkpt>
      <trkpt lat="41.681433" lon="0.934872">
        <ele>242.838</ele>
        <time>2021-08-19T12:47:14Z</time>
      </trkpt>
      <trkpt lat="41.681385" lon="0.934829">
        <ele>243.016</ele>
        <time>2021-08-19T12:47:17Z</time>
      </trkpt>
      <trkpt lat="41.681335" lon="0.934792">
        <ele>243.035</ele>
        <time>2021-08-19T12:47:20Z</time>
      </trkpt>
      <trkpt lat="41.681286" lon="0.934749">
        <ele>243.044</ele>
        <time>2021-08-19T12:47:23Z</time>
      </trkpt>
      <trkpt lat="41.681239" lon="0.934737">
        <ele>243.059</ele>
        <time>2021-08-19T12:47:26Z</time>
      </trkpt>
      <trkpt lat="41.681183" lon="0.934710">
        <ele>243.003</ele>
        <time>2021-08-19T12:47:29Z</time>
      </trkpt>
      <trkpt lat="41.681132" lon="0.934699">
        <ele>243.023</ele>
        <time>2021-08-19T12:47:32Z</time>
      </trkpt>
      <trkpt lat="41.681083" lon="0.934678">
        <ele>242.908</ele>
        <time>2021-08-19T12:47:36Z</time>
      </trkpt>
      <trkpt lat="41.681022" lon="0.934692">
        <ele>242.743</ele>
        <time>2021-08-19T12:47:58Z</time>
      </trkpt>
      <trkpt lat="41.680968" lon="0.934703">
        <ele>242.696</ele>
        <time>2021-08-19T12:48:00Z</time>
      </trkpt>
      <trkpt lat="41.680897" lon="0.934719">
        <ele>242.229</ele>
        <time>2021-08-19T12:48:02Z</time>
      </trkpt>
      <trkpt lat="41.680826" lon="0.934747">
        <ele>241.920</ele>
        <time>2021-08-19T12:48:04Z</time>
      </trkpt>
      <trkpt lat="41.680777" lon="0.934770">
        <ele>241.647</ele>
        <time>2021-08-19T12:48:06Z</time>
      </trkpt>
      <trkpt lat="41.680717" lon="0.934794">
        <ele>241.315</ele>
        <time>2021-08-19T12:48:08Z</time>
      </trkpt>
      <trkpt lat="41.680768" lon="0.934779">
        <ele>241.694</ele>
        <time>2021-08-19T12:48:15Z</time>
      </trkpt>
      <trkpt lat="41.680821" lon="0.934777">
        <ele>241.893</ele>
        <time>2021-08-19T12:48:18Z</time>
      </trkpt>
      <trkpt lat="41.680866" lon="0.934770">
        <ele>242.026</ele>
        <time>2021-08-19T12:48:21Z</time>
      </trkpt>
      <trkpt lat="41.680913" lon="0.934749">
        <ele>242.247</ele>
        <time>2021-08-19T12:48:24Z</time>
      </trkpt>
      <trkpt lat="41.680965" lon="0.934724">
        <ele>242.511</ele>
        <time>2021-08-19T12:48:28Z</time>
      </trkpt>
      <trkpt lat="41.681024" lon="0.934711">
        <ele>242.708</ele>
        <time>2021-08-19T12:48:32Z</time>
      </trkpt>
      <trkpt lat="41.681083" lon="0.934715">
        <ele>242.990</ele>
        <time>2021-08-19T12:48:36Z</time>
      </trkpt>
      <trkpt lat="41.681137" lon="0.934721">
        <ele>243.013</ele>
        <time>2021-08-19T12:48:40Z</time>
      </trkpt>
      <trkpt lat="41.681190" lon="0.934717">
        <ele>243.096</ele>
        <time>2021-08-19T12:48:44Z</time>
      </trkpt>
      <trkpt lat="41.681236" lon="0.934705">
        <ele>243.017</ele>
        <time>2021-08-19T12:48:47Z</time>
      </trkpt>
      <trkpt lat="41.681287" lon="0.934701">
        <ele>243.094</ele>
        <time>2021-08-19T12:48:50Z</time>
      </trkpt>
      <trkpt lat="41.681333" lon="0.934701">
        <ele>243.082</ele>
        <time>2021-08-19T12:48:53Z</time>
      </trkpt>
      <trkpt lat="41.681384" lon="0.934680">
        <ele>243.021</ele>
        <time>2021-08-19T12:48:56Z</time>
      </trkpt>
      <trkpt lat="41.681435" lon="0.934685">
        <ele>242.850</ele>
        <time>2021-08-19T12:48:58Z</time>
      </trkpt>
      <trkpt lat="41.681508" lon="0.934681">
        <ele>242.624</ele>
        <time>2021-08-19T12:49:00Z</time>
      </trkpt>
      <trkpt lat="41.681560" lon="0.934685">
        <ele>242.404</ele>
        <time>2021-08-19T12:49:01Z</time>
      </trkpt>
      <trkpt lat="41.681616" lon="0.934677">
        <ele>242.214</ele>
        <time>2021-08-19T12:49:03Z</time>
      </trkpt>
      <trkpt lat="41.681665" lon="0.934665">
        <ele>242.008</ele>
        <time>2021-08-19T12:49:04Z</time>
      </trkpt>
      <trkpt lat="41.681719" lon="0.934645">
        <ele>241.870</ele>
        <time>2021-08-19T12:49:06Z</time>
      </trkpt>
      <trkpt lat="41.681764" lon="0.934603">
        <ele>241.723</ele>
        <time>2021-08-19T12:49:09Z</time>
      </trkpt>
      <trkpt lat="41.681822" lon="0.934560">
        <ele>241.466</ele>
        <time>2021-08-19T12:49:11Z</time>
      </trkpt>
      <trkpt lat="41.681874" lon="0.934517">
        <ele>241.317</ele>
        <time>2021-08-19T12:49:13Z</time>
      </trkpt>
      <trkpt lat="41.681920" lon="0.934473">
        <ele>241.124</ele>
        <time>2021-08-19T12:49:14Z</time>
      </trkpt>
      <trkpt lat="41.681972" lon="0.934429">
        <ele>240.972</ele>
        <time>2021-08-19T12:49:15Z</time>
      </trkpt>
      <trkpt lat="41.682017" lon="0.934385">
        <ele>240.751</ele>
        <time>2021-08-19T12:49:17Z</time>
      </trkpt>
      <trkpt lat="41.682076" lon="0.934336">
        <ele>240.450</ele>
        <time>2021-08-19T12:49:18Z</time>
      </trkpt>
      <trkpt lat="41.682115" lon="0.934299">
        <ele>240.339</ele>
        <time>2021-08-19T12:49:19Z</time>
      </trkpt>
      <trkpt lat="41.682152" lon="0.934261">
        <ele>240.201</ele>
        <time>2021-08-19T12:49:20Z</time>
      </trkpt>
      <trkpt lat="41.682234" lon="0.934177">
        <ele>239.921</ele>
        <time>2021-08-19T12:49:22Z</time>
      </trkpt>
      <trkpt lat="41.682276" lon="0.934135">
        <ele>239.908</ele>
        <time>2021-08-19T12:49:23Z</time>
      </trkpt>
      <trkpt lat="41.682319" lon="0.934092">
        <ele>239.961</ele>
        <time>2021-08-19T12:49:24Z</time>
      </trkpt>
      <trkpt lat="41.682363" lon="0.934047">
        <ele>239.874</ele>
        <time>2021-08-19T12:49:25Z</time>
      </trkpt>
      <trkpt lat="41.682446" lon="0.933959">
        <ele>239.417</ele>
        <time>2021-08-19T12:49:27Z</time>
      </trkpt>
      <trkpt lat="41.682486" lon="0.933917">
        <ele>239.138</ele>
        <time>2021-08-19T12:49:28Z</time>
      </trkpt>
      <trkpt lat="41.682524" lon="0.933872">
        <ele>239.055</ele>
        <time>2021-08-19T12:49:29Z</time>
      </trkpt>
      <trkpt lat="41.682561" lon="0.933829">
        <ele>239.233</ele>
        <time>2021-08-19T12:49:30Z</time>
      </trkpt>
      <trkpt lat="41.682600" lon="0.933790">
        <ele>239.232</ele>
        <time>2021-08-19T12:49:31Z</time>
      </trkpt>
      <trkpt lat="41.682676" lon="0.933714">
        <ele>239.281</ele>
        <time>2021-08-19T12:49:33Z</time>
      </trkpt>
      <trkpt lat="41.682748" lon="0.933638">
        <ele>239.163</ele>
        <time>2021-08-19T12:49:35Z</time>
      </trkpt>
      <trkpt lat="41.682784" lon="0.933601">
        <ele>239.144</ele>
        <time>2021-08-19T12:49:36Z</time>
      </trkpt>
      <trkpt lat="41.682851" lon="0.933531">
        <ele>239.218</ele>
        <time>2021-08-19T12:49:38Z</time>
      </trkpt>
      <trkpt lat="41.682917" lon="0.933462">
        <ele>239.308</ele>
        <time>2021-08-19T12:49:40Z</time>
      </trkpt>
      <trkpt lat="41.682979" lon="0.933399">
        <ele>239.214</ele>
        <time>2021-08-19T12:49:42Z</time>
      </trkpt>
      <trkpt lat="41.683033" lon="0.933346">
        <ele>239.187</ele>
        <time>2021-08-19T12:49:44Z</time>
      </trkpt>
      <trkpt lat="41.683072" lon="0.933308">
        <ele>238.910</ele>
        <time>2021-08-19T12:49:45Z</time>
      </trkpt>
      <trkpt lat="41.683138" lon="0.933264">
        <ele>238.791</ele>
        <time>2021-08-19T12:49:47Z</time>
      </trkpt>
      <trkpt lat="41.683203" lon="0.933209">
        <ele>238.568</ele>
        <time>2021-08-19T12:49:49Z</time>
      </trkpt>
      <trkpt lat="41.683261" lon="0.933155">
        <ele>238.366</ele>
        <time>2021-08-19T12:49:50Z</time>
      </trkpt>
      <trkpt lat="41.683307" lon="0.933119">
        <ele>238.135</ele>
        <time>2021-08-19T12:49:51Z</time>
      </trkpt>
      <trkpt lat="41.683399" lon="0.933032">
        <ele>238.064</ele>
        <time>2021-08-19T12:49:53Z</time>
      </trkpt>
      <trkpt lat="41.683489" lon="0.932941">
        <ele>237.872</ele>
        <time>2021-08-19T12:49:55Z</time>
      </trkpt>
      <trkpt lat="41.683533" lon="0.932891">
        <ele>237.613</ele>
        <time>2021-08-19T12:49:56Z</time>
      </trkpt>
      <trkpt lat="41.683621" lon="0.932798">
        <ele>237.014</ele>
        <time>2021-08-19T12:49:58Z</time>
      </trkpt>
      <trkpt lat="41.683707" lon="0.932707">
        <ele>236.508</ele>
        <time>2021-08-19T12:50:00Z</time>
      </trkpt>
      <trkpt lat="41.683792" lon="0.932620">
        <ele>236.265</ele>
        <time>2021-08-19T12:50:02Z</time>
      </trkpt>
      <trkpt lat="41.683881" lon="0.932536">
        <ele>236.058</ele>
        <time>2021-08-19T12:50:04Z</time>
      </trkpt>
      <trkpt lat="41.683925" lon="0.932496">
        <ele>236.051</ele>
        <time>2021-08-19T12:50:05Z</time>
      </trkpt>
      <trkpt lat="41.684016" lon="0.932430">
        <ele>236.172</ele>
        <time>2021-08-19T12:50:07Z</time>
      </trkpt>
      <trkpt lat="41.684060" lon="0.932398">
        <ele>236.229</ele>
        <time>2021-08-19T12:50:08Z</time>
      </trkpt>
      <trkpt lat="41.684101" lon="0.932371">
        <ele>236.487</ele>
        <time>2021-08-19T12:50:09Z</time>
      </trkpt>
      <trkpt lat="41.684167" lon="0.932325">
        <ele>236.646</ele>
        <time>2021-08-19T12:50:11Z</time>
      </trkpt>
      <trkpt lat="41.684228" lon="0.932281">
        <ele>236.445</ele>
        <time>2021-08-19T12:50:13Z</time>
      </trkpt>
      <trkpt lat="41.684287" lon="0.932232">
        <ele>236.172</ele>
        <time>2021-08-19T12:50:15Z</time>
      </trkpt>
      <trkpt lat="41.684345" lon="0.932212">
        <ele>235.713</ele>
        <time>2021-08-19T12:50:17Z</time>
      </trkpt>
      <trkpt lat="41.684386" lon="0.932167">
        <ele>235.414</ele>
        <time>2021-08-19T12:50:19Z</time>
      </trkpt>
      <trkpt lat="41.684433" lon="0.932133">
        <ele>235.108</ele>
        <time>2021-08-19T12:50:21Z</time>
      </trkpt>
      <trkpt lat="41.684483" lon="0.932086">
        <ele>234.945</ele>
        <time>2021-08-19T12:50:23Z</time>
      </trkpt>
      <trkpt lat="41.684544" lon="0.932039">
        <ele>234.638</ele>
        <time>2021-08-19T12:50:25Z</time>
      </trkpt>
      <trkpt lat="41.684619" lon="0.931991">
        <ele>234.481</ele>
        <time>2021-08-19T12:50:27Z</time>
      </trkpt>
      <trkpt lat="41.684659" lon="0.931962">
        <ele>234.222</ele>
        <time>2021-08-19T12:50:28Z</time>
      </trkpt>
      <trkpt lat="41.684735" lon="0.931911">
        <ele>233.839</ele>
        <time>2021-08-19T12:50:30Z</time>
      </trkpt>
      <trkpt lat="41.684814" lon="0.931867">
        <ele>233.257</ele>
        <time>2021-08-19T12:50:32Z</time>
      </trkpt>
      <trkpt lat="41.684865" lon="0.931838">
        <ele>232.836</ele>
        <time>2021-08-19T12:50:33Z</time>
      </trkpt>
      <trkpt lat="41.684925" lon="0.931801">
        <ele>232.475</ele>
        <time>2021-08-19T12:50:35Z</time>
      </trkpt>
      <trkpt lat="41.684983" lon="0.931755">
        <ele>232.119</ele>
        <time>2021-08-19T12:50:37Z</time>
      </trkpt>
      <trkpt lat="41.685025" lon="0.931718">
        <ele>232.009</ele>
        <time>2021-08-19T12:50:38Z</time>
      </trkpt>
      <trkpt lat="41.685094" lon="0.931668">
        <ele>232.019</ele>
        <time>2021-08-19T12:50:40Z</time>
      </trkpt>
      <trkpt lat="41.685160" lon="0.931623">
        <ele>232.008</ele>
        <time>2021-08-19T12:50:42Z</time>
      </trkpt>
      <trkpt lat="41.685231" lon="0.931574">
        <ele>232.019</ele>
        <time>2021-08-19T12:50:44Z</time>
      </trkpt>
      <trkpt lat="41.685297" lon="0.931528">
        <ele>231.912</ele>
        <time>2021-08-19T12:50:46Z</time>
      </trkpt>
      <trkpt lat="41.685365" lon="0.931473">
        <ele>231.795</ele>
        <time>2021-08-19T12:50:48Z</time>
      </trkpt>
      <trkpt lat="41.685441" lon="0.931428">
        <ele>231.426</ele>
        <time>2021-08-19T12:50:50Z</time>
      </trkpt>
      <trkpt lat="41.685511" lon="0.931384">
        <ele>231.293</ele>
        <time>2021-08-19T12:50:52Z</time>
      </trkpt>
      <trkpt lat="41.685580" lon="0.931326">
        <ele>231.191</ele>
        <time>2021-08-19T12:50:54Z</time>
      </trkpt>
      <trkpt lat="41.685654" lon="0.931281">
        <ele>230.760</ele>
        <time>2021-08-19T12:50:56Z</time>
      </trkpt>
      <trkpt lat="41.685722" lon="0.931241">
        <ele>230.329</ele>
        <time>2021-08-19T12:50:58Z</time>
      </trkpt>
      <trkpt lat="41.685775" lon="0.931203">
        <ele>230.162</ele>
        <time>2021-08-19T12:51:00Z</time>
      </trkpt>
      <trkpt lat="41.685834" lon="0.931159">
        <ele>229.883</ele>
        <time>2021-08-19T12:51:01Z</time>
      </trkpt>
      <trkpt lat="41.685907" lon="0.931111">
        <ele>229.711</ele>
        <time>2021-08-19T12:51:03Z</time>
      </trkpt>
      <trkpt lat="41.685975" lon="0.931057">
        <ele>229.708</ele>
        <time>2021-08-19T12:51:05Z</time>
      </trkpt>
      <trkpt lat="41.686033" lon="0.930982">
        <ele>229.754</ele>
        <time>2021-08-19T12:51:07Z</time>
      </trkpt>
      <trkpt lat="41.686090" lon="0.930918">
        <ele>229.817</ele>
        <time>2021-08-19T12:51:09Z</time>
      </trkpt>
      <trkpt lat="41.686147" lon="0.930845">
        <ele>230.110</ele>
        <time>2021-08-19T12:51:11Z</time>
      </trkpt>
      <trkpt lat="41.686198" lon="0.930776">
        <ele>230.481</ele>
        <time>2021-08-19T12:51:13Z</time>
      </trkpt>
      <trkpt lat="41.686243" lon="0.930695">
        <ele>230.778</ele>
        <time>2021-08-19T12:51:15Z</time>
      </trkpt>
      <trkpt lat="41.686287" lon="0.930616">
        <ele>231.176</ele>
        <time>2021-08-19T12:51:17Z</time>
      </trkpt>
      <trkpt lat="41.686334" lon="0.930540">
        <ele>231.695</ele>
        <time>2021-08-19T12:51:19Z</time>
      </trkpt>
      <trkpt lat="41.686383" lon="0.930469">
        <ele>232.034</ele>
        <time>2021-08-19T12:51:21Z</time>
      </trkpt>
      <trkpt lat="41.686417" lon="0.930418">
        <ele>232.184</ele>
        <time>2021-08-19T12:51:23Z</time>
      </trkpt>
      <trkpt lat="41.686462" lon="0.930370">
        <ele>232.307</ele>
        <time>2021-08-19T12:51:24Z</time>
      </trkpt>
      <trkpt lat="41.686502" lon="0.930330">
        <ele>232.417</ele>
        <time>2021-08-19T12:51:25Z</time>
      </trkpt>
      <trkpt lat="41.686549" lon="0.930277">
        <ele>232.608</ele>
        <time>2021-08-19T12:51:27Z</time>
      </trkpt>
      <trkpt lat="41.686592" lon="0.930217">
        <ele>232.896</ele>
        <time>2021-08-19T12:51:29Z</time>
      </trkpt>
      <trkpt lat="41.686629" lon="0.930174">
        <ele>232.919</ele>
        <time>2021-08-19T12:51:30Z</time>
      </trkpt>
      <trkpt lat="41.686684" lon="0.930109">
        <ele>233.052</ele>
        <time>2021-08-19T12:51:32Z</time>
      </trkpt>
      <trkpt lat="41.686737" lon="0.930041">
        <ele>232.883</ele>
        <time>2021-08-19T12:51:34Z</time>
      </trkpt>
      <trkpt lat="41.686785" lon="0.929986">
        <ele>232.590</ele>
        <time>2021-08-19T12:51:36Z</time>
      </trkpt>
      <trkpt lat="41.686819" lon="0.929946">
        <ele>232.398</ele>
        <time>2021-08-19T12:51:37Z</time>
      </trkpt>
      <trkpt lat="41.686865" lon="0.929881">
        <ele>231.987</ele>
        <time>2021-08-19T12:51:39Z</time>
      </trkpt>
      <trkpt lat="41.686928" lon="0.929811">
        <ele>231.446</ele>
        <time>2021-08-19T12:51:41Z</time>
      </trkpt>
      <trkpt lat="41.686967" lon="0.929766">
        <ele>231.281</ele>
        <time>2021-08-19T12:51:43Z</time>
      </trkpt>
      <trkpt lat="41.687009" lon="0.929710">
        <ele>231.261</ele>
        <time>2021-08-19T12:51:44Z</time>
      </trkpt>
      <trkpt lat="41.687064" lon="0.929648">
        <ele>231.317</ele>
        <time>2021-08-19T12:51:46Z</time>
      </trkpt>
      <trkpt lat="41.687122" lon="0.929594">
        <ele>231.508</ele>
        <time>2021-08-19T12:51:48Z</time>
      </trkpt>
      <trkpt lat="41.687168" lon="0.929552">
        <ele>231.746</ele>
        <time>2021-08-19T12:51:50Z</time>
      </trkpt>
      <trkpt lat="41.687209" lon="0.929522">
        <ele>231.939</ele>
        <time>2021-08-19T12:51:51Z</time>
      </trkpt>
      <trkpt lat="41.687261" lon="0.929476">
        <ele>232.062</ele>
        <time>2021-08-19T12:51:53Z</time>
      </trkpt>
      <trkpt lat="41.687315" lon="0.929433">
        <ele>232.053</ele>
        <time>2021-08-19T12:51:55Z</time>
      </trkpt>
      <trkpt lat="41.687371" lon="0.929392">
        <ele>231.950</ele>
        <time>2021-08-19T12:51:57Z</time>
      </trkpt>
      <trkpt lat="41.687427" lon="0.929349">
        <ele>231.928</ele>
        <time>2021-08-19T12:51:59Z</time>
      </trkpt>
      <trkpt lat="41.687486" lon="0.929300">
        <ele>232.057</ele>
        <time>2021-08-19T12:52:01Z</time>
      </trkpt>
      <trkpt lat="41.687540" lon="0.929267">
        <ele>231.976</ele>
        <time>2021-08-19T12:52:02Z</time>
      </trkpt>
      <trkpt lat="41.687595" lon="0.929231">
        <ele>231.957</ele>
        <time>2021-08-19T12:52:04Z</time>
      </trkpt>
      <trkpt lat="41.687651" lon="0.929191">
        <ele>232.000</ele>
        <time>2021-08-19T12:52:06Z</time>
      </trkpt>
      <trkpt lat="41.687722" lon="0.929126">
        <ele>232.220</ele>
        <time>2021-08-19T12:52:08Z</time>
      </trkpt>
      <trkpt lat="41.687782" lon="0.929081">
        <ele>232.308</ele>
        <time>2021-08-19T12:52:10Z</time>
      </trkpt>
      <trkpt lat="41.687840" lon="0.929034">
        <ele>232.633</ele>
        <time>2021-08-19T12:52:12Z</time>
      </trkpt>
      <trkpt lat="41.687880" lon="0.929003">
        <ele>232.816</ele>
        <time>2021-08-19T12:52:13Z</time>
      </trkpt>
      <trkpt lat="41.687942" lon="0.928944">
        <ele>233.379</ele>
        <time>2021-08-19T12:52:15Z</time>
      </trkpt>
      <trkpt lat="41.687985" lon="0.928907">
        <ele>233.670</ele>
        <time>2021-08-19T12:52:16Z</time>
      </trkpt>
      <trkpt lat="41.688022" lon="0.928871">
        <ele>233.927</ele>
        <time>2021-08-19T12:52:18Z</time>
      </trkpt>
      <trkpt lat="41.688062" lon="0.928827">
        <ele>234.015</ele>
        <time>2021-08-19T12:52:19Z</time>
      </trkpt>
      <trkpt lat="41.688124" lon="0.928780">
        <ele>234.074</ele>
        <time>2021-08-19T12:52:21Z</time>
      </trkpt>
      <trkpt lat="41.688186" lon="0.928724">
        <ele>234.013</ele>
        <time>2021-08-19T12:52:23Z</time>
      </trkpt>
      <trkpt lat="41.688249" lon="0.928665">
        <ele>234.031</ele>
        <time>2021-08-19T12:52:25Z</time>
      </trkpt>
      <trkpt lat="41.688305" lon="0.928605">
        <ele>234.061</ele>
        <time>2021-08-19T12:52:27Z</time>
      </trkpt>
      <trkpt lat="41.688373" lon="0.928552">
        <ele>234.107</ele>
        <time>2021-08-19T12:52:29Z</time>
      </trkpt>
      <trkpt lat="41.688442" lon="0.928502">
        <ele>234.408</ele>
        <time>2021-08-19T12:52:31Z</time>
      </trkpt>
      <trkpt lat="41.688510" lon="0.928447">
        <ele>234.691</ele>
        <time>2021-08-19T12:52:33Z</time>
      </trkpt>
      <trkpt lat="41.688578" lon="0.928403">
        <ele>234.954</ele>
        <time>2021-08-19T12:52:35Z</time>
      </trkpt>
      <trkpt lat="41.688625" lon="0.928363">
        <ele>235.177</ele>
        <time>2021-08-19T12:52:37Z</time>
      </trkpt>
      <trkpt lat="41.688668" lon="0.928330">
        <ele>235.488</ele>
        <time>2021-08-19T12:52:38Z</time>
      </trkpt>
      <trkpt lat="41.688722" lon="0.928275">
        <ele>235.895</ele>
        <time>2021-08-19T12:52:40Z</time>
      </trkpt>
      <trkpt lat="41.688763" lon="0.928248">
        <ele>236.153</ele>
        <time>2021-08-19T12:52:41Z</time>
      </trkpt>
      <trkpt lat="41.688810" lon="0.928220">
        <ele>236.492</ele>
        <time>2021-08-19T12:52:43Z</time>
      </trkpt>
      <trkpt lat="41.688861" lon="0.928181">
        <ele>236.891</ele>
        <time>2021-08-19T12:52:45Z</time>
      </trkpt>
      <trkpt lat="41.688909" lon="0.928144">
        <ele>237.193</ele>
        <time>2021-08-19T12:52:47Z</time>
      </trkpt>
      <trkpt lat="41.688959" lon="0.928118">
        <ele>237.565</ele>
        <time>2021-08-19T12:52:49Z</time>
      </trkpt>
      <trkpt lat="41.688999" lon="0.928085">
        <ele>237.821</ele>
        <time>2021-08-19T12:52:51Z</time>
      </trkpt>
      <trkpt lat="41.689053" lon="0.928031">
        <ele>238.108</ele>
        <time>2021-08-19T12:52:54Z</time>
      </trkpt>
      <trkpt lat="41.689096" lon="0.928006">
        <ele>238.357</ele>
        <time>2021-08-19T12:52:56Z</time>
      </trkpt>
      <trkpt lat="41.689150" lon="0.927970">
        <ele>238.610</ele>
        <time>2021-08-19T12:52:59Z</time>
      </trkpt>
      <trkpt lat="41.689198" lon="0.927937">
        <ele>238.853</ele>
        <time>2021-08-19T12:53:02Z</time>
      </trkpt>
      <trkpt lat="41.689240" lon="0.927911">
        <ele>239.094</ele>
        <time>2021-08-19T12:53:05Z</time>
      </trkpt>
      <trkpt lat="41.689286" lon="0.927891">
        <ele>239.351</ele>
        <time>2021-08-19T12:53:08Z</time>
      </trkpt>
      <trkpt lat="41.689328" lon="0.927870">
        <ele>239.579</ele>
        <time>2021-08-19T12:53:11Z</time>
      </trkpt>
      <trkpt lat="41.689366" lon="0.927835">
        <ele>239.648</ele>
        <time>2021-08-19T12:53:14Z</time>
      </trkpt>
      <trkpt lat="41.689411" lon="0.927805">
        <ele>239.927</ele>
        <time>2021-08-19T12:53:17Z</time>
      </trkpt>
      <trkpt lat="41.689458" lon="0.927776">
        <ele>240.084</ele>
        <time>2021-08-19T12:53:21Z</time>
      </trkpt>
      <trkpt lat="41.689507" lon="0.927745">
        <ele>240.007</ele>
        <time>2021-08-19T12:53:25Z</time>
      </trkpt>
      <trkpt lat="41.689556" lon="0.927712">
        <ele>240.017</ele>
        <time>2021-08-19T12:53:28Z</time>
      </trkpt>
      <trkpt lat="41.689605" lon="0.927672">
        <ele>240.008</ele>
        <time>2021-08-19T12:53:31Z</time>
      </trkpt>
      <trkpt lat="41.689656" lon="0.927632">
        <ele>240.116</ele>
        <time>2021-08-19T12:53:34Z</time>
      </trkpt>
      <trkpt lat="41.689705" lon="0.927588">
        <ele>240.279</ele>
        <time>2021-08-19T12:53:37Z</time>
      </trkpt>
      <trkpt lat="41.689752" lon="0.927555">
        <ele>240.392</ele>
        <time>2021-08-19T12:53:40Z</time>
      </trkpt>
      <trkpt lat="41.689805" lon="0.927514">
        <ele>240.363</ele>
        <time>2021-08-19T12:53:43Z</time>
      </trkpt>
      <trkpt lat="41.689858" lon="0.927479">
        <ele>240.520</ele>
        <time>2021-08-19T12:53:46Z</time>
      </trkpt>
      <trkpt lat="41.689899" lon="0.927452">
        <ele>240.738</ele>
        <time>2021-08-19T12:53:48Z</time>
      </trkpt>
      <trkpt lat="41.689954" lon="0.927409">
        <ele>241.197</ele>
        <time>2021-08-19T12:53:51Z</time>
      </trkpt>
      <trkpt lat="41.690008" lon="0.927367">
        <ele>241.566</ele>
        <time>2021-08-19T12:53:54Z</time>
      </trkpt>
      <trkpt lat="41.690064" lon="0.927327">
        <ele>241.621</ele>
        <time>2021-08-19T12:53:57Z</time>
      </trkpt>
      <trkpt lat="41.690124" lon="0.927282">
        <ele>241.841</ele>
        <time>2021-08-19T12:54:00Z</time>
      </trkpt>
      <trkpt lat="41.690166" lon="0.927250">
        <ele>241.905</ele>
        <time>2021-08-19T12:54:02Z</time>
      </trkpt>
      <trkpt lat="41.690222" lon="0.927211">
        <ele>242.008</ele>
        <time>2021-08-19T12:54:05Z</time>
      </trkpt>
      <trkpt lat="41.690286" lon="0.927188">
        <ele>242.150</ele>
        <time>2021-08-19T12:54:08Z</time>
      </trkpt>
      <trkpt lat="41.690331" lon="0.927174">
        <ele>242.233</ele>
        <time>2021-08-19T12:54:10Z</time>
      </trkpt>
      <trkpt lat="41.690381" lon="0.927145">
        <ele>242.376</ele>
        <time>2021-08-19T12:54:12Z</time>
      </trkpt>
      <trkpt lat="41.690436" lon="0.927110">
        <ele>242.447</ele>
        <time>2021-08-19T12:54:14Z</time>
      </trkpt>
      <trkpt lat="41.690491" lon="0.927075">
        <ele>242.514</ele>
        <time>2021-08-19T12:54:16Z</time>
      </trkpt>
      <trkpt lat="41.690539" lon="0.927044">
        <ele>242.622</ele>
        <time>2021-08-19T12:54:18Z</time>
      </trkpt>
      <trkpt lat="41.690589" lon="0.927015">
        <ele>242.841</ele>
        <time>2021-08-19T12:54:20Z</time>
      </trkpt>
      <trkpt lat="41.690635" lon="0.926975">
        <ele>242.950</ele>
        <time>2021-08-19T12:54:22Z</time>
      </trkpt>
      <trkpt lat="41.690684" lon="0.926943">
        <ele>243.094</ele>
        <time>2021-08-19T12:54:24Z</time>
      </trkpt>
      <trkpt lat="41.690733" lon="0.926921">
        <ele>242.957</ele>
        <time>2021-08-19T12:54:26Z</time>
      </trkpt>
      <trkpt lat="41.690792" lon="0.926902">
        <ele>242.822</ele>
        <time>2021-08-19T12:54:28Z</time>
      </trkpt>
      <trkpt lat="41.690862" lon="0.926879">
        <ele>242.808</ele>
        <time>2021-08-19T12:54:30Z</time>
      </trkpt>
      <trkpt lat="41.690935" lon="0.926849">
        <ele>242.957</ele>
        <time>2021-08-19T12:54:32Z</time>
      </trkpt>
      <trkpt lat="41.691008" lon="0.926816">
        <ele>242.970</ele>
        <time>2021-08-19T12:54:34Z</time>
      </trkpt>
      <trkpt lat="41.691083" lon="0.926785">
        <ele>242.873</ele>
        <time>2021-08-19T12:54:36Z</time>
      </trkpt>
      <trkpt lat="41.691154" lon="0.926753">
        <ele>242.594</ele>
        <time>2021-08-19T12:54:38Z</time>
      </trkpt>
      <trkpt lat="41.691229" lon="0.926715">
        <ele>242.251</ele>
        <time>2021-08-19T12:54:40Z</time>
      </trkpt>
      <trkpt lat="41.691308" lon="0.926682">
        <ele>242.049</ele>
        <time>2021-08-19T12:54:42Z</time>
      </trkpt>
      <trkpt lat="41.691389" lon="0.926638">
        <ele>241.818</ele>
        <time>2021-08-19T12:54:44Z</time>
      </trkpt>
      <trkpt lat="41.691485" lon="0.926595">
        <ele>240.567</ele>
        <time>2021-08-19T12:54:46Z</time>
      </trkpt>
      <trkpt lat="41.691535" lon="0.926577">
        <ele>239.924</ele>
        <time>2021-08-19T12:54:47Z</time>
      </trkpt>
      <trkpt lat="41.691589" lon="0.926559">
        <ele>239.304</ele>
        <time>2021-08-19T12:54:48Z</time>
      </trkpt>
      <trkpt lat="41.691698" lon="0.926516">
        <ele>238.214</ele>
        <time>2021-08-19T12:54:50Z</time>
      </trkpt>
      <trkpt lat="41.691757" lon="0.926497">
        <ele>237.708</ele>
        <time>2021-08-19T12:54:51Z</time>
      </trkpt>
      <trkpt lat="41.691814" lon="0.926480">
        <ele>237.380</ele>
        <time>2021-08-19T12:54:52Z</time>
      </trkpt>
      <trkpt lat="41.691871" lon="0.926459">
        <ele>236.813</ele>
        <time>2021-08-19T12:54:53Z</time>
      </trkpt>
      <trkpt lat="41.691929" lon="0.926440">
        <ele>236.366</ele>
        <time>2021-08-19T12:54:54Z</time>
      </trkpt>
      <trkpt lat="41.692040" lon="0.926404">
        <ele>235.757</ele>
        <time>2021-08-19T12:54:56Z</time>
      </trkpt>
      <trkpt lat="41.692098" lon="0.926387">
        <ele>235.494</ele>
        <time>2021-08-19T12:54:57Z</time>
      </trkpt>
      <trkpt lat="41.692160" lon="0.926370">
        <ele>235.282</ele>
        <time>2021-08-19T12:54:58Z</time>
      </trkpt>
      <trkpt lat="41.692272" lon="0.926343">
        <ele>235.371</ele>
        <time>2021-08-19T12:55:00Z</time>
      </trkpt>
      <trkpt lat="41.692329" lon="0.926330">
        <ele>235.690</ele>
        <time>2021-08-19T12:55:01Z</time>
      </trkpt>
      <trkpt lat="41.692439" lon="0.926299">
        <ele>236.115</ele>
        <time>2021-08-19T12:55:03Z</time>
      </trkpt>
      <trkpt lat="41.692543" lon="0.926258">
        <ele>235.965</ele>
        <time>2021-08-19T12:55:05Z</time>
      </trkpt>
      <trkpt lat="41.692644" lon="0.926222">
        <ele>235.411</ele>
        <time>2021-08-19T12:55:07Z</time>
      </trkpt>
      <trkpt lat="41.692743" lon="0.926194">
        <ele>235.108</ele>
        <time>2021-08-19T12:55:09Z</time>
      </trkpt>
      <trkpt lat="41.692842" lon="0.926191">
        <ele>234.859</ele>
        <time>2021-08-19T12:55:11Z</time>
      </trkpt>
      <trkpt lat="41.692893" lon="0.926199">
        <ele>234.622</ele>
        <time>2021-08-19T12:55:12Z</time>
      </trkpt>
      <trkpt lat="41.692992" lon="0.926238">
        <ele>234.255</ele>
        <time>2021-08-19T12:55:14Z</time>
      </trkpt>
      <trkpt lat="41.693091" lon="0.926272">
        <ele>233.926</ele>
        <time>2021-08-19T12:55:16Z</time>
      </trkpt>
      <trkpt lat="41.693139" lon="0.926290">
        <ele>233.743</ele>
        <time>2021-08-19T12:55:17Z</time>
      </trkpt>
      <trkpt lat="41.693236" lon="0.926324">
        <ele>233.321</ele>
        <time>2021-08-19T12:55:19Z</time>
      </trkpt>
      <trkpt lat="41.693339" lon="0.926352">
        <ele>233.060</ele>
        <time>2021-08-19T12:55:21Z</time>
      </trkpt>
      <trkpt lat="41.693444" lon="0.926374">
        <ele>233.429</ele>
        <time>2021-08-19T12:55:23Z</time>
      </trkpt>
      <trkpt lat="41.693497" lon="0.926381">
        <ele>233.677</ele>
        <time>2021-08-19T12:55:24Z</time>
      </trkpt>
      <trkpt lat="41.693550" lon="0.926388">
        <ele>233.861</ele>
        <time>2021-08-19T12:55:25Z</time>
      </trkpt>
      <trkpt lat="41.693652" lon="0.926396">
        <ele>234.027</ele>
        <time>2021-08-19T12:55:27Z</time>
      </trkpt>
      <trkpt lat="41.693707" lon="0.926395">
        <ele>234.008</ele>
        <time>2021-08-19T12:55:28Z</time>
      </trkpt>
      <trkpt lat="41.693757" lon="0.926391">
        <ele>234.055</ele>
        <time>2021-08-19T12:55:29Z</time>
      </trkpt>
      <trkpt lat="41.693856" lon="0.926371">
        <ele>234.068</ele>
        <time>2021-08-19T12:55:31Z</time>
      </trkpt>
      <trkpt lat="41.693957" lon="0.926351">
        <ele>233.871</ele>
        <time>2021-08-19T12:55:33Z</time>
      </trkpt>
      <trkpt lat="41.694059" lon="0.926326">
        <ele>233.432</ele>
        <time>2021-08-19T12:55:35Z</time>
      </trkpt>
      <trkpt lat="41.694109" lon="0.926313">
        <ele>233.269</ele>
        <time>2021-08-19T12:55:36Z</time>
      </trkpt>
      <trkpt lat="41.694206" lon="0.926284">
        <ele>232.927</ele>
        <time>2021-08-19T12:55:38Z</time>
      </trkpt>
      <trkpt lat="41.694300" lon="0.926257">
        <ele>232.576</ele>
        <time>2021-08-19T12:55:40Z</time>
      </trkpt>
      <trkpt lat="41.694346" lon="0.926247">
        <ele>232.495</ele>
        <time>2021-08-19T12:55:41Z</time>
      </trkpt>
      <trkpt lat="41.694434" lon="0.926233">
        <ele>232.069</ele>
        <time>2021-08-19T12:55:43Z</time>
      </trkpt>
      <trkpt lat="41.694509" lon="0.926216">
        <ele>232.404</ele>
        <time>2021-08-19T12:55:45Z</time>
      </trkpt>
      <trkpt lat="41.694588" lon="0.926198">
        <ele>232.924</ele>
        <time>2021-08-19T12:55:47Z</time>
      </trkpt>
      <trkpt lat="41.694668" lon="0.926179">
        <ele>233.408</ele>
        <time>2021-08-19T12:55:49Z</time>
      </trkpt>
      <trkpt lat="41.694736" lon="0.926154">
        <ele>233.864</ele>
        <time>2021-08-19T12:55:51Z</time>
      </trkpt>
      <trkpt lat="41.694827" lon="0.926130">
        <ele>233.677</ele>
        <time>2021-08-19T12:55:53Z</time>
      </trkpt>
      <trkpt lat="41.694871" lon="0.926116">
        <ele>233.460</ele>
        <time>2021-08-19T12:55:54Z</time>
      </trkpt>
      <trkpt lat="41.694946" lon="0.926085">
        <ele>233.311</ele>
        <time>2021-08-19T12:55:56Z</time>
      </trkpt>
      <trkpt lat="41.695028" lon="0.926043">
        <ele>233.148</ele>
        <time>2021-08-19T12:55:58Z</time>
      </trkpt>
      <trkpt lat="41.695108" lon="0.926009">
        <ele>232.816</ele>
        <time>2021-08-19T12:56:00Z</time>
      </trkpt>
      <trkpt lat="41.695192" lon="0.925968">
        <ele>232.535</ele>
        <time>2021-08-19T12:56:02Z</time>
      </trkpt>
      <trkpt lat="41.695273" lon="0.925926">
        <ele>232.094</ele>
        <time>2021-08-19T12:56:04Z</time>
      </trkpt>
      <trkpt lat="41.695351" lon="0.925884">
        <ele>232.062</ele>
        <time>2021-08-19T12:56:06Z</time>
      </trkpt>
      <trkpt lat="41.695428" lon="0.925845">
        <ele>232.083</ele>
        <time>2021-08-19T12:56:08Z</time>
      </trkpt>
      <trkpt lat="41.695505" lon="0.925810">
        <ele>232.111</ele>
        <time>2021-08-19T12:56:10Z</time>
      </trkpt>
      <trkpt lat="41.695578" lon="0.925770">
        <ele>232.408</ele>
        <time>2021-08-19T12:56:12Z</time>
      </trkpt>
      <trkpt lat="41.695651" lon="0.925733">
        <ele>232.924</ele>
        <time>2021-08-19T12:56:14Z</time>
      </trkpt>
      <trkpt lat="41.695733" lon="0.925704">
        <ele>233.497</ele>
        <time>2021-08-19T12:56:16Z</time>
      </trkpt>
      <trkpt lat="41.695807" lon="0.925667">
        <ele>233.930</ele>
        <time>2021-08-19T12:56:18Z</time>
      </trkpt>
      <trkpt lat="41.695879" lon="0.925639">
        <ele>234.031</ele>
        <time>2021-08-19T12:56:20Z</time>
      </trkpt>
      <trkpt lat="41.695956" lon="0.925614">
        <ele>234.198</ele>
        <time>2021-08-19T12:56:22Z</time>
      </trkpt>
      <trkpt lat="41.696028" lon="0.925572">
        <ele>234.016</ele>
        <time>2021-08-19T12:56:24Z</time>
      </trkpt>
      <trkpt lat="41.696084" lon="0.925550">
        <ele>234.065</ele>
        <time>2021-08-19T12:56:26Z</time>
      </trkpt>
      <trkpt lat="41.696148" lon="0.925530">
        <ele>233.794</ele>
        <time>2021-08-19T12:56:28Z</time>
      </trkpt>
      <trkpt lat="41.696198" lon="0.925522">
        <ele>233.538</ele>
        <time>2021-08-19T12:56:30Z</time>
      </trkpt>
      <trkpt lat="41.696246" lon="0.925513">
        <ele>233.370</ele>
        <time>2021-08-19T12:56:32Z</time>
      </trkpt>
      <trkpt lat="41.696309" lon="0.925503">
        <ele>233.017</ele>
        <time>2021-08-19T12:56:35Z</time>
      </trkpt>
      <trkpt lat="41.696355" lon="0.925469">
        <ele>232.808</ele>
        <time>2021-08-19T12:56:38Z</time>
      </trkpt>
      <trkpt lat="41.696343" lon="0.925407">
        <ele>232.521</ele>
        <time>2021-08-19T12:58:35Z</time>
      </trkpt>
      <trkpt lat="41.696338" lon="0.925322">
        <ele>232.294</ele>
        <time>2021-08-19T12:58:39Z</time>
      </trkpt>
      <trkpt lat="41.696343" lon="0.925256">
        <ele>231.897</ele>
        <time>2021-08-19T12:58:41Z</time>
      </trkpt>
      <trkpt lat="41.696360" lon="0.925178">
        <ele>231.018</ele>
        <time>2021-08-19T12:58:44Z</time>
      </trkpt>
      <trkpt lat="41.696375" lon="0.925114">
        <ele>230.375</ele>
        <time>2021-08-19T12:58:46Z</time>
      </trkpt>
      <trkpt lat="41.696392" lon="0.925041">
        <ele>229.563</ele>
        <time>2021-08-19T12:58:48Z</time>
      </trkpt>
      <trkpt lat="41.696418" lon="0.924957">
        <ele>229.152</ele>
        <time>2021-08-19T12:58:50Z</time>
      </trkpt>
      <trkpt lat="41.696441" lon="0.924883">
        <ele>229.171</ele>
        <time>2021-08-19T12:58:52Z</time>
      </trkpt>
      <trkpt lat="41.696451" lon="0.924822">
        <ele>228.937</ele>
        <time>2021-08-19T12:58:53Z</time>
      </trkpt>
      <trkpt lat="41.696469" lon="0.924731">
        <ele>228.649</ele>
        <time>2021-08-19T12:58:55Z</time>
      </trkpt>
      <trkpt lat="41.696485" lon="0.924654">
        <ele>228.813</ele>
        <time>2021-08-19T12:58:57Z</time>
      </trkpt>
      <trkpt lat="41.696503" lon="0.924574">
        <ele>228.908</ele>
        <time>2021-08-19T12:58:59Z</time>
      </trkpt>
      <trkpt lat="41.696522" lon="0.924487">
        <ele>229.061</ele>
        <time>2021-08-19T12:59:01Z</time>
      </trkpt>
      <trkpt lat="41.696538" lon="0.924417">
        <ele>229.214</ele>
        <time>2021-08-19T12:59:03Z</time>
      </trkpt>
      <trkpt lat="41.696568" lon="0.924319">
        <ele>229.947</ele>
        <time>2021-08-19T12:59:05Z</time>
      </trkpt>
      <trkpt lat="41.696590" lon="0.924234">
        <ele>230.538</ele>
        <time>2021-08-19T12:59:07Z</time>
      </trkpt>
      <trkpt lat="41.696613" lon="0.924153">
        <ele>231.045</ele>
        <time>2021-08-19T12:59:09Z</time>
      </trkpt>
      <trkpt lat="41.696636" lon="0.924071">
        <ele>231.383</ele>
        <time>2021-08-19T12:59:11Z</time>
      </trkpt>
      <trkpt lat="41.696663" lon="0.923988">
        <ele>231.692</ele>
        <time>2021-08-19T12:59:13Z</time>
      </trkpt>
      <trkpt lat="41.696674" lon="0.923921">
        <ele>231.991</ele>
        <time>2021-08-19T12:59:15Z</time>
      </trkpt>
      <trkpt lat="41.696703" lon="0.923822">
        <ele>232.175</ele>
        <time>2021-08-19T12:59:17Z</time>
      </trkpt>
      <trkpt lat="41.696723" lon="0.923735">
        <ele>232.228</ele>
        <time>2021-08-19T12:59:19Z</time>
      </trkpt>
      <trkpt lat="41.696743" lon="0.923646">
        <ele>232.320</ele>
        <time>2021-08-19T12:59:21Z</time>
      </trkpt>
      <trkpt lat="41.696755" lon="0.923581">
        <ele>232.208</ele>
        <time>2021-08-19T12:59:23Z</time>
      </trkpt>
      <trkpt lat="41.696762" lon="0.923512">
        <ele>232.115</ele>
        <time>2021-08-19T12:59:24Z</time>
      </trkpt>
      <trkpt lat="41.696774" lon="0.923449">
        <ele>232.048</ele>
        <time>2021-08-19T12:59:26Z</time>
      </trkpt>
      <trkpt lat="41.696794" lon="0.923381">
        <ele>232.011</ele>
        <time>2021-08-19T12:59:27Z</time>
      </trkpt>
      <trkpt lat="41.696807" lon="0.923284">
        <ele>231.812</ele>
        <time>2021-08-19T12:59:29Z</time>
      </trkpt>
      <trkpt lat="41.696824" lon="0.923201">
        <ele>231.719</ele>
        <time>2021-08-19T12:59:31Z</time>
      </trkpt>
      <trkpt lat="41.696831" lon="0.923135">
        <ele>231.527</ele>
        <time>2021-08-19T12:59:32Z</time>
      </trkpt>
      <trkpt lat="41.696840" lon="0.923049">
        <ele>231.256</ele>
        <time>2021-08-19T12:59:34Z</time>
      </trkpt>
      <trkpt lat="41.696846" lon="0.922947">
        <ele>231.215</ele>
        <time>2021-08-19T12:59:36Z</time>
      </trkpt>
      <trkpt lat="41.696855" lon="0.922882">
        <ele>231.298</ele>
        <time>2021-08-19T12:59:38Z</time>
      </trkpt>
      <trkpt lat="41.696864" lon="0.922815">
        <ele>231.215</ele>
        <time>2021-08-19T12:59:39Z</time>
      </trkpt>
      <trkpt lat="41.696876" lon="0.922754">
        <ele>231.326</ele>
        <time>2021-08-19T12:59:40Z</time>
      </trkpt>
      <trkpt lat="41.696896" lon="0.922659">
        <ele>231.608</ele>
        <time>2021-08-19T12:59:42Z</time>
      </trkpt>
      <trkpt lat="41.696920" lon="0.922570">
        <ele>231.867</ele>
        <time>2021-08-19T12:59:44Z</time>
      </trkpt>
      <trkpt lat="41.696931" lon="0.922473">
        <ele>231.920</ele>
        <time>2021-08-19T12:59:46Z</time>
      </trkpt>
      <trkpt lat="41.696942" lon="0.922377">
        <ele>232.083</ele>
        <time>2021-08-19T12:59:48Z</time>
      </trkpt>
      <trkpt lat="41.696956" lon="0.922277">
        <ele>232.174</ele>
        <time>2021-08-19T12:59:50Z</time>
      </trkpt>
      <trkpt lat="41.696974" lon="0.922184">
        <ele>232.241</ele>
        <time>2021-08-19T12:59:52Z</time>
      </trkpt>
      <trkpt lat="41.696986" lon="0.922086">
        <ele>232.219</ele>
        <time>2021-08-19T12:59:54Z</time>
      </trkpt>
      <trkpt lat="41.697000" lon="0.921990">
        <ele>232.248</ele>
        <time>2021-08-19T12:59:56Z</time>
      </trkpt>
      <trkpt lat="41.697014" lon="0.921901">
        <ele>232.257</ele>
        <time>2021-08-19T12:59:58Z</time>
      </trkpt>
      <trkpt lat="41.697027" lon="0.921811">
        <ele>232.396</ele>
        <time>2021-08-19T13:00:00Z</time>
      </trkpt>
      <trkpt lat="41.697037" lon="0.921739">
        <ele>232.331</ele>
        <time>2021-08-19T13:00:02Z</time>
      </trkpt>
      <trkpt lat="41.697046" lon="0.921678">
        <ele>232.424</ele>
        <time>2021-08-19T13:00:03Z</time>
      </trkpt>
      <trkpt lat="41.697063" lon="0.921574">
        <ele>232.808</ele>
        <time>2021-08-19T13:00:05Z</time>
      </trkpt>
      <trkpt lat="41.697082" lon="0.921480">
        <ele>233.247</ele>
        <time>2021-08-19T13:00:07Z</time>
      </trkpt>
      <trkpt lat="41.697096" lon="0.921381">
        <ele>233.470</ele>
        <time>2021-08-19T13:00:09Z</time>
      </trkpt>
      <trkpt lat="41.697107" lon="0.921290">
        <ele>233.343</ele>
        <time>2021-08-19T13:00:11Z</time>
      </trkpt>
      <trkpt lat="41.697117" lon="0.921198">
        <ele>233.144</ele>
        <time>2021-08-19T13:00:13Z</time>
      </trkpt>
      <trkpt lat="41.697127" lon="0.921117">
        <ele>233.061</ele>
        <time>2021-08-19T13:00:15Z</time>
      </trkpt>
      <trkpt lat="41.697135" lon="0.921040">
        <ele>232.999</ele>
        <time>2021-08-19T13:00:17Z</time>
      </trkpt>
      <trkpt lat="41.697147" lon="0.920976">
        <ele>232.998</ele>
        <time>2021-08-19T13:00:19Z</time>
      </trkpt>
      <trkpt lat="41.697148" lon="0.920907">
        <ele>232.817</ele>
        <time>2021-08-19T13:01:03Z</time>
      </trkpt>
      <trkpt lat="41.697140" lon="0.920823">
        <ele>232.795</ele>
        <time>2021-08-19T13:01:07Z</time>
      </trkpt>
      <trkpt lat="41.697140" lon="0.920746">
        <ele>232.449</ele>
        <time>2021-08-19T13:01:10Z</time>
      </trkpt>
      <trkpt lat="41.697131" lon="0.920665">
        <ele>232.123</ele>
        <time>2021-08-19T13:01:13Z</time>
      </trkpt>
      <trkpt lat="41.697148" lon="0.920577">
        <ele>231.808</ele>
        <time>2021-08-19T13:01:15Z</time>
      </trkpt>
      <trkpt lat="41.697160" lon="0.920481">
        <ele>231.817</ele>
        <time>2021-08-19T13:01:17Z</time>
      </trkpt>
      <trkpt lat="41.697177" lon="0.920398">
        <ele>231.870</ele>
        <time>2021-08-19T13:01:19Z</time>
      </trkpt>
      <trkpt lat="41.697177" lon="0.920398">
        <ele>231.823</ele>
        <time>2021-08-19T13:01:19Z</time>
      </trkpt>
      <trkpt lat="41.697182" lon="0.920329">
        <ele>231.994</ele>
        <time>2021-08-19T13:01:21Z</time>
      </trkpt>
      <trkpt lat="41.697186" lon="0.920264">
        <ele>231.931</ele>
        <time>2021-08-19T13:01:23Z</time>
      </trkpt>
      <trkpt lat="41.697196" lon="0.920172">
        <ele>231.949</ele>
        <time>2021-08-19T13:01:25Z</time>
      </trkpt>
      <trkpt lat="41.697198" lon="0.920101">
        <ele>231.958</ele>
        <time>2021-08-19T13:01:27Z</time>
      </trkpt>
      <trkpt lat="41.697201" lon="0.920005">
        <ele>231.947</ele>
        <time>2021-08-19T13:01:29Z</time>
      </trkpt>
      <trkpt lat="41.697221" lon="0.919916">
        <ele>232.027</ele>
        <time>2021-08-19T13:01:31Z</time>
      </trkpt>
      <trkpt lat="41.697240" lon="0.919816">
        <ele>232.068</ele>
        <time>2021-08-19T13:01:33Z</time>
      </trkpt>
      <trkpt lat="41.697263" lon="0.919723">
        <ele>232.114</ele>
        <time>2021-08-19T13:01:35Z</time>
      </trkpt>
      <trkpt lat="41.697280" lon="0.919632">
        <ele>232.108</ele>
        <time>2021-08-19T13:01:37Z</time>
      </trkpt>
      <trkpt lat="41.697290" lon="0.919570">
        <ele>232.110</ele>
        <time>2021-08-19T13:01:38Z</time>
      </trkpt>
      <trkpt lat="41.697297" lon="0.919501">
        <ele>232.193</ele>
        <time>2021-08-19T13:01:39Z</time>
      </trkpt>
      <trkpt lat="41.697307" lon="0.919414">
        <ele>231.966</ele>
        <time>2021-08-19T13:01:41Z</time>
      </trkpt>
      <trkpt lat="41.697315" lon="0.919337">
        <ele>231.697</ele>
        <time>2021-08-19T13:01:42Z</time>
      </trkpt>
      <trkpt lat="41.697331" lon="0.919227">
        <ele>231.214</ele>
        <time>2021-08-19T13:01:44Z</time>
      </trkpt>
      <trkpt lat="41.697344" lon="0.919156">
        <ele>231.042</ele>
        <time>2021-08-19T13:01:45Z</time>
      </trkpt>
      <trkpt lat="41.697355" lon="0.919072">
        <ele>231.081</ele>
        <time>2021-08-19T13:01:47Z</time>
      </trkpt>
      <trkpt lat="41.697363" lon="0.919007">
        <ele>231.090</ele>
        <time>2021-08-19T13:01:48Z</time>
      </trkpt>
      <trkpt lat="41.697374" lon="0.918902">
        <ele>231.044</ele>
        <time>2021-08-19T13:01:50Z</time>
      </trkpt>
      <trkpt lat="41.697386" lon="0.918804">
        <ele>231.205</ele>
        <time>2021-08-19T13:01:52Z</time>
      </trkpt>
      <trkpt lat="41.697397" lon="0.918730">
        <ele>231.415</ele>
        <time>2021-08-19T13:01:53Z</time>
      </trkpt>
      <trkpt lat="41.697415" lon="0.918616">
        <ele>231.708</ele>
        <time>2021-08-19T13:01:55Z</time>
      </trkpt>
      <trkpt lat="41.697427" lon="0.918539">
        <ele>231.512</ele>
        <time>2021-08-19T13:01:56Z</time>
      </trkpt>
      <trkpt lat="41.697442" lon="0.918413">
        <ele>231.245</ele>
        <time>2021-08-19T13:01:58Z</time>
      </trkpt>
      <trkpt lat="41.697450" lon="0.918353">
        <ele>231.178</ele>
        <time>2021-08-19T13:01:59Z</time>
      </trkpt>
      <trkpt lat="41.697465" lon="0.918228">
        <ele>230.369</ele>
        <time>2021-08-19T13:02:01Z</time>
      </trkpt>
      <trkpt lat="41.697472" lon="0.918164">
        <ele>229.936</ele>
        <time>2021-08-19T13:02:02Z</time>
      </trkpt>
      <trkpt lat="41.697488" lon="0.918026">
        <ele>229.074</ele>
        <time>2021-08-19T13:02:04Z</time>
      </trkpt>
      <trkpt lat="41.697510" lon="0.917880">
        <ele>228.383</ele>
        <time>2021-08-19T13:02:06Z</time>
      </trkpt>
      <trkpt lat="41.697519" lon="0.917806">
        <ele>228.012</ele>
        <time>2021-08-19T13:02:07Z</time>
      </trkpt>
      <trkpt lat="41.697534" lon="0.917655">
        <ele>227.512</ele>
        <time>2021-08-19T13:02:09Z</time>
      </trkpt>
      <trkpt lat="41.697553" lon="0.917508">
        <ele>227.232</ele>
        <time>2021-08-19T13:02:11Z</time>
      </trkpt>
      <trkpt lat="41.697569" lon="0.917364">
        <ele>227.105</ele>
        <time>2021-08-19T13:02:13Z</time>
      </trkpt>
      <trkpt lat="41.697587" lon="0.917226">
        <ele>227.008</ele>
        <time>2021-08-19T13:02:15Z</time>
      </trkpt>
      <trkpt lat="41.697594" lon="0.917159">
        <ele>227.019</ele>
        <time>2021-08-19T13:02:16Z</time>
      </trkpt>
      <trkpt lat="41.697612" lon="0.917024">
        <ele>227.052</ele>
        <time>2021-08-19T13:02:18Z</time>
      </trkpt>
      <trkpt lat="41.697625" lon="0.916886">
        <ele>227.065</ele>
        <time>2021-08-19T13:02:20Z</time>
      </trkpt>
      <trkpt lat="41.697643" lon="0.916752">
        <ele>227.016</ele>
        <time>2021-08-19T13:02:22Z</time>
      </trkpt>
      <trkpt lat="41.697656" lon="0.916623">
        <ele>226.963</ele>
        <time>2021-08-19T13:02:24Z</time>
      </trkpt>
      <trkpt lat="41.697676" lon="0.916497">
        <ele>226.611</ele>
        <time>2021-08-19T13:02:26Z</time>
      </trkpt>
      <trkpt lat="41.697683" lon="0.916435">
        <ele>226.520</ele>
        <time>2021-08-19T13:02:27Z</time>
      </trkpt>
      <trkpt lat="41.697690" lon="0.916375">
        <ele>226.319</ele>
        <time>2021-08-19T13:02:28Z</time>
      </trkpt>
      <trkpt lat="41.697704" lon="0.916268">
        <ele>226.073</ele>
        <time>2021-08-19T13:02:30Z</time>
      </trkpt>
      <trkpt lat="41.697730" lon="0.916168">
        <ele>225.985</ele>
        <time>2021-08-19T13:02:32Z</time>
      </trkpt>
      <trkpt lat="41.697765" lon="0.916070">
        <ele>226.013</ele>
        <time>2021-08-19T13:02:34Z</time>
      </trkpt>
      <trkpt lat="41.697809" lon="0.915990">
        <ele>225.908</ele>
        <time>2021-08-19T13:02:36Z</time>
      </trkpt>
      <trkpt lat="41.697871" lon="0.915965">
        <ele>225.735</ele>
        <time>2021-08-19T13:02:39Z</time>
      </trkpt>
      <trkpt lat="41.697922" lon="0.915892">
        <ele>225.578</ele>
        <time>2021-08-19T13:02:40Z</time>
      </trkpt>
      <trkpt lat="41.697975" lon="0.915815">
        <ele>225.331</ele>
        <time>2021-08-19T13:02:41Z</time>
      </trkpt>
      <trkpt lat="41.698018" lon="0.915761">
        <ele>225.442</ele>
        <time>2021-08-19T13:02:43Z</time>
      </trkpt>
      <trkpt lat="41.698062" lon="0.915708">
        <ele>225.469</ele>
        <time>2021-08-19T13:02:44Z</time>
      </trkpt>
      <trkpt lat="41.698109" lon="0.915642">
        <ele>225.627</ele>
        <time>2021-08-19T13:02:46Z</time>
      </trkpt>
      <trkpt lat="41.698152" lon="0.915587">
        <ele>225.616</ele>
        <time>2021-08-19T13:02:48Z</time>
      </trkpt>
      <trkpt lat="41.698193" lon="0.915538">
        <ele>225.535</ele>
        <time>2021-08-19T13:02:49Z</time>
      </trkpt>
      <trkpt lat="41.698240" lon="0.915475">
        <ele>225.116</ele>
        <time>2021-08-19T13:02:51Z</time>
      </trkpt>
      <trkpt lat="41.698284" lon="0.915426">
        <ele>224.876</ele>
        <time>2021-08-19T13:02:53Z</time>
      </trkpt>
      <trkpt lat="41.698326" lon="0.915379">
        <ele>224.413</ele>
        <time>2021-08-19T13:02:54Z</time>
      </trkpt>
      <trkpt lat="41.698366" lon="0.915334">
        <ele>224.108</ele>
        <time>2021-08-19T13:02:56Z</time>
      </trkpt>
      <trkpt lat="41.698411" lon="0.915271">
        <ele>223.779</ele>
        <time>2021-08-19T13:02:58Z</time>
      </trkpt>
      <trkpt lat="41.698445" lon="0.915227">
        <ele>223.752</ele>
        <time>2021-08-19T13:02:59Z</time>
      </trkpt>
      <trkpt lat="41.698505" lon="0.915155">
        <ele>223.695</ele>
        <time>2021-08-19T13:03:01Z</time>
      </trkpt>
      <trkpt lat="41.698557" lon="0.915105">
        <ele>223.366</ele>
        <time>2021-08-19T13:03:02Z</time>
      </trkpt>
      <trkpt lat="41.698618" lon="0.915055">
        <ele>223.063</ele>
        <time>2021-08-19T13:03:04Z</time>
      </trkpt>
      <trkpt lat="41.698656" lon="0.915011">
        <ele>223.211</ele>
        <time>2021-08-19T13:03:05Z</time>
      </trkpt>
      <trkpt lat="41.698729" lon="0.914934">
        <ele>223.840</ele>
        <time>2021-08-19T13:03:07Z</time>
      </trkpt>
      <trkpt lat="41.698798" lon="0.914860">
        <ele>224.359</ele>
        <time>2021-08-19T13:03:09Z</time>
      </trkpt>
      <trkpt lat="41.698834" lon="0.914792">
        <ele>224.792</ele>
        <time>2021-08-19T13:03:11Z</time>
      </trkpt>
      <trkpt lat="41.698884" lon="0.914726">
        <ele>225.073</ele>
        <time>2021-08-19T13:03:12Z</time>
      </trkpt>
      <trkpt lat="41.698949" lon="0.914652">
        <ele>225.120</ele>
        <time>2021-08-19T13:03:14Z</time>
      </trkpt>
      <trkpt lat="41.699006" lon="0.914589">
        <ele>225.208</ele>
        <time>2021-08-19T13:03:16Z</time>
      </trkpt>
      <trkpt lat="41.699053" lon="0.914532">
        <ele>225.457</ele>
        <time>2021-08-19T13:03:17Z</time>
      </trkpt>
      <trkpt lat="41.699105" lon="0.914468">
        <ele>225.740</ele>
        <time>2021-08-19T13:03:19Z</time>
      </trkpt>
      <trkpt lat="41.699170" lon="0.914398">
        <ele>225.813</ele>
        <time>2021-08-19T13:03:21Z</time>
      </trkpt>
      <trkpt lat="41.699208" lon="0.914352">
        <ele>225.984</ele>
        <time>2021-08-19T13:03:22Z</time>
      </trkpt>
      <trkpt lat="41.699248" lon="0.914301">
        <ele>226.161</ele>
        <time>2021-08-19T13:03:24Z</time>
      </trkpt>
      <trkpt lat="41.699295" lon="0.914248">
        <ele>226.449</ele>
        <time>2021-08-19T13:03:25Z</time>
      </trkpt>
      <trkpt lat="41.699354" lon="0.914178">
        <ele>227.098</ele>
        <time>2021-08-19T13:03:27Z</time>
      </trkpt>
      <trkpt lat="41.699387" lon="0.914135">
        <ele>227.457</ele>
        <time>2021-08-19T13:03:28Z</time>
      </trkpt>
      <trkpt lat="41.699441" lon="0.914063">
        <ele>228.031</ele>
        <time>2021-08-19T13:03:30Z</time>
      </trkpt>
      <trkpt lat="41.699495" lon="0.913993">
        <ele>228.461</ele>
        <time>2021-08-19T13:03:32Z</time>
      </trkpt>
      <trkpt lat="41.699544" lon="0.913927">
        <ele>228.707</ele>
        <time>2021-08-19T13:03:34Z</time>
      </trkpt>
      <trkpt lat="41.699589" lon="0.913867">
        <ele>229.008</ele>
        <time>2021-08-19T13:03:35Z</time>
      </trkpt>
      <trkpt lat="41.699628" lon="0.913828">
        <ele>229.251</ele>
        <time>2021-08-19T13:03:37Z</time>
      </trkpt>
      <trkpt lat="41.699672" lon="0.913773">
        <ele>229.334</ele>
        <time>2021-08-19T13:03:38Z</time>
      </trkpt>
      <trkpt lat="41.699717" lon="0.913705">
        <ele>229.377</ele>
        <time>2021-08-19T13:03:40Z</time>
      </trkpt>
      <trkpt lat="41.699769" lon="0.913635">
        <ele>228.998</ele>
        <time>2021-08-19T13:03:42Z</time>
      </trkpt>
      <trkpt lat="41.699806" lon="0.913589">
        <ele>228.645</ele>
        <time>2021-08-19T13:03:43Z</time>
      </trkpt>
      <trkpt lat="41.699848" lon="0.913534">
        <ele>228.143</ele>
        <time>2021-08-19T13:03:45Z</time>
      </trkpt>
      <trkpt lat="41.699848" lon="0.913534">
        <ele>228.122</ele>
        <time>2021-08-19T13:03:45Z</time>
      </trkpt>
      <trkpt lat="41.699881" lon="0.913488">
        <ele>227.771</ele>
        <time>2021-08-19T13:03:46Z</time>
      </trkpt>
      <trkpt lat="41.699914" lon="0.913443">
        <ele>227.369</ele>
        <time>2021-08-19T13:03:48Z</time>
      </trkpt>
      <trkpt lat="41.699945" lon="0.913398">
        <ele>226.804</ele>
        <time>2021-08-19T13:03:49Z</time>
      </trkpt>
      <trkpt lat="41.699980" lon="0.913355">
        <ele>226.324</ele>
        <time>2021-08-19T13:03:50Z</time>
      </trkpt>
      <trkpt lat="41.700033" lon="0.913282">
        <ele>225.608</ele>
        <time>2021-08-19T13:03:52Z</time>
      </trkpt>
      <trkpt lat="41.700087" lon="0.913217">
        <ele>225.014</ele>
        <time>2021-08-19T13:03:54Z</time>
      </trkpt>
      <trkpt lat="41.700117" lon="0.913169">
        <ele>224.657</ele>
        <time>2021-08-19T13:03:55Z</time>
      </trkpt>
      <trkpt lat="41.700161" lon="0.913107">
        <ele>224.070</ele>
        <time>2021-08-19T13:03:57Z</time>
      </trkpt>
      <trkpt lat="41.700203" lon="0.913052">
        <ele>223.531</ele>
        <time>2021-08-19T13:03:59Z</time>
      </trkpt>
      <trkpt lat="41.700243" lon="0.912994">
        <ele>223.488</ele>
        <time>2021-08-19T13:04:00Z</time>
      </trkpt>
      <trkpt lat="41.700282" lon="0.912939">
        <ele>223.476</ele>
        <time>2021-08-19T13:04:02Z</time>
      </trkpt>
      <trkpt lat="41.700319" lon="0.912891">
        <ele>223.765</ele>
        <time>2021-08-19T13:04:03Z</time>
      </trkpt>
      <trkpt lat="41.700356" lon="0.912838">
        <ele>223.854</ele>
        <time>2021-08-19T13:04:05Z</time>
      </trkpt>
      <trkpt lat="41.700392" lon="0.912789">
        <ele>224.021</ele>
        <time>2021-08-19T13:04:06Z</time>
      </trkpt>
      <trkpt lat="41.700427" lon="0.912739">
        <ele>224.141</ele>
        <time>2021-08-19T13:04:08Z</time>
      </trkpt>
      <trkpt lat="41.700456" lon="0.912689">
        <ele>224.305</ele>
        <time>2021-08-19T13:04:09Z</time>
      </trkpt>
      <trkpt lat="41.700488" lon="0.912640">
        <ele>224.508</ele>
        <time>2021-08-19T13:04:11Z</time>
      </trkpt>
      <trkpt lat="41.700522" lon="0.912598">
        <ele>224.650</ele>
        <time>2021-08-19T13:04:12Z</time>
      </trkpt>
      <trkpt lat="41.700568" lon="0.912543">
        <ele>224.923</ele>
        <time>2021-08-19T13:04:14Z</time>
      </trkpt>
      <trkpt lat="41.700607" lon="0.912483">
        <ele>225.056</ele>
        <time>2021-08-19T13:04:15Z</time>
      </trkpt>
      <trkpt lat="41.700648" lon="0.912427">
        <ele>225.177</ele>
        <time>2021-08-19T13:04:17Z</time>
      </trkpt>
      <trkpt lat="41.700698" lon="0.912369">
        <ele>225.254</ele>
        <time>2021-08-19T13:04:19Z</time>
      </trkpt>
      <trkpt lat="41.700747" lon="0.912297">
        <ele>225.522</ele>
        <time>2021-08-19T13:04:21Z</time>
      </trkpt>
      <trkpt lat="41.700786" lon="0.912245">
        <ele>225.851</ele>
        <time>2021-08-19T13:04:23Z</time>
      </trkpt>
      <trkpt lat="41.700827" lon="0.912175">
        <ele>226.050</ele>
        <time>2021-08-19T13:04:25Z</time>
      </trkpt>
      <trkpt lat="41.700877" lon="0.912118">
        <ele>226.018</ele>
        <time>2021-08-19T13:04:27Z</time>
      </trkpt>
      <trkpt lat="41.700922" lon="0.912061">
        <ele>226.098</ele>
        <time>2021-08-19T13:04:29Z</time>
      </trkpt>
      <trkpt lat="41.700956" lon="0.912008">
        <ele>226.017</ele>
        <time>2021-08-19T13:04:30Z</time>
      </trkpt>
      <trkpt lat="41.701004" lon="0.911949">
        <ele>226.008</ele>
        <time>2021-08-19T13:04:32Z</time>
      </trkpt>
      <trkpt lat="41.701039" lon="0.911891">
        <ele>225.979</ele>
        <time>2021-08-19T13:04:34Z</time>
      </trkpt>
      <trkpt lat="41.701075" lon="0.911841">
        <ele>225.732</ele>
        <time>2021-08-19T13:04:35Z</time>
      </trkpt>
      <trkpt lat="41.701111" lon="0.911790">
        <ele>225.425</ele>
        <time>2021-08-19T13:04:37Z</time>
      </trkpt>
      <trkpt lat="41.701144" lon="0.911744">
        <ele>225.376</ele>
        <time>2021-08-19T13:04:38Z</time>
      </trkpt>
      <trkpt lat="41.701181" lon="0.911691">
        <ele>225.183</ele>
        <time>2021-08-19T13:04:39Z</time>
      </trkpt>
      <trkpt lat="41.701224" lon="0.911634">
        <ele>225.071</ele>
        <time>2021-08-19T13:04:41Z</time>
      </trkpt>
      <trkpt lat="41.701257" lon="0.911591">
        <ele>224.960</ele>
        <time>2021-08-19T13:04:42Z</time>
      </trkpt>
      <trkpt lat="41.701298" lon="0.911536">
        <ele>224.759</ele>
        <time>2021-08-19T13:04:44Z</time>
      </trkpt>
      <trkpt lat="41.701343" lon="0.911476">
        <ele>224.462</ele>
        <time>2021-08-19T13:04:46Z</time>
      </trkpt>
      <trkpt lat="41.701374" lon="0.911432">
        <ele>224.283</ele>
        <time>2021-08-19T13:04:47Z</time>
      </trkpt>
      <trkpt lat="41.701418" lon="0.911377">
        <ele>224.211</ele>
        <time>2021-08-19T13:04:48Z</time>
      </trkpt>
      <trkpt lat="41.701460" lon="0.911321">
        <ele>224.408</ele>
        <time>2021-08-19T13:04:50Z</time>
      </trkpt>
      <trkpt lat="41.701511" lon="0.911252">
        <ele>224.734</ele>
        <time>2021-08-19T13:04:52Z</time>
      </trkpt>
      <trkpt lat="41.701559" lon="0.911190">
        <ele>224.867</ele>
        <time>2021-08-19T13:04:54Z</time>
      </trkpt>
      <trkpt lat="41.701609" lon="0.911119">
        <ele>224.880</ele>
        <time>2021-08-19T13:04:56Z</time>
      </trkpt>
      <trkpt lat="41.701646" lon="0.911071">
        <ele>224.981</ele>
        <time>2021-08-19T13:04:58Z</time>
      </trkpt>
      <trkpt lat="41.701688" lon="0.911016">
        <ele>225.158</ele>
        <time>2021-08-19T13:04:59Z</time>
      </trkpt>
      <trkpt lat="41.701738" lon="0.910953">
        <ele>225.446</ele>
        <time>2021-08-19T13:05:01Z</time>
      </trkpt>
      <trkpt lat="41.701780" lon="0.910890">
        <ele>225.795</ele>
        <time>2021-08-19T13:05:03Z</time>
      </trkpt>
      <trkpt lat="41.701822" lon="0.910844">
        <ele>226.144</ele>
        <time>2021-08-19T13:05:05Z</time>
      </trkpt>
      <trkpt lat="41.701856" lon="0.910792">
        <ele>226.454</ele>
        <time>2021-08-19T13:05:06Z</time>
      </trkpt>
      <trkpt lat="41.701888" lon="0.910742">
        <ele>226.756</ele>
        <time>2021-08-19T13:05:08Z</time>
      </trkpt>
      <trkpt lat="41.701930" lon="0.910684">
        <ele>226.911</ele>
        <time>2021-08-19T13:05:09Z</time>
      </trkpt>
      <trkpt lat="41.701967" lon="0.910628">
        <ele>227.008</ele>
        <time>2021-08-19T13:05:11Z</time>
      </trkpt>
      <trkpt lat="41.702009" lon="0.910567">
        <ele>227.033</ele>
        <time>2021-08-19T13:05:13Z</time>
      </trkpt>
      <trkpt lat="41.702049" lon="0.910504">
        <ele>226.976</ele>
        <time>2021-08-19T13:05:15Z</time>
      </trkpt>
      <trkpt lat="41.702080" lon="0.910459">
        <ele>226.839</ele>
        <time>2021-08-19T13:05:16Z</time>
      </trkpt>
      <trkpt lat="41.702117" lon="0.910396">
        <ele>226.870</ele>
        <time>2021-08-19T13:05:18Z</time>
      </trkpt>
      <trkpt lat="41.702150" lon="0.910341">
        <ele>226.857</ele>
        <time>2021-08-19T13:05:19Z</time>
      </trkpt>
      <trkpt lat="41.702191" lon="0.910262">
        <ele>226.875</ele>
        <time>2021-08-19T13:05:21Z</time>
      </trkpt>
      <trkpt lat="41.702222" lon="0.910188">
        <ele>226.724</ele>
        <time>2021-08-19T13:05:23Z</time>
      </trkpt>
      <trkpt lat="41.702248" lon="0.910130">
        <ele>226.553</ele>
        <time>2021-08-19T13:05:24Z</time>
      </trkpt>
      <trkpt lat="41.702276" lon="0.910066">
        <ele>226.263</ele>
        <time>2021-08-19T13:05:26Z</time>
      </trkpt>
      <trkpt lat="41.702299" lon="0.910005">
        <ele>226.044</ele>
        <time>2021-08-19T13:05:27Z</time>
      </trkpt>
      <trkpt lat="41.702327" lon="0.909936">
        <ele>226.018</ele>
        <time>2021-08-19T13:05:29Z</time>
      </trkpt>
      <trkpt lat="41.702350" lon="0.909882">
        <ele>226.008</ele>
        <time>2021-08-19T13:05:30Z</time>
      </trkpt>
      <trkpt lat="41.702373" lon="0.909828">
        <ele>226.074</ele>
        <time>2021-08-19T13:05:31Z</time>
      </trkpt>
      <trkpt lat="41.702409" lon="0.909733">
        <ele>226.027</ele>
        <time>2021-08-19T13:05:33Z</time>
      </trkpt>
      <trkpt lat="41.702435" lon="0.909660">
        <ele>226.010</ele>
        <time>2021-08-19T13:05:35Z</time>
      </trkpt>
      <trkpt lat="41.702453" lon="0.909596">
        <ele>226.061</ele>
        <time>2021-08-19T13:05:36Z</time>
      </trkpt>
      <trkpt lat="41.702482" lon="0.909529">
        <ele>226.088</ele>
        <time>2021-08-19T13:05:38Z</time>
      </trkpt>
      <trkpt lat="41.702523" lon="0.909451">
        <ele>226.026</ele>
        <time>2021-08-19T13:05:40Z</time>
      </trkpt>
      <trkpt lat="41.702557" lon="0.909379">
        <ele>226.025</ele>
        <time>2021-08-19T13:05:41Z</time>
      </trkpt>
      <trkpt lat="41.702591" lon="0.909306">
        <ele>226.074</ele>
        <time>2021-08-19T13:05:43Z</time>
      </trkpt>
      <trkpt lat="41.702616" lon="0.909240">
        <ele>226.075</ele>
        <time>2021-08-19T13:05:45Z</time>
      </trkpt>
      <trkpt lat="41.702641" lon="0.909185">
        <ele>226.028</ele>
        <time>2021-08-19T13:05:46Z</time>
      </trkpt>
      <trkpt lat="41.702677" lon="0.909110">
        <ele>225.920</ele>
        <time>2021-08-19T13:05:48Z</time>
      </trkpt>
      <trkpt lat="41.702708" lon="0.909035">
        <ele>225.608</ele>
        <time>2021-08-19T13:05:50Z</time>
      </trkpt>
      <trkpt lat="41.702739" lon="0.908966">
        <ele>225.425</ele>
        <time>2021-08-19T13:05:51Z</time>
      </trkpt>
      <trkpt lat="41.702760" lon="0.908905">
        <ele>225.148</ele>
        <time>2021-08-19T13:05:52Z</time>
      </trkpt>
      <trkpt lat="41.702776" lon="0.908847">
        <ele>225.051</ele>
        <time>2021-08-19T13:05:54Z</time>
      </trkpt>
      <trkpt lat="41.702797" lon="0.908793">
        <ele>225.032</ele>
        <time>2021-08-19T13:05:55Z</time>
      </trkpt>
      <trkpt lat="41.702826" lon="0.908710">
        <ele>225.159</ele>
        <time>2021-08-19T13:05:57Z</time>
      </trkpt>
      <trkpt lat="41.702850" lon="0.908629">
        <ele>225.267</ele>
        <time>2021-08-19T13:05:59Z</time>
      </trkpt>
      <trkpt lat="41.702875" lon="0.908559">
        <ele>225.686</ele>
        <time>2021-08-19T13:06:01Z</time>
      </trkpt>
      <trkpt lat="41.702895" lon="0.908492">
        <ele>226.085</ele>
        <time>2021-08-19T13:06:03Z</time>
      </trkpt>
      <trkpt lat="41.702932" lon="0.908421">
        <ele>226.696</ele>
        <time>2021-08-19T13:06:06Z</time>
      </trkpt>
      <trkpt lat="41.702974" lon="0.908385">
        <ele>227.131</ele>
        <time>2021-08-19T13:06:08Z</time>
      </trkpt>
      <trkpt lat="41.703024" lon="0.908356">
        <ele>227.624</ele>
        <time>2021-08-19T13:06:10Z</time>
      </trkpt>
      <trkpt lat="41.703066" lon="0.908307">
        <ele>228.408</ele>
        <time>2021-08-19T13:06:12Z</time>
      </trkpt>
      <trkpt lat="41.703094" lon="0.908227">
        <ele>229.447</ele>
        <time>2021-08-19T13:06:14Z</time>
      </trkpt>
      <trkpt lat="41.703106" lon="0.908139">
        <ele>230.390</ele>
        <time>2021-08-19T13:06:16Z</time>
      </trkpt>
      <trkpt lat="41.703096" lon="0.908044">
        <ele>231.293</ele>
        <time>2021-08-19T13:06:18Z</time>
      </trkpt>
      <trkpt lat="41.703085" lon="0.907955">
        <ele>231.524</ele>
        <time>2021-08-19T13:06:20Z</time>
      </trkpt>
      <trkpt lat="41.703097" lon="0.907894">
        <ele>231.761</ele>
        <time>2021-08-19T13:06:22Z</time>
      </trkpt>
      <trkpt lat="41.703114" lon="0.907810">
        <ele>232.169</ele>
        <time>2021-08-19T13:06:24Z</time>
      </trkpt>
      <trkpt lat="41.703132" lon="0.907743">
        <ele>232.368</ele>
        <time>2021-08-19T13:06:26Z</time>
      </trkpt>
      <trkpt lat="41.703155" lon="0.907686">
        <ele>232.477</ele>
        <time>2021-08-19T13:06:28Z</time>
      </trkpt>
      <trkpt lat="41.703180" lon="0.907633">
        <ele>232.485</ele>
        <time>2021-08-19T13:06:30Z</time>
      </trkpt>
      <trkpt lat="41.703197" lon="0.907562">
        <ele>232.589</ele>
        <time>2021-08-19T13:06:33Z</time>
      </trkpt>
      <trkpt lat="41.703228" lon="0.907495">
        <ele>232.617</ele>
        <time>2021-08-19T13:06:37Z</time>
      </trkpt>
      <trkpt lat="41.703250" lon="0.907438">
        <ele>232.708</ele>
        <time>2021-08-19T13:06:40Z</time>
      </trkpt>
      <trkpt lat="41.703269" lon="0.907371">
        <ele>232.856</ele>
        <time>2021-08-19T13:06:43Z</time>
      </trkpt>
      <trkpt lat="41.703300" lon="0.907294">
        <ele>232.949</ele>
        <time>2021-08-19T13:06:46Z</time>
      </trkpt>
      <trkpt lat="41.703330" lon="0.907224">
        <ele>233.022</ele>
        <time>2021-08-19T13:06:49Z</time>
      </trkpt>
      <trkpt lat="41.703349" lon="0.907161">
        <ele>232.833</ele>
        <time>2021-08-19T13:06:52Z</time>
      </trkpt>
      <trkpt lat="41.703367" lon="0.907101">
        <ele>232.720</ele>
        <time>2021-08-19T13:06:54Z</time>
      </trkpt>
      <trkpt lat="41.703397" lon="0.907025">
        <ele>232.558</ele>
        <time>2021-08-19T13:06:57Z</time>
      </trkpt>
      <trkpt lat="41.703416" lon="0.906942">
        <ele>232.377</ele>
        <time>2021-08-19T13:07:00Z</time>
      </trkpt>
      <trkpt lat="41.703447" lon="0.906868">
        <ele>232.156</ele>
        <time>2021-08-19T13:07:03Z</time>
      </trkpt>
      <trkpt lat="41.703483" lon="0.906803">
        <ele>232.017</ele>
        <time>2021-08-19T13:07:06Z</time>
      </trkpt>
      <trkpt lat="41.703508" lon="0.906745">
        <ele>231.987</ele>
        <time>2021-08-19T13:07:09Z</time>
      </trkpt>
      <trkpt lat="41.703537" lon="0.906681">
        <ele>231.815</ele>
        <time>2021-08-19T13:07:12Z</time>
      </trkpt>
      <trkpt lat="41.703581" lon="0.906629">
        <ele>231.808</ele>
        <time>2021-08-19T13:07:15Z</time>
      </trkpt>
      <trkpt lat="41.703629" lon="0.906572">
        <ele>231.889</ele>
        <time>2021-08-19T13:07:18Z</time>
      </trkpt>
      <trkpt lat="41.703678" lon="0.906529">
        <ele>232.132</ele>
        <time>2021-08-19T13:07:21Z</time>
      </trkpt>
      <trkpt lat="41.703710" lon="0.906481">
        <ele>232.315</ele>
        <time>2021-08-19T13:07:23Z</time>
      </trkpt>
      <trkpt lat="41.703758" lon="0.906425">
        <ele>232.666</ele>
        <time>2021-08-19T13:07:26Z</time>
      </trkpt>
      <trkpt lat="41.703803" lon="0.906364">
        <ele>233.143</ele>
        <time>2021-08-19T13:07:29Z</time>
      </trkpt>
      <trkpt lat="41.703855" lon="0.906309">
        <ele>233.791</ele>
        <time>2021-08-19T13:07:32Z</time>
      </trkpt>
      <trkpt lat="41.703892" lon="0.906273">
        <ele>234.070</ele>
        <time>2021-08-19T13:07:34Z</time>
      </trkpt>
      <trkpt lat="41.703945" lon="0.906217">
        <ele>234.369</ele>
        <time>2021-08-19T13:07:37Z</time>
      </trkpt>
      <trkpt lat="41.703984" lon="0.906182">
        <ele>234.493</ele>
        <time>2021-08-19T13:07:39Z</time>
      </trkpt>
      <trkpt lat="41.704024" lon="0.906145">
        <ele>234.565</ele>
        <time>2021-08-19T13:07:41Z</time>
      </trkpt>
      <trkpt lat="41.704065" lon="0.906117">
        <ele>234.621</ele>
        <time>2021-08-19T13:07:43Z</time>
      </trkpt>
      <trkpt lat="41.704108" lon="0.906098">
        <ele>234.808</ele>
        <time>2021-08-19T13:07:45Z</time>
      </trkpt>
      <trkpt lat="41.704167" lon="0.906064">
        <ele>234.857</ele>
        <time>2021-08-19T13:07:48Z</time>
      </trkpt>
      <trkpt lat="41.704217" lon="0.906015">
        <ele>234.720</ele>
        <time>2021-08-19T13:07:51Z</time>
      </trkpt>
      <trkpt lat="41.704253" lon="0.905960">
        <ele>234.563</ele>
        <time>2021-08-19T13:07:53Z</time>
      </trkpt>
      <trkpt lat="41.704297" lon="0.905926">
        <ele>234.374</ele>
        <time>2021-08-19T13:07:55Z</time>
      </trkpt>
      <trkpt lat="41.704337" lon="0.905888">
        <ele>234.211</ele>
        <time>2021-08-19T13:07:57Z</time>
      </trkpt>
      <trkpt lat="41.704373" lon="0.905837">
        <ele>234.039</ele>
        <time>2021-08-19T13:07:59Z</time>
      </trkpt>
      <trkpt lat="41.704411" lon="0.905798">
        <ele>234.038</ele>
        <time>2021-08-19T13:08:01Z</time>
      </trkpt>
      <trkpt lat="41.704442" lon="0.905742">
        <ele>234.097</ele>
        <time>2021-08-19T13:08:03Z</time>
      </trkpt>
      <trkpt lat="41.704477" lon="0.905674">
        <ele>234.177</ele>
        <time>2021-08-19T13:08:06Z</time>
      </trkpt>
      <trkpt lat="41.704492" lon="0.905608">
        <ele>234.061</ele>
        <time>2021-08-19T13:08:08Z</time>
      </trkpt>
      <trkpt lat="41.704518" lon="0.905549">
        <ele>234.027</ele>
        <time>2021-08-19T13:08:11Z</time>
      </trkpt>
      <trkpt lat="41.704554" lon="0.905493">
        <ele>233.808</ele>
        <time>2021-08-19T13:08:13Z</time>
      </trkpt>
      <trkpt lat="41.704583" lon="0.905440">
        <ele>233.615</ele>
        <time>2021-08-19T13:08:15Z</time>
      </trkpt>
      <trkpt lat="41.704621" lon="0.905377">
        <ele>233.428</ele>
        <time>2021-08-19T13:08:18Z</time>
      </trkpt>
      <trkpt lat="41.704646" lon="0.905308">
        <ele>233.191</ele>
        <time>2021-08-19T13:08:21Z</time>
      </trkpt>
      <trkpt lat="41.704677" lon="0.905245">
        <ele>232.952</ele>
        <time>2021-08-19T13:08:23Z</time>
      </trkpt>
      <trkpt lat="41.704715" lon="0.905179">
        <ele>232.789</ele>
        <time>2021-08-19T13:08:25Z</time>
      </trkpt>
      <trkpt lat="41.704759" lon="0.905111">
        <ele>232.527</ele>
        <time>2021-08-19T13:08:28Z</time>
      </trkpt>
      <trkpt lat="41.704793" lon="0.905045">
        <ele>232.476</ele>
        <time>2021-08-19T13:08:31Z</time>
      </trkpt>
      <trkpt lat="41.704832" lon="0.904978">
        <ele>232.475</ele>
        <time>2021-08-19T13:08:34Z</time>
      </trkpt>
      <trkpt lat="41.704861" lon="0.904926">
        <ele>232.579</ele>
        <time>2021-08-19T13:10:49Z</time>
      </trkpt>
      <trkpt lat="41.704887" lon="0.904868">
        <ele>232.605</ele>
        <time>2021-08-19T13:10:53Z</time>
      </trkpt>
      <trkpt lat="41.704915" lon="0.904818">
        <ele>232.725</ele>
        <time>2021-08-19T13:10:55Z</time>
      </trkpt>
      <trkpt lat="41.704958" lon="0.904744">
        <ele>232.808</ele>
        <time>2021-08-19T13:10:58Z</time>
      </trkpt>
      <trkpt lat="41.704994" lon="0.904687">
        <ele>232.925</ele>
        <time>2021-08-19T13:11:01Z</time>
      </trkpt>
      <trkpt lat="41.705023" lon="0.904640">
        <ele>232.768</ele>
        <time>2021-08-19T13:11:03Z</time>
      </trkpt>
      <trkpt lat="41.705054" lon="0.904576">
        <ele>232.661</ele>
        <time>2021-08-19T13:11:05Z</time>
      </trkpt>
      <trkpt lat="41.705082" lon="0.904517">
        <ele>232.512</ele>
        <time>2021-08-19T13:11:07Z</time>
      </trkpt>
      <trkpt lat="41.705104" lon="0.904451">
        <ele>232.429</ele>
        <time>2021-08-19T13:11:09Z</time>
      </trkpt>
      <trkpt lat="41.705132" lon="0.904383">
        <ele>232.347</ele>
        <time>2021-08-19T13:11:11Z</time>
      </trkpt>
      <trkpt lat="41.705170" lon="0.904317">
        <ele>232.216</ele>
        <time>2021-08-19T13:11:13Z</time>
      </trkpt>
      <trkpt lat="41.705200" lon="0.904260">
        <ele>232.185</ele>
        <time>2021-08-19T13:11:15Z</time>
      </trkpt>
      <trkpt lat="41.705237" lon="0.904172">
        <ele>231.947</ele>
        <time>2021-08-19T13:11:17Z</time>
      </trkpt>
      <trkpt lat="41.705267" lon="0.904094">
        <ele>232.229</ele>
        <time>2021-08-19T13:11:19Z</time>
      </trkpt>
      <trkpt lat="41.705295" lon="0.904006">
        <ele>232.621</ele>
        <time>2021-08-19T13:11:21Z</time>
      </trkpt>
      <trkpt lat="41.705332" lon="0.903924">
        <ele>232.908</ele>
        <time>2021-08-19T13:11:23Z</time>
      </trkpt>
      <trkpt lat="41.705360" lon="0.903876">
        <ele>233.062</ele>
        <time>2021-08-19T13:11:24Z</time>
      </trkpt>
      <trkpt lat="41.705393" lon="0.903830">
        <ele>233.295</ele>
        <time>2021-08-19T13:11:25Z</time>
      </trkpt>
      <trkpt lat="41.705417" lon="0.903773">
        <ele>233.458</ele>
        <time>2021-08-19T13:11:27Z</time>
      </trkpt>
      <trkpt lat="41.705460" lon="0.903693">
        <ele>233.749</ele>
        <time>2021-08-19T13:11:29Z</time>
      </trkpt>
      <trkpt lat="41.705492" lon="0.903636">
        <ele>233.996</ele>
        <time>2021-08-19T13:11:31Z</time>
      </trkpt>
      <trkpt lat="41.705525" lon="0.903587">
        <ele>234.164</ele>
        <time>2021-08-19T13:11:33Z</time>
      </trkpt>
      <trkpt lat="41.705573" lon="0.903580">
        <ele>234.163</ele>
        <time>2021-08-19T13:11:43Z</time>
      </trkpt>
      <trkpt lat="41.705627" lon="0.903569">
        <ele>234.262</ele>
        <time>2021-08-19T13:11:46Z</time>
      </trkpt>
      <trkpt lat="41.705676" lon="0.903571">
        <ele>234.152</ele>
        <time>2021-08-19T13:11:48Z</time>
      </trkpt>
      <trkpt lat="41.705737" lon="0.903583">
        <ele>234.153</ele>
        <time>2021-08-19T13:11:50Z</time>
      </trkpt>
      <trkpt lat="41.705802" lon="0.903595">
        <ele>234.108</ele>
        <time>2021-08-19T13:11:52Z</time>
      </trkpt>
      <trkpt lat="41.705870" lon="0.903611">
        <ele>234.108</ele>
        <time>2021-08-19T13:11:54Z</time>
      </trkpt>
      <trkpt lat="41.705935" lon="0.903618">
        <ele>234.333</ele>
        <time>2021-08-19T13:11:56Z</time>
      </trkpt>
      <trkpt lat="41.705994" lon="0.903630">
        <ele>234.656</ele>
        <time>2021-08-19T13:11:58Z</time>
      </trkpt>
      <trkpt lat="41.706059" lon="0.903633">
        <ele>234.889</ele>
        <time>2021-08-19T13:12:00Z</time>
      </trkpt>
      <trkpt lat="41.706120" lon="0.903635">
        <ele>235.010</ele>
        <time>2021-08-19T13:12:02Z</time>
      </trkpt>
      <trkpt lat="41.706183" lon="0.903642">
        <ele>235.327</ele>
        <time>2021-08-19T13:12:04Z</time>
      </trkpt>
      <trkpt lat="41.706245" lon="0.903648">
        <ele>235.545</ele>
        <time>2021-08-19T13:12:06Z</time>
      </trkpt>
      <trkpt lat="41.706301" lon="0.903656">
        <ele>235.774</ele>
        <time>2021-08-19T13:12:08Z</time>
      </trkpt>
      <trkpt lat="41.706353" lon="0.903663">
        <ele>235.943</ele>
        <time>2021-08-19T13:12:10Z</time>
      </trkpt>
      <trkpt lat="41.706407" lon="0.903666">
        <ele>236.035</ele>
        <time>2021-08-19T13:12:12Z</time>
      </trkpt>
      <trkpt lat="41.706467" lon="0.903672">
        <ele>236.086</ele>
        <time>2021-08-19T13:12:14Z</time>
      </trkpt>
      <trkpt lat="41.706523" lon="0.903681">
        <ele>236.014</ele>
        <time>2021-08-19T13:12:16Z</time>
      </trkpt>
      <trkpt lat="41.706579" lon="0.903689">
        <ele>236.008</ele>
        <time>2021-08-19T13:12:18Z</time>
      </trkpt>
      <trkpt lat="41.706647" lon="0.903689">
        <ele>236.041</ele>
        <time>2021-08-19T13:12:20Z</time>
      </trkpt>
      <trkpt lat="41.706701" lon="0.903695">
        <ele>236.264</ele>
        <time>2021-08-19T13:12:22Z</time>
      </trkpt>
      <trkpt lat="41.706760" lon="0.903700">
        <ele>236.617</ele>
        <time>2021-08-19T13:12:24Z</time>
      </trkpt>
      <trkpt lat="41.706809" lon="0.903697">
        <ele>236.928</ele>
        <time>2021-08-19T13:12:26Z</time>
      </trkpt>
      <trkpt lat="41.706870" lon="0.903699">
        <ele>237.215</ele>
        <time>2021-08-19T13:12:28Z</time>
      </trkpt>
      <trkpt lat="41.706922" lon="0.903711">
        <ele>237.553</ele>
        <time>2021-08-19T13:12:30Z</time>
      </trkpt>
      <trkpt lat="41.706964" lon="0.903733">
        <ele>237.672</ele>
        <time>2021-08-19T13:12:32Z</time>
      </trkpt>
      <trkpt lat="41.707021" lon="0.903740">
        <ele>237.591</ele>
        <time>2021-08-19T13:12:35Z</time>
      </trkpt>
      <trkpt lat="41.707067" lon="0.903729">
        <ele>237.697</ele>
        <time>2021-08-19T13:13:20Z</time>
      </trkpt>
      <trkpt lat="41.707117" lon="0.903783">
        <ele>237.423</ele>
        <time>2021-08-19T13:13:22Z</time>
      </trkpt>
      <trkpt lat="41.707171" lon="0.903747">
        <ele>237.525</ele>
        <time>2021-08-19T13:13:25Z</time>
      </trkpt>
      <trkpt lat="41.707221" lon="0.903746">
        <ele>237.508</ele>
        <time>2021-08-19T13:13:27Z</time>
      </trkpt>
      <trkpt lat="41.707273" lon="0.903751">
        <ele>237.667</ele>
        <time>2021-08-19T13:13:30Z</time>
      </trkpt>
      <trkpt lat="41.707340" lon="0.903753">
        <ele>237.760</ele>
        <time>2021-08-19T13:13:33Z</time>
      </trkpt>
      <trkpt lat="41.707397" lon="0.903750">
        <ele>237.893</ele>
        <time>2021-08-19T13:13:35Z</time>
      </trkpt>
      <trkpt lat="41.707443" lon="0.903745">
        <ele>237.984</ele>
        <time>2021-08-19T13:13:37Z</time>
      </trkpt>
      <trkpt lat="41.707497" lon="0.903758">
        <ele>237.971</ele>
        <time>2021-08-19T13:13:39Z</time>
      </trkpt>
      <trkpt lat="41.707550" lon="0.903756">
        <ele>238.169</ele>
        <time>2021-08-19T13:13:42Z</time>
      </trkpt>
      <trkpt lat="41.707595" lon="0.903748">
        <ele>238.458</ele>
        <time>2021-08-19T13:13:44Z</time>
      </trkpt>
      <trkpt lat="41.707646" lon="0.903747">
        <ele>238.537</ele>
        <time>2021-08-19T13:13:45Z</time>
      </trkpt>
      <trkpt lat="41.707703" lon="0.903749">
        <ele>238.764</ele>
        <time>2021-08-19T13:13:48Z</time>
      </trkpt>
      <trkpt lat="41.707756" lon="0.903746">
        <ele>238.906</ele>
        <time>2021-08-19T13:13:50Z</time>
      </trkpt>
      <trkpt lat="41.707805" lon="0.903763">
        <ele>239.216</ele>
        <time>2021-08-19T13:13:52Z</time>
      </trkpt>
      <trkpt lat="41.707850" lon="0.903787">
        <ele>239.408</ele>
        <time>2021-08-19T13:13:54Z</time>
      </trkpt>
      <trkpt lat="41.707905" lon="0.903802">
        <ele>239.874</ele>
        <time>2021-08-19T13:13:56Z</time>
      </trkpt>
      <trkpt lat="41.707951" lon="0.903823">
        <ele>240.117</ele>
        <time>2021-08-19T13:13:58Z</time>
      </trkpt>
      <trkpt lat="41.708000" lon="0.903820">
        <ele>240.410</ele>
        <time>2021-08-19T13:14:00Z</time>
      </trkpt>
      <trkpt lat="41.708055" lon="0.903812">
        <ele>240.771</ele>
        <time>2021-08-19T13:14:02Z</time>
      </trkpt>
      <trkpt lat="41.708106" lon="0.903836">
        <ele>240.928</ele>
        <time>2021-08-19T13:14:05Z</time>
      </trkpt>
      <trkpt lat="41.708154" lon="0.903891">
        <ele>241.016</ele>
        <time>2021-08-19T13:14:07Z</time>
      </trkpt>
      <trkpt lat="41.708196" lon="0.903937">
        <ele>241.045</ele>
        <time>2021-08-19T13:14:09Z</time>
      </trkpt>
      <trkpt lat="41.708240" lon="0.903984">
        <ele>241.094</ele>
        <time>2021-08-19T13:14:11Z</time>
      </trkpt>
      <trkpt lat="41.708288" lon="0.904035">
        <ele>241.041</ele>
        <time>2021-08-19T13:14:13Z</time>
      </trkpt>
      <trkpt lat="41.708325" lon="0.904079">
        <ele>241.081</ele>
        <time>2021-08-19T13:14:15Z</time>
      </trkpt>
      <trkpt lat="41.708362" lon="0.904136">
        <ele>241.009</ele>
        <time>2021-08-19T13:14:17Z</time>
      </trkpt>
      <trkpt lat="41.708394" lon="0.904183">
        <ele>241.008</ele>
        <time>2021-08-19T13:14:19Z</time>
      </trkpt>
      <trkpt lat="41.708433" lon="0.904232">
        <ele>241.092</ele>
        <time>2021-08-19T13:14:21Z</time>
      </trkpt>
      <trkpt lat="41.708474" lon="0.904271">
        <ele>241.015</ele>
        <time>2021-08-19T13:14:23Z</time>
      </trkpt>
      <trkpt lat="41.708516" lon="0.904306">
        <ele>241.018</ele>
        <time>2021-08-19T13:14:25Z</time>
      </trkpt>
      <trkpt lat="41.708562" lon="0.904337">
        <ele>241.029</ele>
        <time>2021-08-19T13:14:27Z</time>
      </trkpt>
      <trkpt lat="41.708602" lon="0.904370">
        <ele>241.076</ele>
        <time>2021-08-19T13:14:29Z</time>
      </trkpt>
      <trkpt lat="41.708643" lon="0.904401">
        <ele>241.154</ele>
        <time>2021-08-19T13:14:31Z</time>
      </trkpt>
      <trkpt lat="41.708682" lon="0.904449">
        <ele>241.333</ele>
        <time>2021-08-19T13:14:33Z</time>
      </trkpt>
      <trkpt lat="41.708717" lon="0.904499">
        <ele>241.482</ele>
        <time>2021-08-19T13:14:35Z</time>
      </trkpt>
      <trkpt lat="41.708759" lon="0.904537">
        <ele>241.576</ele>
        <time>2021-08-19T13:14:37Z</time>
      </trkpt>
      <trkpt lat="41.708797" lon="0.904571">
        <ele>241.790</ele>
        <time>2021-08-19T13:14:39Z</time>
      </trkpt>
      <trkpt lat="41.708856" lon="0.904618">
        <ele>241.919</ele>
        <time>2021-08-19T13:14:42Z</time>
      </trkpt>
      <trkpt lat="41.708897" lon="0.904675">
        <ele>242.108</ele>
        <time>2021-08-19T13:14:44Z</time>
      </trkpt>
      <trkpt lat="41.708936" lon="0.904720">
        <ele>242.555</ele>
        <time>2021-08-19T13:14:46Z</time>
      </trkpt>
      <trkpt lat="41.708974" lon="0.904764">
        <ele>243.098</ele>
        <time>2021-08-19T13:14:48Z</time>
      </trkpt>
      <trkpt lat="41.709017" lon="0.904799">
        <ele>243.491</ele>
        <time>2021-08-19T13:14:50Z</time>
      </trkpt>
      <trkpt lat="41.709051" lon="0.904852">
        <ele>243.752</ele>
        <time>2021-08-19T13:14:52Z</time>
      </trkpt>
      <trkpt lat="41.709087" lon="0.904898">
        <ele>243.969</ele>
        <time>2021-08-19T13:14:54Z</time>
      </trkpt>
      <trkpt lat="41.709129" lon="0.904967">
        <ele>244.017</ele>
        <time>2021-08-19T13:14:57Z</time>
      </trkpt>
      <trkpt lat="41.709163" lon="0.905011">
        <ele>244.016</ele>
        <time>2021-08-19T13:14:59Z</time>
      </trkpt>
      <trkpt lat="41.709206" lon="0.904989">
        <ele>244.135</ele>
        <time>2021-08-19T13:15:01Z</time>
      </trkpt>
      <trkpt lat="41.709251" lon="0.904960">
        <ele>244.267</ele>
        <time>2021-08-19T13:15:03Z</time>
      </trkpt>
      <trkpt lat="41.709297" lon="0.904922">
        <ele>244.581</ele>
        <time>2021-08-19T13:15:05Z</time>
      </trkpt>
      <trkpt lat="41.709350" lon="0.904870">
        <ele>245.119</ele>
        <time>2021-08-19T13:15:08Z</time>
      </trkpt>
      <trkpt lat="41.709407" lon="0.904821">
        <ele>245.808</ele>
        <time>2021-08-19T13:15:11Z</time>
      </trkpt>
      <trkpt lat="41.709452" lon="0.904781">
        <ele>246.434</ele>
        <time>2021-08-19T13:15:14Z</time>
      </trkpt>
      <trkpt lat="41.709504" lon="0.904799">
        <ele>246.577</ele>
        <time>2021-08-19T13:15:17Z</time>
      </trkpt>
      <trkpt lat="41.709545" lon="0.904862">
        <ele>246.020</ele>
        <time>2021-08-19T13:15:20Z</time>
      </trkpt>
      <trkpt lat="41.709583" lon="0.904912">
        <ele>245.671</ele>
        <time>2021-08-19T13:15:22Z</time>
      </trkpt>
      <trkpt lat="41.709620" lon="0.904958">
        <ele>245.228</ele>
        <time>2021-08-19T13:15:24Z</time>
      </trkpt>
      <trkpt lat="41.709671" lon="0.905030">
        <ele>244.796</ele>
        <time>2021-08-19T13:15:26Z</time>
      </trkpt>
      <trkpt lat="41.709712" lon="0.905095">
        <ele>244.675</ele>
        <time>2021-08-19T13:15:28Z</time>
      </trkpt>
      <trkpt lat="41.709761" lon="0.905169">
        <ele>244.744</ele>
        <time>2021-08-19T13:15:30Z</time>
      </trkpt>
      <trkpt lat="41.709801" lon="0.905236">
        <ele>244.814</ele>
        <time>2021-08-19T13:15:32Z</time>
      </trkpt>
      <trkpt lat="41.709851" lon="0.905293">
        <ele>244.954</ele>
        <time>2021-08-19T13:15:34Z</time>
      </trkpt>
      <trkpt lat="41.709901" lon="0.905346">
        <ele>245.109</ele>
        <time>2021-08-19T13:15:36Z</time>
      </trkpt>
      <trkpt lat="41.709941" lon="0.905421">
        <ele>245.208</ele>
        <time>2021-08-19T13:15:38Z</time>
      </trkpt>
      <trkpt lat="41.709997" lon="0.905483">
        <ele>245.289</ele>
        <time>2021-08-19T13:15:40Z</time>
      </trkpt>
      <trkpt lat="41.710044" lon="0.905549">
        <ele>245.352</ele>
        <time>2021-08-19T13:15:42Z</time>
      </trkpt>
      <trkpt lat="41.710089" lon="0.905591">
        <ele>245.685</ele>
        <time>2021-08-19T13:15:44Z</time>
      </trkpt>
      <trkpt lat="41.710139" lon="0.905644">
        <ele>245.846</ele>
        <time>2021-08-19T13:15:45Z</time>
      </trkpt>
      <trkpt lat="41.710180" lon="0.905674">
        <ele>246.023</ele>
        <time>2021-08-19T13:15:47Z</time>
      </trkpt>
      <trkpt lat="41.710245" lon="0.905747">
        <ele>246.211</ele>
        <time>2021-08-19T13:15:49Z</time>
      </trkpt>
      <trkpt lat="41.710306" lon="0.905812">
        <ele>246.230</ele>
        <time>2021-08-19T13:15:51Z</time>
      </trkpt>
      <trkpt lat="41.710344" lon="0.905875">
        <ele>246.389</ele>
        <time>2021-08-19T13:15:53Z</time>
      </trkpt>
      <trkpt lat="41.710386" lon="0.905923">
        <ele>246.572</ele>
        <time>2021-08-19T13:15:55Z</time>
      </trkpt>
      <trkpt lat="41.710437" lon="0.905956">
        <ele>246.813</ele>
        <time>2021-08-19T13:15:57Z</time>
      </trkpt>
      <trkpt lat="41.710478" lon="0.905989">
        <ele>247.114</ele>
        <time>2021-08-19T13:15:59Z</time>
      </trkpt>
      <trkpt lat="41.710517" lon="0.906023">
        <ele>247.408</ele>
        <time>2021-08-19T13:16:01Z</time>
      </trkpt>
      <trkpt lat="41.710565" lon="0.906067">
        <ele>247.875</ele>
        <time>2021-08-19T13:16:04Z</time>
      </trkpt>
      <trkpt lat="41.710606" lon="0.906094">
        <ele>247.948</ele>
        <time>2021-08-19T13:16:06Z</time>
      </trkpt>
      <trkpt lat="41.710655" lon="0.906147">
        <ele>247.931</ele>
        <time>2021-08-19T13:16:09Z</time>
      </trkpt>
      <trkpt lat="41.710718" lon="0.906155">
        <ele>247.872</ele>
        <time>2021-08-19T13:16:12Z</time>
      </trkpt>
      <trkpt lat="41.710769" lon="0.906133">
        <ele>247.949</ele>
        <time>2021-08-19T13:16:14Z</time>
      </trkpt>
      <trkpt lat="41.710825" lon="0.906082">
        <ele>248.077</ele>
        <time>2021-08-19T13:16:16Z</time>
      </trkpt>
      <trkpt lat="41.710866" lon="0.906030">
        <ele>247.796</ele>
        <time>2021-08-19T13:16:18Z</time>
      </trkpt>
      <trkpt lat="41.710906" lon="0.905982">
        <ele>247.385</ele>
        <time>2021-08-19T13:16:20Z</time>
      </trkpt>
      <trkpt lat="41.710948" lon="0.905936">
        <ele>247.057</ele>
        <time>2021-08-19T13:16:22Z</time>
      </trkpt>
      <trkpt lat="41.710990" lon="0.905887">
        <ele>246.800</ele>
        <time>2021-08-19T13:16:24Z</time>
      </trkpt>
      <trkpt lat="41.711023" lon="0.905836">
        <ele>246.620</ele>
        <time>2021-08-19T13:16:26Z</time>
      </trkpt>
      <trkpt lat="41.711050" lon="0.905786">
        <ele>246.508</ele>
        <time>2021-08-19T13:16:28Z</time>
      </trkpt>
      <trkpt lat="41.711058" lon="0.905703">
        <ele>246.553</ele>
        <time>2021-08-19T13:16:31Z</time>
      </trkpt>
      <trkpt lat="41.711073" lon="0.905644">
        <ele>246.436</ele>
        <time>2021-08-19T13:16:33Z</time>
      </trkpt>
      <trkpt lat="41.711071" lon="0.905556">
        <ele>246.439</ele>
        <time>2021-08-19T13:16:36Z</time>
      </trkpt>
      <trkpt lat="41.711071" lon="0.905489">
        <ele>246.710</ele>
        <time>2021-08-19T13:16:38Z</time>
      </trkpt>
      <trkpt lat="41.711062" lon="0.905427">
        <ele>247.117</ele>
        <time>2021-08-19T13:16:40Z</time>
      </trkpt>
      <trkpt lat="41.711058" lon="0.905358">
        <ele>247.485</ele>
        <time>2021-08-19T13:16:42Z</time>
      </trkpt>
      <trkpt lat="41.711048" lon="0.905260">
        <ele>248.064</ele>
        <time>2021-08-19T13:16:45Z</time>
      </trkpt>
      <trkpt lat="41.711042" lon="0.905194">
        <ele>248.343</ele>
        <time>2021-08-19T13:16:47Z</time>
      </trkpt>
      <trkpt lat="41.711028" lon="0.905109">
        <ele>248.869</ele>
        <time>2021-08-19T13:16:50Z</time>
      </trkpt>
      <trkpt lat="41.711015" lon="0.905023">
        <ele>249.304</ele>
        <time>2021-08-19T13:16:53Z</time>
      </trkpt>
      <trkpt lat="41.711007" lon="0.904943">
        <ele>249.824</ele>
        <time>2021-08-19T13:16:56Z</time>
      </trkpt>
      <trkpt lat="41.711001" lon="0.904880">
        <ele>250.108</ele>
        <time>2021-08-19T13:16:58Z</time>
      </trkpt>
      <trkpt lat="41.710997" lon="0.904800">
        <ele>250.594</ele>
        <time>2021-08-19T13:17:01Z</time>
      </trkpt>
      <trkpt lat="41.710996" lon="0.904739">
        <ele>250.847</ele>
        <time>2021-08-19T13:17:28Z</time>
      </trkpt>
      <trkpt lat="41.711037" lon="0.904709">
        <ele>250.680</ele>
        <time>2021-08-19T13:18:10Z</time>
      </trkpt>
      <trkpt lat="41.710994" lon="0.904729">
        <ele>250.811</ele>
        <time>2021-08-19T13:18:29Z</time>
      </trkpt>
      <trkpt lat="41.711041" lon="0.904734">
        <ele>250.468</ele>
        <time>2021-08-19T13:19:04Z</time>
      </trkpt>
      <trkpt lat="41.711083" lon="0.904764">
        <ele>249.966</ele>
        <time>2021-08-19T13:19:19Z</time>
      </trkpt>
      <trkpt lat="41.711119" lon="0.904807">
        <ele>249.335</ele>
        <time>2021-08-19T13:19:42Z</time>
      </trkpt>
      <trkpt lat="41.711181" lon="0.904819">
        <ele>248.494</ele>
        <time>2021-08-19T13:19:44Z</time>
      </trkpt>
      <trkpt lat="41.711218" lon="0.904855">
        <ele>247.787</ele>
        <time>2021-08-19T13:20:42Z</time>
      </trkpt>
      <trkpt lat="41.711212" lon="0.904795">
        <ele>248.142</ele>
        <time>2021-08-19T13:21:06Z</time>
      </trkpt>
      <trkpt lat="41.711169" lon="0.904773">
        <ele>248.826</ele>
        <time>2021-08-19T13:22:08Z</time>
      </trkpt>
      <trkpt lat="41.711119" lon="0.904771">
        <ele>249.508</ele>
        <time>2021-08-19T13:22:16Z</time>
      </trkpt>
      <trkpt lat="41.711070" lon="0.904752">
        <ele>250.126</ele>
        <time>2021-08-19T13:22:25Z</time>
      </trkpt>
      <trkpt lat="41.711102" lon="0.904818">
        <ele>249.469</ele>
        <time>2021-08-19T13:23:00Z</time>
      </trkpt>
      <trkpt lat="41.711068" lon="0.904752">
        <ele>250.182</ele>
        <time>2021-08-19T13:23:07Z</time>
      </trkpt>
      <trkpt lat="41.711112" lon="0.904779">
        <ele>249.633</ele>
        <time>2021-08-19T13:23:17Z</time>
      </trkpt>
      <trkpt lat="41.711064" lon="0.904767">
        <ele>250.130</ele>
        <time>2021-08-19T13:24:25Z</time>
      </trkpt>
      <trkpt lat="41.711017" lon="0.904729">
        <ele>250.698</ele>
        <time>2021-08-19T13:24:46Z</time>
      </trkpt>
      <trkpt lat="41.710968" lon="0.904717">
        <ele>251.057</ele>
        <time>2021-08-19T13:28:39Z</time>
      </trkpt>
      <trkpt lat="41.710944" lon="0.904665">
        <ele>251.356</ele>
        <time>2021-08-19T13:30:58Z</time>
      </trkpt>
      <trkpt lat="41.710993" lon="0.904652">
        <ele>251.077</ele>
        <time>2021-08-19T13:31:06Z</time>
      </trkpt>
      <trkpt lat="41.711049" lon="0.904672">
        <ele>250.661</ele>
        <time>2021-08-19T13:31:10Z</time>
      </trkpt>
      <trkpt lat="41.711095" lon="0.904689">
        <ele>250.227</ele>
        <time>2021-08-19T13:31:13Z</time>
      </trkpt>
      <trkpt lat="41.711142" lon="0.904710">
        <ele>249.608</ele>
        <time>2021-08-19T13:31:16Z</time>
      </trkpt>
      <trkpt lat="41.711186" lon="0.904725">
        <ele>248.945</ele>
        <time>2021-08-19T13:31:17Z</time>
      </trkpt>
      <trkpt lat="41.711237" lon="0.904740">
        <ele>248.158</ele>
        <time>2021-08-19T13:31:20Z</time>
      </trkpt>
      <trkpt lat="41.711280" lon="0.904759">
        <ele>247.441</ele>
        <time>2021-08-19T13:31:23Z</time>
      </trkpt>
      <trkpt lat="41.711334" lon="0.904779">
        <ele>246.582</ele>
        <time>2021-08-19T13:31:27Z</time>
      </trkpt>
      <trkpt lat="41.711384" lon="0.904784">
        <ele>245.879</ele>
        <time>2021-08-19T13:31:30Z</time>
      </trkpt>
      <trkpt lat="41.711433" lon="0.904791">
        <ele>245.487</ele>
        <time>2021-08-19T13:31:34Z</time>
      </trkpt>
      <trkpt lat="41.711488" lon="0.904790">
        <ele>245.076</ele>
        <time>2021-08-19T13:31:37Z</time>
      </trkpt>
      <trkpt lat="41.711544" lon="0.904786">
        <ele>244.525</ele>
        <time>2021-08-19T13:31:41Z</time>
      </trkpt>
      <trkpt lat="41.711594" lon="0.904784">
        <ele>244.145</ele>
        <time>2021-08-19T13:31:46Z</time>
      </trkpt>
      <trkpt lat="41.711633" lon="0.904837">
        <ele>243.547</ele>
        <time>2021-08-19T13:31:50Z</time>
      </trkpt>
      <trkpt lat="41.711673" lon="0.904881">
        <ele>242.811</ele>
        <time>2021-08-19T13:31:54Z</time>
      </trkpt>
      <trkpt lat="41.711700" lon="0.904930">
        <ele>242.408</ele>
        <time>2021-08-19T13:32:09Z</time>
      </trkpt>
      <trkpt lat="41.711750" lon="0.904982">
        <ele>241.882</ele>
        <time>2021-08-19T13:32:11Z</time>
      </trkpt>
      <trkpt lat="41.711807" lon="0.905057">
        <ele>241.445</ele>
        <time>2021-08-19T13:32:13Z</time>
      </trkpt>
      <trkpt lat="41.711868" lon="0.905134">
        <ele>241.118</ele>
        <time>2021-08-19T13:32:14Z</time>
      </trkpt>
      <trkpt lat="41.711911" lon="0.905182">
        <ele>241.069</ele>
        <time>2021-08-19T13:32:15Z</time>
      </trkpt>
      <trkpt lat="41.711951" lon="0.905228">
        <ele>241.026</ele>
        <time>2021-08-19T13:32:16Z</time>
      </trkpt>
      <trkpt lat="41.712026" lon="0.905309">
        <ele>240.644</ele>
        <time>2021-08-19T13:32:18Z</time>
      </trkpt>
      <trkpt lat="41.712065" lon="0.905347">
        <ele>240.453</ele>
        <time>2021-08-19T13:32:19Z</time>
      </trkpt>
      <trkpt lat="41.712105" lon="0.905380">
        <ele>240.322</ele>
        <time>2021-08-19T13:32:20Z</time>
      </trkpt>
      <trkpt lat="41.712175" lon="0.905452">
        <ele>240.149</ele>
        <time>2021-08-19T13:32:22Z</time>
      </trkpt>
      <trkpt lat="41.712238" lon="0.905493">
        <ele>239.902</ele>
        <time>2021-08-19T13:32:24Z</time>
      </trkpt>
      <trkpt lat="41.712271" lon="0.905535">
        <ele>239.822</ele>
        <time>2021-08-19T13:32:25Z</time>
      </trkpt>
      <trkpt lat="41.712313" lon="0.905606">
        <ele>239.908</ele>
        <time>2021-08-19T13:32:27Z</time>
      </trkpt>
      <trkpt lat="41.712371" lon="0.905669">
        <ele>239.972</ele>
        <time>2021-08-19T13:32:29Z</time>
      </trkpt>
      <trkpt lat="41.712437" lon="0.905749">
        <ele>239.925</ele>
        <time>2021-08-19T13:32:31Z</time>
      </trkpt>
      <trkpt lat="41.712472" lon="0.905789">
        <ele>239.938</ele>
        <time>2021-08-19T13:32:32Z</time>
      </trkpt>
      <trkpt lat="41.712541" lon="0.905874">
        <ele>239.779</ele>
        <time>2021-08-19T13:32:34Z</time>
      </trkpt>
      <trkpt lat="41.712606" lon="0.905930">
        <ele>239.296</ele>
        <time>2021-08-19T13:32:36Z</time>
      </trkpt>
      <trkpt lat="41.712663" lon="0.905986">
        <ele>238.874</ele>
        <time>2021-08-19T13:32:38Z</time>
      </trkpt>
      <trkpt lat="41.712713" lon="0.906037">
        <ele>238.583</ele>
        <time>2021-08-19T13:32:40Z</time>
      </trkpt>
      <trkpt lat="41.712762" lon="0.906079">
        <ele>238.162</ele>
        <time>2021-08-19T13:32:42Z</time>
      </trkpt>
      <trkpt lat="41.712807" lon="0.906121">
        <ele>237.983</ele>
        <time>2021-08-19T13:32:44Z</time>
      </trkpt>
      <trkpt lat="41.712854" lon="0.906162">
        <ele>237.725</ele>
        <time>2021-08-19T13:32:46Z</time>
      </trkpt>
      <trkpt lat="41.712907" lon="0.906207">
        <ele>237.517</ele>
        <time>2021-08-19T13:32:48Z</time>
      </trkpt>
      <trkpt lat="41.712954" lon="0.906259">
        <ele>237.408</ele>
        <time>2021-08-19T13:32:50Z</time>
      </trkpt>
      <trkpt lat="41.712997" lon="0.906316">
        <ele>237.236</ele>
        <time>2021-08-19T13:32:52Z</time>
      </trkpt>
      <trkpt lat="41.713044" lon="0.906370">
        <ele>237.099</ele>
        <time>2021-08-19T13:32:54Z</time>
      </trkpt>
      <trkpt lat="41.713092" lon="0.906424">
        <ele>237.052</ele>
        <time>2021-08-19T13:32:56Z</time>
      </trkpt>
      <trkpt lat="41.713143" lon="0.906481">
        <ele>237.023</ele>
        <time>2021-08-19T13:32:58Z</time>
      </trkpt>
      <trkpt lat="41.713191" lon="0.906539">
        <ele>237.090</ele>
        <time>2021-08-19T13:33:00Z</time>
      </trkpt>
      <trkpt lat="41.713237" lon="0.906598">
        <ele>237.028</ele>
        <time>2021-08-19T13:33:02Z</time>
      </trkpt>
      <trkpt lat="41.713294" lon="0.906654">
        <ele>237.067</ele>
        <time>2021-08-19T13:33:04Z</time>
      </trkpt>
      <trkpt lat="41.713358" lon="0.906708">
        <ele>237.066</ele>
        <time>2021-08-19T13:33:06Z</time>
      </trkpt>
      <trkpt lat="41.713418" lon="0.906765">
        <ele>237.099</ele>
        <time>2021-08-19T13:33:08Z</time>
      </trkpt>
      <trkpt lat="41.713480" lon="0.906816">
        <ele>237.007</ele>
        <time>2021-08-19T13:33:10Z</time>
      </trkpt>
      <trkpt lat="41.713530" lon="0.906866">
        <ele>237.027</ele>
        <time>2021-08-19T13:33:12Z</time>
      </trkpt>
      <trkpt lat="41.713597" lon="0.906934">
        <ele>237.008</ele>
        <time>2021-08-19T13:33:14Z</time>
      </trkpt>
      <trkpt lat="41.713656" lon="0.906998">
        <ele>236.477</ele>
        <time>2021-08-19T13:33:16Z</time>
      </trkpt>
      <trkpt lat="41.713713" lon="0.907058">
        <ele>235.660</ele>
        <time>2021-08-19T13:33:18Z</time>
      </trkpt>
      <trkpt lat="41.713764" lon="0.907121">
        <ele>235.193</ele>
        <time>2021-08-19T13:33:20Z</time>
      </trkpt>
      <trkpt lat="41.713818" lon="0.907184">
        <ele>234.574</ele>
        <time>2021-08-19T13:33:22Z</time>
      </trkpt>
      <trkpt lat="41.713872" lon="0.907246">
        <ele>234.061</ele>
        <time>2021-08-19T13:33:24Z</time>
      </trkpt>
      <trkpt lat="41.713923" lon="0.907300">
        <ele>233.439</ele>
        <time>2021-08-19T13:33:26Z</time>
      </trkpt>
      <trkpt lat="41.713977" lon="0.907354">
        <ele>232.948</ele>
        <time>2021-08-19T13:33:28Z</time>
      </trkpt>
      <trkpt lat="41.714032" lon="0.907406">
        <ele>232.577</ele>
        <time>2021-08-19T13:33:30Z</time>
      </trkpt>
      <trkpt lat="41.714077" lon="0.907452">
        <ele>232.372</ele>
        <time>2021-08-19T13:33:32Z</time>
      </trkpt>
      <trkpt lat="41.714139" lon="0.907514">
        <ele>232.213</ele>
        <time>2021-08-19T13:33:34Z</time>
      </trkpt>
      <trkpt lat="41.714197" lon="0.907585">
        <ele>232.414</ele>
        <time>2021-08-19T13:33:36Z</time>
      </trkpt>
      <trkpt lat="41.714250" lon="0.907640">
        <ele>232.808</ele>
        <time>2021-08-19T13:33:38Z</time>
      </trkpt>
      <trkpt lat="41.714294" lon="0.907692">
        <ele>233.285</ele>
        <time>2021-08-19T13:33:40Z</time>
      </trkpt>
      <trkpt lat="41.714338" lon="0.907743">
        <ele>233.578</ele>
        <time>2021-08-19T13:33:42Z</time>
      </trkpt>
      <trkpt lat="41.714383" lon="0.907796">
        <ele>233.841</ele>
        <time>2021-08-19T13:33:44Z</time>
      </trkpt>
      <trkpt lat="41.714435" lon="0.907845">
        <ele>234.082</ele>
        <time>2021-08-19T13:33:46Z</time>
      </trkpt>
      <trkpt lat="41.714487" lon="0.907895">
        <ele>233.859</ele>
        <time>2021-08-19T13:33:48Z</time>
      </trkpt>
      <trkpt lat="41.714534" lon="0.907948">
        <ele>233.777</ele>
        <time>2021-08-19T13:33:50Z</time>
      </trkpt>
      <trkpt lat="41.714573" lon="0.907998">
        <ele>233.576</ele>
        <time>2021-08-19T13:33:52Z</time>
      </trkpt>
      <trkpt lat="41.714599" lon="0.908059">
        <ele>233.445</ele>
        <time>2021-08-19T13:33:54Z</time>
      </trkpt>
      <trkpt lat="41.714613" lon="0.908147">
        <ele>233.326</ele>
        <time>2021-08-19T13:33:56Z</time>
      </trkpt>
      <trkpt lat="41.714627" lon="0.908216">
        <ele>233.147</ele>
        <time>2021-08-19T13:33:58Z</time>
      </trkpt>
      <trkpt lat="41.714656" lon="0.908281">
        <ele>233.011</ele>
        <time>2021-08-19T13:34:00Z</time>
      </trkpt>
      <trkpt lat="41.714694" lon="0.908325">
        <ele>233.008</ele>
        <time>2021-08-19T13:34:02Z</time>
      </trkpt>
      <trkpt lat="41.714735" lon="0.908357">
        <ele>233.020</ele>
        <time>2021-08-19T13:34:04Z</time>
      </trkpt>
      <trkpt lat="41.714796" lon="0.908389">
        <ele>233.283</ele>
        <time>2021-08-19T13:34:06Z</time>
      </trkpt>
      <trkpt lat="41.714870" lon="0.908422">
        <ele>233.696</ele>
        <time>2021-08-19T13:34:08Z</time>
      </trkpt>
      <trkpt lat="41.714924" lon="0.908477">
        <ele>234.077</ele>
        <time>2021-08-19T13:34:10Z</time>
      </trkpt>
      <trkpt lat="41.714964" lon="0.908534">
        <ele>234.434</ele>
        <time>2021-08-19T13:34:12Z</time>
      </trkpt>
      <trkpt lat="41.714996" lon="0.908587">
        <ele>234.942</ele>
        <time>2021-08-19T13:34:14Z</time>
      </trkpt>
      <trkpt lat="41.715046" lon="0.908662">
        <ele>234.821</ele>
        <time>2021-08-19T13:34:16Z</time>
      </trkpt>
      <trkpt lat="41.715080" lon="0.908704">
        <ele>234.770</ele>
        <time>2021-08-19T13:34:17Z</time>
      </trkpt>
      <trkpt lat="41.715144" lon="0.908761">
        <ele>234.534</ele>
        <time>2021-08-19T13:34:19Z</time>
      </trkpt>
      <trkpt lat="41.715199" lon="0.908810">
        <ele>234.355</ele>
        <time>2021-08-19T13:34:21Z</time>
      </trkpt>
      <trkpt lat="41.715252" lon="0.908855">
        <ele>234.110</ele>
        <time>2021-08-19T13:34:23Z</time>
      </trkpt>
      <trkpt lat="41.715307" lon="0.908888">
        <ele>233.708</ele>
        <time>2021-08-19T13:34:25Z</time>
      </trkpt>
      <trkpt lat="41.715360" lon="0.908923">
        <ele>232.841</ele>
        <time>2021-08-19T13:34:27Z</time>
      </trkpt>
      <trkpt lat="41.715416" lon="0.908950">
        <ele>232.094</ele>
        <time>2021-08-19T13:34:29Z</time>
      </trkpt>
      <trkpt lat="41.715467" lon="0.908990">
        <ele>231.127</ele>
        <time>2021-08-19T13:34:31Z</time>
      </trkpt>
      <trkpt lat="41.715517" lon="0.909005">
        <ele>230.578</ele>
        <time>2021-08-19T13:34:33Z</time>
      </trkpt>
      <trkpt lat="41.715567" lon="0.909031">
        <ele>229.945</ele>
        <time>2021-08-19T13:34:36Z</time>
      </trkpt>
      <trkpt lat="41.715610" lon="0.909076">
        <ele>229.283</ele>
        <time>2021-08-19T13:34:39Z</time>
      </trkpt>
      <trkpt lat="41.715657" lon="0.909128">
        <ele>228.572</ele>
        <time>2021-08-19T13:34:42Z</time>
      </trkpt>
      <trkpt lat="41.715710" lon="0.909094">
        <ele>228.361</ele>
        <time>2021-08-19T13:34:45Z</time>
      </trkpt>
      <trkpt lat="41.715717" lon="0.909023">
        <ele>228.695</ele>
        <time>2021-08-19T13:34:48Z</time>
      </trkpt>
      <trkpt lat="41.715682" lon="0.908961">
        <ele>229.249</ele>
        <time>2021-08-19T13:34:51Z</time>
      </trkpt>
      <trkpt lat="41.715650" lon="0.908918">
        <ele>229.823</ele>
        <time>2021-08-19T13:34:53Z</time>
      </trkpt>
      <trkpt lat="41.715618" lon="0.908849">
        <ele>230.508</ele>
        <time>2021-08-19T13:34:56Z</time>
      </trkpt>
      <trkpt lat="41.715590" lon="0.908786">
        <ele>231.097</ele>
        <time>2021-08-19T13:34:59Z</time>
      </trkpt>
      <trkpt lat="41.715558" lon="0.908717">
        <ele>231.640</ele>
        <time>2021-08-19T13:35:02Z</time>
      </trkpt>
      <trkpt lat="41.715531" lon="0.908657">
        <ele>232.143</ele>
        <time>2021-08-19T13:35:04Z</time>
      </trkpt>
      <trkpt lat="41.715507" lon="0.908597">
        <ele>232.464</ele>
        <time>2021-08-19T13:35:06Z</time>
      </trkpt>
      <trkpt lat="41.715467" lon="0.908524">
        <ele>232.411</ele>
        <time>2021-08-19T13:35:09Z</time>
      </trkpt>
      <trkpt lat="41.715438" lon="0.908463">
        <ele>232.449</ele>
        <time>2021-08-19T13:35:12Z</time>
      </trkpt>
      <trkpt lat="41.715406" lon="0.908410">
        <ele>232.648</ele>
        <time>2021-08-19T13:35:15Z</time>
      </trkpt>
      <trkpt lat="41.715369" lon="0.908374">
        <ele>232.927</ele>
        <time>2021-08-19T13:35:30Z</time>
      </trkpt>
      <trkpt lat="41.715337" lon="0.908320">
        <ele>233.065</ele>
        <time>2021-08-19T13:35:39Z</time>
      </trkpt>
      <trkpt lat="41.715333" lon="0.908381">
        <ele>233.468</ele>
        <time>2021-08-19T13:37:00Z</time>
      </trkpt>
      <trkpt lat="41.715378" lon="0.908382">
        <ele>232.814</ele>
        <time>2021-08-19T13:37:33Z</time>
      </trkpt>
      <trkpt lat="41.715409" lon="0.908333">
        <ele>232.108</ele>
        <time>2021-08-19T13:38:04Z</time>
      </trkpt>
      <trkpt lat="41.715365" lon="0.908346">
        <ele>232.874</ele>
        <time>2021-08-19T13:45:25Z</time>
      </trkpt>
      <trkpt lat="41.715403" lon="0.908389">
        <ele>232.567</ele>
        <time>2021-08-19T13:46:25Z</time>
      </trkpt>
      <trkpt lat="41.715357" lon="0.908381">
        <ele>233.190</ele>
        <time>2021-08-19T13:51:02Z</time>
      </trkpt>
      <trkpt lat="41.715316" lon="0.908406">
        <ele>233.711</ele>
        <time>2021-08-19T13:54:16Z</time>
      </trkpt>
      <trkpt lat="41.715314" lon="0.908345">
        <ele>233.558</ele>
        <time>2021-08-19T13:54:28Z</time>
      </trkpt>
      <trkpt lat="41.715349" lon="0.908386">
        <ele>233.216</ele>
        <time>2021-08-19T13:58:28Z</time>
      </trkpt>
      <trkpt lat="41.715316" lon="0.908427">
        <ele>233.865</ele>
        <time>2021-08-19T13:59:32Z</time>
      </trkpt>
      <trkpt lat="41.715285" lon="0.908381">
        <ele>234.124</ele>
        <time>2021-08-19T14:00:47Z</time>
      </trkpt>
      <trkpt lat="41.715314" lon="0.908331">
        <ele>233.572</ele>
        <time>2021-08-19T14:01:34Z</time>
      </trkpt>
      <trkpt lat="41.715268" lon="0.908327">
        <ele>233.913</ele>
        <time>2021-08-19T14:02:18Z</time>
      </trkpt>
      <trkpt lat="41.715216" lon="0.908320">
        <ele>233.914</ele>
        <time>2021-08-19T14:02:23Z</time>
      </trkpt>
      <trkpt lat="41.715166" lon="0.908313">
        <ele>233.808</ele>
        <time>2021-08-19T14:02:31Z</time>
      </trkpt>
      <trkpt lat="41.715116" lon="0.908307">
        <ele>233.845</ele>
        <time>2021-08-19T14:02:36Z</time>
      </trkpt>
      <trkpt lat="41.715070" lon="0.908285">
        <ele>233.798</ele>
        <time>2021-08-19T14:02:40Z</time>
      </trkpt>
      <trkpt lat="41.715027" lon="0.908253">
        <ele>233.781</ele>
        <time>2021-08-19T14:02:44Z</time>
      </trkpt>
      <trkpt lat="41.714983" lon="0.908219">
        <ele>233.662</ele>
        <time>2021-08-19T14:02:49Z</time>
      </trkpt>
      <trkpt lat="41.714951" lon="0.908170">
        <ele>233.359</ele>
        <time>2021-08-19T14:02:53Z</time>
      </trkpt>
      <trkpt lat="41.714925" lon="0.908119">
        <ele>233.267</ele>
        <time>2021-08-19T14:03:34Z</time>
      </trkpt>
      <trkpt lat="41.714884" lon="0.908063">
        <ele>233.096</ele>
        <time>2021-08-19T14:03:41Z</time>
      </trkpt>
      <trkpt lat="41.714840" lon="0.908020">
        <ele>232.985</ele>
        <time>2021-08-19T14:03:43Z</time>
      </trkpt>
      <trkpt lat="41.714783" lon="0.908025">
        <ele>233.033</ele>
        <time>2021-08-19T14:03:46Z</time>
      </trkpt>
      <trkpt lat="41.714731" lon="0.908023">
        <ele>233.023</ele>
        <time>2021-08-19T14:03:48Z</time>
      </trkpt>
      <trkpt lat="41.714683" lon="0.907998">
        <ele>233.115</ele>
        <time>2021-08-19T14:03:49Z</time>
      </trkpt>
      <trkpt lat="41.714629" lon="0.907963">
        <ele>233.308</ele>
        <time>2021-08-19T14:03:51Z</time>
      </trkpt>
      <trkpt lat="41.714579" lon="0.907913">
        <ele>233.551</ele>
        <time>2021-08-19T14:03:53Z</time>
      </trkpt>
      <trkpt lat="41.714536" lon="0.907868">
        <ele>233.734</ele>
        <time>2021-08-19T14:03:54Z</time>
      </trkpt>
      <trkpt lat="41.714488" lon="0.907815">
        <ele>233.887</ele>
        <time>2021-08-19T14:03:56Z</time>
      </trkpt>
      <trkpt lat="41.714425" lon="0.907762">
        <ele>233.938</ele>
        <time>2021-08-19T14:03:58Z</time>
      </trkpt>
      <trkpt lat="41.714360" lon="0.907693">
        <ele>233.425</ele>
        <time>2021-08-19T14:04:00Z</time>
      </trkpt>
      <trkpt lat="41.714299" lon="0.907623">
        <ele>232.953</ele>
        <time>2021-08-19T14:04:02Z</time>
      </trkpt>
      <trkpt lat="41.714241" lon="0.907558">
        <ele>232.562</ele>
        <time>2021-08-19T14:04:04Z</time>
      </trkpt>
      <trkpt lat="41.714180" lon="0.907484">
        <ele>232.041</ele>
        <time>2021-08-19T14:04:06Z</time>
      </trkpt>
      <trkpt lat="41.714118" lon="0.907419">
        <ele>232.011</ele>
        <time>2021-08-19T14:04:08Z</time>
      </trkpt>
      <trkpt lat="41.714060" lon="0.907356">
        <ele>232.321</ele>
        <time>2021-08-19T14:04:10Z</time>
      </trkpt>
      <trkpt lat="41.714001" lon="0.907288">
        <ele>232.703</ele>
        <time>2021-08-19T14:04:12Z</time>
      </trkpt>
      <trkpt lat="41.713941" lon="0.907220">
        <ele>233.408</ele>
        <time>2021-08-19T14:04:14Z</time>
      </trkpt>
      <trkpt lat="41.713882" lon="0.907157">
        <ele>234.119</ele>
        <time>2021-08-19T14:04:16Z</time>
      </trkpt>
      <trkpt lat="41.713828" lon="0.907101">
        <ele>234.532</ele>
        <time>2021-08-19T14:04:18Z</time>
      </trkpt>
      <trkpt lat="41.713772" lon="0.907042">
        <ele>235.165</ele>
        <time>2021-08-19T14:04:20Z</time>
      </trkpt>
      <trkpt lat="41.713733" lon="0.907002">
        <ele>235.636</ele>
        <time>2021-08-19T14:04:21Z</time>
      </trkpt>
      <trkpt lat="41.713675" lon="0.906946">
        <ele>236.353</ele>
        <time>2021-08-19T14:04:23Z</time>
      </trkpt>
      <trkpt lat="41.713616" lon="0.906888">
        <ele>237.071</ele>
        <time>2021-08-19T14:04:25Z</time>
      </trkpt>
      <trkpt lat="41.713559" lon="0.906831">
        <ele>237.090</ele>
        <time>2021-08-19T14:04:27Z</time>
      </trkpt>
      <trkpt lat="41.713506" lon="0.906774">
        <ele>237.059</ele>
        <time>2021-08-19T14:04:29Z</time>
      </trkpt>
      <trkpt lat="41.713469" lon="0.906729">
        <ele>237.027</ele>
        <time>2021-08-19T14:04:31Z</time>
      </trkpt>
      <trkpt lat="41.713431" lon="0.906688">
        <ele>237.068</ele>
        <time>2021-08-19T14:04:32Z</time>
      </trkpt>
      <trkpt lat="41.713382" lon="0.906623">
        <ele>237.014</ele>
        <time>2021-08-19T14:04:34Z</time>
      </trkpt>
      <trkpt lat="41.713328" lon="0.906567">
        <ele>237.008</ele>
        <time>2021-08-19T14:04:36Z</time>
      </trkpt>
      <trkpt lat="41.713275" lon="0.906515">
        <ele>237.050</ele>
        <time>2021-08-19T14:04:38Z</time>
      </trkpt>
      <trkpt lat="41.713222" lon="0.906470">
        <ele>237.033</ele>
        <time>2021-08-19T14:04:40Z</time>
      </trkpt>
      <trkpt lat="41.713175" lon="0.906421">
        <ele>237.096</ele>
        <time>2021-08-19T14:04:42Z</time>
      </trkpt>
      <trkpt lat="41.713131" lon="0.906380">
        <ele>237.057</ele>
        <time>2021-08-19T14:04:44Z</time>
      </trkpt>
      <trkpt lat="41.713077" lon="0.906330">
        <ele>237.084</ele>
        <time>2021-08-19T14:04:46Z</time>
      </trkpt>
      <trkpt lat="41.713028" lon="0.906278">
        <ele>237.172</ele>
        <time>2021-08-19T14:04:48Z</time>
      </trkpt>
      <trkpt lat="41.712981" lon="0.906228">
        <ele>237.381</ele>
        <time>2021-08-19T14:04:50Z</time>
      </trkpt>
      <trkpt lat="41.712932" lon="0.906181">
        <ele>237.460</ele>
        <time>2021-08-19T14:04:52Z</time>
      </trkpt>
      <trkpt lat="41.712889" lon="0.906123">
        <ele>237.613</ele>
        <time>2021-08-19T14:04:54Z</time>
      </trkpt>
      <trkpt lat="41.712848" lon="0.906073">
        <ele>237.843</ele>
        <time>2021-08-19T14:04:56Z</time>
      </trkpt>
      <trkpt lat="41.712805" lon="0.906023">
        <ele>237.907</ele>
        <time>2021-08-19T14:04:58Z</time>
      </trkpt>
      <trkpt lat="41.712758" lon="0.905982">
        <ele>238.108</ele>
        <time>2021-08-19T14:05:00Z</time>
      </trkpt>
      <trkpt lat="41.712710" lon="0.905927">
        <ele>238.599</ele>
        <time>2021-08-19T14:05:02Z</time>
      </trkpt>
      <trkpt lat="41.712675" lon="0.905874">
        <ele>238.792</ele>
        <time>2021-08-19T14:05:05Z</time>
      </trkpt>
      <trkpt lat="41.712627" lon="0.905869">
        <ele>239.155</ele>
        <time>2021-08-19T14:07:03Z</time>
      </trkpt>
      <trkpt lat="41.712587" lon="0.905824">
        <ele>239.446</ele>
        <time>2021-08-19T14:07:06Z</time>
      </trkpt>
      <trkpt lat="41.712557" lon="0.905776">
        <ele>239.433</ele>
        <time>2021-08-19T14:07:09Z</time>
      </trkpt>
      <trkpt lat="41.712513" lon="0.905735">
        <ele>239.651</ele>
        <time>2021-08-19T14:07:12Z</time>
      </trkpt>
      <trkpt lat="41.712466" lon="0.905699">
        <ele>239.620</ele>
        <time>2021-08-19T14:07:14Z</time>
      </trkpt>
      <trkpt lat="41.712413" lon="0.905650">
        <ele>239.739</ele>
        <time>2021-08-19T14:07:18Z</time>
      </trkpt>
      <trkpt lat="41.712408" lon="0.905589">
        <ele>239.547</ele>
        <time>2021-08-19T14:07:21Z</time>
      </trkpt>
      <trkpt lat="41.712439" lon="0.905528">
        <ele>239.229</ele>
        <time>2021-08-19T14:07:23Z</time>
      </trkpt>
      <trkpt lat="41.712444" lon="0.905451">
        <ele>239.221</ele>
        <time>2021-08-19T14:07:26Z</time>
      </trkpt>
      <trkpt lat="41.712443" lon="0.905381">
        <ele>239.208</ele>
        <time>2021-08-19T14:07:29Z</time>
      </trkpt>
      <trkpt lat="41.712448" lon="0.905308">
        <ele>239.262</ele>
        <time>2021-08-19T14:07:32Z</time>
      </trkpt>
      <trkpt lat="41.712455" lon="0.905237">
        <ele>239.245</ele>
        <time>2021-08-19T14:07:35Z</time>
      </trkpt>
      <trkpt lat="41.712449" lon="0.905171">
        <ele>239.218</ele>
        <time>2021-08-19T14:07:54Z</time>
      </trkpt>
      <trkpt lat="41.712442" lon="0.905087">
        <ele>239.249</ele>
        <time>2021-08-19T14:07:57Z</time>
      </trkpt>
      <trkpt lat="41.712442" lon="0.905007">
        <ele>239.256</ele>
        <time>2021-08-19T14:07:59Z</time>
      </trkpt>
      <trkpt lat="41.712440" lon="0.904926">
        <ele>239.284</ele>
        <time>2021-08-19T14:08:01Z</time>
      </trkpt>
      <trkpt lat="41.712440" lon="0.904843">
        <ele>239.243</ele>
        <time>2021-08-19T14:08:03Z</time>
      </trkpt>
      <trkpt lat="41.712433" lon="0.904767">
        <ele>239.242</ele>
        <time>2021-08-19T14:08:05Z</time>
      </trkpt>
      <trkpt lat="41.712417" lon="0.904703">
        <ele>239.327</ele>
        <time>2021-08-19T14:08:08Z</time>
      </trkpt>
      <trkpt lat="41.712381" lon="0.904650">
        <ele>239.468</ele>
        <time>2021-08-19T14:08:10Z</time>
      </trkpt>
      <trkpt lat="41.712376" lon="0.904563">
        <ele>239.414</ele>
        <time>2021-08-19T14:08:12Z</time>
      </trkpt>
      <trkpt lat="41.712382" lon="0.904472">
        <ele>239.408</ele>
        <time>2021-08-19T14:08:14Z</time>
      </trkpt>
      <trkpt lat="41.712390" lon="0.904394">
        <ele>239.550</ele>
        <time>2021-08-19T14:08:16Z</time>
      </trkpt>
      <trkpt lat="41.712392" lon="0.904322">
        <ele>239.713</ele>
        <time>2021-08-19T14:08:17Z</time>
      </trkpt>
      <trkpt lat="41.712389" lon="0.904252">
        <ele>239.826</ele>
        <time>2021-08-19T14:08:19Z</time>
      </trkpt>
      <trkpt lat="41.712382" lon="0.904167">
        <ele>240.067</ele>
        <time>2021-08-19T14:08:21Z</time>
      </trkpt>
      <trkpt lat="41.712385" lon="0.904077">
        <ele>240.174</ele>
        <time>2021-08-19T14:08:23Z</time>
      </trkpt>
      <trkpt lat="41.712394" lon="0.903992">
        <ele>240.282</ele>
        <time>2021-08-19T14:08:25Z</time>
      </trkpt>
      <trkpt lat="41.712406" lon="0.903911">
        <ele>240.361</ele>
        <time>2021-08-19T14:08:27Z</time>
      </trkpt>
      <trkpt lat="41.712411" lon="0.903837">
        <ele>240.540</ele>
        <time>2021-08-19T14:08:29Z</time>
      </trkpt>
      <trkpt lat="41.712416" lon="0.903757">
        <ele>240.834</ele>
        <time>2021-08-19T14:08:31Z</time>
      </trkpt>
      <trkpt lat="41.712417" lon="0.903687">
        <ele>241.055</ele>
        <time>2021-08-19T14:08:32Z</time>
      </trkpt>
      <trkpt lat="41.712416" lon="0.903600">
        <ele>241.310</ele>
        <time>2021-08-19T14:08:34Z</time>
      </trkpt>
      <trkpt lat="41.712414" lon="0.903510">
        <ele>241.708</ele>
        <time>2021-08-19T14:08:36Z</time>
      </trkpt>
      <trkpt lat="41.712411" lon="0.903425">
        <ele>242.071</ele>
        <time>2021-08-19T14:08:38Z</time>
      </trkpt>
      <trkpt lat="41.712411" lon="0.903337">
        <ele>242.364</ele>
        <time>2021-08-19T14:08:40Z</time>
      </trkpt>
      <trkpt lat="41.712413" lon="0.903255">
        <ele>242.517</ele>
        <time>2021-08-19T14:08:42Z</time>
      </trkpt>
      <trkpt lat="41.712413" lon="0.903185">
        <ele>242.778</ele>
        <time>2021-08-19T14:08:43Z</time>
      </trkpt>
      <trkpt lat="41.712407" lon="0.903113">
        <ele>242.965</ele>
        <time>2021-08-19T14:08:45Z</time>
      </trkpt>
      <trkpt lat="41.712407" lon="0.903113">
        <ele>242.973</ele>
        <time>2021-08-19T14:08:45Z</time>
      </trkpt>
      <trkpt lat="41.712403" lon="0.903034">
        <ele>243.012</ele>
        <time>2021-08-19T14:08:47Z</time>
      </trkpt>
      <trkpt lat="41.712400" lon="0.902972">
        <ele>243.151</ele>
        <time>2021-08-19T14:08:49Z</time>
      </trkpt>
      <trkpt lat="41.712394" lon="0.902897">
        <ele>243.235</ele>
        <time>2021-08-19T14:08:51Z</time>
      </trkpt>
      <trkpt lat="41.712388" lon="0.902821">
        <ele>243.386</ele>
        <time>2021-08-19T14:08:53Z</time>
      </trkpt>
      <trkpt lat="41.712384" lon="0.902757">
        <ele>243.514</ele>
        <time>2021-08-19T14:08:55Z</time>
      </trkpt>
      <trkpt lat="41.712378" lon="0.902686">
        <ele>243.608</ele>
        <time>2021-08-19T14:08:57Z</time>
      </trkpt>
      <trkpt lat="41.712374" lon="0.902607">
        <ele>243.851</ele>
        <time>2021-08-19T14:08:59Z</time>
      </trkpt>
      <trkpt lat="41.712396" lon="0.902542">
        <ele>243.964</ele>
        <time>2021-08-19T14:09:02Z</time>
      </trkpt>
      <trkpt lat="41.712461" lon="0.902523">
        <ele>243.947</ele>
        <time>2021-08-19T14:09:05Z</time>
      </trkpt>
      <trkpt lat="41.712524" lon="0.902527">
        <ele>243.918</ele>
        <time>2021-08-19T14:09:07Z</time>
      </trkpt>
      <trkpt lat="41.712594" lon="0.902524">
        <ele>243.915</ele>
        <time>2021-08-19T14:09:09Z</time>
      </trkpt>
      <trkpt lat="41.712665" lon="0.902511">
        <ele>244.093</ele>
        <time>2021-08-19T14:09:11Z</time>
      </trkpt>
      <trkpt lat="41.712720" lon="0.902506">
        <ele>244.032</ele>
        <time>2021-08-19T14:09:12Z</time>
      </trkpt>
      <trkpt lat="41.712784" lon="0.902502">
        <ele>244.081</ele>
        <time>2021-08-19T14:09:14Z</time>
      </trkpt>
      <trkpt lat="41.712868" lon="0.902490">
        <ele>243.779</ele>
        <time>2021-08-19T14:09:16Z</time>
      </trkpt>
      <trkpt lat="41.712950" lon="0.902482">
        <ele>243.405</ele>
        <time>2021-08-19T14:09:18Z</time>
      </trkpt>
      <trkpt lat="41.713036" lon="0.902467">
        <ele>243.225</ele>
        <time>2021-08-19T14:09:20Z</time>
      </trkpt>
      <trkpt lat="41.713113" lon="0.902457">
        <ele>242.708</ele>
        <time>2021-08-19T14:09:22Z</time>
      </trkpt>
      <trkpt lat="41.713192" lon="0.902463">
        <ele>242.275</ele>
        <time>2021-08-19T14:09:24Z</time>
      </trkpt>
      <trkpt lat="41.713268" lon="0.902469">
        <ele>241.688</ele>
        <time>2021-08-19T14:09:26Z</time>
      </trkpt>
      <trkpt lat="41.713350" lon="0.902473">
        <ele>241.011</ele>
        <time>2021-08-19T14:09:28Z</time>
      </trkpt>
      <trkpt lat="41.713427" lon="0.902473">
        <ele>240.832</ele>
        <time>2021-08-19T14:09:30Z</time>
      </trkpt>
      <trkpt lat="41.713492" lon="0.902476">
        <ele>240.519</ele>
        <time>2021-08-19T14:09:32Z</time>
      </trkpt>
      <trkpt lat="41.713547" lon="0.902472">
        <ele>240.347</ele>
        <time>2021-08-19T14:09:34Z</time>
      </trkpt>
      <trkpt lat="41.713627" lon="0.902472">
        <ele>240.146</ele>
        <time>2021-08-19T14:09:36Z</time>
      </trkpt>
      <trkpt lat="41.713700" lon="0.902485">
        <ele>240.195</ele>
        <time>2021-08-19T14:09:38Z</time>
      </trkpt>
      <trkpt lat="41.713771" lon="0.902493">
        <ele>240.094</ele>
        <time>2021-08-19T14:09:40Z</time>
      </trkpt>
      <trkpt lat="41.713819" lon="0.902499">
        <ele>240.057</ele>
        <time>2021-08-19T14:09:41Z</time>
      </trkpt>
      <trkpt lat="41.713886" lon="0.902508">
        <ele>240.022</ele>
        <time>2021-08-19T14:09:43Z</time>
      </trkpt>
      <trkpt lat="41.713941" lon="0.902515">
        <ele>240.208</ele>
        <time>2021-08-19T14:09:44Z</time>
      </trkpt>
      <trkpt lat="41.714027" lon="0.902528">
        <ele>240.487</ele>
        <time>2021-08-19T14:09:46Z</time>
      </trkpt>
      <trkpt lat="41.714078" lon="0.902535">
        <ele>240.650</ele>
        <time>2021-08-19T14:09:47Z</time>
      </trkpt>
      <trkpt lat="41.714141" lon="0.902544">
        <ele>240.873</ele>
        <time>2021-08-19T14:09:49Z</time>
      </trkpt>
      <trkpt lat="41.714195" lon="0.902553">
        <ele>240.724</ele>
        <time>2021-08-19T14:09:50Z</time>
      </trkpt>
      <trkpt lat="41.714246" lon="0.902553">
        <ele>240.631</ele>
        <time>2021-08-19T14:09:51Z</time>
      </trkpt>
      <trkpt lat="41.714311" lon="0.902553">
        <ele>240.459</ele>
        <time>2021-08-19T14:09:53Z</time>
      </trkpt>
      <trkpt lat="41.714370" lon="0.902540">
        <ele>240.278</ele>
        <time>2021-08-19T14:09:56Z</time>
      </trkpt>
      <trkpt lat="41.714395" lon="0.902479">
        <ele>240.237</ele>
        <time>2021-08-19T14:10:00Z</time>
      </trkpt>
      <trkpt lat="41.714340" lon="0.902454">
        <ele>240.486</ele>
        <time>2021-08-19T14:10:02Z</time>
      </trkpt>
      <trkpt lat="41.714271" lon="0.902451">
        <ele>240.760</ele>
        <time>2021-08-19T14:10:04Z</time>
      </trkpt>
      <trkpt lat="41.714223" lon="0.902455">
        <ele>240.926</ele>
        <time>2021-08-19T14:10:05Z</time>
      </trkpt>
      <trkpt lat="41.714164" lon="0.902458">
        <ele>241.108</ele>
        <time>2021-08-19T14:10:06Z</time>
      </trkpt>
      <trkpt lat="41.714095" lon="0.902450">
        <ele>241.016</ele>
        <time>2021-08-19T14:10:08Z</time>
      </trkpt>
      <trkpt lat="41.714020" lon="0.902448">
        <ele>240.879</ele>
        <time>2021-08-19T14:10:10Z</time>
      </trkpt>
      <trkpt lat="41.713943" lon="0.902446">
        <ele>240.532</ele>
        <time>2021-08-19T14:10:12Z</time>
      </trkpt>
      <trkpt lat="41.713871" lon="0.902438">
        <ele>240.473</ele>
        <time>2021-08-19T14:10:14Z</time>
      </trkpt>
      <trkpt lat="41.713801" lon="0.902429">
        <ele>240.410</ele>
        <time>2021-08-19T14:10:16Z</time>
      </trkpt>
      <trkpt lat="41.713734" lon="0.902423">
        <ele>240.468</ele>
        <time>2021-08-19T14:10:18Z</time>
      </trkpt>
      <trkpt lat="41.713675" lon="0.902406">
        <ele>240.427</ele>
        <time>2021-08-19T14:10:20Z</time>
      </trkpt>
      <trkpt lat="41.713635" lon="0.902356">
        <ele>240.636</ele>
        <time>2021-08-19T14:10:22Z</time>
      </trkpt>
      <trkpt lat="41.713652" lon="0.902289">
        <ele>240.943</ele>
        <time>2021-08-19T14:10:24Z</time>
      </trkpt>
      <trkpt lat="41.713691" lon="0.902239">
        <ele>241.264</ele>
        <time>2021-08-19T14:10:25Z</time>
      </trkpt>
      <trkpt lat="41.713730" lon="0.902167">
        <ele>241.710</ele>
        <time>2021-08-19T14:10:28Z</time>
      </trkpt>
      <trkpt lat="41.713755" lon="0.902107">
        <ele>242.108</ele>
        <time>2021-08-19T14:10:29Z</time>
      </trkpt>
      <trkpt lat="41.713801" lon="0.902033">
        <ele>242.642</ele>
        <time>2021-08-19T14:10:31Z</time>
      </trkpt>
      <trkpt lat="41.713839" lon="0.901962">
        <ele>242.955</ele>
        <time>2021-08-19T14:10:33Z</time>
      </trkpt>
      <trkpt lat="41.713879" lon="0.901898">
        <ele>243.088</ele>
        <time>2021-08-19T14:10:35Z</time>
      </trkpt>
      <trkpt lat="41.713929" lon="0.901812">
        <ele>242.969</ele>
        <time>2021-08-19T14:10:37Z</time>
      </trkpt>
      <trkpt lat="41.713968" lon="0.901745">
        <ele>242.726</ele>
        <time>2021-08-19T14:10:39Z</time>
      </trkpt>
      <trkpt lat="41.714003" lon="0.901682">
        <ele>242.644</ele>
        <time>2021-08-19T14:10:41Z</time>
      </trkpt>
      <trkpt lat="41.714048" lon="0.901613">
        <ele>242.543</ele>
        <time>2021-08-19T14:10:43Z</time>
      </trkpt>
      <trkpt lat="41.714093" lon="0.901562">
        <ele>242.582</ele>
        <time>2021-08-19T14:10:45Z</time>
      </trkpt>
      <trkpt lat="41.714134" lon="0.901505">
        <ele>242.693</ele>
        <time>2021-08-19T14:10:46Z</time>
      </trkpt>
      <trkpt lat="41.714177" lon="0.901455">
        <ele>242.765</ele>
        <time>2021-08-19T14:10:48Z</time>
      </trkpt>
      <trkpt lat="41.714211" lon="0.901404">
        <ele>242.621</ele>
        <time>2021-08-19T14:10:50Z</time>
      </trkpt>
      <trkpt lat="41.714245" lon="0.901354">
        <ele>242.408</ele>
        <time>2021-08-19T14:10:51Z</time>
      </trkpt>
      <trkpt lat="41.714277" lon="0.901311">
        <ele>242.267</ele>
        <time>2021-08-19T14:10:52Z</time>
      </trkpt>
      <trkpt lat="41.714310" lon="0.901261">
        <ele>242.020</ele>
        <time>2021-08-19T14:10:53Z</time>
      </trkpt>
      <trkpt lat="41.714346" lon="0.901196">
        <ele>241.773</ele>
        <time>2021-08-19T14:10:55Z</time>
      </trkpt>
      <trkpt lat="41.714380" lon="0.901137">
        <ele>241.564</ele>
        <time>2021-08-19T14:10:56Z</time>
      </trkpt>
      <trkpt lat="41.714420" lon="0.901068">
        <ele>241.231</ele>
        <time>2021-08-19T14:10:58Z</time>
      </trkpt>
      <trkpt lat="41.714461" lon="0.901005">
        <ele>240.929</ele>
        <time>2021-08-19T14:10:59Z</time>
      </trkpt>
      <trkpt lat="41.714500" lon="0.900928">
        <ele>240.648</ele>
        <time>2021-08-19T14:11:01Z</time>
      </trkpt>
      <trkpt lat="41.714539" lon="0.900865">
        <ele>240.327</ele>
        <time>2021-08-19T14:11:02Z</time>
      </trkpt>
      <trkpt lat="41.714573" lon="0.900808">
        <ele>240.135</ele>
        <time>2021-08-19T14:11:04Z</time>
      </trkpt>
      <trkpt lat="41.714607" lon="0.900721">
        <ele>239.886</ele>
        <time>2021-08-19T14:11:05Z</time>
      </trkpt>
      <trkpt lat="41.714668" lon="0.900630">
        <ele>239.414</ele>
        <time>2021-08-19T14:11:07Z</time>
      </trkpt>
      <trkpt lat="41.714728" lon="0.900537">
        <ele>239.008</ele>
        <time>2021-08-19T14:11:09Z</time>
      </trkpt>
      <trkpt lat="41.714787" lon="0.900445">
        <ele>238.791</ele>
        <time>2021-08-19T14:11:11Z</time>
      </trkpt>
      <trkpt lat="41.714815" lon="0.900396">
        <ele>238.544</ele>
        <time>2021-08-19T14:11:12Z</time>
      </trkpt>
      <trkpt lat="41.714841" lon="0.900340">
        <ele>238.297</ele>
        <time>2021-08-19T14:11:13Z</time>
      </trkpt>
      <trkpt lat="41.714900" lon="0.900238">
        <ele>237.898</ele>
        <time>2021-08-19T14:11:15Z</time>
      </trkpt>
      <trkpt lat="41.714930" lon="0.900192">
        <ele>237.765</ele>
        <time>2021-08-19T14:11:16Z</time>
      </trkpt>
      <trkpt lat="41.714989" lon="0.900094">
        <ele>237.793</ele>
        <time>2021-08-19T14:11:18Z</time>
      </trkpt>
      <trkpt lat="41.715018" lon="0.900041">
        <ele>237.872</ele>
        <time>2021-08-19T14:11:19Z</time>
      </trkpt>
      <trkpt lat="41.715048" lon="0.899988">
        <ele>237.871</ele>
        <time>2021-08-19T14:11:20Z</time>
      </trkpt>
      <trkpt lat="41.715108" lon="0.899884">
        <ele>237.611</ele>
        <time>2021-08-19T14:11:22Z</time>
      </trkpt>
      <trkpt lat="41.715163" lon="0.899777">
        <ele>237.421</ele>
        <time>2021-08-19T14:11:24Z</time>
      </trkpt>
      <trkpt lat="41.715221" lon="0.899677">
        <ele>237.203</ele>
        <time>2021-08-19T14:11:26Z</time>
      </trkpt>
      <trkpt lat="41.715275" lon="0.899571">
        <ele>237.008</ele>
        <time>2021-08-19T14:11:28Z</time>
      </trkpt>
      <trkpt lat="41.715305" lon="0.899521">
        <ele>236.939</ele>
        <time>2021-08-19T14:11:29Z</time>
      </trkpt>
      <trkpt lat="41.715335" lon="0.899474">
        <ele>236.672</ele>
        <time>2021-08-19T14:11:30Z</time>
      </trkpt>
      <trkpt lat="41.715392" lon="0.899377">
        <ele>236.235</ele>
        <time>2021-08-19T14:11:32Z</time>
      </trkpt>
      <trkpt lat="41.715452" lon="0.899287">
        <ele>235.796</ele>
        <time>2021-08-19T14:11:34Z</time>
      </trkpt>
      <trkpt lat="41.715484" lon="0.899235">
        <ele>235.513</ele>
        <time>2021-08-19T14:11:35Z</time>
      </trkpt>
      <trkpt lat="41.715548" lon="0.899128">
        <ele>235.231</ele>
        <time>2021-08-19T14:11:37Z</time>
      </trkpt>
      <trkpt lat="41.715613" lon="0.899025">
        <ele>235.320</ele>
        <time>2021-08-19T14:11:39Z</time>
      </trkpt>
      <trkpt lat="41.715646" lon="0.898974">
        <ele>235.489</ele>
        <time>2021-08-19T14:11:40Z</time>
      </trkpt>
      <trkpt lat="41.715704" lon="0.898862">
        <ele>235.657</ele>
        <time>2021-08-19T14:11:42Z</time>
      </trkpt>
      <trkpt lat="41.715773" lon="0.898760">
        <ele>235.700</ele>
        <time>2021-08-19T14:11:44Z</time>
      </trkpt>
      <trkpt lat="41.715809" lon="0.898708">
        <ele>235.720</ele>
        <time>2021-08-19T14:11:45Z</time>
      </trkpt>
      <trkpt lat="41.715874" lon="0.898602">
        <ele>236.008</ele>
        <time>2021-08-19T14:11:47Z</time>
      </trkpt>
      <trkpt lat="41.715939" lon="0.898498">
        <ele>235.783</ele>
        <time>2021-08-19T14:11:49Z</time>
      </trkpt>
      <trkpt lat="41.716010" lon="0.898395">
        <ele>235.776</ele>
        <time>2021-08-19T14:11:51Z</time>
      </trkpt>
      <trkpt lat="41.716082" lon="0.898296">
        <ele>235.639</ele>
        <time>2021-08-19T14:11:53Z</time>
      </trkpt>
      <trkpt lat="41.716155" lon="0.898209">
        <ele>235.030</ele>
        <time>2021-08-19T14:11:55Z</time>
      </trkpt>
      <trkpt lat="41.716232" lon="0.898123">
        <ele>234.277</ele>
        <time>2021-08-19T14:11:57Z</time>
      </trkpt>
      <trkpt lat="41.716274" lon="0.898082">
        <ele>233.755</ele>
        <time>2021-08-19T14:11:58Z</time>
      </trkpt>
      <trkpt lat="41.716356" lon="0.897998">
        <ele>232.964</ele>
        <time>2021-08-19T14:12:00Z</time>
      </trkpt>
      <trkpt lat="41.716436" lon="0.897916">
        <ele>232.593</ele>
        <time>2021-08-19T14:12:02Z</time>
      </trkpt>
      <trkpt lat="41.716515" lon="0.897838">
        <ele>232.239</ele>
        <time>2021-08-19T14:12:04Z</time>
      </trkpt>
      <trkpt lat="41.716598" lon="0.897762">
        <ele>232.001</ele>
        <time>2021-08-19T14:12:06Z</time>
      </trkpt>
      <trkpt lat="41.716682" lon="0.897685">
        <ele>232.021</ele>
        <time>2021-08-19T14:12:08Z</time>
      </trkpt>
      <trkpt lat="41.716768" lon="0.897613">
        <ele>232.208</ele>
        <time>2021-08-19T14:12:10Z</time>
      </trkpt>
      <trkpt lat="41.716810" lon="0.897574">
        <ele>232.421</ele>
        <time>2021-08-19T14:12:11Z</time>
      </trkpt>
      <trkpt lat="41.716851" lon="0.897534">
        <ele>232.634</ele>
        <time>2021-08-19T14:12:12Z</time>
      </trkpt>
      <trkpt lat="41.716931" lon="0.897455">
        <ele>233.187</ele>
        <time>2021-08-19T14:12:14Z</time>
      </trkpt>
      <trkpt lat="41.716970" lon="0.897418">
        <ele>233.268</ele>
        <time>2021-08-19T14:12:15Z</time>
      </trkpt>
      <trkpt lat="41.717010" lon="0.897386">
        <ele>233.255</ele>
        <time>2021-08-19T14:12:16Z</time>
      </trkpt>
      <trkpt lat="41.717076" lon="0.897325">
        <ele>233.253</ele>
        <time>2021-08-19T14:12:18Z</time>
      </trkpt>
      <trkpt lat="41.717143" lon="0.897256">
        <ele>233.232</ele>
        <time>2021-08-19T14:12:20Z</time>
      </trkpt>
      <trkpt lat="41.717209" lon="0.897181">
        <ele>233.171</ele>
        <time>2021-08-19T14:12:22Z</time>
      </trkpt>
      <trkpt lat="41.717266" lon="0.897117">
        <ele>232.765</ele>
        <time>2021-08-19T14:12:24Z</time>
      </trkpt>
      <trkpt lat="41.717319" lon="0.897117">
        <ele>232.368</ele>
        <time>2021-08-19T14:12:26Z</time>
      </trkpt>
      <trkpt lat="41.717406" lon="0.896971">
        <ele>231.714</ele>
        <time>2021-08-19T14:12:28Z</time>
      </trkpt>
      <trkpt lat="41.717455" lon="0.896898">
        <ele>231.308</ele>
        <time>2021-08-19T14:12:30Z</time>
      </trkpt>
      <trkpt lat="41.717475" lon="0.896844">
        <ele>231.294</ele>
        <time>2021-08-19T14:12:31Z</time>
      </trkpt>
      <trkpt lat="41.717558" lon="0.896745">
        <ele>231.157</ele>
        <time>2021-08-19T14:12:33Z</time>
      </trkpt>
      <trkpt lat="41.717628" lon="0.896668">
        <ele>231.020</ele>
        <time>2021-08-19T14:12:35Z</time>
      </trkpt>
      <trkpt lat="41.717684" lon="0.896615">
        <ele>231.011</ele>
        <time>2021-08-19T14:12:37Z</time>
      </trkpt>
      <trkpt lat="41.717732" lon="0.896541">
        <ele>231.078</ele>
        <time>2021-08-19T14:12:38Z</time>
      </trkpt>
      <trkpt lat="41.717802" lon="0.896445">
        <ele>231.196</ele>
        <time>2021-08-19T14:12:40Z</time>
      </trkpt>
      <trkpt lat="41.717867" lon="0.896365">
        <ele>231.365</ele>
        <time>2021-08-19T14:12:42Z</time>
      </trkpt>
      <trkpt lat="41.717908" lon="0.896313">
        <ele>231.354</ele>
        <time>2021-08-19T14:12:44Z</time>
      </trkpt>
      <trkpt lat="41.717956" lon="0.896254">
        <ele>231.318</ele>
        <time>2021-08-19T14:12:45Z</time>
      </trkpt>
      <trkpt lat="41.717993" lon="0.896196">
        <ele>231.298</ele>
        <time>2021-08-19T14:12:46Z</time>
      </trkpt>
      <trkpt lat="41.718035" lon="0.896135">
        <ele>231.117</ele>
        <time>2021-08-19T14:12:48Z</time>
      </trkpt>
      <trkpt lat="41.718075" lon="0.896094">
        <ele>231.108</ele>
        <time>2021-08-19T14:12:49Z</time>
      </trkpt>
      <trkpt lat="41.718115" lon="0.896056">
        <ele>231.299</ele>
        <time>2021-08-19T14:12:50Z</time>
      </trkpt>
      <trkpt lat="41.718184" lon="0.895985">
        <ele>231.532</ele>
        <time>2021-08-19T14:12:52Z</time>
      </trkpt>
      <trkpt lat="41.718233" lon="0.895940">
        <ele>231.645</ele>
        <time>2021-08-19T14:12:53Z</time>
      </trkpt>
      <trkpt lat="41.718278" lon="0.895896">
        <ele>231.866</ele>
        <time>2021-08-19T14:12:55Z</time>
      </trkpt>
      <trkpt lat="41.718322" lon="0.895851">
        <ele>232.033</ele>
        <time>2021-08-19T14:12:56Z</time>
      </trkpt>
      <trkpt lat="41.718365" lon="0.895811">
        <ele>232.061</ele>
        <time>2021-08-19T14:12:57Z</time>
      </trkpt>
      <trkpt lat="41.718412" lon="0.895765">
        <ele>232.110</ele>
        <time>2021-08-19T14:12:59Z</time>
      </trkpt>
      <trkpt lat="41.718464" lon="0.895718">
        <ele>232.259</ele>
        <time>2021-08-19T14:13:00Z</time>
      </trkpt>
      <trkpt lat="41.718505" lon="0.895678">
        <ele>232.338</ele>
        <time>2021-08-19T14:13:01Z</time>
      </trkpt>
      <trkpt lat="41.718542" lon="0.895641">
        <ele>232.570</ele>
        <time>2021-08-19T14:13:02Z</time>
      </trkpt>
      <trkpt lat="41.718584" lon="0.895599">
        <ele>232.817</ele>
        <time>2021-08-19T14:13:04Z</time>
      </trkpt>
      <trkpt lat="41.718629" lon="0.895551">
        <ele>233.008</ele>
        <time>2021-08-19T14:13:05Z</time>
      </trkpt>
      <trkpt lat="41.718683" lon="0.895499">
        <ele>232.881</ele>
        <time>2021-08-19T14:13:07Z</time>
      </trkpt>
      <trkpt lat="41.718726" lon="0.895460">
        <ele>232.854</ele>
        <time>2021-08-19T14:13:09Z</time>
      </trkpt>
      <trkpt lat="41.718781" lon="0.895408">
        <ele>232.847</ele>
        <time>2021-08-19T14:13:10Z</time>
      </trkpt>
      <trkpt lat="41.718835" lon="0.895352">
        <ele>232.998</ele>
        <time>2021-08-19T14:13:12Z</time>
      </trkpt>
      <trkpt lat="41.718885" lon="0.895300">
        <ele>233.025</ele>
        <time>2021-08-19T14:13:14Z</time>
      </trkpt>
      <trkpt lat="41.718922" lon="0.895261">
        <ele>233.133</ele>
        <time>2021-08-19T14:13:15Z</time>
      </trkpt>
      <trkpt lat="41.718961" lon="0.895223">
        <ele>233.122</ele>
        <time>2021-08-19T14:13:16Z</time>
      </trkpt>
      <trkpt lat="41.719027" lon="0.895156">
        <ele>233.131</ele>
        <time>2021-08-19T14:13:18Z</time>
      </trkpt>
      <trkpt lat="41.719079" lon="0.895102">
        <ele>233.116</ele>
        <time>2021-08-19T14:13:20Z</time>
      </trkpt>
      <trkpt lat="41.719136" lon="0.895050">
        <ele>233.176</ele>
        <time>2021-08-19T14:13:21Z</time>
      </trkpt>
      <trkpt lat="41.719197" lon="0.894993">
        <ele>233.213</ele>
        <time>2021-08-19T14:13:23Z</time>
      </trkpt>
      <trkpt lat="41.719233" lon="0.894955">
        <ele>233.308</ele>
        <time>2021-08-19T14:13:24Z</time>
      </trkpt>
      <trkpt lat="41.719281" lon="0.894899">
        <ele>233.339</ele>
        <time>2021-08-19T14:13:26Z</time>
      </trkpt>
      <trkpt lat="41.719324" lon="0.894850">
        <ele>233.392</ele>
        <time>2021-08-19T14:13:27Z</time>
      </trkpt>
      <trkpt lat="41.719387" lon="0.894787">
        <ele>233.275</ele>
        <time>2021-08-19T14:13:29Z</time>
      </trkpt>
      <trkpt lat="41.719435" lon="0.894739">
        <ele>233.156</ele>
        <time>2021-08-19T14:13:31Z</time>
      </trkpt>
      <trkpt lat="41.719474" lon="0.894697">
        <ele>232.843</ele>
        <time>2021-08-19T14:13:32Z</time>
      </trkpt>
      <trkpt lat="41.719530" lon="0.894646">
        <ele>232.591</ele>
        <time>2021-08-19T14:13:33Z</time>
      </trkpt>
      <trkpt lat="41.719581" lon="0.894599">
        <ele>232.110</ele>
        <time>2021-08-19T14:13:35Z</time>
      </trkpt>
      <trkpt lat="41.719623" lon="0.894558">
        <ele>231.869</ele>
        <time>2021-08-19T14:13:36Z</time>
      </trkpt>
      <trkpt lat="41.719677" lon="0.894503">
        <ele>231.416</ele>
        <time>2021-08-19T14:13:38Z</time>
      </trkpt>
      <trkpt lat="41.719723" lon="0.894463">
        <ele>231.176</ele>
        <time>2021-08-19T14:13:39Z</time>
      </trkpt>
      <trkpt lat="41.719764" lon="0.894430">
        <ele>231.113</ele>
        <time>2021-08-19T14:13:41Z</time>
      </trkpt>
      <trkpt lat="41.719823" lon="0.894374">
        <ele>231.108</ele>
        <time>2021-08-19T14:13:42Z</time>
      </trkpt>
      <trkpt lat="41.719862" lon="0.894331">
        <ele>231.199</ele>
        <time>2021-08-19T14:13:44Z</time>
      </trkpt>
      <trkpt lat="41.719914" lon="0.894279">
        <ele>231.152</ele>
        <time>2021-08-19T14:13:45Z</time>
      </trkpt>
      <trkpt lat="41.719955" lon="0.894240">
        <ele>231.195</ele>
        <time>2021-08-19T14:13:46Z</time>
      </trkpt>
      <trkpt lat="41.719996" lon="0.894197">
        <ele>231.116</ele>
        <time>2021-08-19T14:13:47Z</time>
      </trkpt>
      <trkpt lat="41.720044" lon="0.894148">
        <ele>231.373</ele>
        <time>2021-08-19T14:13:49Z</time>
      </trkpt>
      <trkpt lat="41.720087" lon="0.894100">
        <ele>231.571</ele>
        <time>2021-08-19T14:13:50Z</time>
      </trkpt>
      <trkpt lat="41.720141" lon="0.894047">
        <ele>231.810</ele>
        <time>2021-08-19T14:13:52Z</time>
      </trkpt>
      <trkpt lat="41.720196" lon="0.893994">
        <ele>232.259</ele>
        <time>2021-08-19T14:13:54Z</time>
      </trkpt>
      <trkpt lat="41.720250" lon="0.893940">
        <ele>232.798</ele>
        <time>2021-08-19T14:13:55Z</time>
      </trkpt>
      <trkpt lat="41.720298" lon="0.893896">
        <ele>232.915</ele>
        <time>2021-08-19T14:13:57Z</time>
      </trkpt>
      <trkpt lat="41.720334" lon="0.893859">
        <ele>232.626</ele>
        <time>2021-08-19T14:13:58Z</time>
      </trkpt>
      <trkpt lat="41.720371" lon="0.893820">
        <ele>232.308</ele>
        <time>2021-08-19T14:13:59Z</time>
      </trkpt>
      <trkpt lat="41.720435" lon="0.893759">
        <ele>231.867</ele>
        <time>2021-08-19T14:14:01Z</time>
      </trkpt>
      <trkpt lat="41.720487" lon="0.893709">
        <ele>231.410</ele>
        <time>2021-08-19T14:14:02Z</time>
      </trkpt>
      <trkpt lat="41.720539" lon="0.893663">
        <ele>231.213</ele>
        <time>2021-08-19T14:14:04Z</time>
      </trkpt>
      <trkpt lat="41.720575" lon="0.893627">
        <ele>231.064</ele>
        <time>2021-08-19T14:14:05Z</time>
      </trkpt>
      <trkpt lat="41.720613" lon="0.893589">
        <ele>230.951</ele>
        <time>2021-08-19T14:14:06Z</time>
      </trkpt>
      <trkpt lat="41.720656" lon="0.893544">
        <ele>230.939</ele>
        <time>2021-08-19T14:14:08Z</time>
      </trkpt>
      <trkpt lat="41.720696" lon="0.893503">
        <ele>230.938</ele>
        <time>2021-08-19T14:14:09Z</time>
      </trkpt>
      <trkpt lat="41.720749" lon="0.893454">
        <ele>230.957</ele>
        <time>2021-08-19T14:14:11Z</time>
      </trkpt>
      <trkpt lat="41.720792" lon="0.893411">
        <ele>230.911</ele>
        <time>2021-08-19T14:14:12Z</time>
      </trkpt>
      <trkpt lat="41.720853" lon="0.893345">
        <ele>231.021</ele>
        <time>2021-08-19T14:14:14Z</time>
      </trkpt>
      <trkpt lat="41.720902" lon="0.893294">
        <ele>231.003</ele>
        <time>2021-08-19T14:14:16Z</time>
      </trkpt>
      <trkpt lat="41.720941" lon="0.893262">
        <ele>231.008</ele>
        <time>2021-08-19T14:14:17Z</time>
      </trkpt>
      <trkpt lat="41.720982" lon="0.893221">
        <ele>231.029</ele>
        <time>2021-08-19T14:14:18Z</time>
      </trkpt>
      <trkpt lat="41.721032" lon="0.893171">
        <ele>231.062</ele>
        <time>2021-08-19T14:14:20Z</time>
      </trkpt>
      <trkpt lat="41.721078" lon="0.893124">
        <ele>231.065</ele>
        <time>2021-08-19T14:14:21Z</time>
      </trkpt>
      <trkpt lat="41.721117" lon="0.893084">
        <ele>231.076</ele>
        <time>2021-08-19T14:14:22Z</time>
      </trkpt>
      <trkpt lat="41.721153" lon="0.893048">
        <ele>231.023</ele>
        <time>2021-08-19T14:14:23Z</time>
      </trkpt>
      <trkpt lat="41.721197" lon="0.893002">
        <ele>230.941</ele>
        <time>2021-08-19T14:14:25Z</time>
      </trkpt>
      <trkpt lat="41.721235" lon="0.892968">
        <ele>230.830</ele>
        <time>2021-08-19T14:14:26Z</time>
      </trkpt>
      <trkpt lat="41.721274" lon="0.892932">
        <ele>230.889</ele>
        <time>2021-08-19T14:14:27Z</time>
      </trkpt>
      <trkpt lat="41.721330" lon="0.892882">
        <ele>230.955</ele>
        <time>2021-08-19T14:14:29Z</time>
      </trkpt>
      <trkpt lat="41.721389" lon="0.892827">
        <ele>231.007</ele>
        <time>2021-08-19T14:14:30Z</time>
      </trkpt>
      <trkpt lat="41.721441" lon="0.892780">
        <ele>230.817</ele>
        <time>2021-08-19T14:14:32Z</time>
      </trkpt>
      <trkpt lat="41.721492" lon="0.892737">
        <ele>230.408</ele>
        <time>2021-08-19T14:14:34Z</time>
      </trkpt>
      <trkpt lat="41.721536" lon="0.892695">
        <ele>230.063</ele>
        <time>2021-08-19T14:14:35Z</time>
      </trkpt>
      <trkpt lat="41.721574" lon="0.892656">
        <ele>229.616</ele>
        <time>2021-08-19T14:14:36Z</time>
      </trkpt>
      <trkpt lat="41.721634" lon="0.892594">
        <ele>228.959</ele>
        <time>2021-08-19T14:14:38Z</time>
      </trkpt>
      <trkpt lat="41.721695" lon="0.892535">
        <ele>228.310</ele>
        <time>2021-08-19T14:14:40Z</time>
      </trkpt>
      <trkpt lat="41.721733" lon="0.892499">
        <ele>228.237</ele>
        <time>2021-08-19T14:14:41Z</time>
      </trkpt>
      <trkpt lat="41.721790" lon="0.892444">
        <ele>228.425</ele>
        <time>2021-08-19T14:14:43Z</time>
      </trkpt>
      <trkpt lat="41.721845" lon="0.892387">
        <ele>228.484</ele>
        <time>2021-08-19T14:14:45Z</time>
      </trkpt>
      <trkpt lat="41.721890" lon="0.892340">
        <ele>228.383</ele>
        <time>2021-08-19T14:14:46Z</time>
      </trkpt>
      <trkpt lat="41.721943" lon="0.892294">
        <ele>228.343</ele>
        <time>2021-08-19T14:14:48Z</time>
      </trkpt>
      <trkpt lat="41.721996" lon="0.892243">
        <ele>228.664</ele>
        <time>2021-08-19T14:14:49Z</time>
      </trkpt>
      <trkpt lat="41.722049" lon="0.892191">
        <ele>229.310</ele>
        <time>2021-08-19T14:14:51Z</time>
      </trkpt>
      <trkpt lat="41.722085" lon="0.892153">
        <ele>229.808</ele>
        <time>2021-08-19T14:14:52Z</time>
      </trkpt>
      <trkpt lat="41.722119" lon="0.892113">
        <ele>230.222</ele>
        <time>2021-08-19T14:14:54Z</time>
      </trkpt>
      <trkpt lat="41.722169" lon="0.892059">
        <ele>230.755</ele>
        <time>2021-08-19T14:14:56Z</time>
      </trkpt>
      <trkpt lat="41.722201" lon="0.892012">
        <ele>230.948</ele>
        <time>2021-08-19T14:14:57Z</time>
      </trkpt>
      <trkpt lat="41.722246" lon="0.891958">
        <ele>231.089</ele>
        <time>2021-08-19T14:14:59Z</time>
      </trkpt>
      <trkpt lat="41.722299" lon="0.891893">
        <ele>231.146</ele>
        <time>2021-08-19T14:15:01Z</time>
      </trkpt>
      <trkpt lat="41.722348" lon="0.891827">
        <ele>231.294</ele>
        <time>2021-08-19T14:15:03Z</time>
      </trkpt>
      <trkpt lat="41.722382" lon="0.891782">
        <ele>231.343</ele>
        <time>2021-08-19T14:15:04Z</time>
      </trkpt>
      <trkpt lat="41.722430" lon="0.891711">
        <ele>231.682</ele>
        <time>2021-08-19T14:15:06Z</time>
      </trkpt>
      <trkpt lat="41.722465" lon="0.891666">
        <ele>231.949</ele>
        <time>2021-08-19T14:15:07Z</time>
      </trkpt>
      <trkpt lat="41.722507" lon="0.891617">
        <ele>231.802</ele>
        <time>2021-08-19T14:15:09Z</time>
      </trkpt>
      <trkpt lat="41.722544" lon="0.891566">
        <ele>231.722</ele>
        <time>2021-08-19T14:15:11Z</time>
      </trkpt>
      <trkpt lat="41.722572" lon="0.891513">
        <ele>231.608</ele>
        <time>2021-08-19T14:15:13Z</time>
      </trkpt>
      <trkpt lat="41.722598" lon="0.891462">
        <ele>231.532</ele>
        <time>2021-08-19T14:15:15Z</time>
      </trkpt>
      <trkpt lat="41.722633" lon="0.891419">
        <ele>231.565</ele>
        <time>2021-08-19T14:15:16Z</time>
      </trkpt>
      <trkpt lat="41.722666" lon="0.891375">
        <ele>231.668</ele>
        <time>2021-08-19T14:15:18Z</time>
      </trkpt>
      <trkpt lat="41.722691" lon="0.891323">
        <ele>231.989</ele>
        <time>2021-08-19T14:15:20Z</time>
      </trkpt>
      <trkpt lat="41.722721" lon="0.891274">
        <ele>232.126</ele>
        <time>2021-08-19T14:15:22Z</time>
      </trkpt>
      <trkpt lat="41.722750" lon="0.891223">
        <ele>232.414</ele>
        <time>2021-08-19T14:15:23Z</time>
      </trkpt>
      <trkpt lat="41.722784" lon="0.891158">
        <ele>232.963</ele>
        <time>2021-08-19T14:15:25Z</time>
      </trkpt>
      <trkpt lat="41.722827" lon="0.891083">
        <ele>233.462</ele>
        <time>2021-08-19T14:15:28Z</time>
      </trkpt>
      <trkpt lat="41.722861" lon="0.891027">
        <ele>233.641</ele>
        <time>2021-08-19T14:15:30Z</time>
      </trkpt>
      <trkpt lat="41.722896" lon="0.890980">
        <ele>233.981</ele>
        <time>2021-08-19T14:15:32Z</time>
      </trkpt>
      <trkpt lat="41.722926" lon="0.890935">
        <ele>234.109</ele>
        <time>2021-08-19T14:15:33Z</time>
      </trkpt>
      <trkpt lat="41.722955" lon="0.890888">
        <ele>234.308</ele>
        <time>2021-08-19T14:15:34Z</time>
      </trkpt>
      <trkpt lat="41.722987" lon="0.890833">
        <ele>234.552</ele>
        <time>2021-08-19T14:15:36Z</time>
      </trkpt>
      <trkpt lat="41.723025" lon="0.890780">
        <ele>234.625</ele>
        <time>2021-08-19T14:15:38Z</time>
      </trkpt>
      <trkpt lat="41.723070" lon="0.890717">
        <ele>234.698</ele>
        <time>2021-08-19T14:15:40Z</time>
      </trkpt>
      <trkpt lat="41.723114" lon="0.890664">
        <ele>234.449</ele>
        <time>2021-08-19T14:15:42Z</time>
      </trkpt>
      <trkpt lat="41.723156" lon="0.890611">
        <ele>234.286</ele>
        <time>2021-08-19T14:15:44Z</time>
      </trkpt>
      <trkpt lat="41.723202" lon="0.890550">
        <ele>234.014</ele>
        <time>2021-08-19T14:15:46Z</time>
      </trkpt>
      <trkpt lat="41.723238" lon="0.890509">
        <ele>233.813</ele>
        <time>2021-08-19T14:15:47Z</time>
      </trkpt>
      <trkpt lat="41.723280" lon="0.890455">
        <ele>233.662</ele>
        <time>2021-08-19T14:15:49Z</time>
      </trkpt>
      <trkpt lat="41.723329" lon="0.890395">
        <ele>233.411</ele>
        <time>2021-08-19T14:15:51Z</time>
      </trkpt>
      <trkpt lat="41.723364" lon="0.890355">
        <ele>233.421</ele>
        <time>2021-08-19T14:15:52Z</time>
      </trkpt>
      <trkpt lat="41.723412" lon="0.890308">
        <ele>233.403</ele>
        <time>2021-08-19T14:15:54Z</time>
      </trkpt>
      <trkpt lat="41.723453" lon="0.890266">
        <ele>233.408</ele>
        <time>2021-08-19T14:15:56Z</time>
      </trkpt>
      <trkpt lat="41.723496" lon="0.890220">
        <ele>233.669</ele>
        <time>2021-08-19T14:15:57Z</time>
      </trkpt>
      <trkpt lat="41.723554" lon="0.890167">
        <ele>233.852</ele>
        <time>2021-08-19T14:16:00Z</time>
      </trkpt>
      <trkpt lat="41.723594" lon="0.890117">
        <ele>233.985</ele>
        <time>2021-08-19T14:16:02Z</time>
      </trkpt>
      <trkpt lat="41.723640" lon="0.890072">
        <ele>234.296</ele>
        <time>2021-08-19T14:16:03Z</time>
      </trkpt>
      <trkpt lat="41.723681" lon="0.890031">
        <ele>234.593</ele>
        <time>2021-08-19T14:16:05Z</time>
      </trkpt>
      <trkpt lat="41.723720" lon="0.889991">
        <ele>234.811</ele>
        <time>2021-08-19T14:16:07Z</time>
      </trkpt>
      <trkpt lat="41.723759" lon="0.889957">
        <ele>235.130</ele>
        <time>2021-08-19T14:16:08Z</time>
      </trkpt>
      <trkpt lat="41.723812" lon="0.889908">
        <ele>235.379</ele>
        <time>2021-08-19T14:16:10Z</time>
      </trkpt>
      <trkpt lat="41.723851" lon="0.889858">
        <ele>235.499</ele>
        <time>2021-08-19T14:16:12Z</time>
      </trkpt>
      <trkpt lat="41.723898" lon="0.889801">
        <ele>235.307</ele>
        <time>2021-08-19T14:16:14Z</time>
      </trkpt>
      <trkpt lat="41.723946" lon="0.889751">
        <ele>234.927</ele>
        <time>2021-08-19T14:16:15Z</time>
      </trkpt>
      <trkpt lat="41.723987" lon="0.889703">
        <ele>234.608</ele>
        <time>2021-08-19T14:16:17Z</time>
      </trkpt>
      <trkpt lat="41.724017" lon="0.889655">
        <ele>234.447</ele>
        <time>2021-08-19T14:16:18Z</time>
      </trkpt>
      <trkpt lat="41.724044" lon="0.889606">
        <ele>234.280</ele>
        <time>2021-08-19T14:16:20Z</time>
      </trkpt>
      <trkpt lat="41.724081" lon="0.889528">
        <ele>233.843</ele>
        <time>2021-08-19T14:16:22Z</time>
      </trkpt>
      <trkpt lat="41.724123" lon="0.889453">
        <ele>233.384</ele>
        <time>2021-08-19T14:16:24Z</time>
      </trkpt>
      <trkpt lat="41.724158" lon="0.889381">
        <ele>233.071</ele>
        <time>2021-08-19T14:16:25Z</time>
      </trkpt>
      <trkpt lat="41.724195" lon="0.889316">
        <ele>233.069</ele>
        <time>2021-08-19T14:16:27Z</time>
      </trkpt>
      <trkpt lat="41.724236" lon="0.889238">
        <ele>233.058</ele>
        <time>2021-08-19T14:16:29Z</time>
      </trkpt>
      <trkpt lat="41.724262" lon="0.889181">
        <ele>233.047</ele>
        <time>2021-08-19T14:16:30Z</time>
      </trkpt>
      <trkpt lat="41.724309" lon="0.889095">
        <ele>233.097</ele>
        <time>2021-08-19T14:16:32Z</time>
      </trkpt>
      <trkpt lat="41.724348" lon="0.889024">
        <ele>233.023</ele>
        <time>2021-08-19T14:16:33Z</time>
      </trkpt>
      <trkpt lat="41.724405" lon="0.888917">
        <ele>233.025</ele>
        <time>2021-08-19T14:16:35Z</time>
      </trkpt>
      <trkpt lat="41.724457" lon="0.888823">
        <ele>232.708</ele>
        <time>2021-08-19T14:16:37Z</time>
      </trkpt>
      <trkpt lat="41.724512" lon="0.888720">
        <ele>232.117</ele>
        <time>2021-08-19T14:16:39Z</time>
      </trkpt>
      <trkpt lat="41.724563" lon="0.888623">
        <ele>231.620</ele>
        <time>2021-08-19T14:16:41Z</time>
      </trkpt>
      <trkpt lat="41.724611" lon="0.888526">
        <ele>231.413</ele>
        <time>2021-08-19T14:16:43Z</time>
      </trkpt>
      <trkpt lat="41.724660" lon="0.888425">
        <ele>231.244</ele>
        <time>2021-08-19T14:16:45Z</time>
      </trkpt>
      <trkpt lat="41.724714" lon="0.888323">
        <ele>231.151</ele>
        <time>2021-08-19T14:16:47Z</time>
      </trkpt>
      <trkpt lat="41.724741" lon="0.888272">
        <ele>231.219</ele>
        <time>2021-08-19T14:16:48Z</time>
      </trkpt>
      <trkpt lat="41.724768" lon="0.888221">
        <ele>231.328</ele>
        <time>2021-08-19T14:16:49Z</time>
      </trkpt>
      <trkpt lat="41.724820" lon="0.888115">
        <ele>231.587</ele>
        <time>2021-08-19T14:16:51Z</time>
      </trkpt>
      <trkpt lat="41.724861" lon="0.888026">
        <ele>231.585</ele>
        <time>2021-08-19T14:16:53Z</time>
      </trkpt>
      <trkpt lat="41.724888" lon="0.887969">
        <ele>231.589</ele>
        <time>2021-08-19T14:16:54Z</time>
      </trkpt>
      <trkpt lat="41.724920" lon="0.887915">
        <ele>231.517</ele>
        <time>2021-08-19T14:16:55Z</time>
      </trkpt>
      <trkpt lat="41.724965" lon="0.887850">
        <ele>231.708</ele>
        <time>2021-08-19T14:16:57Z</time>
      </trkpt>
      <trkpt lat="41.725000" lon="0.887785">
        <ele>232.096</ele>
        <time>2021-08-19T14:16:58Z</time>
      </trkpt>
      <trkpt lat="41.725032" lon="0.887731">
        <ele>232.189</ele>
        <time>2021-08-19T14:16:59Z</time>
      </trkpt>
      <trkpt lat="41.725085" lon="0.887642">
        <ele>232.382</ele>
        <time>2021-08-19T14:17:01Z</time>
      </trkpt>
      <trkpt lat="41.725130" lon="0.887570">
        <ele>232.473</ele>
        <time>2021-08-19T14:17:03Z</time>
      </trkpt>
      <trkpt lat="41.725159" lon="0.887520">
        <ele>232.420</ele>
        <time>2021-08-19T14:17:04Z</time>
      </trkpt>
      <trkpt lat="41.725212" lon="0.887423">
        <ele>232.488</ele>
        <time>2021-08-19T14:17:06Z</time>
      </trkpt>
      <trkpt lat="41.725267" lon="0.887327">
        <ele>232.627</ele>
        <time>2021-08-19T14:17:08Z</time>
      </trkpt>
      <trkpt lat="41.725295" lon="0.887279">
        <ele>232.736</ele>
        <time>2021-08-19T14:17:09Z</time>
      </trkpt>
      <trkpt lat="41.725350" lon="0.887185">
        <ele>232.417</ele>
        <time>2021-08-19T14:17:11Z</time>
      </trkpt>
      <trkpt lat="41.725382" lon="0.887132">
        <ele>232.087</ele>
        <time>2021-08-19T14:17:12Z</time>
      </trkpt>
      <trkpt lat="41.725414" lon="0.887087">
        <ele>231.815</ele>
        <time>2021-08-19T14:17:13Z</time>
      </trkpt>
      <trkpt lat="41.725448" lon="0.887043">
        <ele>231.508</ele>
        <time>2021-08-19T14:17:14Z</time>
      </trkpt>
      <trkpt lat="41.725515" lon="0.886955">
        <ele>231.269</ele>
        <time>2021-08-19T14:17:16Z</time>
      </trkpt>
      <trkpt lat="41.725589" lon="0.886874">
        <ele>230.972</ele>
        <time>2021-08-19T14:17:18Z</time>
      </trkpt>
      <trkpt lat="41.725628" lon="0.886838">
        <ele>230.785</ele>
        <time>2021-08-19T14:17:19Z</time>
      </trkpt>
      <trkpt lat="41.725704" lon="0.886768">
        <ele>230.546</ele>
        <time>2021-08-19T14:17:21Z</time>
      </trkpt>
      <trkpt lat="41.725763" lon="0.886711">
        <ele>230.353</ele>
        <time>2021-08-19T14:17:23Z</time>
      </trkpt>
      <trkpt lat="41.725805" lon="0.886673">
        <ele>230.141</ele>
        <time>2021-08-19T14:17:24Z</time>
      </trkpt>
      <trkpt lat="41.725847" lon="0.886638">
        <ele>229.890</ele>
        <time>2021-08-19T14:17:25Z</time>
      </trkpt>
      <trkpt lat="41.725916" lon="0.886573">
        <ele>229.289</ele>
        <time>2021-08-19T14:17:27Z</time>
      </trkpt>
      <trkpt lat="41.725998" lon="0.886498">
        <ele>228.925</ele>
        <time>2021-08-19T14:17:29Z</time>
      </trkpt>
      <trkpt lat="41.726072" lon="0.886430">
        <ele>228.926</ele>
        <time>2021-08-19T14:17:32Z</time>
      </trkpt>
      <trkpt lat="41.726160" lon="0.886346">
        <ele>229.108</ele>
        <time>2021-08-19T14:17:34Z</time>
      </trkpt>
      <trkpt lat="41.726239" lon="0.886274">
        <ele>229.408</ele>
        <time>2021-08-19T14:17:36Z</time>
      </trkpt>
      <trkpt lat="41.726312" lon="0.886206">
        <ele>230.040</ele>
        <time>2021-08-19T14:17:38Z</time>
      </trkpt>
      <trkpt lat="41.726370" lon="0.886150">
        <ele>230.733</ele>
        <time>2021-08-19T14:17:40Z</time>
      </trkpt>
      <trkpt lat="41.726405" lon="0.886112">
        <ele>231.026</ele>
        <time>2021-08-19T14:17:41Z</time>
      </trkpt>
      <trkpt lat="41.726469" lon="0.886055">
        <ele>230.867</ele>
        <time>2021-08-19T14:17:43Z</time>
      </trkpt>
      <trkpt lat="41.726527" lon="0.885990">
        <ele>230.674</ele>
        <time>2021-08-19T14:17:45Z</time>
      </trkpt>
      <trkpt lat="41.726590" lon="0.885930">
        <ele>230.392</ele>
        <time>2021-08-19T14:17:47Z</time>
      </trkpt>
      <trkpt lat="41.726658" lon="0.885872">
        <ele>230.111</ele>
        <time>2021-08-19T14:17:49Z</time>
      </trkpt>
      <trkpt lat="41.726726" lon="0.885812">
        <ele>229.830</ele>
        <time>2021-08-19T14:17:51Z</time>
      </trkpt>
      <trkpt lat="41.726794" lon="0.885754">
        <ele>229.599</ele>
        <time>2021-08-19T14:17:53Z</time>
      </trkpt>
      <trkpt lat="41.726862" lon="0.885698">
        <ele>229.307</ele>
        <time>2021-08-19T14:17:55Z</time>
      </trkpt>
      <trkpt lat="41.726930" lon="0.885644">
        <ele>229.127</ele>
        <time>2021-08-19T14:17:57Z</time>
      </trkpt>
      <trkpt lat="41.726994" lon="0.885582">
        <ele>228.808</ele>
        <time>2021-08-19T14:17:59Z</time>
      </trkpt>
      <trkpt lat="41.727057" lon="0.885518">
        <ele>228.587</ele>
        <time>2021-08-19T14:18:01Z</time>
      </trkpt>
      <trkpt lat="41.727120" lon="0.885455">
        <ele>228.240</ele>
        <time>2021-08-19T14:18:03Z</time>
      </trkpt>
      <trkpt lat="41.727183" lon="0.885389">
        <ele>228.153</ele>
        <time>2021-08-19T14:18:05Z</time>
      </trkpt>
      <trkpt lat="41.727241" lon="0.885317">
        <ele>228.054</ele>
        <time>2021-08-19T14:18:07Z</time>
      </trkpt>
      <trkpt lat="41.727300" lon="0.885249">
        <ele>227.971</ele>
        <time>2021-08-19T14:18:09Z</time>
      </trkpt>
      <trkpt lat="41.727358" lon="0.885183">
        <ele>227.889</ele>
        <time>2021-08-19T14:18:11Z</time>
      </trkpt>
      <trkpt lat="41.727418" lon="0.885117">
        <ele>227.828</ele>
        <time>2021-08-19T14:18:13Z</time>
      </trkpt>
      <trkpt lat="41.727469" lon="0.885057">
        <ele>227.917</ele>
        <time>2021-08-19T14:18:15Z</time>
      </trkpt>
      <trkpt lat="41.727523" lon="0.884998">
        <ele>227.914</ele>
        <time>2021-08-19T14:18:17Z</time>
      </trkpt>
      <trkpt lat="41.727578" lon="0.884937">
        <ele>227.854</ele>
        <time>2021-08-19T14:18:19Z</time>
      </trkpt>
      <trkpt lat="41.727634" lon="0.884874">
        <ele>227.709</ele>
        <time>2021-08-19T14:18:21Z</time>
      </trkpt>
      <trkpt lat="41.727690" lon="0.884813">
        <ele>227.808</ele>
        <time>2021-08-19T14:18:23Z</time>
      </trkpt>
      <trkpt lat="41.727744" lon="0.884749">
        <ele>227.959</ele>
        <time>2021-08-19T14:18:25Z</time>
      </trkpt>
      <trkpt lat="41.727798" lon="0.884684">
        <ele>227.812</ele>
        <time>2021-08-19T14:18:27Z</time>
      </trkpt>
      <trkpt lat="41.727854" lon="0.884623">
        <ele>227.715</ele>
        <time>2021-08-19T14:18:29Z</time>
      </trkpt>
      <trkpt lat="41.727911" lon="0.884562">
        <ele>227.876</ele>
        <time>2021-08-19T14:18:31Z</time>
      </trkpt>
      <trkpt lat="41.727969" lon="0.884500">
        <ele>228.213</ele>
        <time>2021-08-19T14:18:33Z</time>
      </trkpt>
      <trkpt lat="41.728023" lon="0.884438">
        <ele>228.831</ele>
        <time>2021-08-19T14:18:35Z</time>
      </trkpt>
      <trkpt lat="41.728078" lon="0.884376">
        <ele>229.330</ele>
        <time>2021-08-19T14:18:37Z</time>
      </trkpt>
      <trkpt lat="41.728131" lon="0.884310">
        <ele>229.829</ele>
        <time>2021-08-19T14:18:39Z</time>
      </trkpt>
      <trkpt lat="41.728188" lon="0.884246">
        <ele>230.243</ele>
        <time>2021-08-19T14:18:41Z</time>
      </trkpt>
      <trkpt lat="41.728245" lon="0.884183">
        <ele>230.664</ele>
        <time>2021-08-19T14:18:43Z</time>
      </trkpt>
      <trkpt lat="41.728299" lon="0.884124">
        <ele>230.910</ele>
        <time>2021-08-19T14:18:45Z</time>
      </trkpt>
      <trkpt lat="41.728351" lon="0.884063">
        <ele>230.908</ele>
        <time>2021-08-19T14:18:47Z</time>
      </trkpt>
      <trkpt lat="41.728406" lon="0.884003">
        <ele>230.782</ele>
        <time>2021-08-19T14:18:49Z</time>
      </trkpt>
      <trkpt lat="41.728462" lon="0.883944">
        <ele>230.595</ele>
        <time>2021-08-19T14:18:51Z</time>
      </trkpt>
      <trkpt lat="41.728518" lon="0.883885">
        <ele>230.328</ele>
        <time>2021-08-19T14:18:53Z</time>
      </trkpt>
      <trkpt lat="41.728572" lon="0.883824">
        <ele>229.929</ele>
        <time>2021-08-19T14:18:55Z</time>
      </trkpt>
      <trkpt lat="41.728628" lon="0.883765">
        <ele>229.566</ele>
        <time>2021-08-19T14:18:57Z</time>
      </trkpt>
      <trkpt lat="41.728682" lon="0.883703">
        <ele>229.134</ele>
        <time>2021-08-19T14:18:59Z</time>
      </trkpt>
      <trkpt lat="41.728734" lon="0.883635">
        <ele>228.693</ele>
        <time>2021-08-19T14:19:01Z</time>
      </trkpt>
      <trkpt lat="41.728783" lon="0.883561">
        <ele>228.442</ele>
        <time>2021-08-19T14:19:03Z</time>
      </trkpt>
      <trkpt lat="41.728825" lon="0.883485">
        <ele>228.468</ele>
        <time>2021-08-19T14:19:05Z</time>
      </trkpt>
      <trkpt lat="41.728862" lon="0.883401">
        <ele>228.642</ele>
        <time>2021-08-19T14:19:07Z</time>
      </trkpt>
      <trkpt lat="41.728896" lon="0.883317">
        <ele>228.926</ele>
        <time>2021-08-19T14:19:09Z</time>
      </trkpt>
      <trkpt lat="41.728930" lon="0.883226">
        <ele>228.708</ele>
        <time>2021-08-19T14:19:11Z</time>
      </trkpt>
      <trkpt lat="41.728961" lon="0.883135">
        <ele>228.774</ele>
        <time>2021-08-19T14:19:13Z</time>
      </trkpt>
      <trkpt lat="41.728994" lon="0.883052">
        <ele>228.887</ele>
        <time>2021-08-19T14:19:15Z</time>
      </trkpt>
      <trkpt lat="41.729026" lon="0.882963">
        <ele>229.280</ele>
        <time>2021-08-19T14:19:17Z</time>
      </trkpt>
      <trkpt lat="41.729058" lon="0.882875">
        <ele>229.591</ele>
        <time>2021-08-19T14:19:19Z</time>
      </trkpt>
      <trkpt lat="41.729090" lon="0.882787">
        <ele>229.798</ele>
        <time>2021-08-19T14:19:21Z</time>
      </trkpt>
      <trkpt lat="41.729121" lon="0.882699">
        <ele>230.456</ele>
        <time>2021-08-19T14:19:23Z</time>
      </trkpt>
      <trkpt lat="41.729151" lon="0.882607">
        <ele>231.175</ele>
        <time>2021-08-19T14:19:25Z</time>
      </trkpt>
      <trkpt lat="41.729183" lon="0.882517">
        <ele>231.984</ele>
        <time>2021-08-19T14:19:27Z</time>
      </trkpt>
      <trkpt lat="41.729214" lon="0.882425">
        <ele>231.885</ele>
        <time>2021-08-19T14:19:29Z</time>
      </trkpt>
      <trkpt lat="41.729244" lon="0.882332">
        <ele>231.689</ele>
        <time>2021-08-19T14:19:31Z</time>
      </trkpt>
      <trkpt lat="41.729278" lon="0.882242">
        <ele>231.417</ele>
        <time>2021-08-19T14:19:33Z</time>
      </trkpt>
      <trkpt lat="41.729313" lon="0.882149">
        <ele>231.108</ele>
        <time>2021-08-19T14:19:35Z</time>
      </trkpt>
      <trkpt lat="41.729351" lon="0.882057">
        <ele>230.716</ele>
        <time>2021-08-19T14:19:37Z</time>
      </trkpt>
      <trkpt lat="41.729393" lon="0.881970">
        <ele>230.299</ele>
        <time>2021-08-19T14:19:39Z</time>
      </trkpt>
      <trkpt lat="41.729437" lon="0.881879">
        <ele>229.812</ele>
        <time>2021-08-19T14:19:41Z</time>
      </trkpt>
      <trkpt lat="41.729481" lon="0.881782">
        <ele>229.423</ele>
        <time>2021-08-19T14:19:43Z</time>
      </trkpt>
      <trkpt lat="41.729529" lon="0.881705">
        <ele>229.190</ele>
        <time>2021-08-19T14:19:45Z</time>
      </trkpt>
      <trkpt lat="41.729566" lon="0.881626">
        <ele>228.878</ele>
        <time>2021-08-19T14:19:47Z</time>
      </trkpt>
      <trkpt lat="41.729608" lon="0.881556">
        <ele>228.767</ele>
        <time>2021-08-19T14:19:49Z</time>
      </trkpt>
      <trkpt lat="41.729654" lon="0.881482">
        <ele>228.716</ele>
        <time>2021-08-19T14:19:51Z</time>
      </trkpt>
      <trkpt lat="41.729708" lon="0.881416">
        <ele>228.937</ele>
        <time>2021-08-19T14:19:53Z</time>
      </trkpt>
      <trkpt lat="41.729759" lon="0.881337">
        <ele>228.749</ele>
        <time>2021-08-19T14:19:55Z</time>
      </trkpt>
      <trkpt lat="41.729811" lon="0.881261">
        <ele>228.413</ele>
        <time>2021-08-19T14:19:57Z</time>
      </trkpt>
      <trkpt lat="41.729864" lon="0.881185">
        <ele>228.108</ele>
        <time>2021-08-19T14:19:59Z</time>
      </trkpt>
      <trkpt lat="41.729915" lon="0.881116">
        <ele>228.071</ele>
        <time>2021-08-19T14:20:01Z</time>
      </trkpt>
      <trkpt lat="41.729968" lon="0.881039">
        <ele>228.534</ele>
        <time>2021-08-19T14:20:03Z</time>
      </trkpt>
      <trkpt lat="41.730021" lon="0.880968">
        <ele>229.147</ele>
        <time>2021-08-19T14:20:05Z</time>
      </trkpt>
      <trkpt lat="41.730070" lon="0.880894">
        <ele>229.838</ele>
        <time>2021-08-19T14:20:07Z</time>
      </trkpt>
      <trkpt lat="41.730117" lon="0.880816">
        <ele>230.555</ele>
        <time>2021-08-19T14:20:09Z</time>
      </trkpt>
      <trkpt lat="41.730165" lon="0.880755">
        <ele>230.963</ele>
        <time>2021-08-19T14:20:11Z</time>
      </trkpt>
      <trkpt lat="41.730221" lon="0.880673">
        <ele>231.442</ele>
        <time>2021-08-19T14:20:13Z</time>
      </trkpt>
      <trkpt lat="41.730268" lon="0.880594">
        <ele>231.851</ele>
        <time>2021-08-19T14:20:15Z</time>
      </trkpt>
      <trkpt lat="41.730318" lon="0.880526">
        <ele>231.973</ele>
        <time>2021-08-19T14:20:17Z</time>
      </trkpt>
      <trkpt lat="41.730367" lon="0.880454">
        <ele>231.785</ele>
        <time>2021-08-19T14:20:19Z</time>
      </trkpt>
      <trkpt lat="41.730419" lon="0.880383">
        <ele>231.513</ele>
        <time>2021-08-19T14:20:21Z</time>
      </trkpt>
      <trkpt lat="41.730467" lon="0.880310">
        <ele>231.308</ele>
        <time>2021-08-19T14:20:23Z</time>
      </trkpt>
      <trkpt lat="41.730512" lon="0.880235">
        <ele>231.015</ele>
        <time>2021-08-19T14:20:25Z</time>
      </trkpt>
      <trkpt lat="41.730559" lon="0.880170">
        <ele>230.668</ele>
        <time>2021-08-19T14:20:27Z</time>
      </trkpt>
      <trkpt lat="41.730606" lon="0.880105">
        <ele>229.821</ele>
        <time>2021-08-19T14:20:29Z</time>
      </trkpt>
      <trkpt lat="41.730657" lon="0.880038">
        <ele>229.052</ele>
        <time>2021-08-19T14:20:31Z</time>
      </trkpt>
      <trkpt lat="41.730709" lon="0.879962">
        <ele>228.319</ele>
        <time>2021-08-19T14:20:33Z</time>
      </trkpt>
      <trkpt lat="41.730763" lon="0.879896">
        <ele>227.817</ele>
        <time>2021-08-19T14:20:35Z</time>
      </trkpt>
      <trkpt lat="41.730815" lon="0.879828">
        <ele>227.256</ele>
        <time>2021-08-19T14:20:37Z</time>
      </trkpt>
      <trkpt lat="41.730862" lon="0.879760">
        <ele>226.885</ele>
        <time>2021-08-19T14:20:39Z</time>
      </trkpt>
      <trkpt lat="41.730910" lon="0.879692">
        <ele>226.617</ele>
        <time>2021-08-19T14:20:41Z</time>
      </trkpt>
      <trkpt lat="41.730943" lon="0.879640">
        <ele>226.687</ele>
        <time>2021-08-19T14:20:43Z</time>
      </trkpt>
      <trkpt lat="41.730977" lon="0.879588">
        <ele>226.715</ele>
        <time>2021-08-19T14:20:44Z</time>
      </trkpt>
      <trkpt lat="41.731029" lon="0.879518">
        <ele>226.808</ele>
        <time>2021-08-19T14:20:46Z</time>
      </trkpt>
      <trkpt lat="41.731075" lon="0.879451">
        <ele>227.199</ele>
        <time>2021-08-19T14:20:48Z</time>
      </trkpt>
      <trkpt lat="41.731118" lon="0.879378">
        <ele>227.562</ele>
        <time>2021-08-19T14:20:50Z</time>
      </trkpt>
      <trkpt lat="41.731168" lon="0.879305">
        <ele>228.125</ele>
        <time>2021-08-19T14:20:52Z</time>
      </trkpt>
      <trkpt lat="41.731218" lon="0.879240">
        <ele>228.686</ele>
        <time>2021-08-19T14:20:54Z</time>
      </trkpt>
      <trkpt lat="41.731264" lon="0.879166">
        <ele>229.053</ele>
        <time>2021-08-19T14:20:56Z</time>
      </trkpt>
      <trkpt lat="41.731315" lon="0.879096">
        <ele>229.031</ele>
        <time>2021-08-19T14:20:58Z</time>
      </trkpt>
      <trkpt lat="41.731366" lon="0.879024">
        <ele>229.030</ele>
        <time>2021-08-19T14:21:00Z</time>
      </trkpt>
      <trkpt lat="41.731416" lon="0.878955">
        <ele>229.149</ele>
        <time>2021-08-19T14:21:02Z</time>
      </trkpt>
      <trkpt lat="41.731464" lon="0.878886">
        <ele>229.246</ele>
        <time>2021-08-19T14:21:04Z</time>
      </trkpt>
      <trkpt lat="41.731513" lon="0.878819">
        <ele>228.888</ele>
        <time>2021-08-19T14:21:06Z</time>
      </trkpt>
      <trkpt lat="41.731558" lon="0.878749">
        <ele>228.416</ele>
        <time>2021-08-19T14:21:08Z</time>
      </trkpt>
      <trkpt lat="41.731597" lon="0.878667">
        <ele>228.008</ele>
        <time>2021-08-19T14:21:10Z</time>
      </trkpt>
      <trkpt lat="41.731627" lon="0.878615">
        <ele>227.792</ele>
        <time>2021-08-19T14:21:12Z</time>
      </trkpt>
      <trkpt lat="41.731650" lon="0.878534">
        <ele>227.185</ele>
        <time>2021-08-19T14:21:14Z</time>
      </trkpt>
      <trkpt lat="41.731672" lon="0.878462">
        <ele>226.448</ele>
        <time>2021-08-19T14:21:16Z</time>
      </trkpt>
      <trkpt lat="41.731694" lon="0.878392">
        <ele>225.919</ele>
        <time>2021-08-19T14:21:18Z</time>
      </trkpt>
      <trkpt lat="41.731709" lon="0.878309">
        <ele>225.566</ele>
        <time>2021-08-19T14:21:20Z</time>
      </trkpt>
      <trkpt lat="41.731735" lon="0.878220">
        <ele>226.064</ele>
        <time>2021-08-19T14:21:22Z</time>
      </trkpt>
      <trkpt lat="41.731769" lon="0.878139">
        <ele>226.543</ele>
        <time>2021-08-19T14:21:24Z</time>
      </trkpt>
      <trkpt lat="41.731802" lon="0.878054">
        <ele>227.042</ele>
        <time>2021-08-19T14:21:26Z</time>
      </trkpt>
      <trkpt lat="41.731836" lon="0.877967">
        <ele>227.559</ele>
        <time>2021-08-19T14:21:28Z</time>
      </trkpt>
      <trkpt lat="41.731866" lon="0.877883">
        <ele>228.103</ele>
        <time>2021-08-19T14:21:30Z</time>
      </trkpt>
      <trkpt lat="41.731899" lon="0.877801">
        <ele>228.623</ele>
        <time>2021-08-19T14:21:32Z</time>
      </trkpt>
      <trkpt lat="41.731933" lon="0.877721">
        <ele>229.308</ele>
        <time>2021-08-19T14:21:34Z</time>
      </trkpt>
      <trkpt lat="41.731966" lon="0.877649">
        <ele>230.013</ele>
        <time>2021-08-19T14:21:36Z</time>
      </trkpt>
      <trkpt lat="41.731994" lon="0.877575">
        <ele>230.546</ele>
        <time>2021-08-19T14:21:38Z</time>
      </trkpt>
      <trkpt lat="41.732026" lon="0.877513">
        <ele>230.949</ele>
        <time>2021-08-19T14:21:40Z</time>
      </trkpt>
      <trkpt lat="41.732056" lon="0.877463">
        <ele>231.130</ele>
        <time>2021-08-19T14:21:42Z</time>
      </trkpt>
      <trkpt lat="41.732090" lon="0.877388">
        <ele>231.467</ele>
        <time>2021-08-19T14:21:44Z</time>
      </trkpt>
      <trkpt lat="41.732120" lon="0.877320">
        <ele>231.635</ele>
        <time>2021-08-19T14:21:46Z</time>
      </trkpt>
      <trkpt lat="41.732159" lon="0.877259">
        <ele>231.974</ele>
        <time>2021-08-19T14:21:48Z</time>
      </trkpt>
      <trkpt lat="41.732201" lon="0.877176">
        <ele>231.883</ele>
        <time>2021-08-19T14:21:50Z</time>
      </trkpt>
      <trkpt lat="41.732245" lon="0.877099">
        <ele>231.379</ele>
        <time>2021-08-19T14:21:52Z</time>
      </trkpt>
      <trkpt lat="41.732289" lon="0.877018">
        <ele>230.705</ele>
        <time>2021-08-19T14:21:54Z</time>
      </trkpt>
      <trkpt lat="41.732334" lon="0.876943">
        <ele>230.225</ele>
        <time>2021-08-19T14:21:56Z</time>
      </trkpt>
      <trkpt lat="41.732374" lon="0.876871">
        <ele>229.608</ele>
        <time>2021-08-19T14:21:58Z</time>
      </trkpt>
      <trkpt lat="41.732424" lon="0.876797">
        <ele>229.035</ele>
        <time>2021-08-19T14:22:00Z</time>
      </trkpt>
      <trkpt lat="41.732469" lon="0.876720">
        <ele>228.478</ele>
        <time>2021-08-19T14:22:02Z</time>
      </trkpt>
      <trkpt lat="41.732514" lon="0.876651">
        <ele>227.981</ele>
        <time>2021-08-19T14:22:04Z</time>
      </trkpt>
      <trkpt lat="41.732565" lon="0.876586">
        <ele>227.872</ele>
        <time>2021-08-19T14:22:06Z</time>
      </trkpt>
      <trkpt lat="41.732618" lon="0.876526">
        <ele>227.649</ele>
        <time>2021-08-19T14:22:08Z</time>
      </trkpt>
      <trkpt lat="41.732685" lon="0.876494">
        <ele>227.387</ele>
        <time>2021-08-19T14:22:10Z</time>
      </trkpt>
      <trkpt lat="41.732741" lon="0.876467">
        <ele>227.196</ele>
        <time>2021-08-19T14:22:12Z</time>
      </trkpt>
      <trkpt lat="41.732821" lon="0.876445">
        <ele>227.015</ele>
        <time>2021-08-19T14:22:14Z</time>
      </trkpt>
      <trkpt lat="41.732894" lon="0.876420">
        <ele>227.056</ele>
        <time>2021-08-19T14:22:16Z</time>
      </trkpt>
      <trkpt lat="41.732964" lon="0.876390">
        <ele>227.059</ele>
        <time>2021-08-19T14:22:18Z</time>
      </trkpt>
      <trkpt lat="41.733027" lon="0.876361">
        <ele>227.114</ele>
        <time>2021-08-19T14:22:20Z</time>
      </trkpt>
      <trkpt lat="41.733090" lon="0.876337">
        <ele>227.308</ele>
        <time>2021-08-19T14:22:22Z</time>
      </trkpt>
      <trkpt lat="41.733155" lon="0.876312">
        <ele>227.713</ele>
        <time>2021-08-19T14:22:24Z</time>
      </trkpt>
      <trkpt lat="41.733217" lon="0.876276">
        <ele>228.266</ele>
        <time>2021-08-19T14:22:26Z</time>
      </trkpt>
      <trkpt lat="41.733279" lon="0.876241">
        <ele>228.829</ele>
        <time>2021-08-19T14:22:28Z</time>
      </trkpt>
      <trkpt lat="41.733338" lon="0.876206">
        <ele>229.380</ele>
        <time>2021-08-19T14:22:30Z</time>
      </trkpt>
      <trkpt lat="41.733399" lon="0.876174">
        <ele>229.177</ele>
        <time>2021-08-19T14:22:32Z</time>
      </trkpt>
      <trkpt lat="41.733453" lon="0.876131">
        <ele>229.075</ele>
        <time>2021-08-19T14:22:34Z</time>
      </trkpt>
      <trkpt lat="41.733504" lon="0.876088">
        <ele>228.844</ele>
        <time>2021-08-19T14:22:36Z</time>
      </trkpt>
      <trkpt lat="41.733552" lon="0.876033">
        <ele>228.613</ele>
        <time>2021-08-19T14:22:38Z</time>
      </trkpt>
      <trkpt lat="41.733602" lon="0.875979">
        <ele>228.524</ele>
        <time>2021-08-19T14:22:40Z</time>
      </trkpt>
      <trkpt lat="41.733647" lon="0.875939">
        <ele>228.304</ele>
        <time>2021-08-19T14:22:42Z</time>
      </trkpt>
      <trkpt lat="41.733701" lon="0.875878">
        <ele>228.114</ele>
        <time>2021-08-19T14:22:44Z</time>
      </trkpt>
      <trkpt lat="41.733755" lon="0.875824">
        <ele>228.008</ele>
        <time>2021-08-19T14:22:46Z</time>
      </trkpt>
      <trkpt lat="41.733804" lon="0.875766">
        <ele>227.820</ele>
        <time>2021-08-19T14:22:48Z</time>
      </trkpt>
      <trkpt lat="41.733856" lon="0.875723">
        <ele>227.673</ele>
        <time>2021-08-19T14:22:50Z</time>
      </trkpt>
      <trkpt lat="41.733915" lon="0.875667">
        <ele>227.456</ele>
        <time>2021-08-19T14:22:52Z</time>
      </trkpt>
      <trkpt lat="41.733963" lon="0.875607">
        <ele>227.377</ele>
        <time>2021-08-19T14:22:54Z</time>
      </trkpt>
      <trkpt lat="41.734020" lon="0.875558">
        <ele>227.154</ele>
        <time>2021-08-19T14:22:56Z</time>
      </trkpt>
      <trkpt lat="41.734067" lon="0.875507">
        <ele>226.722</ele>
        <time>2021-08-19T14:22:58Z</time>
      </trkpt>
      <trkpt lat="41.734109" lon="0.875455">
        <ele>226.391</ele>
        <time>2021-08-19T14:23:00Z</time>
      </trkpt>
      <trkpt lat="41.734161" lon="0.875399">
        <ele>226.030</ele>
        <time>2021-08-19T14:23:02Z</time>
      </trkpt>
      <trkpt lat="41.734210" lon="0.875348">
        <ele>226.174</ele>
        <time>2021-08-19T14:23:04Z</time>
      </trkpt>
      <trkpt lat="41.734264" lon="0.875300">
        <ele>226.356</ele>
        <time>2021-08-19T14:23:06Z</time>
      </trkpt>
      <trkpt lat="41.734311" lon="0.875243">
        <ele>226.521</ele>
        <time>2021-08-19T14:23:08Z</time>
      </trkpt>
      <trkpt lat="41.734360" lon="0.875185">
        <ele>226.808</ele>
        <time>2021-08-19T14:23:10Z</time>
      </trkpt>
      <trkpt lat="41.734408" lon="0.875138">
        <ele>227.225</ele>
        <time>2021-08-19T14:23:13Z</time>
      </trkpt>
      <trkpt lat="41.734458" lon="0.875088">
        <ele>227.778</ele>
        <time>2021-08-19T14:23:15Z</time>
      </trkpt>
      <trkpt lat="41.734493" lon="0.875050">
        <ele>228.021</ele>
        <time>2021-08-19T14:23:17Z</time>
      </trkpt>
      <trkpt lat="41.734539" lon="0.874997">
        <ele>228.462</ele>
        <time>2021-08-19T14:23:20Z</time>
      </trkpt>
      <trkpt lat="41.734597" lon="0.874980">
        <ele>228.649</ele>
        <time>2021-08-19T14:23:23Z</time>
      </trkpt>
      <trkpt lat="41.734650" lon="0.874950">
        <ele>228.997</ele>
        <time>2021-08-19T14:23:26Z</time>
      </trkpt>
      <trkpt lat="41.734692" lon="0.874925">
        <ele>229.236</ele>
        <time>2021-08-19T14:23:28Z</time>
      </trkpt>
      <trkpt lat="41.734736" lon="0.874899">
        <ele>229.435</ele>
        <time>2021-08-19T14:23:30Z</time>
      </trkpt>
      <trkpt lat="41.734786" lon="0.874878">
        <ele>229.479</ele>
        <time>2021-08-19T14:23:32Z</time>
      </trkpt>
      <trkpt lat="41.734832" lon="0.874847">
        <ele>229.605</ele>
        <time>2021-08-19T14:23:34Z</time>
      </trkpt>
      <trkpt lat="41.734884" lon="0.874817">
        <ele>229.725</ele>
        <time>2021-08-19T14:23:36Z</time>
      </trkpt>
      <trkpt lat="41.734932" lon="0.874782">
        <ele>229.808</ele>
        <time>2021-08-19T14:23:38Z</time>
      </trkpt>
      <trkpt lat="41.734977" lon="0.874733">
        <ele>230.095</ele>
        <time>2021-08-19T14:23:40Z</time>
      </trkpt>
      <trkpt lat="41.735021" lon="0.874697">
        <ele>229.768</ele>
        <time>2021-08-19T14:23:42Z</time>
      </trkpt>
      <trkpt lat="41.735070" lon="0.874640">
        <ele>229.191</ele>
        <time>2021-08-19T14:23:44Z</time>
      </trkpt>
      <trkpt lat="41.735117" lon="0.874583">
        <ele>228.742</ele>
        <time>2021-08-19T14:23:46Z</time>
      </trkpt>
      <trkpt lat="41.735160" lon="0.874526">
        <ele>228.439</ele>
        <time>2021-08-19T14:23:48Z</time>
      </trkpt>
      <trkpt lat="41.735203" lon="0.874470">
        <ele>228.217</ele>
        <time>2021-08-19T14:23:50Z</time>
      </trkpt>
      <trkpt lat="41.735246" lon="0.874406">
        <ele>228.216</ele>
        <time>2021-08-19T14:23:52Z</time>
      </trkpt>
      <trkpt lat="41.735294" lon="0.874348">
        <ele>228.455</ele>
        <time>2021-08-19T14:23:54Z</time>
      </trkpt>
      <trkpt lat="41.735331" lon="0.874298">
        <ele>228.674</ele>
        <time>2021-08-19T14:23:56Z</time>
      </trkpt>
      <trkpt lat="41.735383" lon="0.874229">
        <ele>229.156</ele>
        <time>2021-08-19T14:23:58Z</time>
      </trkpt>
      <trkpt lat="41.735424" lon="0.874171">
        <ele>229.521</ele>
        <time>2021-08-19T14:24:00Z</time>
      </trkpt>
      <trkpt lat="41.735464" lon="0.874111">
        <ele>229.508</ele>
        <time>2021-08-19T14:24:02Z</time>
      </trkpt>
      <trkpt lat="41.735506" lon="0.874052">
        <ele>229.445</ele>
        <time>2021-08-19T14:24:04Z</time>
      </trkpt>
      <trkpt lat="41.735552" lon="0.873997">
        <ele>229.458</ele>
        <time>2021-08-19T14:24:06Z</time>
      </trkpt>
      <trkpt lat="41.735593" lon="0.873935">
        <ele>229.251</ele>
        <time>2021-08-19T14:24:08Z</time>
      </trkpt>
      <trkpt lat="41.735628" lon="0.873880">
        <ele>228.912</ele>
        <time>2021-08-19T14:24:10Z</time>
      </trkpt>
      <trkpt lat="41.735668" lon="0.873822">
        <ele>228.589</ele>
        <time>2021-08-19T14:24:12Z</time>
      </trkpt>
      <trkpt lat="41.735703" lon="0.873767">
        <ele>228.177</ele>
        <time>2021-08-19T14:24:14Z</time>
      </trkpt>
      <trkpt lat="41.735739" lon="0.873704">
        <ele>227.796</ele>
        <time>2021-08-19T14:24:16Z</time>
      </trkpt>
      <trkpt lat="41.735776" lon="0.873642">
        <ele>227.245</ele>
        <time>2021-08-19T14:24:18Z</time>
      </trkpt>
      <trkpt lat="41.735818" lon="0.873580">
        <ele>227.033</ele>
        <time>2021-08-19T14:24:20Z</time>
      </trkpt>
      <trkpt lat="41.735866" lon="0.873524">
        <ele>227.223</ele>
        <time>2021-08-19T14:24:22Z</time>
      </trkpt>
      <trkpt lat="41.735911" lon="0.873470">
        <ele>227.415</ele>
        <time>2021-08-19T14:24:24Z</time>
      </trkpt>
      <trkpt lat="41.735955" lon="0.873411">
        <ele>227.608</ele>
        <time>2021-08-19T14:24:26Z</time>
      </trkpt>
      <trkpt lat="41.735996" lon="0.873348">
        <ele>227.691</ele>
        <time>2021-08-19T14:24:28Z</time>
      </trkpt>
      <trkpt lat="41.736041" lon="0.873289">
        <ele>227.684</ele>
        <time>2021-08-19T14:24:30Z</time>
      </trkpt>
      <trkpt lat="41.736083" lon="0.873232">
        <ele>227.657</ele>
        <time>2021-08-19T14:24:32Z</time>
      </trkpt>
      <trkpt lat="41.736131" lon="0.873176">
        <ele>227.558</ele>
        <time>2021-08-19T14:24:34Z</time>
      </trkpt>
      <trkpt lat="41.736174" lon="0.873117">
        <ele>227.575</ele>
        <time>2021-08-19T14:24:36Z</time>
      </trkpt>
      <trkpt lat="41.736215" lon="0.873057">
        <ele>227.453</ele>
        <time>2021-08-19T14:24:38Z</time>
      </trkpt>
      <trkpt lat="41.736259" lon="0.872994">
        <ele>227.812</ele>
        <time>2021-08-19T14:24:40Z</time>
      </trkpt>
      <trkpt lat="41.736298" lon="0.872927">
        <ele>228.171</ele>
        <time>2021-08-19T14:24:42Z</time>
      </trkpt>
      <trkpt lat="41.736340" lon="0.872873">
        <ele>228.524</ele>
        <time>2021-08-19T14:24:44Z</time>
      </trkpt>
      <trkpt lat="41.736393" lon="0.872804">
        <ele>228.904</ele>
        <time>2021-08-19T14:24:46Z</time>
      </trkpt>
      <trkpt lat="41.736433" lon="0.872740">
        <ele>229.314</ele>
        <time>2021-08-19T14:24:48Z</time>
      </trkpt>
      <trkpt lat="41.736478" lon="0.872675">
        <ele>229.708</ele>
        <time>2021-08-19T14:24:50Z</time>
      </trkpt>
      <trkpt lat="41.736521" lon="0.872612">
        <ele>230.120</ele>
        <time>2021-08-19T14:24:52Z</time>
      </trkpt>
      <trkpt lat="41.736561" lon="0.872550">
        <ele>230.473</ele>
        <time>2021-08-19T14:24:54Z</time>
      </trkpt>
      <trkpt lat="41.736603" lon="0.872485">
        <ele>230.866</ele>
        <time>2021-08-19T14:24:56Z</time>
      </trkpt>
      <trkpt lat="41.736637" lon="0.872428">
        <ele>231.217</ele>
        <time>2021-08-19T14:24:58Z</time>
      </trkpt>
      <trkpt lat="41.736669" lon="0.872368">
        <ele>231.534</ele>
        <time>2021-08-19T14:25:00Z</time>
      </trkpt>
      <trkpt lat="41.736713" lon="0.872300">
        <ele>231.792</ele>
        <time>2021-08-19T14:25:02Z</time>
      </trkpt>
      <trkpt lat="41.736760" lon="0.872230">
        <ele>232.081</ele>
        <time>2021-08-19T14:25:04Z</time>
      </trkpt>
      <trkpt lat="41.736803" lon="0.872166">
        <ele>232.040</ele>
        <time>2021-08-19T14:25:06Z</time>
      </trkpt>
      <trkpt lat="41.736846" lon="0.872101">
        <ele>232.039</ele>
        <time>2021-08-19T14:25:08Z</time>
      </trkpt>
      <trkpt lat="41.736887" lon="0.872026">
        <ele>232.001</ele>
        <time>2021-08-19T14:25:10Z</time>
      </trkpt>
      <trkpt lat="41.736933" lon="0.871964">
        <ele>232.021</ele>
        <time>2021-08-19T14:25:12Z</time>
      </trkpt>
      <trkpt lat="41.736972" lon="0.871911">
        <ele>231.908</ele>
        <time>2021-08-19T14:25:14Z</time>
      </trkpt>
      <trkpt lat="41.737020" lon="0.871850">
        <ele>231.721</ele>
        <time>2021-08-19T14:25:16Z</time>
      </trkpt>
      <trkpt lat="41.737063" lon="0.871788">
        <ele>231.644</ele>
        <time>2021-08-19T14:25:18Z</time>
      </trkpt>
      <trkpt lat="41.737105" lon="0.871729">
        <ele>231.457</ele>
        <time>2021-08-19T14:25:20Z</time>
      </trkpt>
      <trkpt lat="41.737147" lon="0.871667">
        <ele>231.398</ele>
        <time>2021-08-19T14:25:22Z</time>
      </trkpt>
      <trkpt lat="41.737192" lon="0.871603">
        <ele>231.545</ele>
        <time>2021-08-19T14:25:24Z</time>
      </trkpt>
      <trkpt lat="41.737236" lon="0.871544">
        <ele>231.873</ele>
        <time>2021-08-19T14:25:26Z</time>
      </trkpt>
      <trkpt lat="41.737279" lon="0.871485">
        <ele>232.052</ele>
        <time>2021-08-19T14:25:28Z</time>
      </trkpt>
      <trkpt lat="41.737321" lon="0.871423">
        <ele>232.141</ele>
        <time>2021-08-19T14:25:30Z</time>
      </trkpt>
      <trkpt lat="41.737366" lon="0.871361">
        <ele>232.045</ele>
        <time>2021-08-19T14:25:32Z</time>
      </trkpt>
      <trkpt lat="41.737411" lon="0.871299">
        <ele>231.847</ele>
        <time>2021-08-19T14:25:34Z</time>
      </trkpt>
      <trkpt lat="41.737449" lon="0.871235">
        <ele>231.711</ele>
        <time>2021-08-19T14:25:36Z</time>
      </trkpt>
      <trkpt lat="41.737489" lon="0.871176">
        <ele>231.808</ele>
        <time>2021-08-19T14:25:38Z</time>
      </trkpt>
      <trkpt lat="41.737535" lon="0.871115">
        <ele>231.612</ele>
        <time>2021-08-19T14:25:40Z</time>
      </trkpt>
      <trkpt lat="41.737579" lon="0.871055">
        <ele>230.785</ele>
        <time>2021-08-19T14:25:42Z</time>
      </trkpt>
      <trkpt lat="41.737617" lon="0.871005">
        <ele>230.068</ele>
        <time>2021-08-19T14:25:44Z</time>
      </trkpt>
      <trkpt lat="41.737666" lon="0.870936">
        <ele>228.989</ele>
        <time>2021-08-19T14:25:46Z</time>
      </trkpt>
      <trkpt lat="41.737713" lon="0.870863">
        <ele>227.916</ele>
        <time>2021-08-19T14:25:48Z</time>
      </trkpt>
      <trkpt lat="41.737758" lon="0.870793">
        <ele>227.284</ele>
        <time>2021-08-19T14:25:50Z</time>
      </trkpt>
      <trkpt lat="41.737811" lon="0.870727">
        <ele>227.053</ele>
        <time>2021-08-19T14:25:52Z</time>
      </trkpt>
      <trkpt lat="41.737855" lon="0.870670">
        <ele>226.812</ele>
        <time>2021-08-19T14:25:54Z</time>
      </trkpt>
      <trkpt lat="41.737888" lon="0.870608">
        <ele>226.748</ele>
        <time>2021-08-19T14:25:56Z</time>
      </trkpt>
      <trkpt lat="41.737927" lon="0.870539">
        <ele>226.561</ele>
        <time>2021-08-19T14:25:58Z</time>
      </trkpt>
      <trkpt lat="41.737957" lon="0.870471">
        <ele>226.717</ele>
        <time>2021-08-19T14:26:00Z</time>
      </trkpt>
      <trkpt lat="41.737985" lon="0.870404">
        <ele>226.808</ele>
        <time>2021-08-19T14:26:02Z</time>
      </trkpt>
      <trkpt lat="41.738025" lon="0.870332">
        <ele>226.952</ele>
        <time>2021-08-19T14:26:04Z</time>
      </trkpt>
      <trkpt lat="41.738061" lon="0.870252">
        <ele>227.125</ele>
        <time>2021-08-19T14:26:06Z</time>
      </trkpt>
      <trkpt lat="41.738098" lon="0.870176">
        <ele>227.478</ele>
        <time>2021-08-19T14:26:08Z</time>
      </trkpt>
      <trkpt lat="41.738132" lon="0.870091">
        <ele>227.749</ele>
        <time>2021-08-19T14:26:10Z</time>
      </trkpt>
      <trkpt lat="41.738166" lon="0.870007">
        <ele>228.056</ele>
        <time>2021-08-19T14:26:12Z</time>
      </trkpt>
      <trkpt lat="41.738188" lon="0.869951">
        <ele>228.024</ele>
        <time>2021-08-19T14:26:14Z</time>
      </trkpt>
      <trkpt lat="41.738225" lon="0.869874">
        <ele>228.043</ele>
        <time>2021-08-19T14:26:16Z</time>
      </trkpt>
      <trkpt lat="41.738262" lon="0.869793">
        <ele>228.052</ele>
        <time>2021-08-19T14:26:18Z</time>
      </trkpt>
      <trkpt lat="41.738301" lon="0.869721">
        <ele>228.024</ele>
        <time>2021-08-19T14:26:20Z</time>
      </trkpt>
      <trkpt lat="41.738349" lon="0.869649">
        <ele>228.304</ele>
        <time>2021-08-19T14:26:22Z</time>
      </trkpt>
      <trkpt lat="41.738399" lon="0.869580">
        <ele>228.614</ele>
        <time>2021-08-19T14:26:24Z</time>
      </trkpt>
      <trkpt lat="41.738454" lon="0.869515">
        <ele>228.908</ele>
        <time>2021-08-19T14:26:26Z</time>
      </trkpt>
      <trkpt lat="41.738510" lon="0.869449">
        <ele>229.050</ele>
        <time>2021-08-19T14:26:28Z</time>
      </trkpt>
      <trkpt lat="41.738566" lon="0.869391">
        <ele>229.083</ele>
        <time>2021-08-19T14:26:30Z</time>
      </trkpt>
      <trkpt lat="41.738617" lon="0.869336">
        <ele>229.076</ele>
        <time>2021-08-19T14:26:32Z</time>
      </trkpt>
      <trkpt lat="41.738672" lon="0.869284">
        <ele>228.857</ele>
        <time>2021-08-19T14:26:34Z</time>
      </trkpt>
      <trkpt lat="41.738731" lon="0.869233">
        <ele>228.844</ele>
        <time>2021-08-19T14:26:36Z</time>
      </trkpt>
      <trkpt lat="41.738791" lon="0.869179">
        <ele>228.912</ele>
        <time>2021-08-19T14:26:38Z</time>
      </trkpt>
      <trkpt lat="41.738849" lon="0.869127">
        <ele>229.151</ele>
        <time>2021-08-19T14:26:40Z</time>
      </trkpt>
      <trkpt lat="41.738906" lon="0.869073">
        <ele>229.330</ele>
        <time>2021-08-19T14:26:42Z</time>
      </trkpt>
      <trkpt lat="41.738967" lon="0.869019">
        <ele>229.222</ele>
        <time>2021-08-19T14:26:44Z</time>
      </trkpt>
      <trkpt lat="41.739006" lon="0.868987">
        <ele>229.262</ele>
        <time>2021-08-19T14:26:45Z</time>
      </trkpt>
      <trkpt lat="41.739068" lon="0.868928">
        <ele>229.208</ele>
        <time>2021-08-19T14:26:47Z</time>
      </trkpt>
      <trkpt lat="41.739126" lon="0.868866">
        <ele>229.208</ele>
        <time>2021-08-19T14:26:49Z</time>
      </trkpt>
      <trkpt lat="41.739180" lon="0.868798">
        <ele>229.210</ele>
        <time>2021-08-19T14:26:51Z</time>
      </trkpt>
      <trkpt lat="41.739245" lon="0.868752">
        <ele>228.913</ele>
        <time>2021-08-19T14:26:53Z</time>
      </trkpt>
      <trkpt lat="41.739300" lon="0.868692">
        <ele>228.596</ele>
        <time>2021-08-19T14:26:55Z</time>
      </trkpt>
      <trkpt lat="41.739359" lon="0.868632">
        <ele>228.097</ele>
        <time>2021-08-19T14:26:57Z</time>
      </trkpt>
      <trkpt lat="41.739417" lon="0.868581">
        <ele>227.314</ele>
        <time>2021-08-19T14:26:59Z</time>
      </trkpt>
      <trkpt lat="41.739472" lon="0.868525">
        <ele>226.812</ele>
        <time>2021-08-19T14:27:01Z</time>
      </trkpt>
      <trkpt lat="41.739526" lon="0.868468">
        <ele>226.611</ele>
        <time>2021-08-19T14:27:03Z</time>
      </trkpt>
      <trkpt lat="41.739586" lon="0.868415">
        <ele>226.330</ele>
        <time>2021-08-19T14:27:05Z</time>
      </trkpt>
      <trkpt lat="41.739644" lon="0.868358">
        <ele>226.211</ele>
        <time>2021-08-19T14:27:07Z</time>
      </trkpt>
      <trkpt lat="41.739703" lon="0.868303">
        <ele>226.321</ele>
        <time>2021-08-19T14:27:09Z</time>
      </trkpt>
      <trkpt lat="41.739759" lon="0.868250">
        <ele>226.703</ele>
        <time>2021-08-19T14:27:11Z</time>
      </trkpt>
      <trkpt lat="41.739810" lon="0.868202">
        <ele>227.308</ele>
        <time>2021-08-19T14:27:13Z</time>
      </trkpt>
      <trkpt lat="41.739849" lon="0.868167">
        <ele>227.769</ele>
        <time>2021-08-19T14:27:14Z</time>
      </trkpt>
      <trkpt lat="41.739898" lon="0.868116">
        <ele>228.282</ele>
        <time>2021-08-19T14:27:16Z</time>
      </trkpt>
      <trkpt lat="41.739955" lon="0.868056">
        <ele>228.885</ele>
        <time>2021-08-19T14:27:18Z</time>
      </trkpt>
      <trkpt lat="41.740013" lon="0.867995">
        <ele>229.386</ele>
        <time>2021-08-19T14:27:20Z</time>
      </trkpt>
      <trkpt lat="41.740074" lon="0.867939">
        <ele>229.783</ele>
        <time>2021-08-19T14:27:22Z</time>
      </trkpt>
      <trkpt lat="41.740132" lon="0.867885">
        <ele>230.191</ele>
        <time>2021-08-19T14:27:24Z</time>
      </trkpt>
      <trkpt lat="41.740186" lon="0.867843">
        <ele>230.440</ele>
        <time>2021-08-19T14:27:26Z</time>
      </trkpt>
      <trkpt lat="41.740236" lon="0.867786">
        <ele>230.859</ele>
        <time>2021-08-19T14:27:28Z</time>
      </trkpt>
      <trkpt lat="41.740289" lon="0.867729">
        <ele>231.082</ele>
        <time>2021-08-19T14:27:30Z</time>
      </trkpt>
      <trkpt lat="41.740347" lon="0.867684">
        <ele>230.843</ele>
        <time>2021-08-19T14:27:32Z</time>
      </trkpt>
      <trkpt lat="41.740397" lon="0.867639">
        <ele>230.617</ele>
        <time>2021-08-19T14:27:34Z</time>
      </trkpt>
      <trkpt lat="41.740450" lon="0.867600">
        <ele>230.408</ele>
        <time>2021-08-19T14:27:36Z</time>
      </trkpt>
      <trkpt lat="41.740497" lon="0.867549">
        <ele>230.276</ele>
        <time>2021-08-19T14:27:38Z</time>
      </trkpt>
      <trkpt lat="41.740550" lon="0.867498">
        <ele>230.049</ele>
        <time>2021-08-19T14:27:40Z</time>
      </trkpt>
      <trkpt lat="41.740600" lon="0.867442">
        <ele>229.832</ele>
        <time>2021-08-19T14:27:42Z</time>
      </trkpt>
      <trkpt lat="41.740650" lon="0.867398">
        <ele>229.573</ele>
        <time>2021-08-19T14:27:44Z</time>
      </trkpt>
      <trkpt lat="41.740712" lon="0.867336">
        <ele>229.180</ele>
        <time>2021-08-19T14:27:46Z</time>
      </trkpt>
      <trkpt lat="41.740763" lon="0.867279">
        <ele>228.778</ele>
        <time>2021-08-19T14:27:48Z</time>
      </trkpt>
      <trkpt lat="41.740818" lon="0.867222">
        <ele>228.177</ele>
        <time>2021-08-19T14:27:50Z</time>
      </trkpt>
      <trkpt lat="41.740868" lon="0.867155">
        <ele>228.116</ele>
        <time>2021-08-19T14:27:52Z</time>
      </trkpt>
      <trkpt lat="41.740920" lon="0.867092">
        <ele>228.396</ele>
        <time>2021-08-19T14:27:54Z</time>
      </trkpt>
      <trkpt lat="41.740970" lon="0.867027">
        <ele>228.531</ele>
        <time>2021-08-19T14:27:56Z</time>
      </trkpt>
      <trkpt lat="41.741018" lon="0.866963">
        <ele>228.724</ele>
        <time>2021-08-19T14:27:58Z</time>
      </trkpt>
      <trkpt lat="41.741063" lon="0.866898">
        <ele>228.708</ele>
        <time>2021-08-19T14:28:00Z</time>
      </trkpt>
      <trkpt lat="41.741118" lon="0.866831">
        <ele>228.747</ele>
        <time>2021-08-19T14:28:02Z</time>
      </trkpt>
      <trkpt lat="41.741167" lon="0.866761">
        <ele>228.970</ele>
        <time>2021-08-19T14:28:04Z</time>
      </trkpt>
      <trkpt lat="41.741218" lon="0.866708">
        <ele>229.243</ele>
        <time>2021-08-19T14:28:06Z</time>
      </trkpt>
      <trkpt lat="41.741291" lon="0.866620">
        <ele>230.124</ele>
        <time>2021-08-19T14:28:09Z</time>
      </trkpt>
      <trkpt lat="41.741347" lon="0.866547">
        <ele>231.021</ele>
        <time>2021-08-19T14:28:11Z</time>
      </trkpt>
      <trkpt lat="41.741398" lon="0.866483">
        <ele>231.739</ele>
        <time>2021-08-19T14:28:13Z</time>
      </trkpt>
      <trkpt lat="41.741437" lon="0.866441">
        <ele>232.098</ele>
        <time>2021-08-19T14:28:14Z</time>
      </trkpt>
      <trkpt lat="41.741479" lon="0.866394">
        <ele>232.397</ele>
        <time>2021-08-19T14:28:15Z</time>
      </trkpt>
      <trkpt lat="41.741545" lon="0.866314">
        <ele>232.435</ele>
        <time>2021-08-19T14:28:17Z</time>
      </trkpt>
      <trkpt lat="41.741617" lon="0.866248">
        <ele>232.486</ele>
        <time>2021-08-19T14:28:19Z</time>
      </trkpt>
      <trkpt lat="41.741689" lon="0.866171">
        <ele>232.114</ele>
        <time>2021-08-19T14:28:21Z</time>
      </trkpt>
      <trkpt lat="41.741761" lon="0.866099">
        <ele>231.608</ele>
        <time>2021-08-19T14:28:23Z</time>
      </trkpt>
      <trkpt lat="41.741831" lon="0.866020">
        <ele>230.991</ele>
        <time>2021-08-19T14:28:25Z</time>
      </trkpt>
      <trkpt lat="41.741899" lon="0.865941">
        <ele>230.514</ele>
        <time>2021-08-19T14:28:27Z</time>
      </trkpt>
      <trkpt lat="41.741957" lon="0.865867">
        <ele>230.117</ele>
        <time>2021-08-19T14:28:29Z</time>
      </trkpt>
      <trkpt lat="41.742018" lon="0.865801">
        <ele>230.038</ele>
        <time>2021-08-19T14:28:31Z</time>
      </trkpt>
      <trkpt lat="41.742082" lon="0.865744">
        <ele>230.045</ele>
        <time>2021-08-19T14:28:33Z</time>
      </trkpt>
      <trkpt lat="41.742146" lon="0.865674">
        <ele>230.033</ele>
        <time>2021-08-19T14:28:35Z</time>
      </trkpt>
      <trkpt lat="41.742198" lon="0.865602">
        <ele>230.042</ele>
        <time>2021-08-19T14:28:37Z</time>
      </trkpt>
      <trkpt lat="41.742242" lon="0.865521">
        <ele>230.091</ele>
        <time>2021-08-19T14:28:39Z</time>
      </trkpt>
      <trkpt lat="41.742285" lon="0.865443">
        <ele>230.036</ele>
        <time>2021-08-19T14:28:41Z</time>
      </trkpt>
      <trkpt lat="41.742318" lon="0.865368">
        <ele>230.017</ele>
        <time>2021-08-19T14:28:43Z</time>
      </trkpt>
      <trkpt lat="41.742352" lon="0.865286">
        <ele>230.018</ele>
        <time>2021-08-19T14:28:45Z</time>
      </trkpt>
      <trkpt lat="41.742392" lon="0.865202">
        <ele>229.908</ele>
        <time>2021-08-19T14:28:47Z</time>
      </trkpt>
      <trkpt lat="41.742426" lon="0.865119">
        <ele>229.891</ele>
        <time>2021-08-19T14:28:49Z</time>
      </trkpt>
      <trkpt lat="41.742460" lon="0.865037">
        <ele>229.974</ele>
        <time>2021-08-19T14:28:51Z</time>
      </trkpt>
      <trkpt lat="41.742494" lon="0.864960">
        <ele>230.077</ele>
        <time>2021-08-19T14:28:53Z</time>
      </trkpt>
      <trkpt lat="41.742533" lon="0.864884">
        <ele>230.068</ele>
        <time>2021-08-19T14:28:55Z</time>
      </trkpt>
      <trkpt lat="41.742566" lon="0.864805">
        <ele>230.085</ele>
        <time>2021-08-19T14:28:57Z</time>
      </trkpt>
      <trkpt lat="41.742601" lon="0.864739">
        <ele>230.093</ele>
        <time>2021-08-19T14:28:59Z</time>
      </trkpt>
      <trkpt lat="41.742621" lon="0.864672">
        <ele>230.082</ele>
        <time>2021-08-19T14:29:01Z</time>
      </trkpt>
      <trkpt lat="41.742658" lon="0.864601">
        <ele>230.071</ele>
        <time>2021-08-19T14:29:04Z</time>
      </trkpt>
      <trkpt lat="41.742688" lon="0.864518">
        <ele>230.092</ele>
        <time>2021-08-19T14:29:07Z</time>
      </trkpt>
      <trkpt lat="41.742712" lon="0.864460">
        <ele>230.073</ele>
        <time>2021-08-19T14:29:09Z</time>
      </trkpt>
      <trkpt lat="41.742734" lon="0.864398">
        <ele>230.020</ele>
        <time>2021-08-19T14:29:11Z</time>
      </trkpt>
      <trkpt lat="41.742751" lon="0.864338">
        <ele>230.008</ele>
        <time>2021-08-19T14:29:13Z</time>
      </trkpt>
      <trkpt lat="41.742805" lon="0.864297">
        <ele>229.977</ele>
        <time>2021-08-19T14:29:16Z</time>
      </trkpt>
      <trkpt lat="41.742854" lon="0.864264">
        <ele>229.760</ele>
        <time>2021-08-19T14:29:19Z</time>
      </trkpt>
      <trkpt lat="41.742893" lon="0.864323">
        <ele>229.653</ele>
        <time>2021-08-19T14:29:23Z</time>
      </trkpt>
      <trkpt lat="41.742924" lon="0.864370">
        <ele>229.524</ele>
        <time>2021-08-19T14:29:27Z</time>
      </trkpt>
      <trkpt lat="41.742970" lon="0.864382">
        <ele>229.381</ele>
        <time>2021-08-19T14:29:30Z</time>
      </trkpt>
      <trkpt lat="41.743024" lon="0.864389">
        <ele>229.169</ele>
        <time>2021-08-19T14:29:32Z</time>
      </trkpt>
      <trkpt lat="41.743094" lon="0.864400">
        <ele>228.778</ele>
        <time>2021-08-19T14:29:34Z</time>
      </trkpt>
      <trkpt lat="41.743157" lon="0.864403">
        <ele>228.397</ele>
        <time>2021-08-19T14:29:36Z</time>
      </trkpt>
      <trkpt lat="41.743211" lon="0.864376">
        <ele>228.099</ele>
        <time>2021-08-19T14:29:38Z</time>
      </trkpt>
      <trkpt lat="41.743271" lon="0.864342">
        <ele>227.707</ele>
        <time>2021-08-19T14:29:40Z</time>
      </trkpt>
      <trkpt lat="41.743331" lon="0.864316">
        <ele>227.527</ele>
        <time>2021-08-19T14:29:42Z</time>
      </trkpt>
      <trkpt lat="41.743385" lon="0.864289">
        <ele>227.608</ele>
        <time>2021-08-19T14:29:44Z</time>
      </trkpt>
      <trkpt lat="41.743433" lon="0.864252">
        <ele>227.797</ele>
        <time>2021-08-19T14:29:46Z</time>
      </trkpt>
      <trkpt lat="41.743485" lon="0.864206">
        <ele>227.920</ele>
        <time>2021-08-19T14:29:48Z</time>
      </trkpt>
      <trkpt lat="41.743535" lon="0.864166">
        <ele>228.063</ele>
        <time>2021-08-19T14:29:50Z</time>
      </trkpt>
      <trkpt lat="41.743589" lon="0.864130">
        <ele>228.134</ele>
        <time>2021-08-19T14:29:52Z</time>
      </trkpt>
      <trkpt lat="41.743640" lon="0.864096">
        <ele>228.251</ele>
        <time>2021-08-19T14:29:54Z</time>
      </trkpt>
      <trkpt lat="41.743686" lon="0.864056">
        <ele>228.339</ele>
        <time>2021-08-19T14:29:56Z</time>
      </trkpt>
      <trkpt lat="41.743738" lon="0.864022">
        <ele>228.368</ele>
        <time>2021-08-19T14:29:58Z</time>
      </trkpt>
      <trkpt lat="41.743787" lon="0.863989">
        <ele>228.297</ele>
        <time>2021-08-19T14:30:00Z</time>
      </trkpt>
      <trkpt lat="41.743836" lon="0.863946">
        <ele>228.222</ele>
        <time>2021-08-19T14:30:02Z</time>
      </trkpt>
      <trkpt lat="41.743884" lon="0.863902">
        <ele>228.062</ele>
        <time>2021-08-19T14:30:04Z</time>
      </trkpt>
      <trkpt lat="41.743934" lon="0.863861">
        <ele>227.908</ele>
        <time>2021-08-19T14:30:06Z</time>
      </trkpt>
      <trkpt lat="41.743986" lon="0.863813">
        <ele>227.708</ele>
        <time>2021-08-19T14:30:08Z</time>
      </trkpt>
      <trkpt lat="41.744044" lon="0.863767">
        <ele>227.690</ele>
        <time>2021-08-19T14:30:10Z</time>
      </trkpt>
      <trkpt lat="41.744102" lon="0.863723">
        <ele>227.463</ele>
        <time>2021-08-19T14:30:12Z</time>
      </trkpt>
      <trkpt lat="41.744143" lon="0.863683">
        <ele>227.396</ele>
        <time>2021-08-19T14:30:14Z</time>
      </trkpt>
      <trkpt lat="41.744209" lon="0.863624">
        <ele>227.247</ele>
        <time>2021-08-19T14:30:16Z</time>
      </trkpt>
      <trkpt lat="41.744268" lon="0.863585">
        <ele>227.484</ele>
        <time>2021-08-19T14:30:18Z</time>
      </trkpt>
      <trkpt lat="41.744314" lon="0.863532">
        <ele>227.712</ele>
        <time>2021-08-19T14:30:20Z</time>
      </trkpt>
      <trkpt lat="41.744366" lon="0.863481">
        <ele>227.871</ele>
        <time>2021-08-19T14:30:22Z</time>
      </trkpt>
      <trkpt lat="41.744416" lon="0.863432">
        <ele>228.040</ele>
        <time>2021-08-19T14:30:24Z</time>
      </trkpt>
      <trkpt lat="41.744466" lon="0.863378">
        <ele>228.112</ele>
        <time>2021-08-19T14:30:26Z</time>
      </trkpt>
      <trkpt lat="41.744509" lon="0.863321">
        <ele>228.532</ele>
        <time>2021-08-19T14:30:28Z</time>
      </trkpt>
      <trkpt lat="41.744559" lon="0.863278">
        <ele>229.005</ele>
        <time>2021-08-19T14:30:30Z</time>
      </trkpt>
      <trkpt lat="41.744599" lon="0.863220">
        <ele>229.508</ele>
        <time>2021-08-19T14:30:32Z</time>
      </trkpt>
      <trkpt lat="41.744648" lon="0.863166">
        <ele>230.139</ele>
        <time>2021-08-19T14:30:34Z</time>
      </trkpt>
      <trkpt lat="41.744694" lon="0.863103">
        <ele>230.692</ele>
        <time>2021-08-19T14:30:36Z</time>
      </trkpt>
      <trkpt lat="41.744743" lon="0.863045">
        <ele>231.195</ele>
        <time>2021-08-19T14:30:38Z</time>
      </trkpt>
      <trkpt lat="41.744788" lon="0.862983">
        <ele>231.276</ele>
        <time>2021-08-19T14:30:40Z</time>
      </trkpt>
      <trkpt lat="41.744832" lon="0.862921">
        <ele>231.493</ele>
        <time>2021-08-19T14:30:42Z</time>
      </trkpt>
      <trkpt lat="41.744871" lon="0.862866">
        <ele>231.591</ele>
        <time>2021-08-19T14:30:44Z</time>
      </trkpt>
      <trkpt lat="41.744917" lon="0.862803">
        <ele>231.730</ele>
        <time>2021-08-19T14:30:46Z</time>
      </trkpt>
      <trkpt lat="41.744963" lon="0.862746">
        <ele>231.879</ele>
        <time>2021-08-19T14:30:48Z</time>
      </trkpt>
      <trkpt lat="41.744998" lon="0.862698">
        <ele>231.786</ele>
        <time>2021-08-19T14:30:50Z</time>
      </trkpt>
      <trkpt lat="41.745034" lon="0.862655">
        <ele>231.460</ele>
        <time>2021-08-19T14:30:52Z</time>
      </trkpt>
      <trkpt lat="41.745070" lon="0.862611">
        <ele>231.126</ele>
        <time>2021-08-19T14:30:54Z</time>
      </trkpt>
      <trkpt lat="41.745108" lon="0.862563">
        <ele>230.808</ele>
        <time>2021-08-19T14:30:56Z</time>
      </trkpt>
      <trkpt lat="41.745139" lon="0.862513">
        <ele>230.546</ele>
        <time>2021-08-19T14:30:57Z</time>
      </trkpt>
      <trkpt lat="41.745199" lon="0.862442">
        <ele>230.189</ele>
        <time>2021-08-19T14:30:59Z</time>
      </trkpt>
      <trkpt lat="41.745243" lon="0.862404">
        <ele>229.852</ele>
        <time>2021-08-19T14:31:00Z</time>
      </trkpt>
      <trkpt lat="41.745281" lon="0.862368">
        <ele>229.543</ele>
        <time>2021-08-19T14:31:01Z</time>
      </trkpt>
      <trkpt lat="41.745336" lon="0.862306">
        <ele>228.660</ele>
        <time>2021-08-19T14:31:03Z</time>
      </trkpt>
      <trkpt lat="41.745404" lon="0.862208">
        <ele>227.668</ele>
        <time>2021-08-19T14:31:06Z</time>
      </trkpt>
      <trkpt lat="41.745447" lon="0.862161">
        <ele>227.247</ele>
        <time>2021-08-19T14:31:07Z</time>
      </trkpt>
      <trkpt lat="41.745518" lon="0.862066">
        <ele>226.876</ele>
        <time>2021-08-19T14:31:09Z</time>
      </trkpt>
      <trkpt lat="41.745556" lon="0.862022">
        <ele>226.752</ele>
        <time>2021-08-19T14:31:10Z</time>
      </trkpt>
      <trkpt lat="41.745627" lon="0.861950">
        <ele>226.753</ele>
        <time>2021-08-19T14:31:12Z</time>
      </trkpt>
      <trkpt lat="41.745673" lon="0.861898">
        <ele>226.708</ele>
        <time>2021-08-19T14:31:14Z</time>
      </trkpt>
      <trkpt lat="41.745733" lon="0.861831">
        <ele>226.808</ele>
        <time>2021-08-19T14:31:16Z</time>
      </trkpt>
      <trkpt lat="41.745787" lon="0.861769">
        <ele>226.843</ele>
        <time>2021-08-19T14:31:18Z</time>
      </trkpt>
      <trkpt lat="41.745839" lon="0.861702">
        <ele>226.996</ele>
        <time>2021-08-19T14:31:20Z</time>
      </trkpt>
      <trkpt lat="41.745888" lon="0.861630">
        <ele>227.599</ele>
        <time>2021-08-19T14:31:22Z</time>
      </trkpt>
      <trkpt lat="41.745943" lon="0.861571">
        <ele>228.180</ele>
        <time>2021-08-19T14:31:24Z</time>
      </trkpt>
      <trkpt lat="41.745994" lon="0.861509">
        <ele>228.767</ele>
        <time>2021-08-19T14:31:26Z</time>
      </trkpt>
      <trkpt lat="41.746050" lon="0.861451">
        <ele>229.345</ele>
        <time>2021-08-19T14:31:28Z</time>
      </trkpt>
      <trkpt lat="41.746099" lon="0.861387">
        <ele>230.074</ele>
        <time>2021-08-19T14:31:30Z</time>
      </trkpt>
      <trkpt lat="41.746151" lon="0.861319">
        <ele>230.083</ele>
        <time>2021-08-19T14:31:32Z</time>
      </trkpt>
      <trkpt lat="41.746205" lon="0.861259">
        <ele>230.297</ele>
        <time>2021-08-19T14:31:34Z</time>
      </trkpt>
      <trkpt lat="41.746253" lon="0.861192">
        <ele>230.423</ele>
        <time>2021-08-19T14:31:36Z</time>
      </trkpt>
      <trkpt lat="41.746305" lon="0.861130">
        <ele>230.725</ele>
        <time>2021-08-19T14:31:38Z</time>
      </trkpt>
      <trkpt lat="41.746353" lon="0.861066">
        <ele>230.708</ele>
        <time>2021-08-19T14:31:40Z</time>
      </trkpt>
      <trkpt lat="41.746404" lon="0.861001">
        <ele>230.677</ele>
        <time>2021-08-19T14:31:42Z</time>
      </trkpt>
      <trkpt lat="41.746444" lon="0.860951">
        <ele>230.470</ele>
        <time>2021-08-19T14:31:44Z</time>
      </trkpt>
      <trkpt lat="41.746504" lon="0.860877">
        <ele>230.273</ele>
        <time>2021-08-19T14:31:46Z</time>
      </trkpt>
      <trkpt lat="41.746555" lon="0.860813">
        <ele>229.914</ele>
        <time>2021-08-19T14:31:48Z</time>
      </trkpt>
      <trkpt lat="41.746606" lon="0.860752">
        <ele>229.791</ele>
        <time>2021-08-19T14:31:50Z</time>
      </trkpt>
      <trkpt lat="41.746658" lon="0.860690">
        <ele>229.549</ele>
        <time>2021-08-19T14:31:52Z</time>
      </trkpt>
      <trkpt lat="41.746706" lon="0.860620">
        <ele>229.298</ele>
        <time>2021-08-19T14:31:54Z</time>
      </trkpt>
      <trkpt lat="41.746760" lon="0.860555">
        <ele>229.087</ele>
        <time>2021-08-19T14:31:56Z</time>
      </trkpt>
      <trkpt lat="41.746810" lon="0.860491">
        <ele>228.951</ele>
        <time>2021-08-19T14:31:58Z</time>
      </trkpt>
      <trkpt lat="41.746853" lon="0.860433">
        <ele>228.901</ele>
        <time>2021-08-19T14:32:00Z</time>
      </trkpt>
      <trkpt lat="41.746899" lon="0.860368">
        <ele>228.911</ele>
        <time>2021-08-19T14:32:02Z</time>
      </trkpt>
      <trkpt lat="41.746943" lon="0.860299">
        <ele>229.008</ele>
        <time>2021-08-19T14:32:04Z</time>
      </trkpt>
      <trkpt lat="41.746986" lon="0.860236">
        <ele>228.843</ele>
        <time>2021-08-19T14:32:06Z</time>
      </trkpt>
      <trkpt lat="41.747031" lon="0.860170">
        <ele>228.646</ele>
        <time>2021-08-19T14:32:08Z</time>
      </trkpt>
      <trkpt lat="41.747076" lon="0.860103">
        <ele>228.479</ele>
        <time>2021-08-19T14:32:10Z</time>
      </trkpt>
      <trkpt lat="41.747123" lon="0.860042">
        <ele>228.270</ele>
        <time>2021-08-19T14:32:12Z</time>
      </trkpt>
      <trkpt lat="41.747164" lon="0.859980">
        <ele>228.157</ele>
        <time>2021-08-19T14:32:14Z</time>
      </trkpt>
      <trkpt lat="41.747197" lon="0.859931">
        <ele>228.225</ele>
        <time>2021-08-19T14:32:16Z</time>
      </trkpt>
      <trkpt lat="41.747238" lon="0.859867">
        <ele>228.554</ele>
        <time>2021-08-19T14:32:18Z</time>
      </trkpt>
      <trkpt lat="41.747284" lon="0.859805">
        <ele>228.793</ele>
        <time>2021-08-19T14:32:20Z</time>
      </trkpt>
      <trkpt lat="41.747328" lon="0.859739">
        <ele>228.929</ele>
        <time>2021-08-19T14:32:22Z</time>
      </trkpt>
      <trkpt lat="41.747371" lon="0.859673">
        <ele>229.200</ele>
        <time>2021-08-19T14:32:24Z</time>
      </trkpt>
      <trkpt lat="41.747417" lon="0.859610">
        <ele>229.420</ele>
        <time>2021-08-19T14:32:26Z</time>
      </trkpt>
      <trkpt lat="41.747466" lon="0.859546">
        <ele>229.608</ele>
        <time>2021-08-19T14:32:28Z</time>
      </trkpt>
      <trkpt lat="41.747514" lon="0.859483">
        <ele>229.940</ele>
        <time>2021-08-19T14:32:30Z</time>
      </trkpt>
      <trkpt lat="41.747561" lon="0.859413">
        <ele>230.043</ele>
        <time>2021-08-19T14:32:32Z</time>
      </trkpt>
      <trkpt lat="41.747608" lon="0.859342">
        <ele>230.116</ele>
        <time>2021-08-19T14:32:34Z</time>
      </trkpt>
      <trkpt lat="41.747654" lon="0.859276">
        <ele>230.347</ele>
        <time>2021-08-19T14:32:36Z</time>
      </trkpt>
      <trkpt lat="41.747700" lon="0.859212">
        <ele>230.654</ele>
        <time>2021-08-19T14:32:38Z</time>
      </trkpt>
      <trkpt lat="41.747745" lon="0.859150">
        <ele>230.932</ele>
        <time>2021-08-19T14:32:40Z</time>
      </trkpt>
      <trkpt lat="41.747789" lon="0.859088">
        <ele>231.051</ele>
        <time>2021-08-19T14:32:42Z</time>
      </trkpt>
      <trkpt lat="41.747832" lon="0.859029">
        <ele>230.930</ele>
        <time>2021-08-19T14:32:44Z</time>
      </trkpt>
      <trkpt lat="41.747880" lon="0.858963">
        <ele>230.975</ele>
        <time>2021-08-19T14:32:46Z</time>
      </trkpt>
      <trkpt lat="41.747920" lon="0.858907">
        <ele>231.028</ele>
        <time>2021-08-19T14:32:48Z</time>
      </trkpt>
      <trkpt lat="41.747961" lon="0.858844">
        <ele>230.820</ele>
        <time>2021-08-19T14:32:50Z</time>
      </trkpt>
      <trkpt lat="41.748002" lon="0.858776">
        <ele>230.608</ele>
        <time>2021-08-19T14:32:52Z</time>
      </trkpt>
      <trkpt lat="41.748043" lon="0.858710">
        <ele>230.485</ele>
        <time>2021-08-19T14:32:54Z</time>
      </trkpt>
      <trkpt lat="41.748084" lon="0.858648">
        <ele>229.948</ele>
        <time>2021-08-19T14:32:56Z</time>
      </trkpt>
      <trkpt lat="41.748123" lon="0.858586">
        <ele>229.341</ele>
        <time>2021-08-19T14:32:58Z</time>
      </trkpt>
      <trkpt lat="41.748165" lon="0.858526">
        <ele>228.572</ele>
        <time>2021-08-19T14:33:00Z</time>
      </trkpt>
      <trkpt lat="41.748206" lon="0.858466">
        <ele>227.969</ele>
        <time>2021-08-19T14:33:02Z</time>
      </trkpt>
      <trkpt lat="41.748245" lon="0.858402">
        <ele>227.477</ele>
        <time>2021-08-19T14:33:04Z</time>
      </trkpt>
      <trkpt lat="41.748284" lon="0.858343">
        <ele>227.026</ele>
        <time>2021-08-19T14:33:06Z</time>
      </trkpt>
      <trkpt lat="41.748324" lon="0.858286">
        <ele>227.085</ele>
        <time>2021-08-19T14:33:08Z</time>
      </trkpt>
      <trkpt lat="41.748367" lon="0.858232">
        <ele>227.083</ele>
        <time>2021-08-19T14:33:10Z</time>
      </trkpt>
      <trkpt lat="41.748408" lon="0.858178">
        <ele>227.225</ele>
        <time>2021-08-19T14:33:12Z</time>
      </trkpt>
      <trkpt lat="41.748456" lon="0.858122">
        <ele>227.317</ele>
        <time>2021-08-19T14:33:14Z</time>
      </trkpt>
      <trkpt lat="41.748505" lon="0.858068">
        <ele>227.608</ele>
        <time>2021-08-19T14:33:16Z</time>
      </trkpt>
      <trkpt lat="41.748556" lon="0.858009">
        <ele>227.816</ele>
        <time>2021-08-19T14:33:18Z</time>
      </trkpt>
      <trkpt lat="41.748606" lon="0.857964">
        <ele>228.049</ele>
        <time>2021-08-19T14:33:20Z</time>
      </trkpt>
      <trkpt lat="41.748649" lon="0.857914">
        <ele>227.922</ele>
        <time>2021-08-19T14:33:22Z</time>
      </trkpt>
      <trkpt lat="41.748703" lon="0.857875">
        <ele>227.953</ele>
        <time>2021-08-19T14:33:24Z</time>
      </trkpt>
      <trkpt lat="41.748761" lon="0.857837">
        <ele>227.940</ele>
        <time>2021-08-19T14:33:26Z</time>
      </trkpt>
      <trkpt lat="41.748812" lon="0.857790">
        <ele>228.068</ele>
        <time>2021-08-19T14:33:28Z</time>
      </trkpt>
      <trkpt lat="41.748860" lon="0.857741">
        <ele>228.047</ele>
        <time>2021-08-19T14:33:30Z</time>
      </trkpt>
      <trkpt lat="41.748908" lon="0.857690">
        <ele>227.946</ele>
        <time>2021-08-19T14:33:32Z</time>
      </trkpt>
      <trkpt lat="41.748961" lon="0.857643">
        <ele>227.771</ele>
        <time>2021-08-19T14:33:34Z</time>
      </trkpt>
      <trkpt lat="41.749008" lon="0.857595">
        <ele>227.641</ele>
        <time>2021-08-19T14:33:36Z</time>
      </trkpt>
      <trkpt lat="41.749061" lon="0.857555">
        <ele>227.415</ele>
        <time>2021-08-19T14:33:38Z</time>
      </trkpt>
      <trkpt lat="41.749109" lon="0.857508">
        <ele>227.208</ele>
        <time>2021-08-19T14:33:40Z</time>
      </trkpt>
      <trkpt lat="41.749159" lon="0.857460">
        <ele>226.945</ele>
        <time>2021-08-19T14:33:42Z</time>
      </trkpt>
      <trkpt lat="41.749204" lon="0.857406">
        <ele>226.498</ele>
        <time>2021-08-19T14:33:44Z</time>
      </trkpt>
      <trkpt lat="41.749250" lon="0.857365">
        <ele>226.181</ele>
        <time>2021-08-19T14:33:46Z</time>
      </trkpt>
      <trkpt lat="41.749310" lon="0.857310">
        <ele>225.642</ele>
        <time>2021-08-19T14:33:48Z</time>
      </trkpt>
      <trkpt lat="41.749363" lon="0.857261">
        <ele>225.379</ele>
        <time>2021-08-19T14:33:50Z</time>
      </trkpt>
      <trkpt lat="41.749420" lon="0.857214">
        <ele>225.127</ele>
        <time>2021-08-19T14:33:52Z</time>
      </trkpt>
      <trkpt lat="41.749469" lon="0.857159">
        <ele>225.296</ele>
        <time>2021-08-19T14:33:54Z</time>
      </trkpt>
      <trkpt lat="41.749515" lon="0.857115">
        <ele>225.485</ele>
        <time>2021-08-19T14:33:56Z</time>
      </trkpt>
      <trkpt lat="41.749573" lon="0.857061">
        <ele>225.684</ele>
        <time>2021-08-19T14:33:58Z</time>
      </trkpt>
      <trkpt lat="41.749627" lon="0.857012">
        <ele>225.807</ele>
        <time>2021-08-19T14:34:00Z</time>
      </trkpt>
      <trkpt lat="41.749678" lon="0.856963">
        <ele>225.917</ele>
        <time>2021-08-19T14:34:02Z</time>
      </trkpt>
      <trkpt lat="41.749734" lon="0.856918">
        <ele>226.208</ele>
        <time>2021-08-19T14:34:04Z</time>
      </trkpt>
      <trkpt lat="41.749787" lon="0.856868">
        <ele>226.766</ele>
        <time>2021-08-19T14:34:06Z</time>
      </trkpt>
      <trkpt lat="41.749837" lon="0.856826">
        <ele>226.919</ele>
        <time>2021-08-19T14:34:08Z</time>
      </trkpt>
      <trkpt lat="41.749890" lon="0.856775">
        <ele>227.132</ele>
        <time>2021-08-19T14:34:10Z</time>
      </trkpt>
      <trkpt lat="41.749934" lon="0.856722">
        <ele>227.113</ele>
        <time>2021-08-19T14:34:12Z</time>
      </trkpt>
      <trkpt lat="41.749979" lon="0.856676">
        <ele>227.160</ele>
        <time>2021-08-19T14:34:14Z</time>
      </trkpt>
      <trkpt lat="41.750021" lon="0.856644">
        <ele>227.158</ele>
        <time>2021-08-19T14:34:16Z</time>
      </trkpt>
      <trkpt lat="41.750069" lon="0.856602">
        <ele>227.287</ele>
        <time>2021-08-19T14:34:18Z</time>
      </trkpt>
      <trkpt lat="41.750114" lon="0.856562">
        <ele>227.476</ele>
        <time>2021-08-19T14:34:20Z</time>
      </trkpt>
      <trkpt lat="41.750151" lon="0.856524">
        <ele>227.513</ele>
        <time>2021-08-19T14:34:22Z</time>
      </trkpt>
      <trkpt lat="41.750185" lon="0.856483">
        <ele>227.743</ele>
        <time>2021-08-19T14:34:53Z</time>
      </trkpt>
      <trkpt lat="41.750232" lon="0.856440">
        <ele>227.807</ele>
        <time>2021-08-19T14:34:56Z</time>
      </trkpt>
      <trkpt lat="41.750289" lon="0.856395">
        <ele>228.108</ele>
        <time>2021-08-19T14:34:58Z</time>
      </trkpt>
      <trkpt lat="41.750337" lon="0.856345">
        <ele>228.879</ele>
        <time>2021-08-19T14:35:00Z</time>
      </trkpt>
      <trkpt lat="41.750390" lon="0.856304">
        <ele>229.682</ele>
        <time>2021-08-19T14:35:02Z</time>
      </trkpt>
      <trkpt lat="41.750446" lon="0.856257">
        <ele>230.665</ele>
        <time>2021-08-19T14:35:04Z</time>
      </trkpt>
      <trkpt lat="41.750497" lon="0.856210">
        <ele>231.576</ele>
        <time>2021-08-19T14:35:06Z</time>
      </trkpt>
      <trkpt lat="41.750549" lon="0.856165">
        <ele>232.573</ele>
        <time>2021-08-19T14:35:08Z</time>
      </trkpt>
      <trkpt lat="41.750599" lon="0.856116">
        <ele>233.361</ele>
        <time>2021-08-19T14:35:10Z</time>
      </trkpt>
      <trkpt lat="41.750643" lon="0.856067">
        <ele>233.660</ele>
        <time>2021-08-19T14:35:12Z</time>
      </trkpt>
      <trkpt lat="41.750688" lon="0.856020">
        <ele>234.099</ele>
        <time>2021-08-19T14:35:13Z</time>
      </trkpt>
      <trkpt lat="41.750735" lon="0.855975">
        <ele>234.315</ele>
        <time>2021-08-19T14:35:15Z</time>
      </trkpt>
      <trkpt lat="41.750782" lon="0.855939">
        <ele>234.665</ele>
        <time>2021-08-19T14:35:17Z</time>
      </trkpt>
      <trkpt lat="41.750835" lon="0.855887">
        <ele>235.011</ele>
        <time>2021-08-19T14:35:19Z</time>
      </trkpt>
      <trkpt lat="41.750888" lon="0.855828">
        <ele>235.008</ele>
        <time>2021-08-19T14:35:21Z</time>
      </trkpt>
      <trkpt lat="41.750928" lon="0.855789">
        <ele>234.989</ele>
        <time>2021-08-19T14:35:23Z</time>
      </trkpt>
      <trkpt lat="41.750975" lon="0.855745">
        <ele>234.852</ele>
        <time>2021-08-19T14:35:24Z</time>
      </trkpt>
      <trkpt lat="41.751021" lon="0.855705">
        <ele>234.785</ele>
        <time>2021-08-19T14:35:26Z</time>
      </trkpt>
      <trkpt lat="41.751064" lon="0.855668">
        <ele>234.586</ele>
        <time>2021-08-19T14:35:28Z</time>
      </trkpt>
      <trkpt lat="41.751109" lon="0.855624">
        <ele>234.313</ele>
        <time>2021-08-19T14:35:29Z</time>
      </trkpt>
      <trkpt lat="41.751146" lon="0.855586">
        <ele>233.741</ele>
        <time>2021-08-19T14:35:31Z</time>
      </trkpt>
      <trkpt lat="41.751194" lon="0.855543">
        <ele>233.050</ele>
        <time>2021-08-19T14:35:33Z</time>
      </trkpt>
      <trkpt lat="41.751243" lon="0.855496">
        <ele>232.329</ele>
        <time>2021-08-19T14:35:35Z</time>
      </trkpt>
      <trkpt lat="41.751285" lon="0.855457">
        <ele>231.584</ele>
        <time>2021-08-19T14:35:36Z</time>
      </trkpt>
      <trkpt lat="41.751336" lon="0.855407">
        <ele>230.607</ele>
        <time>2021-08-19T14:35:38Z</time>
      </trkpt>
      <trkpt lat="41.751385" lon="0.855360">
        <ele>229.617</ele>
        <time>2021-08-19T14:35:40Z</time>
      </trkpt>
      <trkpt lat="41.751424" lon="0.855323">
        <ele>229.208</ele>
        <time>2021-08-19T14:35:41Z</time>
      </trkpt>
      <trkpt lat="41.751467" lon="0.855279">
        <ele>228.786</ele>
        <time>2021-08-19T14:35:43Z</time>
      </trkpt>
      <trkpt lat="41.751518" lon="0.855238">
        <ele>228.619</ele>
        <time>2021-08-19T14:35:44Z</time>
      </trkpt>
      <trkpt lat="41.751568" lon="0.855198">
        <ele>228.552</ele>
        <time>2021-08-19T14:35:46Z</time>
      </trkpt>
      <trkpt lat="41.751613" lon="0.855157">
        <ele>228.513</ele>
        <time>2021-08-19T14:35:48Z</time>
      </trkpt>
      <trkpt lat="41.751654" lon="0.855117">
        <ele>228.660</ele>
        <time>2021-08-19T14:35:49Z</time>
      </trkpt>
      <trkpt lat="41.751698" lon="0.855070">
        <ele>228.868</ele>
        <time>2021-08-19T14:35:51Z</time>
      </trkpt>
      <trkpt lat="41.751743" lon="0.855027">
        <ele>228.997</ele>
        <time>2021-08-19T14:35:53Z</time>
      </trkpt>
      <trkpt lat="41.751791" lon="0.854981">
        <ele>229.016</ele>
        <time>2021-08-19T14:35:55Z</time>
      </trkpt>
      <trkpt lat="41.751828" lon="0.854946">
        <ele>229.042</ele>
        <time>2021-08-19T14:35:56Z</time>
      </trkpt>
      <trkpt lat="41.751882" lon="0.854897">
        <ele>229.022</ele>
        <time>2021-08-19T14:35:58Z</time>
      </trkpt>
      <trkpt lat="41.751920" lon="0.854863">
        <ele>229.014</ele>
        <time>2021-08-19T14:36:00Z</time>
      </trkpt>
      <trkpt lat="41.751967" lon="0.854817">
        <ele>229.008</ele>
        <time>2021-08-19T14:36:02Z</time>
      </trkpt>
      <trkpt lat="41.752024" lon="0.854759">
        <ele>228.882</ele>
        <time>2021-08-19T14:36:04Z</time>
      </trkpt>
      <trkpt lat="41.752076" lon="0.854713">
        <ele>228.515</ele>
        <time>2021-08-19T14:36:06Z</time>
      </trkpt>
      <trkpt lat="41.752122" lon="0.854665">
        <ele>228.348</ele>
        <time>2021-08-19T14:36:08Z</time>
      </trkpt>
      <trkpt lat="41.752171" lon="0.854620">
        <ele>228.199</ele>
        <time>2021-08-19T14:36:10Z</time>
      </trkpt>
      <trkpt lat="41.752221" lon="0.854576">
        <ele>228.076</ele>
        <time>2021-08-19T14:36:12Z</time>
      </trkpt>
      <trkpt lat="41.752263" lon="0.854520">
        <ele>228.274</ele>
        <time>2021-08-19T14:36:14Z</time>
      </trkpt>
      <trkpt lat="41.752291" lon="0.854462">
        <ele>228.393</ele>
        <time>2021-08-19T14:36:16Z</time>
      </trkpt>
      <trkpt lat="41.752338" lon="0.854420">
        <ele>228.312</ele>
        <time>2021-08-19T14:36:18Z</time>
      </trkpt>
      <trkpt lat="41.752383" lon="0.854381">
        <ele>228.339</ele>
        <time>2021-08-19T14:36:20Z</time>
      </trkpt>
      <trkpt lat="41.752431" lon="0.854338">
        <ele>228.401</ele>
        <time>2021-08-19T14:36:22Z</time>
      </trkpt>
      <trkpt lat="41.752471" lon="0.854311">
        <ele>228.421</ele>
        <time>2021-08-19T14:36:24Z</time>
      </trkpt>
      <trkpt lat="41.752523" lon="0.854273">
        <ele>228.608</ele>
        <time>2021-08-19T14:36:26Z</time>
      </trkpt>
      <trkpt lat="41.752572" lon="0.854239">
        <ele>229.081</ele>
        <time>2021-08-19T14:36:28Z</time>
      </trkpt>
      <trkpt lat="41.752625" lon="0.854217">
        <ele>229.594</ele>
        <time>2021-08-19T14:36:30Z</time>
      </trkpt>
      <trkpt lat="41.752673" lon="0.854196">
        <ele>230.027</ele>
        <time>2021-08-19T14:36:32Z</time>
      </trkpt>
      <trkpt lat="41.752738" lon="0.854180">
        <ele>230.638</ele>
        <time>2021-08-19T14:36:35Z</time>
      </trkpt>
      <trkpt lat="41.752786" lon="0.854169">
        <ele>231.075</ele>
        <time>2021-08-19T14:36:37Z</time>
      </trkpt>
      <trkpt lat="41.752829" lon="0.854146">
        <ele>231.293</ele>
        <time>2021-08-19T14:36:39Z</time>
      </trkpt>
      <trkpt lat="41.752873" lon="0.854100">
        <ele>231.472</ele>
        <time>2021-08-19T14:36:41Z</time>
      </trkpt>
      <trkpt lat="41.752930" lon="0.854077">
        <ele>231.711</ele>
        <time>2021-08-19T14:36:43Z</time>
      </trkpt>
      <trkpt lat="41.752978" lon="0.854025">
        <ele>232.119</ele>
        <time>2021-08-19T14:36:45Z</time>
      </trkpt>
      <trkpt lat="41.753031" lon="0.853980">
        <ele>232.509</ele>
        <time>2021-08-19T14:36:47Z</time>
      </trkpt>
      <trkpt lat="41.753078" lon="0.853935">
        <ele>232.819</ele>
        <time>2021-08-19T14:36:49Z</time>
      </trkpt>
      <trkpt lat="41.753125" lon="0.853877">
        <ele>233.008</ele>
        <time>2021-08-19T14:36:51Z</time>
      </trkpt>
      <trkpt lat="41.753173" lon="0.853822">
        <ele>233.219</ele>
        <time>2021-08-19T14:36:53Z</time>
      </trkpt>
      <trkpt lat="41.753211" lon="0.853771">
        <ele>233.462</ele>
        <time>2021-08-19T14:36:55Z</time>
      </trkpt>
      <trkpt lat="41.753252" lon="0.853698">
        <ele>233.775</ele>
        <time>2021-08-19T14:36:57Z</time>
      </trkpt>
      <trkpt lat="41.753294" lon="0.853635">
        <ele>233.966</ele>
        <time>2021-08-19T14:36:59Z</time>
      </trkpt>
      <trkpt lat="41.753331" lon="0.853568">
        <ele>234.053</ele>
        <time>2021-08-19T14:37:01Z</time>
      </trkpt>
      <trkpt lat="41.753370" lon="0.853508">
        <ele>233.921</ele>
        <time>2021-08-19T14:37:03Z</time>
      </trkpt>
      <trkpt lat="41.753405" lon="0.853438">
        <ele>233.730</ele>
        <time>2021-08-19T14:37:05Z</time>
      </trkpt>
      <trkpt lat="41.753452" lon="0.853380">
        <ele>233.629</ele>
        <time>2021-08-19T14:37:07Z</time>
      </trkpt>
      <trkpt lat="41.753488" lon="0.853323">
        <ele>233.448</ele>
        <time>2021-08-19T14:37:09Z</time>
      </trkpt>
      <trkpt lat="41.753520" lon="0.853277">
        <ele>233.061</ele>
        <time>2021-08-19T14:37:11Z</time>
      </trkpt>
      <trkpt lat="41.753548" lon="0.853226">
        <ele>232.517</ele>
        <time>2021-08-19T14:37:12Z</time>
      </trkpt>
      <trkpt lat="41.753589" lon="0.853169">
        <ele>231.908</ele>
        <time>2021-08-19T14:37:14Z</time>
      </trkpt>
      <trkpt lat="41.753623" lon="0.853096">
        <ele>231.392</ele>
        <time>2021-08-19T14:37:16Z</time>
      </trkpt>
      <trkpt lat="41.753666" lon="0.853029">
        <ele>231.015</ele>
        <time>2021-08-19T14:37:18Z</time>
      </trkpt>
      <trkpt lat="41.753706" lon="0.852962">
        <ele>231.078</ele>
        <time>2021-08-19T14:37:20Z</time>
      </trkpt>
      <trkpt lat="41.753747" lon="0.852894">
        <ele>231.069</ele>
        <time>2021-08-19T14:37:22Z</time>
      </trkpt>
      <trkpt lat="41.753797" lon="0.852837">
        <ele>231.066</ele>
        <time>2021-08-19T14:37:24Z</time>
      </trkpt>
      <trkpt lat="41.753825" lon="0.852775">
        <ele>231.034</ele>
        <time>2021-08-19T14:37:26Z</time>
      </trkpt>
      <trkpt lat="41.753869" lon="0.852701">
        <ele>231.313</ele>
        <time>2021-08-19T14:37:28Z</time>
      </trkpt>
      <trkpt lat="41.753904" lon="0.852643">
        <ele>231.552</ele>
        <time>2021-08-19T14:37:30Z</time>
      </trkpt>
      <trkpt lat="41.753955" lon="0.852572">
        <ele>231.667</ele>
        <time>2021-08-19T14:37:32Z</time>
      </trkpt>
      <trkpt lat="41.753999" lon="0.852517">
        <ele>231.681</ele>
        <time>2021-08-19T14:37:34Z</time>
      </trkpt>
      <trkpt lat="41.754037" lon="0.852462">
        <ele>231.519</ele>
        <time>2021-08-19T14:37:36Z</time>
      </trkpt>
      <trkpt lat="41.754082" lon="0.852421">
        <ele>231.308</ele>
        <time>2021-08-19T14:37:38Z</time>
      </trkpt>
      <trkpt lat="41.754132" lon="0.852373">
        <ele>231.154</ele>
        <time>2021-08-19T14:37:40Z</time>
      </trkpt>
      <trkpt lat="41.754174" lon="0.852327">
        <ele>231.067</ele>
        <time>2021-08-19T14:37:42Z</time>
      </trkpt>
      <trkpt lat="41.754222" lon="0.852288">
        <ele>230.840</ele>
        <time>2021-08-19T14:37:44Z</time>
      </trkpt>
      <trkpt lat="41.754272" lon="0.852247">
        <ele>230.651</ele>
        <time>2021-08-19T14:37:46Z</time>
      </trkpt>
      <trkpt lat="41.754320" lon="0.852204">
        <ele>230.418</ele>
        <time>2021-08-19T14:37:48Z</time>
      </trkpt>
      <trkpt lat="41.754370" lon="0.852166">
        <ele>230.356</ele>
        <time>2021-08-19T14:37:50Z</time>
      </trkpt>
      <trkpt lat="41.754416" lon="0.852121">
        <ele>230.175</ele>
        <time>2021-08-19T14:37:52Z</time>
      </trkpt>
      <trkpt lat="41.754473" lon="0.852086">
        <ele>229.964</ele>
        <time>2021-08-19T14:37:54Z</time>
      </trkpt>
      <trkpt lat="41.754516" lon="0.852043">
        <ele>229.998</ele>
        <time>2021-08-19T14:37:56Z</time>
      </trkpt>
      <trkpt lat="41.754572" lon="0.851995">
        <ele>229.915</ele>
        <time>2021-08-19T14:37:58Z</time>
      </trkpt>
      <trkpt lat="41.754623" lon="0.851949">
        <ele>230.026</ele>
        <time>2021-08-19T14:38:00Z</time>
      </trkpt>
      <trkpt lat="41.754675" lon="0.851899">
        <ele>230.008</ele>
        <time>2021-08-19T14:38:02Z</time>
      </trkpt>
      <trkpt lat="41.754722" lon="0.851845">
        <ele>230.027</ele>
        <time>2021-08-19T14:38:04Z</time>
      </trkpt>
      <trkpt lat="41.754773" lon="0.851807">
        <ele>230.240</ele>
        <time>2021-08-19T14:38:06Z</time>
      </trkpt>
      <trkpt lat="41.754818" lon="0.851764">
        <ele>230.373</ele>
        <time>2021-08-19T14:38:08Z</time>
      </trkpt>
      <trkpt lat="41.754864" lon="0.851718">
        <ele>230.554</ele>
        <time>2021-08-19T14:38:10Z</time>
      </trkpt>
      <trkpt lat="41.754912" lon="0.851678">
        <ele>230.741</ele>
        <time>2021-08-19T14:38:12Z</time>
      </trkpt>
      <trkpt lat="41.754964" lon="0.851639">
        <ele>230.979</ele>
        <time>2021-08-19T14:38:14Z</time>
      </trkpt>
      <trkpt lat="41.755011" lon="0.851604">
        <ele>231.058</ele>
        <time>2021-08-19T14:38:16Z</time>
      </trkpt>
      <trkpt lat="41.755059" lon="0.851557">
        <ele>230.937</ele>
        <time>2021-08-19T14:38:18Z</time>
      </trkpt>
      <trkpt lat="41.755109" lon="0.851525">
        <ele>230.873</ele>
        <time>2021-08-19T14:38:20Z</time>
      </trkpt>
      <trkpt lat="41.755158" lon="0.851479">
        <ele>230.685</ele>
        <time>2021-08-19T14:38:22Z</time>
      </trkpt>
      <trkpt lat="41.755205" lon="0.851441">
        <ele>230.413</ele>
        <time>2021-08-19T14:38:24Z</time>
      </trkpt>
      <trkpt lat="41.755249" lon="0.851406">
        <ele>230.208</ele>
        <time>2021-08-19T14:38:26Z</time>
      </trkpt>
      <trkpt lat="41.755303" lon="0.851362">
        <ele>230.155</ele>
        <time>2021-08-19T14:38:28Z</time>
      </trkpt>
      <trkpt lat="41.755351" lon="0.851323">
        <ele>230.228</ele>
        <time>2021-08-19T14:38:30Z</time>
      </trkpt>
      <trkpt lat="41.755397" lon="0.851281">
        <ele>230.491</ele>
        <time>2021-08-19T14:38:32Z</time>
      </trkpt>
      <trkpt lat="41.755446" lon="0.851234">
        <ele>230.622</ele>
        <time>2021-08-19T14:38:34Z</time>
      </trkpt>
      <trkpt lat="41.755497" lon="0.851198">
        <ele>230.799</ele>
        <time>2021-08-19T14:38:36Z</time>
      </trkpt>
      <trkpt lat="41.755547" lon="0.851162">
        <ele>230.867</ele>
        <time>2021-08-19T14:38:38Z</time>
      </trkpt>
      <trkpt lat="41.755589" lon="0.851113">
        <ele>231.136</ele>
        <time>2021-08-19T14:38:40Z</time>
      </trkpt>
      <trkpt lat="41.755640" lon="0.851075">
        <ele>231.455</ele>
        <time>2021-08-19T14:38:42Z</time>
      </trkpt>
      <trkpt lat="41.755687" lon="0.851026">
        <ele>231.677</ele>
        <time>2021-08-19T14:38:44Z</time>
      </trkpt>
      <trkpt lat="41.755742" lon="0.850987">
        <ele>231.861</ele>
        <time>2021-08-19T14:38:46Z</time>
      </trkpt>
      <trkpt lat="41.755785" lon="0.850935">
        <ele>231.927</ele>
        <time>2021-08-19T14:38:48Z</time>
      </trkpt>
      <trkpt lat="41.755838" lon="0.850897">
        <ele>232.008</ele>
        <time>2021-08-19T14:38:50Z</time>
      </trkpt>
      <trkpt lat="41.755889" lon="0.850846">
        <ele>231.855</ele>
        <time>2021-08-19T14:38:52Z</time>
      </trkpt>
      <trkpt lat="41.755942" lon="0.850806">
        <ele>231.688</ele>
        <time>2021-08-19T14:38:54Z</time>
      </trkpt>
      <trkpt lat="41.755985" lon="0.850767">
        <ele>231.551</ele>
        <time>2021-08-19T14:38:56Z</time>
      </trkpt>
      <trkpt lat="41.756040" lon="0.850718">
        <ele>231.322</ele>
        <time>2021-08-19T14:38:58Z</time>
      </trkpt>
      <trkpt lat="41.756084" lon="0.850688">
        <ele>231.179</ele>
        <time>2021-08-19T14:39:00Z</time>
      </trkpt>
      <trkpt lat="41.756132" lon="0.850647">
        <ele>231.147</ele>
        <time>2021-08-19T14:39:02Z</time>
      </trkpt>
      <trkpt lat="41.756183" lon="0.850600">
        <ele>231.316</ele>
        <time>2021-08-19T14:39:04Z</time>
      </trkpt>
      <trkpt lat="41.756231" lon="0.850558">
        <ele>231.495</ele>
        <time>2021-08-19T14:39:06Z</time>
      </trkpt>
      <trkpt lat="41.756279" lon="0.850519">
        <ele>231.629</ele>
        <time>2021-08-19T14:39:08Z</time>
      </trkpt>
      <trkpt lat="41.756329" lon="0.850480">
        <ele>231.800</ele>
        <time>2021-08-19T14:39:10Z</time>
      </trkpt>
      <trkpt lat="41.756377" lon="0.850431">
        <ele>232.020</ele>
        <time>2021-08-19T14:39:12Z</time>
      </trkpt>
      <trkpt lat="41.756423" lon="0.850384">
        <ele>232.108</ele>
        <time>2021-08-19T14:39:14Z</time>
      </trkpt>
      <trkpt lat="41.756467" lon="0.850335">
        <ele>232.310</ele>
        <time>2021-08-19T14:39:16Z</time>
      </trkpt>
      <trkpt lat="41.756512" lon="0.850296">
        <ele>232.433</ele>
        <time>2021-08-19T14:39:18Z</time>
      </trkpt>
      <trkpt lat="41.756557" lon="0.850253">
        <ele>232.666</ele>
        <time>2021-08-19T14:39:20Z</time>
      </trkpt>
      <trkpt lat="41.756599" lon="0.850209">
        <ele>232.867</ele>
        <time>2021-08-19T14:39:22Z</time>
      </trkpt>
      <trkpt lat="41.756645" lon="0.850163">
        <ele>233.094</ele>
        <time>2021-08-19T14:39:24Z</time>
      </trkpt>
      <trkpt lat="41.756684" lon="0.850131">
        <ele>233.082</ele>
        <time>2021-08-19T14:39:26Z</time>
      </trkpt>
      <trkpt lat="41.756740" lon="0.850081">
        <ele>233.261</ele>
        <time>2021-08-19T14:39:28Z</time>
      </trkpt>
      <trkpt lat="41.756786" lon="0.850043">
        <ele>233.440</ele>
        <time>2021-08-19T14:39:30Z</time>
      </trkpt>
      <trkpt lat="41.756832" lon="0.849996">
        <ele>233.679</ele>
        <time>2021-08-19T14:39:32Z</time>
      </trkpt>
      <trkpt lat="41.756880" lon="0.849953">
        <ele>233.805</ele>
        <time>2021-08-19T14:39:34Z</time>
      </trkpt>
      <trkpt lat="41.756928" lon="0.849914">
        <ele>234.025</ele>
        <time>2021-08-19T14:39:36Z</time>
      </trkpt>
      <trkpt lat="41.756974" lon="0.849870">
        <ele>234.108</ele>
        <time>2021-08-19T14:39:38Z</time>
      </trkpt>
      <trkpt lat="41.757019" lon="0.849831">
        <ele>234.365</ele>
        <time>2021-08-19T14:39:40Z</time>
      </trkpt>
      <trkpt lat="41.757068" lon="0.849785">
        <ele>234.418</ele>
        <time>2021-08-19T14:39:42Z</time>
      </trkpt>
      <trkpt lat="41.757122" lon="0.849750">
        <ele>234.641</ele>
        <time>2021-08-19T14:39:44Z</time>
      </trkpt>
      <trkpt lat="41.757173" lon="0.849710">
        <ele>234.842</ele>
        <time>2021-08-19T14:39:46Z</time>
      </trkpt>
      <trkpt lat="41.757222" lon="0.849664">
        <ele>234.829</ele>
        <time>2021-08-19T14:39:48Z</time>
      </trkpt>
      <trkpt lat="41.757266" lon="0.849615">
        <ele>234.757</ele>
        <time>2021-08-19T14:39:50Z</time>
      </trkpt>
      <trkpt lat="41.757310" lon="0.849570">
        <ele>234.646</ele>
        <time>2021-08-19T14:39:52Z</time>
      </trkpt>
      <trkpt lat="41.757355" lon="0.849538">
        <ele>234.735</ele>
        <time>2021-08-19T14:39:54Z</time>
      </trkpt>
      <trkpt lat="41.757393" lon="0.849493">
        <ele>234.741</ele>
        <time>2021-08-19T14:39:56Z</time>
      </trkpt>
      <trkpt lat="41.757428" lon="0.849450">
        <ele>234.781</ele>
        <time>2021-08-19T14:39:58Z</time>
      </trkpt>
      <trkpt lat="41.757474" lon="0.849410">
        <ele>234.909</ele>
        <time>2021-08-19T14:40:00Z</time>
      </trkpt>
      <trkpt lat="41.757514" lon="0.849376">
        <ele>235.008</ele>
        <time>2021-08-19T14:40:02Z</time>
      </trkpt>
      <trkpt lat="41.757552" lon="0.849340">
        <ele>234.962</ele>
        <time>2021-08-19T14:40:04Z</time>
      </trkpt>
      <trkpt lat="41.757587" lon="0.849300">
        <ele>234.875</ele>
        <time>2021-08-19T14:40:06Z</time>
      </trkpt>
      <trkpt lat="41.757626" lon="0.849265">
        <ele>234.898</ele>
        <time>2021-08-19T14:40:08Z</time>
      </trkpt>
      <trkpt lat="41.757666" lon="0.849225">
        <ele>234.969</ele>
        <time>2021-08-19T14:40:10Z</time>
      </trkpt>
      <trkpt lat="41.757704" lon="0.849193">
        <ele>234.916</ele>
        <time>2021-08-19T14:40:12Z</time>
      </trkpt>
      <trkpt lat="41.757762" lon="0.849148">
        <ele>235.094</ele>
        <time>2021-08-19T14:40:15Z</time>
      </trkpt>
      <trkpt lat="41.757819" lon="0.849104">
        <ele>234.963</ele>
        <time>2021-08-19T14:40:18Z</time>
      </trkpt>
      <trkpt lat="41.757857" lon="0.849071">
        <ele>234.782</ele>
        <time>2021-08-19T14:40:20Z</time>
      </trkpt>
      <trkpt lat="41.757916" lon="0.849035">
        <ele>234.512</ele>
        <time>2021-08-19T14:40:23Z</time>
      </trkpt>
      <trkpt lat="41.757965" lon="0.849001">
        <ele>234.332</ele>
        <time>2021-08-19T14:40:26Z</time>
      </trkpt>
      <trkpt lat="41.758005" lon="0.848967">
        <ele>234.205</ele>
        <time>2021-08-19T14:40:28Z</time>
      </trkpt>
      <trkpt lat="41.758064" lon="0.848928">
        <ele>234.008</ele>
        <time>2021-08-19T14:40:31Z</time>
      </trkpt>
      <trkpt lat="41.758108" lon="0.848899">
        <ele>234.069</ele>
        <time>2021-08-19T14:40:33Z</time>
      </trkpt>
      <trkpt lat="41.758153" lon="0.848874">
        <ele>234.032</ele>
        <time>2021-08-19T14:40:35Z</time>
      </trkpt>
      <trkpt lat="41.758196" lon="0.848848">
        <ele>234.155</ele>
        <time>2021-08-19T14:40:37Z</time>
      </trkpt>
      <trkpt lat="41.758236" lon="0.848819">
        <ele>234.236</ele>
        <time>2021-08-19T14:40:39Z</time>
      </trkpt>
      <trkpt lat="41.758280" lon="0.848792">
        <ele>234.353</ele>
        <time>2021-08-19T14:40:41Z</time>
      </trkpt>
      <trkpt lat="41.758322" lon="0.848765">
        <ele>234.471</ele>
        <time>2021-08-19T14:40:43Z</time>
      </trkpt>
      <trkpt lat="41.758364" lon="0.848734">
        <ele>234.660</ele>
        <time>2021-08-19T14:40:45Z</time>
      </trkpt>
      <trkpt lat="41.758409" lon="0.848701">
        <ele>234.779</ele>
        <time>2021-08-19T14:40:47Z</time>
      </trkpt>
      <trkpt lat="41.758453" lon="0.848666">
        <ele>234.841</ele>
        <time>2021-08-19T14:40:49Z</time>
      </trkpt>
      <trkpt lat="41.758496" lon="0.848631">
        <ele>234.981</ele>
        <time>2021-08-19T14:40:51Z</time>
      </trkpt>
      <trkpt lat="41.758537" lon="0.848602">
        <ele>235.009</ele>
        <time>2021-08-19T14:40:53Z</time>
      </trkpt>
      <trkpt lat="41.758574" lon="0.848566">
        <ele>235.008</ele>
        <time>2021-08-19T14:40:55Z</time>
      </trkpt>
      <trkpt lat="41.758631" lon="0.848512">
        <ele>234.912</ele>
        <time>2021-08-19T14:40:58Z</time>
      </trkpt>
      <trkpt lat="41.758685" lon="0.848472">
        <ele>234.555</ele>
        <time>2021-08-19T14:41:01Z</time>
      </trkpt>
      <trkpt lat="41.758730" lon="0.848439">
        <ele>234.178</ele>
        <time>2021-08-19T14:41:04Z</time>
      </trkpt>
      <trkpt lat="41.758778" lon="0.848394">
        <ele>233.869</ele>
        <time>2021-08-19T14:41:08Z</time>
      </trkpt>
      <trkpt lat="41.758832" lon="0.848361">
        <ele>233.496</ele>
        <time>2021-08-19T14:41:11Z</time>
      </trkpt>
      <trkpt lat="41.758866" lon="0.848321">
        <ele>233.214</ele>
        <time>2021-08-19T14:41:13Z</time>
      </trkpt>
      <trkpt lat="41.758916" lon="0.848281">
        <ele>233.173</ele>
        <time>2021-08-19T14:41:15Z</time>
      </trkpt>
      <trkpt lat="41.758967" lon="0.848238">
        <ele>233.192</ele>
        <time>2021-08-19T14:41:17Z</time>
      </trkpt>
      <trkpt lat="41.759010" lon="0.848188">
        <ele>233.179</ele>
        <time>2021-08-19T14:41:19Z</time>
      </trkpt>
      <trkpt lat="41.759051" lon="0.848141">
        <ele>233.105</ele>
        <time>2021-08-19T14:41:21Z</time>
      </trkpt>
      <trkpt lat="41.759098" lon="0.848093">
        <ele>233.125</ele>
        <time>2021-08-19T14:41:23Z</time>
      </trkpt>
      <trkpt lat="41.759135" lon="0.848041">
        <ele>233.208</ele>
        <time>2021-08-19T14:41:25Z</time>
      </trkpt>
      <trkpt lat="41.759178" lon="0.848007">
        <ele>233.365</ele>
        <time>2021-08-19T14:41:27Z</time>
      </trkpt>
      <trkpt lat="41.759217" lon="0.847969">
        <ele>233.848</ele>
        <time>2021-08-19T14:41:28Z</time>
      </trkpt>
      <trkpt lat="41.759270" lon="0.847908">
        <ele>234.461</ele>
        <time>2021-08-19T14:41:30Z</time>
      </trkpt>
      <trkpt lat="41.759323" lon="0.847853">
        <ele>235.042</ele>
        <time>2021-08-19T14:41:32Z</time>
      </trkpt>
      <trkpt lat="41.759369" lon="0.847796">
        <ele>235.439</ele>
        <time>2021-08-19T14:41:34Z</time>
      </trkpt>
      <trkpt lat="41.759410" lon="0.847750">
        <ele>235.857</ele>
        <time>2021-08-19T14:41:36Z</time>
      </trkpt>
      <trkpt lat="41.759454" lon="0.847700">
        <ele>236.146</ele>
        <time>2021-08-19T14:41:38Z</time>
      </trkpt>
      <trkpt lat="41.759497" lon="0.847653">
        <ele>236.435</ele>
        <time>2021-08-19T14:41:40Z</time>
      </trkpt>
      <trkpt lat="41.759530" lon="0.847597">
        <ele>236.621</ele>
        <time>2021-08-19T14:41:42Z</time>
      </trkpt>
      <trkpt lat="41.759573" lon="0.847540">
        <ele>236.941</ele>
        <time>2021-08-19T14:41:44Z</time>
      </trkpt>
      <trkpt lat="41.759608" lon="0.847491">
        <ele>237.205</ele>
        <time>2021-08-19T14:41:46Z</time>
      </trkpt>
      <trkpt lat="41.759647" lon="0.847442">
        <ele>237.308</ele>
        <time>2021-08-19T14:41:48Z</time>
      </trkpt>
      <trkpt lat="41.759683" lon="0.847395">
        <ele>237.470</ele>
        <time>2021-08-19T14:41:50Z</time>
      </trkpt>
      <trkpt lat="41.759716" lon="0.847349">
        <ele>237.423</ele>
        <time>2021-08-19T14:41:52Z</time>
      </trkpt>
      <trkpt lat="41.759751" lon="0.847307">
        <ele>237.476</ele>
        <time>2021-08-19T14:41:54Z</time>
      </trkpt>
      <trkpt lat="41.759781" lon="0.847241">
        <ele>237.367</ele>
        <time>2021-08-19T14:41:57Z</time>
      </trkpt>
      <trkpt lat="41.759824" lon="0.847179">
        <ele>237.454</ele>
        <time>2021-08-19T14:41:59Z</time>
      </trkpt>
      <trkpt lat="41.759858" lon="0.847127">
        <ele>237.562</ele>
        <time>2021-08-19T14:42:01Z</time>
      </trkpt>
      <trkpt lat="41.759896" lon="0.847085">
        <ele>237.641</ele>
        <time>2021-08-19T14:42:03Z</time>
      </trkpt>
      <trkpt lat="41.759936" lon="0.847039">
        <ele>237.820</ele>
        <time>2021-08-19T14:42:05Z</time>
      </trkpt>
      <trkpt lat="41.759968" lon="0.846991">
        <ele>237.918</ele>
        <time>2021-08-19T14:42:07Z</time>
      </trkpt>
      <trkpt lat="41.760017" lon="0.846939">
        <ele>238.198</ele>
        <time>2021-08-19T14:42:10Z</time>
      </trkpt>
      <trkpt lat="41.760061" lon="0.846877">
        <ele>238.317</ele>
        <time>2021-08-19T14:42:13Z</time>
      </trkpt>
      <trkpt lat="41.760097" lon="0.846838">
        <ele>238.508</ele>
        <time>2021-08-19T14:42:15Z</time>
      </trkpt>
      <trkpt lat="41.760133" lon="0.846792">
        <ele>238.779</ele>
        <time>2021-08-19T14:42:17Z</time>
      </trkpt>
      <trkpt lat="41.760172" lon="0.846746">
        <ele>239.142</ele>
        <time>2021-08-19T14:42:19Z</time>
      </trkpt>
      <trkpt lat="41.760205" lon="0.846701">
        <ele>239.475</ele>
        <time>2021-08-19T14:42:21Z</time>
      </trkpt>
      <trkpt lat="41.760238" lon="0.846657">
        <ele>239.746</ele>
        <time>2021-08-19T14:42:23Z</time>
      </trkpt>
      <trkpt lat="41.760279" lon="0.846605">
        <ele>240.263</ele>
        <time>2021-08-19T14:42:26Z</time>
      </trkpt>
      <trkpt lat="41.760314" lon="0.846549">
        <ele>240.621</ele>
        <time>2021-08-19T14:42:28Z</time>
      </trkpt>
      <trkpt lat="41.760359" lon="0.846482">
        <ele>241.020</ele>
        <time>2021-08-19T14:42:31Z</time>
      </trkpt>
      <trkpt lat="41.760390" lon="0.846434">
        <ele>241.239</ele>
        <time>2021-08-19T14:42:33Z</time>
      </trkpt>
      <trkpt lat="41.760420" lon="0.846387">
        <ele>241.536</ele>
        <time>2021-08-19T14:42:35Z</time>
      </trkpt>
      <trkpt lat="41.760457" lon="0.846344">
        <ele>241.617</ele>
        <time>2021-08-19T14:42:37Z</time>
      </trkpt>
      <trkpt lat="41.760493" lon="0.846302">
        <ele>241.818</ele>
        <time>2021-08-19T14:42:39Z</time>
      </trkpt>
      <trkpt lat="41.760536" lon="0.846238">
        <ele>241.908</ele>
        <time>2021-08-19T14:42:42Z</time>
      </trkpt>
      <trkpt lat="41.760584" lon="0.846192">
        <ele>241.971</ele>
        <time>2021-08-19T14:42:45Z</time>
      </trkpt>
      <trkpt lat="41.760624" lon="0.846131">
        <ele>241.834</ele>
        <time>2021-08-19T14:42:48Z</time>
      </trkpt>
      <trkpt lat="41.760659" lon="0.846076">
        <ele>241.757</ele>
        <time>2021-08-19T14:42:51Z</time>
      </trkpt>
      <trkpt lat="41.760693" lon="0.846030">
        <ele>241.798</ele>
        <time>2021-08-19T14:42:54Z</time>
      </trkpt>
      <trkpt lat="41.760733" lon="0.845980">
        <ele>241.715</ele>
        <time>2021-08-19T14:42:57Z</time>
      </trkpt>
      <trkpt lat="41.760770" lon="0.845928">
        <ele>241.793</ele>
        <time>2021-08-19T14:43:00Z</time>
      </trkpt>
      <trkpt lat="41.760810" lon="0.845874">
        <ele>241.992</ele>
        <time>2021-08-19T14:43:03Z</time>
      </trkpt>
      <trkpt lat="41.760848" lon="0.845818">
        <ele>242.021</ele>
        <time>2021-08-19T14:43:06Z</time>
      </trkpt>
      <trkpt lat="41.760894" lon="0.845761">
        <ele>241.938</ele>
        <time>2021-08-19T14:43:09Z</time>
      </trkpt>
      <trkpt lat="41.760936" lon="0.845714">
        <ele>241.970</ele>
        <time>2021-08-19T14:43:12Z</time>
      </trkpt>
      <trkpt lat="41.760981" lon="0.845660">
        <ele>242.117</ele>
        <time>2021-08-19T14:43:15Z</time>
      </trkpt>
      <trkpt lat="41.761019" lon="0.845615">
        <ele>242.408</ele>
        <time>2021-08-19T14:43:18Z</time>
      </trkpt>
      <trkpt lat="41.761058" lon="0.845584">
        <ele>242.641</ele>
        <time>2021-08-19T14:47:04Z</time>
      </trkpt>
      <trkpt lat="41.761098" lon="0.845531">
        <ele>243.084</ele>
        <time>2021-08-19T14:48:42Z</time>
      </trkpt>
      <trkpt lat="41.761131" lon="0.845479">
        <ele>243.327</ele>
        <time>2021-08-19T14:48:45Z</time>
      </trkpt>
      <trkpt lat="41.761177" lon="0.845449">
        <ele>243.588</ele>
        <time>2021-08-19T14:48:49Z</time>
      </trkpt>
      <trkpt lat="41.761215" lon="0.845399">
        <ele>243.775</ele>
        <time>2021-08-19T14:48:52Z</time>
      </trkpt>
      <trkpt lat="41.761250" lon="0.845353">
        <ele>243.993</ele>
        <time>2021-08-19T14:48:55Z</time>
      </trkpt>
      <trkpt lat="41.761296" lon="0.845318">
        <ele>244.052</ele>
        <time>2021-08-19T14:48:58Z</time>
      </trkpt>
      <trkpt lat="41.761341" lon="0.845280">
        <ele>244.041</ele>
        <time>2021-08-19T14:49:01Z</time>
      </trkpt>
      <trkpt lat="41.761387" lon="0.845232">
        <ele>244.097</ele>
        <time>2021-08-19T14:49:04Z</time>
      </trkpt>
      <trkpt lat="41.761429" lon="0.845183">
        <ele>244.023</ele>
        <time>2021-08-19T14:49:06Z</time>
      </trkpt>
      <trkpt lat="41.761478" lon="0.845143">
        <ele>243.825</ele>
        <time>2021-08-19T14:49:09Z</time>
      </trkpt>
      <trkpt lat="41.761519" lon="0.845105">
        <ele>243.708</ele>
        <time>2021-08-19T14:49:11Z</time>
      </trkpt>
      <trkpt lat="41.761560" lon="0.845066">
        <ele>243.547</ele>
        <time>2021-08-19T14:49:13Z</time>
      </trkpt>
      <trkpt lat="41.761604" lon="0.845036">
        <ele>243.380</ele>
        <time>2021-08-19T14:49:15Z</time>
      </trkpt>
      <trkpt lat="41.761650" lon="0.844997">
        <ele>243.013</ele>
        <time>2021-08-19T14:49:18Z</time>
      </trkpt>
      <trkpt lat="41.761691" lon="0.844961">
        <ele>242.934</ele>
        <time>2021-08-19T14:49:20Z</time>
      </trkpt>
      <trkpt lat="41.761733" lon="0.844936">
        <ele>243.061</ele>
        <time>2021-08-19T14:49:22Z</time>
      </trkpt>
      <trkpt lat="41.761779" lon="0.844896">
        <ele>243.019</ele>
        <time>2021-08-19T14:49:25Z</time>
      </trkpt>
      <trkpt lat="41.761820" lon="0.844858">
        <ele>243.038</ele>
        <time>2021-08-19T14:49:27Z</time>
      </trkpt>
      <trkpt lat="41.761859" lon="0.844826">
        <ele>243.167</ele>
        <time>2021-08-19T14:49:29Z</time>
      </trkpt>
      <trkpt lat="41.761902" lon="0.844792">
        <ele>243.128</ele>
        <time>2021-08-19T14:49:31Z</time>
      </trkpt>
      <trkpt lat="41.761951" lon="0.844751">
        <ele>243.289</ele>
        <time>2021-08-19T14:49:33Z</time>
      </trkpt>
      <trkpt lat="41.761992" lon="0.844714">
        <ele>243.317</ele>
        <time>2021-08-19T14:49:35Z</time>
      </trkpt>
      <trkpt lat="41.762042" lon="0.844684">
        <ele>243.708</ele>
        <time>2021-08-19T14:49:38Z</time>
      </trkpt>
      <trkpt lat="41.762087" lon="0.844640">
        <ele>244.010</ele>
        <time>2021-08-19T14:49:40Z</time>
      </trkpt>
      <trkpt lat="41.762131" lon="0.844607">
        <ele>244.373</ele>
        <time>2021-08-19T14:49:42Z</time>
      </trkpt>
      <trkpt lat="41.762182" lon="0.844570">
        <ele>244.736</ele>
        <time>2021-08-19T14:49:45Z</time>
      </trkpt>
      <trkpt lat="41.762225" lon="0.844534">
        <ele>245.027</ele>
        <time>2021-08-19T14:49:47Z</time>
      </trkpt>
      <trkpt lat="41.762267" lon="0.844507">
        <ele>245.314</ele>
        <time>2021-08-19T14:49:49Z</time>
      </trkpt>
      <trkpt lat="41.762313" lon="0.844472">
        <ele>245.792</ele>
        <time>2021-08-19T14:49:52Z</time>
      </trkpt>
      <trkpt lat="41.762371" lon="0.844419">
        <ele>246.041</ele>
        <time>2021-08-19T14:49:55Z</time>
      </trkpt>
      <trkpt lat="41.762432" lon="0.844380">
        <ele>246.310</ele>
        <time>2021-08-19T14:49:58Z</time>
      </trkpt>
      <trkpt lat="41.762485" lon="0.844345">
        <ele>246.669</ele>
        <time>2021-08-19T14:50:01Z</time>
      </trkpt>
      <trkpt lat="41.762522" lon="0.844307">
        <ele>246.604</ele>
        <time>2021-08-19T14:50:03Z</time>
      </trkpt>
      <trkpt lat="41.762570" lon="0.844265">
        <ele>246.624</ele>
        <time>2021-08-19T14:50:06Z</time>
      </trkpt>
      <trkpt lat="41.762620" lon="0.844216">
        <ele>246.608</ele>
        <time>2021-08-19T14:50:09Z</time>
      </trkpt>
      <trkpt lat="41.762666" lon="0.844174">
        <ele>246.664</ele>
        <time>2021-08-19T14:50:12Z</time>
      </trkpt>
      <trkpt lat="41.762706" lon="0.844142">
        <ele>246.757</ele>
        <time>2021-08-19T14:50:14Z</time>
      </trkpt>
      <trkpt lat="41.762750" lon="0.844112">
        <ele>246.790</ele>
        <time>2021-08-19T14:50:17Z</time>
      </trkpt>
      <trkpt lat="41.762794" lon="0.844078">
        <ele>246.781</ele>
        <time>2021-08-19T14:50:20Z</time>
      </trkpt>
      <trkpt lat="41.762845" lon="0.844061">
        <ele>246.718</ele>
        <time>2021-08-19T14:50:23Z</time>
      </trkpt>
      <trkpt lat="41.762890" lon="0.844032">
        <ele>246.726</ele>
        <time>2021-08-19T14:50:27Z</time>
      </trkpt>
      <trkpt lat="41.762932" lon="0.844004">
        <ele>246.735</ele>
        <time>2021-08-19T14:50:29Z</time>
      </trkpt>
      <trkpt lat="41.762980" lon="0.843982">
        <ele>246.874</ele>
        <time>2021-08-19T14:50:31Z</time>
      </trkpt>
      <trkpt lat="41.763023" lon="0.843953">
        <ele>246.935</ele>
        <time>2021-08-19T14:50:33Z</time>
      </trkpt>
      <trkpt lat="41.763083" lon="0.843919">
        <ele>247.086</ele>
        <time>2021-08-19T14:50:36Z</time>
      </trkpt>
      <trkpt lat="41.763135" lon="0.843883">
        <ele>247.014</ele>
        <time>2021-08-19T14:50:38Z</time>
      </trkpt>
      <trkpt lat="41.763183" lon="0.843848">
        <ele>246.908</ele>
        <time>2021-08-19T14:50:41Z</time>
      </trkpt>
      <trkpt lat="41.763224" lon="0.843820">
        <ele>246.821</ele>
        <time>2021-08-19T14:50:43Z</time>
      </trkpt>
      <trkpt lat="41.763274" lon="0.843789">
        <ele>246.694</ele>
        <time>2021-08-19T14:50:45Z</time>
      </trkpt>
      <trkpt lat="41.763320" lon="0.843761">
        <ele>246.577</ele>
        <time>2021-08-19T14:50:47Z</time>
      </trkpt>
      <trkpt lat="41.763377" lon="0.843729">
        <ele>246.418</ele>
        <time>2021-08-19T14:50:50Z</time>
      </trkpt>
      <trkpt lat="41.763427" lon="0.843703">
        <ele>246.395</ele>
        <time>2021-08-19T14:50:52Z</time>
      </trkpt>
      <trkpt lat="41.763479" lon="0.843675">
        <ele>246.283</ele>
        <time>2021-08-19T14:50:54Z</time>
      </trkpt>
      <trkpt lat="41.763522" lon="0.843639">
        <ele>246.192</ele>
        <time>2021-08-19T14:50:56Z</time>
      </trkpt>
      <trkpt lat="41.763564" lon="0.843601">
        <ele>246.041</ele>
        <time>2021-08-19T14:50:58Z</time>
      </trkpt>
      <trkpt lat="41.763609" lon="0.843582">
        <ele>245.967</ele>
        <time>2021-08-19T14:51:00Z</time>
      </trkpt>
      <trkpt lat="41.763655" lon="0.843560">
        <ele>245.881</ele>
        <time>2021-08-19T14:51:02Z</time>
      </trkpt>
      <trkpt lat="41.763700" lon="0.843537">
        <ele>245.819</ele>
        <time>2021-08-19T14:51:04Z</time>
      </trkpt>
      <trkpt lat="41.763741" lon="0.843506">
        <ele>245.808</ele>
        <time>2021-08-19T14:51:06Z</time>
      </trkpt>
      <trkpt lat="41.763784" lon="0.843479">
        <ele>245.844</ele>
        <time>2021-08-19T14:51:08Z</time>
      </trkpt>
      <trkpt lat="41.763827" lon="0.843455">
        <ele>245.947</ele>
        <time>2021-08-19T14:51:10Z</time>
      </trkpt>
      <trkpt lat="41.763868" lon="0.843421">
        <ele>245.970</ele>
        <time>2021-08-19T14:51:12Z</time>
      </trkpt>
      <trkpt lat="41.763913" lon="0.843394">
        <ele>246.091</ele>
        <time>2021-08-19T14:51:14Z</time>
      </trkpt>
      <trkpt lat="41.763956" lon="0.843362">
        <ele>246.068</ele>
        <time>2021-08-19T14:51:16Z</time>
      </trkpt>
      <trkpt lat="41.764019" lon="0.843319">
        <ele>246.076</ele>
        <time>2021-08-19T14:51:19Z</time>
      </trkpt>
      <trkpt lat="41.764064" lon="0.843298">
        <ele>246.025</ele>
        <time>2021-08-19T14:51:21Z</time>
      </trkpt>
      <trkpt lat="41.764109" lon="0.843271">
        <ele>246.014</ele>
        <time>2021-08-19T14:51:23Z</time>
      </trkpt>
      <trkpt lat="41.764161" lon="0.843239">
        <ele>246.068</ele>
        <time>2021-08-19T14:51:26Z</time>
      </trkpt>
      <trkpt lat="41.764210" lon="0.843214">
        <ele>246.342</ele>
        <time>2021-08-19T14:51:28Z</time>
      </trkpt>
      <trkpt lat="41.764260" lon="0.843178">
        <ele>246.726</ele>
        <time>2021-08-19T14:51:30Z</time>
      </trkpt>
      <trkpt lat="41.764304" lon="0.843158">
        <ele>247.008</ele>
        <time>2021-08-19T14:51:32Z</time>
      </trkpt>
      <trkpt lat="41.764362" lon="0.843120">
        <ele>247.454</ele>
        <time>2021-08-19T14:51:35Z</time>
      </trkpt>
      <trkpt lat="41.764406" lon="0.843100">
        <ele>247.787</ele>
        <time>2021-08-19T14:51:37Z</time>
      </trkpt>
      <trkpt lat="41.764459" lon="0.843062">
        <ele>248.140</ele>
        <time>2021-08-19T14:51:40Z</time>
      </trkpt>
      <trkpt lat="41.764513" lon="0.843028">
        <ele>248.311</ele>
        <time>2021-08-19T14:51:43Z</time>
      </trkpt>
      <trkpt lat="41.764569" lon="0.842999">
        <ele>248.718</ele>
        <time>2021-08-19T14:51:46Z</time>
      </trkpt>
      <trkpt lat="41.764633" lon="0.842961">
        <ele>249.066</ele>
        <time>2021-08-19T14:51:49Z</time>
      </trkpt>
      <trkpt lat="41.764689" lon="0.842940">
        <ele>249.325</ele>
        <time>2021-08-19T14:51:52Z</time>
      </trkpt>
      <trkpt lat="41.764734" lon="0.842899">
        <ele>249.684</ele>
        <time>2021-08-19T14:51:55Z</time>
      </trkpt>
      <trkpt lat="41.764775" lon="0.842861">
        <ele>249.943</ele>
        <time>2021-08-19T14:51:58Z</time>
      </trkpt>
      <trkpt lat="41.764821" lon="0.842845">
        <ele>250.164</ele>
        <time>2021-08-19T14:52:13Z</time>
      </trkpt>
      <trkpt lat="41.764865" lon="0.842833">
        <ele>250.310</ele>
        <time>2021-08-19T14:52:17Z</time>
      </trkpt>
      <trkpt lat="41.764921" lon="0.842825">
        <ele>250.508</ele>
        <time>2021-08-19T14:52:20Z</time>
      </trkpt>
      <trkpt lat="41.764971" lon="0.842806">
        <ele>250.812</ele>
        <time>2021-08-19T14:52:22Z</time>
      </trkpt>
      <trkpt lat="41.765017" lon="0.842796">
        <ele>250.915</ele>
        <time>2021-08-19T14:52:24Z</time>
      </trkpt>
      <trkpt lat="41.765066" lon="0.842781">
        <ele>250.858</ele>
        <time>2021-08-19T14:52:25Z</time>
      </trkpt>
      <trkpt lat="41.765137" lon="0.842762">
        <ele>250.529</ele>
        <time>2021-08-19T14:52:28Z</time>
      </trkpt>
      <trkpt lat="41.765184" lon="0.842759">
        <ele>250.356</ele>
        <time>2021-08-19T14:52:29Z</time>
      </trkpt>
      <trkpt lat="41.765246" lon="0.842744">
        <ele>250.194</ele>
        <time>2021-08-19T14:52:30Z</time>
      </trkpt>
      <trkpt lat="41.765296" lon="0.842730">
        <ele>250.033</ele>
        <time>2021-08-19T14:52:31Z</time>
      </trkpt>
      <trkpt lat="41.765343" lon="0.842715">
        <ele>249.982</ele>
        <time>2021-08-19T14:52:32Z</time>
      </trkpt>
      <trkpt lat="41.765430" lon="0.842674">
        <ele>249.868</ele>
        <time>2021-08-19T14:52:34Z</time>
      </trkpt>
      <trkpt lat="41.765520" lon="0.842627">
        <ele>249.542</ele>
        <time>2021-08-19T14:52:36Z</time>
      </trkpt>
      <trkpt lat="41.765605" lon="0.842566">
        <ele>249.126</ele>
        <time>2021-08-19T14:52:38Z</time>
      </trkpt>
      <trkpt lat="41.765693" lon="0.842501">
        <ele>248.508</ele>
        <time>2021-08-19T14:52:40Z</time>
      </trkpt>
      <trkpt lat="41.765785" lon="0.842443">
        <ele>248.024</ele>
        <time>2021-08-19T14:52:42Z</time>
      </trkpt>
      <trkpt lat="41.765832" lon="0.842411">
        <ele>247.787</ele>
        <time>2021-08-19T14:52:43Z</time>
      </trkpt>
      <trkpt lat="41.765926" lon="0.842343">
        <ele>246.960</ele>
        <time>2021-08-19T14:52:45Z</time>
      </trkpt>
      <trkpt lat="41.766010" lon="0.842266">
        <ele>246.061</ele>
        <time>2021-08-19T14:52:47Z</time>
      </trkpt>
      <trkpt lat="41.766052" lon="0.842225">
        <ele>245.448</ele>
        <time>2021-08-19T14:52:48Z</time>
      </trkpt>
      <trkpt lat="41.766132" lon="0.842143">
        <ele>244.676</ele>
        <time>2021-08-19T14:52:50Z</time>
      </trkpt>
      <trkpt lat="41.766173" lon="0.842103">
        <ele>244.315</ele>
        <time>2021-08-19T14:52:51Z</time>
      </trkpt>
      <trkpt lat="41.766214" lon="0.842061">
        <ele>244.174</ele>
        <time>2021-08-19T14:52:52Z</time>
      </trkpt>
      <trkpt lat="41.766294" lon="0.841981">
        <ele>244.031</ele>
        <time>2021-08-19T14:52:54Z</time>
      </trkpt>
      <trkpt lat="41.766333" lon="0.841939">
        <ele>244.061</ele>
        <time>2021-08-19T14:52:55Z</time>
      </trkpt>
      <trkpt lat="41.766411" lon="0.841860">
        <ele>244.207</ele>
        <time>2021-08-19T14:52:57Z</time>
      </trkpt>
      <trkpt lat="41.766481" lon="0.841794">
        <ele>244.408</ele>
        <time>2021-08-19T14:52:59Z</time>
      </trkpt>
      <trkpt lat="41.766543" lon="0.841726">
        <ele>244.761</ele>
        <time>2021-08-19T14:53:01Z</time>
      </trkpt>
      <trkpt lat="41.766605" lon="0.841659">
        <ele>245.034</ele>
        <time>2021-08-19T14:53:03Z</time>
      </trkpt>
      <trkpt lat="41.766661" lon="0.841583">
        <ele>245.097</ele>
        <time>2021-08-19T14:53:05Z</time>
      </trkpt>
      <trkpt lat="41.766709" lon="0.841514">
        <ele>244.738</ele>
        <time>2021-08-19T14:53:07Z</time>
      </trkpt>
      <trkpt lat="41.766753" lon="0.841445">
        <ele>244.485</ele>
        <time>2021-08-19T14:53:09Z</time>
      </trkpt>
      <trkpt lat="41.766792" lon="0.841369">
        <ele>244.073</ele>
        <time>2021-08-19T14:53:11Z</time>
      </trkpt>
      <trkpt lat="41.766831" lon="0.841300">
        <ele>243.572</ele>
        <time>2021-08-19T14:53:13Z</time>
      </trkpt>
      <trkpt lat="41.766872" lon="0.841224">
        <ele>242.971</ele>
        <time>2021-08-19T14:53:15Z</time>
      </trkpt>
      <trkpt lat="41.766917" lon="0.841143">
        <ele>242.355</ele>
        <time>2021-08-19T14:53:17Z</time>
      </trkpt>
      <trkpt lat="41.766969" lon="0.841054">
        <ele>241.607</ele>
        <time>2021-08-19T14:53:19Z</time>
      </trkpt>
      <trkpt lat="41.767015" lon="0.840978">
        <ele>241.017</ele>
        <time>2021-08-19T14:53:21Z</time>
      </trkpt>
      <trkpt lat="41.767062" lon="0.840900">
        <ele>240.408</ele>
        <time>2021-08-19T14:53:23Z</time>
      </trkpt>
      <trkpt lat="41.767105" lon="0.840821">
        <ele>239.843</ele>
        <time>2021-08-19T14:53:25Z</time>
      </trkpt>
      <trkpt lat="41.767148" lon="0.840739">
        <ele>239.536</ele>
        <time>2021-08-19T14:53:27Z</time>
      </trkpt>
      <trkpt lat="41.767206" lon="0.840654">
        <ele>239.159</ele>
        <time>2021-08-19T14:53:29Z</time>
      </trkpt>
      <trkpt lat="41.767280" lon="0.840546">
        <ele>239.050</ele>
        <time>2021-08-19T14:53:31Z</time>
      </trkpt>
      <trkpt lat="41.767345" lon="0.840451">
        <ele>239.057</ele>
        <time>2021-08-19T14:53:33Z</time>
      </trkpt>
      <trkpt lat="41.767399" lon="0.840384">
        <ele>239.055</ele>
        <time>2021-08-19T14:53:35Z</time>
      </trkpt>
      <trkpt lat="41.767468" lon="0.840310">
        <ele>239.074</ele>
        <time>2021-08-19T14:53:37Z</time>
      </trkpt>
      <trkpt lat="41.767509" lon="0.840258">
        <ele>238.923</ele>
        <time>2021-08-19T14:53:38Z</time>
      </trkpt>
      <trkpt lat="41.767566" lon="0.840173">
        <ele>238.658</ele>
        <time>2021-08-19T14:53:40Z</time>
      </trkpt>
      <trkpt lat="41.767626" lon="0.840103">
        <ele>238.452</ele>
        <time>2021-08-19T14:53:42Z</time>
      </trkpt>
      <trkpt lat="41.767687" lon="0.840010">
        <ele>238.017</ele>
        <time>2021-08-19T14:53:44Z</time>
      </trkpt>
      <trkpt lat="41.767749" lon="0.839914">
        <ele>237.708</ele>
        <time>2021-08-19T14:53:46Z</time>
      </trkpt>
      <trkpt lat="41.767804" lon="0.839820">
        <ele>237.483</ele>
        <time>2021-08-19T14:53:48Z</time>
      </trkpt>
      <trkpt lat="41.767860" lon="0.839740">
        <ele>237.496</ele>
        <time>2021-08-19T14:53:50Z</time>
      </trkpt>
      <trkpt lat="41.767906" lon="0.839650">
        <ele>237.329</ele>
        <time>2021-08-19T14:53:52Z</time>
      </trkpt>
      <trkpt lat="41.767958" lon="0.839563">
        <ele>237.470</ele>
        <time>2021-08-19T14:53:54Z</time>
      </trkpt>
      <trkpt lat="41.768009" lon="0.839497">
        <ele>237.727</ele>
        <time>2021-08-19T14:53:56Z</time>
      </trkpt>
      <trkpt lat="41.768061" lon="0.839407">
        <ele>238.025</ele>
        <time>2021-08-19T14:53:58Z</time>
      </trkpt>
      <trkpt lat="41.768114" lon="0.839317">
        <ele>238.284</ele>
        <time>2021-08-19T14:54:00Z</time>
      </trkpt>
      <trkpt lat="41.768161" lon="0.839227">
        <ele>238.443</ele>
        <time>2021-08-19T14:54:02Z</time>
      </trkpt>
      <trkpt lat="41.768214" lon="0.839155">
        <ele>238.621</ele>
        <time>2021-08-19T14:54:04Z</time>
      </trkpt>
      <trkpt lat="41.768264" lon="0.839088">
        <ele>238.841</ele>
        <time>2021-08-19T14:54:06Z</time>
      </trkpt>
      <trkpt lat="41.768319" lon="0.839031">
        <ele>238.905</ele>
        <time>2021-08-19T14:54:08Z</time>
      </trkpt>
      <trkpt lat="41.768378" lon="0.838988">
        <ele>239.108</ele>
        <time>2021-08-19T14:54:10Z</time>
      </trkpt>
      <trkpt lat="41.768425" lon="0.838941">
        <ele>239.140</ele>
        <time>2021-08-19T14:54:12Z</time>
      </trkpt>
      <trkpt lat="41.768474" lon="0.838902">
        <ele>239.033</ele>
        <time>2021-08-19T14:54:14Z</time>
      </trkpt>
      <trkpt lat="41.768542" lon="0.838859">
        <ele>238.936</ele>
        <time>2021-08-19T14:54:16Z</time>
      </trkpt>
      <trkpt lat="41.768608" lon="0.838815">
        <ele>238.747</ele>
        <time>2021-08-19T14:54:18Z</time>
      </trkpt>
      <trkpt lat="41.768671" lon="0.838759">
        <ele>238.794</ele>
        <time>2021-08-19T14:54:20Z</time>
      </trkpt>
      <trkpt lat="41.768731" lon="0.838712">
        <ele>238.872</ele>
        <time>2021-08-19T14:54:22Z</time>
      </trkpt>
      <trkpt lat="41.768798" lon="0.838658">
        <ele>238.841</ele>
        <time>2021-08-19T14:54:24Z</time>
      </trkpt>
      <trkpt lat="41.768867" lon="0.838604">
        <ele>238.960</ele>
        <time>2021-08-19T14:54:26Z</time>
      </trkpt>
      <trkpt lat="41.768935" lon="0.838550">
        <ele>239.037</ele>
        <time>2021-08-19T14:54:28Z</time>
      </trkpt>
      <trkpt lat="41.769002" lon="0.838497">
        <ele>239.049</ele>
        <time>2021-08-19T14:54:30Z</time>
      </trkpt>
      <trkpt lat="41.769068" lon="0.838437">
        <ele>239.013</ele>
        <time>2021-08-19T14:54:32Z</time>
      </trkpt>
      <trkpt lat="41.769131" lon="0.838378">
        <ele>239.008</ele>
        <time>2021-08-19T14:54:34Z</time>
      </trkpt>
      <trkpt lat="41.769197" lon="0.838325">
        <ele>238.811</ele>
        <time>2021-08-19T14:54:36Z</time>
      </trkpt>
      <trkpt lat="41.769259" lon="0.838289">
        <ele>238.224</ele>
        <time>2021-08-19T14:54:38Z</time>
      </trkpt>
      <trkpt lat="41.769317" lon="0.838243">
        <ele>237.897</ele>
        <time>2021-08-19T14:54:40Z</time>
      </trkpt>
      <trkpt lat="41.769379" lon="0.838193">
        <ele>237.478</ele>
        <time>2021-08-19T14:54:42Z</time>
      </trkpt>
      <trkpt lat="41.769442" lon="0.838146">
        <ele>237.015</ele>
        <time>2021-08-19T14:54:44Z</time>
      </trkpt>
      <trkpt lat="41.769500" lon="0.838100">
        <ele>236.693</ele>
        <time>2021-08-19T14:54:46Z</time>
      </trkpt>
      <trkpt lat="41.769563" lon="0.838051">
        <ele>236.162</ele>
        <time>2021-08-19T14:54:48Z</time>
      </trkpt>
      <trkpt lat="41.769630" lon="0.838000">
        <ele>235.761</ele>
        <time>2021-08-19T14:54:50Z</time>
      </trkpt>
      <trkpt lat="41.769698" lon="0.837945">
        <ele>235.581</ele>
        <time>2021-08-19T14:54:52Z</time>
      </trkpt>
      <trkpt lat="41.769767" lon="0.837895">
        <ele>235.461</ele>
        <time>2021-08-19T14:54:54Z</time>
      </trkpt>
      <trkpt lat="41.769833" lon="0.837843">
        <ele>235.417</ele>
        <time>2021-08-19T14:54:56Z</time>
      </trkpt>
      <trkpt lat="41.769900" lon="0.837791">
        <ele>235.308</ele>
        <time>2021-08-19T14:54:58Z</time>
      </trkpt>
      <trkpt lat="41.769965" lon="0.837733">
        <ele>235.316</ele>
        <time>2021-08-19T14:55:00Z</time>
      </trkpt>
      <trkpt lat="41.770031" lon="0.837683">
        <ele>235.529</ele>
        <time>2021-08-19T14:55:02Z</time>
      </trkpt>
      <trkpt lat="41.770096" lon="0.837633">
        <ele>235.912</ele>
        <time>2021-08-19T14:55:04Z</time>
      </trkpt>
      <trkpt lat="41.770161" lon="0.837585">
        <ele>236.373</ele>
        <time>2021-08-19T14:55:06Z</time>
      </trkpt>
      <trkpt lat="41.770224" lon="0.837534">
        <ele>236.760</ele>
        <time>2021-08-19T14:55:08Z</time>
      </trkpt>
      <trkpt lat="41.770287" lon="0.837483">
        <ele>237.048</ele>
        <time>2021-08-19T14:55:10Z</time>
      </trkpt>
      <trkpt lat="41.770354" lon="0.837430">
        <ele>237.097</ele>
        <time>2021-08-19T14:55:12Z</time>
      </trkpt>
      <trkpt lat="41.770420" lon="0.837378">
        <ele>237.066</ele>
        <time>2021-08-19T14:55:14Z</time>
      </trkpt>
      <trkpt lat="41.770481" lon="0.837329">
        <ele>237.049</ele>
        <time>2021-08-19T14:55:16Z</time>
      </trkpt>
      <trkpt lat="41.770545" lon="0.837278">
        <ele>237.002</ele>
        <time>2021-08-19T14:55:18Z</time>
      </trkpt>
      <trkpt lat="41.770610" lon="0.837226">
        <ele>236.422</ele>
        <time>2021-08-19T14:55:20Z</time>
      </trkpt>
      <trkpt lat="41.770675" lon="0.837177">
        <ele>235.608</ele>
        <time>2021-08-19T14:55:22Z</time>
      </trkpt>
      <trkpt lat="41.770736" lon="0.837124">
        <ele>234.842</ele>
        <time>2021-08-19T14:55:24Z</time>
      </trkpt>
      <trkpt lat="41.770799" lon="0.837069">
        <ele>233.985</ele>
        <time>2021-08-19T14:55:26Z</time>
      </trkpt>
      <trkpt lat="41.770864" lon="0.837021">
        <ele>233.158</ele>
        <time>2021-08-19T14:55:28Z</time>
      </trkpt>
      <trkpt lat="41.770925" lon="0.836972">
        <ele>232.539</ele>
        <time>2021-08-19T14:55:30Z</time>
      </trkpt>
      <trkpt lat="41.770986" lon="0.836920">
        <ele>231.926</ele>
        <time>2021-08-19T14:55:32Z</time>
      </trkpt>
      <trkpt lat="41.771050" lon="0.836872">
        <ele>231.494</ele>
        <time>2021-08-19T14:55:34Z</time>
      </trkpt>
      <trkpt lat="41.771116" lon="0.836818">
        <ele>231.163</ele>
        <time>2021-08-19T14:55:36Z</time>
      </trkpt>
      <trkpt lat="41.771181" lon="0.836763">
        <ele>232.272</ele>
        <time>2021-08-19T14:55:38Z</time>
      </trkpt>
      <trkpt lat="41.771240" lon="0.836711">
        <ele>233.024</ele>
        <time>2021-08-19T14:55:40Z</time>
      </trkpt>
      <trkpt lat="41.771301" lon="0.836655">
        <ele>233.804</ele>
        <time>2021-08-19T14:55:42Z</time>
      </trkpt>
      <trkpt lat="41.771357" lon="0.836607">
        <ele>234.614</ele>
        <time>2021-08-19T14:55:44Z</time>
      </trkpt>
      <trkpt lat="41.771419" lon="0.836562">
        <ele>235.208</ele>
        <time>2021-08-19T14:55:46Z</time>
      </trkpt>
      <trkpt lat="41.771482" lon="0.836514">
        <ele>235.630</ele>
        <time>2021-08-19T14:55:48Z</time>
      </trkpt>
      <trkpt lat="41.771544" lon="0.836460">
        <ele>235.853</ele>
        <time>2021-08-19T14:55:50Z</time>
      </trkpt>
      <trkpt lat="41.771611" lon="0.836402">
        <ele>235.956</ele>
        <time>2021-08-19T14:55:52Z</time>
      </trkpt>
      <trkpt lat="41.771677" lon="0.836351">
        <ele>235.977</ele>
        <time>2021-08-19T14:55:54Z</time>
      </trkpt>
      <trkpt lat="41.771740" lon="0.836291">
        <ele>235.624</ele>
        <time>2021-08-19T14:55:56Z</time>
      </trkpt>
      <trkpt lat="41.771805" lon="0.836236">
        <ele>235.452</ele>
        <time>2021-08-19T14:55:58Z</time>
      </trkpt>
      <trkpt lat="41.771871" lon="0.836191">
        <ele>235.361</ele>
        <time>2021-08-19T14:56:00Z</time>
      </trkpt>
      <trkpt lat="41.771929" lon="0.836126">
        <ele>235.190</ele>
        <time>2021-08-19T14:56:02Z</time>
      </trkpt>
      <trkpt lat="41.771991" lon="0.836067">
        <ele>235.084</ele>
        <time>2021-08-19T14:56:04Z</time>
      </trkpt>
      <trkpt lat="41.772060" lon="0.836025">
        <ele>234.907</ele>
        <time>2021-08-19T14:56:06Z</time>
      </trkpt>
      <trkpt lat="41.772122" lon="0.835971">
        <ele>234.717</ele>
        <time>2021-08-19T14:56:08Z</time>
      </trkpt>
      <trkpt lat="41.772181" lon="0.835912">
        <ele>234.408</ele>
        <time>2021-08-19T14:56:10Z</time>
      </trkpt>
      <trkpt lat="41.772246" lon="0.835856">
        <ele>234.276</ele>
        <time>2021-08-19T14:56:12Z</time>
      </trkpt>
      <trkpt lat="41.772308" lon="0.835808">
        <ele>234.339</ele>
        <time>2021-08-19T14:56:14Z</time>
      </trkpt>
      <trkpt lat="41.772364" lon="0.835756">
        <ele>234.272</ele>
        <time>2021-08-19T14:56:16Z</time>
      </trkpt>
      <trkpt lat="41.772421" lon="0.835704">
        <ele>234.043</ele>
        <time>2021-08-19T14:56:18Z</time>
      </trkpt>
      <trkpt lat="41.772481" lon="0.835659">
        <ele>233.830</ele>
        <time>2021-08-19T14:56:20Z</time>
      </trkpt>
      <trkpt lat="41.772538" lon="0.835610">
        <ele>233.568</ele>
        <time>2021-08-19T14:56:22Z</time>
      </trkpt>
      <trkpt lat="41.772596" lon="0.835561">
        <ele>233.417</ele>
        <time>2021-08-19T14:56:24Z</time>
      </trkpt>
      <trkpt lat="41.772655" lon="0.835512">
        <ele>233.586</ele>
        <time>2021-08-19T14:56:26Z</time>
      </trkpt>
      <trkpt lat="41.772713" lon="0.835463">
        <ele>233.526</ele>
        <time>2021-08-19T14:56:28Z</time>
      </trkpt>
      <trkpt lat="41.772772" lon="0.835418">
        <ele>233.547</ele>
        <time>2021-08-19T14:56:30Z</time>
      </trkpt>
      <trkpt lat="41.772829" lon="0.835369">
        <ele>233.511</ele>
        <time>2021-08-19T14:56:32Z</time>
      </trkpt>
      <trkpt lat="41.772887" lon="0.835319">
        <ele>233.508</ele>
        <time>2021-08-19T14:56:34Z</time>
      </trkpt>
      <trkpt lat="41.772945" lon="0.835275">
        <ele>233.630</ele>
        <time>2021-08-19T14:56:36Z</time>
      </trkpt>
      <trkpt lat="41.773000" lon="0.835225">
        <ele>233.833</ele>
        <time>2021-08-19T14:56:38Z</time>
      </trkpt>
      <trkpt lat="41.773052" lon="0.835180">
        <ele>234.016</ele>
        <time>2021-08-19T14:56:40Z</time>
      </trkpt>
      <trkpt lat="41.773105" lon="0.835133">
        <ele>234.367</ele>
        <time>2021-08-19T14:56:42Z</time>
      </trkpt>
      <trkpt lat="41.773161" lon="0.835086">
        <ele>234.524</ele>
        <time>2021-08-19T14:56:44Z</time>
      </trkpt>
      <trkpt lat="41.773208" lon="0.835046">
        <ele>234.682</ele>
        <time>2021-08-19T14:56:46Z</time>
      </trkpt>
      <trkpt lat="41.773248" lon="0.835011">
        <ele>234.741</ele>
        <time>2021-08-19T14:56:47Z</time>
      </trkpt>
      <trkpt lat="41.773307" lon="0.834954">
        <ele>234.950</ele>
        <time>2021-08-19T14:56:49Z</time>
      </trkpt>
      <trkpt lat="41.773364" lon="0.834906">
        <ele>235.278</ele>
        <time>2021-08-19T14:56:51Z</time>
      </trkpt>
      <trkpt lat="41.773414" lon="0.834860">
        <ele>235.433</ele>
        <time>2021-08-19T14:56:53Z</time>
      </trkpt>
      <trkpt lat="41.773466" lon="0.834813">
        <ele>235.626</ele>
        <time>2021-08-19T14:56:55Z</time>
      </trkpt>
      <trkpt lat="41.773517" lon="0.834772">
        <ele>235.808</ele>
        <time>2021-08-19T14:56:57Z</time>
      </trkpt>
      <trkpt lat="41.773568" lon="0.834726">
        <ele>235.935</ele>
        <time>2021-08-19T14:56:59Z</time>
      </trkpt>
      <trkpt lat="41.773614" lon="0.834673">
        <ele>235.878</ele>
        <time>2021-08-19T14:57:01Z</time>
      </trkpt>
      <trkpt lat="41.773663" lon="0.834629">
        <ele>235.471</ele>
        <time>2021-08-19T14:57:03Z</time>
      </trkpt>
      <trkpt lat="41.773717" lon="0.834600">
        <ele>235.042</ele>
        <time>2021-08-19T14:57:05Z</time>
      </trkpt>
      <trkpt lat="41.773760" lon="0.834562">
        <ele>234.729</ele>
        <time>2021-08-19T14:57:07Z</time>
      </trkpt>
      <trkpt lat="41.773811" lon="0.834518">
        <ele>234.427</ele>
        <time>2021-08-19T14:57:10Z</time>
      </trkpt>
      <trkpt lat="41.773859" lon="0.834465">
        <ele>234.196</ele>
        <time>2021-08-19T14:57:13Z</time>
      </trkpt>
      <trkpt lat="41.773893" lon="0.834425">
        <ele>234.015</ele>
        <time>2021-08-19T14:57:15Z</time>
      </trkpt>
      <trkpt lat="41.773944" lon="0.834372">
        <ele>233.789</ele>
        <time>2021-08-19T14:57:17Z</time>
      </trkpt>
      <trkpt lat="41.773994" lon="0.834321">
        <ele>233.406</ele>
        <time>2021-08-19T14:57:19Z</time>
      </trkpt>
      <trkpt lat="41.774040" lon="0.834278">
        <ele>233.226</ele>
        <time>2021-08-19T14:57:21Z</time>
      </trkpt>
      <trkpt lat="41.774085" lon="0.834231">
        <ele>233.108</ele>
        <time>2021-08-19T14:57:23Z</time>
      </trkpt>
      <trkpt lat="41.774124" lon="0.834179">
        <ele>233.186</ele>
        <time>2021-08-19T14:57:25Z</time>
      </trkpt>
      <trkpt lat="41.774168" lon="0.834129">
        <ele>233.149</ele>
        <time>2021-08-19T14:57:27Z</time>
      </trkpt>
      <trkpt lat="41.774220" lon="0.834104">
        <ele>233.482</ele>
        <time>2021-08-19T14:57:29Z</time>
      </trkpt>
      <trkpt lat="41.774264" lon="0.834069">
        <ele>233.653</ele>
        <time>2021-08-19T14:57:31Z</time>
      </trkpt>
      <trkpt lat="41.774301" lon="0.834028">
        <ele>233.750</ele>
        <time>2021-08-19T14:57:33Z</time>
      </trkpt>
      <trkpt lat="41.774343" lon="0.833990">
        <ele>233.938</ele>
        <time>2021-08-19T14:57:35Z</time>
      </trkpt>
      <trkpt lat="41.774392" lon="0.833950">
        <ele>234.027</ele>
        <time>2021-08-19T14:57:37Z</time>
      </trkpt>
      <trkpt lat="41.774444" lon="0.833919">
        <ele>234.026</ele>
        <time>2021-08-19T14:57:39Z</time>
      </trkpt>
      <trkpt lat="41.774492" lon="0.833880">
        <ele>234.245</ele>
        <time>2021-08-19T14:57:41Z</time>
      </trkpt>
      <trkpt lat="41.774542" lon="0.833839">
        <ele>234.347</ele>
        <time>2021-08-19T14:57:43Z</time>
      </trkpt>
      <trkpt lat="41.774594" lon="0.833797">
        <ele>234.411</ele>
        <time>2021-08-19T14:57:46Z</time>
      </trkpt>
      <trkpt lat="41.774632" lon="0.833761">
        <ele>234.408</ele>
        <time>2021-08-19T14:57:47Z</time>
      </trkpt>
      <trkpt lat="41.774683" lon="0.833725">
        <ele>234.442</ele>
        <time>2021-08-19T14:57:49Z</time>
      </trkpt>
      <trkpt lat="41.774735" lon="0.833683">
        <ele>234.315</ele>
        <time>2021-08-19T14:57:51Z</time>
      </trkpt>
      <trkpt lat="41.774793" lon="0.833626">
        <ele>234.128</ele>
        <time>2021-08-19T14:57:53Z</time>
      </trkpt>
      <trkpt lat="41.774849" lon="0.833585">
        <ele>233.929</ele>
        <time>2021-08-19T14:57:55Z</time>
      </trkpt>
      <trkpt lat="41.774892" lon="0.833533">
        <ele>233.976</ele>
        <time>2021-08-19T14:57:57Z</time>
      </trkpt>
      <trkpt lat="41.774938" lon="0.833476">
        <ele>233.914</ele>
        <time>2021-08-19T14:57:59Z</time>
      </trkpt>
      <trkpt lat="41.774997" lon="0.833435">
        <ele>234.073</ele>
        <time>2021-08-19T14:58:01Z</time>
      </trkpt>
      <trkpt lat="41.775051" lon="0.833383">
        <ele>234.232</ele>
        <time>2021-08-19T14:58:03Z</time>
      </trkpt>
      <trkpt lat="41.775104" lon="0.833329">
        <ele>234.448</ele>
        <time>2021-08-19T14:58:05Z</time>
      </trkpt>
      <trkpt lat="41.775157" lon="0.833280">
        <ele>234.661</ele>
        <time>2021-08-19T14:58:07Z</time>
      </trkpt>
      <trkpt lat="41.775214" lon="0.833236">
        <ele>234.817</ele>
        <time>2021-08-19T14:58:09Z</time>
      </trkpt>
      <trkpt lat="41.775269" lon="0.833197">
        <ele>235.008</ele>
        <time>2021-08-19T14:58:11Z</time>
      </trkpt>
      <trkpt lat="41.775322" lon="0.833151">
        <ele>235.012</ele>
        <time>2021-08-19T14:58:13Z</time>
      </trkpt>
      <trkpt lat="41.775367" lon="0.833120">
        <ele>235.075</ele>
        <time>2021-08-19T14:58:15Z</time>
      </trkpt>
      <trkpt lat="41.775423" lon="0.833075">
        <ele>235.068</ele>
        <time>2021-08-19T14:58:17Z</time>
      </trkpt>
      <trkpt lat="41.775468" lon="0.833028">
        <ele>235.019</ele>
        <time>2021-08-19T14:58:19Z</time>
      </trkpt>
      <trkpt lat="41.775531" lon="0.832996">
        <ele>235.066</ele>
        <time>2021-08-19T14:58:22Z</time>
      </trkpt>
      <trkpt lat="41.775582" lon="0.832971">
        <ele>234.984</ele>
        <time>2021-08-19T14:58:24Z</time>
      </trkpt>
      <trkpt lat="41.775624" lon="0.832927">
        <ele>234.853</ele>
        <time>2021-08-19T14:58:26Z</time>
      </trkpt>
      <trkpt lat="41.775669" lon="0.832893">
        <ele>234.632</ele>
        <time>2021-08-19T14:58:28Z</time>
      </trkpt>
      <trkpt lat="41.775708" lon="0.832857">
        <ele>234.574</ele>
        <time>2021-08-19T14:58:30Z</time>
      </trkpt>
      <trkpt lat="41.775758" lon="0.832824">
        <ele>234.356</ele>
        <time>2021-08-19T14:58:32Z</time>
      </trkpt>
      <trkpt lat="41.775803" lon="0.832788">
        <ele>234.121</ele>
        <time>2021-08-19T14:58:34Z</time>
      </trkpt>
      <trkpt lat="41.775854" lon="0.832764">
        <ele>234.108</ele>
        <time>2021-08-19T14:58:37Z</time>
      </trkpt>
      <trkpt lat="41.775904" lon="0.832758">
        <ele>234.125</ele>
        <time>2021-08-19T14:58:57Z</time>
      </trkpt>
      <trkpt lat="41.775955" lon="0.832744">
        <ele>234.188</ele>
        <time>2021-08-19T14:59:00Z</time>
      </trkpt>
      <trkpt lat="41.776000" lon="0.832710">
        <ele>234.241</ele>
        <time>2021-08-19T14:59:02Z</time>
      </trkpt>
      <trkpt lat="41.776036" lon="0.832659">
        <ele>234.422</ele>
        <time>2021-08-19T14:59:04Z</time>
      </trkpt>
      <trkpt lat="41.776081" lon="0.832615">
        <ele>234.679</ele>
        <time>2021-08-19T14:59:06Z</time>
      </trkpt>
      <trkpt lat="41.776137" lon="0.832590">
        <ele>234.777</ele>
        <time>2021-08-19T14:59:09Z</time>
      </trkpt>
      <trkpt lat="41.776181" lon="0.832554">
        <ele>234.986</ele>
        <time>2021-08-19T14:59:12Z</time>
      </trkpt>
      <trkpt lat="41.776227" lon="0.832515">
        <ele>235.075</ele>
        <time>2021-08-19T14:59:15Z</time>
      </trkpt>
      <trkpt lat="41.776273" lon="0.832502">
        <ele>235.065</ele>
        <time>2021-08-19T15:00:23Z</time>
      </trkpt>
      <trkpt lat="41.776321" lon="0.832465">
        <ele>235.168</ele>
        <time>2021-08-19T15:00:26Z</time>
      </trkpt>
      <trkpt lat="41.776361" lon="0.832438">
        <ele>235.214</ele>
        <time>2021-08-19T15:00:28Z</time>
      </trkpt>
      <trkpt lat="41.776414" lon="0.832404">
        <ele>235.408</ele>
        <time>2021-08-19T15:00:30Z</time>
      </trkpt>
      <trkpt lat="41.776472" lon="0.832373">
        <ele>235.694</ele>
        <time>2021-08-19T15:00:32Z</time>
      </trkpt>
      <trkpt lat="41.776528" lon="0.832329">
        <ele>235.867</ele>
        <time>2021-08-19T15:00:34Z</time>
      </trkpt>
      <trkpt lat="41.776592" lon="0.832280">
        <ele>235.980</ele>
        <time>2021-08-19T15:00:36Z</time>
      </trkpt>
      <trkpt lat="41.776654" lon="0.832231">
        <ele>236.061</ele>
        <time>2021-08-19T15:00:38Z</time>
      </trkpt>
      <trkpt lat="41.776703" lon="0.832184">
        <ele>236.178</ele>
        <time>2021-08-19T15:00:40Z</time>
      </trkpt>
      <trkpt lat="41.776749" lon="0.832145">
        <ele>236.376</ele>
        <time>2021-08-19T15:00:42Z</time>
      </trkpt>
      <trkpt lat="41.776791" lon="0.832114">
        <ele>236.435</ele>
        <time>2021-08-19T15:00:44Z</time>
      </trkpt>
      <trkpt lat="41.776842" lon="0.832078">
        <ele>236.514</ele>
        <time>2021-08-19T15:00:46Z</time>
      </trkpt>
      <trkpt lat="41.776893" lon="0.832051">
        <ele>236.623</ele>
        <time>2021-08-19T15:00:48Z</time>
      </trkpt>
      <trkpt lat="41.776946" lon="0.832014">
        <ele>236.783</ele>
        <time>2021-08-19T15:00:50Z</time>
      </trkpt>
      <trkpt lat="41.776999" lon="0.831969">
        <ele>236.711</ele>
        <time>2021-08-19T15:00:52Z</time>
      </trkpt>
      <trkpt lat="41.777049" lon="0.831936">
        <ele>236.608</ele>
        <time>2021-08-19T15:00:54Z</time>
      </trkpt>
      <trkpt lat="41.777102" lon="0.831894">
        <ele>236.520</ele>
        <time>2021-08-19T15:00:56Z</time>
      </trkpt>
      <trkpt lat="41.777154" lon="0.831851">
        <ele>236.353</ele>
        <time>2021-08-19T15:00:58Z</time>
      </trkpt>
      <trkpt lat="41.777209" lon="0.831810">
        <ele>236.116</ele>
        <time>2021-08-19T15:01:00Z</time>
      </trkpt>
      <trkpt lat="41.777265" lon="0.831771">
        <ele>235.827</ele>
        <time>2021-08-19T15:01:02Z</time>
      </trkpt>
      <trkpt lat="41.777319" lon="0.831726">
        <ele>235.654</ele>
        <time>2021-08-19T15:01:04Z</time>
      </trkpt>
      <trkpt lat="41.777370" lon="0.831691">
        <ele>235.462</ele>
        <time>2021-08-19T15:01:06Z</time>
      </trkpt>
      <trkpt lat="41.777422" lon="0.831660">
        <ele>235.351</ele>
        <time>2021-08-19T15:01:08Z</time>
      </trkpt>
      <trkpt lat="41.777482" lon="0.831636">
        <ele>235.120</ele>
        <time>2021-08-19T15:01:10Z</time>
      </trkpt>
      <trkpt lat="41.777534" lon="0.831600">
        <ele>235.084</ele>
        <time>2021-08-19T15:01:12Z</time>
      </trkpt>
      <trkpt lat="41.777576" lon="0.831566">
        <ele>235.007</ele>
        <time>2021-08-19T15:01:14Z</time>
      </trkpt>
      <trkpt lat="41.777644" lon="0.831518">
        <ele>235.017</ele>
        <time>2021-08-19T15:01:16Z</time>
      </trkpt>
      <trkpt lat="41.777700" lon="0.831482">
        <ele>235.008</ele>
        <time>2021-08-19T15:01:18Z</time>
      </trkpt>
      <trkpt lat="41.777743" lon="0.831450">
        <ele>235.076</ele>
        <time>2021-08-19T15:01:20Z</time>
      </trkpt>
      <trkpt lat="41.777791" lon="0.831410">
        <ele>235.019</ele>
        <time>2021-08-19T15:01:22Z</time>
      </trkpt>
      <trkpt lat="41.777845" lon="0.831374">
        <ele>235.252</ele>
        <time>2021-08-19T15:01:24Z</time>
      </trkpt>
      <trkpt lat="41.777894" lon="0.831328">
        <ele>235.383</ele>
        <time>2021-08-19T15:01:26Z</time>
      </trkpt>
      <trkpt lat="41.777944" lon="0.831289">
        <ele>235.430</ele>
        <time>2021-08-19T15:01:28Z</time>
      </trkpt>
      <trkpt lat="41.777989" lon="0.831243">
        <ele>235.498</ele>
        <time>2021-08-19T15:01:30Z</time>
      </trkpt>
      <trkpt lat="41.778032" lon="0.831198">
        <ele>235.357</ele>
        <time>2021-08-19T15:01:32Z</time>
      </trkpt>
      <trkpt lat="41.778084" lon="0.831167">
        <ele>235.376</ele>
        <time>2021-08-19T15:01:34Z</time>
      </trkpt>
      <trkpt lat="41.778130" lon="0.831125">
        <ele>235.367</ele>
        <time>2021-08-19T15:01:36Z</time>
      </trkpt>
      <trkpt lat="41.778176" lon="0.831083">
        <ele>235.481</ele>
        <time>2021-08-19T15:01:38Z</time>
      </trkpt>
      <trkpt lat="41.778219" lon="0.831043">
        <ele>235.419</ele>
        <time>2021-08-19T15:01:40Z</time>
      </trkpt>
      <trkpt lat="41.778267" lon="0.831012">
        <ele>235.508</ele>
        <time>2021-08-19T15:01:42Z</time>
      </trkpt>
      <trkpt lat="41.778301" lon="0.830972">
        <ele>235.424</ele>
        <time>2021-08-19T15:01:44Z</time>
      </trkpt>
      <trkpt lat="41.778347" lon="0.830928">
        <ele>235.497</ele>
        <time>2021-08-19T15:01:46Z</time>
      </trkpt>
      <trkpt lat="41.778392" lon="0.830885">
        <ele>235.480</ele>
        <time>2021-08-19T15:01:48Z</time>
      </trkpt>
      <trkpt lat="41.778440" lon="0.830842">
        <ele>235.411</ele>
        <time>2021-08-19T15:01:50Z</time>
      </trkpt>
      <trkpt lat="41.778479" lon="0.830788">
        <ele>235.638</ele>
        <time>2021-08-19T15:01:52Z</time>
      </trkpt>
      <trkpt lat="41.778527" lon="0.830748">
        <ele>235.986</ele>
        <time>2021-08-19T15:01:54Z</time>
      </trkpt>
      <trkpt lat="41.778570" lon="0.830710">
        <ele>236.215</ele>
        <time>2021-08-19T15:01:56Z</time>
      </trkpt>
      <trkpt lat="41.778613" lon="0.830667">
        <ele>236.624</ele>
        <time>2021-08-19T15:01:58Z</time>
      </trkpt>
      <trkpt lat="41.778656" lon="0.830621">
        <ele>236.952</ele>
        <time>2021-08-19T15:02:00Z</time>
      </trkpt>
      <trkpt lat="41.778704" lon="0.830580">
        <ele>237.253</ele>
        <time>2021-08-19T15:02:02Z</time>
      </trkpt>
      <trkpt lat="41.778747" lon="0.830533">
        <ele>237.608</ele>
        <time>2021-08-19T15:02:04Z</time>
      </trkpt>
      <trkpt lat="41.778789" lon="0.830486">
        <ele>237.908</ele>
        <time>2021-08-19T15:02:06Z</time>
      </trkpt>
      <trkpt lat="41.778838" lon="0.830446">
        <ele>238.273</ele>
        <time>2021-08-19T15:02:08Z</time>
      </trkpt>
      <trkpt lat="41.778884" lon="0.830410">
        <ele>238.526</ele>
        <time>2021-08-19T15:02:10Z</time>
      </trkpt>
      <trkpt lat="41.778931" lon="0.830373">
        <ele>238.589</ele>
        <time>2021-08-19T15:02:12Z</time>
      </trkpt>
      <trkpt lat="41.778992" lon="0.830307">
        <ele>238.250</ele>
        <time>2021-08-19T15:02:15Z</time>
      </trkpt>
      <trkpt lat="41.779035" lon="0.830255">
        <ele>237.987</ele>
        <time>2021-08-19T15:02:17Z</time>
      </trkpt>
      <trkpt lat="41.779081" lon="0.830218">
        <ele>237.415</ele>
        <time>2021-08-19T15:02:19Z</time>
      </trkpt>
      <trkpt lat="41.779124" lon="0.830171">
        <ele>236.984</ele>
        <time>2021-08-19T15:02:21Z</time>
      </trkpt>
      <trkpt lat="41.779169" lon="0.830129">
        <ele>236.443</ele>
        <time>2021-08-19T15:02:23Z</time>
      </trkpt>
      <trkpt lat="41.779215" lon="0.830090">
        <ele>236.072</ele>
        <time>2021-08-19T15:02:25Z</time>
      </trkpt>
      <trkpt lat="41.779260" lon="0.830047">
        <ele>235.513</ele>
        <time>2021-08-19T15:02:27Z</time>
      </trkpt>
      <trkpt lat="41.779302" lon="0.830006">
        <ele>235.014</ele>
        <time>2021-08-19T15:02:29Z</time>
      </trkpt>
      <trkpt lat="41.779347" lon="0.829962">
        <ele>234.708</ele>
        <time>2021-08-19T15:02:31Z</time>
      </trkpt>
      <trkpt lat="41.779388" lon="0.829918">
        <ele>234.495</ele>
        <time>2021-08-19T15:02:33Z</time>
      </trkpt>
      <trkpt lat="41.779431" lon="0.829878">
        <ele>234.128</ele>
        <time>2021-08-19T15:02:35Z</time>
      </trkpt>
      <trkpt lat="41.779480" lon="0.829843">
        <ele>233.921</ele>
        <time>2021-08-19T15:02:37Z</time>
      </trkpt>
      <trkpt lat="41.779523" lon="0.829795">
        <ele>233.922</ele>
        <time>2021-08-19T15:02:39Z</time>
      </trkpt>
      <trkpt lat="41.779565" lon="0.829750">
        <ele>234.039</ele>
        <time>2021-08-19T15:02:41Z</time>
      </trkpt>
      <trkpt lat="41.779607" lon="0.829718">
        <ele>234.067</ele>
        <time>2021-08-19T15:02:43Z</time>
      </trkpt>
      <trkpt lat="41.779656" lon="0.829675">
        <ele>234.086</ele>
        <time>2021-08-19T15:02:45Z</time>
      </trkpt>
      <trkpt lat="41.779701" lon="0.829631">
        <ele>234.025</ele>
        <time>2021-08-19T15:02:47Z</time>
      </trkpt>
      <trkpt lat="41.779748" lon="0.829589">
        <ele>234.034</ele>
        <time>2021-08-19T15:02:49Z</time>
      </trkpt>
      <trkpt lat="41.779795" lon="0.829548">
        <ele>234.055</ele>
        <time>2021-08-19T15:02:51Z</time>
      </trkpt>
      <trkpt lat="41.779839" lon="0.829504">
        <ele>234.010</ele>
        <time>2021-08-19T15:02:53Z</time>
      </trkpt>
      <trkpt lat="41.779878" lon="0.829457">
        <ele>234.008</ele>
        <time>2021-08-19T15:02:55Z</time>
      </trkpt>
      <trkpt lat="41.779920" lon="0.829419">
        <ele>234.081</ele>
        <time>2021-08-19T15:02:57Z</time>
      </trkpt>
      <trkpt lat="41.779960" lon="0.829389">
        <ele>234.014</ele>
        <time>2021-08-19T15:02:59Z</time>
      </trkpt>
      <trkpt lat="41.779993" lon="0.829344">
        <ele>234.047</ele>
        <time>2021-08-19T15:03:01Z</time>
      </trkpt>
      <trkpt lat="41.780054" lon="0.829297">
        <ele>234.038</ele>
        <time>2021-08-19T15:03:04Z</time>
      </trkpt>
      <trkpt lat="41.780095" lon="0.829260">
        <ele>234.095</ele>
        <time>2021-08-19T15:03:06Z</time>
      </trkpt>
      <trkpt lat="41.780134" lon="0.829219">
        <ele>234.013</ele>
        <time>2021-08-19T15:03:08Z</time>
      </trkpt>
      <trkpt lat="41.780171" lon="0.829182">
        <ele>234.072</ele>
        <time>2021-08-19T15:03:10Z</time>
      </trkpt>
      <trkpt lat="41.780214" lon="0.829137">
        <ele>234.291</ele>
        <time>2021-08-19T15:03:13Z</time>
      </trkpt>
      <trkpt lat="41.780253" lon="0.829106">
        <ele>234.457</ele>
        <time>2021-08-19T15:03:15Z</time>
      </trkpt>
      <trkpt lat="41.780291" lon="0.829060">
        <ele>234.800</ele>
        <time>2021-08-19T15:03:18Z</time>
      </trkpt>
      <trkpt lat="41.780347" lon="0.829014">
        <ele>235.320</ele>
        <time>2021-08-19T15:03:21Z</time>
      </trkpt>
      <trkpt lat="41.780393" lon="0.828975">
        <ele>235.808</ele>
        <time>2021-08-19T15:03:24Z</time>
      </trkpt>
      <trkpt lat="41.780441" lon="0.828935">
        <ele>236.333</ele>
        <time>2021-08-19T15:03:27Z</time>
      </trkpt>
      <trkpt lat="41.780487" lon="0.828880">
        <ele>236.866</ele>
        <time>2021-08-19T15:03:30Z</time>
      </trkpt>
      <trkpt lat="41.780530" lon="0.828829">
        <ele>237.389</ele>
        <time>2021-08-19T15:03:33Z</time>
      </trkpt>
      <trkpt lat="41.780587" lon="0.828784">
        <ele>237.810</ele>
        <time>2021-08-19T15:03:36Z</time>
      </trkpt>
      <trkpt lat="41.780622" lon="0.828740">
        <ele>238.197</ele>
        <time>2021-08-19T15:03:38Z</time>
      </trkpt>
      <trkpt lat="41.780661" lon="0.828708">
        <ele>238.325</ele>
        <time>2021-08-19T15:03:40Z</time>
      </trkpt>
      <trkpt lat="41.780703" lon="0.828682">
        <ele>238.534</ele>
        <time>2021-08-19T15:03:42Z</time>
      </trkpt>
      <trkpt lat="41.780755" lon="0.828617">
        <ele>239.033</ele>
        <time>2021-08-19T15:03:45Z</time>
      </trkpt>
      <trkpt lat="41.780798" lon="0.828581">
        <ele>239.146</ele>
        <time>2021-08-19T15:03:47Z</time>
      </trkpt>
      <trkpt lat="41.780837" lon="0.828536">
        <ele>239.288</ele>
        <time>2021-08-19T15:03:49Z</time>
      </trkpt>
      <trkpt lat="41.780878" lon="0.828496">
        <ele>239.116</ele>
        <time>2021-08-19T15:03:51Z</time>
      </trkpt>
      <trkpt lat="41.780917" lon="0.828454">
        <ele>239.008</ele>
        <time>2021-08-19T15:03:53Z</time>
      </trkpt>
      <trkpt lat="41.780953" lon="0.828417">
        <ele>238.882</ele>
        <time>2021-08-19T15:03:55Z</time>
      </trkpt>
      <trkpt lat="41.780992" lon="0.828386">
        <ele>238.775</ele>
        <time>2021-08-19T15:03:56Z</time>
      </trkpt>
      <trkpt lat="41.781032" lon="0.828350">
        <ele>238.538</ele>
        <time>2021-08-19T15:03:58Z</time>
      </trkpt>
      <trkpt lat="41.781073" lon="0.828314">
        <ele>238.349</ele>
        <time>2021-08-19T15:04:00Z</time>
      </trkpt>
      <trkpt lat="41.781113" lon="0.828268">
        <ele>238.066</ele>
        <time>2021-08-19T15:04:02Z</time>
      </trkpt>
      <trkpt lat="41.781154" lon="0.828224">
        <ele>237.974</ele>
        <time>2021-08-19T15:04:04Z</time>
      </trkpt>
      <trkpt lat="41.781197" lon="0.828182">
        <ele>237.923</ele>
        <time>2021-08-19T15:04:06Z</time>
      </trkpt>
      <trkpt lat="41.781242" lon="0.828149">
        <ele>237.822</ele>
        <time>2021-08-19T15:04:08Z</time>
      </trkpt>
      <trkpt lat="41.781284" lon="0.828113">
        <ele>237.921</ele>
        <time>2021-08-19T15:04:10Z</time>
      </trkpt>
      <trkpt lat="41.781322" lon="0.828072">
        <ele>238.041</ele>
        <time>2021-08-19T15:04:12Z</time>
      </trkpt>
      <trkpt lat="41.781359" lon="0.828033">
        <ele>238.105</ele>
        <time>2021-08-19T15:04:14Z</time>
      </trkpt>
      <trkpt lat="41.781407" lon="0.827992">
        <ele>238.208</ele>
        <time>2021-08-19T15:04:16Z</time>
      </trkpt>
      <trkpt lat="41.781451" lon="0.827951">
        <ele>238.350</ele>
        <time>2021-08-19T15:04:18Z</time>
      </trkpt>
      <trkpt lat="41.781497" lon="0.827916">
        <ele>238.393</ele>
        <time>2021-08-19T15:04:20Z</time>
      </trkpt>
      <trkpt lat="41.781540" lon="0.827875">
        <ele>238.326</ele>
        <time>2021-08-19T15:04:22Z</time>
      </trkpt>
      <trkpt lat="41.781586" lon="0.827830">
        <ele>238.297</ele>
        <time>2021-08-19T15:04:24Z</time>
      </trkpt>
      <trkpt lat="41.781634" lon="0.827788">
        <ele>238.184</ele>
        <time>2021-08-19T15:04:26Z</time>
      </trkpt>
      <trkpt lat="41.781677" lon="0.827749">
        <ele>238.072</ele>
        <time>2021-08-19T15:04:28Z</time>
      </trkpt>
      <trkpt lat="41.781719" lon="0.827710">
        <ele>237.881</ele>
        <time>2021-08-19T15:04:30Z</time>
      </trkpt>
      <trkpt lat="41.781762" lon="0.827669">
        <ele>237.570</ele>
        <time>2021-08-19T15:04:32Z</time>
      </trkpt>
      <trkpt lat="41.781806" lon="0.827631">
        <ele>237.253</ele>
        <time>2021-08-19T15:04:34Z</time>
      </trkpt>
      <trkpt lat="41.781863" lon="0.827571">
        <ele>236.804</ele>
        <time>2021-08-19T15:04:37Z</time>
      </trkpt>
      <trkpt lat="41.781900" lon="0.827525">
        <ele>236.414</ele>
        <time>2021-08-19T15:04:39Z</time>
      </trkpt>
      <trkpt lat="41.781941" lon="0.827475">
        <ele>236.008</ele>
        <time>2021-08-19T15:04:41Z</time>
      </trkpt>
      <trkpt lat="41.781984" lon="0.827436">
        <ele>236.183</ele>
        <time>2021-08-19T15:04:43Z</time>
      </trkpt>
      <trkpt lat="41.782019" lon="0.827398">
        <ele>236.336</ele>
        <time>2021-08-19T15:04:45Z</time>
      </trkpt>
      <trkpt lat="41.782066" lon="0.827354">
        <ele>236.499</ele>
        <time>2021-08-19T15:04:47Z</time>
      </trkpt>
      <trkpt lat="41.782104" lon="0.827304">
        <ele>236.640</ele>
        <time>2021-08-19T15:04:49Z</time>
      </trkpt>
      <trkpt lat="41.782142" lon="0.827258">
        <ele>236.787</ele>
        <time>2021-08-19T15:04:51Z</time>
      </trkpt>
      <trkpt lat="41.782181" lon="0.827211">
        <ele>236.875</ele>
        <time>2021-08-19T15:04:53Z</time>
      </trkpt>
      <trkpt lat="41.782223" lon="0.827161">
        <ele>236.894</ele>
        <time>2021-08-19T15:04:55Z</time>
      </trkpt>
      <trkpt lat="41.782266" lon="0.827114">
        <ele>236.983</ele>
        <time>2021-08-19T15:04:57Z</time>
      </trkpt>
      <trkpt lat="41.782307" lon="0.827066">
        <ele>237.057</ele>
        <time>2021-08-19T15:04:59Z</time>
      </trkpt>
      <trkpt lat="41.782342" lon="0.827017">
        <ele>237.100</ele>
        <time>2021-08-19T15:05:01Z</time>
      </trkpt>
      <trkpt lat="41.782379" lon="0.826968">
        <ele>237.220</ele>
        <time>2021-08-19T15:05:03Z</time>
      </trkpt>
      <trkpt lat="41.782419" lon="0.826917">
        <ele>237.408</ele>
        <time>2021-08-19T15:05:05Z</time>
      </trkpt>
      <trkpt lat="41.782458" lon="0.826868">
        <ele>237.743</ele>
        <time>2021-08-19T15:05:07Z</time>
      </trkpt>
      <trkpt lat="41.782494" lon="0.826812">
        <ele>238.016</ele>
        <time>2021-08-19T15:05:09Z</time>
      </trkpt>
      <trkpt lat="41.782531" lon="0.826760">
        <ele>238.359</ele>
        <time>2021-08-19T15:05:11Z</time>
      </trkpt>
      <trkpt lat="41.782565" lon="0.826701">
        <ele>238.780</ele>
        <time>2021-08-19T15:05:13Z</time>
      </trkpt>
      <trkpt lat="41.782599" lon="0.826658">
        <ele>239.157</ele>
        <time>2021-08-19T15:05:15Z</time>
      </trkpt>
      <trkpt lat="41.782637" lon="0.826602">
        <ele>239.835</ele>
        <time>2021-08-19T15:05:17Z</time>
      </trkpt>
      <trkpt lat="41.782670" lon="0.826543">
        <ele>240.654</ele>
        <time>2021-08-19T15:05:19Z</time>
      </trkpt>
      <trkpt lat="41.782701" lon="0.826486">
        <ele>241.393</ele>
        <time>2021-08-19T15:05:21Z</time>
      </trkpt>
      <trkpt lat="41.782724" lon="0.826422">
        <ele>242.045</ele>
        <time>2021-08-19T15:05:23Z</time>
      </trkpt>
      <trkpt lat="41.782739" lon="0.826357">
        <ele>242.547</ele>
        <time>2021-08-19T15:05:25Z</time>
      </trkpt>
      <trkpt lat="41.782745" lon="0.826286">
        <ele>242.611</ele>
        <time>2021-08-19T15:05:27Z</time>
      </trkpt>
      <trkpt lat="41.782739" lon="0.826214">
        <ele>242.508</ele>
        <time>2021-08-19T15:05:29Z</time>
      </trkpt>
      <trkpt lat="41.782734" lon="0.826143">
        <ele>242.542</ele>
        <time>2021-08-19T15:05:31Z</time>
      </trkpt>
      <trkpt lat="41.782733" lon="0.826063">
        <ele>242.435</ele>
        <time>2021-08-19T15:05:33Z</time>
      </trkpt>
      <trkpt lat="41.782727" lon="0.825978">
        <ele>242.158</ele>
        <time>2021-08-19T15:05:35Z</time>
      </trkpt>
      <trkpt lat="41.782726" lon="0.825899">
        <ele>241.839</ele>
        <time>2021-08-19T15:05:37Z</time>
      </trkpt>
      <trkpt lat="41.782729" lon="0.825827">
        <ele>241.636</ele>
        <time>2021-08-19T15:05:39Z</time>
      </trkpt>
      <trkpt lat="41.782733" lon="0.825766">
        <ele>241.364</ele>
        <time>2021-08-19T15:05:41Z</time>
      </trkpt>
      <trkpt lat="41.782750" lon="0.825696">
        <ele>240.913</ele>
        <time>2021-08-19T15:05:44Z</time>
      </trkpt>
      <trkpt lat="41.782807" lon="0.825679">
        <ele>241.042</ele>
        <time>2021-08-19T15:05:47Z</time>
      </trkpt>
      <trkpt lat="41.782864" lon="0.825697">
        <ele>241.379</ele>
        <time>2021-08-19T15:05:50Z</time>
      </trkpt>
      <trkpt lat="41.782911" lon="0.825725">
        <ele>241.705</ele>
        <time>2021-08-19T15:05:53Z</time>
      </trkpt>
      <trkpt lat="41.782944" lon="0.825789">
        <ele>242.325</ele>
        <time>2021-08-19T15:05:57Z</time>
      </trkpt>
      <trkpt lat="41.783003" lon="0.825798">
        <ele>242.608</ele>
        <time>2021-08-19T15:05:59Z</time>
      </trkpt>
      <trkpt lat="41.783054" lon="0.825850">
        <ele>243.175</ele>
        <time>2021-08-19T15:06:01Z</time>
      </trkpt>
      <trkpt lat="41.783101" lon="0.825889">
        <ele>242.818</ele>
        <time>2021-08-19T15:06:03Z</time>
      </trkpt>
      <trkpt lat="41.783142" lon="0.825938">
        <ele>242.691</ele>
        <time>2021-08-19T15:06:05Z</time>
      </trkpt>
      <trkpt lat="41.783186" lon="0.825992">
        <ele>242.422</ele>
        <time>2021-08-19T15:06:07Z</time>
      </trkpt>
      <trkpt lat="41.783228" lon="0.826029">
        <ele>242.059</ele>
        <time>2021-08-19T15:06:09Z</time>
      </trkpt>
      <trkpt lat="41.783266" lon="0.826073">
        <ele>241.727</ele>
        <time>2021-08-19T15:06:11Z</time>
      </trkpt>
      <trkpt lat="41.783294" lon="0.826134">
        <ele>241.326</ele>
        <time>2021-08-19T15:06:13Z</time>
      </trkpt>
      <trkpt lat="41.783339" lon="0.826210">
        <ele>240.655</ele>
        <time>2021-08-19T15:06:16Z</time>
      </trkpt>
      <trkpt lat="41.783372" lon="0.826264">
        <ele>240.037</ele>
        <time>2021-08-19T15:06:18Z</time>
      </trkpt>
      <trkpt lat="41.783410" lon="0.826307">
        <ele>239.549</ele>
        <time>2021-08-19T15:06:20Z</time>
      </trkpt>
      <trkpt lat="41.783456" lon="0.826366">
        <ele>238.813</ele>
        <time>2021-08-19T15:06:23Z</time>
      </trkpt>
      <trkpt lat="41.783482" lon="0.826416">
        <ele>238.308</ele>
        <time>2021-08-19T15:06:25Z</time>
      </trkpt>
      <trkpt lat="41.783517" lon="0.826459">
        <ele>237.951</ele>
        <time>2021-08-19T15:06:27Z</time>
      </trkpt>
      <trkpt lat="41.783551" lon="0.826511">
        <ele>237.624</ele>
        <time>2021-08-19T15:06:29Z</time>
      </trkpt>
      <trkpt lat="41.783587" lon="0.826555">
        <ele>237.217</ele>
        <time>2021-08-19T15:06:31Z</time>
      </trkpt>
      <trkpt lat="41.783624" lon="0.826596">
        <ele>237.018</ele>
        <time>2021-08-19T15:06:33Z</time>
      </trkpt>
      <trkpt lat="41.783661" lon="0.826642">
        <ele>237.075</ele>
        <time>2021-08-19T15:06:35Z</time>
      </trkpt>
      <trkpt lat="41.783694" lon="0.826691">
        <ele>237.133</ele>
        <time>2021-08-19T15:06:37Z</time>
      </trkpt>
      <trkpt lat="41.783729" lon="0.826738">
        <ele>237.192</ele>
        <time>2021-08-19T15:06:39Z</time>
      </trkpt>
      <trkpt lat="41.783772" lon="0.826788">
        <ele>237.291</ele>
        <time>2021-08-19T15:06:42Z</time>
      </trkpt>
      <trkpt lat="41.783744" lon="0.826732">
        <ele>237.161</ele>
        <time>2021-08-19T15:08:24Z</time>
      </trkpt>
      <trkpt lat="41.783687" lon="0.826678">
        <ele>237.021</ele>
        <time>2021-08-19T15:08:27Z</time>
      </trkpt>
      <trkpt lat="41.783644" lon="0.826639">
        <ele>237.013</ele>
        <time>2021-08-19T15:08:29Z</time>
      </trkpt>
      <trkpt lat="41.783620" lon="0.826573">
        <ele>237.008</ele>
        <time>2021-08-19T15:08:32Z</time>
      </trkpt>
      <trkpt lat="41.783563" lon="0.826509">
        <ele>237.454</ele>
        <time>2021-08-19T15:08:34Z</time>
      </trkpt>
      <trkpt lat="41.783524" lon="0.826461">
        <ele>237.947</ele>
        <time>2021-08-19T15:08:35Z</time>
      </trkpt>
      <trkpt lat="41.783480" lon="0.826411">
        <ele>238.410</ele>
        <time>2021-08-19T15:08:37Z</time>
      </trkpt>
      <trkpt lat="41.783441" lon="0.826357">
        <ele>239.031</ele>
        <time>2021-08-19T15:08:39Z</time>
      </trkpt>
      <trkpt lat="41.783401" lon="0.826293">
        <ele>239.638</ele>
        <time>2021-08-19T15:08:40Z</time>
      </trkpt>
      <trkpt lat="41.783367" lon="0.826239">
        <ele>240.246</ele>
        <time>2021-08-19T15:08:42Z</time>
      </trkpt>
      <trkpt lat="41.783337" lon="0.826188">
        <ele>240.785</ele>
        <time>2021-08-19T15:08:43Z</time>
      </trkpt>
      <trkpt lat="41.783305" lon="0.826138">
        <ele>241.234</ele>
        <time>2021-08-19T15:08:45Z</time>
      </trkpt>
      <trkpt lat="41.783264" lon="0.826080">
        <ele>241.718</ele>
        <time>2021-08-19T15:08:47Z</time>
      </trkpt>
      <trkpt lat="41.783232" lon="0.826033">
        <ele>242.098</ele>
        <time>2021-08-19T15:08:49Z</time>
      </trkpt>
      <trkpt lat="41.783196" lon="0.825983">
        <ele>242.317</ele>
        <time>2021-08-19T15:08:51Z</time>
      </trkpt>
      <trkpt lat="41.783148" lon="0.825923">
        <ele>242.608</ele>
        <time>2021-08-19T15:08:54Z</time>
      </trkpt>
      <trkpt lat="41.783107" lon="0.825889">
        <ele>242.879</ele>
        <time>2021-08-19T15:08:56Z</time>
      </trkpt>
      <trkpt lat="41.783067" lon="0.825852">
        <ele>243.062</ele>
        <time>2021-08-19T15:08:58Z</time>
      </trkpt>
      <trkpt lat="41.783017" lon="0.825815">
        <ele>242.785</ele>
        <time>2021-08-19T15:09:00Z</time>
      </trkpt>
      <trkpt lat="41.782973" lon="0.825780">
        <ele>242.376</ele>
        <time>2021-08-19T15:09:02Z</time>
      </trkpt>
      <trkpt lat="41.782928" lon="0.825740">
        <ele>241.913</ele>
        <time>2021-08-19T15:09:04Z</time>
      </trkpt>
      <trkpt lat="41.782882" lon="0.825695">
        <ele>241.491</ele>
        <time>2021-08-19T15:09:06Z</time>
      </trkpt>
      <trkpt lat="41.782837" lon="0.825676">
        <ele>241.190</ele>
        <time>2021-08-19T15:09:08Z</time>
      </trkpt>
      <trkpt lat="41.782776" lon="0.825663">
        <ele>240.889</ele>
        <time>2021-08-19T15:09:10Z</time>
      </trkpt>
      <trkpt lat="41.782732" lon="0.825651">
        <ele>240.614</ele>
        <time>2021-08-19T15:09:13Z</time>
      </trkpt>
      <trkpt lat="41.782761" lon="0.825605">
        <ele>240.354</ele>
        <time>2021-08-19T15:09:20Z</time>
      </trkpt>
      <trkpt lat="41.782809" lon="0.825558">
        <ele>240.109</ele>
        <time>2021-08-19T15:09:23Z</time>
      </trkpt>
      <trkpt lat="41.782863" lon="0.825579">
        <ele>240.508</ele>
        <time>2021-08-19T15:09:26Z</time>
      </trkpt>
      <trkpt lat="41.782897" lon="0.825537">
        <ele>240.419</ele>
        <time>2021-08-19T15:09:33Z</time>
      </trkpt>
      <trkpt lat="41.782944" lon="0.825497">
        <ele>240.572</ele>
        <time>2021-08-19T15:09:36Z</time>
      </trkpt>
      <trkpt lat="41.783003" lon="0.825503">
        <ele>240.845</ele>
        <time>2021-08-19T15:09:39Z</time>
      </trkpt>
      <trkpt lat="41.783035" lon="0.825562">
        <ele>241.066</ele>
        <time>2021-08-19T15:09:41Z</time>
      </trkpt>
      <trkpt lat="41.783069" lon="0.825618">
        <ele>241.483</ele>
        <time>2021-08-19T15:09:43Z</time>
      </trkpt>
      <trkpt lat="41.783120" lon="0.825648">
        <ele>241.581</ele>
        <time>2021-08-19T15:09:45Z</time>
      </trkpt>
      <trkpt lat="41.783186" lon="0.825658">
        <ele>241.490</ele>
        <time>2021-08-19T15:09:47Z</time>
      </trkpt>
      <trkpt lat="41.783259" lon="0.825686">
        <ele>241.359</ele>
        <time>2021-08-19T15:09:49Z</time>
      </trkpt>
      <trkpt lat="41.783318" lon="0.825695">
        <ele>241.194</ele>
        <time>2021-08-19T15:09:51Z</time>
      </trkpt>
      <trkpt lat="41.783366" lon="0.825664">
        <ele>241.057</ele>
        <time>2021-08-19T15:09:53Z</time>
      </trkpt>
      <trkpt lat="41.783389" lon="0.825612">
        <ele>241.022</ele>
        <time>2021-08-19T15:09:55Z</time>
      </trkpt>
      <trkpt lat="41.783455" lon="0.825589">
        <ele>240.908</ele>
        <time>2021-08-19T15:09:58Z</time>
      </trkpt>
      <trkpt lat="41.783513" lon="0.825550">
        <ele>241.097</ele>
        <time>2021-08-19T15:10:00Z</time>
      </trkpt>
      <trkpt lat="41.783562" lon="0.825500">
        <ele>241.070</ele>
        <time>2021-08-19T15:10:02Z</time>
      </trkpt>
      <trkpt lat="41.783613" lon="0.825444">
        <ele>241.063</ele>
        <time>2021-08-19T15:10:04Z</time>
      </trkpt>
      <trkpt lat="41.783660" lon="0.825391">
        <ele>240.914</ele>
        <time>2021-08-19T15:10:06Z</time>
      </trkpt>
      <trkpt lat="41.783709" lon="0.825352">
        <ele>240.991</ele>
        <time>2021-08-19T15:10:08Z</time>
      </trkpt>
      <trkpt lat="41.783764" lon="0.825318">
        <ele>240.939</ele>
        <time>2021-08-19T15:10:10Z</time>
      </trkpt>
      <trkpt lat="41.783818" lon="0.825270">
        <ele>241.078</ele>
        <time>2021-08-19T15:10:12Z</time>
      </trkpt>
      <trkpt lat="41.783867" lon="0.825216">
        <ele>241.027</ele>
        <time>2021-08-19T15:10:14Z</time>
      </trkpt>
      <trkpt lat="41.783917" lon="0.825176">
        <ele>240.991</ele>
        <time>2021-08-19T15:10:16Z</time>
      </trkpt>
      <trkpt lat="41.783973" lon="0.825128">
        <ele>240.981</ele>
        <time>2021-08-19T15:10:18Z</time>
      </trkpt>
      <trkpt lat="41.784028" lon="0.825081">
        <ele>240.919</ele>
        <time>2021-08-19T15:10:20Z</time>
      </trkpt>
      <trkpt lat="41.784086" lon="0.825032">
        <ele>240.908</ele>
        <time>2021-08-19T15:10:22Z</time>
      </trkpt>
      <trkpt lat="41.784144" lon="0.824980">
        <ele>241.037</ele>
        <time>2021-08-19T15:10:24Z</time>
      </trkpt>
      <trkpt lat="41.784201" lon="0.824928">
        <ele>240.980</ele>
        <time>2021-08-19T15:10:26Z</time>
      </trkpt>
      <trkpt lat="41.784261" lon="0.824879">
        <ele>240.733</ele>
        <time>2021-08-19T15:10:28Z</time>
      </trkpt>
      <trkpt lat="41.784312" lon="0.824825">
        <ele>240.584</ele>
        <time>2021-08-19T15:10:30Z</time>
      </trkpt>
      <trkpt lat="41.784351" lon="0.824784">
        <ele>240.331</ele>
        <time>2021-08-19T15:10:32Z</time>
      </trkpt>
      <trkpt lat="41.784420" lon="0.824742">
        <ele>240.129</ele>
        <time>2021-08-19T15:10:34Z</time>
      </trkpt>
      <trkpt lat="41.784473" lon="0.824692">
        <ele>239.968</ele>
        <time>2021-08-19T15:10:36Z</time>
      </trkpt>
      <trkpt lat="41.784524" lon="0.824638">
        <ele>239.777</ele>
        <time>2021-08-19T15:10:38Z</time>
      </trkpt>
      <trkpt lat="41.784573" lon="0.824579">
        <ele>239.522</ele>
        <time>2021-08-19T15:10:40Z</time>
      </trkpt>
      <trkpt lat="41.784633" lon="0.824536">
        <ele>239.362</ele>
        <time>2021-08-19T15:10:42Z</time>
      </trkpt>
      <trkpt lat="41.784686" lon="0.824481">
        <ele>239.108</ele>
        <time>2021-08-19T15:10:44Z</time>
      </trkpt>
      <trkpt lat="41.784744" lon="0.824434">
        <ele>238.808</ele>
        <time>2021-08-19T15:10:46Z</time>
      </trkpt>
      <trkpt lat="41.784802" lon="0.824395">
        <ele>238.430</ele>
        <time>2021-08-19T15:10:48Z</time>
      </trkpt>
      <trkpt lat="41.784865" lon="0.824360">
        <ele>238.033</ele>
        <time>2021-08-19T15:10:50Z</time>
      </trkpt>
      <trkpt lat="41.784926" lon="0.824322">
        <ele>237.766</ele>
        <time>2021-08-19T15:10:52Z</time>
      </trkpt>
      <trkpt lat="41.784977" lon="0.824266">
        <ele>237.447</ele>
        <time>2021-08-19T15:10:54Z</time>
      </trkpt>
      <trkpt lat="41.785031" lon="0.824222">
        <ele>237.324</ele>
        <time>2021-08-19T15:10:56Z</time>
      </trkpt>
      <trkpt lat="41.785085" lon="0.824174">
        <ele>237.312</ele>
        <time>2021-08-19T15:10:58Z</time>
      </trkpt>
      <trkpt lat="41.785141" lon="0.824131">
        <ele>237.561</ele>
        <time>2021-08-19T15:11:00Z</time>
      </trkpt>
      <trkpt lat="41.785174" lon="0.824084">
        <ele>237.610</ele>
        <time>2021-08-19T15:11:02Z</time>
      </trkpt>
      <trkpt lat="41.785232" lon="0.824013">
        <ele>237.818</ele>
        <time>2021-08-19T15:11:04Z</time>
      </trkpt>
      <trkpt lat="41.785287" lon="0.823971">
        <ele>238.098</ele>
        <time>2021-08-19T15:11:06Z</time>
      </trkpt>
      <trkpt lat="41.785338" lon="0.823927">
        <ele>238.017</ele>
        <time>2021-08-19T15:11:08Z</time>
      </trkpt>
      <trkpt lat="41.785397" lon="0.823883">
        <ele>238.008</ele>
        <time>2021-08-19T15:11:10Z</time>
      </trkpt>
      <trkpt lat="41.785451" lon="0.823821">
        <ele>237.899</ele>
        <time>2021-08-19T15:11:12Z</time>
      </trkpt>
      <trkpt lat="41.785506" lon="0.823767">
        <ele>237.682</ele>
        <time>2021-08-19T15:11:14Z</time>
      </trkpt>
      <trkpt lat="41.785559" lon="0.823713">
        <ele>237.475</ele>
        <time>2021-08-19T15:11:16Z</time>
      </trkpt>
      <trkpt lat="41.785617" lon="0.823667">
        <ele>237.296</ele>
        <time>2021-08-19T15:11:18Z</time>
      </trkpt>
      <trkpt lat="41.785669" lon="0.823628">
        <ele>237.043</ele>
        <time>2021-08-19T15:11:20Z</time>
      </trkpt>
      <trkpt lat="41.785716" lon="0.823581">
        <ele>236.931</ele>
        <time>2021-08-19T15:11:22Z</time>
      </trkpt>
      <trkpt lat="41.785766" lon="0.823539">
        <ele>236.870</ele>
        <time>2021-08-19T15:11:24Z</time>
      </trkpt>
      <trkpt lat="41.785810" lon="0.823493">
        <ele>236.649</ele>
        <time>2021-08-19T15:11:26Z</time>
      </trkpt>
      <trkpt lat="41.785862" lon="0.823449">
        <ele>236.421</ele>
        <time>2021-08-19T15:11:28Z</time>
      </trkpt>
      <trkpt lat="41.785911" lon="0.823422">
        <ele>236.241</ele>
        <time>2021-08-19T15:11:30Z</time>
      </trkpt>
      <trkpt lat="41.785953" lon="0.823381">
        <ele>236.105</ele>
        <time>2021-08-19T15:11:32Z</time>
      </trkpt>
      <trkpt lat="41.786006" lon="0.823334">
        <ele>236.008</ele>
        <time>2021-08-19T15:11:34Z</time>
      </trkpt>
      <trkpt lat="41.786045" lon="0.823295">
        <ele>235.910</ele>
        <time>2021-08-19T15:11:36Z</time>
      </trkpt>
      <trkpt lat="41.786086" lon="0.823264">
        <ele>235.863</ele>
        <time>2021-08-19T15:11:38Z</time>
      </trkpt>
      <trkpt lat="41.786157" lon="0.823208">
        <ele>235.576</ele>
        <time>2021-08-19T15:11:41Z</time>
      </trkpt>
      <trkpt lat="41.786205" lon="0.823161">
        <ele>235.467</ele>
        <time>2021-08-19T15:11:43Z</time>
      </trkpt>
      <trkpt lat="41.786261" lon="0.823119">
        <ele>235.234</ele>
        <time>2021-08-19T15:11:45Z</time>
      </trkpt>
      <trkpt lat="41.786308" lon="0.823077">
        <ele>235.122</ele>
        <time>2021-08-19T15:11:47Z</time>
      </trkpt>
      <trkpt lat="41.786355" lon="0.823033">
        <ele>235.011</ele>
        <time>2021-08-19T15:11:49Z</time>
      </trkpt>
      <trkpt lat="41.786400" lon="0.822994">
        <ele>235.180</ele>
        <time>2021-08-19T15:11:51Z</time>
      </trkpt>
      <trkpt lat="41.786448" lon="0.822951">
        <ele>235.448</ele>
        <time>2021-08-19T15:11:53Z</time>
      </trkpt>
      <trkpt lat="41.786506" lon="0.822906">
        <ele>235.861</ele>
        <time>2021-08-19T15:11:56Z</time>
      </trkpt>
      <trkpt lat="41.786559" lon="0.822867">
        <ele>236.217</ele>
        <time>2021-08-19T15:11:59Z</time>
      </trkpt>
      <trkpt lat="41.786603" lon="0.822834">
        <ele>236.508</ele>
        <time>2021-08-19T15:12:01Z</time>
      </trkpt>
      <trkpt lat="41.786662" lon="0.822798">
        <ele>237.072</ele>
        <time>2021-08-19T15:12:03Z</time>
      </trkpt>
      <trkpt lat="41.786708" lon="0.822756">
        <ele>237.195</ele>
        <time>2021-08-19T15:12:05Z</time>
      </trkpt>
      <trkpt lat="41.786753" lon="0.822726">
        <ele>237.348</ele>
        <time>2021-08-19T15:12:07Z</time>
      </trkpt>
      <trkpt lat="41.786799" lon="0.822689">
        <ele>237.589</ele>
        <time>2021-08-19T15:12:09Z</time>
      </trkpt>
      <trkpt lat="41.786853" lon="0.822658">
        <ele>237.796</ele>
        <time>2021-08-19T15:12:11Z</time>
      </trkpt>
      <trkpt lat="41.786912" lon="0.822627">
        <ele>237.984</ele>
        <time>2021-08-19T15:12:13Z</time>
      </trkpt>
      <trkpt lat="41.786964" lon="0.822586">
        <ele>238.013</ele>
        <time>2021-08-19T15:12:15Z</time>
      </trkpt>
      <trkpt lat="41.787012" lon="0.822557">
        <ele>238.032</ele>
        <time>2021-08-19T15:12:17Z</time>
      </trkpt>
      <trkpt lat="41.787073" lon="0.822524">
        <ele>238.011</ele>
        <time>2021-08-19T15:12:19Z</time>
      </trkpt>
      <trkpt lat="41.787127" lon="0.822495">
        <ele>238.021</ele>
        <time>2021-08-19T15:12:21Z</time>
      </trkpt>
      <trkpt lat="41.787187" lon="0.822478">
        <ele>238.003</ele>
        <time>2021-08-19T15:12:23Z</time>
      </trkpt>
      <trkpt lat="41.787257" lon="0.822445">
        <ele>238.008</ele>
        <time>2021-08-19T15:12:25Z</time>
      </trkpt>
      <trkpt lat="41.787323" lon="0.822419">
        <ele>238.059</ele>
        <time>2021-08-19T15:12:27Z</time>
      </trkpt>
      <trkpt lat="41.787388" lon="0.822387">
        <ele>238.022</ele>
        <time>2021-08-19T15:12:29Z</time>
      </trkpt>
      <trkpt lat="41.787437" lon="0.822355">
        <ele>238.075</ele>
        <time>2021-08-19T15:12:31Z</time>
      </trkpt>
      <trkpt lat="41.787487" lon="0.822326">
        <ele>238.056</ele>
        <time>2021-08-19T15:12:33Z</time>
      </trkpt>
      <trkpt lat="41.787542" lon="0.822293">
        <ele>238.083</ele>
        <time>2021-08-19T15:12:35Z</time>
      </trkpt>
      <trkpt lat="41.787597" lon="0.822260">
        <ele>238.031</ele>
        <time>2021-08-19T15:12:37Z</time>
      </trkpt>
      <trkpt lat="41.787660" lon="0.822227">
        <ele>238.060</ele>
        <time>2021-08-19T15:12:39Z</time>
      </trkpt>
      <trkpt lat="41.787722" lon="0.822194">
        <ele>238.019</ele>
        <time>2021-08-19T15:12:41Z</time>
      </trkpt>
      <trkpt lat="41.787781" lon="0.822164">
        <ele>238.029</ele>
        <time>2021-08-19T15:12:43Z</time>
      </trkpt>
      <trkpt lat="41.787837" lon="0.822140">
        <ele>237.800</ele>
        <time>2021-08-19T15:12:45Z</time>
      </trkpt>
      <trkpt lat="41.787895" lon="0.822103">
        <ele>237.620</ele>
        <time>2021-08-19T15:12:47Z</time>
      </trkpt>
      <trkpt lat="41.787960" lon="0.822079">
        <ele>237.308</ele>
        <time>2021-08-19T15:12:49Z</time>
      </trkpt>
      <trkpt lat="41.788024" lon="0.822047">
        <ele>237.180</ele>
        <time>2021-08-19T15:12:51Z</time>
      </trkpt>
      <trkpt lat="41.788091" lon="0.822022">
        <ele>236.773</ele>
        <time>2021-08-19T15:12:53Z</time>
      </trkpt>
      <trkpt lat="41.788146" lon="0.821995">
        <ele>236.336</ele>
        <time>2021-08-19T15:12:55Z</time>
      </trkpt>
      <trkpt lat="41.788192" lon="0.821975">
        <ele>236.047</ele>
        <time>2021-08-19T15:12:57Z</time>
      </trkpt>
      <trkpt lat="41.788248" lon="0.821952">
        <ele>235.634</ele>
        <time>2021-08-19T15:13:00Z</time>
      </trkpt>
      <trkpt lat="41.788293" lon="0.821931">
        <ele>235.312</ele>
        <time>2021-08-19T15:13:08Z</time>
      </trkpt>
      <trkpt lat="41.788314" lon="0.821845">
        <ele>235.181</ele>
        <time>2021-08-19T15:13:11Z</time>
      </trkpt>
      <trkpt lat="41.788355" lon="0.821777">
        <ele>234.860</ele>
        <time>2021-08-19T15:13:14Z</time>
      </trkpt>
      <trkpt lat="41.788402" lon="0.821749">
        <ele>234.426</ele>
        <time>2021-08-19T15:13:16Z</time>
      </trkpt>
      <trkpt lat="41.788459" lon="0.821723">
        <ele>233.847</ele>
        <time>2021-08-19T15:13:20Z</time>
      </trkpt>
      <trkpt lat="41.788504" lon="0.821694">
        <ele>233.311</ele>
        <time>2021-08-19T15:13:23Z</time>
      </trkpt>
      <trkpt lat="41.788542" lon="0.821645">
        <ele>232.608</ele>
        <time>2021-08-19T15:13:26Z</time>
      </trkpt>
      <trkpt lat="41.788580" lon="0.821598">
        <ele>231.960</ele>
        <time>2021-08-19T15:13:30Z</time>
      </trkpt>
      <trkpt lat="41.788636" lon="0.821566">
        <ele>231.193</ele>
        <time>2021-08-19T15:13:33Z</time>
      </trkpt>
      <trkpt lat="41.788684" lon="0.821520">
        <ele>230.666</ele>
        <time>2021-08-19T15:13:35Z</time>
      </trkpt>
      <trkpt lat="41.788737" lon="0.821468">
        <ele>230.027</ele>
        <time>2021-08-19T15:13:37Z</time>
      </trkpt>
      <trkpt lat="41.788791" lon="0.821418">
        <ele>229.594</ele>
        <time>2021-08-19T15:13:39Z</time>
      </trkpt>
      <trkpt lat="41.788837" lon="0.821372">
        <ele>229.132</ele>
        <time>2021-08-19T15:13:41Z</time>
      </trkpt>
      <trkpt lat="41.788890" lon="0.821315">
        <ele>228.721</ele>
        <time>2021-08-19T15:13:43Z</time>
      </trkpt>
      <trkpt lat="41.788927" lon="0.821278">
        <ele>228.750</ele>
        <time>2021-08-19T15:13:45Z</time>
      </trkpt>
      <trkpt lat="41.788965" lon="0.821244">
        <ele>228.651</ele>
        <time>2021-08-19T15:13:46Z</time>
      </trkpt>
      <trkpt lat="41.789009" lon="0.821194">
        <ele>228.601</ele>
        <time>2021-08-19T15:13:48Z</time>
      </trkpt>
      <trkpt lat="41.789055" lon="0.821126">
        <ele>228.611</ele>
        <time>2021-08-19T15:13:50Z</time>
      </trkpt>
      <trkpt lat="41.789100" lon="0.821050">
        <ele>228.808</ele>
        <time>2021-08-19T15:13:52Z</time>
      </trkpt>
      <trkpt lat="41.789141" lon="0.820965">
        <ele>228.983</ele>
        <time>2021-08-19T15:13:54Z</time>
      </trkpt>
      <trkpt lat="41.789184" lon="0.820886">
        <ele>229.036</ele>
        <time>2021-08-19T15:13:56Z</time>
      </trkpt>
      <trkpt lat="41.789237" lon="0.820819">
        <ele>228.919</ele>
        <time>2021-08-19T15:13:58Z</time>
      </trkpt>
      <trkpt lat="41.789274" lon="0.820745">
        <ele>228.750</ele>
        <time>2021-08-19T15:14:00Z</time>
      </trkpt>
      <trkpt lat="41.789297" lon="0.820685">
        <ele>228.537</ele>
        <time>2021-08-19T15:14:02Z</time>
      </trkpt>
      <trkpt lat="41.789325" lon="0.820607">
        <ele>228.275</ele>
        <time>2021-08-19T15:14:05Z</time>
      </trkpt>
      <trkpt lat="41.789353" lon="0.820549">
        <ele>228.014</ele>
        <time>2021-08-19T15:14:09Z</time>
      </trkpt>
      <trkpt lat="41.789361" lon="0.820486">
        <ele>227.583</ele>
        <time>2021-08-19T15:14:12Z</time>
      </trkpt>
      <trkpt lat="41.789385" lon="0.820435">
        <ele>227.195</ele>
        <time>2021-08-19T15:14:14Z</time>
      </trkpt>
      <trkpt lat="41.789407" lon="0.820373">
        <ele>226.749</ele>
        <time>2021-08-19T15:14:18Z</time>
      </trkpt>
      <trkpt lat="41.789456" lon="0.820390">
        <ele>226.823</ele>
        <time>2021-08-19T15:14:25Z</time>
      </trkpt>
      <trkpt lat="41.789485" lon="0.820333">
        <ele>226.208</ele>
        <time>2021-08-19T15:14:27Z</time>
      </trkpt>
      <trkpt lat="41.789505" lon="0.820243">
        <ele>225.687</ele>
        <time>2021-08-19T15:14:29Z</time>
      </trkpt>
      <trkpt lat="41.789538" lon="0.820131">
        <ele>225.010</ele>
        <time>2021-08-19T15:14:31Z</time>
      </trkpt>
      <trkpt lat="41.789561" lon="0.820070">
        <ele>224.753</ele>
        <time>2021-08-19T15:14:32Z</time>
      </trkpt>
      <trkpt lat="41.789607" lon="0.819962">
        <ele>224.724</ele>
        <time>2021-08-19T15:14:34Z</time>
      </trkpt>
      <trkpt lat="41.789641" lon="0.819862">
        <ele>225.281</ele>
        <time>2021-08-19T15:14:36Z</time>
      </trkpt>
      <trkpt lat="41.789674" lon="0.819768">
        <ele>225.799</ele>
        <time>2021-08-19T15:14:38Z</time>
      </trkpt>
      <trkpt lat="41.789704" lon="0.819678">
        <ele>225.938</ele>
        <time>2021-08-19T15:14:40Z</time>
      </trkpt>
      <trkpt lat="41.789723" lon="0.819593">
        <ele>226.037</ele>
        <time>2021-08-19T15:14:42Z</time>
      </trkpt>
      <trkpt lat="41.789756" lon="0.819522">
        <ele>225.947</ele>
        <time>2021-08-19T15:14:44Z</time>
      </trkpt>
      <trkpt lat="41.789788" lon="0.819422">
        <ele>225.829</ele>
        <time>2021-08-19T15:14:47Z</time>
      </trkpt>
      <trkpt lat="41.789793" lon="0.819351">
        <ele>225.821</ele>
        <time>2021-08-19T15:14:49Z</time>
      </trkpt>
      <trkpt lat="41.789807" lon="0.819278">
        <ele>225.908</ele>
        <time>2021-08-19T15:14:51Z</time>
      </trkpt>
      <trkpt lat="41.789851" lon="0.819197">
        <ele>225.992</ele>
        <time>2021-08-19T15:14:53Z</time>
      </trkpt>
      <trkpt lat="41.789889" lon="0.819109">
        <ele>226.175</ele>
        <time>2021-08-19T15:14:55Z</time>
      </trkpt>
      <trkpt lat="41.789918" lon="0.819017">
        <ele>226.438</ele>
        <time>2021-08-19T15:14:57Z</time>
      </trkpt>
      <trkpt lat="41.789948" lon="0.818933">
        <ele>226.789</ele>
        <time>2021-08-19T15:14:59Z</time>
      </trkpt>
      <trkpt lat="41.789976" lon="0.818855">
        <ele>227.086</ele>
        <time>2021-08-19T15:15:01Z</time>
      </trkpt>
      <trkpt lat="41.790007" lon="0.818779">
        <ele>227.424</ele>
        <time>2021-08-19T15:15:03Z</time>
      </trkpt>
      <trkpt lat="41.790035" lon="0.818703">
        <ele>227.663</ele>
        <time>2021-08-19T15:15:05Z</time>
      </trkpt>
      <trkpt lat="41.790060" lon="0.818625">
        <ele>227.722</ele>
        <time>2021-08-19T15:15:07Z</time>
      </trkpt>
      <trkpt lat="41.790088" lon="0.818561">
        <ele>227.682</ele>
        <time>2021-08-19T15:15:09Z</time>
      </trkpt>
      <trkpt lat="41.790122" lon="0.818502">
        <ele>227.343</ele>
        <time>2021-08-19T15:15:11Z</time>
      </trkpt>
      <trkpt lat="41.790142" lon="0.818438">
        <ele>227.217</ele>
        <time>2021-08-19T15:15:13Z</time>
      </trkpt>
      <trkpt lat="41.790170" lon="0.818348">
        <ele>227.008</ele>
        <time>2021-08-19T15:15:16Z</time>
      </trkpt>
      <trkpt lat="41.790198" lon="0.818287">
        <ele>226.726</ele>
        <time>2021-08-19T15:15:18Z</time>
      </trkpt>
      <trkpt lat="41.790237" lon="0.818227">
        <ele>226.319</ele>
        <time>2021-08-19T15:15:20Z</time>
      </trkpt>
      <trkpt lat="41.790259" lon="0.818163">
        <ele>225.862</ele>
        <time>2021-08-19T15:15:22Z</time>
      </trkpt>
      <trkpt lat="41.790276" lon="0.818097">
        <ele>225.393</ele>
        <time>2021-08-19T15:15:24Z</time>
      </trkpt>
      <trkpt lat="41.790303" lon="0.818030">
        <ele>224.820</ele>
        <time>2021-08-19T15:15:26Z</time>
      </trkpt>
      <trkpt lat="41.790326" lon="0.817957">
        <ele>224.518</ele>
        <time>2021-08-19T15:15:28Z</time>
      </trkpt>
      <trkpt lat="41.790345" lon="0.817885">
        <ele>224.377</ele>
        <time>2021-08-19T15:15:30Z</time>
      </trkpt>
      <trkpt lat="41.790365" lon="0.817816">
        <ele>224.136</ele>
        <time>2021-08-19T15:15:32Z</time>
      </trkpt>
      <trkpt lat="41.790388" lon="0.817757">
        <ele>224.017</ele>
        <time>2021-08-19T15:15:34Z</time>
      </trkpt>
      <trkpt lat="41.790423" lon="0.817691">
        <ele>223.987</ele>
        <time>2021-08-19T15:15:36Z</time>
      </trkpt>
      <trkpt lat="41.790440" lon="0.817616">
        <ele>223.815</ele>
        <time>2021-08-19T15:15:38Z</time>
      </trkpt>
      <trkpt lat="41.790466" lon="0.817552">
        <ele>223.708</ele>
        <time>2021-08-19T15:15:40Z</time>
      </trkpt>
      <trkpt lat="41.790490" lon="0.817493">
        <ele>223.859</ele>
        <time>2021-08-19T15:15:42Z</time>
      </trkpt>
      <trkpt lat="41.790517" lon="0.817434">
        <ele>223.952</ele>
        <time>2021-08-19T15:15:44Z</time>
      </trkpt>
      <trkpt lat="41.790545" lon="0.817371">
        <ele>224.015</ele>
        <time>2021-08-19T15:15:46Z</time>
      </trkpt>
      <trkpt lat="41.790577" lon="0.817287">
        <ele>224.026</ele>
        <time>2021-08-19T15:15:48Z</time>
      </trkpt>
      <trkpt lat="41.790607" lon="0.817219">
        <ele>224.053</ele>
        <time>2021-08-19T15:15:50Z</time>
      </trkpt>
      <trkpt lat="41.790628" lon="0.817149">
        <ele>223.881</ele>
        <time>2021-08-19T15:15:52Z</time>
      </trkpt>
      <trkpt lat="41.790657" lon="0.817088">
        <ele>223.730</ele>
        <time>2021-08-19T15:15:54Z</time>
      </trkpt>
      <trkpt lat="41.790676" lon="0.817014">
        <ele>223.659</ele>
        <time>2021-08-19T15:15:56Z</time>
      </trkpt>
      <trkpt lat="41.790696" lon="0.816937">
        <ele>223.551</ele>
        <time>2021-08-19T15:15:58Z</time>
      </trkpt>
      <trkpt lat="41.790714" lon="0.816869">
        <ele>223.701</ele>
        <time>2021-08-19T15:16:00Z</time>
      </trkpt>
      <trkpt lat="41.790739" lon="0.816797">
        <ele>223.811</ele>
        <time>2021-08-19T15:16:02Z</time>
      </trkpt>
      <trkpt lat="41.790769" lon="0.816712">
        <ele>224.008</ele>
        <time>2021-08-19T15:16:04Z</time>
      </trkpt>
      <trkpt lat="41.790803" lon="0.816626">
        <ele>224.173</ele>
        <time>2021-08-19T15:16:06Z</time>
      </trkpt>
      <trkpt lat="41.790833" lon="0.816546">
        <ele>224.446</ele>
        <time>2021-08-19T15:16:08Z</time>
      </trkpt>
      <trkpt lat="41.790853" lon="0.816468">
        <ele>224.859</ele>
        <time>2021-08-19T15:16:10Z</time>
      </trkpt>
      <trkpt lat="41.790882" lon="0.816399">
        <ele>225.320</ele>
        <time>2021-08-19T15:16:12Z</time>
      </trkpt>
      <trkpt lat="41.790911" lon="0.816325">
        <ele>225.697</ele>
        <time>2021-08-19T15:16:14Z</time>
      </trkpt>
      <trkpt lat="41.790932" lon="0.816269">
        <ele>225.945</ele>
        <time>2021-08-19T15:16:16Z</time>
      </trkpt>
      <trkpt lat="41.790965" lon="0.816185">
        <ele>226.384</ele>
        <time>2021-08-19T15:16:18Z</time>
      </trkpt>
      <trkpt lat="41.790979" lon="0.816119">
        <ele>226.683</ele>
        <time>2021-08-19T15:16:20Z</time>
      </trkpt>
      <trkpt lat="41.790996" lon="0.816061">
        <ele>226.813</ele>
        <time>2021-08-19T15:16:22Z</time>
      </trkpt>
      <trkpt lat="41.791025" lon="0.815981">
        <ele>227.243</ele>
        <time>2021-08-19T15:16:25Z</time>
      </trkpt>
      <trkpt lat="41.791055" lon="0.815929">
        <ele>227.507</ele>
        <time>2021-08-19T15:16:27Z</time>
      </trkpt>
      <trkpt lat="41.791073" lon="0.815869">
        <ele>227.708</ele>
        <time>2021-08-19T15:16:29Z</time>
      </trkpt>
      <trkpt lat="41.791104" lon="0.815785">
        <ele>227.879</ele>
        <time>2021-08-19T15:16:32Z</time>
      </trkpt>
      <trkpt lat="41.791128" lon="0.815717">
        <ele>227.632</ele>
        <time>2021-08-19T15:16:34Z</time>
      </trkpt>
      <trkpt lat="41.791157" lon="0.815655">
        <ele>227.555</ele>
        <time>2021-08-19T15:16:36Z</time>
      </trkpt>
      <trkpt lat="41.791179" lon="0.815597">
        <ele>227.476</ele>
        <time>2021-08-19T15:16:38Z</time>
      </trkpt>
      <trkpt lat="41.791202" lon="0.815536">
        <ele>227.343</ele>
        <time>2021-08-19T15:16:40Z</time>
      </trkpt>
      <trkpt lat="41.791221" lon="0.815471">
        <ele>227.181</ele>
        <time>2021-08-19T15:16:42Z</time>
      </trkpt>
      <trkpt lat="41.791251" lon="0.815398">
        <ele>226.980</ele>
        <time>2021-08-19T15:16:45Z</time>
      </trkpt>
      <trkpt lat="41.791281" lon="0.815327">
        <ele>226.899</ele>
        <time>2021-08-19T15:16:48Z</time>
      </trkpt>
      <trkpt lat="41.791305" lon="0.815254">
        <ele>226.639</ele>
        <time>2021-08-19T15:16:50Z</time>
      </trkpt>
      <trkpt lat="41.791333" lon="0.815166">
        <ele>226.401</ele>
        <time>2021-08-19T15:16:52Z</time>
      </trkpt>
      <trkpt lat="41.791360" lon="0.815084">
        <ele>226.221</ele>
        <time>2021-08-19T15:16:54Z</time>
      </trkpt>
      <trkpt lat="41.791380" lon="0.815011">
        <ele>226.008</ele>
        <time>2021-08-19T15:16:56Z</time>
      </trkpt>
      <trkpt lat="41.791403" lon="0.814945">
        <ele>225.881</ele>
        <time>2021-08-19T15:16:58Z</time>
      </trkpt>
      <trkpt lat="41.791422" lon="0.814877">
        <ele>225.474</ele>
        <time>2021-08-19T15:17:00Z</time>
      </trkpt>
      <trkpt lat="41.791434" lon="0.814810">
        <ele>225.297</ele>
        <time>2021-08-19T15:17:02Z</time>
      </trkpt>
      <trkpt lat="41.791463" lon="0.814734">
        <ele>224.888</ele>
        <time>2021-08-19T15:17:05Z</time>
      </trkpt>
      <trkpt lat="41.791483" lon="0.814676">
        <ele>224.665</ele>
        <time>2021-08-19T15:17:07Z</time>
      </trkpt>
      <trkpt lat="41.791503" lon="0.814620">
        <ele>224.473</ele>
        <time>2021-08-19T15:17:09Z</time>
      </trkpt>
      <trkpt lat="41.791526" lon="0.814553">
        <ele>224.282</ele>
        <time>2021-08-19T15:17:11Z</time>
      </trkpt>
      <trkpt lat="41.791566" lon="0.814485">
        <ele>224.181</ele>
        <time>2021-08-19T15:17:14Z</time>
      </trkpt>
    </trkseg>
  </trk>
</gpx>
